<?xml version="1.0" encoding="UTF-8" standalone="no" ?>
<gpx xmlns="http://www.topografix.com/GPX/1/1" xmlns:xsi="http://www.w3.org/2001/XMLSchema-instance" xsi:schemaLocation="http://www.topografix.com/GPX/1/1 http://www.topografix.com/GPX/1/1/gpx.xsd" version="1.1" creator="VisuGPX - https://www.visugpx.com">
  <metadata>
    <name>42 km autour de Yerres  V3 - via Santeny / Marolles / La queue en Brie</name>
    <desc><![CDATA[Marathon numéro 3 sous la houlette de Patrick]]></desc>
  </metadata>
  <trk>
    <name><![CDATA[SityTrail - 42 km autour de Yerres via Marolles / Santeny / La queue en Brie]]></name>
    <desc><![CDATA[Marathon numéro 3 sous la houlette de Patrick]]></desc>
    <trkseg>
      <trkpt lat="48.71463" lon="2.47906">
        <ele>38</ele>
        <time>2020-12-10T07:03:40.580Z</time>
      </trkpt>
      <trkpt lat="48.71463" lon="2.47905">
        <ele>38</ele>
        <time>2020-12-10T07:03:54.612Z</time>
      </trkpt>
      <trkpt lat="48.71462" lon="2.47903">
        <ele>38</ele>
        <time>2020-12-10T07:03:59.622Z</time>
      </trkpt>
      <trkpt lat="48.7146" lon="2.479">
        <ele>38</ele>
        <time>2020-12-10T07:04:04.630Z</time>
      </trkpt>
      <trkpt lat="48.71457" lon="2.47899">
        <ele>39</ele>
        <time>2020-12-10T07:04:08.609Z</time>
      </trkpt>
      <trkpt lat="48.71453" lon="2.47898">
        <ele>39</ele>
        <time>2020-12-10T07:04:13.616Z</time>
      </trkpt>
      <trkpt lat="48.71449" lon="2.47897">
        <ele>39</ele>
        <time>2020-12-10T07:04:17.621Z</time>
      </trkpt>
      <trkpt lat="48.71444" lon="2.47895">
        <ele>39</ele>
        <time>2020-12-10T07:04:22.617Z</time>
      </trkpt>
      <trkpt lat="48.71437" lon="2.47897">
        <ele>39</ele>
        <time>2020-12-10T07:04:27.603Z</time>
      </trkpt>
      <trkpt lat="48.71431" lon="2.47898">
        <ele>39</ele>
        <time>2020-12-10T07:04:32.609Z</time>
      </trkpt>
      <trkpt lat="48.71426" lon="2.47897">
        <ele>39</ele>
        <time>2020-12-10T07:04:37.601Z</time>
      </trkpt>
      <trkpt lat="48.71421" lon="2.47899">
        <ele>39</ele>
        <time>2020-12-10T07:04:41.604Z</time>
      </trkpt>
      <trkpt lat="48.71416" lon="2.47898">
        <ele>39</ele>
        <time>2020-12-10T07:04:46.616Z</time>
      </trkpt>
      <trkpt lat="48.71411" lon="2.479">
        <ele>39</ele>
        <time>2020-12-10T07:04:51.583Z</time>
      </trkpt>
      <trkpt lat="48.71406" lon="2.47901">
        <ele>39</ele>
        <time>2020-12-10T07:04:55.596Z</time>
      </trkpt>
      <trkpt lat="48.714" lon="2.47902">
        <ele>39</ele>
        <time>2020-12-10T07:04:59.611Z</time>
      </trkpt>
      <trkpt lat="48.71393" lon="2.47905">
        <ele>39</ele>
        <time>2020-12-10T07:05:04.611Z</time>
      </trkpt>
      <trkpt lat="48.71388" lon="2.47907">
        <ele>39</ele>
        <time>2020-12-10T07:05:09.622Z</time>
      </trkpt>
      <trkpt lat="48.71381" lon="2.47907">
        <ele>39</ele>
        <time>2020-12-10T07:05:14.625Z</time>
      </trkpt>
      <trkpt lat="48.71375" lon="2.47911">
        <ele>38</ele>
        <time>2020-12-10T07:05:18.670Z</time>
      </trkpt>
      <trkpt lat="48.71368" lon="2.47917">
        <ele>38</ele>
        <time>2020-12-10T07:05:23.599Z</time>
      </trkpt>
      <trkpt lat="48.71366" lon="2.47925">
        <ele>38</ele>
        <time>2020-12-10T07:05:28.613Z</time>
      </trkpt>
      <trkpt lat="48.71366" lon="2.47928">
        <ele>38</ele>
        <time>2020-12-10T07:05:32.606Z</time>
      </trkpt>
      <trkpt lat="48.7137" lon="2.47937">
        <ele>37</ele>
        <time>2020-12-10T07:05:37.637Z</time>
      </trkpt>
      <trkpt lat="48.71374" lon="2.47946">
        <ele>37</ele>
        <time>2020-12-10T07:05:42.605Z</time>
      </trkpt>
      <trkpt lat="48.71375" lon="2.47958">
        <ele>39</ele>
        <time>2020-12-10T07:05:47.600Z</time>
      </trkpt>
      <trkpt lat="48.71376" lon="2.47967">
        <ele>38</ele>
        <time>2020-12-10T07:05:52.615Z</time>
      </trkpt>
      <trkpt lat="48.71377" lon="2.47972">
        <ele>38</ele>
        <time>2020-12-10T07:05:56.610Z</time>
      </trkpt>
      <trkpt lat="48.71379" lon="2.47982">
        <ele>38</ele>
        <time>2020-12-10T07:06:01.613Z</time>
      </trkpt>
      <trkpt lat="48.71381" lon="2.48">
        <ele>38</ele>
        <time>2020-12-10T07:06:06.611Z</time>
      </trkpt>
      <trkpt lat="48.71381" lon="2.48009">
        <ele>38</ele>
        <time>2020-12-10T07:06:11.606Z</time>
      </trkpt>
      <trkpt lat="48.7138" lon="2.4802">
        <ele>38</ele>
        <time>2020-12-10T07:06:16.615Z</time>
      </trkpt>
      <trkpt lat="48.71381" lon="2.48034">
        <ele>38</ele>
        <time>2020-12-10T07:06:21.616Z</time>
      </trkpt>
      <trkpt lat="48.71384" lon="2.48043">
        <ele>37</ele>
        <time>2020-12-10T07:06:25.621Z</time>
      </trkpt>
      <trkpt lat="48.71386" lon="2.48047">
        <ele>37</ele>
        <time>2020-12-10T07:06:30.605Z</time>
      </trkpt>
      <trkpt lat="48.71388" lon="2.48063">
        <ele>37</ele>
        <time>2020-12-10T07:06:35.595Z</time>
      </trkpt>
      <trkpt lat="48.71388" lon="2.48071">
        <ele>37</ele>
        <time>2020-12-10T07:06:39.606Z</time>
      </trkpt>
      <trkpt lat="48.71389" lon="2.48076">
        <ele>37</ele>
        <time>2020-12-10T07:06:43.619Z</time>
      </trkpt>
      <trkpt lat="48.71389" lon="2.48088">
        <ele>37</ele>
        <time>2020-12-10T07:06:48.623Z</time>
      </trkpt>
      <trkpt lat="48.71392" lon="2.48098">
        <ele>36</ele>
        <time>2020-12-10T07:06:53.614Z</time>
      </trkpt>
      <trkpt lat="48.71393" lon="2.48106">
        <ele>36</ele>
        <time>2020-12-10T07:06:57.632Z</time>
      </trkpt>
      <trkpt lat="48.71393" lon="2.48111">
        <ele>36</ele>
        <time>2020-12-10T07:07:02.620Z</time>
      </trkpt>
      <trkpt lat="48.71394" lon="2.48123">
        <ele>36</ele>
        <time>2020-12-10T07:07:07.609Z</time>
      </trkpt>
      <trkpt lat="48.71393" lon="2.48133">
        <ele>35</ele>
        <time>2020-12-10T07:07:12.608Z</time>
      </trkpt>
      <trkpt lat="48.71394" lon="2.48144">
        <ele>35</ele>
        <time>2020-12-10T07:07:17.612Z</time>
      </trkpt>
      <trkpt lat="48.71394" lon="2.48155">
        <ele>35</ele>
        <time>2020-12-10T07:07:22.599Z</time>
      </trkpt>
      <trkpt lat="48.71396" lon="2.48163">
        <ele>35</ele>
        <time>2020-12-10T07:07:26.619Z</time>
      </trkpt>
      <trkpt lat="48.71397" lon="2.48173">
        <ele>35</ele>
        <time>2020-12-10T07:07:31.600Z</time>
      </trkpt>
      <trkpt lat="48.71401" lon="2.4818">
        <ele>35</ele>
        <time>2020-12-10T07:07:35.608Z</time>
      </trkpt>
      <trkpt lat="48.71405" lon="2.4819">
        <ele>37</ele>
        <time>2020-12-10T07:07:40.625Z</time>
      </trkpt>
      <trkpt lat="48.71406" lon="2.48197">
        <ele>37</ele>
        <time>2020-12-10T07:07:44.618Z</time>
      </trkpt>
      <trkpt lat="48.71408" lon="2.48209">
        <ele>37</ele>
        <time>2020-12-10T07:07:49.604Z</time>
      </trkpt>
      <trkpt lat="48.71409" lon="2.48215">
        <ele>37</ele>
        <time>2020-12-10T07:07:53.616Z</time>
      </trkpt>
      <trkpt lat="48.71413" lon="2.48221">
        <ele>37</ele>
        <time>2020-12-10T07:07:58.601Z</time>
      </trkpt>
      <trkpt lat="48.71419" lon="2.48233">
        <ele>37</ele>
        <time>2020-12-10T07:08:03.612Z</time>
      </trkpt>
      <trkpt lat="48.71416" lon="2.48244">
        <ele>37</ele>
        <time>2020-12-10T07:08:07.610Z</time>
      </trkpt>
      <trkpt lat="48.71414" lon="2.48247">
        <ele>37</ele>
        <time>2020-12-10T07:08:11.604Z</time>
      </trkpt>
      <trkpt lat="48.71413" lon="2.48251">
        <ele>37</ele>
        <time>2020-12-10T07:08:16.621Z</time>
      </trkpt>
      <trkpt lat="48.71414" lon="2.4826">
        <ele>37</ele>
        <time>2020-12-10T07:08:21.617Z</time>
      </trkpt>
      <trkpt lat="48.71416" lon="2.48269">
        <ele>37</ele>
        <time>2020-12-10T07:08:26.600Z</time>
      </trkpt>
      <trkpt lat="48.71415" lon="2.4828">
        <ele>37</ele>
        <time>2020-12-10T07:08:31.598Z</time>
      </trkpt>
      <trkpt lat="48.71416" lon="2.48289">
        <ele>37</ele>
        <time>2020-12-10T07:08:35.602Z</time>
      </trkpt>
      <trkpt lat="48.71418" lon="2.48297">
        <ele>36</ele>
        <time>2020-12-10T07:08:39.609Z</time>
      </trkpt>
      <trkpt lat="48.71417" lon="2.48306">
        <ele>36</ele>
        <time>2020-12-10T07:08:44.643Z</time>
      </trkpt>
      <trkpt lat="48.71416" lon="2.48316">
        <ele>36</ele>
        <time>2020-12-10T07:08:49.616Z</time>
      </trkpt>
      <trkpt lat="48.71413" lon="2.48327">
        <ele>36</ele>
        <time>2020-12-10T07:08:54.622Z</time>
      </trkpt>
      <trkpt lat="48.71407" lon="2.48344">
        <ele>36</ele>
        <time>2020-12-10T07:08:59.610Z</time>
      </trkpt>
      <trkpt lat="48.71401" lon="2.48352">
        <ele>37</ele>
        <time>2020-12-10T07:09:04.615Z</time>
      </trkpt>
      <trkpt lat="48.71397" lon="2.48358">
        <ele>37</ele>
        <time>2020-12-10T07:09:08.626Z</time>
      </trkpt>
      <trkpt lat="48.71393" lon="2.48364">
        <ele>37</ele>
        <time>2020-12-10T07:09:13.602Z</time>
      </trkpt>
      <trkpt lat="48.71388" lon="2.48368">
        <ele>37</ele>
        <time>2020-12-10T07:09:18.627Z</time>
      </trkpt>
      <trkpt lat="48.71384" lon="2.48377">
        <ele>38</ele>
        <time>2020-12-10T07:09:23.618Z</time>
      </trkpt>
      <trkpt lat="48.71379" lon="2.48384">
        <ele>38</ele>
        <time>2020-12-10T07:09:28.620Z</time>
      </trkpt>
      <trkpt lat="48.71375" lon="2.48391">
        <ele>38</ele>
        <time>2020-12-10T07:09:33.603Z</time>
      </trkpt>
      <trkpt lat="48.71373" lon="2.48395">
        <ele>40</ele>
        <time>2020-12-10T07:09:38.599Z</time>
      </trkpt>
      <trkpt lat="48.71368" lon="2.48403">
        <ele>41</ele>
        <time>2020-12-10T07:09:43.597Z</time>
      </trkpt>
      <trkpt lat="48.71366" lon="2.48414">
        <ele>41</ele>
        <time>2020-12-10T07:09:48.616Z</time>
      </trkpt>
      <trkpt lat="48.71366" lon="2.48424">
        <ele>41</ele>
        <time>2020-12-10T07:09:53.617Z</time>
      </trkpt>
      <trkpt lat="48.7137" lon="2.48428">
        <ele>41</ele>
        <time>2020-12-10T07:09:58.616Z</time>
      </trkpt>
      <trkpt lat="48.71367" lon="2.48434">
        <ele>41</ele>
        <time>2020-12-10T07:10:03.601Z</time>
      </trkpt>
      <trkpt lat="48.71367" lon="2.48437">
        <ele>41</ele>
        <time>2020-12-10T07:10:07.604Z</time>
      </trkpt>
      <trkpt lat="48.71367" lon="2.48447">
        <ele>41</ele>
        <time>2020-12-10T07:10:12.614Z</time>
      </trkpt>
      <trkpt lat="48.71364" lon="2.48466">
        <ele>40</ele>
        <time>2020-12-10T07:10:17.603Z</time>
      </trkpt>
      <trkpt lat="48.71364" lon="2.48464">
        <ele>40</ele>
        <time>2020-12-10T07:10:21.601Z</time>
      </trkpt>
      <trkpt lat="48.71359" lon="2.48495">
        <ele>39</ele>
        <time>2020-12-10T07:10:26.615Z</time>
      </trkpt>
      <trkpt lat="48.71361" lon="2.48507">
        <ele>39</ele>
        <time>2020-12-10T07:10:31.616Z</time>
      </trkpt>
      <trkpt lat="48.71358" lon="2.48507">
        <ele>39</ele>
        <time>2020-12-10T07:10:36.622Z</time>
      </trkpt>
      <trkpt lat="48.71354" lon="2.48524">
        <ele>38</ele>
        <time>2020-12-10T07:10:41.605Z</time>
      </trkpt>
      <trkpt lat="48.71357" lon="2.48533">
        <ele>38</ele>
        <time>2020-12-10T07:10:46.609Z</time>
      </trkpt>
      <trkpt lat="48.71361" lon="2.4854">
        <ele>38</ele>
        <time>2020-12-10T07:10:51.622Z</time>
      </trkpt>
      <trkpt lat="48.71358" lon="2.4855">
        <ele>38</ele>
        <time>2020-12-10T07:10:56.611Z</time>
      </trkpt>
      <trkpt lat="48.71355" lon="2.48563">
        <ele>38</ele>
        <time>2020-12-10T07:11:01.608Z</time>
      </trkpt>
      <trkpt lat="48.71353" lon="2.48577">
        <ele>40</ele>
        <time>2020-12-10T07:11:06.603Z</time>
      </trkpt>
      <trkpt lat="48.71351" lon="2.48589">
        <ele>40</ele>
        <time>2020-12-10T07:11:11.608Z</time>
      </trkpt>
      <trkpt lat="48.7135" lon="2.48602">
        <ele>42</ele>
        <time>2020-12-10T07:11:16.611Z</time>
      </trkpt>
      <trkpt lat="48.71351" lon="2.48613">
        <ele>42</ele>
        <time>2020-12-10T07:11:21.603Z</time>
      </trkpt>
      <trkpt lat="48.71354" lon="2.48624">
        <ele>42</ele>
        <time>2020-12-10T07:11:26.611Z</time>
      </trkpt>
      <trkpt lat="48.7135" lon="2.48631">
        <ele>43</ele>
        <time>2020-12-10T07:11:31.595Z</time>
      </trkpt>
      <trkpt lat="48.71349" lon="2.48637">
        <ele>43</ele>
        <time>2020-12-10T07:11:35.614Z</time>
      </trkpt>
      <trkpt lat="48.71347" lon="2.48647">
        <ele>44</ele>
        <time>2020-12-10T07:11:40.599Z</time>
      </trkpt>
      <trkpt lat="48.71344" lon="2.48654">
        <ele>45</ele>
        <time>2020-12-10T07:11:44.613Z</time>
      </trkpt>
      <trkpt lat="48.71344" lon="2.48663">
        <ele>45</ele>
        <time>2020-12-10T07:11:49.625Z</time>
      </trkpt>
      <trkpt lat="48.71341" lon="2.48674">
        <ele>45</ele>
        <time>2020-12-10T07:11:54.612Z</time>
      </trkpt>
      <trkpt lat="48.7134" lon="2.48682">
        <ele>45</ele>
        <time>2020-12-10T07:11:59.594Z</time>
      </trkpt>
      <trkpt lat="48.71343" lon="2.48695">
        <ele>45</ele>
        <time>2020-12-10T07:12:04.613Z</time>
      </trkpt>
      <trkpt lat="48.71343" lon="2.48709">
        <ele>45</ele>
        <time>2020-12-10T07:12:09.601Z</time>
      </trkpt>
      <trkpt lat="48.71341" lon="2.48717">
        <ele>45</ele>
        <time>2020-12-10T07:12:14.609Z</time>
      </trkpt>
      <trkpt lat="48.71342" lon="2.48728">
        <ele>45</ele>
        <time>2020-12-10T07:12:18.605Z</time>
      </trkpt>
      <trkpt lat="48.71342" lon="2.48743">
        <ele>45</ele>
        <time>2020-12-10T07:12:23.602Z</time>
      </trkpt>
      <trkpt lat="48.71341" lon="2.48753">
        <ele>45</ele>
        <time>2020-12-10T07:12:27.602Z</time>
      </trkpt>
      <trkpt lat="48.71339" lon="2.48761">
        <ele>45</ele>
        <time>2020-12-10T07:12:32.617Z</time>
      </trkpt>
      <trkpt lat="48.71335" lon="2.4877">
        <ele>45</ele>
        <time>2020-12-10T07:12:37.602Z</time>
      </trkpt>
      <trkpt lat="48.71333" lon="2.48788">
        <ele>45</ele>
        <time>2020-12-10T07:12:42.615Z</time>
      </trkpt>
      <trkpt lat="48.71335" lon="2.48798">
        <ele>45</ele>
        <time>2020-12-10T07:12:47.598Z</time>
      </trkpt>
      <trkpt lat="48.71333" lon="2.48808">
        <ele>45</ele>
        <time>2020-12-10T07:12:51.599Z</time>
      </trkpt>
      <trkpt lat="48.7133" lon="2.48821">
        <ele>44</ele>
        <time>2020-12-10T07:12:56.610Z</time>
      </trkpt>
      <trkpt lat="48.71328" lon="2.48834">
        <ele>44</ele>
        <time>2020-12-10T07:13:01.601Z</time>
      </trkpt>
      <trkpt lat="48.71327" lon="2.48842">
        <ele>44</ele>
        <time>2020-12-10T07:13:05.595Z</time>
      </trkpt>
      <trkpt lat="48.71326" lon="2.48848">
        <ele>43</ele>
        <time>2020-12-10T07:13:09.607Z</time>
      </trkpt>
      <trkpt lat="48.71325" lon="2.48852">
        <ele>43</ele>
        <time>2020-12-10T07:13:14.608Z</time>
      </trkpt>
      <trkpt lat="48.71325" lon="2.48861">
        <ele>43</ele>
        <time>2020-12-10T07:13:19.600Z</time>
      </trkpt>
      <trkpt lat="48.71332" lon="2.48867">
        <ele>43</ele>
        <time>2020-12-10T07:13:24.606Z</time>
      </trkpt>
      <trkpt lat="48.71339" lon="2.48872">
        <ele>43</ele>
        <time>2020-12-10T07:13:29.599Z</time>
      </trkpt>
      <trkpt lat="48.71343" lon="2.48878">
        <ele>41</ele>
        <time>2020-12-10T07:13:33.604Z</time>
      </trkpt>
      <trkpt lat="48.71349" lon="2.48882">
        <ele>41</ele>
        <time>2020-12-10T07:13:38.605Z</time>
      </trkpt>
      <trkpt lat="48.71354" lon="2.48885">
        <ele>41</ele>
        <time>2020-12-10T07:13:43.602Z</time>
      </trkpt>
      <trkpt lat="48.71363" lon="2.48891">
        <ele>41</ele>
        <time>2020-12-10T07:13:48.609Z</time>
      </trkpt>
      <trkpt lat="48.71377" lon="2.48899">
        <ele>39</ele>
        <time>2020-12-10T07:13:53.617Z</time>
      </trkpt>
      <trkpt lat="48.71381" lon="2.48897">
        <ele>39</ele>
        <time>2020-12-10T07:13:58.599Z</time>
      </trkpt>
      <trkpt lat="48.71385" lon="2.48907">
        <ele>39</ele>
        <time>2020-12-10T07:14:03.616Z</time>
      </trkpt>
      <trkpt lat="48.71387" lon="2.48909">
        <ele>39</ele>
        <time>2020-12-10T07:14:08.602Z</time>
      </trkpt>
      <trkpt lat="48.71394" lon="2.48915">
        <ele>39</ele>
        <time>2020-12-10T07:14:13.607Z</time>
      </trkpt>
      <trkpt lat="48.71399" lon="2.48921">
        <ele>39</ele>
        <time>2020-12-10T07:14:18.607Z</time>
      </trkpt>
      <trkpt lat="48.71403" lon="2.48927">
        <ele>38</ele>
        <time>2020-12-10T07:14:22.613Z</time>
      </trkpt>
      <trkpt lat="48.7141" lon="2.48929">
        <ele>38</ele>
        <time>2020-12-10T07:14:27.604Z</time>
      </trkpt>
      <trkpt lat="48.71417" lon="2.4893">
        <ele>38</ele>
        <time>2020-12-10T07:14:32.609Z</time>
      </trkpt>
      <trkpt lat="48.71423" lon="2.4893">
        <ele>38</ele>
        <time>2020-12-10T07:14:37.627Z</time>
      </trkpt>
      <trkpt lat="48.71427" lon="2.48935">
        <ele>39</ele>
        <time>2020-12-10T07:14:42.606Z</time>
      </trkpt>
      <trkpt lat="48.71432" lon="2.48936">
        <ele>38</ele>
        <time>2020-12-10T07:14:46.616Z</time>
      </trkpt>
      <trkpt lat="48.71437" lon="2.48938">
        <ele>38</ele>
        <time>2020-12-10T07:14:51.601Z</time>
      </trkpt>
      <trkpt lat="48.71442" lon="2.48942">
        <ele>38</ele>
        <time>2020-12-10T07:14:56.614Z</time>
      </trkpt>
      <trkpt lat="48.71447" lon="2.48946">
        <ele>38</ele>
        <time>2020-12-10T07:15:00.604Z</time>
      </trkpt>
      <trkpt lat="48.7145" lon="2.48953">
        <ele>38</ele>
        <time>2020-12-10T07:15:05.603Z</time>
      </trkpt>
      <trkpt lat="48.71452" lon="2.4896">
        <ele>39</ele>
        <time>2020-12-10T07:15:09.615Z</time>
      </trkpt>
      <trkpt lat="48.71456" lon="2.48969">
        <ele>39</ele>
        <time>2020-12-10T07:15:14.614Z</time>
      </trkpt>
      <trkpt lat="48.7146" lon="2.48976">
        <ele>40</ele>
        <time>2020-12-10T07:15:19.602Z</time>
      </trkpt>
      <trkpt lat="48.7146" lon="2.48978">
        <ele>40</ele>
        <time>2020-12-10T07:15:24.621Z</time>
      </trkpt>
      <trkpt lat="48.71459" lon="2.48986">
        <ele>40</ele>
        <time>2020-12-10T07:15:29.608Z</time>
      </trkpt>
      <trkpt lat="48.71457" lon="2.49001">
        <ele>40</ele>
        <time>2020-12-10T07:15:34.619Z</time>
      </trkpt>
      <trkpt lat="48.71452" lon="2.49012">
        <ele>40</ele>
        <time>2020-12-10T07:15:39.612Z</time>
      </trkpt>
      <trkpt lat="48.71448" lon="2.49024">
        <ele>41</ele>
        <time>2020-12-10T07:15:44.612Z</time>
      </trkpt>
      <trkpt lat="48.71445" lon="2.49034">
        <ele>41</ele>
        <time>2020-12-10T07:15:49.612Z</time>
      </trkpt>
      <trkpt lat="48.71441" lon="2.49046">
        <ele>41</ele>
        <time>2020-12-10T07:15:54.627Z</time>
      </trkpt>
      <trkpt lat="48.71441" lon="2.4905">
        <ele>41</ele>
        <time>2020-12-10T07:15:58.633Z</time>
      </trkpt>
      <trkpt lat="48.71438" lon="2.49064">
        <ele>41</ele>
        <time>2020-12-10T07:16:03.612Z</time>
      </trkpt>
      <trkpt lat="48.71434" lon="2.49076">
        <ele>41</ele>
        <time>2020-12-10T07:16:08.598Z</time>
      </trkpt>
      <trkpt lat="48.71432" lon="2.49089">
        <ele>41</ele>
        <time>2020-12-10T07:16:12.606Z</time>
      </trkpt>
      <trkpt lat="48.7143" lon="2.49098">
        <ele>42</ele>
        <time>2020-12-10T07:16:17.611Z</time>
      </trkpt>
      <trkpt lat="48.71428" lon="2.49104">
        <ele>42</ele>
        <time>2020-12-10T07:16:22.619Z</time>
      </trkpt>
      <trkpt lat="48.71426" lon="2.49112">
        <ele>42</ele>
        <time>2020-12-10T07:16:26.601Z</time>
      </trkpt>
      <trkpt lat="48.71424" lon="2.49117">
        <ele>42</ele>
        <time>2020-12-10T07:16:30.612Z</time>
      </trkpt>
      <trkpt lat="48.71422" lon="2.49124">
        <ele>42</ele>
        <time>2020-12-10T07:16:35.604Z</time>
      </trkpt>
      <trkpt lat="48.7142" lon="2.4913">
        <ele>42</ele>
        <time>2020-12-10T07:16:39.609Z</time>
      </trkpt>
      <trkpt lat="48.71422" lon="2.49131">
        <ele>42</ele>
        <time>2020-12-10T07:16:43.606Z</time>
      </trkpt>
      <trkpt lat="48.71415" lon="2.49143">
        <ele>42</ele>
        <time>2020-12-10T07:16:48.623Z</time>
      </trkpt>
      <trkpt lat="48.71411" lon="2.4915">
        <ele>42</ele>
        <time>2020-12-10T07:16:53.606Z</time>
      </trkpt>
      <trkpt lat="48.71409" lon="2.4916">
        <ele>42</ele>
        <time>2020-12-10T07:16:58.603Z</time>
      </trkpt>
      <trkpt lat="48.71399" lon="2.4917">
        <ele>43</ele>
        <time>2020-12-10T07:17:03.597Z</time>
      </trkpt>
      <trkpt lat="48.71395" lon="2.4918">
        <ele>43</ele>
        <time>2020-12-10T07:17:08.612Z</time>
      </trkpt>
      <trkpt lat="48.71394" lon="2.49186">
        <ele>43</ele>
        <time>2020-12-10T07:17:13.605Z</time>
      </trkpt>
      <trkpt lat="48.71393" lon="2.49201">
        <ele>43</ele>
        <time>2020-12-10T07:17:18.618Z</time>
      </trkpt>
      <trkpt lat="48.71391" lon="2.49213">
        <ele>42</ele>
        <time>2020-12-10T07:17:23.601Z</time>
      </trkpt>
      <trkpt lat="48.71386" lon="2.49224">
        <ele>42</ele>
        <time>2020-12-10T07:17:28.617Z</time>
      </trkpt>
      <trkpt lat="48.71384" lon="2.49231">
        <ele>42</ele>
        <time>2020-12-10T07:17:33.613Z</time>
      </trkpt>
      <trkpt lat="48.71384" lon="2.4924">
        <ele>42</ele>
        <time>2020-12-10T07:17:38.617Z</time>
      </trkpt>
      <trkpt lat="48.71383" lon="2.49251">
        <ele>42</ele>
        <time>2020-12-10T07:17:43.616Z</time>
      </trkpt>
      <trkpt lat="48.71381" lon="2.49264">
        <ele>41</ele>
        <time>2020-12-10T07:17:48.613Z</time>
      </trkpt>
      <trkpt lat="48.7138" lon="2.49275">
        <ele>41</ele>
        <time>2020-12-10T07:17:53.608Z</time>
      </trkpt>
      <trkpt lat="48.71378" lon="2.49284">
        <ele>41</ele>
        <time>2020-12-10T07:17:58.613Z</time>
      </trkpt>
      <trkpt lat="48.71374" lon="2.49287">
        <ele>41</ele>
        <time>2020-12-10T07:18:02.625Z</time>
      </trkpt>
      <trkpt lat="48.7137" lon="2.4929">
        <ele>41</ele>
        <time>2020-12-10T07:18:06.623Z</time>
      </trkpt>
      <trkpt lat="48.71361" lon="2.49297">
        <ele>41</ele>
        <time>2020-12-10T07:18:11.612Z</time>
      </trkpt>
      <trkpt lat="48.71356" lon="2.49303">
        <ele>41</ele>
        <time>2020-12-10T07:18:15.609Z</time>
      </trkpt>
      <trkpt lat="48.71351" lon="2.49312">
        <ele>41</ele>
        <time>2020-12-10T07:18:20.610Z</time>
      </trkpt>
      <trkpt lat="48.71344" lon="2.49313">
        <ele>40</ele>
        <time>2020-12-10T07:18:25.604Z</time>
      </trkpt>
      <trkpt lat="48.7134" lon="2.49307">
        <ele>40</ele>
        <time>2020-12-10T07:18:30.606Z</time>
      </trkpt>
      <trkpt lat="48.71337" lon="2.49299">
        <ele>40</ele>
        <time>2020-12-10T07:18:35.611Z</time>
      </trkpt>
      <trkpt lat="48.71327" lon="2.493">
        <ele>40</ele>
        <time>2020-12-10T07:18:40.605Z</time>
      </trkpt>
      <trkpt lat="48.71317" lon="2.49301">
        <ele>39</ele>
        <time>2020-12-10T07:18:44.619Z</time>
      </trkpt>
      <trkpt lat="48.71309" lon="2.49305">
        <ele>39</ele>
        <time>2020-12-10T07:18:49.606Z</time>
      </trkpt>
      <trkpt lat="48.71305" lon="2.49306">
        <ele>39</ele>
        <time>2020-12-10T07:18:53.617Z</time>
      </trkpt>
      <trkpt lat="48.71299" lon="2.49311">
        <ele>39</ele>
        <time>2020-12-10T07:18:57.616Z</time>
      </trkpt>
      <trkpt lat="48.71296" lon="2.49319">
        <ele>39</ele>
        <time>2020-12-10T07:19:02.609Z</time>
      </trkpt>
      <trkpt lat="48.71292" lon="2.49325">
        <ele>39</ele>
        <time>2020-12-10T07:19:06.616Z</time>
      </trkpt>
      <trkpt lat="48.71288" lon="2.49334">
        <ele>39</ele>
        <time>2020-12-10T07:19:11.610Z</time>
      </trkpt>
      <trkpt lat="48.71286" lon="2.49342">
        <ele>39</ele>
        <time>2020-12-10T07:19:16.627Z</time>
      </trkpt>
      <trkpt lat="48.71283" lon="2.4935">
        <ele>38</ele>
        <time>2020-12-10T07:19:21.602Z</time>
      </trkpt>
      <trkpt lat="48.7128" lon="2.49354">
        <ele>38</ele>
        <time>2020-12-10T07:19:26.618Z</time>
      </trkpt>
      <trkpt lat="48.71277" lon="2.49354">
        <ele>38</ele>
        <time>2020-12-10T07:19:31.604Z</time>
      </trkpt>
      <trkpt lat="48.71271" lon="2.49361">
        <ele>38</ele>
        <time>2020-12-10T07:19:36.619Z</time>
      </trkpt>
      <trkpt lat="48.71266" lon="2.49367">
        <ele>38</ele>
        <time>2020-12-10T07:19:40.618Z</time>
      </trkpt>
      <trkpt lat="48.71258" lon="2.49382">
        <ele>38</ele>
        <time>2020-12-10T07:19:45.605Z</time>
      </trkpt>
      <trkpt lat="48.71249" lon="2.49382">
        <ele>38</ele>
        <time>2020-12-10T07:19:50.606Z</time>
      </trkpt>
      <trkpt lat="48.71242" lon="2.49388">
        <ele>38</ele>
        <time>2020-12-10T07:19:55.608Z</time>
      </trkpt>
      <trkpt lat="48.71236" lon="2.4939">
        <ele>37</ele>
        <time>2020-12-10T07:19:59.614Z</time>
      </trkpt>
      <trkpt lat="48.71229" lon="2.49393">
        <ele>37</ele>
        <time>2020-12-10T07:20:04.623Z</time>
      </trkpt>
      <trkpt lat="48.71222" lon="2.49397">
        <ele>37</ele>
        <time>2020-12-10T07:20:09.618Z</time>
      </trkpt>
      <trkpt lat="48.71215" lon="2.49402">
        <ele>37</ele>
        <time>2020-12-10T07:20:14.618Z</time>
      </trkpt>
      <trkpt lat="48.71207" lon="2.49408">
        <ele>37</ele>
        <time>2020-12-10T07:20:19.621Z</time>
      </trkpt>
      <trkpt lat="48.71201" lon="2.49412">
        <ele>37</ele>
        <time>2020-12-10T07:20:24.617Z</time>
      </trkpt>
      <trkpt lat="48.71196" lon="2.49414">
        <ele>37</ele>
        <time>2020-12-10T07:20:28.620Z</time>
      </trkpt>
      <trkpt lat="48.7119" lon="2.49417">
        <ele>37</ele>
        <time>2020-12-10T07:20:33.600Z</time>
      </trkpt>
      <trkpt lat="48.71186" lon="2.49421">
        <ele>37</ele>
        <time>2020-12-10T07:20:37.621Z</time>
      </trkpt>
      <trkpt lat="48.71184" lon="2.49425">
        <ele>37</ele>
        <time>2020-12-10T07:20:42.606Z</time>
      </trkpt>
      <trkpt lat="48.7118" lon="2.49426">
        <ele>37</ele>
        <time>2020-12-10T07:20:47.610Z</time>
      </trkpt>
      <trkpt lat="48.71176" lon="2.49429">
        <ele>37</ele>
        <time>2020-12-10T07:20:51.615Z</time>
      </trkpt>
      <trkpt lat="48.71169" lon="2.4944">
        <ele>37</ele>
        <time>2020-12-10T07:20:55.616Z</time>
      </trkpt>
      <trkpt lat="48.71161" lon="2.4945">
        <ele>37</ele>
        <time>2020-12-10T07:20:59.608Z</time>
      </trkpt>
      <trkpt lat="48.71155" lon="2.49459">
        <ele>36</ele>
        <time>2020-12-10T07:21:04.600Z</time>
      </trkpt>
      <trkpt lat="48.71148" lon="2.49464">
        <ele>37</ele>
        <time>2020-12-10T07:21:08.620Z</time>
      </trkpt>
      <trkpt lat="48.71142" lon="2.4947">
        <ele>37</ele>
        <time>2020-12-10T07:21:13.609Z</time>
      </trkpt>
      <trkpt lat="48.71137" lon="2.49475">
        <ele>37</ele>
        <time>2020-12-10T07:21:18.624Z</time>
      </trkpt>
      <trkpt lat="48.71133" lon="2.49478">
        <ele>37</ele>
        <time>2020-12-10T07:21:22.649Z</time>
      </trkpt>
      <trkpt lat="48.71128" lon="2.49483">
        <ele>37</ele>
        <time>2020-12-10T07:21:27.614Z</time>
      </trkpt>
      <trkpt lat="48.71124" lon="2.49485">
        <ele>38</ele>
        <time>2020-12-10T07:21:31.646Z</time>
      </trkpt>
      <trkpt lat="48.71116" lon="2.4949">
        <ele>38</ele>
        <time>2020-12-10T07:21:36.645Z</time>
      </trkpt>
      <trkpt lat="48.71107" lon="2.49494">
        <ele>38</ele>
        <time>2020-12-10T07:21:41.619Z</time>
      </trkpt>
      <trkpt lat="48.71102" lon="2.49497">
        <ele>38</ele>
        <time>2020-12-10T07:21:46.622Z</time>
      </trkpt>
      <trkpt lat="48.71096" lon="2.495">
        <ele>38</ele>
        <time>2020-12-10T07:21:51.596Z</time>
      </trkpt>
      <trkpt lat="48.7109" lon="2.49501">
        <ele>38</ele>
        <time>2020-12-10T07:21:56.614Z</time>
      </trkpt>
      <trkpt lat="48.71085" lon="2.49503">
        <ele>38</ele>
        <time>2020-12-10T07:22:00.625Z</time>
      </trkpt>
      <trkpt lat="48.71078" lon="2.49509">
        <ele>38</ele>
        <time>2020-12-10T07:22:05.624Z</time>
      </trkpt>
      <trkpt lat="48.71072" lon="2.49514">
        <ele>38</ele>
        <time>2020-12-10T07:22:09.634Z</time>
      </trkpt>
      <trkpt lat="48.71066" lon="2.49519">
        <ele>38</ele>
        <time>2020-12-10T07:22:14.621Z</time>
      </trkpt>
      <trkpt lat="48.71061" lon="2.49524">
        <ele>38</ele>
        <time>2020-12-10T07:22:19.622Z</time>
      </trkpt>
      <trkpt lat="48.71054" lon="2.49527">
        <ele>38</ele>
        <time>2020-12-10T07:22:23.669Z</time>
      </trkpt>
      <trkpt lat="48.71046" lon="2.4953">
        <ele>38</ele>
        <time>2020-12-10T07:22:28.631Z</time>
      </trkpt>
      <trkpt lat="48.7104" lon="2.49538">
        <ele>37</ele>
        <time>2020-12-10T07:22:33.618Z</time>
      </trkpt>
      <trkpt lat="48.71037" lon="2.49545">
        <ele>39</ele>
        <time>2020-12-10T07:22:37.613Z</time>
      </trkpt>
      <trkpt lat="48.71033" lon="2.49553">
        <ele>39</ele>
        <time>2020-12-10T07:22:42.622Z</time>
      </trkpt>
      <trkpt lat="48.71031" lon="2.49561">
        <ele>39</ele>
        <time>2020-12-10T07:22:47.609Z</time>
      </trkpt>
      <trkpt lat="48.71028" lon="2.4957">
        <ele>40</ele>
        <time>2020-12-10T07:22:51.637Z</time>
      </trkpt>
      <trkpt lat="48.71023" lon="2.4958">
        <ele>40</ele>
        <time>2020-12-10T07:22:56.626Z</time>
      </trkpt>
      <trkpt lat="48.71018" lon="2.49585">
        <ele>40</ele>
        <time>2020-12-10T07:23:01.626Z</time>
      </trkpt>
      <trkpt lat="48.71015" lon="2.49594">
        <ele>40</ele>
        <time>2020-12-10T07:23:06.605Z</time>
      </trkpt>
      <trkpt lat="48.71008" lon="2.49604">
        <ele>39</ele>
        <time>2020-12-10T07:23:11.612Z</time>
      </trkpt>
      <trkpt lat="48.71002" lon="2.49613">
        <ele>39</ele>
        <time>2020-12-10T07:23:16.606Z</time>
      </trkpt>
      <trkpt lat="48.70997" lon="2.49622">
        <ele>39</ele>
        <time>2020-12-10T07:23:21.608Z</time>
      </trkpt>
      <trkpt lat="48.70991" lon="2.49629">
        <ele>39</ele>
        <time>2020-12-10T07:23:26.614Z</time>
      </trkpt>
      <trkpt lat="48.70983" lon="2.49634">
        <ele>38</ele>
        <time>2020-12-10T07:23:31.616Z</time>
      </trkpt>
      <trkpt lat="48.70979" lon="2.49635">
        <ele>38</ele>
        <time>2020-12-10T07:23:35.609Z</time>
      </trkpt>
      <trkpt lat="48.70974" lon="2.49637">
        <ele>38</ele>
        <time>2020-12-10T07:23:40.609Z</time>
      </trkpt>
      <trkpt lat="48.70969" lon="2.49641">
        <ele>38</ele>
        <time>2020-12-10T07:23:44.628Z</time>
      </trkpt>
      <trkpt lat="48.70961" lon="2.49643">
        <ele>38</ele>
        <time>2020-12-10T07:23:49.617Z</time>
      </trkpt>
      <trkpt lat="48.70957" lon="2.49644">
        <ele>38</ele>
        <time>2020-12-10T07:23:54.615Z</time>
      </trkpt>
      <trkpt lat="48.70952" lon="2.49645">
        <ele>38</ele>
        <time>2020-12-10T07:23:58.611Z</time>
      </trkpt>
      <trkpt lat="48.70948" lon="2.49645">
        <ele>38</ele>
        <time>2020-12-10T07:24:03.621Z</time>
      </trkpt>
      <trkpt lat="48.70946" lon="2.49646">
        <ele>38</ele>
        <time>2020-12-10T07:24:08.618Z</time>
      </trkpt>
      <trkpt lat="48.70937" lon="2.49645">
        <ele>38</ele>
        <time>2020-12-10T07:24:13.632Z</time>
      </trkpt>
      <trkpt lat="48.70927" lon="2.49645">
        <ele>37</ele>
        <time>2020-12-10T07:24:18.611Z</time>
      </trkpt>
      <trkpt lat="48.70919" lon="2.49644">
        <ele>37</ele>
        <time>2020-12-10T07:24:22.611Z</time>
      </trkpt>
      <trkpt lat="48.70914" lon="2.49644">
        <ele>37</ele>
        <time>2020-12-10T07:24:27.586Z</time>
      </trkpt>
      <trkpt lat="48.7091" lon="2.49647">
        <ele>37</ele>
        <time>2020-12-10T07:24:32.590Z</time>
      </trkpt>
      <trkpt lat="48.7091" lon="2.49647">
        <ele>37</ele>
        <time>2020-12-10T07:24:37.620Z</time>
      </trkpt>
      <trkpt lat="48.70907" lon="2.49649">
        <ele>37</ele>
        <time>2020-12-10T07:24:42.622Z</time>
      </trkpt>
      <trkpt lat="48.70902" lon="2.49644">
        <ele>37</ele>
        <time>2020-12-10T07:24:47.661Z</time>
      </trkpt>
      <trkpt lat="48.70898" lon="2.49641">
        <ele>37</ele>
        <time>2020-12-10T07:24:52.612Z</time>
      </trkpt>
      <trkpt lat="48.70894" lon="2.4964">
        <ele>37</ele>
        <time>2020-12-10T07:24:56.637Z</time>
      </trkpt>
      <trkpt lat="48.70887" lon="2.49644">
        <ele>37</ele>
        <time>2020-12-10T07:25:01.618Z</time>
      </trkpt>
      <trkpt lat="48.7088" lon="2.49638">
        <ele>37</ele>
        <time>2020-12-10T07:25:05.651Z</time>
      </trkpt>
      <trkpt lat="48.70873" lon="2.49647">
        <ele>38</ele>
        <time>2020-12-10T07:25:10.593Z</time>
      </trkpt>
      <trkpt lat="48.70868" lon="2.49635">
        <ele>38</ele>
        <time>2020-12-10T07:25:14.619Z</time>
      </trkpt>
      <trkpt lat="48.70865" lon="2.4964">
        <ele>38</ele>
        <time>2020-12-10T07:25:19.625Z</time>
      </trkpt>
      <trkpt lat="48.70854" lon="2.49648">
        <ele>38</ele>
        <time>2020-12-10T07:25:24.616Z</time>
      </trkpt>
      <trkpt lat="48.70844" lon="2.49654">
        <ele>39</ele>
        <time>2020-12-10T07:25:29.626Z</time>
      </trkpt>
      <trkpt lat="48.7084" lon="2.4966">
        <ele>39</ele>
        <time>2020-12-10T07:25:34.593Z</time>
      </trkpt>
      <trkpt lat="48.70835" lon="2.49663">
        <ele>39</ele>
        <time>2020-12-10T07:25:39.613Z</time>
      </trkpt>
      <trkpt lat="48.70826" lon="2.49665">
        <ele>39</ele>
        <time>2020-12-10T07:25:44.592Z</time>
      </trkpt>
      <trkpt lat="48.70819" lon="2.4967">
        <ele>39</ele>
        <time>2020-12-10T07:25:48.607Z</time>
      </trkpt>
      <trkpt lat="48.70816" lon="2.49677">
        <ele>39</ele>
        <time>2020-12-10T07:25:53.617Z</time>
      </trkpt>
      <trkpt lat="48.70811" lon="2.49674">
        <ele>39</ele>
        <time>2020-12-10T07:25:58.591Z</time>
      </trkpt>
      <trkpt lat="48.70803" lon="2.49676">
        <ele>39</ele>
        <time>2020-12-10T07:26:03.607Z</time>
      </trkpt>
      <trkpt lat="48.70795" lon="2.49675">
        <ele>39</ele>
        <time>2020-12-10T07:26:08.627Z</time>
      </trkpt>
      <trkpt lat="48.7079" lon="2.49679">
        <ele>39</ele>
        <time>2020-12-10T07:26:13.580Z</time>
      </trkpt>
      <trkpt lat="48.70786" lon="2.49682">
        <ele>38</ele>
        <time>2020-12-10T07:26:17.614Z</time>
      </trkpt>
      <trkpt lat="48.70786" lon="2.49683">
        <ele>38</ele>
        <time>2020-12-10T07:26:22.614Z</time>
      </trkpt>
      <trkpt lat="48.70783" lon="2.49689">
        <ele>38</ele>
        <time>2020-12-10T07:26:27.646Z</time>
      </trkpt>
      <trkpt lat="48.70784" lon="2.49707">
        <ele>38</ele>
        <time>2020-12-10T07:26:32.616Z</time>
      </trkpt>
      <trkpt lat="48.70781" lon="2.49716">
        <ele>37</ele>
        <time>2020-12-10T07:26:37.624Z</time>
      </trkpt>
      <trkpt lat="48.70784" lon="2.49727">
        <ele>37</ele>
        <time>2020-12-10T07:26:42.617Z</time>
      </trkpt>
      <trkpt lat="48.70786" lon="2.49731">
        <ele>37</ele>
        <time>2020-12-10T07:26:47.629Z</time>
      </trkpt>
      <trkpt lat="48.70787" lon="2.49738">
        <ele>37</ele>
        <time>2020-12-10T07:26:52.606Z</time>
      </trkpt>
      <trkpt lat="48.70784" lon="2.49737">
        <ele>37</ele>
        <time>2020-12-10T07:27:17.620Z</time>
      </trkpt>
      <trkpt lat="48.70796" lon="2.49745">
        <ele>36</ele>
        <time>2020-12-10T07:27:22.623Z</time>
      </trkpt>
      <trkpt lat="48.70811" lon="2.49736">
        <ele>37</ele>
        <time>2020-12-10T07:27:27.634Z</time>
      </trkpt>
      <trkpt lat="48.70826" lon="2.49736">
        <ele>37</ele>
        <time>2020-12-10T07:27:32.623Z</time>
      </trkpt>
      <trkpt lat="48.7085" lon="2.49746">
        <ele>37</ele>
        <time>2020-12-10T07:27:37.636Z</time>
      </trkpt>
      <trkpt lat="48.70865" lon="2.49749">
        <ele>37</ele>
        <time>2020-12-10T07:27:42.608Z</time>
      </trkpt>
      <trkpt lat="48.70884" lon="2.49751">
        <ele>37</ele>
        <time>2020-12-10T07:27:47.634Z</time>
      </trkpt>
      <trkpt lat="48.70891" lon="2.49752">
        <ele>37</ele>
        <time>2020-12-10T07:27:52.613Z</time>
      </trkpt>
      <trkpt lat="48.70896" lon="2.49749">
        <ele>37</ele>
        <time>2020-12-10T07:27:57.616Z</time>
      </trkpt>
      <trkpt lat="48.70903" lon="2.49757">
        <ele>39</ele>
        <time>2020-12-10T07:28:02.620Z</time>
      </trkpt>
      <trkpt lat="48.70903" lon="2.49766">
        <ele>38</ele>
        <time>2020-12-10T07:28:07.625Z</time>
      </trkpt>
      <trkpt lat="48.70896" lon="2.49766">
        <ele>38</ele>
        <time>2020-12-10T07:28:12.613Z</time>
      </trkpt>
      <trkpt lat="48.70895" lon="2.49777">
        <ele>38</ele>
        <time>2020-12-10T07:28:17.640Z</time>
      </trkpt>
      <trkpt lat="48.70892" lon="2.49786">
        <ele>38</ele>
        <time>2020-12-10T07:28:22.608Z</time>
      </trkpt>
      <trkpt lat="48.70901" lon="2.49802">
        <ele>39</ele>
        <time>2020-12-10T07:28:27.622Z</time>
      </trkpt>
      <trkpt lat="48.70904" lon="2.49809">
        <ele>40</ele>
        <time>2020-12-10T07:28:32.620Z</time>
      </trkpt>
      <trkpt lat="48.70914" lon="2.4981">
        <ele>40</ele>
        <time>2020-12-10T07:28:37.615Z</time>
      </trkpt>
      <trkpt lat="48.70924" lon="2.49813">
        <ele>40</ele>
        <time>2020-12-10T07:28:42.620Z</time>
      </trkpt>
      <trkpt lat="48.70931" lon="2.4982">
        <ele>43</ele>
        <time>2020-12-10T07:28:47.611Z</time>
      </trkpt>
      <trkpt lat="48.70937" lon="2.49825">
        <ele>43</ele>
        <time>2020-12-10T07:28:52.611Z</time>
      </trkpt>
      <trkpt lat="48.70941" lon="2.49832">
        <ele>43</ele>
        <time>2020-12-10T07:28:57.620Z</time>
      </trkpt>
      <trkpt lat="48.70946" lon="2.49836">
        <ele>43</ele>
        <time>2020-12-10T07:29:02.619Z</time>
      </trkpt>
      <trkpt lat="48.70951" lon="2.49842">
        <ele>43</ele>
        <time>2020-12-10T07:29:07.620Z</time>
      </trkpt>
      <trkpt lat="48.70955" lon="2.49845">
        <ele>43</ele>
        <time>2020-12-10T07:29:12.602Z</time>
      </trkpt>
      <trkpt lat="48.70958" lon="2.4985">
        <ele>45</ele>
        <time>2020-12-10T07:29:17.630Z</time>
      </trkpt>
      <trkpt lat="48.70967" lon="2.49851">
        <ele>45</ele>
        <time>2020-12-10T07:29:22.600Z</time>
      </trkpt>
      <trkpt lat="48.70972" lon="2.49854">
        <ele>45</ele>
        <time>2020-12-10T07:29:27.630Z</time>
      </trkpt>
      <trkpt lat="48.70979" lon="2.49864">
        <ele>45</ele>
        <time>2020-12-10T07:29:32.612Z</time>
      </trkpt>
      <trkpt lat="48.70983" lon="2.4987">
        <ele>45</ele>
        <time>2020-12-10T07:29:37.619Z</time>
      </trkpt>
      <trkpt lat="48.70983" lon="2.49867">
        <ele>45</ele>
        <time>2020-12-10T07:29:42.608Z</time>
      </trkpt>
      <trkpt lat="48.70984" lon="2.49871">
        <ele>45</ele>
        <time>2020-12-10T07:29:47.627Z</time>
      </trkpt>
      <trkpt lat="48.70982" lon="2.49877">
        <ele>46</ele>
        <time>2020-12-10T07:29:52.599Z</time>
      </trkpt>
      <trkpt lat="48.70982" lon="2.49885">
        <ele>46</ele>
        <time>2020-12-10T07:29:56.627Z</time>
      </trkpt>
      <trkpt lat="48.7098" lon="2.49891">
        <ele>46</ele>
        <time>2020-12-10T07:30:01.625Z</time>
      </trkpt>
      <trkpt lat="48.70975" lon="2.49896">
        <ele>46</ele>
        <time>2020-12-10T07:30:06.613Z</time>
      </trkpt>
      <trkpt lat="48.70969" lon="2.49899">
        <ele>46</ele>
        <time>2020-12-10T07:30:11.623Z</time>
      </trkpt>
      <trkpt lat="48.70962" lon="2.49906">
        <ele>47</ele>
        <time>2020-12-10T07:30:16.606Z</time>
      </trkpt>
      <trkpt lat="48.70957" lon="2.49911">
        <ele>46</ele>
        <time>2020-12-10T07:30:21.627Z</time>
      </trkpt>
      <trkpt lat="48.70951" lon="2.49919">
        <ele>46</ele>
        <time>2020-12-10T07:30:26.598Z</time>
      </trkpt>
      <trkpt lat="48.70947" lon="2.49925">
        <ele>46</ele>
        <time>2020-12-10T07:30:31.624Z</time>
      </trkpt>
      <trkpt lat="48.70942" lon="2.49928">
        <ele>46</ele>
        <time>2020-12-10T07:30:36.605Z</time>
      </trkpt>
      <trkpt lat="48.70935" lon="2.49931">
        <ele>46</ele>
        <time>2020-12-10T07:30:41.623Z</time>
      </trkpt>
      <trkpt lat="48.70932" lon="2.49934">
        <ele>46</ele>
        <time>2020-12-10T07:30:45.634Z</time>
      </trkpt>
      <trkpt lat="48.70929" lon="2.49939">
        <ele>43</ele>
        <time>2020-12-10T07:30:50.602Z</time>
      </trkpt>
      <trkpt lat="48.70922" lon="2.4995">
        <ele>43</ele>
        <time>2020-12-10T07:30:55.628Z</time>
      </trkpt>
      <trkpt lat="48.70914" lon="2.4996">
        <ele>43</ele>
        <time>2020-12-10T07:31:00.593Z</time>
      </trkpt>
      <trkpt lat="48.70909" lon="2.49971">
        <ele>43</ele>
        <time>2020-12-10T07:31:04.616Z</time>
      </trkpt>
      <trkpt lat="48.70908" lon="2.49977">
        <ele>43</ele>
        <time>2020-12-10T07:31:09.624Z</time>
      </trkpt>
      <trkpt lat="48.70908" lon="2.49986">
        <ele>43</ele>
        <time>2020-12-10T07:31:14.614Z</time>
      </trkpt>
      <trkpt lat="48.70908" lon="2.49991">
        <ele>43</ele>
        <time>2020-12-10T07:31:19.624Z</time>
      </trkpt>
      <trkpt lat="48.70909" lon="2.5">
        <ele>43</ele>
        <time>2020-12-10T07:31:24.609Z</time>
      </trkpt>
      <trkpt lat="48.70916" lon="2.50008">
        <ele>43</ele>
        <time>2020-12-10T07:31:29.626Z</time>
      </trkpt>
      <trkpt lat="48.70918" lon="2.50016">
        <ele>42</ele>
        <time>2020-12-10T07:31:34.609Z</time>
      </trkpt>
      <trkpt lat="48.70916" lon="2.50026">
        <ele>42</ele>
        <time>2020-12-10T07:31:39.626Z</time>
      </trkpt>
      <trkpt lat="48.70919" lon="2.50044">
        <ele>41</ele>
        <time>2020-12-10T07:31:44.594Z</time>
      </trkpt>
      <trkpt lat="48.70921" lon="2.50057">
        <ele>41</ele>
        <time>2020-12-10T07:31:49.622Z</time>
      </trkpt>
      <trkpt lat="48.70928" lon="2.50067">
        <ele>41</ele>
        <time>2020-12-10T07:31:54.612Z</time>
      </trkpt>
      <trkpt lat="48.70927" lon="2.50077">
        <ele>40</ele>
        <time>2020-12-10T07:31:59.621Z</time>
      </trkpt>
      <trkpt lat="48.70929" lon="2.50079">
        <ele>40</ele>
        <time>2020-12-10T07:32:04.618Z</time>
      </trkpt>
      <trkpt lat="48.70936" lon="2.50085">
        <ele>40</ele>
        <time>2020-12-10T07:32:09.630Z</time>
      </trkpt>
      <trkpt lat="48.70936" lon="2.50098">
        <ele>40</ele>
        <time>2020-12-10T07:32:14.610Z</time>
      </trkpt>
      <trkpt lat="48.70934" lon="2.50108">
        <ele>40</ele>
        <time>2020-12-10T07:32:19.630Z</time>
      </trkpt>
      <trkpt lat="48.70934" lon="2.50112">
        <ele>40</ele>
        <time>2020-12-10T07:32:24.624Z</time>
      </trkpt>
      <trkpt lat="48.70934" lon="2.5012">
        <ele>40</ele>
        <time>2020-12-10T07:32:29.646Z</time>
      </trkpt>
      <trkpt lat="48.70933" lon="2.50131">
        <ele>42</ele>
        <time>2020-12-10T07:32:34.605Z</time>
      </trkpt>
      <trkpt lat="48.70935" lon="2.50143">
        <ele>42</ele>
        <time>2020-12-10T07:32:39.629Z</time>
      </trkpt>
      <trkpt lat="48.70937" lon="2.50152">
        <ele>42</ele>
        <time>2020-12-10T07:32:44.603Z</time>
      </trkpt>
      <trkpt lat="48.70936" lon="2.50161">
        <ele>43</ele>
        <time>2020-12-10T07:32:49.633Z</time>
      </trkpt>
      <trkpt lat="48.70939" lon="2.50168">
        <ele>43</ele>
        <time>2020-12-10T07:32:54.609Z</time>
      </trkpt>
      <trkpt lat="48.7094" lon="2.50175">
        <ele>43</ele>
        <time>2020-12-10T07:32:59.626Z</time>
      </trkpt>
      <trkpt lat="48.70942" lon="2.5018">
        <ele>43</ele>
        <time>2020-12-10T07:33:04.617Z</time>
      </trkpt>
      <trkpt lat="48.70949" lon="2.50192">
        <ele>44</ele>
        <time>2020-12-10T07:33:09.632Z</time>
      </trkpt>
      <trkpt lat="48.70959" lon="2.50211">
        <ele>42</ele>
        <time>2020-12-10T07:33:14.616Z</time>
      </trkpt>
      <trkpt lat="48.70966" lon="2.50221">
        <ele>42</ele>
        <time>2020-12-10T07:33:19.625Z</time>
      </trkpt>
      <trkpt lat="48.70973" lon="2.50223">
        <ele>42</ele>
        <time>2020-12-10T07:33:24.591Z</time>
      </trkpt>
      <trkpt lat="48.70979" lon="2.50225">
        <ele>42</ele>
        <time>2020-12-10T07:33:29.618Z</time>
      </trkpt>
      <trkpt lat="48.70984" lon="2.50222">
        <ele>42</ele>
        <time>2020-12-10T07:33:34.613Z</time>
      </trkpt>
      <trkpt lat="48.70988" lon="2.50226">
        <ele>43</ele>
        <time>2020-12-10T07:33:39.629Z</time>
      </trkpt>
      <trkpt lat="48.7099" lon="2.5023">
        <ele>43</ele>
        <time>2020-12-10T07:33:44.605Z</time>
      </trkpt>
      <trkpt lat="48.70991" lon="2.50236">
        <ele>43</ele>
        <time>2020-12-10T07:33:49.622Z</time>
      </trkpt>
      <trkpt lat="48.70995" lon="2.50242">
        <ele>42</ele>
        <time>2020-12-10T07:33:54.614Z</time>
      </trkpt>
      <trkpt lat="48.70996" lon="2.50247">
        <ele>42</ele>
        <time>2020-12-10T07:33:59.634Z</time>
      </trkpt>
      <trkpt lat="48.70997" lon="2.50253">
        <ele>42</ele>
        <time>2020-12-10T07:34:04.618Z</time>
      </trkpt>
      <trkpt lat="48.70998" lon="2.50257">
        <ele>42</ele>
        <time>2020-12-10T07:34:09.629Z</time>
      </trkpt>
      <trkpt lat="48.70999" lon="2.50264">
        <ele>43</ele>
        <time>2020-12-10T07:34:14.621Z</time>
      </trkpt>
      <trkpt lat="48.70998" lon="2.50267">
        <ele>43</ele>
        <time>2020-12-10T07:34:19.619Z</time>
      </trkpt>
      <trkpt lat="48.70998" lon="2.50271">
        <ele>43</ele>
        <time>2020-12-10T07:34:24.609Z</time>
      </trkpt>
      <trkpt lat="48.71" lon="2.50278">
        <ele>43</ele>
        <time>2020-12-10T07:34:29.614Z</time>
      </trkpt>
      <trkpt lat="48.71002" lon="2.50288">
        <ele>43</ele>
        <time>2020-12-10T07:34:34.613Z</time>
      </trkpt>
      <trkpt lat="48.71003" lon="2.50295">
        <ele>43</ele>
        <time>2020-12-10T07:34:39.625Z</time>
      </trkpt>
      <trkpt lat="48.71011" lon="2.50301">
        <ele>43</ele>
        <time>2020-12-10T07:34:44.615Z</time>
      </trkpt>
      <trkpt lat="48.71018" lon="2.50307">
        <ele>44</ele>
        <time>2020-12-10T07:34:49.627Z</time>
      </trkpt>
      <trkpt lat="48.71021" lon="2.50315">
        <ele>44</ele>
        <time>2020-12-10T07:34:54.608Z</time>
      </trkpt>
      <trkpt lat="48.71021" lon="2.50326">
        <ele>45</ele>
        <time>2020-12-10T07:35:04.643Z</time>
      </trkpt>
      <trkpt lat="48.7102" lon="2.50333">
        <ele>45</ele>
        <time>2020-12-10T07:35:09.626Z</time>
      </trkpt>
      <trkpt lat="48.71021" lon="2.50335">
        <ele>45</ele>
        <time>2020-12-10T07:35:14.614Z</time>
      </trkpt>
      <trkpt lat="48.71021" lon="2.50339">
        <ele>45</ele>
        <time>2020-12-10T07:35:19.616Z</time>
      </trkpt>
      <trkpt lat="48.7102" lon="2.50348">
        <ele>46</ele>
        <time>2020-12-10T07:35:24.618Z</time>
      </trkpt>
      <trkpt lat="48.71024" lon="2.50356">
        <ele>46</ele>
        <time>2020-12-10T07:35:29.602Z</time>
      </trkpt>
      <trkpt lat="48.71023" lon="2.50356">
        <ele>46</ele>
        <time>2020-12-10T07:35:33.628Z</time>
      </trkpt>
      <trkpt lat="48.71026" lon="2.50369">
        <ele>46</ele>
        <time>2020-12-10T07:35:38.610Z</time>
      </trkpt>
      <trkpt lat="48.71028" lon="2.5037">
        <ele>46</ele>
        <time>2020-12-10T07:35:43.627Z</time>
      </trkpt>
      <trkpt lat="48.71031" lon="2.50378">
        <ele>47</ele>
        <time>2020-12-10T07:35:48.614Z</time>
      </trkpt>
      <trkpt lat="48.71043" lon="2.50388">
        <ele>46</ele>
        <time>2020-12-10T07:35:53.609Z</time>
      </trkpt>
      <trkpt lat="48.71052" lon="2.50391">
        <ele>46</ele>
        <time>2020-12-10T07:35:57.619Z</time>
      </trkpt>
      <trkpt lat="48.7106" lon="2.50403">
        <ele>46</ele>
        <time>2020-12-10T07:36:02.614Z</time>
      </trkpt>
      <trkpt lat="48.7107" lon="2.50407">
        <ele>47</ele>
        <time>2020-12-10T07:36:06.627Z</time>
      </trkpt>
      <trkpt lat="48.71076" lon="2.50411">
        <ele>47</ele>
        <time>2020-12-10T07:36:11.596Z</time>
      </trkpt>
      <trkpt lat="48.71082" lon="2.50417">
        <ele>47</ele>
        <time>2020-12-10T07:36:16.612Z</time>
      </trkpt>
      <trkpt lat="48.71086" lon="2.50422">
        <ele>47</ele>
        <time>2020-12-10T07:36:21.611Z</time>
      </trkpt>
      <trkpt lat="48.71091" lon="2.50432">
        <ele>47</ele>
        <time>2020-12-10T07:36:26.615Z</time>
      </trkpt>
      <trkpt lat="48.71095" lon="2.50441">
        <ele>47</ele>
        <time>2020-12-10T07:36:31.595Z</time>
      </trkpt>
      <trkpt lat="48.71096" lon="2.50446">
        <ele>47</ele>
        <time>2020-12-10T07:36:35.636Z</time>
      </trkpt>
      <trkpt lat="48.71095" lon="2.50457">
        <ele>47</ele>
        <time>2020-12-10T07:36:40.603Z</time>
      </trkpt>
      <trkpt lat="48.71091" lon="2.50466">
        <ele>47</ele>
        <time>2020-12-10T07:36:45.597Z</time>
      </trkpt>
      <trkpt lat="48.71092" lon="2.50479">
        <ele>47</ele>
        <time>2020-12-10T07:36:50.600Z</time>
      </trkpt>
      <trkpt lat="48.71093" lon="2.50491">
        <ele>48</ele>
        <time>2020-12-10T07:36:55.596Z</time>
      </trkpt>
      <trkpt lat="48.71094" lon="2.50498">
        <ele>48</ele>
        <time>2020-12-10T07:36:59.609Z</time>
      </trkpt>
      <trkpt lat="48.71092" lon="2.50512">
        <ele>48</ele>
        <time>2020-12-10T07:37:04.613Z</time>
      </trkpt>
      <trkpt lat="48.71091" lon="2.50521">
        <ele>49</ele>
        <time>2020-12-10T07:37:09.642Z</time>
      </trkpt>
      <trkpt lat="48.71092" lon="2.50526">
        <ele>49</ele>
        <time>2020-12-10T07:37:14.617Z</time>
      </trkpt>
      <trkpt lat="48.71093" lon="2.5053">
        <ele>49</ele>
        <time>2020-12-10T07:37:19.599Z</time>
      </trkpt>
      <trkpt lat="48.71095" lon="2.50529">
        <ele>49</ele>
        <time>2020-12-10T07:37:23.610Z</time>
      </trkpt>
      <trkpt lat="48.71095" lon="2.50537">
        <ele>49</ele>
        <time>2020-12-10T07:37:28.611Z</time>
      </trkpt>
      <trkpt lat="48.71097" lon="2.5055">
        <ele>49</ele>
        <time>2020-12-10T07:37:32.636Z</time>
      </trkpt>
      <trkpt lat="48.711" lon="2.50552">
        <ele>49</ele>
        <time>2020-12-10T07:37:37.612Z</time>
      </trkpt>
      <trkpt lat="48.71103" lon="2.50559">
        <ele>49</ele>
        <time>2020-12-10T07:37:42.607Z</time>
      </trkpt>
      <trkpt lat="48.71112" lon="2.50574">
        <ele>50</ele>
        <time>2020-12-10T07:37:47.610Z</time>
      </trkpt>
      <trkpt lat="48.71115" lon="2.50584">
        <ele>50</ele>
        <time>2020-12-10T07:37:52.617Z</time>
      </trkpt>
      <trkpt lat="48.71116" lon="2.50593">
        <ele>50</ele>
        <time>2020-12-10T07:37:57.612Z</time>
      </trkpt>
      <trkpt lat="48.7112" lon="2.50602">
        <ele>51</ele>
        <time>2020-12-10T07:38:02.611Z</time>
      </trkpt>
      <trkpt lat="48.71125" lon="2.5062">
        <ele>51</ele>
        <time>2020-12-10T07:38:07.603Z</time>
      </trkpt>
      <trkpt lat="48.71127" lon="2.50634">
        <ele>50</ele>
        <time>2020-12-10T07:38:12.599Z</time>
      </trkpt>
      <trkpt lat="48.71127" lon="2.50644">
        <ele>50</ele>
        <time>2020-12-10T07:38:16.641Z</time>
      </trkpt>
      <trkpt lat="48.71128" lon="2.50649">
        <ele>50</ele>
        <time>2020-12-10T07:38:21.596Z</time>
      </trkpt>
      <trkpt lat="48.7113" lon="2.50651">
        <ele>50</ele>
        <time>2020-12-10T07:38:26.605Z</time>
      </trkpt>
      <trkpt lat="48.71128" lon="2.5066">
        <ele>50</ele>
        <time>2020-12-10T07:38:31.610Z</time>
      </trkpt>
      <trkpt lat="48.71128" lon="2.50673">
        <ele>50</ele>
        <time>2020-12-10T07:38:36.585Z</time>
      </trkpt>
      <trkpt lat="48.71127" lon="2.50683">
        <ele>51</ele>
        <time>2020-12-10T07:38:40.595Z</time>
      </trkpt>
      <trkpt lat="48.71127" lon="2.50696">
        <ele>51</ele>
        <time>2020-12-10T07:38:44.629Z</time>
      </trkpt>
      <trkpt lat="48.71125" lon="2.50707">
        <ele>51</ele>
        <time>2020-12-10T07:38:49.600Z</time>
      </trkpt>
      <trkpt lat="48.71126" lon="2.50709">
        <ele>51</ele>
        <time>2020-12-10T07:38:54.605Z</time>
      </trkpt>
      <trkpt lat="48.71128" lon="2.50717">
        <ele>51</ele>
        <time>2020-12-10T07:38:59.598Z</time>
      </trkpt>
      <trkpt lat="48.71128" lon="2.50722">
        <ele>51</ele>
        <time>2020-12-10T07:39:04.600Z</time>
      </trkpt>
      <trkpt lat="48.71129" lon="2.50724">
        <ele>51</ele>
        <time>2020-12-10T07:39:08.621Z</time>
      </trkpt>
      <trkpt lat="48.71131" lon="2.50734">
        <ele>51</ele>
        <time>2020-12-10T07:39:13.594Z</time>
      </trkpt>
      <trkpt lat="48.71132" lon="2.50739">
        <ele>52</ele>
        <time>2020-12-10T07:39:17.612Z</time>
      </trkpt>
      <trkpt lat="48.71135" lon="2.50747">
        <ele>52</ele>
        <time>2020-12-10T07:39:22.602Z</time>
      </trkpt>
      <trkpt lat="48.71135" lon="2.50749">
        <ele>52</ele>
        <time>2020-12-10T07:39:26.618Z</time>
      </trkpt>
      <trkpt lat="48.71135" lon="2.50757">
        <ele>52</ele>
        <time>2020-12-10T07:39:31.593Z</time>
      </trkpt>
      <trkpt lat="48.71136" lon="2.50763">
        <ele>52</ele>
        <time>2020-12-10T07:39:36.604Z</time>
      </trkpt>
      <trkpt lat="48.71137" lon="2.5077">
        <ele>53</ele>
        <time>2020-12-10T07:39:41.600Z</time>
      </trkpt>
      <trkpt lat="48.7114" lon="2.50778">
        <ele>53</ele>
        <time>2020-12-10T07:39:46.614Z</time>
      </trkpt>
      <trkpt lat="48.71141" lon="2.50782">
        <ele>53</ele>
        <time>2020-12-10T07:39:51.605Z</time>
      </trkpt>
      <trkpt lat="48.71139" lon="2.50791">
        <ele>53</ele>
        <time>2020-12-10T07:39:56.631Z</time>
      </trkpt>
      <trkpt lat="48.7114" lon="2.50807">
        <ele>55</ele>
        <time>2020-12-10T07:40:01.594Z</time>
      </trkpt>
      <trkpt lat="48.7114" lon="2.50817">
        <ele>55</ele>
        <time>2020-12-10T07:40:06.615Z</time>
      </trkpt>
      <trkpt lat="48.71142" lon="2.50829">
        <ele>57</ele>
        <time>2020-12-10T07:40:11.611Z</time>
      </trkpt>
      <trkpt lat="48.71145" lon="2.50834">
        <ele>57</ele>
        <time>2020-12-10T07:40:16.616Z</time>
      </trkpt>
      <trkpt lat="48.71146" lon="2.50837">
        <ele>57</ele>
        <time>2020-12-10T07:40:21.602Z</time>
      </trkpt>
      <trkpt lat="48.71145" lon="2.50843">
        <ele>57</ele>
        <time>2020-12-10T07:40:26.613Z</time>
      </trkpt>
      <trkpt lat="48.71145" lon="2.5085">
        <ele>60</ele>
        <time>2020-12-10T07:40:31.615Z</time>
      </trkpt>
      <trkpt lat="48.71149" lon="2.50858">
        <ele>60</ele>
        <time>2020-12-10T07:40:36.611Z</time>
      </trkpt>
      <trkpt lat="48.71149" lon="2.50866">
        <ele>60</ele>
        <time>2020-12-10T07:40:41.611Z</time>
      </trkpt>
      <trkpt lat="48.71154" lon="2.50875">
        <ele>60</ele>
        <time>2020-12-10T07:40:46.610Z</time>
      </trkpt>
      <trkpt lat="48.71146" lon="2.50887">
        <ele>62</ele>
        <time>2020-12-10T07:40:51.613Z</time>
      </trkpt>
      <trkpt lat="48.71146" lon="2.5089">
        <ele>62</ele>
        <time>2020-12-10T07:40:56.614Z</time>
      </trkpt>
      <trkpt lat="48.71146" lon="2.50897">
        <ele>62</ele>
        <time>2020-12-10T07:41:01.599Z</time>
      </trkpt>
      <trkpt lat="48.71139" lon="2.50908">
        <ele>62</ele>
        <time>2020-12-10T07:41:06.614Z</time>
      </trkpt>
      <trkpt lat="48.71144" lon="2.50925">
        <ele>62</ele>
        <time>2020-12-10T07:41:11.598Z</time>
      </trkpt>
      <trkpt lat="48.71142" lon="2.50932">
        <ele>61</ele>
        <time>2020-12-10T07:41:15.594Z</time>
      </trkpt>
      <trkpt lat="48.71146" lon="2.50952">
        <ele>61</ele>
        <time>2020-12-10T07:41:20.603Z</time>
      </trkpt>
      <trkpt lat="48.7115" lon="2.50966">
        <ele>60</ele>
        <time>2020-12-10T07:41:25.592Z</time>
      </trkpt>
      <trkpt lat="48.71148" lon="2.50981">
        <ele>60</ele>
        <time>2020-12-10T07:41:29.606Z</time>
      </trkpt>
      <trkpt lat="48.7115" lon="2.50991">
        <ele>58</ele>
        <time>2020-12-10T07:41:34.606Z</time>
      </trkpt>
      <trkpt lat="48.71154" lon="2.5101">
        <ele>54</ele>
        <time>2020-12-10T07:41:38.629Z</time>
      </trkpt>
      <trkpt lat="48.71165" lon="2.51029">
        <ele>53</ele>
        <time>2020-12-10T07:41:43.611Z</time>
      </trkpt>
      <trkpt lat="48.71178" lon="2.51041">
        <ele>53</ele>
        <time>2020-12-10T07:41:48.615Z</time>
      </trkpt>
      <trkpt lat="48.7118" lon="2.5104">
        <ele>53</ele>
        <time>2020-12-10T07:41:53.619Z</time>
      </trkpt>
      <trkpt lat="48.71182" lon="2.51041">
        <ele>51</ele>
        <time>2020-12-10T07:41:58.609Z</time>
      </trkpt>
      <trkpt lat="48.71184" lon="2.51049">
        <ele>52</ele>
        <time>2020-12-10T07:42:03.602Z</time>
      </trkpt>
      <trkpt lat="48.71185" lon="2.51055">
        <ele>52</ele>
        <time>2020-12-10T07:42:08.624Z</time>
      </trkpt>
      <trkpt lat="48.71185" lon="2.51061">
        <ele>52</ele>
        <time>2020-12-10T07:42:13.603Z</time>
      </trkpt>
      <trkpt lat="48.71183" lon="2.51068">
        <ele>52</ele>
        <time>2020-12-10T07:42:18.612Z</time>
      </trkpt>
      <trkpt lat="48.71181" lon="2.51073">
        <ele>52</ele>
        <time>2020-12-10T07:42:23.616Z</time>
      </trkpt>
      <trkpt lat="48.71186" lon="2.51087">
        <ele>52</ele>
        <time>2020-12-10T07:42:28.608Z</time>
      </trkpt>
      <trkpt lat="48.71184" lon="2.51097">
        <ele>52</ele>
        <time>2020-12-10T07:42:33.608Z</time>
      </trkpt>
      <trkpt lat="48.71182" lon="2.51103">
        <ele>52</ele>
        <time>2020-12-10T07:42:37.621Z</time>
      </trkpt>
      <trkpt lat="48.71175" lon="2.51117">
        <ele>55</ele>
        <time>2020-12-10T07:42:42.616Z</time>
      </trkpt>
      <trkpt lat="48.71171" lon="2.51123">
        <ele>55</ele>
        <time>2020-12-10T07:42:47.615Z</time>
      </trkpt>
      <trkpt lat="48.71172" lon="2.51127">
        <ele>56</ele>
        <time>2020-12-10T07:42:52.614Z</time>
      </trkpt>
      <trkpt lat="48.7117" lon="2.51136">
        <ele>56</ele>
        <time>2020-12-10T07:42:57.617Z</time>
      </trkpt>
      <trkpt lat="48.71168" lon="2.51145">
        <ele>56</ele>
        <time>2020-12-10T07:43:02.615Z</time>
      </trkpt>
      <trkpt lat="48.71159" lon="2.51157">
        <ele>57</ele>
        <time>2020-12-10T07:43:07.611Z</time>
      </trkpt>
      <trkpt lat="48.71162" lon="2.51164">
        <ele>57</ele>
        <time>2020-12-10T07:43:12.605Z</time>
      </trkpt>
      <trkpt lat="48.71161" lon="2.51169">
        <ele>57</ele>
        <time>2020-12-10T07:43:17.614Z</time>
      </trkpt>
      <trkpt lat="48.71161" lon="2.51173">
        <ele>57</ele>
        <time>2020-12-10T07:43:22.613Z</time>
      </trkpt>
      <trkpt lat="48.71158" lon="2.51183">
        <ele>57</ele>
        <time>2020-12-10T07:43:27.601Z</time>
      </trkpt>
      <trkpt lat="48.71157" lon="2.51198">
        <ele>57</ele>
        <time>2020-12-10T07:43:32.604Z</time>
      </trkpt>
      <trkpt lat="48.71153" lon="2.51212">
        <ele>58</ele>
        <time>2020-12-10T07:43:37.611Z</time>
      </trkpt>
      <trkpt lat="48.71151" lon="2.51222">
        <ele>61</ele>
        <time>2020-12-10T07:43:42.600Z</time>
      </trkpt>
      <trkpt lat="48.71147" lon="2.51228">
        <ele>61</ele>
        <time>2020-12-10T07:43:47.602Z</time>
      </trkpt>
      <trkpt lat="48.71149" lon="2.51231">
        <ele>61</ele>
        <time>2020-12-10T07:43:52.600Z</time>
      </trkpt>
      <trkpt lat="48.71144" lon="2.5124">
        <ele>62</ele>
        <time>2020-12-10T07:43:57.601Z</time>
      </trkpt>
      <trkpt lat="48.71144" lon="2.51261">
        <ele>62</ele>
        <time>2020-12-10T07:44:02.616Z</time>
      </trkpt>
      <trkpt lat="48.71148" lon="2.51272">
        <ele>62</ele>
        <time>2020-12-10T07:44:07.606Z</time>
      </trkpt>
      <trkpt lat="48.71149" lon="2.51288">
        <ele>62</ele>
        <time>2020-12-10T07:44:12.600Z</time>
      </trkpt>
      <trkpt lat="48.7115" lon="2.51301">
        <ele>62</ele>
        <time>2020-12-10T07:44:17.607Z</time>
      </trkpt>
      <trkpt lat="48.7115" lon="2.51308">
        <ele>62</ele>
        <time>2020-12-10T07:44:22.614Z</time>
      </trkpt>
      <trkpt lat="48.71151" lon="2.51315">
        <ele>62</ele>
        <time>2020-12-10T07:44:27.616Z</time>
      </trkpt>
      <trkpt lat="48.71155" lon="2.51322">
        <ele>59</ele>
        <time>2020-12-10T07:44:32.608Z</time>
      </trkpt>
      <trkpt lat="48.71161" lon="2.51335">
        <ele>59</ele>
        <time>2020-12-10T07:44:37.615Z</time>
      </trkpt>
      <trkpt lat="48.71158" lon="2.51339">
        <ele>59</ele>
        <time>2020-12-10T07:44:42.611Z</time>
      </trkpt>
      <trkpt lat="48.71159" lon="2.51341">
        <ele>59</ele>
        <time>2020-12-10T07:44:47.622Z</time>
      </trkpt>
      <trkpt lat="48.71153" lon="2.51348">
        <ele>59</ele>
        <time>2020-12-10T07:44:52.604Z</time>
      </trkpt>
      <trkpt lat="48.71151" lon="2.51361">
        <ele>61</ele>
        <time>2020-12-10T07:44:57.612Z</time>
      </trkpt>
      <trkpt lat="48.71148" lon="2.51371">
        <ele>61</ele>
        <time>2020-12-10T07:45:02.615Z</time>
      </trkpt>
      <trkpt lat="48.71146" lon="2.51377">
        <ele>62</ele>
        <time>2020-12-10T07:45:07.603Z</time>
      </trkpt>
      <trkpt lat="48.71143" lon="2.51389">
        <ele>62</ele>
        <time>2020-12-10T07:45:12.610Z</time>
      </trkpt>
      <trkpt lat="48.71142" lon="2.51391">
        <ele>62</ele>
        <time>2020-12-10T07:45:17.614Z</time>
      </trkpt>
      <trkpt lat="48.7114" lon="2.51395">
        <ele>62</ele>
        <time>2020-12-10T07:45:22.595Z</time>
      </trkpt>
      <trkpt lat="48.71135" lon="2.51412">
        <ele>62</ele>
        <time>2020-12-10T07:45:27.620Z</time>
      </trkpt>
      <trkpt lat="48.71136" lon="2.51421">
        <ele>62</ele>
        <time>2020-12-10T07:45:32.614Z</time>
      </trkpt>
      <trkpt lat="48.71134" lon="2.51428">
        <ele>62</ele>
        <time>2020-12-10T07:45:37.613Z</time>
      </trkpt>
      <trkpt lat="48.71134" lon="2.51432">
        <ele>63</ele>
        <time>2020-12-10T07:45:42.604Z</time>
      </trkpt>
      <trkpt lat="48.71136" lon="2.51444">
        <ele>63</ele>
        <time>2020-12-10T07:45:47.612Z</time>
      </trkpt>
      <trkpt lat="48.71152" lon="2.51472">
        <ele>63</ele>
        <time>2020-12-10T07:45:51.625Z</time>
      </trkpt>
      <trkpt lat="48.71184" lon="2.5151">
        <ele>58</ele>
        <time>2020-12-10T07:45:56.601Z</time>
      </trkpt>
      <trkpt lat="48.71208" lon="2.51537">
        <ele>59</ele>
        <time>2020-12-10T07:46:01.597Z</time>
      </trkpt>
      <trkpt lat="48.71214" lon="2.5154">
        <ele>57</ele>
        <time>2020-12-10T07:46:06.608Z</time>
      </trkpt>
      <trkpt lat="48.71219" lon="2.51548">
        <ele>57</ele>
        <time>2020-12-10T07:46:11.613Z</time>
      </trkpt>
      <trkpt lat="48.71223" lon="2.51558">
        <ele>57</ele>
        <time>2020-12-10T07:46:16.611Z</time>
      </trkpt>
      <trkpt lat="48.71224" lon="2.51559">
        <ele>57</ele>
        <time>2020-12-10T07:46:21.617Z</time>
      </trkpt>
      <trkpt lat="48.71226" lon="2.51562">
        <ele>57</ele>
        <time>2020-12-10T07:46:26.613Z</time>
      </trkpt>
      <trkpt lat="48.71227" lon="2.51577">
        <ele>58</ele>
        <time>2020-12-10T07:46:31.615Z</time>
      </trkpt>
      <trkpt lat="48.71229" lon="2.51587">
        <ele>58</ele>
        <time>2020-12-10T07:46:36.593Z</time>
      </trkpt>
      <trkpt lat="48.71231" lon="2.51593">
        <ele>58</ele>
        <time>2020-12-10T07:46:41.609Z</time>
      </trkpt>
      <trkpt lat="48.71234" lon="2.51605">
        <ele>58</ele>
        <time>2020-12-10T07:46:46.620Z</time>
      </trkpt>
      <trkpt lat="48.71248" lon="2.51621">
        <ele>57</ele>
        <time>2020-12-10T07:46:51.618Z</time>
      </trkpt>
      <trkpt lat="48.71256" lon="2.51628">
        <ele>58</ele>
        <time>2020-12-10T07:46:56.599Z</time>
      </trkpt>
      <trkpt lat="48.7126" lon="2.51632">
        <ele>58</ele>
        <time>2020-12-10T07:47:01.614Z</time>
      </trkpt>
      <trkpt lat="48.71262" lon="2.5163">
        <ele>58</ele>
        <time>2020-12-10T07:47:06.603Z</time>
      </trkpt>
      <trkpt lat="48.71272" lon="2.51642">
        <ele>57</ele>
        <time>2020-12-10T07:47:11.604Z</time>
      </trkpt>
      <trkpt lat="48.71278" lon="2.5166">
        <ele>57</ele>
        <time>2020-12-10T07:47:16.597Z</time>
      </trkpt>
      <trkpt lat="48.71285" lon="2.51666">
        <ele>57</ele>
        <time>2020-12-10T07:47:20.610Z</time>
      </trkpt>
      <trkpt lat="48.71296" lon="2.51678">
        <ele>58</ele>
        <time>2020-12-10T07:47:25.585Z</time>
      </trkpt>
      <trkpt lat="48.71306" lon="2.5169">
        <ele>58</ele>
        <time>2020-12-10T07:47:30.594Z</time>
      </trkpt>
      <trkpt lat="48.71317" lon="2.51707">
        <ele>58</ele>
        <time>2020-12-10T07:47:35.607Z</time>
      </trkpt>
      <trkpt lat="48.71321" lon="2.51715">
        <ele>57</ele>
        <time>2020-12-10T07:47:40.589Z</time>
      </trkpt>
      <trkpt lat="48.71327" lon="2.51728">
        <ele>57</ele>
        <time>2020-12-10T07:47:44.604Z</time>
      </trkpt>
      <trkpt lat="48.71335" lon="2.51747">
        <ele>54</ele>
        <time>2020-12-10T07:48:04.609Z</time>
      </trkpt>
      <trkpt lat="48.71334" lon="2.51754">
        <ele>54</ele>
        <time>2020-12-10T07:48:09.610Z</time>
      </trkpt>
      <trkpt lat="48.71332" lon="2.51767">
        <ele>53</ele>
        <time>2020-12-10T07:48:14.609Z</time>
      </trkpt>
      <trkpt lat="48.71332" lon="2.51781">
        <ele>53</ele>
        <time>2020-12-10T07:48:19.619Z</time>
      </trkpt>
      <trkpt lat="48.71331" lon="2.51792">
        <ele>52</ele>
        <time>2020-12-10T07:48:24.610Z</time>
      </trkpt>
      <trkpt lat="48.71332" lon="2.51805">
        <ele>52</ele>
        <time>2020-12-10T07:48:29.623Z</time>
      </trkpt>
      <trkpt lat="48.71335" lon="2.51817">
        <ele>52</ele>
        <time>2020-12-10T07:48:34.608Z</time>
      </trkpt>
      <trkpt lat="48.71337" lon="2.51818">
        <ele>52</ele>
        <time>2020-12-10T07:48:39.603Z</time>
      </trkpt>
      <trkpt lat="48.71335" lon="2.51822">
        <ele>52</ele>
        <time>2020-12-10T07:48:44.590Z</time>
      </trkpt>
      <trkpt lat="48.71333" lon="2.51831">
        <ele>52</ele>
        <time>2020-12-10T07:48:53.603Z</time>
      </trkpt>
      <trkpt lat="48.71334" lon="2.51832">
        <ele>52</ele>
        <time>2020-12-10T07:48:57.614Z</time>
      </trkpt>
      <trkpt lat="48.71331" lon="2.51831">
        <ele>52</ele>
        <time>2020-12-10T07:49:02.618Z</time>
      </trkpt>
      <trkpt lat="48.7133" lon="2.51833">
        <ele>52</ele>
        <time>2020-12-10T07:49:07.607Z</time>
      </trkpt>
      <trkpt lat="48.71326" lon="2.5184">
        <ele>52</ele>
        <time>2020-12-10T07:49:12.602Z</time>
      </trkpt>
      <trkpt lat="48.7132" lon="2.5184">
        <ele>52</ele>
        <time>2020-12-10T07:49:17.608Z</time>
      </trkpt>
      <trkpt lat="48.7132" lon="2.51841">
        <ele>52</ele>
        <time>2020-12-10T07:49:22.621Z</time>
      </trkpt>
      <trkpt lat="48.71319" lon="2.51847">
        <ele>52</ele>
        <time>2020-12-10T07:49:27.599Z</time>
      </trkpt>
      <trkpt lat="48.71314" lon="2.51854">
        <ele>51</ele>
        <time>2020-12-10T07:49:32.608Z</time>
      </trkpt>
      <trkpt lat="48.7131" lon="2.51857">
        <ele>51</ele>
        <time>2020-12-10T07:49:37.608Z</time>
      </trkpt>
      <trkpt lat="48.71308" lon="2.51863">
        <ele>51</ele>
        <time>2020-12-10T07:49:41.636Z</time>
      </trkpt>
      <trkpt lat="48.71308" lon="2.51864">
        <ele>51</ele>
        <time>2020-12-10T07:49:46.608Z</time>
      </trkpt>
      <trkpt lat="48.71302" lon="2.51868">
        <ele>51</ele>
        <time>2020-12-10T07:49:51.604Z</time>
      </trkpt>
      <trkpt lat="48.71296" lon="2.51881">
        <ele>51</ele>
        <time>2020-12-10T07:49:55.619Z</time>
      </trkpt>
      <trkpt lat="48.71292" lon="2.51892">
        <ele>51</ele>
        <time>2020-12-10T07:50:00.589Z</time>
      </trkpt>
      <trkpt lat="48.71288" lon="2.51907">
        <ele>53</ele>
        <time>2020-12-10T07:50:05.587Z</time>
      </trkpt>
      <trkpt lat="48.71289" lon="2.51917">
        <ele>53</ele>
        <time>2020-12-10T07:50:09.620Z</time>
      </trkpt>
      <trkpt lat="48.71287" lon="2.51923">
        <ele>53</ele>
        <time>2020-12-10T07:50:14.603Z</time>
      </trkpt>
      <trkpt lat="48.71283" lon="2.51928">
        <ele>53</ele>
        <time>2020-12-10T07:50:18.626Z</time>
      </trkpt>
      <trkpt lat="48.7128" lon="2.51942">
        <ele>54</ele>
        <time>2020-12-10T07:50:23.589Z</time>
      </trkpt>
      <trkpt lat="48.7128" lon="2.51948">
        <ele>54</ele>
        <time>2020-12-10T07:50:27.606Z</time>
      </trkpt>
      <trkpt lat="48.71277" lon="2.51958">
        <ele>54</ele>
        <time>2020-12-10T07:50:32.611Z</time>
      </trkpt>
      <trkpt lat="48.71272" lon="2.51963">
        <ele>53</ele>
        <time>2020-12-10T07:50:37.606Z</time>
      </trkpt>
      <trkpt lat="48.7127" lon="2.51971">
        <ele>53</ele>
        <time>2020-12-10T07:50:41.632Z</time>
      </trkpt>
      <trkpt lat="48.71271" lon="2.51974">
        <ele>53</ele>
        <time>2020-12-10T07:50:46.609Z</time>
      </trkpt>
      <trkpt lat="48.71272" lon="2.51979">
        <ele>53</ele>
        <time>2020-12-10T07:50:51.616Z</time>
      </trkpt>
      <trkpt lat="48.71272" lon="2.5198">
        <ele>53</ele>
        <time>2020-12-10T07:50:56.602Z</time>
      </trkpt>
      <trkpt lat="48.71275" lon="2.51994">
        <ele>53</ele>
        <time>2020-12-10T07:51:01.602Z</time>
      </trkpt>
      <trkpt lat="48.71277" lon="2.52009">
        <ele>53</ele>
        <time>2020-12-10T07:51:06.610Z</time>
      </trkpt>
      <trkpt lat="48.7128" lon="2.52017">
        <ele>53</ele>
        <time>2020-12-10T07:51:11.612Z</time>
      </trkpt>
      <trkpt lat="48.71285" lon="2.5202">
        <ele>53</ele>
        <time>2020-12-10T07:51:16.610Z</time>
      </trkpt>
      <trkpt lat="48.71292" lon="2.52028">
        <ele>52</ele>
        <time>2020-12-10T07:51:21.593Z</time>
      </trkpt>
      <trkpt lat="48.71296" lon="2.52035">
        <ele>52</ele>
        <time>2020-12-10T07:51:26.594Z</time>
      </trkpt>
      <trkpt lat="48.713" lon="2.52041">
        <ele>52</ele>
        <time>2020-12-10T07:51:31.612Z</time>
      </trkpt>
      <trkpt lat="48.71303" lon="2.52044">
        <ele>52</ele>
        <time>2020-12-10T07:51:36.611Z</time>
      </trkpt>
      <trkpt lat="48.71314" lon="2.52044">
        <ele>52</ele>
        <time>2020-12-10T07:51:41.616Z</time>
      </trkpt>
      <trkpt lat="48.71327" lon="2.5204">
        <ele>53</ele>
        <time>2020-12-10T07:51:46.601Z</time>
      </trkpt>
      <trkpt lat="48.71336" lon="2.52036">
        <ele>53</ele>
        <time>2020-12-10T07:51:51.615Z</time>
      </trkpt>
      <trkpt lat="48.71344" lon="2.52031">
        <ele>53</ele>
        <time>2020-12-10T07:51:56.598Z</time>
      </trkpt>
      <trkpt lat="48.71351" lon="2.52028">
        <ele>54</ele>
        <time>2020-12-10T07:52:01.591Z</time>
      </trkpt>
      <trkpt lat="48.71356" lon="2.5203">
        <ele>54</ele>
        <time>2020-12-10T07:52:06.609Z</time>
      </trkpt>
      <trkpt lat="48.71358" lon="2.52035">
        <ele>54</ele>
        <time>2020-12-10T07:52:11.628Z</time>
      </trkpt>
      <trkpt lat="48.7136" lon="2.52037">
        <ele>54</ele>
        <time>2020-12-10T07:52:16.607Z</time>
      </trkpt>
      <trkpt lat="48.71364" lon="2.52039">
        <ele>54</ele>
        <time>2020-12-10T07:52:21.601Z</time>
      </trkpt>
      <trkpt lat="48.71372" lon="2.52036">
        <ele>54</ele>
        <time>2020-12-10T07:52:26.622Z</time>
      </trkpt>
      <trkpt lat="48.71373" lon="2.52031">
        <ele>54</ele>
        <time>2020-12-10T07:52:31.612Z</time>
      </trkpt>
      <trkpt lat="48.71375" lon="2.52034">
        <ele>54</ele>
        <time>2020-12-10T07:52:36.599Z</time>
      </trkpt>
      <trkpt lat="48.71378" lon="2.52039">
        <ele>53</ele>
        <time>2020-12-10T07:52:41.613Z</time>
      </trkpt>
      <trkpt lat="48.71385" lon="2.52049">
        <ele>52</ele>
        <time>2020-12-10T07:52:46.616Z</time>
      </trkpt>
      <trkpt lat="48.71389" lon="2.52054">
        <ele>52</ele>
        <time>2020-12-10T07:52:51.613Z</time>
      </trkpt>
      <trkpt lat="48.71395" lon="2.52065">
        <ele>52</ele>
        <time>2020-12-10T07:52:56.604Z</time>
      </trkpt>
      <trkpt lat="48.71395" lon="2.52067">
        <ele>52</ele>
        <time>2020-12-10T07:53:01.600Z</time>
      </trkpt>
      <trkpt lat="48.71398" lon="2.52076">
        <ele>50</ele>
        <time>2020-12-10T07:53:05.606Z</time>
      </trkpt>
      <trkpt lat="48.71404" lon="2.52086">
        <ele>51</ele>
        <time>2020-12-10T07:53:10.597Z</time>
      </trkpt>
      <trkpt lat="48.71409" lon="2.52101">
        <ele>49</ele>
        <time>2020-12-10T07:53:15.593Z</time>
      </trkpt>
      <trkpt lat="48.71409" lon="2.52112">
        <ele>49</ele>
        <time>2020-12-10T07:53:20.604Z</time>
      </trkpt>
      <trkpt lat="48.71407" lon="2.52116">
        <ele>49</ele>
        <time>2020-12-10T07:53:25.600Z</time>
      </trkpt>
      <trkpt lat="48.71406" lon="2.52122">
        <ele>49</ele>
        <time>2020-12-10T07:53:30.607Z</time>
      </trkpt>
      <trkpt lat="48.71407" lon="2.52126">
        <ele>48</ele>
        <time>2020-12-10T07:53:35.600Z</time>
      </trkpt>
      <trkpt lat="48.71409" lon="2.5213">
        <ele>48</ele>
        <time>2020-12-10T07:53:39.624Z</time>
      </trkpt>
      <trkpt lat="48.71408" lon="2.52137">
        <ele>48</ele>
        <time>2020-12-10T07:53:44.611Z</time>
      </trkpt>
      <trkpt lat="48.71409" lon="2.52155">
        <ele>48</ele>
        <time>2020-12-10T07:53:49.599Z</time>
      </trkpt>
      <trkpt lat="48.71408" lon="2.52165">
        <ele>48</ele>
        <time>2020-12-10T07:53:54.601Z</time>
      </trkpt>
      <trkpt lat="48.71407" lon="2.52171">
        <ele>48</ele>
        <time>2020-12-10T07:53:58.623Z</time>
      </trkpt>
      <trkpt lat="48.71404" lon="2.52179">
        <ele>48</ele>
        <time>2020-12-10T07:54:03.592Z</time>
      </trkpt>
      <trkpt lat="48.71403" lon="2.52185">
        <ele>49</ele>
        <time>2020-12-10T07:54:07.612Z</time>
      </trkpt>
      <trkpt lat="48.71401" lon="2.52197">
        <ele>48</ele>
        <time>2020-12-10T07:54:12.637Z</time>
      </trkpt>
      <trkpt lat="48.71398" lon="2.52203">
        <ele>48</ele>
        <time>2020-12-10T07:54:17.608Z</time>
      </trkpt>
      <trkpt lat="48.71395" lon="2.52208">
        <ele>48</ele>
        <time>2020-12-10T07:54:22.614Z</time>
      </trkpt>
      <trkpt lat="48.71392" lon="2.52217">
        <ele>48</ele>
        <time>2020-12-10T07:54:26.633Z</time>
      </trkpt>
      <trkpt lat="48.71388" lon="2.52226">
        <ele>48</ele>
        <time>2020-12-10T07:54:31.593Z</time>
      </trkpt>
      <trkpt lat="48.71386" lon="2.52235">
        <ele>48</ele>
        <time>2020-12-10T07:54:36.601Z</time>
      </trkpt>
      <trkpt lat="48.71381" lon="2.52245">
        <ele>49</ele>
        <time>2020-12-10T07:54:41.601Z</time>
      </trkpt>
      <trkpt lat="48.71377" lon="2.52256">
        <ele>49</ele>
        <time>2020-12-10T07:54:45.628Z</time>
      </trkpt>
      <trkpt lat="48.71375" lon="2.52264">
        <ele>48</ele>
        <time>2020-12-10T07:54:49.645Z</time>
      </trkpt>
      <trkpt lat="48.71372" lon="2.5227">
        <ele>49</ele>
        <time>2020-12-10T07:54:54.612Z</time>
      </trkpt>
      <trkpt lat="48.71367" lon="2.5228">
        <ele>49</ele>
        <time>2020-12-10T07:54:59.609Z</time>
      </trkpt>
      <trkpt lat="48.71364" lon="2.52289">
        <ele>49</ele>
        <time>2020-12-10T07:55:04.602Z</time>
      </trkpt>
      <trkpt lat="48.71364" lon="2.52296">
        <ele>49</ele>
        <time>2020-12-10T07:55:09.593Z</time>
      </trkpt>
      <trkpt lat="48.71362" lon="2.52306">
        <ele>49</ele>
        <time>2020-12-10T07:55:14.607Z</time>
      </trkpt>
      <trkpt lat="48.71359" lon="2.52319">
        <ele>49</ele>
        <time>2020-12-10T07:55:19.609Z</time>
      </trkpt>
      <trkpt lat="48.71359" lon="2.52323">
        <ele>50</ele>
        <time>2020-12-10T07:55:24.599Z</time>
      </trkpt>
      <trkpt lat="48.71358" lon="2.52334">
        <ele>50</ele>
        <time>2020-12-10T07:55:29.589Z</time>
      </trkpt>
      <trkpt lat="48.71356" lon="2.52344">
        <ele>50</ele>
        <time>2020-12-10T07:55:34.622Z</time>
      </trkpt>
      <trkpt lat="48.71356" lon="2.52352">
        <ele>52</ele>
        <time>2020-12-10T07:55:39.614Z</time>
      </trkpt>
      <trkpt lat="48.71355" lon="2.52361">
        <ele>52</ele>
        <time>2020-12-10T07:55:44.611Z</time>
      </trkpt>
      <trkpt lat="48.71351" lon="2.52372">
        <ele>52</ele>
        <time>2020-12-10T07:55:49.611Z</time>
      </trkpt>
      <trkpt lat="48.71347" lon="2.52383">
        <ele>51</ele>
        <time>2020-12-10T07:55:54.606Z</time>
      </trkpt>
      <trkpt lat="48.71342" lon="2.52396">
        <ele>51</ele>
        <time>2020-12-10T07:55:59.607Z</time>
      </trkpt>
      <trkpt lat="48.71339" lon="2.52402">
        <ele>51</ele>
        <time>2020-12-10T07:56:04.612Z</time>
      </trkpt>
      <trkpt lat="48.71336" lon="2.52412">
        <ele>52</ele>
        <time>2020-12-10T07:56:09.599Z</time>
      </trkpt>
      <trkpt lat="48.71333" lon="2.5242">
        <ele>52</ele>
        <time>2020-12-10T07:56:14.607Z</time>
      </trkpt>
      <trkpt lat="48.71332" lon="2.52433">
        <ele>52</ele>
        <time>2020-12-10T07:56:19.607Z</time>
      </trkpt>
      <trkpt lat="48.71332" lon="2.5244">
        <ele>52</ele>
        <time>2020-12-10T07:56:24.613Z</time>
      </trkpt>
      <trkpt lat="48.71331" lon="2.52452">
        <ele>52</ele>
        <time>2020-12-10T07:56:29.631Z</time>
      </trkpt>
      <trkpt lat="48.71329" lon="2.5246">
        <ele>51</ele>
        <time>2020-12-10T07:56:34.613Z</time>
      </trkpt>
      <trkpt lat="48.71328" lon="2.52471">
        <ele>51</ele>
        <time>2020-12-10T07:56:39.620Z</time>
      </trkpt>
      <trkpt lat="48.71329" lon="2.52478">
        <ele>51</ele>
        <time>2020-12-10T07:56:44.609Z</time>
      </trkpt>
      <trkpt lat="48.71332" lon="2.5249">
        <ele>51</ele>
        <time>2020-12-10T07:56:49.614Z</time>
      </trkpt>
      <trkpt lat="48.71334" lon="2.52498">
        <ele>51</ele>
        <time>2020-12-10T07:56:54.603Z</time>
      </trkpt>
      <trkpt lat="48.71337" lon="2.52501">
        <ele>51</ele>
        <time>2020-12-10T07:56:58.612Z</time>
      </trkpt>
      <trkpt lat="48.71341" lon="2.52509">
        <ele>51</ele>
        <time>2020-12-10T07:57:03.607Z</time>
      </trkpt>
      <trkpt lat="48.71343" lon="2.52516">
        <ele>51</ele>
        <time>2020-12-10T07:57:08.612Z</time>
      </trkpt>
      <trkpt lat="48.71347" lon="2.52528">
        <ele>51</ele>
        <time>2020-12-10T07:57:13.600Z</time>
      </trkpt>
      <trkpt lat="48.71349" lon="2.52534">
        <ele>51</ele>
        <time>2020-12-10T07:57:18.610Z</time>
      </trkpt>
      <trkpt lat="48.71353" lon="2.52542">
        <ele>50</ele>
        <time>2020-12-10T07:57:23.590Z</time>
      </trkpt>
      <trkpt lat="48.71355" lon="2.5255">
        <ele>50</ele>
        <time>2020-12-10T07:57:28.605Z</time>
      </trkpt>
      <trkpt lat="48.7136" lon="2.52561">
        <ele>50</ele>
        <time>2020-12-10T07:57:33.599Z</time>
      </trkpt>
      <trkpt lat="48.71364" lon="2.52569">
        <ele>50</ele>
        <time>2020-12-10T07:57:37.641Z</time>
      </trkpt>
      <trkpt lat="48.71368" lon="2.52578">
        <ele>50</ele>
        <time>2020-12-10T07:57:42.612Z</time>
      </trkpt>
      <trkpt lat="48.71371" lon="2.52585">
        <ele>50</ele>
        <time>2020-12-10T07:57:47.607Z</time>
      </trkpt>
      <trkpt lat="48.71373" lon="2.52591">
        <ele>50</ele>
        <time>2020-12-10T07:57:52.607Z</time>
      </trkpt>
      <trkpt lat="48.71375" lon="2.52597">
        <ele>50</ele>
        <time>2020-12-10T07:57:57.611Z</time>
      </trkpt>
      <trkpt lat="48.71378" lon="2.52604">
        <ele>50</ele>
        <time>2020-12-10T07:58:02.608Z</time>
      </trkpt>
      <trkpt lat="48.71382" lon="2.52611">
        <ele>50</ele>
        <time>2020-12-10T07:58:07.589Z</time>
      </trkpt>
      <trkpt lat="48.71384" lon="2.52616">
        <ele>50</ele>
        <time>2020-12-10T07:58:11.607Z</time>
      </trkpt>
      <trkpt lat="48.7139" lon="2.52618">
        <ele>50</ele>
        <time>2020-12-10T07:58:16.604Z</time>
      </trkpt>
      <trkpt lat="48.71398" lon="2.52626">
        <ele>51</ele>
        <time>2020-12-10T07:58:21.602Z</time>
      </trkpt>
      <trkpt lat="48.71402" lon="2.5264">
        <ele>51</ele>
        <time>2020-12-10T07:58:26.616Z</time>
      </trkpt>
      <trkpt lat="48.71403" lon="2.52651">
        <ele>51</ele>
        <time>2020-12-10T07:58:31.616Z</time>
      </trkpt>
      <trkpt lat="48.71403" lon="2.5266">
        <ele>54</ele>
        <time>2020-12-10T07:58:36.608Z</time>
      </trkpt>
      <trkpt lat="48.71403" lon="2.52667">
        <ele>54</ele>
        <time>2020-12-10T07:58:41.612Z</time>
      </trkpt>
      <trkpt lat="48.71404" lon="2.52675">
        <ele>54</ele>
        <time>2020-12-10T07:58:46.606Z</time>
      </trkpt>
      <trkpt lat="48.71407" lon="2.5269">
        <ele>54</ele>
        <time>2020-12-10T07:58:51.607Z</time>
      </trkpt>
      <trkpt lat="48.71412" lon="2.52699">
        <ele>54</ele>
        <time>2020-12-10T07:58:56.610Z</time>
      </trkpt>
      <trkpt lat="48.71411" lon="2.52708">
        <ele>54</ele>
        <time>2020-12-10T07:59:01.612Z</time>
      </trkpt>
      <trkpt lat="48.71405" lon="2.52711">
        <ele>54</ele>
        <time>2020-12-10T07:59:06.613Z</time>
      </trkpt>
      <trkpt lat="48.71402" lon="2.52717">
        <ele>55</ele>
        <time>2020-12-10T07:59:11.605Z</time>
      </trkpt>
      <trkpt lat="48.71398" lon="2.52719">
        <ele>55</ele>
        <time>2020-12-10T07:59:16.619Z</time>
      </trkpt>
      <trkpt lat="48.71394" lon="2.5272">
        <ele>55</ele>
        <time>2020-12-10T07:59:21.599Z</time>
      </trkpt>
      <trkpt lat="48.71392" lon="2.52726">
        <ele>55</ele>
        <time>2020-12-10T07:59:26.611Z</time>
      </trkpt>
      <trkpt lat="48.7139" lon="2.52732">
        <ele>55</ele>
        <time>2020-12-10T07:59:31.604Z</time>
      </trkpt>
      <trkpt lat="48.71388" lon="2.5274">
        <ele>55</ele>
        <time>2020-12-10T07:59:36.613Z</time>
      </trkpt>
      <trkpt lat="48.71386" lon="2.52747">
        <ele>55</ele>
        <time>2020-12-10T07:59:41.615Z</time>
      </trkpt>
      <trkpt lat="48.71385" lon="2.52755">
        <ele>55</ele>
        <time>2020-12-10T07:59:46.618Z</time>
      </trkpt>
      <trkpt lat="48.71386" lon="2.52765">
        <ele>55</ele>
        <time>2020-12-10T07:59:51.609Z</time>
      </trkpt>
      <trkpt lat="48.71386" lon="2.52778">
        <ele>55</ele>
        <time>2020-12-10T07:59:56.599Z</time>
      </trkpt>
      <trkpt lat="48.71384" lon="2.52789">
        <ele>55</ele>
        <time>2020-12-10T08:00:01.600Z</time>
      </trkpt>
      <trkpt lat="48.71383" lon="2.52799">
        <ele>54</ele>
        <time>2020-12-10T08:00:06.598Z</time>
      </trkpt>
      <trkpt lat="48.71385" lon="2.52811">
        <ele>54</ele>
        <time>2020-12-10T08:00:11.610Z</time>
      </trkpt>
      <trkpt lat="48.71388" lon="2.52823">
        <ele>52</ele>
        <time>2020-12-10T08:00:16.594Z</time>
      </trkpt>
      <trkpt lat="48.71393" lon="2.52828">
        <ele>52</ele>
        <time>2020-12-10T08:00:21.606Z</time>
      </trkpt>
      <trkpt lat="48.71398" lon="2.52843">
        <ele>52</ele>
        <time>2020-12-10T08:00:26.598Z</time>
      </trkpt>
      <trkpt lat="48.714" lon="2.52852">
        <ele>52</ele>
        <time>2020-12-10T08:00:31.607Z</time>
      </trkpt>
      <trkpt lat="48.71404" lon="2.52859">
        <ele>52</ele>
        <time>2020-12-10T08:00:36.614Z</time>
      </trkpt>
      <trkpt lat="48.71408" lon="2.52867">
        <ele>52</ele>
        <time>2020-12-10T08:00:41.609Z</time>
      </trkpt>
      <trkpt lat="48.71412" lon="2.52879">
        <ele>53</ele>
        <time>2020-12-10T08:00:46.610Z</time>
      </trkpt>
      <trkpt lat="48.71418" lon="2.52888">
        <ele>53</ele>
        <time>2020-12-10T08:00:51.612Z</time>
      </trkpt>
      <trkpt lat="48.71423" lon="2.52895">
        <ele>53</ele>
        <time>2020-12-10T08:00:56.602Z</time>
      </trkpt>
      <trkpt lat="48.71424" lon="2.52904">
        <ele>53</ele>
        <time>2020-12-10T08:01:01.608Z</time>
      </trkpt>
      <trkpt lat="48.71427" lon="2.52918">
        <ele>53</ele>
        <time>2020-12-10T08:01:06.614Z</time>
      </trkpt>
      <trkpt lat="48.71432" lon="2.52931">
        <ele>53</ele>
        <time>2020-12-10T08:01:11.611Z</time>
      </trkpt>
      <trkpt lat="48.71435" lon="2.52936">
        <ele>53</ele>
        <time>2020-12-10T08:01:16.611Z</time>
      </trkpt>
      <trkpt lat="48.71437" lon="2.52949">
        <ele>53</ele>
        <time>2020-12-10T08:01:21.611Z</time>
      </trkpt>
      <trkpt lat="48.71439" lon="2.52961">
        <ele>53</ele>
        <time>2020-12-10T08:01:26.609Z</time>
      </trkpt>
      <trkpt lat="48.7144" lon="2.52969">
        <ele>53</ele>
        <time>2020-12-10T08:01:31.624Z</time>
      </trkpt>
      <trkpt lat="48.71443" lon="2.52977">
        <ele>53</ele>
        <time>2020-12-10T08:01:36.614Z</time>
      </trkpt>
      <trkpt lat="48.71448" lon="2.52987">
        <ele>54</ele>
        <time>2020-12-10T08:01:41.607Z</time>
      </trkpt>
      <trkpt lat="48.71453" lon="2.52996">
        <ele>54</ele>
        <time>2020-12-10T08:01:46.609Z</time>
      </trkpt>
      <trkpt lat="48.71458" lon="2.53009">
        <ele>54</ele>
        <time>2020-12-10T08:01:51.607Z</time>
      </trkpt>
      <trkpt lat="48.7146" lon="2.53017">
        <ele>54</ele>
        <time>2020-12-10T08:01:56.608Z</time>
      </trkpt>
      <trkpt lat="48.71461" lon="2.53022">
        <ele>54</ele>
        <time>2020-12-10T08:02:01.608Z</time>
      </trkpt>
      <trkpt lat="48.71463" lon="2.53028">
        <ele>54</ele>
        <time>2020-12-10T08:02:06.610Z</time>
      </trkpt>
      <trkpt lat="48.71464" lon="2.53034">
        <ele>54</ele>
        <time>2020-12-10T08:02:11.607Z</time>
      </trkpt>
      <trkpt lat="48.71468" lon="2.53044">
        <ele>54</ele>
        <time>2020-12-10T08:02:16.602Z</time>
      </trkpt>
      <trkpt lat="48.71469" lon="2.53049">
        <ele>54</ele>
        <time>2020-12-10T08:02:21.607Z</time>
      </trkpt>
      <trkpt lat="48.71472" lon="2.53053">
        <ele>54</ele>
        <time>2020-12-10T08:02:26.609Z</time>
      </trkpt>
      <trkpt lat="48.71476" lon="2.53059">
        <ele>54</ele>
        <time>2020-12-10T08:02:31.608Z</time>
      </trkpt>
      <trkpt lat="48.71478" lon="2.53068">
        <ele>54</ele>
        <time>2020-12-10T08:02:36.604Z</time>
      </trkpt>
      <trkpt lat="48.71479" lon="2.53072">
        <ele>53</ele>
        <time>2020-12-10T08:02:41.616Z</time>
      </trkpt>
      <trkpt lat="48.71482" lon="2.53073">
        <ele>53</ele>
        <time>2020-12-10T08:02:46.609Z</time>
      </trkpt>
      <trkpt lat="48.7148" lon="2.5308">
        <ele>53</ele>
        <time>2020-12-10T08:02:51.607Z</time>
      </trkpt>
      <trkpt lat="48.7148" lon="2.53087">
        <ele>53</ele>
        <time>2020-12-10T08:02:56.600Z</time>
      </trkpt>
      <trkpt lat="48.71482" lon="2.53085">
        <ele>53</ele>
        <time>2020-12-10T08:03:01.619Z</time>
      </trkpt>
      <trkpt lat="48.71484" lon="2.53079">
        <ele>53</ele>
        <time>2020-12-10T08:03:06.602Z</time>
      </trkpt>
      <trkpt lat="48.71486" lon="2.53078">
        <ele>53</ele>
        <time>2020-12-10T08:03:11.602Z</time>
      </trkpt>
      <trkpt lat="48.7149" lon="2.53074">
        <ele>54</ele>
        <time>2020-12-10T08:03:18.606Z</time>
      </trkpt>
      <trkpt lat="48.71492" lon="2.5308">
        <ele>54</ele>
        <time>2020-12-10T08:05:57.610Z</time>
      </trkpt>
      <trkpt lat="48.71495" lon="2.53082">
        <ele>54</ele>
        <time>2020-12-10T08:06:02.603Z</time>
      </trkpt>
      <trkpt lat="48.71498" lon="2.53083">
        <ele>54</ele>
        <time>2020-12-10T08:06:07.621Z</time>
      </trkpt>
      <trkpt lat="48.71502" lon="2.53086">
        <ele>54</ele>
        <time>2020-12-10T08:06:12.608Z</time>
      </trkpt>
      <trkpt lat="48.71505" lon="2.53095">
        <ele>54</ele>
        <time>2020-12-10T08:06:17.616Z</time>
      </trkpt>
      <trkpt lat="48.71505" lon="2.53097">
        <ele>54</ele>
        <time>2020-12-10T08:06:22.609Z</time>
      </trkpt>
      <trkpt lat="48.71507" lon="2.53096">
        <ele>54</ele>
        <time>2020-12-10T08:06:27.617Z</time>
      </trkpt>
      <trkpt lat="48.71515" lon="2.53107">
        <ele>54</ele>
        <time>2020-12-10T08:06:32.619Z</time>
      </trkpt>
      <trkpt lat="48.7152" lon="2.53113">
        <ele>54</ele>
        <time>2020-12-10T08:06:37.620Z</time>
      </trkpt>
      <trkpt lat="48.71522" lon="2.53114">
        <ele>54</ele>
        <time>2020-12-10T08:06:42.619Z</time>
      </trkpt>
      <trkpt lat="48.71526" lon="2.53121">
        <ele>54</ele>
        <time>2020-12-10T08:06:47.612Z</time>
      </trkpt>
      <trkpt lat="48.71527" lon="2.53122">
        <ele>54</ele>
        <time>2020-12-10T08:06:52.609Z</time>
      </trkpt>
      <trkpt lat="48.71528" lon="2.53124">
        <ele>54</ele>
        <time>2020-12-10T08:06:56.610Z</time>
      </trkpt>
      <trkpt lat="48.71526" lon="2.5314">
        <ele>56</ele>
        <time>2020-12-10T08:07:01.615Z</time>
      </trkpt>
      <trkpt lat="48.71526" lon="2.53144">
        <ele>56</ele>
        <time>2020-12-10T08:07:06.619Z</time>
      </trkpt>
      <trkpt lat="48.71528" lon="2.53149">
        <ele>56</ele>
        <time>2020-12-10T08:07:11.607Z</time>
      </trkpt>
      <trkpt lat="48.71528" lon="2.53151">
        <ele>56</ele>
        <time>2020-12-10T08:07:16.612Z</time>
      </trkpt>
      <trkpt lat="48.71526" lon="2.53154">
        <ele>57</ele>
        <time>2020-12-10T08:07:21.610Z</time>
      </trkpt>
      <trkpt lat="48.71532" lon="2.53169">
        <ele>57</ele>
        <time>2020-12-10T08:07:26.597Z</time>
      </trkpt>
      <trkpt lat="48.71532" lon="2.53166">
        <ele>57</ele>
        <time>2020-12-10T08:07:31.615Z</time>
      </trkpt>
      <trkpt lat="48.71537" lon="2.5318">
        <ele>57</ele>
        <time>2020-12-10T08:07:36.609Z</time>
      </trkpt>
      <trkpt lat="48.71536" lon="2.53181">
        <ele>58</ele>
        <time>2020-12-10T08:07:41.614Z</time>
      </trkpt>
      <trkpt lat="48.71537" lon="2.53192">
        <ele>58</ele>
        <time>2020-12-10T08:07:46.601Z</time>
      </trkpt>
      <trkpt lat="48.71539" lon="2.53202">
        <ele>58</ele>
        <time>2020-12-10T08:07:51.606Z</time>
      </trkpt>
      <trkpt lat="48.71546" lon="2.53218">
        <ele>57</ele>
        <time>2020-12-10T08:07:56.608Z</time>
      </trkpt>
      <trkpt lat="48.71545" lon="2.53227">
        <ele>57</ele>
        <time>2020-12-10T08:08:01.615Z</time>
      </trkpt>
      <trkpt lat="48.71546" lon="2.53227">
        <ele>57</ele>
        <time>2020-12-10T08:08:06.618Z</time>
      </trkpt>
      <trkpt lat="48.71545" lon="2.53237">
        <ele>58</ele>
        <time>2020-12-10T08:08:11.614Z</time>
      </trkpt>
      <trkpt lat="48.71557" lon="2.53244">
        <ele>58</ele>
        <time>2020-12-10T08:08:16.607Z</time>
      </trkpt>
      <trkpt lat="48.71559" lon="2.53245">
        <ele>58</ele>
        <time>2020-12-10T08:08:21.600Z</time>
      </trkpt>
      <trkpt lat="48.71566" lon="2.53261">
        <ele>58</ele>
        <time>2020-12-10T08:08:26.614Z</time>
      </trkpt>
      <trkpt lat="48.71571" lon="2.53276">
        <ele>56</ele>
        <time>2020-12-10T08:08:31.606Z</time>
      </trkpt>
      <trkpt lat="48.71576" lon="2.53275">
        <ele>56</ele>
        <time>2020-12-10T08:08:36.633Z</time>
      </trkpt>
      <trkpt lat="48.71576" lon="2.5328">
        <ele>56</ele>
        <time>2020-12-10T08:08:41.613Z</time>
      </trkpt>
      <trkpt lat="48.71577" lon="2.53284">
        <ele>56</ele>
        <time>2020-12-10T08:08:46.596Z</time>
      </trkpt>
      <trkpt lat="48.71577" lon="2.53299">
        <ele>57</ele>
        <time>2020-12-10T08:08:51.610Z</time>
      </trkpt>
      <trkpt lat="48.71583" lon="2.53312">
        <ele>57</ele>
        <time>2020-12-10T08:08:56.605Z</time>
      </trkpt>
      <trkpt lat="48.71587" lon="2.53322">
        <ele>56</ele>
        <time>2020-12-10T08:09:01.597Z</time>
      </trkpt>
      <trkpt lat="48.71597" lon="2.5333">
        <ele>57</ele>
        <time>2020-12-10T08:09:06.591Z</time>
      </trkpt>
      <trkpt lat="48.71604" lon="2.53343">
        <ele>57</ele>
        <time>2020-12-10T08:09:10.595Z</time>
      </trkpt>
      <trkpt lat="48.71611" lon="2.53357">
        <ele>57</ele>
        <time>2020-12-10T08:09:15.608Z</time>
      </trkpt>
      <trkpt lat="48.71615" lon="2.53367">
        <ele>57</ele>
        <time>2020-12-10T08:09:20.611Z</time>
      </trkpt>
      <trkpt lat="48.71616" lon="2.53372">
        <ele>57</ele>
        <time>2020-12-10T08:09:25.605Z</time>
      </trkpt>
      <trkpt lat="48.71616" lon="2.53378">
        <ele>56</ele>
        <time>2020-12-10T08:09:29.627Z</time>
      </trkpt>
      <trkpt lat="48.71621" lon="2.53379">
        <ele>56</ele>
        <time>2020-12-10T08:09:34.621Z</time>
      </trkpt>
      <trkpt lat="48.71627" lon="2.53385">
        <ele>57</ele>
        <time>2020-12-10T08:09:39.618Z</time>
      </trkpt>
      <trkpt lat="48.71622" lon="2.534">
        <ele>56</ele>
        <time>2020-12-10T08:09:44.622Z</time>
      </trkpt>
      <trkpt lat="48.7162" lon="2.53405">
        <ele>56</ele>
        <time>2020-12-10T08:09:49.594Z</time>
      </trkpt>
      <trkpt lat="48.71619" lon="2.53422">
        <ele>56</ele>
        <time>2020-12-10T08:09:54.624Z</time>
      </trkpt>
      <trkpt lat="48.71627" lon="2.53437">
        <ele>56</ele>
        <time>2020-12-10T08:09:59.607Z</time>
      </trkpt>
      <trkpt lat="48.71629" lon="2.53444">
        <ele>56</ele>
        <time>2020-12-10T08:10:03.628Z</time>
      </trkpt>
      <trkpt lat="48.71629" lon="2.53451">
        <ele>56</ele>
        <time>2020-12-10T08:10:08.610Z</time>
      </trkpt>
      <trkpt lat="48.71631" lon="2.53454">
        <ele>56</ele>
        <time>2020-12-10T08:10:13.594Z</time>
      </trkpt>
      <trkpt lat="48.71637" lon="2.53461">
        <ele>55</ele>
        <time>2020-12-10T08:10:18.600Z</time>
      </trkpt>
      <trkpt lat="48.71644" lon="2.53469">
        <ele>55</ele>
        <time>2020-12-10T08:10:23.594Z</time>
      </trkpt>
      <trkpt lat="48.71648" lon="2.53482">
        <ele>55</ele>
        <time>2020-12-10T08:10:28.612Z</time>
      </trkpt>
      <trkpt lat="48.71652" lon="2.5348">
        <ele>55</ele>
        <time>2020-12-10T08:10:33.592Z</time>
      </trkpt>
      <trkpt lat="48.71653" lon="2.53486">
        <ele>57</ele>
        <time>2020-12-10T08:10:38.607Z</time>
      </trkpt>
      <trkpt lat="48.71658" lon="2.53498">
        <ele>56</ele>
        <time>2020-12-10T08:10:43.592Z</time>
      </trkpt>
      <trkpt lat="48.71659" lon="2.53506">
        <ele>56</ele>
        <time>2020-12-10T08:10:47.605Z</time>
      </trkpt>
      <trkpt lat="48.7166" lon="2.53516">
        <ele>56</ele>
        <time>2020-12-10T08:10:52.603Z</time>
      </trkpt>
      <trkpt lat="48.7166" lon="2.53524">
        <ele>56</ele>
        <time>2020-12-10T08:10:56.624Z</time>
      </trkpt>
      <trkpt lat="48.7166" lon="2.53535">
        <ele>56</ele>
        <time>2020-12-10T08:11:01.610Z</time>
      </trkpt>
      <trkpt lat="48.7166" lon="2.53541">
        <ele>56</ele>
        <time>2020-12-10T08:11:06.607Z</time>
      </trkpt>
      <trkpt lat="48.71661" lon="2.53554">
        <ele>56</ele>
        <time>2020-12-10T08:11:11.605Z</time>
      </trkpt>
      <trkpt lat="48.71659" lon="2.53566">
        <ele>56</ele>
        <time>2020-12-10T08:11:16.595Z</time>
      </trkpt>
      <trkpt lat="48.7166" lon="2.53575">
        <ele>56</ele>
        <time>2020-12-10T08:11:21.608Z</time>
      </trkpt>
      <trkpt lat="48.7166" lon="2.53589">
        <ele>56</ele>
        <time>2020-12-10T08:11:26.617Z</time>
      </trkpt>
      <trkpt lat="48.71659" lon="2.53599">
        <ele>56</ele>
        <time>2020-12-10T08:11:31.616Z</time>
      </trkpt>
      <trkpt lat="48.71658" lon="2.53607">
        <ele>56</ele>
        <time>2020-12-10T08:11:36.610Z</time>
      </trkpt>
      <trkpt lat="48.71657" lon="2.53613">
        <ele>56</ele>
        <time>2020-12-10T08:11:41.609Z</time>
      </trkpt>
      <trkpt lat="48.71656" lon="2.53625">
        <ele>56</ele>
        <time>2020-12-10T08:11:46.604Z</time>
      </trkpt>
      <trkpt lat="48.71656" lon="2.53634">
        <ele>56</ele>
        <time>2020-12-10T08:11:51.610Z</time>
      </trkpt>
      <trkpt lat="48.71656" lon="2.53641">
        <ele>56</ele>
        <time>2020-12-10T08:11:56.612Z</time>
      </trkpt>
      <trkpt lat="48.71661" lon="2.53652">
        <ele>56</ele>
        <time>2020-12-10T08:12:01.613Z</time>
      </trkpt>
      <trkpt lat="48.71663" lon="2.53658">
        <ele>57</ele>
        <time>2020-12-10T08:12:06.644Z</time>
      </trkpt>
      <trkpt lat="48.71667" lon="2.53679">
        <ele>57</ele>
        <time>2020-12-10T08:12:51.626Z</time>
      </trkpt>
      <trkpt lat="48.71667" lon="2.53679">
        <ele>57</ele>
        <time>2020-12-10T08:12:56.609Z</time>
      </trkpt>
      <trkpt lat="48.71669" lon="2.53681">
        <ele>57</ele>
        <time>2020-12-10T08:13:01.613Z</time>
      </trkpt>
      <trkpt lat="48.71669" lon="2.53681">
        <ele>58</ele>
        <time>2020-12-10T08:13:06.612Z</time>
      </trkpt>
      <trkpt lat="48.71669" lon="2.53681">
        <ele>58</ele>
        <time>2020-12-10T08:13:11.610Z</time>
      </trkpt>
      <trkpt lat="48.71671" lon="2.53677">
        <ele>57</ele>
        <time>2020-12-10T08:13:45.616Z</time>
      </trkpt>
      <trkpt lat="48.71674" lon="2.53683">
        <ele>58</ele>
        <time>2020-12-10T08:13:50.599Z</time>
      </trkpt>
      <trkpt lat="48.71676" lon="2.53691">
        <ele>58</ele>
        <time>2020-12-10T08:13:55.599Z</time>
      </trkpt>
      <trkpt lat="48.71677" lon="2.53701">
        <ele>58</ele>
        <time>2020-12-10T08:13:59.615Z</time>
      </trkpt>
      <trkpt lat="48.71678" lon="2.53712">
        <ele>58</ele>
        <time>2020-12-10T08:14:04.614Z</time>
      </trkpt>
      <trkpt lat="48.7168" lon="2.53727">
        <ele>58</ele>
        <time>2020-12-10T08:14:09.606Z</time>
      </trkpt>
      <trkpt lat="48.71683" lon="2.53735">
        <ele>56</ele>
        <time>2020-12-10T08:14:14.618Z</time>
      </trkpt>
      <trkpt lat="48.71685" lon="2.53746">
        <ele>56</ele>
        <time>2020-12-10T08:14:19.606Z</time>
      </trkpt>
      <trkpt lat="48.71693" lon="2.5376">
        <ele>56</ele>
        <time>2020-12-10T08:14:24.608Z</time>
      </trkpt>
      <trkpt lat="48.71698" lon="2.53766">
        <ele>56</ele>
        <time>2020-12-10T08:14:29.609Z</time>
      </trkpt>
      <trkpt lat="48.71704" lon="2.53777">
        <ele>56</ele>
        <time>2020-12-10T08:14:34.611Z</time>
      </trkpt>
      <trkpt lat="48.71709" lon="2.53788">
        <ele>55</ele>
        <time>2020-12-10T08:14:39.609Z</time>
      </trkpt>
      <trkpt lat="48.71713" lon="2.53794">
        <ele>55</ele>
        <time>2020-12-10T08:14:44.612Z</time>
      </trkpt>
      <trkpt lat="48.71718" lon="2.53803">
        <ele>55</ele>
        <time>2020-12-10T08:14:49.606Z</time>
      </trkpt>
      <trkpt lat="48.71719" lon="2.53806">
        <ele>55</ele>
        <time>2020-12-10T08:14:54.614Z</time>
      </trkpt>
      <trkpt lat="48.7172" lon="2.53814">
        <ele>55</ele>
        <time>2020-12-10T08:14:59.605Z</time>
      </trkpt>
      <trkpt lat="48.7172" lon="2.53819">
        <ele>55</ele>
        <time>2020-12-10T08:15:04.613Z</time>
      </trkpt>
      <trkpt lat="48.71721" lon="2.53826">
        <ele>55</ele>
        <time>2020-12-10T08:15:09.605Z</time>
      </trkpt>
      <trkpt lat="48.71726" lon="2.53836">
        <ele>55</ele>
        <time>2020-12-10T08:15:14.621Z</time>
      </trkpt>
      <trkpt lat="48.71732" lon="2.53849">
        <ele>56</ele>
        <time>2020-12-10T08:15:19.609Z</time>
      </trkpt>
      <trkpt lat="48.71739" lon="2.53858">
        <ele>55</ele>
        <time>2020-12-10T08:15:24.620Z</time>
      </trkpt>
      <trkpt lat="48.71741" lon="2.53861">
        <ele>55</ele>
        <time>2020-12-10T08:15:29.605Z</time>
      </trkpt>
      <trkpt lat="48.71742" lon="2.53866">
        <ele>55</ele>
        <time>2020-12-10T08:15:34.614Z</time>
      </trkpt>
      <trkpt lat="48.71745" lon="2.53873">
        <ele>55</ele>
        <time>2020-12-10T08:15:39.612Z</time>
      </trkpt>
      <trkpt lat="48.71749" lon="2.53881">
        <ele>55</ele>
        <time>2020-12-10T08:15:44.609Z</time>
      </trkpt>
      <trkpt lat="48.71752" lon="2.53889">
        <ele>55</ele>
        <time>2020-12-10T08:15:49.609Z</time>
      </trkpt>
      <trkpt lat="48.71753" lon="2.53896">
        <ele>55</ele>
        <time>2020-12-10T08:15:54.597Z</time>
      </trkpt>
      <trkpt lat="48.71756" lon="2.53905">
        <ele>55</ele>
        <time>2020-12-10T08:15:59.615Z</time>
      </trkpt>
      <trkpt lat="48.71758" lon="2.53906">
        <ele>55</ele>
        <time>2020-12-10T08:16:04.613Z</time>
      </trkpt>
      <trkpt lat="48.71764" lon="2.53918">
        <ele>55</ele>
        <time>2020-12-10T08:16:09.613Z</time>
      </trkpt>
      <trkpt lat="48.71768" lon="2.53925">
        <ele>53</ele>
        <time>2020-12-10T08:16:14.607Z</time>
      </trkpt>
      <trkpt lat="48.71772" lon="2.5393">
        <ele>53</ele>
        <time>2020-12-10T08:16:19.608Z</time>
      </trkpt>
      <trkpt lat="48.7178" lon="2.53946">
        <ele>54</ele>
        <time>2020-12-10T08:16:24.596Z</time>
      </trkpt>
      <trkpt lat="48.71784" lon="2.53955">
        <ele>54</ele>
        <time>2020-12-10T08:16:29.602Z</time>
      </trkpt>
      <trkpt lat="48.7179" lon="2.53961">
        <ele>55</ele>
        <time>2020-12-10T08:16:34.609Z</time>
      </trkpt>
      <trkpt lat="48.71796" lon="2.53966">
        <ele>55</ele>
        <time>2020-12-10T08:16:39.611Z</time>
      </trkpt>
      <trkpt lat="48.71802" lon="2.53972">
        <ele>55</ele>
        <time>2020-12-10T08:16:44.607Z</time>
      </trkpt>
      <trkpt lat="48.71808" lon="2.53978">
        <ele>55</ele>
        <time>2020-12-10T08:16:49.600Z</time>
      </trkpt>
      <trkpt lat="48.71813" lon="2.53984">
        <ele>55</ele>
        <time>2020-12-10T08:16:54.604Z</time>
      </trkpt>
      <trkpt lat="48.71819" lon="2.53992">
        <ele>55</ele>
        <time>2020-12-10T08:16:59.584Z</time>
      </trkpt>
      <trkpt lat="48.71822" lon="2.53997">
        <ele>55</ele>
        <time>2020-12-10T08:17:04.607Z</time>
      </trkpt>
      <trkpt lat="48.71827" lon="2.54002">
        <ele>55</ele>
        <time>2020-12-10T08:17:09.602Z</time>
      </trkpt>
      <trkpt lat="48.71829" lon="2.54008">
        <ele>55</ele>
        <time>2020-12-10T08:17:14.607Z</time>
      </trkpt>
      <trkpt lat="48.71833" lon="2.54015">
        <ele>55</ele>
        <time>2020-12-10T08:17:19.586Z</time>
      </trkpt>
      <trkpt lat="48.71836" lon="2.54022">
        <ele>55</ele>
        <time>2020-12-10T08:17:24.603Z</time>
      </trkpt>
      <trkpt lat="48.71842" lon="2.54026">
        <ele>55</ele>
        <time>2020-12-10T08:17:29.610Z</time>
      </trkpt>
      <trkpt lat="48.71847" lon="2.54031">
        <ele>55</ele>
        <time>2020-12-10T08:17:34.600Z</time>
      </trkpt>
      <trkpt lat="48.71853" lon="2.54044">
        <ele>55</ele>
        <time>2020-12-10T08:17:39.601Z</time>
      </trkpt>
      <trkpt lat="48.71859" lon="2.54049">
        <ele>55</ele>
        <time>2020-12-10T08:17:44.597Z</time>
      </trkpt>
      <trkpt lat="48.71866" lon="2.54055">
        <ele>55</ele>
        <time>2020-12-10T08:17:49.600Z</time>
      </trkpt>
      <trkpt lat="48.71875" lon="2.54061">
        <ele>55</ele>
        <time>2020-12-10T08:17:54.608Z</time>
      </trkpt>
      <trkpt lat="48.71877" lon="2.54066">
        <ele>55</ele>
        <time>2020-12-10T08:17:59.613Z</time>
      </trkpt>
      <trkpt lat="48.7188" lon="2.5407">
        <ele>56</ele>
        <time>2020-12-10T08:18:04.607Z</time>
      </trkpt>
      <trkpt lat="48.71883" lon="2.54076">
        <ele>56</ele>
        <time>2020-12-10T08:18:09.609Z</time>
      </trkpt>
      <trkpt lat="48.71887" lon="2.54085">
        <ele>56</ele>
        <time>2020-12-10T08:18:14.603Z</time>
      </trkpt>
      <trkpt lat="48.71895" lon="2.54098">
        <ele>57</ele>
        <time>2020-12-10T08:18:19.588Z</time>
      </trkpt>
      <trkpt lat="48.71899" lon="2.54109">
        <ele>57</ele>
        <time>2020-12-10T08:18:24.603Z</time>
      </trkpt>
      <trkpt lat="48.71902" lon="2.54119">
        <ele>57</ele>
        <time>2020-12-10T08:18:29.605Z</time>
      </trkpt>
      <trkpt lat="48.71902" lon="2.54121">
        <ele>57</ele>
        <time>2020-12-10T08:18:34.619Z</time>
      </trkpt>
      <trkpt lat="48.71902" lon="2.54123">
        <ele>57</ele>
        <time>2020-12-10T08:18:39.605Z</time>
      </trkpt>
      <trkpt lat="48.71906" lon="2.54126">
        <ele>57</ele>
        <time>2020-12-10T08:18:44.610Z</time>
      </trkpt>
      <trkpt lat="48.71909" lon="2.54132">
        <ele>57</ele>
        <time>2020-12-10T08:18:49.614Z</time>
      </trkpt>
      <trkpt lat="48.71913" lon="2.54143">
        <ele>57</ele>
        <time>2020-12-10T08:18:54.586Z</time>
      </trkpt>
      <trkpt lat="48.71916" lon="2.54149">
        <ele>57</ele>
        <time>2020-12-10T08:18:58.605Z</time>
      </trkpt>
      <trkpt lat="48.71919" lon="2.5416">
        <ele>57</ele>
        <time>2020-12-10T08:19:03.593Z</time>
      </trkpt>
      <trkpt lat="48.71925" lon="2.54171">
        <ele>57</ele>
        <time>2020-12-10T08:19:08.611Z</time>
      </trkpt>
      <trkpt lat="48.7193" lon="2.5418">
        <ele>57</ele>
        <time>2020-12-10T08:19:13.586Z</time>
      </trkpt>
      <trkpt lat="48.71929" lon="2.54183">
        <ele>57</ele>
        <time>2020-12-10T08:19:17.611Z</time>
      </trkpt>
      <trkpt lat="48.71929" lon="2.54185">
        <ele>57</ele>
        <time>2020-12-10T08:19:22.607Z</time>
      </trkpt>
      <trkpt lat="48.71934" lon="2.5419">
        <ele>55</ele>
        <time>2020-12-10T08:19:27.608Z</time>
      </trkpt>
      <trkpt lat="48.71936" lon="2.54194">
        <ele>55</ele>
        <time>2020-12-10T08:19:32.602Z</time>
      </trkpt>
      <trkpt lat="48.71937" lon="2.54206">
        <ele>55</ele>
        <time>2020-12-10T08:19:36.619Z</time>
      </trkpt>
      <trkpt lat="48.71942" lon="2.54229">
        <ele>55</ele>
        <time>2020-12-10T08:19:41.604Z</time>
      </trkpt>
      <trkpt lat="48.71945" lon="2.54235">
        <ele>55</ele>
        <time>2020-12-10T08:19:46.608Z</time>
      </trkpt>
      <trkpt lat="48.71952" lon="2.54241">
        <ele>56</ele>
        <time>2020-12-10T08:19:51.590Z</time>
      </trkpt>
      <trkpt lat="48.71957" lon="2.5425">
        <ele>56</ele>
        <time>2020-12-10T08:19:56.600Z</time>
      </trkpt>
      <trkpt lat="48.71963" lon="2.54258">
        <ele>55</ele>
        <time>2020-12-10T08:20:01.598Z</time>
      </trkpt>
      <trkpt lat="48.71968" lon="2.54266">
        <ele>57</ele>
        <time>2020-12-10T08:20:06.599Z</time>
      </trkpt>
      <trkpt lat="48.71972" lon="2.54271">
        <ele>57</ele>
        <time>2020-12-10T08:20:11.598Z</time>
      </trkpt>
      <trkpt lat="48.71978" lon="2.54278">
        <ele>57</ele>
        <time>2020-12-10T08:20:16.604Z</time>
      </trkpt>
      <trkpt lat="48.71985" lon="2.54286">
        <ele>57</ele>
        <time>2020-12-10T08:20:21.594Z</time>
      </trkpt>
      <trkpt lat="48.71995" lon="2.54292">
        <ele>59</ele>
        <time>2020-12-10T08:20:26.607Z</time>
      </trkpt>
      <trkpt lat="48.71999" lon="2.54294">
        <ele>59</ele>
        <time>2020-12-10T08:20:31.612Z</time>
      </trkpt>
      <trkpt lat="48.72005" lon="2.54298">
        <ele>59</ele>
        <time>2020-12-10T08:20:36.607Z</time>
      </trkpt>
      <trkpt lat="48.72011" lon="2.54306">
        <ele>59</ele>
        <time>2020-12-10T08:20:41.610Z</time>
      </trkpt>
      <trkpt lat="48.7202" lon="2.54311">
        <ele>58</ele>
        <time>2020-12-10T08:20:46.610Z</time>
      </trkpt>
      <trkpt lat="48.72026" lon="2.54318">
        <ele>58</ele>
        <time>2020-12-10T08:20:51.608Z</time>
      </trkpt>
      <trkpt lat="48.72034" lon="2.5433">
        <ele>58</ele>
        <time>2020-12-10T08:20:56.594Z</time>
      </trkpt>
      <trkpt lat="48.7204" lon="2.54335">
        <ele>58</ele>
        <time>2020-12-10T08:21:01.580Z</time>
      </trkpt>
      <trkpt lat="48.72042" lon="2.54333">
        <ele>57</ele>
        <time>2020-12-10T08:21:05.593Z</time>
      </trkpt>
      <trkpt lat="48.72045" lon="2.54326">
        <ele>57</ele>
        <time>2020-12-10T08:21:09.614Z</time>
      </trkpt>
      <trkpt lat="48.72047" lon="2.54324">
        <ele>57</ele>
        <time>2020-12-10T08:21:14.605Z</time>
      </trkpt>
      <trkpt lat="48.7205" lon="2.54314">
        <ele>57</ele>
        <time>2020-12-10T08:21:19.608Z</time>
      </trkpt>
      <trkpt lat="48.72053" lon="2.543">
        <ele>57</ele>
        <time>2020-12-10T08:21:24.605Z</time>
      </trkpt>
      <trkpt lat="48.72058" lon="2.54288">
        <ele>57</ele>
        <time>2020-12-10T08:21:29.600Z</time>
      </trkpt>
      <trkpt lat="48.72062" lon="2.54283">
        <ele>57</ele>
        <time>2020-12-10T08:21:34.608Z</time>
      </trkpt>
      <trkpt lat="48.72064" lon="2.54281">
        <ele>57</ele>
        <time>2020-12-10T08:21:39.601Z</time>
      </trkpt>
      <trkpt lat="48.7207" lon="2.54275">
        <ele>57</ele>
        <time>2020-12-10T08:21:44.592Z</time>
      </trkpt>
      <trkpt lat="48.72076" lon="2.54275">
        <ele>57</ele>
        <time>2020-12-10T08:21:48.612Z</time>
      </trkpt>
      <trkpt lat="48.72081" lon="2.54285">
        <ele>57</ele>
        <time>2020-12-10T08:21:53.590Z</time>
      </trkpt>
      <trkpt lat="48.72092" lon="2.5429">
        <ele>57</ele>
        <time>2020-12-10T08:21:58.605Z</time>
      </trkpt>
      <trkpt lat="48.72102" lon="2.54297">
        <ele>57</ele>
        <time>2020-12-10T08:22:03.592Z</time>
      </trkpt>
      <trkpt lat="48.72111" lon="2.54303">
        <ele>57</ele>
        <time>2020-12-10T08:22:08.609Z</time>
      </trkpt>
      <trkpt lat="48.7212" lon="2.54308">
        <ele>57</ele>
        <time>2020-12-10T08:22:13.588Z</time>
      </trkpt>
      <trkpt lat="48.7213" lon="2.54311">
        <ele>57</ele>
        <time>2020-12-10T08:22:18.610Z</time>
      </trkpt>
      <trkpt lat="48.72135" lon="2.54314">
        <ele>57</ele>
        <time>2020-12-10T08:22:23.599Z</time>
      </trkpt>
      <trkpt lat="48.72139" lon="2.54314">
        <ele>57</ele>
        <time>2020-12-10T08:22:28.600Z</time>
      </trkpt>
      <trkpt lat="48.72143" lon="2.54313">
        <ele>57</ele>
        <time>2020-12-10T08:22:33.592Z</time>
      </trkpt>
      <trkpt lat="48.72149" lon="2.54311">
        <ele>57</ele>
        <time>2020-12-10T08:22:38.610Z</time>
      </trkpt>
      <trkpt lat="48.72157" lon="2.54317">
        <ele>59</ele>
        <time>2020-12-10T08:22:43.597Z</time>
      </trkpt>
      <trkpt lat="48.72161" lon="2.54318">
        <ele>59</ele>
        <time>2020-12-10T08:22:48.601Z</time>
      </trkpt>
      <trkpt lat="48.72169" lon="2.54322">
        <ele>58</ele>
        <time>2020-12-10T08:22:53.595Z</time>
      </trkpt>
      <trkpt lat="48.72175" lon="2.54325">
        <ele>58</ele>
        <time>2020-12-10T08:22:57.615Z</time>
      </trkpt>
      <trkpt lat="48.72181" lon="2.54325">
        <ele>60</ele>
        <time>2020-12-10T08:23:02.615Z</time>
      </trkpt>
      <trkpt lat="48.72186" lon="2.54329">
        <ele>60</ele>
        <time>2020-12-10T08:23:07.611Z</time>
      </trkpt>
      <trkpt lat="48.7219" lon="2.54338">
        <ele>60</ele>
        <time>2020-12-10T08:23:12.598Z</time>
      </trkpt>
      <trkpt lat="48.72193" lon="2.54342">
        <ele>60</ele>
        <time>2020-12-10T08:23:17.599Z</time>
      </trkpt>
      <trkpt lat="48.72199" lon="2.5434">
        <ele>60</ele>
        <time>2020-12-10T08:23:22.624Z</time>
      </trkpt>
      <trkpt lat="48.72204" lon="2.54342">
        <ele>60</ele>
        <time>2020-12-10T08:23:27.610Z</time>
      </trkpt>
      <trkpt lat="48.72211" lon="2.54341">
        <ele>61</ele>
        <time>2020-12-10T08:23:32.616Z</time>
      </trkpt>
      <trkpt lat="48.72219" lon="2.54339">
        <ele>61</ele>
        <time>2020-12-10T08:23:37.611Z</time>
      </trkpt>
      <trkpt lat="48.72224" lon="2.54339">
        <ele>61</ele>
        <time>2020-12-10T08:23:42.616Z</time>
      </trkpt>
      <trkpt lat="48.72227" lon="2.54345">
        <ele>61</ele>
        <time>2020-12-10T08:23:47.609Z</time>
      </trkpt>
      <trkpt lat="48.72227" lon="2.54361">
        <ele>60</ele>
        <time>2020-12-10T08:23:52.604Z</time>
      </trkpt>
      <trkpt lat="48.72221" lon="2.5437">
        <ele>60</ele>
        <time>2020-12-10T08:23:57.609Z</time>
      </trkpt>
      <trkpt lat="48.7222" lon="2.54374">
        <ele>60</ele>
        <time>2020-12-10T08:24:02.613Z</time>
      </trkpt>
      <trkpt lat="48.72218" lon="2.54378">
        <ele>59</ele>
        <time>2020-12-10T08:24:07.609Z</time>
      </trkpt>
      <trkpt lat="48.72218" lon="2.54378">
        <ele>59</ele>
        <time>2020-12-10T08:24:11.605Z</time>
      </trkpt>
      <trkpt lat="48.72216" lon="2.54382">
        <ele>59</ele>
        <time>2020-12-10T08:24:16.613Z</time>
      </trkpt>
      <trkpt lat="48.72216" lon="2.54382">
        <ele>59</ele>
        <time>2020-12-10T08:24:21.594Z</time>
      </trkpt>
      <trkpt lat="48.72216" lon="2.54386">
        <ele>59</ele>
        <time>2020-12-10T08:24:26.605Z</time>
      </trkpt>
      <trkpt lat="48.72212" lon="2.54399">
        <ele>59</ele>
        <time>2020-12-10T08:24:31.610Z</time>
      </trkpt>
      <trkpt lat="48.72213" lon="2.54406">
        <ele>58</ele>
        <time>2020-12-10T08:24:36.615Z</time>
      </trkpt>
      <trkpt lat="48.72212" lon="2.5441">
        <ele>58</ele>
        <time>2020-12-10T08:24:41.621Z</time>
      </trkpt>
      <trkpt lat="48.72208" lon="2.54425">
        <ele>57</ele>
        <time>2020-12-10T08:24:46.616Z</time>
      </trkpt>
      <trkpt lat="48.72205" lon="2.5444">
        <ele>57</ele>
        <time>2020-12-10T08:24:51.611Z</time>
      </trkpt>
      <trkpt lat="48.72202" lon="2.54454">
        <ele>57</ele>
        <time>2020-12-10T08:24:56.608Z</time>
      </trkpt>
      <trkpt lat="48.72202" lon="2.54467">
        <ele>57</ele>
        <time>2020-12-10T08:25:01.624Z</time>
      </trkpt>
      <trkpt lat="48.72196" lon="2.54481">
        <ele>57</ele>
        <time>2020-12-10T08:25:06.622Z</time>
      </trkpt>
      <trkpt lat="48.72193" lon="2.54495">
        <ele>59</ele>
        <time>2020-12-10T08:25:11.609Z</time>
      </trkpt>
      <trkpt lat="48.72191" lon="2.54502">
        <ele>59</ele>
        <time>2020-12-10T08:25:16.605Z</time>
      </trkpt>
      <trkpt lat="48.7219" lon="2.54509">
        <ele>59</ele>
        <time>2020-12-10T08:25:21.605Z</time>
      </trkpt>
      <trkpt lat="48.72189" lon="2.54512">
        <ele>59</ele>
        <time>2020-12-10T08:25:26.606Z</time>
      </trkpt>
      <trkpt lat="48.72186" lon="2.54523">
        <ele>62</ele>
        <time>2020-12-10T08:25:31.609Z</time>
      </trkpt>
      <trkpt lat="48.72185" lon="2.54531">
        <ele>62</ele>
        <time>2020-12-10T08:25:36.582Z</time>
      </trkpt>
      <trkpt lat="48.72183" lon="2.5454">
        <ele>62</ele>
        <time>2020-12-10T08:25:40.589Z</time>
      </trkpt>
      <trkpt lat="48.72185" lon="2.54553">
        <ele>67</ele>
        <time>2020-12-10T08:25:45.602Z</time>
      </trkpt>
      <trkpt lat="48.72187" lon="2.54567">
        <ele>67</ele>
        <time>2020-12-10T08:25:50.599Z</time>
      </trkpt>
      <trkpt lat="48.72188" lon="2.54579">
        <ele>71</ele>
        <time>2020-12-10T08:25:54.612Z</time>
      </trkpt>
      <trkpt lat="48.72189" lon="2.54583">
        <ele>71</ele>
        <time>2020-12-10T08:25:59.617Z</time>
      </trkpt>
      <trkpt lat="48.72188" lon="2.54591">
        <ele>71</ele>
        <time>2020-12-10T08:26:03.633Z</time>
      </trkpt>
      <trkpt lat="48.72186" lon="2.54607">
        <ele>73</ele>
        <time>2020-12-10T08:26:08.608Z</time>
      </trkpt>
      <trkpt lat="48.72184" lon="2.54618">
        <ele>73</ele>
        <time>2020-12-10T08:26:13.614Z</time>
      </trkpt>
      <trkpt lat="48.72184" lon="2.54626">
        <ele>74</ele>
        <time>2020-12-10T08:26:18.610Z</time>
      </trkpt>
      <trkpt lat="48.72184" lon="2.54631">
        <ele>74</ele>
        <time>2020-12-10T08:26:23.603Z</time>
      </trkpt>
      <trkpt lat="48.72189" lon="2.54635">
        <ele>74</ele>
        <time>2020-12-10T08:26:28.596Z</time>
      </trkpt>
      <trkpt lat="48.72192" lon="2.54644">
        <ele>74</ele>
        <time>2020-12-10T08:26:33.610Z</time>
      </trkpt>
      <trkpt lat="48.72194" lon="2.54656">
        <ele>75</ele>
        <time>2020-12-10T08:26:38.600Z</time>
      </trkpt>
      <trkpt lat="48.72192" lon="2.54662">
        <ele>75</ele>
        <time>2020-12-10T08:26:43.596Z</time>
      </trkpt>
      <trkpt lat="48.7219" lon="2.54669">
        <ele>75</ele>
        <time>2020-12-10T08:26:48.606Z</time>
      </trkpt>
      <trkpt lat="48.72187" lon="2.54677">
        <ele>75</ele>
        <time>2020-12-10T08:26:53.601Z</time>
      </trkpt>
      <trkpt lat="48.72186" lon="2.54686">
        <ele>76</ele>
        <time>2020-12-10T08:26:58.611Z</time>
      </trkpt>
      <trkpt lat="48.72187" lon="2.5469">
        <ele>76</ele>
        <time>2020-12-10T08:27:03.600Z</time>
      </trkpt>
      <trkpt lat="48.72186" lon="2.54699">
        <ele>76</ele>
        <time>2020-12-10T08:27:08.617Z</time>
      </trkpt>
      <trkpt lat="48.72188" lon="2.54711">
        <ele>77</ele>
        <time>2020-12-10T08:27:13.600Z</time>
      </trkpt>
      <trkpt lat="48.72191" lon="2.54718">
        <ele>77</ele>
        <time>2020-12-10T08:27:18.604Z</time>
      </trkpt>
      <trkpt lat="48.72194" lon="2.54726">
        <ele>77</ele>
        <time>2020-12-10T08:27:23.586Z</time>
      </trkpt>
      <trkpt lat="48.72197" lon="2.54735">
        <ele>77</ele>
        <time>2020-12-10T08:27:27.604Z</time>
      </trkpt>
      <trkpt lat="48.72199" lon="2.54741">
        <ele>79</ele>
        <time>2020-12-10T08:27:32.612Z</time>
      </trkpt>
      <trkpt lat="48.72196" lon="2.54744">
        <ele>79</ele>
        <time>2020-12-10T08:27:37.604Z</time>
      </trkpt>
      <trkpt lat="48.72194" lon="2.54746">
        <ele>79</ele>
        <time>2020-12-10T08:27:42.607Z</time>
      </trkpt>
      <trkpt lat="48.72192" lon="2.54748">
        <ele>79</ele>
        <time>2020-12-10T08:27:47.606Z</time>
      </trkpt>
      <trkpt lat="48.72187" lon="2.5475">
        <ele>79</ele>
        <time>2020-12-10T08:27:52.598Z</time>
      </trkpt>
      <trkpt lat="48.72183" lon="2.54751">
        <ele>79</ele>
        <time>2020-12-10T08:27:56.615Z</time>
      </trkpt>
      <trkpt lat="48.72178" lon="2.54752">
        <ele>80</ele>
        <time>2020-12-10T08:28:01.610Z</time>
      </trkpt>
      <trkpt lat="48.72175" lon="2.54755">
        <ele>80</ele>
        <time>2020-12-10T08:28:06.610Z</time>
      </trkpt>
      <trkpt lat="48.72172" lon="2.54754">
        <ele>80</ele>
        <time>2020-12-10T08:28:11.606Z</time>
      </trkpt>
      <trkpt lat="48.72168" lon="2.54756">
        <ele>80</ele>
        <time>2020-12-10T08:28:16.607Z</time>
      </trkpt>
      <trkpt lat="48.72167" lon="2.54756">
        <ele>80</ele>
        <time>2020-12-10T08:28:21.610Z</time>
      </trkpt>
      <trkpt lat="48.72165" lon="2.54758">
        <ele>80</ele>
        <time>2020-12-10T08:28:26.606Z</time>
      </trkpt>
      <trkpt lat="48.72157" lon="2.54759">
        <ele>80</ele>
        <time>2020-12-10T08:28:31.607Z</time>
      </trkpt>
      <trkpt lat="48.72145" lon="2.54762">
        <ele>79</ele>
        <time>2020-12-10T08:28:36.606Z</time>
      </trkpt>
      <trkpt lat="48.72139" lon="2.54764">
        <ele>79</ele>
        <time>2020-12-10T08:28:41.621Z</time>
      </trkpt>
      <trkpt lat="48.72136" lon="2.54762">
        <ele>79</ele>
        <time>2020-12-10T08:28:46.606Z</time>
      </trkpt>
      <trkpt lat="48.72134" lon="2.54763">
        <ele>79</ele>
        <time>2020-12-10T08:28:51.601Z</time>
      </trkpt>
      <trkpt lat="48.72128" lon="2.54766">
        <ele>81</ele>
        <time>2020-12-10T08:28:56.606Z</time>
      </trkpt>
      <trkpt lat="48.72124" lon="2.54764">
        <ele>81</ele>
        <time>2020-12-10T08:29:01.597Z</time>
      </trkpt>
      <trkpt lat="48.72118" lon="2.54768">
        <ele>81</ele>
        <time>2020-12-10T08:29:05.633Z</time>
      </trkpt>
      <trkpt lat="48.7211" lon="2.54776">
        <ele>81</ele>
        <time>2020-12-10T08:29:10.603Z</time>
      </trkpt>
      <trkpt lat="48.72105" lon="2.54776">
        <ele>81</ele>
        <time>2020-12-10T08:29:15.600Z</time>
      </trkpt>
      <trkpt lat="48.72097" lon="2.5478">
        <ele>81</ele>
        <time>2020-12-10T08:29:20.601Z</time>
      </trkpt>
      <trkpt lat="48.7209" lon="2.54784">
        <ele>80</ele>
        <time>2020-12-10T08:29:25.602Z</time>
      </trkpt>
      <trkpt lat="48.72082" lon="2.54787">
        <ele>80</ele>
        <time>2020-12-10T08:29:30.601Z</time>
      </trkpt>
      <trkpt lat="48.7208" lon="2.54785">
        <ele>80</ele>
        <time>2020-12-10T08:29:44.600Z</time>
      </trkpt>
      <trkpt lat="48.72073" lon="2.54789">
        <ele>80</ele>
        <time>2020-12-10T08:29:48.616Z</time>
      </trkpt>
      <trkpt lat="48.72062" lon="2.5479">
        <ele>80</ele>
        <time>2020-12-10T08:29:53.602Z</time>
      </trkpt>
      <trkpt lat="48.72056" lon="2.5479">
        <ele>80</ele>
        <time>2020-12-10T08:29:58.614Z</time>
      </trkpt>
      <trkpt lat="48.72056" lon="2.54788">
        <ele>80</ele>
        <time>2020-12-10T08:30:03.594Z</time>
      </trkpt>
      <trkpt lat="48.72054" lon="2.54789">
        <ele>80</ele>
        <time>2020-12-10T08:30:08.610Z</time>
      </trkpt>
      <trkpt lat="48.72049" lon="2.54789">
        <ele>80</ele>
        <time>2020-12-10T08:30:13.592Z</time>
      </trkpt>
      <trkpt lat="48.72041" lon="2.54793">
        <ele>84</ele>
        <time>2020-12-10T08:30:17.613Z</time>
      </trkpt>
      <trkpt lat="48.72035" lon="2.54796">
        <ele>84</ele>
        <time>2020-12-10T08:30:22.606Z</time>
      </trkpt>
      <trkpt lat="48.72031" lon="2.548">
        <ele>84</ele>
        <time>2020-12-10T08:30:27.610Z</time>
      </trkpt>
      <trkpt lat="48.72023" lon="2.54798">
        <ele>84</ele>
        <time>2020-12-10T08:30:32.609Z</time>
      </trkpt>
      <trkpt lat="48.72013" lon="2.54794">
        <ele>87</ele>
        <time>2020-12-10T08:30:37.594Z</time>
      </trkpt>
      <trkpt lat="48.72005" lon="2.54786">
        <ele>83</ele>
        <time>2020-12-10T08:30:41.608Z</time>
      </trkpt>
      <trkpt lat="48.71995" lon="2.54775">
        <ele>83</ele>
        <time>2020-12-10T08:30:55.612Z</time>
      </trkpt>
      <trkpt lat="48.71991" lon="2.54773">
        <ele>83</ele>
        <time>2020-12-10T08:30:59.634Z</time>
      </trkpt>
      <trkpt lat="48.71986" lon="2.54772">
        <ele>84</ele>
        <time>2020-12-10T08:31:04.603Z</time>
      </trkpt>
      <trkpt lat="48.71974" lon="2.54775">
        <ele>84</ele>
        <time>2020-12-10T08:31:09.617Z</time>
      </trkpt>
      <trkpt lat="48.71963" lon="2.54782">
        <ele>84</ele>
        <time>2020-12-10T08:31:14.617Z</time>
      </trkpt>
      <trkpt lat="48.7195" lon="2.54785">
        <ele>83</ele>
        <time>2020-12-10T08:31:19.613Z</time>
      </trkpt>
      <trkpt lat="48.71936" lon="2.54786">
        <ele>83</ele>
        <time>2020-12-10T08:31:24.610Z</time>
      </trkpt>
      <trkpt lat="48.71933" lon="2.54787">
        <ele>83</ele>
        <time>2020-12-10T08:31:29.603Z</time>
      </trkpt>
      <trkpt lat="48.71932" lon="2.54786">
        <ele>83</ele>
        <time>2020-12-10T08:31:34.606Z</time>
      </trkpt>
      <trkpt lat="48.71929" lon="2.54784">
        <ele>81</ele>
        <time>2020-12-10T08:31:39.607Z</time>
      </trkpt>
      <trkpt lat="48.71927" lon="2.54784">
        <ele>81</ele>
        <time>2020-12-10T08:31:44.605Z</time>
      </trkpt>
      <trkpt lat="48.71926" lon="2.54782">
        <ele>81</ele>
        <time>2020-12-10T08:31:49.593Z</time>
      </trkpt>
      <trkpt lat="48.71919" lon="2.54779">
        <ele>81</ele>
        <time>2020-12-10T08:31:54.604Z</time>
      </trkpt>
      <trkpt lat="48.71915" lon="2.54775">
        <ele>81</ele>
        <time>2020-12-10T08:31:59.602Z</time>
      </trkpt>
      <trkpt lat="48.71911" lon="2.54773">
        <ele>81</ele>
        <time>2020-12-10T08:32:04.610Z</time>
      </trkpt>
      <trkpt lat="48.71907" lon="2.54766">
        <ele>81</ele>
        <time>2020-12-10T08:32:09.597Z</time>
      </trkpt>
      <trkpt lat="48.71905" lon="2.54767">
        <ele>81</ele>
        <time>2020-12-10T08:32:14.602Z</time>
      </trkpt>
      <trkpt lat="48.71897" lon="2.54766">
        <ele>78</ele>
        <time>2020-12-10T08:32:19.610Z</time>
      </trkpt>
      <trkpt lat="48.71894" lon="2.54771">
        <ele>78</ele>
        <time>2020-12-10T08:32:24.611Z</time>
      </trkpt>
      <trkpt lat="48.7189" lon="2.54772">
        <ele>78</ele>
        <time>2020-12-10T08:32:28.634Z</time>
      </trkpt>
      <trkpt lat="48.71882" lon="2.54775">
        <ele>78</ele>
        <time>2020-12-10T08:32:33.603Z</time>
      </trkpt>
      <trkpt lat="48.71872" lon="2.54777">
        <ele>77</ele>
        <time>2020-12-10T08:32:38.599Z</time>
      </trkpt>
      <trkpt lat="48.71862" lon="2.54776">
        <ele>77</ele>
        <time>2020-12-10T08:32:43.602Z</time>
      </trkpt>
      <trkpt lat="48.7185" lon="2.54778">
        <ele>77</ele>
        <time>2020-12-10T08:32:48.605Z</time>
      </trkpt>
      <trkpt lat="48.71845" lon="2.54777">
        <ele>77</ele>
        <time>2020-12-10T08:32:53.598Z</time>
      </trkpt>
      <trkpt lat="48.71841" lon="2.54775">
        <ele>77</ele>
        <time>2020-12-10T08:32:58.611Z</time>
      </trkpt>
      <trkpt lat="48.71836" lon="2.54772">
        <ele>77</ele>
        <time>2020-12-10T08:33:03.600Z</time>
      </trkpt>
      <trkpt lat="48.71823" lon="2.54782">
        <ele>77</ele>
        <time>2020-12-10T08:33:08.628Z</time>
      </trkpt>
      <trkpt lat="48.7181" lon="2.54788">
        <ele>77</ele>
        <time>2020-12-10T08:33:13.602Z</time>
      </trkpt>
      <trkpt lat="48.71803" lon="2.54788">
        <ele>77</ele>
        <time>2020-12-10T08:33:18.605Z</time>
      </trkpt>
      <trkpt lat="48.71796" lon="2.54789">
        <ele>77</ele>
        <time>2020-12-10T08:33:23.611Z</time>
      </trkpt>
      <trkpt lat="48.71791" lon="2.5479">
        <ele>76</ele>
        <time>2020-12-10T08:33:28.608Z</time>
      </trkpt>
      <trkpt lat="48.71772" lon="2.54795">
        <ele>77</ele>
        <time>2020-12-10T08:33:33.595Z</time>
      </trkpt>
      <trkpt lat="48.7176" lon="2.54801">
        <ele>76</ele>
        <time>2020-12-10T08:33:38.611Z</time>
      </trkpt>
      <trkpt lat="48.7175" lon="2.54807">
        <ele>76</ele>
        <time>2020-12-10T08:33:43.593Z</time>
      </trkpt>
      <trkpt lat="48.71741" lon="2.54806">
        <ele>76</ele>
        <time>2020-12-10T08:33:48.610Z</time>
      </trkpt>
      <trkpt lat="48.7174" lon="2.54806">
        <ele>76</ele>
        <time>2020-12-10T08:33:53.629Z</time>
      </trkpt>
      <trkpt lat="48.71734" lon="2.54806">
        <ele>76</ele>
        <time>2020-12-10T08:33:58.589Z</time>
      </trkpt>
      <trkpt lat="48.7173" lon="2.54806">
        <ele>76</ele>
        <time>2020-12-10T08:34:02.627Z</time>
      </trkpt>
      <trkpt lat="48.71726" lon="2.54806">
        <ele>76</ele>
        <time>2020-12-10T08:34:07.601Z</time>
      </trkpt>
      <trkpt lat="48.71723" lon="2.54806">
        <ele>76</ele>
        <time>2020-12-10T08:34:12.589Z</time>
      </trkpt>
      <trkpt lat="48.71721" lon="2.54806">
        <ele>76</ele>
        <time>2020-12-10T08:34:16.614Z</time>
      </trkpt>
      <trkpt lat="48.71716" lon="2.54806">
        <ele>76</ele>
        <time>2020-12-10T08:34:21.594Z</time>
      </trkpt>
      <trkpt lat="48.71706" lon="2.54807">
        <ele>77</ele>
        <time>2020-12-10T08:34:26.588Z</time>
      </trkpt>
      <trkpt lat="48.71704" lon="2.54808">
        <ele>77</ele>
        <time>2020-12-10T08:34:31.589Z</time>
      </trkpt>
      <trkpt lat="48.717" lon="2.54807">
        <ele>77</ele>
        <time>2020-12-10T08:34:36.598Z</time>
      </trkpt>
      <trkpt lat="48.71699" lon="2.54808">
        <ele>77</ele>
        <time>2020-12-10T08:34:41.597Z</time>
      </trkpt>
      <trkpt lat="48.71696" lon="2.54809">
        <ele>77</ele>
        <time>2020-12-10T08:34:46.608Z</time>
      </trkpt>
      <trkpt lat="48.71686" lon="2.54808">
        <ele>77</ele>
        <time>2020-12-10T08:34:51.618Z</time>
      </trkpt>
      <trkpt lat="48.7168" lon="2.54809">
        <ele>77</ele>
        <time>2020-12-10T08:34:56.599Z</time>
      </trkpt>
      <trkpt lat="48.71677" lon="2.54809">
        <ele>77</ele>
        <time>2020-12-10T08:35:01.636Z</time>
      </trkpt>
      <trkpt lat="48.71671" lon="2.5481">
        <ele>77</ele>
        <time>2020-12-10T08:35:06.607Z</time>
      </trkpt>
      <trkpt lat="48.71666" lon="2.54807">
        <ele>77</ele>
        <time>2020-12-10T08:35:11.610Z</time>
      </trkpt>
      <trkpt lat="48.71658" lon="2.54808">
        <ele>77</ele>
        <time>2020-12-10T08:35:16.608Z</time>
      </trkpt>
      <trkpt lat="48.71642" lon="2.54809">
        <ele>79</ele>
        <time>2020-12-10T08:35:21.609Z</time>
      </trkpt>
      <trkpt lat="48.71635" lon="2.54809">
        <ele>79</ele>
        <time>2020-12-10T08:35:26.608Z</time>
      </trkpt>
      <trkpt lat="48.71624" lon="2.54809">
        <ele>80</ele>
        <time>2020-12-10T08:35:31.615Z</time>
      </trkpt>
      <trkpt lat="48.71611" lon="2.54811">
        <ele>80</ele>
        <time>2020-12-10T08:35:36.616Z</time>
      </trkpt>
      <trkpt lat="48.716" lon="2.54819">
        <ele>80</ele>
        <time>2020-12-10T08:35:41.611Z</time>
      </trkpt>
      <trkpt lat="48.71584" lon="2.54821">
        <ele>81</ele>
        <time>2020-12-10T08:35:46.618Z</time>
      </trkpt>
      <trkpt lat="48.71581" lon="2.54822">
        <ele>81</ele>
        <time>2020-12-10T08:35:51.605Z</time>
      </trkpt>
      <trkpt lat="48.71581" lon="2.54823">
        <ele>81</ele>
        <time>2020-12-10T08:35:55.613Z</time>
      </trkpt>
      <trkpt lat="48.71578" lon="2.54824">
        <ele>81</ele>
        <time>2020-12-10T08:36:00.603Z</time>
      </trkpt>
      <trkpt lat="48.71572" lon="2.54823">
        <ele>81</ele>
        <time>2020-12-10T08:36:05.590Z</time>
      </trkpt>
      <trkpt lat="48.71566" lon="2.54823">
        <ele>81</ele>
        <time>2020-12-10T08:36:09.618Z</time>
      </trkpt>
      <trkpt lat="48.7156" lon="2.5482">
        <ele>81</ele>
        <time>2020-12-10T08:36:14.606Z</time>
      </trkpt>
      <trkpt lat="48.71556" lon="2.5482">
        <ele>81</ele>
        <time>2020-12-10T08:36:19.613Z</time>
      </trkpt>
      <trkpt lat="48.71548" lon="2.54815">
        <ele>81</ele>
        <time>2020-12-10T08:36:24.620Z</time>
      </trkpt>
      <trkpt lat="48.71545" lon="2.54813">
        <ele>81</ele>
        <time>2020-12-10T08:36:29.617Z</time>
      </trkpt>
      <trkpt lat="48.71538" lon="2.5481">
        <ele>81</ele>
        <time>2020-12-10T08:36:34.609Z</time>
      </trkpt>
      <trkpt lat="48.71531" lon="2.54807">
        <ele>81</ele>
        <time>2020-12-10T08:36:39.608Z</time>
      </trkpt>
      <trkpt lat="48.71527" lon="2.54804">
        <ele>81</ele>
        <time>2020-12-10T08:36:44.613Z</time>
      </trkpt>
      <trkpt lat="48.71523" lon="2.54795">
        <ele>81</ele>
        <time>2020-12-10T08:36:49.604Z</time>
      </trkpt>
      <trkpt lat="48.71522" lon="2.54792">
        <ele>81</ele>
        <time>2020-12-10T08:36:54.615Z</time>
      </trkpt>
      <trkpt lat="48.71521" lon="2.54798">
        <ele>81</ele>
        <time>2020-12-10T08:36:59.594Z</time>
      </trkpt>
      <trkpt lat="48.71521" lon="2.54801">
        <ele>81</ele>
        <time>2020-12-10T08:37:04.609Z</time>
      </trkpt>
      <trkpt lat="48.7152" lon="2.54803">
        <ele>81</ele>
        <time>2020-12-10T08:37:09.610Z</time>
      </trkpt>
      <trkpt lat="48.71518" lon="2.54804">
        <ele>81</ele>
        <time>2020-12-10T08:37:14.613Z</time>
      </trkpt>
      <trkpt lat="48.71516" lon="2.54803">
        <ele>81</ele>
        <time>2020-12-10T08:37:19.609Z</time>
      </trkpt>
      <trkpt lat="48.71504" lon="2.54805">
        <ele>84</ele>
        <time>2020-12-10T08:37:24.606Z</time>
      </trkpt>
      <trkpt lat="48.71482" lon="2.54811">
        <ele>86</ele>
        <time>2020-12-10T08:37:29.631Z</time>
      </trkpt>
      <trkpt lat="48.71457" lon="2.54821">
        <ele>86</ele>
        <time>2020-12-10T08:37:34.609Z</time>
      </trkpt>
      <trkpt lat="48.71447" lon="2.5483">
        <ele>86</ele>
        <time>2020-12-10T08:37:39.608Z</time>
      </trkpt>
      <trkpt lat="48.71437" lon="2.54837">
        <ele>86</ele>
        <time>2020-12-10T08:37:44.610Z</time>
      </trkpt>
      <trkpt lat="48.71427" lon="2.54844">
        <ele>86</ele>
        <time>2020-12-10T08:37:49.610Z</time>
      </trkpt>
      <trkpt lat="48.7142" lon="2.5485">
        <ele>86</ele>
        <time>2020-12-10T08:37:54.611Z</time>
      </trkpt>
      <trkpt lat="48.71413" lon="2.54852">
        <ele>86</ele>
        <time>2020-12-10T08:37:59.643Z</time>
      </trkpt>
      <trkpt lat="48.71411" lon="2.54852">
        <ele>86</ele>
        <time>2020-12-10T08:38:04.609Z</time>
      </trkpt>
      <trkpt lat="48.71409" lon="2.54854">
        <ele>86</ele>
        <time>2020-12-10T08:38:09.613Z</time>
      </trkpt>
      <trkpt lat="48.71403" lon="2.54856">
        <ele>86</ele>
        <time>2020-12-10T08:38:14.609Z</time>
      </trkpt>
      <trkpt lat="48.71396" lon="2.54858">
        <ele>86</ele>
        <time>2020-12-10T08:38:19.611Z</time>
      </trkpt>
      <trkpt lat="48.7139" lon="2.5486">
        <ele>86</ele>
        <time>2020-12-10T08:38:24.610Z</time>
      </trkpt>
      <trkpt lat="48.71381" lon="2.54865">
        <ele>86</ele>
        <time>2020-12-10T08:38:29.618Z</time>
      </trkpt>
      <trkpt lat="48.7137" lon="2.54868">
        <ele>87</ele>
        <time>2020-12-10T08:38:34.612Z</time>
      </trkpt>
      <trkpt lat="48.71359" lon="2.54873">
        <ele>87</ele>
        <time>2020-12-10T08:38:39.598Z</time>
      </trkpt>
      <trkpt lat="48.71345" lon="2.54877">
        <ele>88</ele>
        <time>2020-12-10T08:38:44.616Z</time>
      </trkpt>
      <trkpt lat="48.7134" lon="2.54883">
        <ele>88</ele>
        <time>2020-12-10T08:38:49.614Z</time>
      </trkpt>
      <trkpt lat="48.71334" lon="2.54885">
        <ele>88</ele>
        <time>2020-12-10T08:38:54.605Z</time>
      </trkpt>
      <trkpt lat="48.71326" lon="2.54886">
        <ele>88</ele>
        <time>2020-12-10T08:38:59.600Z</time>
      </trkpt>
      <trkpt lat="48.71323" lon="2.54888">
        <ele>88</ele>
        <time>2020-12-10T08:39:04.611Z</time>
      </trkpt>
      <trkpt lat="48.71317" lon="2.54889">
        <ele>89</ele>
        <time>2020-12-10T08:39:08.637Z</time>
      </trkpt>
      <trkpt lat="48.71318" lon="2.54892">
        <ele>89</ele>
        <time>2020-12-10T08:39:13.592Z</time>
      </trkpt>
      <trkpt lat="48.71312" lon="2.54895">
        <ele>89</ele>
        <time>2020-12-10T08:39:17.610Z</time>
      </trkpt>
      <trkpt lat="48.71308" lon="2.54898">
        <ele>89</ele>
        <time>2020-12-10T08:39:22.615Z</time>
      </trkpt>
      <trkpt lat="48.71303" lon="2.549">
        <ele>89</ele>
        <time>2020-12-10T08:39:27.615Z</time>
      </trkpt>
      <trkpt lat="48.71299" lon="2.54901">
        <ele>89</ele>
        <time>2020-12-10T08:39:32.600Z</time>
      </trkpt>
      <trkpt lat="48.71295" lon="2.54905">
        <ele>89</ele>
        <time>2020-12-10T08:39:37.605Z</time>
      </trkpt>
      <trkpt lat="48.71289" lon="2.54911">
        <ele>89</ele>
        <time>2020-12-10T08:39:42.610Z</time>
      </trkpt>
      <trkpt lat="48.71283" lon="2.54916">
        <ele>89</ele>
        <time>2020-12-10T08:39:47.632Z</time>
      </trkpt>
      <trkpt lat="48.71277" lon="2.54921">
        <ele>89</ele>
        <time>2020-12-10T08:39:52.611Z</time>
      </trkpt>
      <trkpt lat="48.71268" lon="2.54927">
        <ele>89</ele>
        <time>2020-12-10T08:39:57.597Z</time>
      </trkpt>
      <trkpt lat="48.71258" lon="2.54936">
        <ele>90</ele>
        <time>2020-12-10T08:40:02.615Z</time>
      </trkpt>
      <trkpt lat="48.71251" lon="2.54943">
        <ele>90</ele>
        <time>2020-12-10T08:40:07.606Z</time>
      </trkpt>
      <trkpt lat="48.71242" lon="2.54948">
        <ele>90</ele>
        <time>2020-12-10T08:40:12.612Z</time>
      </trkpt>
      <trkpt lat="48.71239" lon="2.54952">
        <ele>90</ele>
        <time>2020-12-10T08:40:17.609Z</time>
      </trkpt>
      <trkpt lat="48.71232" lon="2.54955">
        <ele>90</ele>
        <time>2020-12-10T08:40:22.607Z</time>
      </trkpt>
      <trkpt lat="48.71226" lon="2.54957">
        <ele>90</ele>
        <time>2020-12-10T08:40:27.606Z</time>
      </trkpt>
      <trkpt lat="48.71218" lon="2.54965">
        <ele>90</ele>
        <time>2020-12-10T08:40:32.598Z</time>
      </trkpt>
      <trkpt lat="48.71209" lon="2.54969">
        <ele>90</ele>
        <time>2020-12-10T08:40:36.615Z</time>
      </trkpt>
      <trkpt lat="48.71203" lon="2.54974">
        <ele>90</ele>
        <time>2020-12-10T08:40:41.593Z</time>
      </trkpt>
      <trkpt lat="48.71201" lon="2.5498">
        <ele>90</ele>
        <time>2020-12-10T08:40:45.590Z</time>
      </trkpt>
      <trkpt lat="48.71192" lon="2.54992">
        <ele>91</ele>
        <time>2020-12-10T08:40:50.594Z</time>
      </trkpt>
      <trkpt lat="48.71186" lon="2.54997">
        <ele>91</ele>
        <time>2020-12-10T08:40:54.607Z</time>
      </trkpt>
      <trkpt lat="48.71178" lon="2.55009">
        <ele>91</ele>
        <time>2020-12-10T08:40:59.609Z</time>
      </trkpt>
      <trkpt lat="48.71173" lon="2.55022">
        <ele>92</ele>
        <time>2020-12-10T08:41:04.617Z</time>
      </trkpt>
      <trkpt lat="48.71171" lon="2.55028">
        <ele>92</ele>
        <time>2020-12-10T08:41:08.635Z</time>
      </trkpt>
      <trkpt lat="48.71166" lon="2.55043">
        <ele>91</ele>
        <time>2020-12-10T08:41:13.596Z</time>
      </trkpt>
      <trkpt lat="48.71164" lon="2.55048">
        <ele>91</ele>
        <time>2020-12-10T08:41:17.615Z</time>
      </trkpt>
      <trkpt lat="48.71162" lon="2.55053">
        <ele>91</ele>
        <time>2020-12-10T08:41:22.607Z</time>
      </trkpt>
      <trkpt lat="48.71159" lon="2.55059">
        <ele>91</ele>
        <time>2020-12-10T08:41:27.613Z</time>
      </trkpt>
      <trkpt lat="48.71156" lon="2.55065">
        <ele>91</ele>
        <time>2020-12-10T08:41:46.614Z</time>
      </trkpt>
      <trkpt lat="48.71149" lon="2.55068">
        <ele>90</ele>
        <time>2020-12-10T08:41:51.602Z</time>
      </trkpt>
      <trkpt lat="48.71143" lon="2.55075">
        <ele>90</ele>
        <time>2020-12-10T08:41:56.605Z</time>
      </trkpt>
      <trkpt lat="48.71134" lon="2.55082">
        <ele>90</ele>
        <time>2020-12-10T08:42:01.621Z</time>
      </trkpt>
      <trkpt lat="48.71127" lon="2.55089">
        <ele>90</ele>
        <time>2020-12-10T08:42:06.608Z</time>
      </trkpt>
      <trkpt lat="48.71115" lon="2.55101">
        <ele>91</ele>
        <time>2020-12-10T08:42:11.611Z</time>
      </trkpt>
      <trkpt lat="48.71111" lon="2.55106">
        <ele>91</ele>
        <time>2020-12-10T08:42:16.612Z</time>
      </trkpt>
      <trkpt lat="48.71103" lon="2.5511">
        <ele>91</ele>
        <time>2020-12-10T08:42:21.607Z</time>
      </trkpt>
      <trkpt lat="48.71096" lon="2.55113">
        <ele>90</ele>
        <time>2020-12-10T08:42:26.602Z</time>
      </trkpt>
      <trkpt lat="48.71091" lon="2.55112">
        <ele>90</ele>
        <time>2020-12-10T08:42:31.608Z</time>
      </trkpt>
      <trkpt lat="48.71089" lon="2.55114">
        <ele>90</ele>
        <time>2020-12-10T08:42:36.612Z</time>
      </trkpt>
      <trkpt lat="48.71084" lon="2.55118">
        <ele>90</ele>
        <time>2020-12-10T08:42:41.615Z</time>
      </trkpt>
      <trkpt lat="48.71079" lon="2.55133">
        <ele>90</ele>
        <time>2020-12-10T08:42:46.614Z</time>
      </trkpt>
      <trkpt lat="48.71074" lon="2.55142">
        <ele>90</ele>
        <time>2020-12-10T08:42:51.612Z</time>
      </trkpt>
      <trkpt lat="48.71071" lon="2.55148">
        <ele>90</ele>
        <time>2020-12-10T08:42:56.620Z</time>
      </trkpt>
      <trkpt lat="48.71068" lon="2.55151">
        <ele>90</ele>
        <time>2020-12-10T08:43:01.609Z</time>
      </trkpt>
      <trkpt lat="48.71063" lon="2.55156">
        <ele>89</ele>
        <time>2020-12-10T08:43:06.611Z</time>
      </trkpt>
      <trkpt lat="48.71056" lon="2.55169">
        <ele>89</ele>
        <time>2020-12-10T08:43:11.604Z</time>
      </trkpt>
      <trkpt lat="48.71051" lon="2.55178">
        <ele>89</ele>
        <time>2020-12-10T08:43:16.611Z</time>
      </trkpt>
      <trkpt lat="48.71046" lon="2.55191">
        <ele>88</ele>
        <time>2020-12-10T08:43:21.612Z</time>
      </trkpt>
      <trkpt lat="48.71042" lon="2.55201">
        <ele>89</ele>
        <time>2020-12-10T08:43:26.614Z</time>
      </trkpt>
      <trkpt lat="48.71038" lon="2.55209">
        <ele>89</ele>
        <time>2020-12-10T08:43:31.608Z</time>
      </trkpt>
      <trkpt lat="48.71032" lon="2.55214">
        <ele>89</ele>
        <time>2020-12-10T08:43:36.610Z</time>
      </trkpt>
      <trkpt lat="48.71029" lon="2.5522">
        <ele>89</ele>
        <time>2020-12-10T08:43:41.613Z</time>
      </trkpt>
      <trkpt lat="48.71025" lon="2.55237">
        <ele>89</ele>
        <time>2020-12-10T08:43:46.598Z</time>
      </trkpt>
      <trkpt lat="48.71024" lon="2.55244">
        <ele>89</ele>
        <time>2020-12-10T08:43:51.602Z</time>
      </trkpt>
      <trkpt lat="48.71022" lon="2.55256">
        <ele>89</ele>
        <time>2020-12-10T08:43:56.604Z</time>
      </trkpt>
      <trkpt lat="48.71017" lon="2.55265">
        <ele>89</ele>
        <time>2020-12-10T08:44:01.610Z</time>
      </trkpt>
      <trkpt lat="48.71015" lon="2.55281">
        <ele>89</ele>
        <time>2020-12-10T08:44:06.605Z</time>
      </trkpt>
      <trkpt lat="48.71013" lon="2.55302">
        <ele>92</ele>
        <time>2020-12-10T08:44:11.611Z</time>
      </trkpt>
      <trkpt lat="48.71007" lon="2.55328">
        <ele>92</ele>
        <time>2020-12-10T08:44:16.614Z</time>
      </trkpt>
      <trkpt lat="48.71007" lon="2.55331">
        <ele>92</ele>
        <time>2020-12-10T08:44:21.612Z</time>
      </trkpt>
      <trkpt lat="48.71005" lon="2.55341">
        <ele>92</ele>
        <time>2020-12-10T08:44:26.618Z</time>
      </trkpt>
      <trkpt lat="48.71001" lon="2.55347">
        <ele>92</ele>
        <time>2020-12-10T08:44:31.611Z</time>
      </trkpt>
      <trkpt lat="48.70998" lon="2.55352">
        <ele>92</ele>
        <time>2020-12-10T08:44:36.606Z</time>
      </trkpt>
      <trkpt lat="48.70996" lon="2.55356">
        <ele>92</ele>
        <time>2020-12-10T08:44:41.611Z</time>
      </trkpt>
      <trkpt lat="48.70994" lon="2.55362">
        <ele>92</ele>
        <time>2020-12-10T08:44:46.609Z</time>
      </trkpt>
      <trkpt lat="48.7099" lon="2.55377">
        <ele>92</ele>
        <time>2020-12-10T08:44:51.604Z</time>
      </trkpt>
      <trkpt lat="48.70988" lon="2.55384">
        <ele>92</ele>
        <time>2020-12-10T08:44:56.602Z</time>
      </trkpt>
      <trkpt lat="48.70987" lon="2.55395">
        <ele>92</ele>
        <time>2020-12-10T08:45:00.611Z</time>
      </trkpt>
      <trkpt lat="48.70981" lon="2.55405">
        <ele>93</ele>
        <time>2020-12-10T08:45:05.598Z</time>
      </trkpt>
      <trkpt lat="48.70977" lon="2.5541">
        <ele>93</ele>
        <time>2020-12-10T08:45:09.612Z</time>
      </trkpt>
      <trkpt lat="48.70971" lon="2.55417">
        <ele>93</ele>
        <time>2020-12-10T08:45:14.615Z</time>
      </trkpt>
      <trkpt lat="48.70969" lon="2.55424">
        <ele>93</ele>
        <time>2020-12-10T08:45:19.630Z</time>
      </trkpt>
      <trkpt lat="48.70966" lon="2.55429">
        <ele>93</ele>
        <time>2020-12-10T08:45:24.602Z</time>
      </trkpt>
      <trkpt lat="48.70964" lon="2.55436">
        <ele>93</ele>
        <time>2020-12-10T08:45:29.611Z</time>
      </trkpt>
      <trkpt lat="48.7096" lon="2.55445">
        <ele>93</ele>
        <time>2020-12-10T08:45:34.618Z</time>
      </trkpt>
      <trkpt lat="48.70955" lon="2.55463">
        <ele>95</ele>
        <time>2020-12-10T08:45:39.611Z</time>
      </trkpt>
      <trkpt lat="48.70957" lon="2.55476">
        <ele>95</ele>
        <time>2020-12-10T08:45:44.620Z</time>
      </trkpt>
      <trkpt lat="48.70954" lon="2.55493">
        <ele>95</ele>
        <time>2020-12-10T08:45:49.603Z</time>
      </trkpt>
      <trkpt lat="48.70955" lon="2.55518">
        <ele>94</ele>
        <time>2020-12-10T08:45:54.615Z</time>
      </trkpt>
      <trkpt lat="48.70952" lon="2.5554">
        <ele>94</ele>
        <time>2020-12-10T08:45:59.608Z</time>
      </trkpt>
      <trkpt lat="48.7095" lon="2.55545">
        <ele>93</ele>
        <time>2020-12-10T08:46:04.589Z</time>
      </trkpt>
      <trkpt lat="48.70952" lon="2.55546">
        <ele>93</ele>
        <time>2020-12-10T08:46:08.616Z</time>
      </trkpt>
      <trkpt lat="48.7095" lon="2.55556">
        <ele>93</ele>
        <time>2020-12-10T08:46:13.599Z</time>
      </trkpt>
      <trkpt lat="48.70949" lon="2.55569">
        <ele>93</ele>
        <time>2020-12-10T08:46:18.610Z</time>
      </trkpt>
      <trkpt lat="48.7095" lon="2.55578">
        <ele>93</ele>
        <time>2020-12-10T08:46:23.611Z</time>
      </trkpt>
      <trkpt lat="48.7095" lon="2.55583">
        <ele>93</ele>
        <time>2020-12-10T08:46:28.616Z</time>
      </trkpt>
      <trkpt lat="48.70946" lon="2.55594">
        <ele>93</ele>
        <time>2020-12-10T08:46:33.607Z</time>
      </trkpt>
      <trkpt lat="48.70945" lon="2.55608">
        <ele>92</ele>
        <time>2020-12-10T08:46:38.610Z</time>
      </trkpt>
      <trkpt lat="48.70945" lon="2.55617">
        <ele>92</ele>
        <time>2020-12-10T08:46:43.603Z</time>
      </trkpt>
      <trkpt lat="48.70944" lon="2.55628">
        <ele>91</ele>
        <time>2020-12-10T08:46:47.639Z</time>
      </trkpt>
      <trkpt lat="48.70944" lon="2.55644">
        <ele>91</ele>
        <time>2020-12-10T08:46:52.611Z</time>
      </trkpt>
      <trkpt lat="48.70945" lon="2.55655">
        <ele>92</ele>
        <time>2020-12-10T08:46:57.612Z</time>
      </trkpt>
      <trkpt lat="48.70944" lon="2.55661">
        <ele>92</ele>
        <time>2020-12-10T08:47:02.612Z</time>
      </trkpt>
      <trkpt lat="48.70943" lon="2.55667">
        <ele>92</ele>
        <time>2020-12-10T08:47:07.621Z</time>
      </trkpt>
      <trkpt lat="48.70942" lon="2.5567">
        <ele>92</ele>
        <time>2020-12-10T08:47:10.615Z</time>
      </trkpt>
      <trkpt lat="48.70941" lon="2.55681">
        <ele>93</ele>
        <time>2020-12-10T08:47:15.597Z</time>
      </trkpt>
      <trkpt lat="48.70938" lon="2.55685">
        <ele>93</ele>
        <time>2020-12-10T08:47:19.623Z</time>
      </trkpt>
      <trkpt lat="48.70938" lon="2.55697">
        <ele>93</ele>
        <time>2020-12-10T08:47:24.606Z</time>
      </trkpt>
      <trkpt lat="48.70936" lon="2.55717">
        <ele>93</ele>
        <time>2020-12-10T08:47:29.634Z</time>
      </trkpt>
      <trkpt lat="48.70937" lon="2.55723">
        <ele>93</ele>
        <time>2020-12-10T08:47:34.626Z</time>
      </trkpt>
      <trkpt lat="48.70936" lon="2.55728">
        <ele>93</ele>
        <time>2020-12-10T08:47:38.647Z</time>
      </trkpt>
      <trkpt lat="48.70941" lon="2.55738">
        <ele>93</ele>
        <time>2020-12-10T08:49:15.613Z</time>
      </trkpt>
      <trkpt lat="48.70942" lon="2.55737">
        <ele>93</ele>
        <time>2020-12-10T08:49:20.615Z</time>
      </trkpt>
      <trkpt lat="48.70942" lon="2.55737">
        <ele>93</ele>
        <time>2020-12-10T08:49:24.631Z</time>
      </trkpt>
      <trkpt lat="48.70944" lon="2.55738">
        <ele>93</ele>
        <time>2020-12-10T08:49:29.615Z</time>
      </trkpt>
      <trkpt lat="48.70945" lon="2.55739">
        <ele>93</ele>
        <time>2020-12-10T08:49:34.620Z</time>
      </trkpt>
      <trkpt lat="48.70943" lon="2.55748">
        <ele>93</ele>
        <time>2020-12-10T08:50:17.614Z</time>
      </trkpt>
      <trkpt lat="48.70944" lon="2.55748">
        <ele>93</ele>
        <time>2020-12-10T08:50:22.620Z</time>
      </trkpt>
      <trkpt lat="48.70944" lon="2.55748">
        <ele>93</ele>
        <time>2020-12-10T08:50:27.609Z</time>
      </trkpt>
      <trkpt lat="48.70943" lon="2.55748">
        <ele>93</ele>
        <time>2020-12-10T08:50:32.627Z</time>
      </trkpt>
      <trkpt lat="48.70943" lon="2.55757">
        <ele>93</ele>
        <time>2020-12-10T08:50:37.616Z</time>
      </trkpt>
      <trkpt lat="48.70943" lon="2.55768">
        <ele>94</ele>
        <time>2020-12-10T08:50:42.633Z</time>
      </trkpt>
      <trkpt lat="48.70943" lon="2.55775">
        <ele>94</ele>
        <time>2020-12-10T08:50:47.616Z</time>
      </trkpt>
      <trkpt lat="48.70943" lon="2.55782">
        <ele>94</ele>
        <time>2020-12-10T08:50:52.617Z</time>
      </trkpt>
      <trkpt lat="48.70944" lon="2.55791">
        <ele>94</ele>
        <time>2020-12-10T08:50:56.644Z</time>
      </trkpt>
      <trkpt lat="48.70944" lon="2.55801">
        <ele>94</ele>
        <time>2020-12-10T08:51:01.583Z</time>
      </trkpt>
      <trkpt lat="48.70945" lon="2.55813">
        <ele>94</ele>
        <time>2020-12-10T08:51:05.617Z</time>
      </trkpt>
      <trkpt lat="48.70946" lon="2.55826">
        <ele>94</ele>
        <time>2020-12-10T08:51:10.616Z</time>
      </trkpt>
      <trkpt lat="48.70948" lon="2.55837">
        <ele>94</ele>
        <time>2020-12-10T08:51:15.598Z</time>
      </trkpt>
      <trkpt lat="48.70949" lon="2.55847">
        <ele>94</ele>
        <time>2020-12-10T08:51:19.625Z</time>
      </trkpt>
      <trkpt lat="48.70951" lon="2.55857">
        <ele>93</ele>
        <time>2020-12-10T08:51:24.611Z</time>
      </trkpt>
      <trkpt lat="48.70953" lon="2.5587">
        <ele>93</ele>
        <time>2020-12-10T08:51:29.678Z</time>
      </trkpt>
      <trkpt lat="48.70953" lon="2.55876">
        <ele>93</ele>
        <time>2020-12-10T08:51:34.599Z</time>
      </trkpt>
      <trkpt lat="48.70955" lon="2.55889">
        <ele>93</ele>
        <time>2020-12-10T08:51:39.609Z</time>
      </trkpt>
      <trkpt lat="48.70956" lon="2.55898">
        <ele>93</ele>
        <time>2020-12-10T08:51:44.629Z</time>
      </trkpt>
      <trkpt lat="48.70957" lon="2.55904">
        <ele>92</ele>
        <time>2020-12-10T08:51:49.601Z</time>
      </trkpt>
      <trkpt lat="48.70958" lon="2.55913">
        <ele>92</ele>
        <time>2020-12-10T08:51:53.624Z</time>
      </trkpt>
      <trkpt lat="48.70959" lon="2.55922">
        <ele>92</ele>
        <time>2020-12-10T08:51:58.630Z</time>
      </trkpt>
      <trkpt lat="48.7096" lon="2.55935">
        <ele>92</ele>
        <time>2020-12-10T08:52:03.609Z</time>
      </trkpt>
      <trkpt lat="48.70956" lon="2.55947">
        <ele>92</ele>
        <time>2020-12-10T08:52:08.613Z</time>
      </trkpt>
      <trkpt lat="48.7095" lon="2.55952">
        <ele>92</ele>
        <time>2020-12-10T08:52:13.618Z</time>
      </trkpt>
      <trkpt lat="48.70948" lon="2.55957">
        <ele>92</ele>
        <time>2020-12-10T08:52:18.612Z</time>
      </trkpt>
      <trkpt lat="48.70944" lon="2.55967">
        <ele>92</ele>
        <time>2020-12-10T08:52:23.619Z</time>
      </trkpt>
      <trkpt lat="48.70944" lon="2.5598">
        <ele>92</ele>
        <time>2020-12-10T08:52:28.613Z</time>
      </trkpt>
      <trkpt lat="48.70945" lon="2.5599">
        <ele>92</ele>
        <time>2020-12-10T08:52:33.616Z</time>
      </trkpt>
      <trkpt lat="48.70948" lon="2.55999">
        <ele>92</ele>
        <time>2020-12-10T08:52:38.616Z</time>
      </trkpt>
      <trkpt lat="48.70951" lon="2.56015">
        <ele>92</ele>
        <time>2020-12-10T08:52:43.639Z</time>
      </trkpt>
      <trkpt lat="48.70953" lon="2.56026">
        <ele>92</ele>
        <time>2020-12-10T08:52:48.614Z</time>
      </trkpt>
      <trkpt lat="48.70956" lon="2.56035">
        <ele>92</ele>
        <time>2020-12-10T08:52:53.608Z</time>
      </trkpt>
      <trkpt lat="48.70958" lon="2.56046">
        <ele>93</ele>
        <time>2020-12-10T08:52:58.622Z</time>
      </trkpt>
      <trkpt lat="48.7096" lon="2.56054">
        <ele>92</ele>
        <time>2020-12-10T08:53:03.622Z</time>
      </trkpt>
      <trkpt lat="48.70963" lon="2.56067">
        <ele>92</ele>
        <time>2020-12-10T08:53:08.628Z</time>
      </trkpt>
      <trkpt lat="48.70965" lon="2.56077">
        <ele>92</ele>
        <time>2020-12-10T08:53:13.655Z</time>
      </trkpt>
      <trkpt lat="48.70968" lon="2.56088">
        <ele>92</ele>
        <time>2020-12-10T08:53:18.597Z</time>
      </trkpt>
      <trkpt lat="48.70971" lon="2.56099">
        <ele>93</ele>
        <time>2020-12-10T08:53:23.613Z</time>
      </trkpt>
      <trkpt lat="48.70974" lon="2.5611">
        <ele>93</ele>
        <time>2020-12-10T08:53:28.607Z</time>
      </trkpt>
      <trkpt lat="48.70978" lon="2.5612">
        <ele>93</ele>
        <time>2020-12-10T08:53:33.631Z</time>
      </trkpt>
      <trkpt lat="48.70982" lon="2.56131">
        <ele>94</ele>
        <time>2020-12-10T08:53:38.605Z</time>
      </trkpt>
      <trkpt lat="48.70986" lon="2.5614">
        <ele>93</ele>
        <time>2020-12-10T08:53:43.605Z</time>
      </trkpt>
      <trkpt lat="48.70988" lon="2.56149">
        <ele>93</ele>
        <time>2020-12-10T08:53:48.608Z</time>
      </trkpt>
      <trkpt lat="48.70984" lon="2.56156">
        <ele>94</ele>
        <time>2020-12-10T08:53:53.606Z</time>
      </trkpt>
      <trkpt lat="48.70977" lon="2.56157">
        <ele>94</ele>
        <time>2020-12-10T08:53:58.609Z</time>
      </trkpt>
      <trkpt lat="48.70968" lon="2.56153">
        <ele>94</ele>
        <time>2020-12-10T08:54:03.603Z</time>
      </trkpt>
      <trkpt lat="48.7096" lon="2.56147">
        <ele>94</ele>
        <time>2020-12-10T08:54:07.643Z</time>
      </trkpt>
      <trkpt lat="48.70952" lon="2.56137">
        <ele>94</ele>
        <time>2020-12-10T08:54:12.603Z</time>
      </trkpt>
      <trkpt lat="48.70944" lon="2.56129">
        <ele>94</ele>
        <time>2020-12-10T08:54:17.618Z</time>
      </trkpt>
      <trkpt lat="48.70939" lon="2.56124">
        <ele>93</ele>
        <time>2020-12-10T08:54:22.612Z</time>
      </trkpt>
      <trkpt lat="48.70935" lon="2.56121">
        <ele>93</ele>
        <time>2020-12-10T08:54:27.606Z</time>
      </trkpt>
      <trkpt lat="48.70928" lon="2.56116">
        <ele>93</ele>
        <time>2020-12-10T08:54:32.602Z</time>
      </trkpt>
      <trkpt lat="48.70923" lon="2.56111">
        <ele>93</ele>
        <time>2020-12-10T08:54:36.619Z</time>
      </trkpt>
      <trkpt lat="48.70916" lon="2.56106">
        <ele>93</ele>
        <time>2020-12-10T08:54:41.602Z</time>
      </trkpt>
      <trkpt lat="48.7091" lon="2.56102">
        <ele>93</ele>
        <time>2020-12-10T08:54:45.631Z</time>
      </trkpt>
      <trkpt lat="48.70905" lon="2.56096">
        <ele>93</ele>
        <time>2020-12-10T08:54:50.608Z</time>
      </trkpt>
      <trkpt lat="48.70901" lon="2.56093">
        <ele>94</ele>
        <time>2020-12-10T08:54:55.608Z</time>
      </trkpt>
      <trkpt lat="48.70897" lon="2.56092">
        <ele>94</ele>
        <time>2020-12-10T08:55:00.594Z</time>
      </trkpt>
      <trkpt lat="48.70891" lon="2.56087">
        <ele>94</ele>
        <time>2020-12-10T08:55:05.613Z</time>
      </trkpt>
      <trkpt lat="48.70885" lon="2.56082">
        <ele>94</ele>
        <time>2020-12-10T08:55:10.601Z</time>
      </trkpt>
      <trkpt lat="48.70878" lon="2.56082">
        <ele>94</ele>
        <time>2020-12-10T08:55:15.617Z</time>
      </trkpt>
      <trkpt lat="48.70871" lon="2.56084">
        <ele>95</ele>
        <time>2020-12-10T08:55:20.606Z</time>
      </trkpt>
      <trkpt lat="48.70866" lon="2.56085">
        <ele>95</ele>
        <time>2020-12-10T08:55:24.615Z</time>
      </trkpt>
      <trkpt lat="48.70858" lon="2.56094">
        <ele>95</ele>
        <time>2020-12-10T08:55:29.598Z</time>
      </trkpt>
      <trkpt lat="48.70853" lon="2.56097">
        <ele>95</ele>
        <time>2020-12-10T08:55:34.600Z</time>
      </trkpt>
      <trkpt lat="48.70846" lon="2.56099">
        <ele>94</ele>
        <time>2020-12-10T08:55:39.617Z</time>
      </trkpt>
      <trkpt lat="48.70842" lon="2.56101">
        <ele>94</ele>
        <time>2020-12-10T08:55:44.612Z</time>
      </trkpt>
      <trkpt lat="48.70837" lon="2.56103">
        <ele>94</ele>
        <time>2020-12-10T08:55:49.615Z</time>
      </trkpt>
      <trkpt lat="48.70829" lon="2.56107">
        <ele>94</ele>
        <time>2020-12-10T08:55:54.628Z</time>
      </trkpt>
      <trkpt lat="48.7082" lon="2.56113">
        <ele>94</ele>
        <time>2020-12-10T08:55:59.615Z</time>
      </trkpt>
      <trkpt lat="48.70813" lon="2.56116">
        <ele>93</ele>
        <time>2020-12-10T08:56:04.600Z</time>
      </trkpt>
      <trkpt lat="48.70806" lon="2.56119">
        <ele>93</ele>
        <time>2020-12-10T08:56:09.608Z</time>
      </trkpt>
      <trkpt lat="48.70799" lon="2.56119">
        <ele>93</ele>
        <time>2020-12-10T08:56:14.597Z</time>
      </trkpt>
      <trkpt lat="48.70793" lon="2.5612">
        <ele>93</ele>
        <time>2020-12-10T08:56:18.617Z</time>
      </trkpt>
      <trkpt lat="48.70788" lon="2.56124">
        <ele>93</ele>
        <time>2020-12-10T08:56:22.639Z</time>
      </trkpt>
      <trkpt lat="48.70782" lon="2.5613">
        <ele>93</ele>
        <time>2020-12-10T08:56:27.614Z</time>
      </trkpt>
      <trkpt lat="48.70774" lon="2.56143">
        <ele>93</ele>
        <time>2020-12-10T08:56:41.618Z</time>
      </trkpt>
      <trkpt lat="48.70773" lon="2.56145">
        <ele>93</ele>
        <time>2020-12-10T08:56:46.610Z</time>
      </trkpt>
      <trkpt lat="48.70771" lon="2.5615">
        <ele>93</ele>
        <time>2020-12-10T08:56:51.617Z</time>
      </trkpt>
      <trkpt lat="48.70769" lon="2.56159">
        <ele>93</ele>
        <time>2020-12-10T08:56:56.596Z</time>
      </trkpt>
      <trkpt lat="48.70767" lon="2.56168">
        <ele>93</ele>
        <time>2020-12-10T08:57:00.621Z</time>
      </trkpt>
      <trkpt lat="48.70765" lon="2.5617">
        <ele>93</ele>
        <time>2020-12-10T08:57:05.615Z</time>
      </trkpt>
      <trkpt lat="48.70764" lon="2.56175">
        <ele>93</ele>
        <time>2020-12-10T08:57:10.601Z</time>
      </trkpt>
      <trkpt lat="48.70761" lon="2.56185">
        <ele>93</ele>
        <time>2020-12-10T08:57:15.597Z</time>
      </trkpt>
      <trkpt lat="48.70758" lon="2.56195">
        <ele>93</ele>
        <time>2020-12-10T08:57:20.613Z</time>
      </trkpt>
      <trkpt lat="48.70753" lon="2.56206">
        <ele>93</ele>
        <time>2020-12-10T08:57:25.604Z</time>
      </trkpt>
      <trkpt lat="48.70749" lon="2.56217">
        <ele>93</ele>
        <time>2020-12-10T08:57:30.594Z</time>
      </trkpt>
      <trkpt lat="48.70743" lon="2.56229">
        <ele>93</ele>
        <time>2020-12-10T08:57:35.611Z</time>
      </trkpt>
      <trkpt lat="48.7074" lon="2.56238">
        <ele>93</ele>
        <time>2020-12-10T08:57:40.601Z</time>
      </trkpt>
      <trkpt lat="48.70739" lon="2.56243">
        <ele>93</ele>
        <time>2020-12-10T08:57:44.615Z</time>
      </trkpt>
      <trkpt lat="48.70734" lon="2.56251">
        <ele>93</ele>
        <time>2020-12-10T08:57:49.607Z</time>
      </trkpt>
      <trkpt lat="48.7073" lon="2.56262">
        <ele>93</ele>
        <time>2020-12-10T08:57:54.598Z</time>
      </trkpt>
      <trkpt lat="48.70727" lon="2.56271">
        <ele>93</ele>
        <time>2020-12-10T08:57:59.596Z</time>
      </trkpt>
      <trkpt lat="48.70724" lon="2.56283">
        <ele>93</ele>
        <time>2020-12-10T08:58:04.602Z</time>
      </trkpt>
      <trkpt lat="48.70723" lon="2.56292">
        <ele>93</ele>
        <time>2020-12-10T08:58:08.612Z</time>
      </trkpt>
      <trkpt lat="48.70722" lon="2.56302">
        <ele>93</ele>
        <time>2020-12-10T08:58:13.620Z</time>
      </trkpt>
      <trkpt lat="48.70719" lon="2.56311">
        <ele>93</ele>
        <time>2020-12-10T08:58:18.614Z</time>
      </trkpt>
      <trkpt lat="48.70714" lon="2.56319">
        <ele>93</ele>
        <time>2020-12-10T08:58:23.617Z</time>
      </trkpt>
      <trkpt lat="48.7071" lon="2.56329">
        <ele>93</ele>
        <time>2020-12-10T08:58:28.620Z</time>
      </trkpt>
      <trkpt lat="48.70709" lon="2.56336">
        <ele>93</ele>
        <time>2020-12-10T08:58:33.608Z</time>
      </trkpt>
      <trkpt lat="48.70706" lon="2.56347">
        <ele>94</ele>
        <time>2020-12-10T08:58:38.602Z</time>
      </trkpt>
      <trkpt lat="48.70703" lon="2.56357">
        <ele>94</ele>
        <time>2020-12-10T08:58:43.615Z</time>
      </trkpt>
      <trkpt lat="48.70701" lon="2.56366">
        <ele>94</ele>
        <time>2020-12-10T08:58:48.597Z</time>
      </trkpt>
      <trkpt lat="48.707" lon="2.56381">
        <ele>93</ele>
        <time>2020-12-10T08:58:53.603Z</time>
      </trkpt>
      <trkpt lat="48.707" lon="2.5639">
        <ele>93</ele>
        <time>2020-12-10T08:58:58.605Z</time>
      </trkpt>
      <trkpt lat="48.70699" lon="2.56401">
        <ele>93</ele>
        <time>2020-12-10T08:59:03.617Z</time>
      </trkpt>
      <trkpt lat="48.70698" lon="2.56414">
        <ele>93</ele>
        <time>2020-12-10T08:59:07.630Z</time>
      </trkpt>
      <trkpt lat="48.70696" lon="2.56425">
        <ele>93</ele>
        <time>2020-12-10T08:59:12.609Z</time>
      </trkpt>
      <trkpt lat="48.70693" lon="2.56434">
        <ele>93</ele>
        <time>2020-12-10T08:59:17.610Z</time>
      </trkpt>
      <trkpt lat="48.70692" lon="2.56446">
        <ele>93</ele>
        <time>2020-12-10T08:59:22.601Z</time>
      </trkpt>
      <trkpt lat="48.7069" lon="2.56453">
        <ele>93</ele>
        <time>2020-12-10T08:59:27.614Z</time>
      </trkpt>
      <trkpt lat="48.70687" lon="2.56463">
        <ele>94</ele>
        <time>2020-12-10T08:59:32.615Z</time>
      </trkpt>
      <trkpt lat="48.70685" lon="2.56475">
        <ele>94</ele>
        <time>2020-12-10T08:59:37.614Z</time>
      </trkpt>
      <trkpt lat="48.70681" lon="2.56483">
        <ele>94</ele>
        <time>2020-12-10T08:59:42.618Z</time>
      </trkpt>
      <trkpt lat="48.70678" lon="2.56492">
        <ele>93</ele>
        <time>2020-12-10T08:59:47.603Z</time>
      </trkpt>
      <trkpt lat="48.70673" lon="2.56495">
        <ele>93</ele>
        <time>2020-12-10T08:59:52.611Z</time>
      </trkpt>
      <trkpt lat="48.70668" lon="2.56498">
        <ele>93</ele>
        <time>2020-12-10T08:59:57.617Z</time>
      </trkpt>
      <trkpt lat="48.70665" lon="2.565">
        <ele>93</ele>
        <time>2020-12-10T09:00:02.617Z</time>
      </trkpt>
      <trkpt lat="48.70661" lon="2.565">
        <ele>93</ele>
        <time>2020-12-10T09:00:07.609Z</time>
      </trkpt>
      <trkpt lat="48.70656" lon="2.56497">
        <ele>93</ele>
        <time>2020-12-10T09:00:12.621Z</time>
      </trkpt>
      <trkpt lat="48.70653" lon="2.56491">
        <ele>93</ele>
        <time>2020-12-10T09:00:17.609Z</time>
      </trkpt>
      <trkpt lat="48.70648" lon="2.56484">
        <ele>93</ele>
        <time>2020-12-10T09:00:22.624Z</time>
      </trkpt>
      <trkpt lat="48.70644" lon="2.56478">
        <ele>93</ele>
        <time>2020-12-10T09:00:27.618Z</time>
      </trkpt>
      <trkpt lat="48.7064" lon="2.56473">
        <ele>93</ele>
        <time>2020-12-10T09:00:32.608Z</time>
      </trkpt>
      <trkpt lat="48.70637" lon="2.56469">
        <ele>93</ele>
        <time>2020-12-10T09:00:37.620Z</time>
      </trkpt>
      <trkpt lat="48.70632" lon="2.56463">
        <ele>93</ele>
        <time>2020-12-10T09:00:42.621Z</time>
      </trkpt>
      <trkpt lat="48.70629" lon="2.5646">
        <ele>93</ele>
        <time>2020-12-10T09:00:46.637Z</time>
      </trkpt>
      <trkpt lat="48.70624" lon="2.56454">
        <ele>94</ele>
        <time>2020-12-10T09:00:51.607Z</time>
      </trkpt>
      <trkpt lat="48.70619" lon="2.56452">
        <ele>94</ele>
        <time>2020-12-10T09:00:56.625Z</time>
      </trkpt>
      <trkpt lat="48.70614" lon="2.56447">
        <ele>94</ele>
        <time>2020-12-10T09:01:01.605Z</time>
      </trkpt>
      <trkpt lat="48.70609" lon="2.56443">
        <ele>94</ele>
        <time>2020-12-10T09:01:06.617Z</time>
      </trkpt>
      <trkpt lat="48.70605" lon="2.56437">
        <ele>94</ele>
        <time>2020-12-10T09:01:11.622Z</time>
      </trkpt>
      <trkpt lat="48.70601" lon="2.56431">
        <ele>94</ele>
        <time>2020-12-10T09:01:16.615Z</time>
      </trkpt>
      <trkpt lat="48.70594" lon="2.56424">
        <ele>94</ele>
        <time>2020-12-10T09:01:21.611Z</time>
      </trkpt>
      <trkpt lat="48.70585" lon="2.56417">
        <ele>94</ele>
        <time>2020-12-10T09:01:26.623Z</time>
      </trkpt>
      <trkpt lat="48.7058" lon="2.56415">
        <ele>94</ele>
        <time>2020-12-10T09:01:31.606Z</time>
      </trkpt>
      <trkpt lat="48.70574" lon="2.56408">
        <ele>94</ele>
        <time>2020-12-10T09:01:36.604Z</time>
      </trkpt>
      <trkpt lat="48.70569" lon="2.56401">
        <ele>94</ele>
        <time>2020-12-10T09:01:41.599Z</time>
      </trkpt>
      <trkpt lat="48.70563" lon="2.56393">
        <ele>94</ele>
        <time>2020-12-10T09:01:46.622Z</time>
      </trkpt>
      <trkpt lat="48.70559" lon="2.56388">
        <ele>94</ele>
        <time>2020-12-10T09:01:51.615Z</time>
      </trkpt>
      <trkpt lat="48.70553" lon="2.56382">
        <ele>94</ele>
        <time>2020-12-10T09:01:56.605Z</time>
      </trkpt>
      <trkpt lat="48.70548" lon="2.56379">
        <ele>94</ele>
        <time>2020-12-10T09:02:00.626Z</time>
      </trkpt>
      <trkpt lat="48.70539" lon="2.56369">
        <ele>94</ele>
        <time>2020-12-10T09:02:05.597Z</time>
      </trkpt>
      <trkpt lat="48.70533" lon="2.56359">
        <ele>94</ele>
        <time>2020-12-10T09:02:10.619Z</time>
      </trkpt>
      <trkpt lat="48.70528" lon="2.56349">
        <ele>94</ele>
        <time>2020-12-10T09:02:15.612Z</time>
      </trkpt>
      <trkpt lat="48.70521" lon="2.5634">
        <ele>94</ele>
        <time>2020-12-10T09:02:20.629Z</time>
      </trkpt>
      <trkpt lat="48.70519" lon="2.56336">
        <ele>94</ele>
        <time>2020-12-10T09:02:25.612Z</time>
      </trkpt>
      <trkpt lat="48.70513" lon="2.56334">
        <ele>95</ele>
        <time>2020-12-10T09:02:30.621Z</time>
      </trkpt>
      <trkpt lat="48.70508" lon="2.56328">
        <ele>95</ele>
        <time>2020-12-10T09:02:35.602Z</time>
      </trkpt>
      <trkpt lat="48.70503" lon="2.56319">
        <ele>95</ele>
        <time>2020-12-10T09:02:40.623Z</time>
      </trkpt>
      <trkpt lat="48.70496" lon="2.5631">
        <ele>94</ele>
        <time>2020-12-10T09:02:45.626Z</time>
      </trkpt>
      <trkpt lat="48.70492" lon="2.56306">
        <ele>94</ele>
        <time>2020-12-10T09:02:50.623Z</time>
      </trkpt>
      <trkpt lat="48.70485" lon="2.56305">
        <ele>96</ele>
        <time>2020-12-10T09:02:55.617Z</time>
      </trkpt>
      <trkpt lat="48.70481" lon="2.56301">
        <ele>96</ele>
        <time>2020-12-10T09:03:00.609Z</time>
      </trkpt>
      <trkpt lat="48.70473" lon="2.56298">
        <ele>96</ele>
        <time>2020-12-10T09:03:05.614Z</time>
      </trkpt>
      <trkpt lat="48.70467" lon="2.56296">
        <ele>96</ele>
        <time>2020-12-10T09:03:10.621Z</time>
      </trkpt>
      <trkpt lat="48.70459" lon="2.56297">
        <ele>96</ele>
        <time>2020-12-10T09:03:15.606Z</time>
      </trkpt>
      <trkpt lat="48.70452" lon="2.56302">
        <ele>97</ele>
        <time>2020-12-10T09:03:20.617Z</time>
      </trkpt>
      <trkpt lat="48.70449" lon="2.56308">
        <ele>97</ele>
        <time>2020-12-10T09:03:25.614Z</time>
      </trkpt>
      <trkpt lat="48.70446" lon="2.56319">
        <ele>97</ele>
        <time>2020-12-10T09:03:30.608Z</time>
      </trkpt>
      <trkpt lat="48.70441" lon="2.56331">
        <ele>96</ele>
        <time>2020-12-10T09:03:35.619Z</time>
      </trkpt>
      <trkpt lat="48.70438" lon="2.56339">
        <ele>96</ele>
        <time>2020-12-10T09:03:40.613Z</time>
      </trkpt>
      <trkpt lat="48.70434" lon="2.56344">
        <ele>96</ele>
        <time>2020-12-10T09:03:45.623Z</time>
      </trkpt>
      <trkpt lat="48.70431" lon="2.56352">
        <ele>95</ele>
        <time>2020-12-10T09:03:50.620Z</time>
      </trkpt>
      <trkpt lat="48.70429" lon="2.56363">
        <ele>95</ele>
        <time>2020-12-10T09:03:55.613Z</time>
      </trkpt>
      <trkpt lat="48.70427" lon="2.56368">
        <ele>95</ele>
        <time>2020-12-10T09:03:59.631Z</time>
      </trkpt>
      <trkpt lat="48.70425" lon="2.56374">
        <ele>95</ele>
        <time>2020-12-10T09:04:04.616Z</time>
      </trkpt>
      <trkpt lat="48.70422" lon="2.56383">
        <ele>95</ele>
        <time>2020-12-10T09:04:09.618Z</time>
      </trkpt>
      <trkpt lat="48.70419" lon="2.56389">
        <ele>95</ele>
        <time>2020-12-10T09:04:14.617Z</time>
      </trkpt>
      <trkpt lat="48.70415" lon="2.56401">
        <ele>95</ele>
        <time>2020-12-10T09:04:19.614Z</time>
      </trkpt>
      <trkpt lat="48.70414" lon="2.56408">
        <ele>95</ele>
        <time>2020-12-10T09:04:24.620Z</time>
      </trkpt>
      <trkpt lat="48.70411" lon="2.56412">
        <ele>95</ele>
        <time>2020-12-10T09:04:29.614Z</time>
      </trkpt>
      <trkpt lat="48.70405" lon="2.56413">
        <ele>95</ele>
        <time>2020-12-10T09:04:34.614Z</time>
      </trkpt>
      <trkpt lat="48.70402" lon="2.56413">
        <ele>96</ele>
        <time>2020-12-10T09:04:39.622Z</time>
      </trkpt>
      <trkpt lat="48.70398" lon="2.56405">
        <ele>96</ele>
        <time>2020-12-10T09:04:44.612Z</time>
      </trkpt>
      <trkpt lat="48.70394" lon="2.564">
        <ele>96</ele>
        <time>2020-12-10T09:04:49.608Z</time>
      </trkpt>
      <trkpt lat="48.7039" lon="2.56396">
        <ele>96</ele>
        <time>2020-12-10T09:04:54.618Z</time>
      </trkpt>
      <trkpt lat="48.70387" lon="2.5639">
        <ele>96</ele>
        <time>2020-12-10T09:04:59.609Z</time>
      </trkpt>
      <trkpt lat="48.70383" lon="2.56382">
        <ele>96</ele>
        <time>2020-12-10T09:05:04.606Z</time>
      </trkpt>
      <trkpt lat="48.7038" lon="2.56377">
        <ele>96</ele>
        <time>2020-12-10T09:05:09.620Z</time>
      </trkpt>
      <trkpt lat="48.70375" lon="2.56369">
        <ele>95</ele>
        <time>2020-12-10T09:05:14.607Z</time>
      </trkpt>
      <trkpt lat="48.70371" lon="2.56362">
        <ele>97</ele>
        <time>2020-12-10T09:05:19.618Z</time>
      </trkpt>
      <trkpt lat="48.70366" lon="2.56355">
        <ele>97</ele>
        <time>2020-12-10T09:05:24.602Z</time>
      </trkpt>
      <trkpt lat="48.70362" lon="2.56351">
        <ele>97</ele>
        <time>2020-12-10T09:05:29.610Z</time>
      </trkpt>
      <trkpt lat="48.70358" lon="2.56347">
        <ele>97</ele>
        <time>2020-12-10T09:05:33.628Z</time>
      </trkpt>
      <trkpt lat="48.70355" lon="2.56345">
        <ele>97</ele>
        <time>2020-12-10T09:05:38.613Z</time>
      </trkpt>
      <trkpt lat="48.7035" lon="2.56344">
        <ele>97</ele>
        <time>2020-12-10T09:05:43.610Z</time>
      </trkpt>
      <trkpt lat="48.70343" lon="2.5634">
        <ele>97</ele>
        <time>2020-12-10T09:05:48.621Z</time>
      </trkpt>
      <trkpt lat="48.70337" lon="2.56334">
        <ele>97</ele>
        <time>2020-12-10T09:05:53.628Z</time>
      </trkpt>
      <trkpt lat="48.7033" lon="2.56324">
        <ele>97</ele>
        <time>2020-12-10T09:05:58.611Z</time>
      </trkpt>
      <trkpt lat="48.70327" lon="2.56322">
        <ele>97</ele>
        <time>2020-12-10T09:06:03.621Z</time>
      </trkpt>
      <trkpt lat="48.70326" lon="2.56318">
        <ele>97</ele>
        <time>2020-12-10T09:06:08.619Z</time>
      </trkpt>
      <trkpt lat="48.70322" lon="2.56308">
        <ele>97</ele>
        <time>2020-12-10T09:06:13.609Z</time>
      </trkpt>
      <trkpt lat="48.70318" lon="2.56304">
        <ele>96</ele>
        <time>2020-12-10T09:06:17.624Z</time>
      </trkpt>
      <trkpt lat="48.70315" lon="2.56301">
        <ele>96</ele>
        <time>2020-12-10T09:06:22.617Z</time>
      </trkpt>
      <trkpt lat="48.70312" lon="2.56296">
        <ele>96</ele>
        <time>2020-12-10T09:06:27.611Z</time>
      </trkpt>
      <trkpt lat="48.70307" lon="2.56294">
        <ele>96</ele>
        <time>2020-12-10T09:06:32.608Z</time>
      </trkpt>
      <trkpt lat="48.70303" lon="2.56297">
        <ele>96</ele>
        <time>2020-12-10T09:06:37.616Z</time>
      </trkpt>
      <trkpt lat="48.70299" lon="2.563">
        <ele>96</ele>
        <time>2020-12-10T09:06:42.614Z</time>
      </trkpt>
      <trkpt lat="48.70298" lon="2.563">
        <ele>96</ele>
        <time>2020-12-10T09:06:47.613Z</time>
      </trkpt>
      <trkpt lat="48.70293" lon="2.56287">
        <ele>96</ele>
        <time>2020-12-10T09:06:52.617Z</time>
      </trkpt>
      <trkpt lat="48.70289" lon="2.56279">
        <ele>95</ele>
        <time>2020-12-10T09:06:57.605Z</time>
      </trkpt>
      <trkpt lat="48.70284" lon="2.56282">
        <ele>95</ele>
        <time>2020-12-10T09:07:02.613Z</time>
      </trkpt>
      <trkpt lat="48.70278" lon="2.56288">
        <ele>95</ele>
        <time>2020-12-10T09:07:07.615Z</time>
      </trkpt>
      <trkpt lat="48.7027" lon="2.56296">
        <ele>95</ele>
        <time>2020-12-10T09:07:12.610Z</time>
      </trkpt>
      <trkpt lat="48.70261" lon="2.56304">
        <ele>95</ele>
        <time>2020-12-10T09:07:17.604Z</time>
      </trkpt>
      <trkpt lat="48.70256" lon="2.56311">
        <ele>95</ele>
        <time>2020-12-10T09:07:22.593Z</time>
      </trkpt>
      <trkpt lat="48.70252" lon="2.56315">
        <ele>95</ele>
        <time>2020-12-10T09:07:26.628Z</time>
      </trkpt>
      <trkpt lat="48.70248" lon="2.56322">
        <ele>95</ele>
        <time>2020-12-10T09:07:31.609Z</time>
      </trkpt>
      <trkpt lat="48.70243" lon="2.5633">
        <ele>95</ele>
        <time>2020-12-10T09:07:36.623Z</time>
      </trkpt>
      <trkpt lat="48.70239" lon="2.56336">
        <ele>95</ele>
        <time>2020-12-10T09:07:41.611Z</time>
      </trkpt>
      <trkpt lat="48.70235" lon="2.56343">
        <ele>95</ele>
        <time>2020-12-10T09:07:46.619Z</time>
      </trkpt>
      <trkpt lat="48.70228" lon="2.56352">
        <ele>94</ele>
        <time>2020-12-10T09:07:51.613Z</time>
      </trkpt>
      <trkpt lat="48.70222" lon="2.56357">
        <ele>94</ele>
        <time>2020-12-10T09:07:56.615Z</time>
      </trkpt>
      <trkpt lat="48.70217" lon="2.56364">
        <ele>94</ele>
        <time>2020-12-10T09:08:01.611Z</time>
      </trkpt>
      <trkpt lat="48.70215" lon="2.56368">
        <ele>94</ele>
        <time>2020-12-10T09:08:05.626Z</time>
      </trkpt>
      <trkpt lat="48.70212" lon="2.56375">
        <ele>94</ele>
        <time>2020-12-10T09:08:10.614Z</time>
      </trkpt>
      <trkpt lat="48.70207" lon="2.56385">
        <ele>94</ele>
        <time>2020-12-10T09:08:15.608Z</time>
      </trkpt>
      <trkpt lat="48.70202" lon="2.56389">
        <ele>94</ele>
        <time>2020-12-10T09:08:20.615Z</time>
      </trkpt>
      <trkpt lat="48.70199" lon="2.56395">
        <ele>94</ele>
        <time>2020-12-10T09:08:25.610Z</time>
      </trkpt>
      <trkpt lat="48.70195" lon="2.56401">
        <ele>94</ele>
        <time>2020-12-10T09:08:30.606Z</time>
      </trkpt>
      <trkpt lat="48.70191" lon="2.56409">
        <ele>95</ele>
        <time>2020-12-10T09:08:34.615Z</time>
      </trkpt>
      <trkpt lat="48.70186" lon="2.56422">
        <ele>95</ele>
        <time>2020-12-10T09:08:39.620Z</time>
      </trkpt>
      <trkpt lat="48.70182" lon="2.56432">
        <ele>95</ele>
        <time>2020-12-10T09:08:44.614Z</time>
      </trkpt>
      <trkpt lat="48.70179" lon="2.56439">
        <ele>95</ele>
        <time>2020-12-10T09:08:49.614Z</time>
      </trkpt>
      <trkpt lat="48.70177" lon="2.56443">
        <ele>95</ele>
        <time>2020-12-10T09:08:54.608Z</time>
      </trkpt>
      <trkpt lat="48.70171" lon="2.56453">
        <ele>95</ele>
        <time>2020-12-10T09:08:59.620Z</time>
      </trkpt>
      <trkpt lat="48.70165" lon="2.56463">
        <ele>96</ele>
        <time>2020-12-10T09:09:04.624Z</time>
      </trkpt>
      <trkpt lat="48.70161" lon="2.56473">
        <ele>96</ele>
        <time>2020-12-10T09:09:09.607Z</time>
      </trkpt>
      <trkpt lat="48.70158" lon="2.56477">
        <ele>96</ele>
        <time>2020-12-10T09:09:14.615Z</time>
      </trkpt>
      <trkpt lat="48.70154" lon="2.56486">
        <ele>97</ele>
        <time>2020-12-10T09:09:19.608Z</time>
      </trkpt>
      <trkpt lat="48.7015" lon="2.56494">
        <ele>96</ele>
        <time>2020-12-10T09:09:23.627Z</time>
      </trkpt>
      <trkpt lat="48.70144" lon="2.56502">
        <ele>96</ele>
        <time>2020-12-10T09:09:28.615Z</time>
      </trkpt>
      <trkpt lat="48.7014" lon="2.56509">
        <ele>96</ele>
        <time>2020-12-10T09:09:33.623Z</time>
      </trkpt>
      <trkpt lat="48.70137" lon="2.56513">
        <ele>96</ele>
        <time>2020-12-10T09:09:37.633Z</time>
      </trkpt>
      <trkpt lat="48.70131" lon="2.5652">
        <ele>96</ele>
        <time>2020-12-10T09:09:42.620Z</time>
      </trkpt>
      <trkpt lat="48.70126" lon="2.56531">
        <ele>96</ele>
        <time>2020-12-10T09:09:47.613Z</time>
      </trkpt>
      <trkpt lat="48.70126" lon="2.56534">
        <ele>96</ele>
        <time>2020-12-10T09:09:52.619Z</time>
      </trkpt>
      <trkpt lat="48.7012" lon="2.56538">
        <ele>96</ele>
        <time>2020-12-10T09:09:57.615Z</time>
      </trkpt>
      <trkpt lat="48.70115" lon="2.56542">
        <ele>96</ele>
        <time>2020-12-10T09:10:02.596Z</time>
      </trkpt>
      <trkpt lat="48.70108" lon="2.56548">
        <ele>96</ele>
        <time>2020-12-10T09:10:07.597Z</time>
      </trkpt>
      <trkpt lat="48.701" lon="2.56553">
        <ele>96</ele>
        <time>2020-12-10T09:10:11.614Z</time>
      </trkpt>
      <trkpt lat="48.70093" lon="2.56561">
        <ele>95</ele>
        <time>2020-12-10T09:10:16.622Z</time>
      </trkpt>
      <trkpt lat="48.70089" lon="2.56567">
        <ele>95</ele>
        <time>2020-12-10T09:10:21.645Z</time>
      </trkpt>
      <trkpt lat="48.70085" lon="2.56572">
        <ele>95</ele>
        <time>2020-12-10T09:10:26.612Z</time>
      </trkpt>
      <trkpt lat="48.70081" lon="2.56578">
        <ele>95</ele>
        <time>2020-12-10T09:10:31.611Z</time>
      </trkpt>
      <trkpt lat="48.70078" lon="2.56584">
        <ele>95</ele>
        <time>2020-12-10T09:10:36.610Z</time>
      </trkpt>
      <trkpt lat="48.70076" lon="2.5659">
        <ele>95</ele>
        <time>2020-12-10T09:10:41.618Z</time>
      </trkpt>
      <trkpt lat="48.70071" lon="2.56598">
        <ele>95</ele>
        <time>2020-12-10T09:10:46.606Z</time>
      </trkpt>
      <trkpt lat="48.70067" lon="2.56606">
        <ele>95</ele>
        <time>2020-12-10T09:10:51.609Z</time>
      </trkpt>
      <trkpt lat="48.70063" lon="2.56615">
        <ele>95</ele>
        <time>2020-12-10T09:10:56.621Z</time>
      </trkpt>
      <trkpt lat="48.70059" lon="2.56622">
        <ele>95</ele>
        <time>2020-12-10T09:11:01.615Z</time>
      </trkpt>
      <trkpt lat="48.70056" lon="2.5663">
        <ele>94</ele>
        <time>2020-12-10T09:11:06.604Z</time>
      </trkpt>
      <trkpt lat="48.7005" lon="2.56642">
        <ele>94</ele>
        <time>2020-12-10T09:11:11.614Z</time>
      </trkpt>
      <trkpt lat="48.70043" lon="2.56651">
        <ele>94</ele>
        <time>2020-12-10T09:11:16.614Z</time>
      </trkpt>
      <trkpt lat="48.70039" lon="2.56659">
        <ele>94</ele>
        <time>2020-12-10T09:11:21.626Z</time>
      </trkpt>
      <trkpt lat="48.70035" lon="2.56664">
        <ele>94</ele>
        <time>2020-12-10T09:11:26.615Z</time>
      </trkpt>
      <trkpt lat="48.70032" lon="2.56668">
        <ele>94</ele>
        <time>2020-12-10T09:11:31.611Z</time>
      </trkpt>
      <trkpt lat="48.70029" lon="2.56673">
        <ele>94</ele>
        <time>2020-12-10T09:11:36.619Z</time>
      </trkpt>
      <trkpt lat="48.70025" lon="2.56678">
        <ele>94</ele>
        <time>2020-12-10T09:11:41.606Z</time>
      </trkpt>
      <trkpt lat="48.70021" lon="2.56684">
        <ele>95</ele>
        <time>2020-12-10T09:11:46.619Z</time>
      </trkpt>
      <trkpt lat="48.70017" lon="2.56696">
        <ele>95</ele>
        <time>2020-12-10T09:11:51.611Z</time>
      </trkpt>
      <trkpt lat="48.70014" lon="2.56704">
        <ele>93</ele>
        <time>2020-12-10T09:11:56.612Z</time>
      </trkpt>
      <trkpt lat="48.70011" lon="2.56711">
        <ele>94</ele>
        <time>2020-12-10T09:12:01.619Z</time>
      </trkpt>
      <trkpt lat="48.70008" lon="2.56719">
        <ele>94</ele>
        <time>2020-12-10T09:12:06.624Z</time>
      </trkpt>
      <trkpt lat="48.70002" lon="2.56725">
        <ele>94</ele>
        <time>2020-12-10T09:12:11.610Z</time>
      </trkpt>
      <trkpt lat="48.69998" lon="2.56734">
        <ele>94</ele>
        <time>2020-12-10T09:12:16.634Z</time>
      </trkpt>
      <trkpt lat="48.69992" lon="2.56744">
        <ele>94</ele>
        <time>2020-12-10T09:12:21.596Z</time>
      </trkpt>
      <trkpt lat="48.69988" lon="2.5675">
        <ele>94</ele>
        <time>2020-12-10T09:12:26.612Z</time>
      </trkpt>
      <trkpt lat="48.69985" lon="2.56758">
        <ele>94</ele>
        <time>2020-12-10T09:12:31.611Z</time>
      </trkpt>
      <trkpt lat="48.69984" lon="2.56767">
        <ele>93</ele>
        <time>2020-12-10T09:12:36.610Z</time>
      </trkpt>
      <trkpt lat="48.69979" lon="2.56778">
        <ele>93</ele>
        <time>2020-12-10T09:12:41.614Z</time>
      </trkpt>
      <trkpt lat="48.69975" lon="2.5679">
        <ele>93</ele>
        <time>2020-12-10T09:12:46.613Z</time>
      </trkpt>
      <trkpt lat="48.69969" lon="2.56798">
        <ele>93</ele>
        <time>2020-12-10T09:12:51.617Z</time>
      </trkpt>
      <trkpt lat="48.69964" lon="2.56809">
        <ele>93</ele>
        <time>2020-12-10T09:12:56.613Z</time>
      </trkpt>
      <trkpt lat="48.6996" lon="2.56816">
        <ele>93</ele>
        <time>2020-12-10T09:13:01.610Z</time>
      </trkpt>
      <trkpt lat="48.6996" lon="2.5682">
        <ele>93</ele>
        <time>2020-12-10T09:13:05.620Z</time>
      </trkpt>
      <trkpt lat="48.69956" lon="2.56831">
        <ele>93</ele>
        <time>2020-12-10T09:13:10.606Z</time>
      </trkpt>
      <trkpt lat="48.69952" lon="2.5684">
        <ele>93</ele>
        <time>2020-12-10T09:13:15.614Z</time>
      </trkpt>
      <trkpt lat="48.6995" lon="2.56849">
        <ele>93</ele>
        <time>2020-12-10T09:13:20.605Z</time>
      </trkpt>
      <trkpt lat="48.69947" lon="2.56858">
        <ele>93</ele>
        <time>2020-12-10T09:13:25.617Z</time>
      </trkpt>
      <trkpt lat="48.69943" lon="2.56864">
        <ele>93</ele>
        <time>2020-12-10T09:13:30.617Z</time>
      </trkpt>
      <trkpt lat="48.6994" lon="2.56874">
        <ele>93</ele>
        <time>2020-12-10T09:13:35.611Z</time>
      </trkpt>
      <trkpt lat="48.69935" lon="2.56885">
        <ele>94</ele>
        <time>2020-12-10T09:13:40.610Z</time>
      </trkpt>
      <trkpt lat="48.69929" lon="2.56896">
        <ele>94</ele>
        <time>2020-12-10T09:13:45.616Z</time>
      </trkpt>
      <trkpt lat="48.69923" lon="2.56899">
        <ele>94</ele>
        <time>2020-12-10T09:13:50.603Z</time>
      </trkpt>
      <trkpt lat="48.6992" lon="2.56903">
        <ele>93</ele>
        <time>2020-12-10T09:13:55.616Z</time>
      </trkpt>
      <trkpt lat="48.69915" lon="2.56907">
        <ele>93</ele>
        <time>2020-12-10T09:14:00.617Z</time>
      </trkpt>
      <trkpt lat="48.69911" lon="2.56911">
        <ele>93</ele>
        <time>2020-12-10T09:14:05.611Z</time>
      </trkpt>
      <trkpt lat="48.69909" lon="2.56921">
        <ele>93</ele>
        <time>2020-12-10T09:14:10.612Z</time>
      </trkpt>
      <trkpt lat="48.69906" lon="2.56931">
        <ele>94</ele>
        <time>2020-12-10T09:14:15.643Z</time>
      </trkpt>
      <trkpt lat="48.69903" lon="2.56942">
        <ele>93</ele>
        <time>2020-12-10T09:14:20.615Z</time>
      </trkpt>
      <trkpt lat="48.69902" lon="2.5695">
        <ele>93</ele>
        <time>2020-12-10T09:14:25.608Z</time>
      </trkpt>
      <trkpt lat="48.69896" lon="2.56957">
        <ele>93</ele>
        <time>2020-12-10T09:14:30.624Z</time>
      </trkpt>
      <trkpt lat="48.69895" lon="2.56963">
        <ele>93</ele>
        <time>2020-12-10T09:14:35.614Z</time>
      </trkpt>
      <trkpt lat="48.69891" lon="2.56967">
        <ele>93</ele>
        <time>2020-12-10T09:14:40.613Z</time>
      </trkpt>
      <trkpt lat="48.69888" lon="2.56976">
        <ele>93</ele>
        <time>2020-12-10T09:14:45.617Z</time>
      </trkpt>
      <trkpt lat="48.69883" lon="2.56985">
        <ele>93</ele>
        <time>2020-12-10T09:14:49.641Z</time>
      </trkpt>
      <trkpt lat="48.6988" lon="2.56995">
        <ele>93</ele>
        <time>2020-12-10T09:14:54.607Z</time>
      </trkpt>
      <trkpt lat="48.69875" lon="2.57006">
        <ele>93</ele>
        <time>2020-12-10T09:14:59.615Z</time>
      </trkpt>
      <trkpt lat="48.69869" lon="2.57015">
        <ele>93</ele>
        <time>2020-12-10T09:15:04.618Z</time>
      </trkpt>
      <trkpt lat="48.69864" lon="2.57025">
        <ele>93</ele>
        <time>2020-12-10T09:15:09.616Z</time>
      </trkpt>
      <trkpt lat="48.69858" lon="2.57033">
        <ele>93</ele>
        <time>2020-12-10T09:15:14.606Z</time>
      </trkpt>
      <trkpt lat="48.69853" lon="2.57038">
        <ele>93</ele>
        <time>2020-12-10T09:15:19.599Z</time>
      </trkpt>
      <trkpt lat="48.69852" lon="2.57047">
        <ele>94</ele>
        <time>2020-12-10T09:15:23.628Z</time>
      </trkpt>
      <trkpt lat="48.69848" lon="2.57056">
        <ele>94</ele>
        <time>2020-12-10T09:15:28.615Z</time>
      </trkpt>
      <trkpt lat="48.69844" lon="2.57065">
        <ele>94</ele>
        <time>2020-12-10T09:15:33.609Z</time>
      </trkpt>
      <trkpt lat="48.6984" lon="2.57074">
        <ele>94</ele>
        <time>2020-12-10T09:15:37.663Z</time>
      </trkpt>
      <trkpt lat="48.69835" lon="2.57088">
        <ele>94</ele>
        <time>2020-12-10T09:15:42.632Z</time>
      </trkpt>
      <trkpt lat="48.6983" lon="2.57101">
        <ele>95</ele>
        <time>2020-12-10T09:15:47.589Z</time>
      </trkpt>
      <trkpt lat="48.69827" lon="2.57108">
        <ele>95</ele>
        <time>2020-12-10T09:15:52.617Z</time>
      </trkpt>
      <trkpt lat="48.69822" lon="2.57116">
        <ele>95</ele>
        <time>2020-12-10T09:15:57.612Z</time>
      </trkpt>
      <trkpt lat="48.69816" lon="2.57124">
        <ele>96</ele>
        <time>2020-12-10T09:16:02.624Z</time>
      </trkpt>
      <trkpt lat="48.69813" lon="2.57135">
        <ele>96</ele>
        <time>2020-12-10T09:16:07.613Z</time>
      </trkpt>
      <trkpt lat="48.6982" lon="2.57143">
        <ele>95</ele>
        <time>2020-12-10T09:16:12.603Z</time>
      </trkpt>
      <trkpt lat="48.69826" lon="2.57152">
        <ele>95</ele>
        <time>2020-12-10T09:16:16.611Z</time>
      </trkpt>
      <trkpt lat="48.69831" lon="2.57158">
        <ele>96</ele>
        <time>2020-12-10T09:16:21.611Z</time>
      </trkpt>
      <trkpt lat="48.69835" lon="2.57162">
        <ele>96</ele>
        <time>2020-12-10T09:16:26.602Z</time>
      </trkpt>
      <trkpt lat="48.69838" lon="2.57168">
        <ele>96</ele>
        <time>2020-12-10T09:16:30.633Z</time>
      </trkpt>
      <trkpt lat="48.69844" lon="2.57176">
        <ele>96</ele>
        <time>2020-12-10T09:16:35.619Z</time>
      </trkpt>
      <trkpt lat="48.69848" lon="2.57181">
        <ele>96</ele>
        <time>2020-12-10T09:16:40.603Z</time>
      </trkpt>
      <trkpt lat="48.69853" lon="2.57187">
        <ele>96</ele>
        <time>2020-12-10T09:16:44.622Z</time>
      </trkpt>
      <trkpt lat="48.69857" lon="2.57193">
        <ele>96</ele>
        <time>2020-12-10T09:16:49.623Z</time>
      </trkpt>
      <trkpt lat="48.6986" lon="2.57196">
        <ele>96</ele>
        <time>2020-12-10T09:16:54.615Z</time>
      </trkpt>
      <trkpt lat="48.69867" lon="2.5721">
        <ele>96</ele>
        <time>2020-12-10T09:16:59.616Z</time>
      </trkpt>
      <trkpt lat="48.69872" lon="2.57214">
        <ele>96</ele>
        <time>2020-12-10T09:17:03.631Z</time>
      </trkpt>
      <trkpt lat="48.69875" lon="2.57222">
        <ele>94</ele>
        <time>2020-12-10T09:17:08.624Z</time>
      </trkpt>
      <trkpt lat="48.6988" lon="2.57226">
        <ele>94</ele>
        <time>2020-12-10T09:17:13.624Z</time>
      </trkpt>
      <trkpt lat="48.69888" lon="2.57233">
        <ele>94</ele>
        <time>2020-12-10T09:17:18.620Z</time>
      </trkpt>
      <trkpt lat="48.69894" lon="2.57233">
        <ele>94</ele>
        <time>2020-12-10T09:17:23.607Z</time>
      </trkpt>
      <trkpt lat="48.69896" lon="2.57237">
        <ele>94</ele>
        <time>2020-12-10T09:17:28.638Z</time>
      </trkpt>
      <trkpt lat="48.69902" lon="2.57239">
        <ele>94</ele>
        <time>2020-12-10T09:17:33.630Z</time>
      </trkpt>
      <trkpt lat="48.69905" lon="2.57242">
        <ele>94</ele>
        <time>2020-12-10T09:17:38.600Z</time>
      </trkpt>
      <trkpt lat="48.69909" lon="2.57251">
        <ele>94</ele>
        <time>2020-12-10T09:17:43.596Z</time>
      </trkpt>
      <trkpt lat="48.69914" lon="2.57255">
        <ele>94</ele>
        <time>2020-12-10T09:17:47.608Z</time>
      </trkpt>
      <trkpt lat="48.6992" lon="2.57262">
        <ele>94</ele>
        <time>2020-12-10T09:17:52.612Z</time>
      </trkpt>
      <trkpt lat="48.69923" lon="2.57268">
        <ele>94</ele>
        <time>2020-12-10T09:17:57.613Z</time>
      </trkpt>
      <trkpt lat="48.69927" lon="2.5727">
        <ele>94</ele>
        <time>2020-12-10T09:18:01.625Z</time>
      </trkpt>
      <trkpt lat="48.69933" lon="2.57277">
        <ele>95</ele>
        <time>2020-12-10T09:18:06.614Z</time>
      </trkpt>
      <trkpt lat="48.69938" lon="2.57284">
        <ele>95</ele>
        <time>2020-12-10T09:18:11.614Z</time>
      </trkpt>
      <trkpt lat="48.69941" lon="2.57293">
        <ele>96</ele>
        <time>2020-12-10T09:18:16.604Z</time>
      </trkpt>
      <trkpt lat="48.69944" lon="2.57301">
        <ele>96</ele>
        <time>2020-12-10T09:18:20.618Z</time>
      </trkpt>
      <trkpt lat="48.69945" lon="2.57309">
        <ele>96</ele>
        <time>2020-12-10T09:18:25.623Z</time>
      </trkpt>
      <trkpt lat="48.69949" lon="2.5731">
        <ele>96</ele>
        <time>2020-12-10T09:18:30.635Z</time>
      </trkpt>
      <trkpt lat="48.69957" lon="2.57321">
        <ele>96</ele>
        <time>2020-12-10T09:18:35.597Z</time>
      </trkpt>
      <trkpt lat="48.69959" lon="2.57325">
        <ele>97</ele>
        <time>2020-12-10T09:18:39.620Z</time>
      </trkpt>
      <trkpt lat="48.69962" lon="2.57328">
        <ele>97</ele>
        <time>2020-12-10T09:18:44.607Z</time>
      </trkpt>
      <trkpt lat="48.69967" lon="2.5733">
        <ele>97</ele>
        <time>2020-12-10T09:18:49.596Z</time>
      </trkpt>
      <trkpt lat="48.69971" lon="2.57334">
        <ele>97</ele>
        <time>2020-12-10T09:18:53.641Z</time>
      </trkpt>
      <trkpt lat="48.69976" lon="2.57341">
        <ele>97</ele>
        <time>2020-12-10T09:18:58.609Z</time>
      </trkpt>
      <trkpt lat="48.69979" lon="2.57344">
        <ele>97</ele>
        <time>2020-12-10T09:19:02.632Z</time>
      </trkpt>
      <trkpt lat="48.69984" lon="2.5735">
        <ele>97</ele>
        <time>2020-12-10T09:19:07.615Z</time>
      </trkpt>
      <trkpt lat="48.6999" lon="2.57357">
        <ele>97</ele>
        <time>2020-12-10T09:19:12.628Z</time>
      </trkpt>
      <trkpt lat="48.69996" lon="2.57367">
        <ele>97</ele>
        <time>2020-12-10T09:19:17.620Z</time>
      </trkpt>
      <trkpt lat="48.70003" lon="2.57372">
        <ele>97</ele>
        <time>2020-12-10T09:19:22.609Z</time>
      </trkpt>
      <trkpt lat="48.7001" lon="2.57374">
        <ele>97</ele>
        <time>2020-12-10T09:19:27.617Z</time>
      </trkpt>
      <trkpt lat="48.70016" lon="2.57383">
        <ele>97</ele>
        <time>2020-12-10T09:19:32.620Z</time>
      </trkpt>
      <trkpt lat="48.70022" lon="2.57389">
        <ele>97</ele>
        <time>2020-12-10T09:19:37.626Z</time>
      </trkpt>
      <trkpt lat="48.70027" lon="2.57393">
        <ele>97</ele>
        <time>2020-12-10T09:19:42.618Z</time>
      </trkpt>
      <trkpt lat="48.70036" lon="2.57401">
        <ele>97</ele>
        <time>2020-12-10T09:19:47.612Z</time>
      </trkpt>
      <trkpt lat="48.70043" lon="2.57405">
        <ele>96</ele>
        <time>2020-12-10T09:19:52.613Z</time>
      </trkpt>
      <trkpt lat="48.70047" lon="2.57408">
        <ele>96</ele>
        <time>2020-12-10T09:19:57.627Z</time>
      </trkpt>
      <trkpt lat="48.70049" lon="2.57413">
        <ele>96</ele>
        <time>2020-12-10T09:20:02.624Z</time>
      </trkpt>
      <trkpt lat="48.70055" lon="2.57419">
        <ele>96</ele>
        <time>2020-12-10T09:20:07.610Z</time>
      </trkpt>
      <trkpt lat="48.70061" lon="2.57425">
        <ele>96</ele>
        <time>2020-12-10T09:20:11.628Z</time>
      </trkpt>
      <trkpt lat="48.70067" lon="2.57426">
        <ele>96</ele>
        <time>2020-12-10T09:20:16.608Z</time>
      </trkpt>
      <trkpt lat="48.7007" lon="2.57424">
        <ele>95</ele>
        <time>2020-12-10T09:20:20.619Z</time>
      </trkpt>
      <trkpt lat="48.70072" lon="2.57427">
        <ele>95</ele>
        <time>2020-12-10T09:20:25.610Z</time>
      </trkpt>
      <trkpt lat="48.70074" lon="2.57427">
        <ele>95</ele>
        <time>2020-12-10T09:20:30.631Z</time>
      </trkpt>
      <trkpt lat="48.7008" lon="2.5742">
        <ele>95</ele>
        <time>2020-12-10T09:20:35.615Z</time>
      </trkpt>
      <trkpt lat="48.70087" lon="2.57419">
        <ele>95</ele>
        <time>2020-12-10T09:20:40.621Z</time>
      </trkpt>
      <trkpt lat="48.70095" lon="2.57415">
        <ele>95</ele>
        <time>2020-12-10T09:20:45.623Z</time>
      </trkpt>
      <trkpt lat="48.70102" lon="2.5741">
        <ele>92</ele>
        <time>2020-12-10T09:20:50.626Z</time>
      </trkpt>
      <trkpt lat="48.70107" lon="2.57405">
        <ele>92</ele>
        <time>2020-12-10T09:20:55.623Z</time>
      </trkpt>
      <trkpt lat="48.70113" lon="2.57401">
        <ele>93</ele>
        <time>2020-12-10T09:21:00.615Z</time>
      </trkpt>
      <trkpt lat="48.70118" lon="2.57394">
        <ele>93</ele>
        <time>2020-12-10T09:21:05.621Z</time>
      </trkpt>
      <trkpt lat="48.70123" lon="2.57388">
        <ele>93</ele>
        <time>2020-12-10T09:21:10.617Z</time>
      </trkpt>
      <trkpt lat="48.70128" lon="2.57386">
        <ele>92</ele>
        <time>2020-12-10T09:21:15.618Z</time>
      </trkpt>
      <trkpt lat="48.70133" lon="2.57382">
        <ele>92</ele>
        <time>2020-12-10T09:21:20.632Z</time>
      </trkpt>
      <trkpt lat="48.70139" lon="2.57376">
        <ele>92</ele>
        <time>2020-12-10T09:21:25.618Z</time>
      </trkpt>
      <trkpt lat="48.70147" lon="2.57368">
        <ele>94</ele>
        <time>2020-12-10T09:21:30.623Z</time>
      </trkpt>
      <trkpt lat="48.70153" lon="2.57362">
        <ele>94</ele>
        <time>2020-12-10T09:21:35.633Z</time>
      </trkpt>
      <trkpt lat="48.70159" lon="2.57358">
        <ele>94</ele>
        <time>2020-12-10T09:21:40.614Z</time>
      </trkpt>
      <trkpt lat="48.70164" lon="2.57354">
        <ele>94</ele>
        <time>2020-12-10T09:21:45.609Z</time>
      </trkpt>
      <trkpt lat="48.70168" lon="2.57347">
        <ele>94</ele>
        <time>2020-12-10T09:21:50.614Z</time>
      </trkpt>
      <trkpt lat="48.70172" lon="2.57339">
        <ele>94</ele>
        <time>2020-12-10T09:21:55.626Z</time>
      </trkpt>
      <trkpt lat="48.70177" lon="2.57331">
        <ele>94</ele>
        <time>2020-12-10T09:22:00.614Z</time>
      </trkpt>
      <trkpt lat="48.70182" lon="2.57326">
        <ele>94</ele>
        <time>2020-12-10T09:22:05.617Z</time>
      </trkpt>
      <trkpt lat="48.70187" lon="2.57321">
        <ele>94</ele>
        <time>2020-12-10T09:22:10.617Z</time>
      </trkpt>
      <trkpt lat="48.70192" lon="2.57315">
        <ele>94</ele>
        <time>2020-12-10T09:22:15.620Z</time>
      </trkpt>
      <trkpt lat="48.70197" lon="2.5731">
        <ele>94</ele>
        <time>2020-12-10T09:22:20.611Z</time>
      </trkpt>
      <trkpt lat="48.70202" lon="2.57303">
        <ele>94</ele>
        <time>2020-12-10T09:22:25.620Z</time>
      </trkpt>
      <trkpt lat="48.70207" lon="2.57297">
        <ele>94</ele>
        <time>2020-12-10T09:22:30.616Z</time>
      </trkpt>
      <trkpt lat="48.70211" lon="2.57294">
        <ele>93</ele>
        <time>2020-12-10T09:22:34.625Z</time>
      </trkpt>
      <trkpt lat="48.70217" lon="2.5729">
        <ele>93</ele>
        <time>2020-12-10T09:22:39.612Z</time>
      </trkpt>
      <trkpt lat="48.70223" lon="2.57282">
        <ele>93</ele>
        <time>2020-12-10T09:22:44.616Z</time>
      </trkpt>
      <trkpt lat="48.70229" lon="2.57275">
        <ele>93</ele>
        <time>2020-12-10T09:22:49.622Z</time>
      </trkpt>
      <trkpt lat="48.70233" lon="2.57267">
        <ele>93</ele>
        <time>2020-12-10T09:22:54.606Z</time>
      </trkpt>
      <trkpt lat="48.70238" lon="2.57261">
        <ele>93</ele>
        <time>2020-12-10T09:22:59.618Z</time>
      </trkpt>
      <trkpt lat="48.70241" lon="2.57256">
        <ele>93</ele>
        <time>2020-12-10T09:23:04.593Z</time>
      </trkpt>
      <trkpt lat="48.70243" lon="2.57251">
        <ele>93</ele>
        <time>2020-12-10T09:23:08.615Z</time>
      </trkpt>
      <trkpt lat="48.70248" lon="2.57242">
        <ele>93</ele>
        <time>2020-12-10T09:23:13.623Z</time>
      </trkpt>
      <trkpt lat="48.70253" lon="2.57233">
        <ele>93</ele>
        <time>2020-12-10T09:23:18.613Z</time>
      </trkpt>
      <trkpt lat="48.70256" lon="2.57224">
        <ele>93</ele>
        <time>2020-12-10T09:23:23.626Z</time>
      </trkpt>
      <trkpt lat="48.70261" lon="2.57219">
        <ele>93</ele>
        <time>2020-12-10T09:23:28.627Z</time>
      </trkpt>
      <trkpt lat="48.70266" lon="2.57212">
        <ele>92</ele>
        <time>2020-12-10T09:23:33.620Z</time>
      </trkpt>
      <trkpt lat="48.70271" lon="2.572">
        <ele>93</ele>
        <time>2020-12-10T09:23:38.615Z</time>
      </trkpt>
      <trkpt lat="48.70275" lon="2.57191">
        <ele>93</ele>
        <time>2020-12-10T09:23:43.602Z</time>
      </trkpt>
      <trkpt lat="48.70278" lon="2.57186">
        <ele>93</ele>
        <time>2020-12-10T09:23:47.620Z</time>
      </trkpt>
      <trkpt lat="48.70284" lon="2.5718">
        <ele>94</ele>
        <time>2020-12-10T09:23:52.614Z</time>
      </trkpt>
      <trkpt lat="48.70288" lon="2.5717">
        <ele>94</ele>
        <time>2020-12-10T09:23:57.616Z</time>
      </trkpt>
      <trkpt lat="48.7029" lon="2.57161">
        <ele>94</ele>
        <time>2020-12-10T09:24:02.602Z</time>
      </trkpt>
      <trkpt lat="48.70291" lon="2.57151">
        <ele>94</ele>
        <time>2020-12-10T09:24:07.585Z</time>
      </trkpt>
      <trkpt lat="48.70294" lon="2.57143">
        <ele>95</ele>
        <time>2020-12-10T09:24:11.610Z</time>
      </trkpt>
      <trkpt lat="48.70296" lon="2.57135">
        <ele>95</ele>
        <time>2020-12-10T09:24:16.614Z</time>
      </trkpt>
      <trkpt lat="48.703" lon="2.57124">
        <ele>95</ele>
        <time>2020-12-10T09:24:21.627Z</time>
      </trkpt>
      <trkpt lat="48.70304" lon="2.57118">
        <ele>95</ele>
        <time>2020-12-10T09:24:26.618Z</time>
      </trkpt>
      <trkpt lat="48.70308" lon="2.57111">
        <ele>95</ele>
        <time>2020-12-10T09:24:31.615Z</time>
      </trkpt>
      <trkpt lat="48.70311" lon="2.57103">
        <ele>95</ele>
        <time>2020-12-10T09:24:36.605Z</time>
      </trkpt>
      <trkpt lat="48.70315" lon="2.57095">
        <ele>95</ele>
        <time>2020-12-10T09:24:41.613Z</time>
      </trkpt>
      <trkpt lat="48.70318" lon="2.57086">
        <ele>95</ele>
        <time>2020-12-10T09:24:46.612Z</time>
      </trkpt>
      <trkpt lat="48.70321" lon="2.57078">
        <ele>95</ele>
        <time>2020-12-10T09:24:51.608Z</time>
      </trkpt>
      <trkpt lat="48.70323" lon="2.57069">
        <ele>95</ele>
        <time>2020-12-10T09:24:56.609Z</time>
      </trkpt>
      <trkpt lat="48.70325" lon="2.57065">
        <ele>95</ele>
        <time>2020-12-10T09:25:01.614Z</time>
      </trkpt>
      <trkpt lat="48.70327" lon="2.57061">
        <ele>95</ele>
        <time>2020-12-10T09:25:05.629Z</time>
      </trkpt>
      <trkpt lat="48.70329" lon="2.57052">
        <ele>95</ele>
        <time>2020-12-10T09:25:10.619Z</time>
      </trkpt>
      <trkpt lat="48.70338" lon="2.57038">
        <ele>95</ele>
        <time>2020-12-10T09:25:15.620Z</time>
      </trkpt>
      <trkpt lat="48.70343" lon="2.57029">
        <ele>95</ele>
        <time>2020-12-10T09:25:20.605Z</time>
      </trkpt>
      <trkpt lat="48.70346" lon="2.5702">
        <ele>95</ele>
        <time>2020-12-10T09:25:25.614Z</time>
      </trkpt>
      <trkpt lat="48.7035" lon="2.57014">
        <ele>95</ele>
        <time>2020-12-10T09:25:30.615Z</time>
      </trkpt>
      <trkpt lat="48.70356" lon="2.57014">
        <ele>95</ele>
        <time>2020-12-10T09:25:35.597Z</time>
      </trkpt>
      <trkpt lat="48.7036" lon="2.57012">
        <ele>94</ele>
        <time>2020-12-10T09:25:40.597Z</time>
      </trkpt>
      <trkpt lat="48.7036" lon="2.57009">
        <ele>94</ele>
        <time>2020-12-10T09:25:44.621Z</time>
      </trkpt>
      <trkpt lat="48.70362" lon="2.57012">
        <ele>94</ele>
        <time>2020-12-10T09:25:49.597Z</time>
      </trkpt>
      <trkpt lat="48.70366" lon="2.57017">
        <ele>95</ele>
        <time>2020-12-10T09:25:53.628Z</time>
      </trkpt>
      <trkpt lat="48.7037" lon="2.57022">
        <ele>95</ele>
        <time>2020-12-10T09:25:58.612Z</time>
      </trkpt>
      <trkpt lat="48.70372" lon="2.5703">
        <ele>95</ele>
        <time>2020-12-10T09:26:03.620Z</time>
      </trkpt>
      <trkpt lat="48.70373" lon="2.57036">
        <ele>95</ele>
        <time>2020-12-10T09:26:08.614Z</time>
      </trkpt>
      <trkpt lat="48.70374" lon="2.5704">
        <ele>95</ele>
        <time>2020-12-10T09:26:13.608Z</time>
      </trkpt>
      <trkpt lat="48.70379" lon="2.57046">
        <ele>94</ele>
        <time>2020-12-10T09:26:18.624Z</time>
      </trkpt>
      <trkpt lat="48.70385" lon="2.57053">
        <ele>94</ele>
        <time>2020-12-10T09:26:23.608Z</time>
      </trkpt>
      <trkpt lat="48.70388" lon="2.57054">
        <ele>94</ele>
        <time>2020-12-10T09:26:28.602Z</time>
      </trkpt>
      <trkpt lat="48.70391" lon="2.57055">
        <ele>94</ele>
        <time>2020-12-10T09:26:32.613Z</time>
      </trkpt>
      <trkpt lat="48.70398" lon="2.57054">
        <ele>94</ele>
        <time>2020-12-10T09:26:37.616Z</time>
      </trkpt>
      <trkpt lat="48.70404" lon="2.57052">
        <ele>94</ele>
        <time>2020-12-10T09:26:42.620Z</time>
      </trkpt>
      <trkpt lat="48.70411" lon="2.57047">
        <ele>94</ele>
        <time>2020-12-10T09:26:47.607Z</time>
      </trkpt>
      <trkpt lat="48.70418" lon="2.57043">
        <ele>94</ele>
        <time>2020-12-10T09:26:52.619Z</time>
      </trkpt>
      <trkpt lat="48.70425" lon="2.57039">
        <ele>94</ele>
        <time>2020-12-10T09:26:57.618Z</time>
      </trkpt>
      <trkpt lat="48.70433" lon="2.57033">
        <ele>94</ele>
        <time>2020-12-10T09:27:02.619Z</time>
      </trkpt>
      <trkpt lat="48.7044" lon="2.57029">
        <ele>94</ele>
        <time>2020-12-10T09:27:07.619Z</time>
      </trkpt>
      <trkpt lat="48.70445" lon="2.57027">
        <ele>94</ele>
        <time>2020-12-10T09:27:12.611Z</time>
      </trkpt>
      <trkpt lat="48.70453" lon="2.57022">
        <ele>94</ele>
        <time>2020-12-10T09:27:17.618Z</time>
      </trkpt>
      <trkpt lat="48.70459" lon="2.57019">
        <ele>94</ele>
        <time>2020-12-10T09:27:22.619Z</time>
      </trkpt>
      <trkpt lat="48.70466" lon="2.57013">
        <ele>93</ele>
        <time>2020-12-10T09:27:27.618Z</time>
      </trkpt>
      <trkpt lat="48.70472" lon="2.57009">
        <ele>93</ele>
        <time>2020-12-10T09:27:32.621Z</time>
      </trkpt>
      <trkpt lat="48.70478" lon="2.57007">
        <ele>93</ele>
        <time>2020-12-10T09:27:37.606Z</time>
      </trkpt>
      <trkpt lat="48.70484" lon="2.57003">
        <ele>93</ele>
        <time>2020-12-10T09:27:42.604Z</time>
      </trkpt>
      <trkpt lat="48.70488" lon="2.57">
        <ele>94</ele>
        <time>2020-12-10T09:27:46.622Z</time>
      </trkpt>
      <trkpt lat="48.70497" lon="2.56996">
        <ele>94</ele>
        <time>2020-12-10T09:27:51.618Z</time>
      </trkpt>
      <trkpt lat="48.70504" lon="2.56991">
        <ele>94</ele>
        <time>2020-12-10T09:27:56.615Z</time>
      </trkpt>
      <trkpt lat="48.70511" lon="2.56987">
        <ele>94</ele>
        <time>2020-12-10T09:28:01.617Z</time>
      </trkpt>
      <trkpt lat="48.70517" lon="2.56984">
        <ele>93</ele>
        <time>2020-12-10T09:28:06.623Z</time>
      </trkpt>
      <trkpt lat="48.70524" lon="2.5698">
        <ele>93</ele>
        <time>2020-12-10T09:28:11.619Z</time>
      </trkpt>
      <trkpt lat="48.70535" lon="2.56974">
        <ele>93</ele>
        <time>2020-12-10T09:28:31.612Z</time>
      </trkpt>
      <trkpt lat="48.70539" lon="2.56982">
        <ele>93</ele>
        <time>2020-12-10T09:28:36.608Z</time>
      </trkpt>
      <trkpt lat="48.70542" lon="2.56986">
        <ele>93</ele>
        <time>2020-12-10T09:28:41.614Z</time>
      </trkpt>
      <trkpt lat="48.70552" lon="2.56985">
        <ele>93</ele>
        <time>2020-12-10T09:28:46.600Z</time>
      </trkpt>
      <trkpt lat="48.70559" lon="2.56985">
        <ele>93</ele>
        <time>2020-12-10T09:28:50.615Z</time>
      </trkpt>
      <trkpt lat="48.70568" lon="2.56984">
        <ele>93</ele>
        <time>2020-12-10T09:28:55.609Z</time>
      </trkpt>
      <trkpt lat="48.70576" lon="2.56982">
        <ele>94</ele>
        <time>2020-12-10T09:29:00.603Z</time>
      </trkpt>
      <trkpt lat="48.70585" lon="2.56975">
        <ele>94</ele>
        <time>2020-12-10T09:29:05.616Z</time>
      </trkpt>
      <trkpt lat="48.70591" lon="2.56971">
        <ele>94</ele>
        <time>2020-12-10T09:29:10.626Z</time>
      </trkpt>
      <trkpt lat="48.70595" lon="2.56968">
        <ele>94</ele>
        <time>2020-12-10T09:29:15.620Z</time>
      </trkpt>
      <trkpt lat="48.70601" lon="2.56966">
        <ele>94</ele>
        <time>2020-12-10T09:29:20.611Z</time>
      </trkpt>
      <trkpt lat="48.70609" lon="2.56962">
        <ele>94</ele>
        <time>2020-12-10T09:29:25.619Z</time>
      </trkpt>
      <trkpt lat="48.70614" lon="2.56958">
        <ele>94</ele>
        <time>2020-12-10T09:29:30.624Z</time>
      </trkpt>
      <trkpt lat="48.7062" lon="2.56958">
        <ele>94</ele>
        <time>2020-12-10T09:29:35.608Z</time>
      </trkpt>
      <trkpt lat="48.7063" lon="2.56956">
        <ele>93</ele>
        <time>2020-12-10T09:29:40.590Z</time>
      </trkpt>
      <trkpt lat="48.70634" lon="2.56957">
        <ele>93</ele>
        <time>2020-12-10T09:29:45.618Z</time>
      </trkpt>
      <trkpt lat="48.70637" lon="2.56955">
        <ele>93</ele>
        <time>2020-12-10T09:29:50.628Z</time>
      </trkpt>
      <trkpt lat="48.70642" lon="2.56948">
        <ele>93</ele>
        <time>2020-12-10T09:29:55.605Z</time>
      </trkpt>
      <trkpt lat="48.70648" lon="2.56941">
        <ele>93</ele>
        <time>2020-12-10T09:30:00.606Z</time>
      </trkpt>
      <trkpt lat="48.70655" lon="2.56932">
        <ele>93</ele>
        <time>2020-12-10T09:30:05.604Z</time>
      </trkpt>
      <trkpt lat="48.70662" lon="2.56925">
        <ele>93</ele>
        <time>2020-12-10T09:30:10.620Z</time>
      </trkpt>
      <trkpt lat="48.70665" lon="2.56924">
        <ele>93</ele>
        <time>2020-12-10T09:30:14.650Z</time>
      </trkpt>
      <trkpt lat="48.70671" lon="2.56919">
        <ele>93</ele>
        <time>2020-12-10T09:30:19.612Z</time>
      </trkpt>
      <trkpt lat="48.70677" lon="2.56914">
        <ele>93</ele>
        <time>2020-12-10T09:30:24.609Z</time>
      </trkpt>
      <trkpt lat="48.70685" lon="2.56909">
        <ele>95</ele>
        <time>2020-12-10T09:30:29.598Z</time>
      </trkpt>
      <trkpt lat="48.70691" lon="2.56907">
        <ele>95</ele>
        <time>2020-12-10T09:30:33.612Z</time>
      </trkpt>
      <trkpt lat="48.70698" lon="2.56901">
        <ele>95</ele>
        <time>2020-12-10T09:30:38.615Z</time>
      </trkpt>
      <trkpt lat="48.70705" lon="2.56899">
        <ele>95</ele>
        <time>2020-12-10T09:30:43.610Z</time>
      </trkpt>
      <trkpt lat="48.70709" lon="2.56897">
        <ele>94</ele>
        <time>2020-12-10T09:30:47.618Z</time>
      </trkpt>
      <trkpt lat="48.70715" lon="2.56888">
        <ele>94</ele>
        <time>2020-12-10T09:30:52.599Z</time>
      </trkpt>
      <trkpt lat="48.70719" lon="2.56884">
        <ele>94</ele>
        <time>2020-12-10T09:30:57.614Z</time>
      </trkpt>
      <trkpt lat="48.70722" lon="2.56881">
        <ele>94</ele>
        <time>2020-12-10T09:31:02.612Z</time>
      </trkpt>
      <trkpt lat="48.70721" lon="2.56879">
        <ele>94</ele>
        <time>2020-12-10T09:31:07.612Z</time>
      </trkpt>
      <trkpt lat="48.70729" lon="2.56879">
        <ele>94</ele>
        <time>2020-12-10T09:31:42.613Z</time>
      </trkpt>
      <trkpt lat="48.7073" lon="2.56887">
        <ele>94</ele>
        <time>2020-12-10T09:31:47.618Z</time>
      </trkpt>
      <trkpt lat="48.70731" lon="2.56897">
        <ele>94</ele>
        <time>2020-12-10T09:31:52.613Z</time>
      </trkpt>
      <trkpt lat="48.70731" lon="2.56904">
        <ele>95</ele>
        <time>2020-12-10T09:31:57.614Z</time>
      </trkpt>
      <trkpt lat="48.70733" lon="2.56913">
        <ele>95</ele>
        <time>2020-12-10T09:32:02.613Z</time>
      </trkpt>
      <trkpt lat="48.70733" lon="2.56923">
        <ele>95</ele>
        <time>2020-12-10T09:32:07.614Z</time>
      </trkpt>
      <trkpt lat="48.70735" lon="2.56931">
        <ele>95</ele>
        <time>2020-12-10T09:32:12.617Z</time>
      </trkpt>
      <trkpt lat="48.70735" lon="2.5694">
        <ele>95</ele>
        <time>2020-12-10T09:32:17.614Z</time>
      </trkpt>
      <trkpt lat="48.70735" lon="2.56949">
        <ele>95</ele>
        <time>2020-12-10T09:32:22.616Z</time>
      </trkpt>
      <trkpt lat="48.70736" lon="2.56959">
        <ele>95</ele>
        <time>2020-12-10T09:32:27.605Z</time>
      </trkpt>
      <trkpt lat="48.70737" lon="2.56966">
        <ele>94</ele>
        <time>2020-12-10T09:32:32.590Z</time>
      </trkpt>
      <trkpt lat="48.70739" lon="2.56972">
        <ele>94</ele>
        <time>2020-12-10T09:32:36.627Z</time>
      </trkpt>
      <trkpt lat="48.70741" lon="2.56983">
        <ele>94</ele>
        <time>2020-12-10T09:32:41.614Z</time>
      </trkpt>
      <trkpt lat="48.70742" lon="2.56992">
        <ele>94</ele>
        <time>2020-12-10T09:32:46.617Z</time>
      </trkpt>
      <trkpt lat="48.70745" lon="2.57001">
        <ele>94</ele>
        <time>2020-12-10T09:32:51.619Z</time>
      </trkpt>
      <trkpt lat="48.70746" lon="2.5701">
        <ele>94</ele>
        <time>2020-12-10T09:32:56.613Z</time>
      </trkpt>
      <trkpt lat="48.70748" lon="2.57018">
        <ele>94</ele>
        <time>2020-12-10T09:33:01.633Z</time>
      </trkpt>
      <trkpt lat="48.7075" lon="2.57028">
        <ele>94</ele>
        <time>2020-12-10T09:33:06.611Z</time>
      </trkpt>
      <trkpt lat="48.70754" lon="2.57038">
        <ele>94</ele>
        <time>2020-12-10T09:33:11.620Z</time>
      </trkpt>
      <trkpt lat="48.70758" lon="2.57047">
        <ele>93</ele>
        <time>2020-12-10T09:33:16.607Z</time>
      </trkpt>
      <trkpt lat="48.70759" lon="2.57058">
        <ele>93</ele>
        <time>2020-12-10T09:33:21.605Z</time>
      </trkpt>
      <trkpt lat="48.70763" lon="2.57069">
        <ele>93</ele>
        <time>2020-12-10T09:33:31.614Z</time>
      </trkpt>
      <trkpt lat="48.70764" lon="2.57069">
        <ele>93</ele>
        <time>2020-12-10T09:33:36.615Z</time>
      </trkpt>
      <trkpt lat="48.70764" lon="2.5707">
        <ele>93</ele>
        <time>2020-12-10T09:33:41.617Z</time>
      </trkpt>
      <trkpt lat="48.70766" lon="2.57073">
        <ele>93</ele>
        <time>2020-12-10T09:33:46.622Z</time>
      </trkpt>
      <trkpt lat="48.70768" lon="2.57079">
        <ele>93</ele>
        <time>2020-12-10T09:33:51.616Z</time>
      </trkpt>
      <trkpt lat="48.7077" lon="2.57087">
        <ele>93</ele>
        <time>2020-12-10T09:33:56.612Z</time>
      </trkpt>
      <trkpt lat="48.70772" lon="2.57097">
        <ele>93</ele>
        <time>2020-12-10T09:34:01.612Z</time>
      </trkpt>
      <trkpt lat="48.70774" lon="2.57102">
        <ele>92</ele>
        <time>2020-12-10T09:34:06.638Z</time>
      </trkpt>
      <trkpt lat="48.70777" lon="2.57106">
        <ele>92</ele>
        <time>2020-12-10T09:34:11.614Z</time>
      </trkpt>
      <trkpt lat="48.7078" lon="2.5711">
        <ele>92</ele>
        <time>2020-12-10T09:34:21.610Z</time>
      </trkpt>
      <trkpt lat="48.70783" lon="2.57113">
        <ele>92</ele>
        <time>2020-12-10T09:34:26.616Z</time>
      </trkpt>
      <trkpt lat="48.70783" lon="2.57116">
        <ele>92</ele>
        <time>2020-12-10T09:34:31.620Z</time>
      </trkpt>
      <trkpt lat="48.70783" lon="2.57121">
        <ele>92</ele>
        <time>2020-12-10T09:34:36.612Z</time>
      </trkpt>
      <trkpt lat="48.70785" lon="2.57128">
        <ele>93</ele>
        <time>2020-12-10T09:34:41.610Z</time>
      </trkpt>
      <trkpt lat="48.70785" lon="2.57138">
        <ele>93</ele>
        <time>2020-12-10T09:34:46.618Z</time>
      </trkpt>
      <trkpt lat="48.70785" lon="2.57148">
        <ele>93</ele>
        <time>2020-12-10T09:34:51.607Z</time>
      </trkpt>
      <trkpt lat="48.70785" lon="2.5716">
        <ele>94</ele>
        <time>2020-12-10T09:34:56.619Z</time>
      </trkpt>
      <trkpt lat="48.70787" lon="2.57172">
        <ele>94</ele>
        <time>2020-12-10T09:35:01.614Z</time>
      </trkpt>
      <trkpt lat="48.70788" lon="2.57179">
        <ele>94</ele>
        <time>2020-12-10T09:35:06.615Z</time>
      </trkpt>
      <trkpt lat="48.70788" lon="2.57188">
        <ele>95</ele>
        <time>2020-12-10T09:35:11.619Z</time>
      </trkpt>
      <trkpt lat="48.70788" lon="2.57196">
        <ele>95</ele>
        <time>2020-12-10T09:35:16.621Z</time>
      </trkpt>
      <trkpt lat="48.70789" lon="2.57205">
        <ele>95</ele>
        <time>2020-12-10T09:35:21.635Z</time>
      </trkpt>
      <trkpt lat="48.70789" lon="2.57217">
        <ele>95</ele>
        <time>2020-12-10T09:35:26.618Z</time>
      </trkpt>
      <trkpt lat="48.7079" lon="2.57223">
        <ele>95</ele>
        <time>2020-12-10T09:35:31.624Z</time>
      </trkpt>
      <trkpt lat="48.70792" lon="2.57232">
        <ele>96</ele>
        <time>2020-12-10T09:35:36.613Z</time>
      </trkpt>
      <trkpt lat="48.70793" lon="2.57239">
        <ele>96</ele>
        <time>2020-12-10T09:35:41.614Z</time>
      </trkpt>
      <trkpt lat="48.70793" lon="2.57245">
        <ele>96</ele>
        <time>2020-12-10T09:35:46.618Z</time>
      </trkpt>
      <trkpt lat="48.70795" lon="2.57252">
        <ele>96</ele>
        <time>2020-12-10T09:35:51.615Z</time>
      </trkpt>
      <trkpt lat="48.70797" lon="2.57259">
        <ele>96</ele>
        <time>2020-12-10T09:35:56.623Z</time>
      </trkpt>
      <trkpt lat="48.70801" lon="2.57266">
        <ele>96</ele>
        <time>2020-12-10T09:36:01.618Z</time>
      </trkpt>
      <trkpt lat="48.70803" lon="2.57273">
        <ele>96</ele>
        <time>2020-12-10T09:36:06.609Z</time>
      </trkpt>
      <trkpt lat="48.70808" lon="2.57279">
        <ele>96</ele>
        <time>2020-12-10T09:36:11.628Z</time>
      </trkpt>
      <trkpt lat="48.70814" lon="2.57283">
        <ele>96</ele>
        <time>2020-12-10T09:36:16.610Z</time>
      </trkpt>
      <trkpt lat="48.70819" lon="2.57288">
        <ele>96</ele>
        <time>2020-12-10T09:36:21.612Z</time>
      </trkpt>
      <trkpt lat="48.70826" lon="2.57292">
        <ele>97</ele>
        <time>2020-12-10T09:36:26.613Z</time>
      </trkpt>
      <trkpt lat="48.70831" lon="2.57297">
        <ele>97</ele>
        <time>2020-12-10T09:36:31.617Z</time>
      </trkpt>
      <trkpt lat="48.70839" lon="2.57302">
        <ele>97</ele>
        <time>2020-12-10T09:36:36.604Z</time>
      </trkpt>
      <trkpt lat="48.70842" lon="2.57305">
        <ele>97</ele>
        <time>2020-12-10T09:36:40.617Z</time>
      </trkpt>
      <trkpt lat="48.70849" lon="2.57311">
        <ele>96</ele>
        <time>2020-12-10T09:36:45.617Z</time>
      </trkpt>
      <trkpt lat="48.70857" lon="2.57322">
        <ele>96</ele>
        <time>2020-12-10T09:36:50.612Z</time>
      </trkpt>
      <trkpt lat="48.70862" lon="2.57331">
        <ele>96</ele>
        <time>2020-12-10T09:36:55.608Z</time>
      </trkpt>
      <trkpt lat="48.70865" lon="2.57338">
        <ele>96</ele>
        <time>2020-12-10T09:37:00.628Z</time>
      </trkpt>
      <trkpt lat="48.70866" lon="2.57349">
        <ele>96</ele>
        <time>2020-12-10T09:37:05.600Z</time>
      </trkpt>
      <trkpt lat="48.70867" lon="2.57359">
        <ele>96</ele>
        <time>2020-12-10T09:37:10.614Z</time>
      </trkpt>
      <trkpt lat="48.70868" lon="2.57373">
        <ele>96</ele>
        <time>2020-12-10T09:37:15.617Z</time>
      </trkpt>
      <trkpt lat="48.70868" lon="2.57384">
        <ele>96</ele>
        <time>2020-12-10T09:37:20.609Z</time>
      </trkpt>
      <trkpt lat="48.70868" lon="2.57394">
        <ele>96</ele>
        <time>2020-12-10T09:37:25.614Z</time>
      </trkpt>
      <trkpt lat="48.70868" lon="2.57401">
        <ele>96</ele>
        <time>2020-12-10T09:37:30.612Z</time>
      </trkpt>
      <trkpt lat="48.7087" lon="2.5741">
        <ele>95</ele>
        <time>2020-12-10T09:37:35.597Z</time>
      </trkpt>
      <trkpt lat="48.70871" lon="2.57422">
        <ele>95</ele>
        <time>2020-12-10T09:37:39.618Z</time>
      </trkpt>
      <trkpt lat="48.70872" lon="2.57432">
        <ele>94</ele>
        <time>2020-12-10T09:37:44.628Z</time>
      </trkpt>
      <trkpt lat="48.70871" lon="2.57442">
        <ele>94</ele>
        <time>2020-12-10T09:37:49.616Z</time>
      </trkpt>
      <trkpt lat="48.70872" lon="2.57455">
        <ele>94</ele>
        <time>2020-12-10T09:37:54.615Z</time>
      </trkpt>
      <trkpt lat="48.70873" lon="2.57466">
        <ele>94</ele>
        <time>2020-12-10T09:37:59.611Z</time>
      </trkpt>
      <trkpt lat="48.70874" lon="2.57474">
        <ele>94</ele>
        <time>2020-12-10T09:38:04.609Z</time>
      </trkpt>
      <trkpt lat="48.70876" lon="2.57483">
        <ele>95</ele>
        <time>2020-12-10T09:38:09.619Z</time>
      </trkpt>
      <trkpt lat="48.70877" lon="2.57494">
        <ele>96</ele>
        <time>2020-12-10T09:38:14.615Z</time>
      </trkpt>
      <trkpt lat="48.70878" lon="2.57501">
        <ele>96</ele>
        <time>2020-12-10T09:38:19.615Z</time>
      </trkpt>
      <trkpt lat="48.70882" lon="2.57512">
        <ele>96</ele>
        <time>2020-12-10T09:38:24.613Z</time>
      </trkpt>
      <trkpt lat="48.70886" lon="2.5752">
        <ele>94</ele>
        <time>2020-12-10T09:38:29.610Z</time>
      </trkpt>
      <trkpt lat="48.70888" lon="2.57528">
        <ele>94</ele>
        <time>2020-12-10T09:38:34.629Z</time>
      </trkpt>
      <trkpt lat="48.70891" lon="2.57536">
        <ele>94</ele>
        <time>2020-12-10T09:38:39.598Z</time>
      </trkpt>
      <trkpt lat="48.70894" lon="2.57544">
        <ele>93</ele>
        <time>2020-12-10T09:38:44.612Z</time>
      </trkpt>
      <trkpt lat="48.70896" lon="2.57553">
        <ele>93</ele>
        <time>2020-12-10T09:38:49.616Z</time>
      </trkpt>
      <trkpt lat="48.70899" lon="2.57563">
        <ele>93</ele>
        <time>2020-12-10T09:38:54.610Z</time>
      </trkpt>
      <trkpt lat="48.70901" lon="2.57572">
        <ele>93</ele>
        <time>2020-12-10T09:38:59.610Z</time>
      </trkpt>
      <trkpt lat="48.70902" lon="2.5758">
        <ele>93</ele>
        <time>2020-12-10T09:39:04.610Z</time>
      </trkpt>
      <trkpt lat="48.70905" lon="2.57587">
        <ele>95</ele>
        <time>2020-12-10T09:39:09.612Z</time>
      </trkpt>
      <trkpt lat="48.70908" lon="2.57597">
        <ele>95</ele>
        <time>2020-12-10T09:39:14.610Z</time>
      </trkpt>
      <trkpt lat="48.70911" lon="2.57604">
        <ele>95</ele>
        <time>2020-12-10T09:39:19.613Z</time>
      </trkpt>
      <trkpt lat="48.70914" lon="2.57612">
        <ele>95</ele>
        <time>2020-12-10T09:39:24.603Z</time>
      </trkpt>
      <trkpt lat="48.70917" lon="2.57618">
        <ele>95</ele>
        <time>2020-12-10T09:39:28.613Z</time>
      </trkpt>
      <trkpt lat="48.7092" lon="2.57626">
        <ele>95</ele>
        <time>2020-12-10T09:39:33.617Z</time>
      </trkpt>
      <trkpt lat="48.70923" lon="2.57632">
        <ele>95</ele>
        <time>2020-12-10T09:39:38.612Z</time>
      </trkpt>
      <trkpt lat="48.70927" lon="2.57641">
        <ele>95</ele>
        <time>2020-12-10T09:39:43.598Z</time>
      </trkpt>
      <trkpt lat="48.7093" lon="2.57645">
        <ele>95</ele>
        <time>2020-12-10T09:39:47.624Z</time>
      </trkpt>
      <trkpt lat="48.70934" lon="2.57653">
        <ele>97</ele>
        <time>2020-12-10T09:39:52.614Z</time>
      </trkpt>
      <trkpt lat="48.70938" lon="2.5766">
        <ele>97</ele>
        <time>2020-12-10T09:39:57.615Z</time>
      </trkpt>
      <trkpt lat="48.70942" lon="2.57669">
        <ele>97</ele>
        <time>2020-12-10T09:40:02.615Z</time>
      </trkpt>
      <trkpt lat="48.70946" lon="2.57679">
        <ele>97</ele>
        <time>2020-12-10T09:40:07.620Z</time>
      </trkpt>
      <trkpt lat="48.70951" lon="2.57688">
        <ele>96</ele>
        <time>2020-12-10T09:40:12.608Z</time>
      </trkpt>
      <trkpt lat="48.70955" lon="2.57696">
        <ele>96</ele>
        <time>2020-12-10T09:40:17.613Z</time>
      </trkpt>
      <trkpt lat="48.70958" lon="2.57703">
        <ele>96</ele>
        <time>2020-12-10T09:40:22.616Z</time>
      </trkpt>
      <trkpt lat="48.7096" lon="2.57711">
        <ele>95</ele>
        <time>2020-12-10T09:40:27.619Z</time>
      </trkpt>
      <trkpt lat="48.70962" lon="2.57719">
        <ele>95</ele>
        <time>2020-12-10T09:40:32.619Z</time>
      </trkpt>
      <trkpt lat="48.70965" lon="2.5773">
        <ele>95</ele>
        <time>2020-12-10T09:40:37.607Z</time>
      </trkpt>
      <trkpt lat="48.7097" lon="2.5774">
        <ele>95</ele>
        <time>2020-12-10T09:40:41.623Z</time>
      </trkpt>
      <trkpt lat="48.70975" lon="2.57749">
        <ele>95</ele>
        <time>2020-12-10T09:40:46.609Z</time>
      </trkpt>
      <trkpt lat="48.70978" lon="2.57755">
        <ele>95</ele>
        <time>2020-12-10T09:40:51.606Z</time>
      </trkpt>
      <trkpt lat="48.70981" lon="2.57764">
        <ele>95</ele>
        <time>2020-12-10T09:40:56.611Z</time>
      </trkpt>
      <trkpt lat="48.70984" lon="2.57772">
        <ele>94</ele>
        <time>2020-12-10T09:41:01.621Z</time>
      </trkpt>
      <trkpt lat="48.70988" lon="2.57779">
        <ele>94</ele>
        <time>2020-12-10T09:41:06.604Z</time>
      </trkpt>
      <trkpt lat="48.70993" lon="2.57786">
        <ele>94</ele>
        <time>2020-12-10T09:41:11.613Z</time>
      </trkpt>
      <trkpt lat="48.70999" lon="2.57792">
        <ele>94</ele>
        <time>2020-12-10T09:41:16.622Z</time>
      </trkpt>
      <trkpt lat="48.71002" lon="2.57798">
        <ele>94</ele>
        <time>2020-12-10T09:41:20.643Z</time>
      </trkpt>
      <trkpt lat="48.71006" lon="2.57803">
        <ele>94</ele>
        <time>2020-12-10T09:41:25.621Z</time>
      </trkpt>
      <trkpt lat="48.71009" lon="2.57809">
        <ele>94</ele>
        <time>2020-12-10T09:41:30.620Z</time>
      </trkpt>
      <trkpt lat="48.71014" lon="2.57814">
        <ele>94</ele>
        <time>2020-12-10T09:41:35.614Z</time>
      </trkpt>
      <trkpt lat="48.71018" lon="2.5782">
        <ele>94</ele>
        <time>2020-12-10T09:41:40.616Z</time>
      </trkpt>
      <trkpt lat="48.71023" lon="2.57824">
        <ele>94</ele>
        <time>2020-12-10T09:41:45.615Z</time>
      </trkpt>
      <trkpt lat="48.71028" lon="2.57831">
        <ele>94</ele>
        <time>2020-12-10T09:41:50.618Z</time>
      </trkpt>
      <trkpt lat="48.71032" lon="2.57837">
        <ele>94</ele>
        <time>2020-12-10T09:41:55.612Z</time>
      </trkpt>
      <trkpt lat="48.71035" lon="2.57841">
        <ele>94</ele>
        <time>2020-12-10T09:42:00.618Z</time>
      </trkpt>
      <trkpt lat="48.71037" lon="2.57846">
        <ele>94</ele>
        <time>2020-12-10T09:42:04.637Z</time>
      </trkpt>
      <trkpt lat="48.71042" lon="2.57851">
        <ele>93</ele>
        <time>2020-12-10T09:42:09.603Z</time>
      </trkpt>
      <trkpt lat="48.71047" lon="2.57853">
        <ele>93</ele>
        <time>2020-12-10T09:42:14.620Z</time>
      </trkpt>
      <trkpt lat="48.71055" lon="2.57863">
        <ele>93</ele>
        <time>2020-12-10T09:42:19.612Z</time>
      </trkpt>
      <trkpt lat="48.71062" lon="2.57871">
        <ele>93</ele>
        <time>2020-12-10T09:42:24.614Z</time>
      </trkpt>
      <trkpt lat="48.71069" lon="2.57876">
        <ele>93</ele>
        <time>2020-12-10T09:42:29.608Z</time>
      </trkpt>
      <trkpt lat="48.71076" lon="2.57882">
        <ele>93</ele>
        <time>2020-12-10T09:42:34.623Z</time>
      </trkpt>
      <trkpt lat="48.71081" lon="2.57887">
        <ele>93</ele>
        <time>2020-12-10T09:42:39.616Z</time>
      </trkpt>
      <trkpt lat="48.71088" lon="2.57894">
        <ele>93</ele>
        <time>2020-12-10T09:42:44.605Z</time>
      </trkpt>
      <trkpt lat="48.71092" lon="2.579">
        <ele>93</ele>
        <time>2020-12-10T09:42:48.608Z</time>
      </trkpt>
      <trkpt lat="48.71099" lon="2.57906">
        <ele>93</ele>
        <time>2020-12-10T09:42:53.607Z</time>
      </trkpt>
      <trkpt lat="48.71102" lon="2.57918">
        <ele>93</ele>
        <time>2020-12-10T09:42:58.599Z</time>
      </trkpt>
      <trkpt lat="48.71104" lon="2.57929">
        <ele>93</ele>
        <time>2020-12-10T09:43:03.618Z</time>
      </trkpt>
      <trkpt lat="48.71107" lon="2.57937">
        <ele>93</ele>
        <time>2020-12-10T09:43:08.617Z</time>
      </trkpt>
      <trkpt lat="48.71111" lon="2.57949">
        <ele>93</ele>
        <time>2020-12-10T09:43:13.610Z</time>
      </trkpt>
      <trkpt lat="48.71113" lon="2.57958">
        <ele>93</ele>
        <time>2020-12-10T09:43:18.611Z</time>
      </trkpt>
      <trkpt lat="48.71117" lon="2.57968">
        <ele>94</ele>
        <time>2020-12-10T09:43:23.679Z</time>
      </trkpt>
      <trkpt lat="48.71119" lon="2.57973">
        <ele>94</ele>
        <time>2020-12-10T09:43:28.611Z</time>
      </trkpt>
      <trkpt lat="48.71123" lon="2.57983">
        <ele>94</ele>
        <time>2020-12-10T09:43:33.608Z</time>
      </trkpt>
      <trkpt lat="48.71126" lon="2.5799">
        <ele>93</ele>
        <time>2020-12-10T09:43:38.609Z</time>
      </trkpt>
      <trkpt lat="48.7113" lon="2.57999">
        <ele>93</ele>
        <time>2020-12-10T09:43:43.609Z</time>
      </trkpt>
      <trkpt lat="48.71133" lon="2.58007">
        <ele>93</ele>
        <time>2020-12-10T09:43:48.602Z</time>
      </trkpt>
      <trkpt lat="48.71137" lon="2.58013">
        <ele>93</ele>
        <time>2020-12-10T09:43:53.607Z</time>
      </trkpt>
      <trkpt lat="48.7114" lon="2.58019">
        <ele>94</ele>
        <time>2020-12-10T09:43:58.594Z</time>
      </trkpt>
      <trkpt lat="48.71138" lon="2.58029">
        <ele>94</ele>
        <time>2020-12-10T09:44:03.603Z</time>
      </trkpt>
      <trkpt lat="48.71135" lon="2.58036">
        <ele>94</ele>
        <time>2020-12-10T09:44:07.617Z</time>
      </trkpt>
      <trkpt lat="48.71129" lon="2.58043">
        <ele>95</ele>
        <time>2020-12-10T09:44:12.611Z</time>
      </trkpt>
      <trkpt lat="48.71126" lon="2.58047">
        <ele>95</ele>
        <time>2020-12-10T09:44:17.615Z</time>
      </trkpt>
      <trkpt lat="48.71123" lon="2.58051">
        <ele>95</ele>
        <time>2020-12-10T09:44:22.600Z</time>
      </trkpt>
      <trkpt lat="48.71119" lon="2.58058">
        <ele>95</ele>
        <time>2020-12-10T09:44:27.621Z</time>
      </trkpt>
      <trkpt lat="48.71117" lon="2.58071">
        <ele>95</ele>
        <time>2020-12-10T09:44:32.606Z</time>
      </trkpt>
      <trkpt lat="48.71118" lon="2.58083">
        <ele>95</ele>
        <time>2020-12-10T09:44:37.607Z</time>
      </trkpt>
      <trkpt lat="48.71121" lon="2.58094">
        <ele>95</ele>
        <time>2020-12-10T09:44:42.611Z</time>
      </trkpt>
      <trkpt lat="48.71125" lon="2.58099">
        <ele>95</ele>
        <time>2020-12-10T09:44:47.614Z</time>
      </trkpt>
      <trkpt lat="48.7113" lon="2.58102">
        <ele>95</ele>
        <time>2020-12-10T09:44:52.615Z</time>
      </trkpt>
      <trkpt lat="48.71137" lon="2.58106">
        <ele>95</ele>
        <time>2020-12-10T09:44:57.602Z</time>
      </trkpt>
      <trkpt lat="48.71145" lon="2.58105">
        <ele>95</ele>
        <time>2020-12-10T09:45:02.606Z</time>
      </trkpt>
      <trkpt lat="48.71151" lon="2.58105">
        <ele>95</ele>
        <time>2020-12-10T09:45:07.609Z</time>
      </trkpt>
      <trkpt lat="48.71155" lon="2.58107">
        <ele>96</ele>
        <time>2020-12-10T09:45:12.615Z</time>
      </trkpt>
      <trkpt lat="48.71155" lon="2.58113">
        <ele>96</ele>
        <time>2020-12-10T09:45:16.639Z</time>
      </trkpt>
      <trkpt lat="48.71156" lon="2.58125">
        <ele>96</ele>
        <time>2020-12-10T09:45:21.611Z</time>
      </trkpt>
      <trkpt lat="48.71155" lon="2.58134">
        <ele>96</ele>
        <time>2020-12-10T09:45:26.601Z</time>
      </trkpt>
      <trkpt lat="48.71159" lon="2.58147">
        <ele>96</ele>
        <time>2020-12-10T09:45:31.612Z</time>
      </trkpt>
      <trkpt lat="48.71163" lon="2.5815">
        <ele>96</ele>
        <time>2020-12-10T09:45:36.616Z</time>
      </trkpt>
      <trkpt lat="48.71164" lon="2.58154">
        <ele>96</ele>
        <time>2020-12-10T09:45:41.602Z</time>
      </trkpt>
      <trkpt lat="48.71168" lon="2.58162">
        <ele>96</ele>
        <time>2020-12-10T09:45:46.608Z</time>
      </trkpt>
      <trkpt lat="48.7117" lon="2.58164">
        <ele>96</ele>
        <time>2020-12-10T09:45:51.609Z</time>
      </trkpt>
      <trkpt lat="48.71173" lon="2.58166">
        <ele>96</ele>
        <time>2020-12-10T09:45:56.601Z</time>
      </trkpt>
      <trkpt lat="48.71179" lon="2.58172">
        <ele>96</ele>
        <time>2020-12-10T09:46:01.606Z</time>
      </trkpt>
      <trkpt lat="48.71184" lon="2.5818">
        <ele>96</ele>
        <time>2020-12-10T09:46:05.611Z</time>
      </trkpt>
      <trkpt lat="48.71188" lon="2.58186">
        <ele>97</ele>
        <time>2020-12-10T09:46:10.590Z</time>
      </trkpt>
      <trkpt lat="48.71194" lon="2.58193">
        <ele>97</ele>
        <time>2020-12-10T09:46:15.610Z</time>
      </trkpt>
      <trkpt lat="48.71199" lon="2.58202">
        <ele>97</ele>
        <time>2020-12-10T09:46:20.616Z</time>
      </trkpt>
      <trkpt lat="48.71205" lon="2.58206">
        <ele>97</ele>
        <time>2020-12-10T09:46:25.601Z</time>
      </trkpt>
      <trkpt lat="48.71207" lon="2.58211">
        <ele>97</ele>
        <time>2020-12-10T09:46:30.612Z</time>
      </trkpt>
      <trkpt lat="48.71212" lon="2.58219">
        <ele>96</ele>
        <time>2020-12-10T09:46:35.615Z</time>
      </trkpt>
      <trkpt lat="48.71219" lon="2.58224">
        <ele>96</ele>
        <time>2020-12-10T09:46:40.608Z</time>
      </trkpt>
      <trkpt lat="48.71221" lon="2.58226">
        <ele>96</ele>
        <time>2020-12-10T09:46:45.607Z</time>
      </trkpt>
      <trkpt lat="48.7123" lon="2.58234">
        <ele>96</ele>
        <time>2020-12-10T09:46:50.615Z</time>
      </trkpt>
      <trkpt lat="48.71238" lon="2.58238">
        <ele>94</ele>
        <time>2020-12-10T09:46:55.604Z</time>
      </trkpt>
      <trkpt lat="48.71245" lon="2.58243">
        <ele>94</ele>
        <time>2020-12-10T09:47:00.608Z</time>
      </trkpt>
      <trkpt lat="48.7125" lon="2.58248">
        <ele>94</ele>
        <time>2020-12-10T09:47:05.618Z</time>
      </trkpt>
      <trkpt lat="48.71255" lon="2.58252">
        <ele>94</ele>
        <time>2020-12-10T09:47:10.611Z</time>
      </trkpt>
      <trkpt lat="48.7126" lon="2.58259">
        <ele>94</ele>
        <time>2020-12-10T09:47:15.610Z</time>
      </trkpt>
      <trkpt lat="48.71266" lon="2.58262">
        <ele>94</ele>
        <time>2020-12-10T09:47:20.606Z</time>
      </trkpt>
      <trkpt lat="48.71275" lon="2.58265">
        <ele>94</ele>
        <time>2020-12-10T09:47:25.605Z</time>
      </trkpt>
      <trkpt lat="48.71284" lon="2.58258">
        <ele>94</ele>
        <time>2020-12-10T09:47:30.610Z</time>
      </trkpt>
      <trkpt lat="48.71289" lon="2.58254">
        <ele>94</ele>
        <time>2020-12-10T09:47:34.628Z</time>
      </trkpt>
      <trkpt lat="48.71294" lon="2.58248">
        <ele>95</ele>
        <time>2020-12-10T09:47:39.614Z</time>
      </trkpt>
      <trkpt lat="48.71297" lon="2.58241">
        <ele>95</ele>
        <time>2020-12-10T09:47:44.610Z</time>
      </trkpt>
      <trkpt lat="48.71301" lon="2.58232">
        <ele>95</ele>
        <time>2020-12-10T09:47:49.615Z</time>
      </trkpt>
      <trkpt lat="48.71305" lon="2.58227">
        <ele>95</ele>
        <time>2020-12-10T09:47:54.620Z</time>
      </trkpt>
      <trkpt lat="48.7131" lon="2.58221">
        <ele>95</ele>
        <time>2020-12-10T09:47:59.606Z</time>
      </trkpt>
      <trkpt lat="48.71315" lon="2.58212">
        <ele>95</ele>
        <time>2020-12-10T09:48:04.614Z</time>
      </trkpt>
      <trkpt lat="48.71318" lon="2.58205">
        <ele>96</ele>
        <time>2020-12-10T09:48:09.608Z</time>
      </trkpt>
      <trkpt lat="48.71321" lon="2.58201">
        <ele>98</ele>
        <time>2020-12-10T09:48:14.609Z</time>
      </trkpt>
      <trkpt lat="48.71327" lon="2.58195">
        <ele>98</ele>
        <time>2020-12-10T09:48:19.614Z</time>
      </trkpt>
      <trkpt lat="48.71331" lon="2.58187">
        <ele>98</ele>
        <time>2020-12-10T09:48:24.601Z</time>
      </trkpt>
      <trkpt lat="48.71335" lon="2.58181">
        <ele>98</ele>
        <time>2020-12-10T09:48:29.612Z</time>
      </trkpt>
      <trkpt lat="48.71337" lon="2.58171">
        <ele>97</ele>
        <time>2020-12-10T09:48:34.604Z</time>
      </trkpt>
      <trkpt lat="48.71342" lon="2.58161">
        <ele>97</ele>
        <time>2020-12-10T09:48:39.610Z</time>
      </trkpt>
      <trkpt lat="48.71345" lon="2.58156">
        <ele>97</ele>
        <time>2020-12-10T09:48:43.623Z</time>
      </trkpt>
      <trkpt lat="48.71349" lon="2.58148">
        <ele>99</ele>
        <time>2020-12-10T09:48:48.613Z</time>
      </trkpt>
      <trkpt lat="48.71353" lon="2.58143">
        <ele>99</ele>
        <time>2020-12-10T09:48:52.634Z</time>
      </trkpt>
      <trkpt lat="48.71356" lon="2.58135">
        <ele>99</ele>
        <time>2020-12-10T09:48:57.620Z</time>
      </trkpt>
      <trkpt lat="48.71358" lon="2.58128">
        <ele>99</ele>
        <time>2020-12-10T09:49:02.612Z</time>
      </trkpt>
      <trkpt lat="48.71362" lon="2.58121">
        <ele>98</ele>
        <time>2020-12-10T09:49:07.606Z</time>
      </trkpt>
      <trkpt lat="48.71364" lon="2.58115">
        <ele>98</ele>
        <time>2020-12-10T09:49:12.614Z</time>
      </trkpt>
      <trkpt lat="48.71369" lon="2.58107">
        <ele>98</ele>
        <time>2020-12-10T09:49:17.605Z</time>
      </trkpt>
      <trkpt lat="48.71372" lon="2.58101">
        <ele>98</ele>
        <time>2020-12-10T09:49:22.598Z</time>
      </trkpt>
      <trkpt lat="48.71375" lon="2.58095">
        <ele>96</ele>
        <time>2020-12-10T09:49:27.614Z</time>
      </trkpt>
      <trkpt lat="48.71385" lon="2.58091">
        <ele>97</ele>
        <time>2020-12-10T09:49:47.605Z</time>
      </trkpt>
      <trkpt lat="48.71391" lon="2.58095">
        <ele>97</ele>
        <time>2020-12-10T09:49:52.598Z</time>
      </trkpt>
      <trkpt lat="48.71395" lon="2.58098">
        <ele>98</ele>
        <time>2020-12-10T09:49:56.616Z</time>
      </trkpt>
      <trkpt lat="48.71399" lon="2.58101">
        <ele>98</ele>
        <time>2020-12-10T09:50:01.598Z</time>
      </trkpt>
      <trkpt lat="48.71402" lon="2.58106">
        <ele>98</ele>
        <time>2020-12-10T09:50:06.603Z</time>
      </trkpt>
      <trkpt lat="48.71406" lon="2.58111">
        <ele>96</ele>
        <time>2020-12-10T09:50:11.615Z</time>
      </trkpt>
      <trkpt lat="48.71411" lon="2.58115">
        <ele>96</ele>
        <time>2020-12-10T09:50:16.613Z</time>
      </trkpt>
      <trkpt lat="48.71417" lon="2.5812">
        <ele>96</ele>
        <time>2020-12-10T09:50:21.602Z</time>
      </trkpt>
      <trkpt lat="48.71422" lon="2.58126">
        <ele>97</ele>
        <time>2020-12-10T09:50:26.615Z</time>
      </trkpt>
      <trkpt lat="48.71425" lon="2.58131">
        <ele>97</ele>
        <time>2020-12-10T09:50:31.605Z</time>
      </trkpt>
      <trkpt lat="48.7143" lon="2.58135">
        <ele>97</ele>
        <time>2020-12-10T09:50:36.606Z</time>
      </trkpt>
      <trkpt lat="48.71435" lon="2.5814">
        <ele>96</ele>
        <time>2020-12-10T09:50:40.621Z</time>
      </trkpt>
      <trkpt lat="48.71443" lon="2.58146">
        <ele>96</ele>
        <time>2020-12-10T09:50:45.612Z</time>
      </trkpt>
      <trkpt lat="48.71449" lon="2.5815">
        <ele>96</ele>
        <time>2020-12-10T09:50:50.611Z</time>
      </trkpt>
      <trkpt lat="48.71456" lon="2.58155">
        <ele>97</ele>
        <time>2020-12-10T09:50:55.608Z</time>
      </trkpt>
      <trkpt lat="48.71462" lon="2.58159">
        <ele>98</ele>
        <time>2020-12-10T09:51:00.611Z</time>
      </trkpt>
      <trkpt lat="48.71468" lon="2.58164">
        <ele>98</ele>
        <time>2020-12-10T09:51:05.618Z</time>
      </trkpt>
      <trkpt lat="48.71473" lon="2.58167">
        <ele>98</ele>
        <time>2020-12-10T09:51:10.614Z</time>
      </trkpt>
      <trkpt lat="48.71478" lon="2.5817">
        <ele>98</ele>
        <time>2020-12-10T09:51:15.609Z</time>
      </trkpt>
      <trkpt lat="48.71486" lon="2.58172">
        <ele>98</ele>
        <time>2020-12-10T09:51:20.612Z</time>
      </trkpt>
      <trkpt lat="48.71492" lon="2.58175">
        <ele>97</ele>
        <time>2020-12-10T09:51:25.642Z</time>
      </trkpt>
      <trkpt lat="48.71498" lon="2.58177">
        <ele>97</ele>
        <time>2020-12-10T09:51:30.610Z</time>
      </trkpt>
      <trkpt lat="48.71504" lon="2.58178">
        <ele>97</ele>
        <time>2020-12-10T09:51:35.604Z</time>
      </trkpt>
      <trkpt lat="48.7151" lon="2.5818">
        <ele>97</ele>
        <time>2020-12-10T09:51:40.619Z</time>
      </trkpt>
      <trkpt lat="48.71518" lon="2.58182">
        <ele>97</ele>
        <time>2020-12-10T09:51:45.613Z</time>
      </trkpt>
      <trkpt lat="48.71524" lon="2.58185">
        <ele>97</ele>
        <time>2020-12-10T09:51:50.612Z</time>
      </trkpt>
      <trkpt lat="48.7153" lon="2.58188">
        <ele>97</ele>
        <time>2020-12-10T09:51:55.616Z</time>
      </trkpt>
      <trkpt lat="48.71537" lon="2.58188">
        <ele>97</ele>
        <time>2020-12-10T09:52:00.612Z</time>
      </trkpt>
      <trkpt lat="48.71543" lon="2.58189">
        <ele>96</ele>
        <time>2020-12-10T09:52:04.606Z</time>
      </trkpt>
      <trkpt lat="48.71551" lon="2.58191">
        <ele>96</ele>
        <time>2020-12-10T09:52:09.589Z</time>
      </trkpt>
      <trkpt lat="48.71556" lon="2.58194">
        <ele>96</ele>
        <time>2020-12-10T09:52:14.617Z</time>
      </trkpt>
      <trkpt lat="48.71563" lon="2.58196">
        <ele>96</ele>
        <time>2020-12-10T09:52:19.638Z</time>
      </trkpt>
      <trkpt lat="48.71569" lon="2.58201">
        <ele>96</ele>
        <time>2020-12-10T09:52:24.618Z</time>
      </trkpt>
      <trkpt lat="48.71573" lon="2.58208">
        <ele>95</ele>
        <time>2020-12-10T09:52:29.617Z</time>
      </trkpt>
      <trkpt lat="48.71574" lon="2.58209">
        <ele>95</ele>
        <time>2020-12-10T09:52:34.618Z</time>
      </trkpt>
      <trkpt lat="48.71574" lon="2.58209">
        <ele>95</ele>
        <time>2020-12-10T09:52:39.608Z</time>
      </trkpt>
      <trkpt lat="48.71576" lon="2.58216">
        <ele>95</ele>
        <time>2020-12-10T09:52:44.620Z</time>
      </trkpt>
      <trkpt lat="48.7158" lon="2.58224">
        <ele>95</ele>
        <time>2020-12-10T09:52:49.613Z</time>
      </trkpt>
      <trkpt lat="48.71584" lon="2.58227">
        <ele>95</ele>
        <time>2020-12-10T09:52:54.616Z</time>
      </trkpt>
      <trkpt lat="48.7159" lon="2.58229">
        <ele>95</ele>
        <time>2020-12-10T09:52:59.608Z</time>
      </trkpt>
      <trkpt lat="48.71594" lon="2.58234">
        <ele>95</ele>
        <time>2020-12-10T09:53:04.596Z</time>
      </trkpt>
      <trkpt lat="48.71599" lon="2.58238">
        <ele>95</ele>
        <time>2020-12-10T09:53:08.611Z</time>
      </trkpt>
      <trkpt lat="48.71609" lon="2.58241">
        <ele>95</ele>
        <time>2020-12-10T09:53:13.614Z</time>
      </trkpt>
      <trkpt lat="48.71617" lon="2.58244">
        <ele>95</ele>
        <time>2020-12-10T09:53:18.609Z</time>
      </trkpt>
      <trkpt lat="48.71623" lon="2.5825">
        <ele>95</ele>
        <time>2020-12-10T09:53:23.616Z</time>
      </trkpt>
      <trkpt lat="48.71628" lon="2.58254">
        <ele>96</ele>
        <time>2020-12-10T09:53:28.615Z</time>
      </trkpt>
      <trkpt lat="48.71632" lon="2.58252">
        <ele>96</ele>
        <time>2020-12-10T09:53:33.609Z</time>
      </trkpt>
      <trkpt lat="48.71637" lon="2.58257">
        <ele>96</ele>
        <time>2020-12-10T09:53:38.616Z</time>
      </trkpt>
      <trkpt lat="48.71644" lon="2.58262">
        <ele>96</ele>
        <time>2020-12-10T09:53:43.638Z</time>
      </trkpt>
      <trkpt lat="48.71652" lon="2.58263">
        <ele>96</ele>
        <time>2020-12-10T09:53:48.614Z</time>
      </trkpt>
      <trkpt lat="48.71671" lon="2.58283">
        <ele>99</ele>
        <time>2020-12-10T09:54:07.606Z</time>
      </trkpt>
      <trkpt lat="48.71667" lon="2.58289">
        <ele>99</ele>
        <time>2020-12-10T09:54:12.611Z</time>
      </trkpt>
      <trkpt lat="48.71664" lon="2.58299">
        <ele>99</ele>
        <time>2020-12-10T09:54:17.617Z</time>
      </trkpt>
      <trkpt lat="48.71661" lon="2.58302">
        <ele>99</ele>
        <time>2020-12-10T09:54:21.628Z</time>
      </trkpt>
      <trkpt lat="48.71658" lon="2.58307">
        <ele>99</ele>
        <time>2020-12-10T09:54:26.615Z</time>
      </trkpt>
      <trkpt lat="48.71657" lon="2.58323">
        <ele>98</ele>
        <time>2020-12-10T09:54:31.614Z</time>
      </trkpt>
      <trkpt lat="48.71652" lon="2.58332">
        <ele>96</ele>
        <time>2020-12-10T09:54:36.620Z</time>
      </trkpt>
      <trkpt lat="48.7165" lon="2.58345">
        <ele>96</ele>
        <time>2020-12-10T09:54:41.637Z</time>
      </trkpt>
      <trkpt lat="48.71648" lon="2.58353">
        <ele>96</ele>
        <time>2020-12-10T09:54:46.609Z</time>
      </trkpt>
      <trkpt lat="48.71643" lon="2.58367">
        <ele>96</ele>
        <time>2020-12-10T09:54:51.613Z</time>
      </trkpt>
      <trkpt lat="48.7164" lon="2.58383">
        <ele>96</ele>
        <time>2020-12-10T09:54:56.622Z</time>
      </trkpt>
      <trkpt lat="48.71635" lon="2.58394">
        <ele>96</ele>
        <time>2020-12-10T09:55:01.615Z</time>
      </trkpt>
      <trkpt lat="48.71632" lon="2.58401">
        <ele>96</ele>
        <time>2020-12-10T09:55:06.609Z</time>
      </trkpt>
      <trkpt lat="48.71629" lon="2.58408">
        <ele>96</ele>
        <time>2020-12-10T09:55:11.625Z</time>
      </trkpt>
      <trkpt lat="48.71628" lon="2.58417">
        <ele>96</ele>
        <time>2020-12-10T09:55:16.618Z</time>
      </trkpt>
      <trkpt lat="48.71626" lon="2.58429">
        <ele>96</ele>
        <time>2020-12-10T09:55:21.618Z</time>
      </trkpt>
      <trkpt lat="48.71625" lon="2.58443">
        <ele>94</ele>
        <time>2020-12-10T09:55:26.632Z</time>
      </trkpt>
      <trkpt lat="48.71625" lon="2.58454">
        <ele>94</ele>
        <time>2020-12-10T09:55:31.618Z</time>
      </trkpt>
      <trkpt lat="48.71624" lon="2.58461">
        <ele>93</ele>
        <time>2020-12-10T09:55:36.611Z</time>
      </trkpt>
      <trkpt lat="48.71623" lon="2.58467">
        <ele>93</ele>
        <time>2020-12-10T09:55:41.618Z</time>
      </trkpt>
      <trkpt lat="48.7162" lon="2.58477">
        <ele>93</ele>
        <time>2020-12-10T09:55:46.635Z</time>
      </trkpt>
      <trkpt lat="48.71618" lon="2.58486">
        <ele>92</ele>
        <time>2020-12-10T09:55:51.616Z</time>
      </trkpt>
      <trkpt lat="48.71615" lon="2.58495">
        <ele>92</ele>
        <time>2020-12-10T09:55:56.616Z</time>
      </trkpt>
      <trkpt lat="48.71614" lon="2.58504">
        <ele>92</ele>
        <time>2020-12-10T09:56:01.628Z</time>
      </trkpt>
      <trkpt lat="48.71614" lon="2.58517">
        <ele>91</ele>
        <time>2020-12-10T09:56:06.611Z</time>
      </trkpt>
      <trkpt lat="48.71615" lon="2.5853">
        <ele>91</ele>
        <time>2020-12-10T09:56:11.613Z</time>
      </trkpt>
      <trkpt lat="48.71613" lon="2.58537">
        <ele>91</ele>
        <time>2020-12-10T09:56:16.616Z</time>
      </trkpt>
      <trkpt lat="48.7161" lon="2.58546">
        <ele>91</ele>
        <time>2020-12-10T09:56:21.611Z</time>
      </trkpt>
      <trkpt lat="48.71608" lon="2.58551">
        <ele>91</ele>
        <time>2020-12-10T09:56:26.610Z</time>
      </trkpt>
      <trkpt lat="48.71606" lon="2.58558">
        <ele>91</ele>
        <time>2020-12-10T09:56:50.617Z</time>
      </trkpt>
      <trkpt lat="48.71606" lon="2.58558">
        <ele>91</ele>
        <time>2020-12-10T09:56:55.614Z</time>
      </trkpt>
      <trkpt lat="48.71607" lon="2.58564">
        <ele>91</ele>
        <time>2020-12-10T09:57:00.614Z</time>
      </trkpt>
      <trkpt lat="48.71608" lon="2.58571">
        <ele>91</ele>
        <time>2020-12-10T09:57:05.598Z</time>
      </trkpt>
      <trkpt lat="48.71609" lon="2.58574">
        <ele>91</ele>
        <time>2020-12-10T09:57:09.610Z</time>
      </trkpt>
      <trkpt lat="48.71612" lon="2.58579">
        <ele>91</ele>
        <time>2020-12-10T09:57:13.624Z</time>
      </trkpt>
      <trkpt lat="48.71617" lon="2.58581">
        <ele>91</ele>
        <time>2020-12-10T09:57:18.620Z</time>
      </trkpt>
      <trkpt lat="48.71622" lon="2.58584">
        <ele>91</ele>
        <time>2020-12-10T09:57:23.612Z</time>
      </trkpt>
      <trkpt lat="48.71625" lon="2.5859">
        <ele>92</ele>
        <time>2020-12-10T09:57:28.608Z</time>
      </trkpt>
      <trkpt lat="48.71633" lon="2.58592">
        <ele>92</ele>
        <time>2020-12-10T09:57:33.618Z</time>
      </trkpt>
      <trkpt lat="48.71641" lon="2.58593">
        <ele>92</ele>
        <time>2020-12-10T09:57:38.590Z</time>
      </trkpt>
      <trkpt lat="48.71645" lon="2.58595">
        <ele>92</ele>
        <time>2020-12-10T09:57:42.615Z</time>
      </trkpt>
      <trkpt lat="48.71651" lon="2.58602">
        <ele>91</ele>
        <time>2020-12-10T09:57:47.610Z</time>
      </trkpt>
      <trkpt lat="48.71663" lon="2.58612">
        <ele>90</ele>
        <time>2020-12-10T09:58:09.584Z</time>
      </trkpt>
      <trkpt lat="48.71667" lon="2.58613">
        <ele>90</ele>
        <time>2020-12-10T09:58:13.627Z</time>
      </trkpt>
      <trkpt lat="48.71669" lon="2.58613">
        <ele>90</ele>
        <time>2020-12-10T09:58:18.590Z</time>
      </trkpt>
      <trkpt lat="48.71669" lon="2.58613">
        <ele>90</ele>
        <time>2020-12-10T09:58:23.571Z</time>
      </trkpt>
      <trkpt lat="48.71669" lon="2.58613">
        <ele>90</ele>
        <time>2020-12-10T09:58:28.577Z</time>
      </trkpt>
      <trkpt lat="48.71674" lon="2.58615">
        <ele>90</ele>
        <time>2020-12-10T09:59:00.589Z</time>
      </trkpt>
      <trkpt lat="48.71674" lon="2.58614">
        <ele>90</ele>
        <time>2020-12-10T09:59:05.583Z</time>
      </trkpt>
      <trkpt lat="48.71675" lon="2.58614">
        <ele>90</ele>
        <time>2020-12-10T09:59:10.581Z</time>
      </trkpt>
      <trkpt lat="48.71678" lon="2.58618">
        <ele>90</ele>
        <time>2020-12-10T09:59:14.609Z</time>
      </trkpt>
      <trkpt lat="48.7168" lon="2.58621">
        <ele>90</ele>
        <time>2020-12-10T09:59:19.603Z</time>
      </trkpt>
      <trkpt lat="48.71681" lon="2.58622">
        <ele>90</ele>
        <time>2020-12-10T09:59:24.584Z</time>
      </trkpt>
      <trkpt lat="48.71683" lon="2.58623">
        <ele>90</ele>
        <time>2020-12-10T09:59:28.611Z</time>
      </trkpt>
      <trkpt lat="48.71688" lon="2.58633">
        <ele>89</ele>
        <time>2020-12-10T09:59:33.609Z</time>
      </trkpt>
      <trkpt lat="48.71691" lon="2.58646">
        <ele>89</ele>
        <time>2020-12-10T09:59:38.613Z</time>
      </trkpt>
      <trkpt lat="48.71696" lon="2.58648">
        <ele>89</ele>
        <time>2020-12-10T09:59:43.599Z</time>
      </trkpt>
      <trkpt lat="48.71704" lon="2.5865">
        <ele>89</ele>
        <time>2020-12-10T09:59:48.598Z</time>
      </trkpt>
      <trkpt lat="48.71707" lon="2.58652">
        <ele>89</ele>
        <time>2020-12-10T09:59:53.609Z</time>
      </trkpt>
      <trkpt lat="48.71711" lon="2.58656">
        <ele>87</ele>
        <time>2020-12-10T09:59:58.615Z</time>
      </trkpt>
      <trkpt lat="48.71717" lon="2.58653">
        <ele>87</ele>
        <time>2020-12-10T10:00:03.614Z</time>
      </trkpt>
      <trkpt lat="48.71722" lon="2.5865">
        <ele>87</ele>
        <time>2020-12-10T10:00:08.601Z</time>
      </trkpt>
      <trkpt lat="48.71729" lon="2.5865">
        <ele>87</ele>
        <time>2020-12-10T10:00:13.614Z</time>
      </trkpt>
      <trkpt lat="48.71741" lon="2.58645">
        <ele>86</ele>
        <time>2020-12-10T10:00:19.628Z</time>
      </trkpt>
      <trkpt lat="48.71748" lon="2.58644">
        <ele>86</ele>
        <time>2020-12-10T10:00:24.606Z</time>
      </trkpt>
      <trkpt lat="48.71753" lon="2.58637">
        <ele>86</ele>
        <time>2020-12-10T10:00:29.595Z</time>
      </trkpt>
      <trkpt lat="48.71758" lon="2.58632">
        <ele>86</ele>
        <time>2020-12-10T10:00:34.609Z</time>
      </trkpt>
      <trkpt lat="48.71762" lon="2.58622">
        <ele>87</ele>
        <time>2020-12-10T10:00:39.596Z</time>
      </trkpt>
      <trkpt lat="48.71764" lon="2.58617">
        <ele>87</ele>
        <time>2020-12-10T10:00:44.622Z</time>
      </trkpt>
      <trkpt lat="48.71769" lon="2.5862">
        <ele>84</ele>
        <time>2020-12-10T10:00:49.620Z</time>
      </trkpt>
      <trkpt lat="48.71771" lon="2.58632">
        <ele>83</ele>
        <time>2020-12-10T10:00:54.599Z</time>
      </trkpt>
      <trkpt lat="48.71772" lon="2.58643">
        <ele>83</ele>
        <time>2020-12-10T10:00:59.610Z</time>
      </trkpt>
      <trkpt lat="48.71782" lon="2.58662">
        <ele>81</ele>
        <time>2020-12-10T10:01:19.619Z</time>
      </trkpt>
      <trkpt lat="48.71783" lon="2.58657">
        <ele>81</ele>
        <time>2020-12-10T10:01:24.594Z</time>
      </trkpt>
      <trkpt lat="48.71786" lon="2.58661">
        <ele>81</ele>
        <time>2020-12-10T10:01:28.606Z</time>
      </trkpt>
      <trkpt lat="48.71791" lon="2.58663">
        <ele>81</ele>
        <time>2020-12-10T10:01:33.629Z</time>
      </trkpt>
      <trkpt lat="48.71795" lon="2.58662">
        <ele>79</ele>
        <time>2020-12-10T10:01:38.608Z</time>
      </trkpt>
      <trkpt lat="48.718" lon="2.58662">
        <ele>79</ele>
        <time>2020-12-10T10:01:42.618Z</time>
      </trkpt>
      <trkpt lat="48.71806" lon="2.58661">
        <ele>79</ele>
        <time>2020-12-10T10:01:47.612Z</time>
      </trkpt>
      <trkpt lat="48.71811" lon="2.58665">
        <ele>79</ele>
        <time>2020-12-10T10:01:52.613Z</time>
      </trkpt>
      <trkpt lat="48.71817" lon="2.58667">
        <ele>79</ele>
        <time>2020-12-10T10:01:57.590Z</time>
      </trkpt>
      <trkpt lat="48.71823" lon="2.58672">
        <ele>76</ele>
        <time>2020-12-10T10:02:01.618Z</time>
      </trkpt>
      <trkpt lat="48.71827" lon="2.58677">
        <ele>76</ele>
        <time>2020-12-10T10:02:06.603Z</time>
      </trkpt>
      <trkpt lat="48.71832" lon="2.58678">
        <ele>76</ele>
        <time>2020-12-10T10:02:11.607Z</time>
      </trkpt>
      <trkpt lat="48.71839" lon="2.58678">
        <ele>76</ele>
        <time>2020-12-10T10:02:16.608Z</time>
      </trkpt>
      <trkpt lat="48.71846" lon="2.58681">
        <ele>76</ele>
        <time>2020-12-10T10:02:21.615Z</time>
      </trkpt>
      <trkpt lat="48.7185" lon="2.58682">
        <ele>73</ele>
        <time>2020-12-10T10:02:26.606Z</time>
      </trkpt>
      <trkpt lat="48.71858" lon="2.58685">
        <ele>73</ele>
        <time>2020-12-10T10:02:31.608Z</time>
      </trkpt>
      <trkpt lat="48.71865" lon="2.58686">
        <ele>73</ele>
        <time>2020-12-10T10:02:36.612Z</time>
      </trkpt>
      <trkpt lat="48.71871" lon="2.58687">
        <ele>73</ele>
        <time>2020-12-10T10:02:41.622Z</time>
      </trkpt>
      <trkpt lat="48.71882" lon="2.58685">
        <ele>72</ele>
        <time>2020-12-10T10:02:46.613Z</time>
      </trkpt>
      <trkpt lat="48.71887" lon="2.58685">
        <ele>72</ele>
        <time>2020-12-10T10:02:51.608Z</time>
      </trkpt>
      <trkpt lat="48.71891" lon="2.58683">
        <ele>72</ele>
        <time>2020-12-10T10:02:55.638Z</time>
      </trkpt>
      <trkpt lat="48.71896" lon="2.58686">
        <ele>72</ele>
        <time>2020-12-10T10:03:00.611Z</time>
      </trkpt>
      <trkpt lat="48.71901" lon="2.58686">
        <ele>72</ele>
        <time>2020-12-10T10:03:05.672Z</time>
      </trkpt>
      <trkpt lat="48.71906" lon="2.58685">
        <ele>72</ele>
        <time>2020-12-10T10:03:10.603Z</time>
      </trkpt>
      <trkpt lat="48.71908" lon="2.58685">
        <ele>72</ele>
        <time>2020-12-10T10:03:15.626Z</time>
      </trkpt>
      <trkpt lat="48.71916" lon="2.58684">
        <ele>72</ele>
        <time>2020-12-10T10:03:20.582Z</time>
      </trkpt>
      <trkpt lat="48.71926" lon="2.58683">
        <ele>72</ele>
        <time>2020-12-10T10:03:25.615Z</time>
      </trkpt>
      <trkpt lat="48.71934" lon="2.58686">
        <ele>72</ele>
        <time>2020-12-10T10:03:30.624Z</time>
      </trkpt>
      <trkpt lat="48.71943" lon="2.5869">
        <ele>72</ele>
        <time>2020-12-10T10:03:35.609Z</time>
      </trkpt>
      <trkpt lat="48.71946" lon="2.58691">
        <ele>72</ele>
        <time>2020-12-10T10:03:40.610Z</time>
      </trkpt>
      <trkpt lat="48.71953" lon="2.58693">
        <ele>72</ele>
        <time>2020-12-10T10:03:45.597Z</time>
      </trkpt>
      <trkpt lat="48.71962" lon="2.58695">
        <ele>73</ele>
        <time>2020-12-10T10:03:50.610Z</time>
      </trkpt>
      <trkpt lat="48.71971" lon="2.58693">
        <ele>73</ele>
        <time>2020-12-10T10:03:55.624Z</time>
      </trkpt>
      <trkpt lat="48.71978" lon="2.58689">
        <ele>73</ele>
        <time>2020-12-10T10:04:00.617Z</time>
      </trkpt>
      <trkpt lat="48.71979" lon="2.58682">
        <ele>73</ele>
        <time>2020-12-10T10:04:05.608Z</time>
      </trkpt>
      <trkpt lat="48.71983" lon="2.58671">
        <ele>73</ele>
        <time>2020-12-10T10:04:10.606Z</time>
      </trkpt>
      <trkpt lat="48.71987" lon="2.58661">
        <ele>74</ele>
        <time>2020-12-10T10:04:15.618Z</time>
      </trkpt>
      <trkpt lat="48.71991" lon="2.58653">
        <ele>74</ele>
        <time>2020-12-10T10:04:20.606Z</time>
      </trkpt>
      <trkpt lat="48.71995" lon="2.58648">
        <ele>72</ele>
        <time>2020-12-10T10:04:25.616Z</time>
      </trkpt>
      <trkpt lat="48.71999" lon="2.58641">
        <ele>72</ele>
        <time>2020-12-10T10:04:30.613Z</time>
      </trkpt>
      <trkpt lat="48.72003" lon="2.58635">
        <ele>72</ele>
        <time>2020-12-10T10:04:35.617Z</time>
      </trkpt>
      <trkpt lat="48.72008" lon="2.58629">
        <ele>72</ele>
        <time>2020-12-10T10:04:40.603Z</time>
      </trkpt>
      <trkpt lat="48.72012" lon="2.58622">
        <ele>70</ele>
        <time>2020-12-10T10:04:45.606Z</time>
      </trkpt>
      <trkpt lat="48.72016" lon="2.58613">
        <ele>71</ele>
        <time>2020-12-10T10:04:50.605Z</time>
      </trkpt>
      <trkpt lat="48.7202" lon="2.58606">
        <ele>71</ele>
        <time>2020-12-10T10:04:55.618Z</time>
      </trkpt>
      <trkpt lat="48.72025" lon="2.58598">
        <ele>71</ele>
        <time>2020-12-10T10:05:00.612Z</time>
      </trkpt>
      <trkpt lat="48.72031" lon="2.58591">
        <ele>70</ele>
        <time>2020-12-10T10:05:05.603Z</time>
      </trkpt>
      <trkpt lat="48.72038" lon="2.58585">
        <ele>70</ele>
        <time>2020-12-10T10:05:10.604Z</time>
      </trkpt>
      <trkpt lat="48.72041" lon="2.58582">
        <ele>70</ele>
        <time>2020-12-10T10:05:14.621Z</time>
      </trkpt>
      <trkpt lat="48.72044" lon="2.58579">
        <ele>69</ele>
        <time>2020-12-10T10:05:19.613Z</time>
      </trkpt>
      <trkpt lat="48.72049" lon="2.58573">
        <ele>69</ele>
        <time>2020-12-10T10:05:24.619Z</time>
      </trkpt>
      <trkpt lat="48.72056" lon="2.58566">
        <ele>68</ele>
        <time>2020-12-10T10:05:29.605Z</time>
      </trkpt>
      <trkpt lat="48.72064" lon="2.5856">
        <ele>68</ele>
        <time>2020-12-10T10:05:34.619Z</time>
      </trkpt>
      <trkpt lat="48.72072" lon="2.5856">
        <ele>67</ele>
        <time>2020-12-10T10:05:39.617Z</time>
      </trkpt>
      <trkpt lat="48.72076" lon="2.58561">
        <ele>67</ele>
        <time>2020-12-10T10:05:44.617Z</time>
      </trkpt>
      <trkpt lat="48.72081" lon="2.58559">
        <ele>67</ele>
        <time>2020-12-10T10:05:49.616Z</time>
      </trkpt>
      <trkpt lat="48.72086" lon="2.5855">
        <ele>67</ele>
        <time>2020-12-10T10:05:54.614Z</time>
      </trkpt>
      <trkpt lat="48.72092" lon="2.58538">
        <ele>67</ele>
        <time>2020-12-10T10:05:59.609Z</time>
      </trkpt>
      <trkpt lat="48.72094" lon="2.58525">
        <ele>67</ele>
        <time>2020-12-10T10:06:04.603Z</time>
      </trkpt>
      <trkpt lat="48.72097" lon="2.58511">
        <ele>67</ele>
        <time>2020-12-10T10:06:09.617Z</time>
      </trkpt>
      <trkpt lat="48.721" lon="2.58499">
        <ele>68</ele>
        <time>2020-12-10T10:06:14.624Z</time>
      </trkpt>
      <trkpt lat="48.72102" lon="2.58491">
        <ele>68</ele>
        <time>2020-12-10T10:06:19.607Z</time>
      </trkpt>
      <trkpt lat="48.72104" lon="2.58486">
        <ele>68</ele>
        <time>2020-12-10T10:06:24.608Z</time>
      </trkpt>
      <trkpt lat="48.72107" lon="2.58477">
        <ele>68</ele>
        <time>2020-12-10T10:06:29.609Z</time>
      </trkpt>
      <trkpt lat="48.72111" lon="2.58471">
        <ele>68</ele>
        <time>2020-12-10T10:06:34.615Z</time>
      </trkpt>
      <trkpt lat="48.72117" lon="2.58466">
        <ele>68</ele>
        <time>2020-12-10T10:06:39.592Z</time>
      </trkpt>
      <trkpt lat="48.72121" lon="2.58465">
        <ele>68</ele>
        <time>2020-12-10T10:06:44.608Z</time>
      </trkpt>
      <trkpt lat="48.72126" lon="2.58462">
        <ele>67</ele>
        <time>2020-12-10T10:06:49.609Z</time>
      </trkpt>
      <trkpt lat="48.7213" lon="2.58456">
        <ele>67</ele>
        <time>2020-12-10T10:06:54.612Z</time>
      </trkpt>
      <trkpt lat="48.72138" lon="2.58455">
        <ele>67</ele>
        <time>2020-12-10T10:06:59.605Z</time>
      </trkpt>
      <trkpt lat="48.72146" lon="2.58453">
        <ele>67</ele>
        <time>2020-12-10T10:07:04.607Z</time>
      </trkpt>
      <trkpt lat="48.72152" lon="2.58447">
        <ele>67</ele>
        <time>2020-12-10T10:07:09.607Z</time>
      </trkpt>
      <trkpt lat="48.72159" lon="2.58442">
        <ele>66</ele>
        <time>2020-12-10T10:07:14.605Z</time>
      </trkpt>
      <trkpt lat="48.72162" lon="2.58433">
        <ele>66</ele>
        <time>2020-12-10T10:07:19.612Z</time>
      </trkpt>
      <trkpt lat="48.72162" lon="2.58425">
        <ele>66</ele>
        <time>2020-12-10T10:07:24.634Z</time>
      </trkpt>
      <trkpt lat="48.72161" lon="2.58413">
        <ele>66</ele>
        <time>2020-12-10T10:07:29.614Z</time>
      </trkpt>
      <trkpt lat="48.72159" lon="2.58403">
        <ele>66</ele>
        <time>2020-12-10T10:07:34.601Z</time>
      </trkpt>
      <trkpt lat="48.72158" lon="2.58393">
        <ele>66</ele>
        <time>2020-12-10T10:07:39.612Z</time>
      </trkpt>
      <trkpt lat="48.72158" lon="2.58383">
        <ele>66</ele>
        <time>2020-12-10T10:07:44.608Z</time>
      </trkpt>
      <trkpt lat="48.72158" lon="2.58374">
        <ele>68</ele>
        <time>2020-12-10T10:07:49.612Z</time>
      </trkpt>
      <trkpt lat="48.72158" lon="2.58373">
        <ele>68</ele>
        <time>2020-12-10T10:07:54.591Z</time>
      </trkpt>
      <trkpt lat="48.72158" lon="2.58372">
        <ele>68</ele>
        <time>2020-12-10T10:07:58.627Z</time>
      </trkpt>
      <trkpt lat="48.72158" lon="2.5837">
        <ele>68</ele>
        <time>2020-12-10T10:08:03.782Z</time>
      </trkpt>
      <trkpt lat="48.72158" lon="2.5837">
        <ele>68</ele>
        <time>2020-12-10T10:08:08.577Z</time>
      </trkpt>
      <trkpt lat="48.72158" lon="2.58364">
        <ele>68</ele>
        <time>2020-12-10T10:08:13.606Z</time>
      </trkpt>
      <trkpt lat="48.7216" lon="2.58353">
        <ele>68</ele>
        <time>2020-12-10T10:08:18.609Z</time>
      </trkpt>
      <trkpt lat="48.72163" lon="2.58342">
        <ele>69</ele>
        <time>2020-12-10T10:08:33.608Z</time>
      </trkpt>
      <trkpt lat="48.72162" lon="2.58342">
        <ele>69</ele>
        <time>2020-12-10T10:08:38.606Z</time>
      </trkpt>
      <trkpt lat="48.72162" lon="2.58336">
        <ele>69</ele>
        <time>2020-12-10T10:08:43.619Z</time>
      </trkpt>
      <trkpt lat="48.72164" lon="2.58329">
        <ele>69</ele>
        <time>2020-12-10T10:08:48.602Z</time>
      </trkpt>
      <trkpt lat="48.72164" lon="2.58324">
        <ele>69</ele>
        <time>2020-12-10T10:08:52.627Z</time>
      </trkpt>
      <trkpt lat="48.72165" lon="2.58317">
        <ele>70</ele>
        <time>2020-12-10T10:08:57.616Z</time>
      </trkpt>
      <trkpt lat="48.72166" lon="2.58308">
        <ele>70</ele>
        <time>2020-12-10T10:09:02.605Z</time>
      </trkpt>
      <trkpt lat="48.72166" lon="2.58301">
        <ele>70</ele>
        <time>2020-12-10T10:09:07.610Z</time>
      </trkpt>
      <trkpt lat="48.72165" lon="2.58291">
        <ele>70</ele>
        <time>2020-12-10T10:09:12.595Z</time>
      </trkpt>
      <trkpt lat="48.72164" lon="2.58286">
        <ele>70</ele>
        <time>2020-12-10T10:09:17.612Z</time>
      </trkpt>
      <trkpt lat="48.72162" lon="2.58279">
        <ele>70</ele>
        <time>2020-12-10T10:09:22.606Z</time>
      </trkpt>
      <trkpt lat="48.72161" lon="2.58276">
        <ele>70</ele>
        <time>2020-12-10T10:09:27.606Z</time>
      </trkpt>
      <trkpt lat="48.72159" lon="2.58266">
        <ele>70</ele>
        <time>2020-12-10T10:09:32.595Z</time>
      </trkpt>
      <trkpt lat="48.72158" lon="2.58261">
        <ele>69</ele>
        <time>2020-12-10T10:09:37.617Z</time>
      </trkpt>
      <trkpt lat="48.72157" lon="2.58259">
        <ele>69</ele>
        <time>2020-12-10T10:09:42.602Z</time>
      </trkpt>
      <trkpt lat="48.72155" lon="2.58253">
        <ele>69</ele>
        <time>2020-12-10T10:09:47.620Z</time>
      </trkpt>
      <trkpt lat="48.72152" lon="2.58244">
        <ele>70</ele>
        <time>2020-12-10T10:09:52.599Z</time>
      </trkpt>
      <trkpt lat="48.72149" lon="2.58237">
        <ele>70</ele>
        <time>2020-12-10T10:09:57.619Z</time>
      </trkpt>
      <trkpt lat="48.72146" lon="2.58229">
        <ele>67</ele>
        <time>2020-12-10T10:10:02.598Z</time>
      </trkpt>
      <trkpt lat="48.72144" lon="2.58221">
        <ele>67</ele>
        <time>2020-12-10T10:10:07.609Z</time>
      </trkpt>
      <trkpt lat="48.72143" lon="2.58214">
        <ele>67</ele>
        <time>2020-12-10T10:10:12.604Z</time>
      </trkpt>
      <trkpt lat="48.7214" lon="2.58203">
        <ele>65</ele>
        <time>2020-12-10T10:10:17.594Z</time>
      </trkpt>
      <trkpt lat="48.72132" lon="2.58188">
        <ele>65</ele>
        <time>2020-12-10T10:10:22.608Z</time>
      </trkpt>
      <trkpt lat="48.72127" lon="2.58182">
        <ele>65</ele>
        <time>2020-12-10T10:10:27.619Z</time>
      </trkpt>
      <trkpt lat="48.72121" lon="2.58179">
        <ele>66</ele>
        <time>2020-12-10T10:10:32.618Z</time>
      </trkpt>
      <trkpt lat="48.72111" lon="2.58161">
        <ele>66</ele>
        <time>2020-12-10T10:10:52.625Z</time>
      </trkpt>
      <trkpt lat="48.7211" lon="2.58161">
        <ele>66</ele>
        <time>2020-12-10T10:10:57.614Z</time>
      </trkpt>
      <trkpt lat="48.7211" lon="2.58161">
        <ele>66</ele>
        <time>2020-12-10T10:11:02.589Z</time>
      </trkpt>
      <trkpt lat="48.7211" lon="2.58161">
        <ele>66</ele>
        <time>2020-12-10T10:11:06.625Z</time>
      </trkpt>
      <trkpt lat="48.7211" lon="2.58161">
        <ele>66</ele>
        <time>2020-12-10T10:11:11.619Z</time>
      </trkpt>
      <trkpt lat="48.72107" lon="2.58159">
        <ele>66</ele>
        <time>2020-12-10T10:31:15.605Z</time>
      </trkpt>
      <trkpt lat="48.72106" lon="2.58156">
        <ele>66</ele>
        <time>2020-12-10T10:31:20.607Z</time>
      </trkpt>
      <trkpt lat="48.72107" lon="2.58152">
        <ele>71</ele>
        <time>2020-12-10T10:31:25.606Z</time>
      </trkpt>
      <trkpt lat="48.7211" lon="2.58144">
        <ele>71</ele>
        <time>2020-12-10T10:31:30.593Z</time>
      </trkpt>
      <trkpt lat="48.72111" lon="2.58139">
        <ele>71</ele>
        <time>2020-12-10T10:31:34.630Z</time>
      </trkpt>
      <trkpt lat="48.72112" lon="2.58131">
        <ele>71</ele>
        <time>2020-12-10T10:31:39.598Z</time>
      </trkpt>
      <trkpt lat="48.72113" lon="2.58127">
        <ele>71</ele>
        <time>2020-12-10T10:31:44.609Z</time>
      </trkpt>
      <trkpt lat="48.72115" lon="2.58122">
        <ele>74</ele>
        <time>2020-12-10T10:31:49.612Z</time>
      </trkpt>
      <trkpt lat="48.72118" lon="2.58115">
        <ele>74</ele>
        <time>2020-12-10T10:31:54.595Z</time>
      </trkpt>
      <trkpt lat="48.72119" lon="2.58114">
        <ele>74</ele>
        <time>2020-12-10T10:31:59.605Z</time>
      </trkpt>
      <trkpt lat="48.72122" lon="2.58106">
        <ele>74</ele>
        <time>2020-12-10T10:32:04.609Z</time>
      </trkpt>
      <trkpt lat="48.72125" lon="2.58097">
        <ele>71</ele>
        <time>2020-12-10T10:32:09.581Z</time>
      </trkpt>
      <trkpt lat="48.72126" lon="2.58091">
        <ele>71</ele>
        <time>2020-12-10T10:32:13.607Z</time>
      </trkpt>
      <trkpt lat="48.72129" lon="2.58082">
        <ele>71</ele>
        <time>2020-12-10T10:32:18.596Z</time>
      </trkpt>
      <trkpt lat="48.72132" lon="2.58073">
        <ele>71</ele>
        <time>2020-12-10T10:32:23.609Z</time>
      </trkpt>
      <trkpt lat="48.72135" lon="2.58068">
        <ele>72</ele>
        <time>2020-12-10T10:32:28.607Z</time>
      </trkpt>
      <trkpt lat="48.7214" lon="2.58062">
        <ele>72</ele>
        <time>2020-12-10T10:32:33.599Z</time>
      </trkpt>
      <trkpt lat="48.72144" lon="2.58051">
        <ele>72</ele>
        <time>2020-12-10T10:32:38.615Z</time>
      </trkpt>
      <trkpt lat="48.72147" lon="2.58049">
        <ele>72</ele>
        <time>2020-12-10T10:32:43.603Z</time>
      </trkpt>
      <trkpt lat="48.7215" lon="2.5804">
        <ele>73</ele>
        <time>2020-12-10T10:32:48.599Z</time>
      </trkpt>
      <trkpt lat="48.72153" lon="2.58035">
        <ele>68</ele>
        <time>2020-12-10T10:32:53.611Z</time>
      </trkpt>
      <trkpt lat="48.72156" lon="2.58026">
        <ele>68</ele>
        <time>2020-12-10T10:32:58.610Z</time>
      </trkpt>
      <trkpt lat="48.72159" lon="2.58021">
        <ele>68</ele>
        <time>2020-12-10T10:33:03.607Z</time>
      </trkpt>
      <trkpt lat="48.72162" lon="2.58013">
        <ele>69</ele>
        <time>2020-12-10T10:33:08.609Z</time>
      </trkpt>
      <trkpt lat="48.72165" lon="2.58006">
        <ele>69</ele>
        <time>2020-12-10T10:33:13.596Z</time>
      </trkpt>
      <trkpt lat="48.72169" lon="2.57999">
        <ele>69</ele>
        <time>2020-12-10T10:33:18.590Z</time>
      </trkpt>
      <trkpt lat="48.72172" lon="2.5799">
        <ele>69</ele>
        <time>2020-12-10T10:33:23.610Z</time>
      </trkpt>
      <trkpt lat="48.72174" lon="2.57987">
        <ele>69</ele>
        <time>2020-12-10T10:33:28.591Z</time>
      </trkpt>
      <trkpt lat="48.72178" lon="2.57983">
        <ele>69</ele>
        <time>2020-12-10T10:33:33.597Z</time>
      </trkpt>
      <trkpt lat="48.72182" lon="2.57979">
        <ele>67</ele>
        <time>2020-12-10T10:33:38.593Z</time>
      </trkpt>
      <trkpt lat="48.72186" lon="2.57973">
        <ele>67</ele>
        <time>2020-12-10T10:33:43.603Z</time>
      </trkpt>
      <trkpt lat="48.7219" lon="2.57965">
        <ele>67</ele>
        <time>2020-12-10T10:33:48.597Z</time>
      </trkpt>
      <trkpt lat="48.7219" lon="2.57957">
        <ele>69</ele>
        <time>2020-12-10T10:33:53.603Z</time>
      </trkpt>
      <trkpt lat="48.7219" lon="2.57948">
        <ele>69</ele>
        <time>2020-12-10T10:33:58.600Z</time>
      </trkpt>
      <trkpt lat="48.7219" lon="2.57942">
        <ele>69</ele>
        <time>2020-12-10T10:34:02.615Z</time>
      </trkpt>
      <trkpt lat="48.72188" lon="2.57937">
        <ele>69</ele>
        <time>2020-12-10T10:34:07.612Z</time>
      </trkpt>
      <trkpt lat="48.72183" lon="2.57924">
        <ele>69</ele>
        <time>2020-12-10T10:34:12.592Z</time>
      </trkpt>
      <trkpt lat="48.72178" lon="2.57913">
        <ele>71</ele>
        <time>2020-12-10T10:34:17.606Z</time>
      </trkpt>
      <trkpt lat="48.72174" lon="2.57905">
        <ele>71</ele>
        <time>2020-12-10T10:34:22.593Z</time>
      </trkpt>
      <trkpt lat="48.7217" lon="2.57901">
        <ele>71</ele>
        <time>2020-12-10T10:34:27.603Z</time>
      </trkpt>
      <trkpt lat="48.72168" lon="2.57897">
        <ele>71</ele>
        <time>2020-12-10T10:34:32.610Z</time>
      </trkpt>
      <trkpt lat="48.72165" lon="2.57892">
        <ele>71</ele>
        <time>2020-12-10T10:34:37.612Z</time>
      </trkpt>
      <trkpt lat="48.7216" lon="2.57889">
        <ele>71</ele>
        <time>2020-12-10T10:34:42.600Z</time>
      </trkpt>
      <trkpt lat="48.72155" lon="2.57884">
        <ele>71</ele>
        <time>2020-12-10T10:34:47.594Z</time>
      </trkpt>
      <trkpt lat="48.72151" lon="2.57881">
        <ele>71</ele>
        <time>2020-12-10T10:34:52.592Z</time>
      </trkpt>
      <trkpt lat="48.72146" lon="2.57879">
        <ele>71</ele>
        <time>2020-12-10T10:34:57.602Z</time>
      </trkpt>
      <trkpt lat="48.72139" lon="2.57878">
        <ele>71</ele>
        <time>2020-12-10T10:35:02.607Z</time>
      </trkpt>
      <trkpt lat="48.72131" lon="2.57877">
        <ele>71</ele>
        <time>2020-12-10T10:35:07.600Z</time>
      </trkpt>
      <trkpt lat="48.72124" lon="2.57873">
        <ele>72</ele>
        <time>2020-12-10T10:35:12.605Z</time>
      </trkpt>
      <trkpt lat="48.72118" lon="2.57869">
        <ele>72</ele>
        <time>2020-12-10T10:35:17.613Z</time>
      </trkpt>
      <trkpt lat="48.72112" lon="2.57866">
        <ele>72</ele>
        <time>2020-12-10T10:35:22.598Z</time>
      </trkpt>
      <trkpt lat="48.72105" lon="2.57864">
        <ele>72</ele>
        <time>2020-12-10T10:35:27.604Z</time>
      </trkpt>
      <trkpt lat="48.72101" lon="2.5786">
        <ele>72</ele>
        <time>2020-12-10T10:35:31.618Z</time>
      </trkpt>
      <trkpt lat="48.72098" lon="2.57852">
        <ele>72</ele>
        <time>2020-12-10T10:35:36.604Z</time>
      </trkpt>
      <trkpt lat="48.72094" lon="2.57849">
        <ele>77</ele>
        <time>2020-12-10T10:35:41.595Z</time>
      </trkpt>
      <trkpt lat="48.72085" lon="2.57848">
        <ele>77</ele>
        <time>2020-12-10T10:35:46.603Z</time>
      </trkpt>
      <trkpt lat="48.72082" lon="2.57848">
        <ele>77</ele>
        <time>2020-12-10T10:35:51.611Z</time>
      </trkpt>
      <trkpt lat="48.72077" lon="2.57846">
        <ele>76</ele>
        <time>2020-12-10T10:35:56.595Z</time>
      </trkpt>
      <trkpt lat="48.72074" lon="2.57841">
        <ele>76</ele>
        <time>2020-12-10T10:36:01.602Z</time>
      </trkpt>
      <trkpt lat="48.72074" lon="2.57832">
        <ele>76</ele>
        <time>2020-12-10T10:36:06.604Z</time>
      </trkpt>
      <trkpt lat="48.72075" lon="2.57822">
        <ele>76</ele>
        <time>2020-12-10T10:36:11.611Z</time>
      </trkpt>
      <trkpt lat="48.72077" lon="2.57817">
        <ele>77</ele>
        <time>2020-12-10T10:36:16.602Z</time>
      </trkpt>
      <trkpt lat="48.72079" lon="2.57809">
        <ele>77</ele>
        <time>2020-12-10T10:36:21.609Z</time>
      </trkpt>
      <trkpt lat="48.72083" lon="2.57801">
        <ele>77</ele>
        <time>2020-12-10T10:36:26.614Z</time>
      </trkpt>
      <trkpt lat="48.72088" lon="2.57794">
        <ele>77</ele>
        <time>2020-12-10T10:36:31.598Z</time>
      </trkpt>
      <trkpt lat="48.7209" lon="2.57789">
        <ele>78</ele>
        <time>2020-12-10T10:36:36.602Z</time>
      </trkpt>
      <trkpt lat="48.72093" lon="2.57785">
        <ele>78</ele>
        <time>2020-12-10T10:36:41.601Z</time>
      </trkpt>
      <trkpt lat="48.72095" lon="2.5778">
        <ele>78</ele>
        <time>2020-12-10T10:36:46.603Z</time>
      </trkpt>
      <trkpt lat="48.72096" lon="2.57773">
        <ele>78</ele>
        <time>2020-12-10T10:36:51.597Z</time>
      </trkpt>
      <trkpt lat="48.72097" lon="2.57766">
        <ele>78</ele>
        <time>2020-12-10T10:36:55.611Z</time>
      </trkpt>
      <trkpt lat="48.72098" lon="2.57759">
        <ele>75</ele>
        <time>2020-12-10T10:37:00.604Z</time>
      </trkpt>
      <trkpt lat="48.72101" lon="2.57752">
        <ele>75</ele>
        <time>2020-12-10T10:37:05.613Z</time>
      </trkpt>
      <trkpt lat="48.72105" lon="2.57742">
        <ele>75</ele>
        <time>2020-12-10T10:37:10.620Z</time>
      </trkpt>
      <trkpt lat="48.72109" lon="2.57729">
        <ele>76</ele>
        <time>2020-12-10T10:37:15.612Z</time>
      </trkpt>
      <trkpt lat="48.72113" lon="2.57722">
        <ele>76</ele>
        <time>2020-12-10T10:37:20.590Z</time>
      </trkpt>
      <trkpt lat="48.72115" lon="2.57714">
        <ele>76</ele>
        <time>2020-12-10T10:37:25.591Z</time>
      </trkpt>
      <trkpt lat="48.72118" lon="2.57705">
        <ele>74</ele>
        <time>2020-12-10T10:37:30.608Z</time>
      </trkpt>
      <trkpt lat="48.72121" lon="2.577">
        <ele>74</ele>
        <time>2020-12-10T10:37:35.591Z</time>
      </trkpt>
      <trkpt lat="48.72124" lon="2.57696">
        <ele>74</ele>
        <time>2020-12-10T10:37:39.614Z</time>
      </trkpt>
      <trkpt lat="48.72125" lon="2.5769">
        <ele>71</ele>
        <time>2020-12-10T10:37:44.613Z</time>
      </trkpt>
      <trkpt lat="48.72127" lon="2.57683">
        <ele>71</ele>
        <time>2020-12-10T10:37:49.605Z</time>
      </trkpt>
      <trkpt lat="48.72129" lon="2.57675">
        <ele>70</ele>
        <time>2020-12-10T10:37:54.607Z</time>
      </trkpt>
      <trkpt lat="48.72132" lon="2.57667">
        <ele>70</ele>
        <time>2020-12-10T10:37:59.592Z</time>
      </trkpt>
      <trkpt lat="48.72134" lon="2.57659">
        <ele>70</ele>
        <time>2020-12-10T10:38:04.611Z</time>
      </trkpt>
      <trkpt lat="48.72137" lon="2.57651">
        <ele>70</ele>
        <time>2020-12-10T10:38:09.596Z</time>
      </trkpt>
      <trkpt lat="48.72139" lon="2.57645">
        <ele>70</ele>
        <time>2020-12-10T10:38:14.612Z</time>
      </trkpt>
      <trkpt lat="48.72141" lon="2.57632">
        <ele>70</ele>
        <time>2020-12-10T10:38:19.603Z</time>
      </trkpt>
      <trkpt lat="48.72141" lon="2.57626">
        <ele>70</ele>
        <time>2020-12-10T10:38:24.611Z</time>
      </trkpt>
      <trkpt lat="48.72143" lon="2.57616">
        <ele>70</ele>
        <time>2020-12-10T10:38:29.591Z</time>
      </trkpt>
      <trkpt lat="48.72144" lon="2.57603">
        <ele>70</ele>
        <time>2020-12-10T10:38:34.599Z</time>
      </trkpt>
      <trkpt lat="48.72146" lon="2.57589">
        <ele>70</ele>
        <time>2020-12-10T10:38:39.599Z</time>
      </trkpt>
      <trkpt lat="48.72147" lon="2.5758">
        <ele>70</ele>
        <time>2020-12-10T10:38:44.599Z</time>
      </trkpt>
      <trkpt lat="48.72148" lon="2.57573">
        <ele>70</ele>
        <time>2020-12-10T10:38:48.607Z</time>
      </trkpt>
      <trkpt lat="48.7215" lon="2.57568">
        <ele>70</ele>
        <time>2020-12-10T10:38:53.606Z</time>
      </trkpt>
      <trkpt lat="48.72152" lon="2.57563">
        <ele>70</ele>
        <time>2020-12-10T10:38:58.611Z</time>
      </trkpt>
      <trkpt lat="48.72153" lon="2.57556">
        <ele>68</ele>
        <time>2020-12-10T10:39:03.605Z</time>
      </trkpt>
      <trkpt lat="48.72155" lon="2.5755">
        <ele>68</ele>
        <time>2020-12-10T10:39:08.612Z</time>
      </trkpt>
      <trkpt lat="48.72157" lon="2.57544">
        <ele>68</ele>
        <time>2020-12-10T10:39:13.612Z</time>
      </trkpt>
      <trkpt lat="48.72159" lon="2.57539">
        <ele>68</ele>
        <time>2020-12-10T10:39:18.612Z</time>
      </trkpt>
      <trkpt lat="48.72163" lon="2.57529">
        <ele>68</ele>
        <time>2020-12-10T10:39:23.598Z</time>
      </trkpt>
      <trkpt lat="48.72165" lon="2.57518">
        <ele>68</ele>
        <time>2020-12-10T10:39:28.606Z</time>
      </trkpt>
      <trkpt lat="48.72166" lon="2.57508">
        <ele>70</ele>
        <time>2020-12-10T10:39:33.613Z</time>
      </trkpt>
      <trkpt lat="48.72166" lon="2.57499">
        <ele>70</ele>
        <time>2020-12-10T10:39:38.618Z</time>
      </trkpt>
      <trkpt lat="48.72168" lon="2.5749">
        <ele>70</ele>
        <time>2020-12-10T10:39:43.613Z</time>
      </trkpt>
      <trkpt lat="48.72171" lon="2.57478">
        <ele>71</ele>
        <time>2020-12-10T10:39:48.586Z</time>
      </trkpt>
      <trkpt lat="48.72174" lon="2.57472">
        <ele>71</ele>
        <time>2020-12-10T10:39:52.610Z</time>
      </trkpt>
      <trkpt lat="48.72178" lon="2.57468">
        <ele>71</ele>
        <time>2020-12-10T10:39:57.585Z</time>
      </trkpt>
      <trkpt lat="48.72182" lon="2.57464">
        <ele>68</ele>
        <time>2020-12-10T10:40:01.608Z</time>
      </trkpt>
      <trkpt lat="48.7219" lon="2.57461">
        <ele>68</ele>
        <time>2020-12-10T10:40:06.613Z</time>
      </trkpt>
      <trkpt lat="48.72194" lon="2.5746">
        <ele>68</ele>
        <time>2020-12-10T10:40:11.606Z</time>
      </trkpt>
      <trkpt lat="48.72203" lon="2.57458">
        <ele>70</ele>
        <time>2020-12-10T10:40:16.587Z</time>
      </trkpt>
      <trkpt lat="48.72209" lon="2.57456">
        <ele>67</ele>
        <time>2020-12-10T10:40:20.634Z</time>
      </trkpt>
      <trkpt lat="48.72215" lon="2.57456">
        <ele>67</ele>
        <time>2020-12-10T10:40:25.626Z</time>
      </trkpt>
      <trkpt lat="48.7222" lon="2.57455">
        <ele>67</ele>
        <time>2020-12-10T10:40:30.626Z</time>
      </trkpt>
      <trkpt lat="48.72225" lon="2.57453">
        <ele>67</ele>
        <time>2020-12-10T10:40:35.619Z</time>
      </trkpt>
      <trkpt lat="48.72234" lon="2.57452">
        <ele>67</ele>
        <time>2020-12-10T10:40:40.615Z</time>
      </trkpt>
      <trkpt lat="48.72239" lon="2.57451">
        <ele>65</ele>
        <time>2020-12-10T10:40:45.601Z</time>
      </trkpt>
      <trkpt lat="48.72247" lon="2.57453">
        <ele>65</ele>
        <time>2020-12-10T10:40:50.606Z</time>
      </trkpt>
      <trkpt lat="48.72252" lon="2.57452">
        <ele>65</ele>
        <time>2020-12-10T10:40:54.619Z</time>
      </trkpt>
      <trkpt lat="48.72259" lon="2.57457">
        <ele>65</ele>
        <time>2020-12-10T10:40:59.619Z</time>
      </trkpt>
      <trkpt lat="48.72265" lon="2.57462">
        <ele>66</ele>
        <time>2020-12-10T10:41:04.632Z</time>
      </trkpt>
      <trkpt lat="48.72273" lon="2.57464">
        <ele>66</ele>
        <time>2020-12-10T10:41:09.609Z</time>
      </trkpt>
      <trkpt lat="48.72284" lon="2.57459">
        <ele>66</ele>
        <time>2020-12-10T10:41:14.638Z</time>
      </trkpt>
      <trkpt lat="48.72291" lon="2.57454">
        <ele>66</ele>
        <time>2020-12-10T10:41:19.609Z</time>
      </trkpt>
      <trkpt lat="48.72301" lon="2.57447">
        <ele>68</ele>
        <time>2020-12-10T10:41:24.596Z</time>
      </trkpt>
      <trkpt lat="48.72304" lon="2.57446">
        <ele>68</ele>
        <time>2020-12-10T10:41:28.615Z</time>
      </trkpt>
      <trkpt lat="48.72309" lon="2.57444">
        <ele>68</ele>
        <time>2020-12-10T10:41:33.594Z</time>
      </trkpt>
      <trkpt lat="48.72314" lon="2.57441">
        <ele>68</ele>
        <time>2020-12-10T10:41:38.600Z</time>
      </trkpt>
      <trkpt lat="48.72323" lon="2.57443">
        <ele>67</ele>
        <time>2020-12-10T10:41:43.585Z</time>
      </trkpt>
      <trkpt lat="48.72328" lon="2.57437">
        <ele>67</ele>
        <time>2020-12-10T10:41:48.598Z</time>
      </trkpt>
      <trkpt lat="48.72331" lon="2.57428">
        <ele>67</ele>
        <time>2020-12-10T10:41:53.603Z</time>
      </trkpt>
      <trkpt lat="48.72323" lon="2.57428">
        <ele>67</ele>
        <time>2020-12-10T10:41:58.609Z</time>
      </trkpt>
      <trkpt lat="48.72349" lon="2.57412">
        <ele>67</ele>
        <time>2020-12-10T10:42:03.586Z</time>
      </trkpt>
      <trkpt lat="48.7235" lon="2.57403">
        <ele>68</ele>
        <time>2020-12-10T10:42:07.611Z</time>
      </trkpt>
      <trkpt lat="48.72348" lon="2.57382">
        <ele>68</ele>
        <time>2020-12-10T10:42:12.594Z</time>
      </trkpt>
      <trkpt lat="48.72351" lon="2.57374">
        <ele>66</ele>
        <time>2020-12-10T10:42:17.606Z</time>
      </trkpt>
      <trkpt lat="48.72354" lon="2.57364">
        <ele>66</ele>
        <time>2020-12-10T10:42:22.602Z</time>
      </trkpt>
      <trkpt lat="48.72362" lon="2.57344">
        <ele>66</ele>
        <time>2020-12-10T10:42:41.679Z</time>
      </trkpt>
      <trkpt lat="48.72361" lon="2.57343">
        <ele>66</ele>
        <time>2020-12-10T10:42:46.576Z</time>
      </trkpt>
      <trkpt lat="48.72366" lon="2.5734">
        <ele>66</ele>
        <time>2020-12-10T10:42:51.616Z</time>
      </trkpt>
      <trkpt lat="48.72372" lon="2.57339">
        <ele>66</ele>
        <time>2020-12-10T10:42:56.572Z</time>
      </trkpt>
      <trkpt lat="48.72379" lon="2.57336">
        <ele>67</ele>
        <time>2020-12-10T10:43:01.575Z</time>
      </trkpt>
      <trkpt lat="48.72385" lon="2.57335">
        <ele>67</ele>
        <time>2020-12-10T10:43:05.616Z</time>
      </trkpt>
      <trkpt lat="48.72393" lon="2.57334">
        <ele>67</ele>
        <time>2020-12-10T10:43:10.594Z</time>
      </trkpt>
      <trkpt lat="48.724" lon="2.57335">
        <ele>67</ele>
        <time>2020-12-10T10:43:15.616Z</time>
      </trkpt>
      <trkpt lat="48.72406" lon="2.57336">
        <ele>67</ele>
        <time>2020-12-10T10:43:20.596Z</time>
      </trkpt>
      <trkpt lat="48.72412" lon="2.57339">
        <ele>67</ele>
        <time>2020-12-10T10:43:25.603Z</time>
      </trkpt>
      <trkpt lat="48.72417" lon="2.57342">
        <ele>67</ele>
        <time>2020-12-10T10:43:29.738Z</time>
      </trkpt>
      <trkpt lat="48.72424" lon="2.57349">
        <ele>69</ele>
        <time>2020-12-10T10:43:34.578Z</time>
      </trkpt>
      <trkpt lat="48.7243" lon="2.57356">
        <ele>69</ele>
        <time>2020-12-10T10:43:38.611Z</time>
      </trkpt>
      <trkpt lat="48.72435" lon="2.57362">
        <ele>69</ele>
        <time>2020-12-10T10:43:43.588Z</time>
      </trkpt>
      <trkpt lat="48.72442" lon="2.57365">
        <ele>69</ele>
        <time>2020-12-10T10:43:48.606Z</time>
      </trkpt>
      <trkpt lat="48.7245" lon="2.57365">
        <ele>69</ele>
        <time>2020-12-10T10:43:53.567Z</time>
      </trkpt>
      <trkpt lat="48.72454" lon="2.57367">
        <ele>69</ele>
        <time>2020-12-10T10:43:57.594Z</time>
      </trkpt>
      <trkpt lat="48.72459" lon="2.57367">
        <ele>71</ele>
        <time>2020-12-10T10:44:02.574Z</time>
      </trkpt>
      <trkpt lat="48.72469" lon="2.57367">
        <ele>71</ele>
        <time>2020-12-10T10:44:06.601Z</time>
      </trkpt>
      <trkpt lat="48.72475" lon="2.57361">
        <ele>71</ele>
        <time>2020-12-10T10:44:11.604Z</time>
      </trkpt>
      <trkpt lat="48.72479" lon="2.5735">
        <ele>71</ele>
        <time>2020-12-10T10:44:16.588Z</time>
      </trkpt>
      <trkpt lat="48.7248" lon="2.57339">
        <ele>71</ele>
        <time>2020-12-10T10:44:21.595Z</time>
      </trkpt>
      <trkpt lat="48.72484" lon="2.57331">
        <ele>71</ele>
        <time>2020-12-10T10:44:26.594Z</time>
      </trkpt>
      <trkpt lat="48.72483" lon="2.57323">
        <ele>71</ele>
        <time>2020-12-10T10:44:31.599Z</time>
      </trkpt>
      <trkpt lat="48.72481" lon="2.57313">
        <ele>71</ele>
        <time>2020-12-10T10:44:36.592Z</time>
      </trkpt>
      <trkpt lat="48.72484" lon="2.57295">
        <ele>71</ele>
        <time>2020-12-10T10:44:40.627Z</time>
      </trkpt>
      <trkpt lat="48.72483" lon="2.57282">
        <ele>71</ele>
        <time>2020-12-10T10:44:45.596Z</time>
      </trkpt>
      <trkpt lat="48.72485" lon="2.57273">
        <ele>71</ele>
        <time>2020-12-10T10:44:50.601Z</time>
      </trkpt>
      <trkpt lat="48.72494" lon="2.57272">
        <ele>74</ele>
        <time>2020-12-10T10:44:55.587Z</time>
      </trkpt>
      <trkpt lat="48.72494" lon="2.57264">
        <ele>74</ele>
        <time>2020-12-10T10:44:59.609Z</time>
      </trkpt>
      <trkpt lat="48.72499" lon="2.57253">
        <ele>73</ele>
        <time>2020-12-10T10:45:04.600Z</time>
      </trkpt>
      <trkpt lat="48.72508" lon="2.57251">
        <ele>73</ele>
        <time>2020-12-10T10:45:09.601Z</time>
      </trkpt>
      <trkpt lat="48.72511" lon="2.57249">
        <ele>73</ele>
        <time>2020-12-10T10:45:15.587Z</time>
      </trkpt>
      <trkpt lat="48.72518" lon="2.57246">
        <ele>77</ele>
        <time>2020-12-10T10:45:20.578Z</time>
      </trkpt>
      <trkpt lat="48.7253" lon="2.57253">
        <ele>77</ele>
        <time>2020-12-10T10:45:25.592Z</time>
      </trkpt>
      <trkpt lat="48.72537" lon="2.57255">
        <ele>77</ele>
        <time>2020-12-10T10:45:30.583Z</time>
      </trkpt>
      <trkpt lat="48.72552" lon="2.57261">
        <ele>79</ele>
        <time>2020-12-10T10:45:41.593Z</time>
      </trkpt>
      <trkpt lat="48.72564" lon="2.57253">
        <ele>79</ele>
        <time>2020-12-10T10:46:16.584Z</time>
      </trkpt>
      <trkpt lat="48.72567" lon="2.5727">
        <ele>80</ele>
        <time>2020-12-10T10:46:21.599Z</time>
      </trkpt>
      <trkpt lat="48.72568" lon="2.57282">
        <ele>80</ele>
        <time>2020-12-10T10:46:26.584Z</time>
      </trkpt>
      <trkpt lat="48.72581" lon="2.57281">
        <ele>80</ele>
        <time>2020-12-10T10:46:31.599Z</time>
      </trkpt>
      <trkpt lat="48.72591" lon="2.573">
        <ele>82</ele>
        <time>2020-12-10T10:46:36.595Z</time>
      </trkpt>
      <trkpt lat="48.72596" lon="2.57303">
        <ele>82</ele>
        <time>2020-12-10T10:46:41.600Z</time>
      </trkpt>
      <trkpt lat="48.72604" lon="2.57307">
        <ele>83</ele>
        <time>2020-12-10T10:46:46.587Z</time>
      </trkpt>
      <trkpt lat="48.72618" lon="2.57309">
        <ele>83</ele>
        <time>2020-12-10T10:46:52.601Z</time>
      </trkpt>
      <trkpt lat="48.72628" lon="2.57304">
        <ele>84</ele>
        <time>2020-12-10T10:47:01.595Z</time>
      </trkpt>
      <trkpt lat="48.72631" lon="2.57308">
        <ele>84</ele>
        <time>2020-12-10T10:47:06.590Z</time>
      </trkpt>
      <trkpt lat="48.72633" lon="2.57313">
        <ele>84</ele>
        <time>2020-12-10T10:47:10.614Z</time>
      </trkpt>
      <trkpt lat="48.72632" lon="2.57326">
        <ele>84</ele>
        <time>2020-12-10T10:47:15.595Z</time>
      </trkpt>
      <trkpt lat="48.72624" lon="2.57338">
        <ele>84</ele>
        <time>2020-12-10T10:47:20.594Z</time>
      </trkpt>
      <trkpt lat="48.72627" lon="2.57347">
        <ele>84</ele>
        <time>2020-12-10T10:47:44.603Z</time>
      </trkpt>
      <trkpt lat="48.7263" lon="2.57353">
        <ele>84</ele>
        <time>2020-12-10T10:47:49.602Z</time>
      </trkpt>
      <trkpt lat="48.72641" lon="2.57365">
        <ele>84</ele>
        <time>2020-12-10T10:47:55.606Z</time>
      </trkpt>
      <trkpt lat="48.72656" lon="2.5736">
        <ele>87</ele>
        <time>2020-12-10T10:48:00.597Z</time>
      </trkpt>
      <trkpt lat="48.72644" lon="2.57395">
        <ele>84</ele>
        <time>2020-12-10T10:48:05.588Z</time>
      </trkpt>
      <trkpt lat="48.72653" lon="2.5742">
        <ele>83</ele>
        <time>2020-12-10T10:48:45.605Z</time>
      </trkpt>
      <trkpt lat="48.72648" lon="2.57442">
        <ele>83</ele>
        <time>2020-12-10T10:48:50.601Z</time>
      </trkpt>
      <trkpt lat="48.72653" lon="2.57441">
        <ele>84</ele>
        <time>2020-12-10T10:48:55.585Z</time>
      </trkpt>
      <trkpt lat="48.72679" lon="2.5743">
        <ele>84</ele>
        <time>2020-12-10T10:49:00.597Z</time>
      </trkpt>
      <trkpt lat="48.72706" lon="2.57443">
        <ele>86</ele>
        <time>2020-12-10T10:49:05.579Z</time>
      </trkpt>
      <trkpt lat="48.72711" lon="2.57449">
        <ele>87</ele>
        <time>2020-12-10T10:49:09.618Z</time>
      </trkpt>
      <trkpt lat="48.72738" lon="2.57444">
        <ele>88</ele>
        <time>2020-12-10T10:49:16.607Z</time>
      </trkpt>
      <trkpt lat="48.72745" lon="2.57441">
        <ele>88</ele>
        <time>2020-12-10T10:49:21.602Z</time>
      </trkpt>
      <trkpt lat="48.72757" lon="2.57439">
        <ele>88</ele>
        <time>2020-12-10T10:49:26.579Z</time>
      </trkpt>
      <trkpt lat="48.72762" lon="2.57438">
        <ele>88</ele>
        <time>2020-12-10T10:49:30.595Z</time>
      </trkpt>
      <trkpt lat="48.72768" lon="2.57438">
        <ele>89</ele>
        <time>2020-12-10T10:49:43.606Z</time>
      </trkpt>
      <trkpt lat="48.72779" lon="2.57425">
        <ele>92</ele>
        <time>2020-12-10T10:50:07.603Z</time>
      </trkpt>
      <trkpt lat="48.72786" lon="2.57453">
        <ele>89</ele>
        <time>2020-12-10T10:50:12.602Z</time>
      </trkpt>
      <trkpt lat="48.72789" lon="2.57459">
        <ele>88</ele>
        <time>2020-12-10T10:50:17.606Z</time>
      </trkpt>
      <trkpt lat="48.72792" lon="2.5746">
        <ele>90</ele>
        <time>2020-12-10T10:50:22.601Z</time>
      </trkpt>
      <trkpt lat="48.72802" lon="2.57466">
        <ele>90</ele>
        <time>2020-12-10T10:50:27.605Z</time>
      </trkpt>
      <trkpt lat="48.72812" lon="2.57462">
        <ele>90</ele>
        <time>2020-12-10T10:50:32.603Z</time>
      </trkpt>
      <trkpt lat="48.72821" lon="2.57466">
        <ele>92</ele>
        <time>2020-12-10T10:50:37.624Z</time>
      </trkpt>
      <trkpt lat="48.72837" lon="2.5748">
        <ele>92</ele>
        <time>2020-12-10T10:50:42.598Z</time>
      </trkpt>
      <trkpt lat="48.72851" lon="2.5749">
        <ele>91</ele>
        <time>2020-12-10T10:50:47.600Z</time>
      </trkpt>
      <trkpt lat="48.72861" lon="2.57497">
        <ele>91</ele>
        <time>2020-12-10T10:50:52.573Z</time>
      </trkpt>
      <trkpt lat="48.72865" lon="2.57498">
        <ele>91</ele>
        <time>2020-12-10T10:50:56.610Z</time>
      </trkpt>
      <trkpt lat="48.72875" lon="2.57499">
        <ele>91</ele>
        <time>2020-12-10T10:51:01.595Z</time>
      </trkpt>
      <trkpt lat="48.72886" lon="2.57505">
        <ele>91</ele>
        <time>2020-12-10T10:51:06.604Z</time>
      </trkpt>
      <trkpt lat="48.72893" lon="2.57518">
        <ele>90</ele>
        <time>2020-12-10T10:51:11.600Z</time>
      </trkpt>
      <trkpt lat="48.72896" lon="2.57521">
        <ele>90</ele>
        <time>2020-12-10T10:51:16.628Z</time>
      </trkpt>
      <trkpt lat="48.72903" lon="2.57519">
        <ele>90</ele>
        <time>2020-12-10T10:51:21.593Z</time>
      </trkpt>
      <trkpt lat="48.72911" lon="2.5752">
        <ele>90</ele>
        <time>2020-12-10T10:51:26.614Z</time>
      </trkpt>
      <trkpt lat="48.72917" lon="2.57519">
        <ele>90</ele>
        <time>2020-12-10T10:51:31.609Z</time>
      </trkpt>
      <trkpt lat="48.72924" lon="2.57522">
        <ele>90</ele>
        <time>2020-12-10T10:51:36.598Z</time>
      </trkpt>
      <trkpt lat="48.72927" lon="2.57521">
        <ele>90</ele>
        <time>2020-12-10T10:51:41.588Z</time>
      </trkpt>
      <trkpt lat="48.72925" lon="2.57514">
        <ele>90</ele>
        <time>2020-12-10T10:51:46.599Z</time>
      </trkpt>
      <trkpt lat="48.72933" lon="2.57517">
        <ele>91</ele>
        <time>2020-12-10T10:51:51.604Z</time>
      </trkpt>
      <trkpt lat="48.72939" lon="2.57518">
        <ele>91</ele>
        <time>2020-12-10T10:51:56.601Z</time>
      </trkpt>
      <trkpt lat="48.72945" lon="2.5752">
        <ele>91</ele>
        <time>2020-12-10T10:52:01.604Z</time>
      </trkpt>
      <trkpt lat="48.72956" lon="2.57521">
        <ele>91</ele>
        <time>2020-12-10T10:52:06.600Z</time>
      </trkpt>
      <trkpt lat="48.72963" lon="2.57521">
        <ele>91</ele>
        <time>2020-12-10T10:52:11.596Z</time>
      </trkpt>
      <trkpt lat="48.72972" lon="2.57523">
        <ele>91</ele>
        <time>2020-12-10T10:52:16.584Z</time>
      </trkpt>
      <trkpt lat="48.7298" lon="2.57526">
        <ele>91</ele>
        <time>2020-12-10T10:52:20.599Z</time>
      </trkpt>
      <trkpt lat="48.72983" lon="2.57527">
        <ele>91</ele>
        <time>2020-12-10T10:52:25.597Z</time>
      </trkpt>
      <trkpt lat="48.72993" lon="2.57531">
        <ele>92</ele>
        <time>2020-12-10T10:52:30.622Z</time>
      </trkpt>
      <trkpt lat="48.72997" lon="2.57532">
        <ele>92</ele>
        <time>2020-12-10T10:52:35.604Z</time>
      </trkpt>
      <trkpt lat="48.73003" lon="2.57531">
        <ele>92</ele>
        <time>2020-12-10T10:52:40.604Z</time>
      </trkpt>
      <trkpt lat="48.73006" lon="2.57528">
        <ele>92</ele>
        <time>2020-12-10T10:52:45.592Z</time>
      </trkpt>
      <trkpt lat="48.73014" lon="2.5753">
        <ele>93</ele>
        <time>2020-12-10T10:52:50.602Z</time>
      </trkpt>
      <trkpt lat="48.73021" lon="2.57535">
        <ele>93</ele>
        <time>2020-12-10T10:52:55.600Z</time>
      </trkpt>
      <trkpt lat="48.73024" lon="2.57533">
        <ele>93</ele>
        <time>2020-12-10T10:53:00.597Z</time>
      </trkpt>
      <trkpt lat="48.7303" lon="2.57533">
        <ele>93</ele>
        <time>2020-12-10T10:53:05.601Z</time>
      </trkpt>
      <trkpt lat="48.73036" lon="2.57533">
        <ele>93</ele>
        <time>2020-12-10T10:53:10.597Z</time>
      </trkpt>
      <trkpt lat="48.73046" lon="2.57536">
        <ele>91</ele>
        <time>2020-12-10T10:53:15.597Z</time>
      </trkpt>
      <trkpt lat="48.73052" lon="2.57538">
        <ele>91</ele>
        <time>2020-12-10T10:53:20.611Z</time>
      </trkpt>
      <trkpt lat="48.7306" lon="2.57539">
        <ele>91</ele>
        <time>2020-12-10T10:53:25.598Z</time>
      </trkpt>
      <trkpt lat="48.7307" lon="2.57541">
        <ele>90</ele>
        <time>2020-12-10T10:53:30.603Z</time>
      </trkpt>
      <trkpt lat="48.73077" lon="2.57543">
        <ele>91</ele>
        <time>2020-12-10T10:53:35.601Z</time>
      </trkpt>
      <trkpt lat="48.73086" lon="2.57544">
        <ele>91</ele>
        <time>2020-12-10T10:53:40.591Z</time>
      </trkpt>
      <trkpt lat="48.73096" lon="2.57545">
        <ele>91</ele>
        <time>2020-12-10T10:53:45.603Z</time>
      </trkpt>
      <trkpt lat="48.731" lon="2.57546">
        <ele>91</ele>
        <time>2020-12-10T10:53:50.581Z</time>
      </trkpt>
      <trkpt lat="48.73106" lon="2.57548">
        <ele>91</ele>
        <time>2020-12-10T10:53:54.615Z</time>
      </trkpt>
      <trkpt lat="48.73114" lon="2.57549">
        <ele>91</ele>
        <time>2020-12-10T10:53:59.610Z</time>
      </trkpt>
      <trkpt lat="48.73121" lon="2.57551">
        <ele>91</ele>
        <time>2020-12-10T10:54:04.590Z</time>
      </trkpt>
      <trkpt lat="48.73126" lon="2.57552">
        <ele>91</ele>
        <time>2020-12-10T10:54:09.605Z</time>
      </trkpt>
      <trkpt lat="48.73133" lon="2.57554">
        <ele>91</ele>
        <time>2020-12-10T10:54:14.593Z</time>
      </trkpt>
      <trkpt lat="48.73139" lon="2.57558">
        <ele>91</ele>
        <time>2020-12-10T10:54:19.593Z</time>
      </trkpt>
      <trkpt lat="48.73144" lon="2.5756">
        <ele>91</ele>
        <time>2020-12-10T10:54:23.606Z</time>
      </trkpt>
      <trkpt lat="48.7315" lon="2.57562">
        <ele>91</ele>
        <time>2020-12-10T10:54:28.600Z</time>
      </trkpt>
      <trkpt lat="48.73153" lon="2.57562">
        <ele>91</ele>
        <time>2020-12-10T10:54:32.619Z</time>
      </trkpt>
      <trkpt lat="48.73159" lon="2.57564">
        <ele>91</ele>
        <time>2020-12-10T10:54:37.591Z</time>
      </trkpt>
      <trkpt lat="48.73165" lon="2.57566">
        <ele>91</ele>
        <time>2020-12-10T10:54:42.602Z</time>
      </trkpt>
      <trkpt lat="48.73172" lon="2.57568">
        <ele>91</ele>
        <time>2020-12-10T10:54:47.594Z</time>
      </trkpt>
      <trkpt lat="48.73177" lon="2.5757">
        <ele>91</ele>
        <time>2020-12-10T10:54:52.599Z</time>
      </trkpt>
      <trkpt lat="48.73183" lon="2.5757">
        <ele>92</ele>
        <time>2020-12-10T10:54:57.604Z</time>
      </trkpt>
      <trkpt lat="48.7319" lon="2.57568">
        <ele>91</ele>
        <time>2020-12-10T10:55:02.607Z</time>
      </trkpt>
      <trkpt lat="48.73198" lon="2.57568">
        <ele>91</ele>
        <time>2020-12-10T10:55:07.595Z</time>
      </trkpt>
      <trkpt lat="48.73204" lon="2.57566">
        <ele>91</ele>
        <time>2020-12-10T10:55:12.595Z</time>
      </trkpt>
      <trkpt lat="48.73209" lon="2.57565">
        <ele>92</ele>
        <time>2020-12-10T10:55:17.597Z</time>
      </trkpt>
      <trkpt lat="48.73215" lon="2.57563">
        <ele>92</ele>
        <time>2020-12-10T10:55:22.600Z</time>
      </trkpt>
      <trkpt lat="48.7322" lon="2.57561">
        <ele>92</ele>
        <time>2020-12-10T10:55:27.599Z</time>
      </trkpt>
      <trkpt lat="48.73226" lon="2.5756">
        <ele>92</ele>
        <time>2020-12-10T10:55:32.580Z</time>
      </trkpt>
      <trkpt lat="48.73232" lon="2.57557">
        <ele>92</ele>
        <time>2020-12-10T10:55:36.605Z</time>
      </trkpt>
      <trkpt lat="48.73238" lon="2.57554">
        <ele>93</ele>
        <time>2020-12-10T10:55:41.589Z</time>
      </trkpt>
      <trkpt lat="48.73246" lon="2.57549">
        <ele>93</ele>
        <time>2020-12-10T10:55:46.610Z</time>
      </trkpt>
      <trkpt lat="48.73256" lon="2.57545">
        <ele>93</ele>
        <time>2020-12-10T10:55:51.599Z</time>
      </trkpt>
      <trkpt lat="48.73264" lon="2.57542">
        <ele>93</ele>
        <time>2020-12-10T10:55:56.610Z</time>
      </trkpt>
      <trkpt lat="48.73271" lon="2.5754">
        <ele>93</ele>
        <time>2020-12-10T10:56:01.591Z</time>
      </trkpt>
      <trkpt lat="48.73278" lon="2.57536">
        <ele>93</ele>
        <time>2020-12-10T10:56:06.595Z</time>
      </trkpt>
      <trkpt lat="48.73284" lon="2.57532">
        <ele>93</ele>
        <time>2020-12-10T10:56:11.602Z</time>
      </trkpt>
      <trkpt lat="48.73289" lon="2.57531">
        <ele>93</ele>
        <time>2020-12-10T10:56:16.615Z</time>
      </trkpt>
      <trkpt lat="48.73293" lon="2.57529">
        <ele>93</ele>
        <time>2020-12-10T10:56:21.596Z</time>
      </trkpt>
      <trkpt lat="48.73299" lon="2.5753">
        <ele>93</ele>
        <time>2020-12-10T10:56:26.616Z</time>
      </trkpt>
      <trkpt lat="48.73307" lon="2.57532">
        <ele>93</ele>
        <time>2020-12-10T10:56:31.589Z</time>
      </trkpt>
      <trkpt lat="48.73311" lon="2.57533">
        <ele>93</ele>
        <time>2020-12-10T10:56:36.579Z</time>
      </trkpt>
      <trkpt lat="48.73319" lon="2.57531">
        <ele>93</ele>
        <time>2020-12-10T10:56:41.613Z</time>
      </trkpt>
      <trkpt lat="48.73328" lon="2.57523">
        <ele>95</ele>
        <time>2020-12-10T10:56:46.587Z</time>
      </trkpt>
      <trkpt lat="48.73336" lon="2.5752">
        <ele>95</ele>
        <time>2020-12-10T10:56:50.614Z</time>
      </trkpt>
      <trkpt lat="48.73344" lon="2.57512">
        <ele>95</ele>
        <time>2020-12-10T10:56:55.591Z</time>
      </trkpt>
      <trkpt lat="48.7335" lon="2.57514">
        <ele>96</ele>
        <time>2020-12-10T10:57:00.598Z</time>
      </trkpt>
      <trkpt lat="48.73359" lon="2.57512">
        <ele>96</ele>
        <time>2020-12-10T10:57:05.603Z</time>
      </trkpt>
      <trkpt lat="48.73367" lon="2.57509">
        <ele>96</ele>
        <time>2020-12-10T10:57:10.599Z</time>
      </trkpt>
      <trkpt lat="48.73374" lon="2.57503">
        <ele>96</ele>
        <time>2020-12-10T10:57:15.594Z</time>
      </trkpt>
      <trkpt lat="48.73381" lon="2.57503">
        <ele>96</ele>
        <time>2020-12-10T10:57:20.600Z</time>
      </trkpt>
      <trkpt lat="48.73389" lon="2.57506">
        <ele>96</ele>
        <time>2020-12-10T10:57:25.593Z</time>
      </trkpt>
      <trkpt lat="48.73397" lon="2.57504">
        <ele>96</ele>
        <time>2020-12-10T10:57:30.602Z</time>
      </trkpt>
      <trkpt lat="48.73401" lon="2.57499">
        <ele>96</ele>
        <time>2020-12-10T10:57:35.596Z</time>
      </trkpt>
      <trkpt lat="48.73407" lon="2.57498">
        <ele>96</ele>
        <time>2020-12-10T10:57:40.597Z</time>
      </trkpt>
      <trkpt lat="48.73413" lon="2.57496">
        <ele>96</ele>
        <time>2020-12-10T10:57:44.610Z</time>
      </trkpt>
      <trkpt lat="48.73421" lon="2.57494">
        <ele>96</ele>
        <time>2020-12-10T10:57:49.598Z</time>
      </trkpt>
      <trkpt lat="48.73428" lon="2.57494">
        <ele>96</ele>
        <time>2020-12-10T10:57:54.595Z</time>
      </trkpt>
      <trkpt lat="48.73427" lon="2.57488">
        <ele>96</ele>
        <time>2020-12-10T10:58:00.594Z</time>
      </trkpt>
      <trkpt lat="48.73438" lon="2.57499">
        <ele>100</ele>
        <time>2020-12-10T10:58:11.596Z</time>
      </trkpt>
      <trkpt lat="48.73451" lon="2.57481">
        <ele>102</ele>
        <time>2020-12-10T10:58:16.600Z</time>
      </trkpt>
      <trkpt lat="48.73465" lon="2.57472">
        <ele>103</ele>
        <time>2020-12-10T10:58:22.592Z</time>
      </trkpt>
      <trkpt lat="48.7347" lon="2.57477">
        <ele>103</ele>
        <time>2020-12-10T10:58:28.600Z</time>
      </trkpt>
      <trkpt lat="48.7348" lon="2.57476">
        <ele>103</ele>
        <time>2020-12-10T10:58:33.600Z</time>
      </trkpt>
      <trkpt lat="48.73487" lon="2.57484">
        <ele>103</ele>
        <time>2020-12-10T10:58:38.601Z</time>
      </trkpt>
      <trkpt lat="48.73489" lon="2.57483">
        <ele>103</ele>
        <time>2020-12-10T10:58:43.596Z</time>
      </trkpt>
      <trkpt lat="48.73511" lon="2.57477">
        <ele>103</ele>
        <time>2020-12-10T10:58:50.604Z</time>
      </trkpt>
      <trkpt lat="48.73512" lon="2.57485">
        <ele>103</ele>
        <time>2020-12-10T10:58:55.594Z</time>
      </trkpt>
      <trkpt lat="48.73543" lon="2.57463">
        <ele>104</ele>
        <time>2020-12-10T10:59:14.600Z</time>
      </trkpt>
      <trkpt lat="48.73555" lon="2.5746">
        <ele>104</ele>
        <time>2020-12-10T10:59:19.586Z</time>
      </trkpt>
      <trkpt lat="48.73556" lon="2.5746">
        <ele>104</ele>
        <time>2020-12-10T10:59:24.590Z</time>
      </trkpt>
      <trkpt lat="48.73563" lon="2.57459">
        <ele>104</ele>
        <time>2020-12-10T10:59:28.610Z</time>
      </trkpt>
      <trkpt lat="48.73566" lon="2.57466">
        <ele>104</ele>
        <time>2020-12-10T10:59:33.610Z</time>
      </trkpt>
      <trkpt lat="48.73571" lon="2.57462">
        <ele>104</ele>
        <time>2020-12-10T10:59:38.587Z</time>
      </trkpt>
      <trkpt lat="48.73575" lon="2.57459">
        <ele>104</ele>
        <time>2020-12-10T10:59:43.610Z</time>
      </trkpt>
      <trkpt lat="48.73584" lon="2.57468">
        <ele>104</ele>
        <time>2020-12-10T10:59:53.600Z</time>
      </trkpt>
      <trkpt lat="48.736" lon="2.57467">
        <ele>103</ele>
        <time>2020-12-10T10:59:58.570Z</time>
      </trkpt>
      <trkpt lat="48.73611" lon="2.57466">
        <ele>103</ele>
        <time>2020-12-10T11:00:03.569Z</time>
      </trkpt>
      <trkpt lat="48.73612" lon="2.5746">
        <ele>103</ele>
        <time>2020-12-10T11:00:07.608Z</time>
      </trkpt>
      <trkpt lat="48.73618" lon="2.57455">
        <ele>102</ele>
        <time>2020-12-10T11:00:12.592Z</time>
      </trkpt>
      <trkpt lat="48.73624" lon="2.57453">
        <ele>102</ele>
        <time>2020-12-10T11:00:17.604Z</time>
      </trkpt>
      <trkpt lat="48.73631" lon="2.57449">
        <ele>101</ele>
        <time>2020-12-10T11:00:22.587Z</time>
      </trkpt>
      <trkpt lat="48.73637" lon="2.57443">
        <ele>101</ele>
        <time>2020-12-10T11:00:27.557Z</time>
      </trkpt>
      <trkpt lat="48.73644" lon="2.57439">
        <ele>101</ele>
        <time>2020-12-10T11:00:32.566Z</time>
      </trkpt>
      <trkpt lat="48.73649" lon="2.57434">
        <ele>101</ele>
        <time>2020-12-10T11:00:37.581Z</time>
      </trkpt>
      <trkpt lat="48.73657" lon="2.5743">
        <ele>100</ele>
        <time>2020-12-10T11:00:42.610Z</time>
      </trkpt>
      <trkpt lat="48.73662" lon="2.57426">
        <ele>100</ele>
        <time>2020-12-10T11:00:47.562Z</time>
      </trkpt>
      <trkpt lat="48.73668" lon="2.57421">
        <ele>100</ele>
        <time>2020-12-10T11:00:52.566Z</time>
      </trkpt>
      <trkpt lat="48.73674" lon="2.57419">
        <ele>100</ele>
        <time>2020-12-10T11:00:56.594Z</time>
      </trkpt>
      <trkpt lat="48.7368" lon="2.57418">
        <ele>100</ele>
        <time>2020-12-10T11:01:01.562Z</time>
      </trkpt>
      <trkpt lat="48.73688" lon="2.57415">
        <ele>102</ele>
        <time>2020-12-10T11:01:06.596Z</time>
      </trkpt>
      <trkpt lat="48.73694" lon="2.57412">
        <ele>102</ele>
        <time>2020-12-10T11:01:11.567Z</time>
      </trkpt>
      <trkpt lat="48.73701" lon="2.57407">
        <ele>102</ele>
        <time>2020-12-10T11:01:16.564Z</time>
      </trkpt>
      <trkpt lat="48.73706" lon="2.57404">
        <ele>102</ele>
        <time>2020-12-10T11:01:20.600Z</time>
      </trkpt>
      <trkpt lat="48.73714" lon="2.57406">
        <ele>103</ele>
        <time>2020-12-10T11:01:27.598Z</time>
      </trkpt>
      <trkpt lat="48.73721" lon="2.57411">
        <ele>103</ele>
        <time>2020-12-10T11:01:32.598Z</time>
      </trkpt>
      <trkpt lat="48.73725" lon="2.57409">
        <ele>103</ele>
        <time>2020-12-10T11:01:37.601Z</time>
      </trkpt>
      <trkpt lat="48.73741" lon="2.57415">
        <ele>102</ele>
        <time>2020-12-10T11:01:42.580Z</time>
      </trkpt>
      <trkpt lat="48.73748" lon="2.57409">
        <ele>102</ele>
        <time>2020-12-10T11:01:47.579Z</time>
      </trkpt>
      <trkpt lat="48.73751" lon="2.57393">
        <ele>102</ele>
        <time>2020-12-10T11:01:52.602Z</time>
      </trkpt>
      <trkpt lat="48.73754" lon="2.57379">
        <ele>102</ele>
        <time>2020-12-10T11:01:57.593Z</time>
      </trkpt>
      <trkpt lat="48.73753" lon="2.57378">
        <ele>102</ele>
        <time>2020-12-10T11:02:02.598Z</time>
      </trkpt>
      <trkpt lat="48.73753" lon="2.57376">
        <ele>102</ele>
        <time>2020-12-10T11:02:07.581Z</time>
      </trkpt>
      <trkpt lat="48.73768" lon="2.5738">
        <ele>102</ele>
        <time>2020-12-10T11:02:12.592Z</time>
      </trkpt>
      <trkpt lat="48.73769" lon="2.57367">
        <ele>103</ele>
        <time>2020-12-10T11:02:17.579Z</time>
      </trkpt>
      <trkpt lat="48.73772" lon="2.57369">
        <ele>103</ele>
        <time>2020-12-10T11:02:21.597Z</time>
      </trkpt>
      <trkpt lat="48.73777" lon="2.57364">
        <ele>103</ele>
        <time>2020-12-10T11:02:26.588Z</time>
      </trkpt>
      <trkpt lat="48.73782" lon="2.57354">
        <ele>103</ele>
        <time>2020-12-10T11:02:31.600Z</time>
      </trkpt>
      <trkpt lat="48.73786" lon="2.57322">
        <ele>103</ele>
        <time>2020-12-10T11:02:36.584Z</time>
      </trkpt>
      <trkpt lat="48.73791" lon="2.57308">
        <ele>103</ele>
        <time>2020-12-10T11:02:41.608Z</time>
      </trkpt>
      <trkpt lat="48.738" lon="2.57285">
        <ele>103</ele>
        <time>2020-12-10T11:02:46.587Z</time>
      </trkpt>
      <trkpt lat="48.738" lon="2.57271">
        <ele>103</ele>
        <time>2020-12-10T11:02:51.602Z</time>
      </trkpt>
      <trkpt lat="48.73804" lon="2.57265">
        <ele>103</ele>
        <time>2020-12-10T11:02:56.595Z</time>
      </trkpt>
      <trkpt lat="48.73809" lon="2.57259">
        <ele>102</ele>
        <time>2020-12-10T11:03:01.596Z</time>
      </trkpt>
      <trkpt lat="48.73815" lon="2.57251">
        <ele>102</ele>
        <time>2020-12-10T11:03:06.586Z</time>
      </trkpt>
      <trkpt lat="48.73825" lon="2.57254">
        <ele>102</ele>
        <time>2020-12-10T11:03:11.594Z</time>
      </trkpt>
      <trkpt lat="48.73831" lon="2.57255">
        <ele>102</ele>
        <time>2020-12-10T11:03:16.576Z</time>
      </trkpt>
      <trkpt lat="48.73837" lon="2.57246">
        <ele>102</ele>
        <time>2020-12-10T11:03:21.597Z</time>
      </trkpt>
      <trkpt lat="48.73843" lon="2.57233">
        <ele>101</ele>
        <time>2020-12-10T11:03:26.599Z</time>
      </trkpt>
      <trkpt lat="48.73841" lon="2.57223">
        <ele>101</ele>
        <time>2020-12-10T11:03:31.592Z</time>
      </trkpt>
      <trkpt lat="48.73846" lon="2.57216">
        <ele>101</ele>
        <time>2020-12-10T11:03:36.580Z</time>
      </trkpt>
      <trkpt lat="48.73849" lon="2.57206">
        <ele>102</ele>
        <time>2020-12-10T11:03:41.578Z</time>
      </trkpt>
      <trkpt lat="48.73854" lon="2.5719">
        <ele>102</ele>
        <time>2020-12-10T11:03:46.578Z</time>
      </trkpt>
      <trkpt lat="48.73857" lon="2.57182">
        <ele>102</ele>
        <time>2020-12-10T11:03:51.567Z</time>
      </trkpt>
      <trkpt lat="48.73857" lon="2.57175">
        <ele>101</ele>
        <time>2020-12-10T11:03:55.595Z</time>
      </trkpt>
      <trkpt lat="48.73864" lon="2.57169">
        <ele>101</ele>
        <time>2020-12-10T11:04:00.591Z</time>
      </trkpt>
      <trkpt lat="48.7387" lon="2.57165">
        <ele>101</ele>
        <time>2020-12-10T11:04:05.591Z</time>
      </trkpt>
      <trkpt lat="48.73874" lon="2.57157">
        <ele>101</ele>
        <time>2020-12-10T11:04:10.607Z</time>
      </trkpt>
      <trkpt lat="48.73883" lon="2.57154">
        <ele>104</ele>
        <time>2020-12-10T11:04:15.572Z</time>
      </trkpt>
      <trkpt lat="48.73877" lon="2.57141">
        <ele>103</ele>
        <time>2020-12-10T11:04:20.575Z</time>
      </trkpt>
      <trkpt lat="48.73883" lon="2.57123">
        <ele>102</ele>
        <time>2020-12-10T11:04:25.584Z</time>
      </trkpt>
      <trkpt lat="48.73889" lon="2.57112">
        <ele>102</ele>
        <time>2020-12-10T11:04:29.605Z</time>
      </trkpt>
      <trkpt lat="48.73894" lon="2.57108">
        <ele>102</ele>
        <time>2020-12-10T11:04:34.575Z</time>
      </trkpt>
      <trkpt lat="48.73902" lon="2.571">
        <ele>102</ele>
        <time>2020-12-10T11:04:38.596Z</time>
      </trkpt>
      <trkpt lat="48.73905" lon="2.57094">
        <ele>101</ele>
        <time>2020-12-10T11:04:43.588Z</time>
      </trkpt>
      <trkpt lat="48.73911" lon="2.57092">
        <ele>101</ele>
        <time>2020-12-10T11:04:48.586Z</time>
      </trkpt>
      <trkpt lat="48.73907" lon="2.57079">
        <ele>101</ele>
        <time>2020-12-10T11:04:53.576Z</time>
      </trkpt>
      <trkpt lat="48.73913" lon="2.57073">
        <ele>101</ele>
        <time>2020-12-10T11:04:58.585Z</time>
      </trkpt>
      <trkpt lat="48.7392" lon="2.57062">
        <ele>101</ele>
        <time>2020-12-10T11:05:03.578Z</time>
      </trkpt>
      <trkpt lat="48.73926" lon="2.57045">
        <ele>101</ele>
        <time>2020-12-10T11:05:08.605Z</time>
      </trkpt>
      <trkpt lat="48.73929" lon="2.57038">
        <ele>101</ele>
        <time>2020-12-10T11:05:13.586Z</time>
      </trkpt>
      <trkpt lat="48.73931" lon="2.57035">
        <ele>102</ele>
        <time>2020-12-10T11:05:18.589Z</time>
      </trkpt>
      <trkpt lat="48.73933" lon="2.57033">
        <ele>102</ele>
        <time>2020-12-10T11:05:23.592Z</time>
      </trkpt>
      <trkpt lat="48.73932" lon="2.57026">
        <ele>102</ele>
        <time>2020-12-10T11:05:28.600Z</time>
      </trkpt>
      <trkpt lat="48.73946" lon="2.57018">
        <ele>102</ele>
        <time>2020-12-10T11:05:33.584Z</time>
      </trkpt>
      <trkpt lat="48.73951" lon="2.57013">
        <ele>102</ele>
        <time>2020-12-10T11:05:37.595Z</time>
      </trkpt>
      <trkpt lat="48.73947" lon="2.56997">
        <ele>102</ele>
        <time>2020-12-10T11:05:42.606Z</time>
      </trkpt>
      <trkpt lat="48.73952" lon="2.56991">
        <ele>102</ele>
        <time>2020-12-10T11:05:47.594Z</time>
      </trkpt>
      <trkpt lat="48.73959" lon="2.5699">
        <ele>102</ele>
        <time>2020-12-10T11:05:52.590Z</time>
      </trkpt>
      <trkpt lat="48.73979" lon="2.56973">
        <ele>101</ele>
        <time>2020-12-10T11:07:42.584Z</time>
      </trkpt>
      <trkpt lat="48.73984" lon="2.56972">
        <ele>101</ele>
        <time>2020-12-10T11:07:55.592Z</time>
      </trkpt>
      <trkpt lat="48.73989" lon="2.56978">
        <ele>101</ele>
        <time>2020-12-10T11:08:03.602Z</time>
      </trkpt>
      <trkpt lat="48.73993" lon="2.56982">
        <ele>101</ele>
        <time>2020-12-10T11:08:08.592Z</time>
      </trkpt>
      <trkpt lat="48.73994" lon="2.5699">
        <ele>102</ele>
        <time>2020-12-10T11:08:14.586Z</time>
      </trkpt>
      <trkpt lat="48.73996" lon="2.57009">
        <ele>102</ele>
        <time>2020-12-10T11:08:26.595Z</time>
      </trkpt>
      <trkpt lat="48.73984" lon="2.57012">
        <ele>102</ele>
        <time>2020-12-10T11:08:31.592Z</time>
      </trkpt>
      <trkpt lat="48.73985" lon="2.57028">
        <ele>103</ele>
        <time>2020-12-10T11:08:36.590Z</time>
      </trkpt>
      <trkpt lat="48.7398" lon="2.57025">
        <ele>103</ele>
        <time>2020-12-10T11:08:42.583Z</time>
      </trkpt>
      <trkpt lat="48.73987" lon="2.57036">
        <ele>102</ele>
        <time>2020-12-10T11:08:48.582Z</time>
      </trkpt>
      <trkpt lat="48.73999" lon="2.57037">
        <ele>102</ele>
        <time>2020-12-10T11:08:56.588Z</time>
      </trkpt>
      <trkpt lat="48.74" lon="2.57038">
        <ele>102</ele>
        <time>2020-12-10T11:09:01.580Z</time>
      </trkpt>
      <trkpt lat="48.74024" lon="2.57043">
        <ele>103</ele>
        <time>2020-12-10T11:09:06.586Z</time>
      </trkpt>
      <trkpt lat="48.74039" lon="2.5708">
        <ele>103</ele>
        <time>2020-12-10T11:09:32.599Z</time>
      </trkpt>
      <trkpt lat="48.74053" lon="2.57098">
        <ele>103</ele>
        <time>2020-12-10T11:09:39.584Z</time>
      </trkpt>
      <trkpt lat="48.74058" lon="2.57107">
        <ele>103</ele>
        <time>2020-12-10T11:09:45.583Z</time>
      </trkpt>
      <trkpt lat="48.7406" lon="2.57115">
        <ele>103</ele>
        <time>2020-12-10T11:09:51.595Z</time>
      </trkpt>
      <trkpt lat="48.74064" lon="2.57124">
        <ele>103</ele>
        <time>2020-12-10T11:09:56.599Z</time>
      </trkpt>
      <trkpt lat="48.74118" lon="2.57201">
        <ele>101</ele>
        <time>2020-12-10T11:11:17.587Z</time>
      </trkpt>
      <trkpt lat="48.74138" lon="2.57213">
        <ele>100</ele>
        <time>2020-12-10T11:11:22.586Z</time>
      </trkpt>
      <trkpt lat="48.74165" lon="2.57229">
        <ele>100</ele>
        <time>2020-12-10T11:11:27.583Z</time>
      </trkpt>
      <trkpt lat="48.74175" lon="2.57236">
        <ele>100</ele>
        <time>2020-12-10T11:11:32.569Z</time>
      </trkpt>
      <trkpt lat="48.74193" lon="2.57251">
        <ele>100</ele>
        <time>2020-12-10T11:11:37.604Z</time>
      </trkpt>
      <trkpt lat="48.74204" lon="2.57254">
        <ele>100</ele>
        <time>2020-12-10T11:11:42.580Z</time>
      </trkpt>
      <trkpt lat="48.74216" lon="2.57253">
        <ele>102</ele>
        <time>2020-12-10T11:11:47.579Z</time>
      </trkpt>
      <trkpt lat="48.74219" lon="2.57249">
        <ele>102</ele>
        <time>2020-12-10T11:11:51.592Z</time>
      </trkpt>
      <trkpt lat="48.74225" lon="2.57243">
        <ele>102</ele>
        <time>2020-12-10T11:11:56.586Z</time>
      </trkpt>
      <trkpt lat="48.74235" lon="2.5724">
        <ele>102</ele>
        <time>2020-12-10T11:12:01.595Z</time>
      </trkpt>
      <trkpt lat="48.74251" lon="2.57231">
        <ele>102</ele>
        <time>2020-12-10T11:12:06.581Z</time>
      </trkpt>
      <trkpt lat="48.74258" lon="2.57231">
        <ele>102</ele>
        <time>2020-12-10T11:12:11.578Z</time>
      </trkpt>
      <trkpt lat="48.74265" lon="2.57227">
        <ele>103</ele>
        <time>2020-12-10T11:12:16.568Z</time>
      </trkpt>
      <trkpt lat="48.7427" lon="2.57221">
        <ele>103</ele>
        <time>2020-12-10T11:12:31.587Z</time>
      </trkpt>
      <trkpt lat="48.74272" lon="2.57222">
        <ele>103</ele>
        <time>2020-12-10T11:12:36.555Z</time>
      </trkpt>
      <trkpt lat="48.74272" lon="2.57221">
        <ele>103</ele>
        <time>2020-12-10T11:12:40.572Z</time>
      </trkpt>
      <trkpt lat="48.74278" lon="2.57221">
        <ele>103</ele>
        <time>2020-12-10T11:12:44.588Z</time>
      </trkpt>
      <trkpt lat="48.74281" lon="2.57216">
        <ele>103</ele>
        <time>2020-12-10T11:12:49.586Z</time>
      </trkpt>
      <trkpt lat="48.74288" lon="2.57201">
        <ele>103</ele>
        <time>2020-12-10T11:12:55.581Z</time>
      </trkpt>
      <trkpt lat="48.74296" lon="2.57186">
        <ele>103</ele>
        <time>2020-12-10T11:13:00.595Z</time>
      </trkpt>
      <trkpt lat="48.74297" lon="2.57174">
        <ele>103</ele>
        <time>2020-12-10T11:13:05.584Z</time>
      </trkpt>
      <trkpt lat="48.74301" lon="2.57162">
        <ele>103</ele>
        <time>2020-12-10T11:13:10.580Z</time>
      </trkpt>
      <trkpt lat="48.74305" lon="2.57151">
        <ele>103</ele>
        <time>2020-12-10T11:13:15.580Z</time>
      </trkpt>
      <trkpt lat="48.74308" lon="2.57144">
        <ele>103</ele>
        <time>2020-12-10T11:13:20.589Z</time>
      </trkpt>
      <trkpt lat="48.74316" lon="2.57123">
        <ele>103</ele>
        <time>2020-12-10T11:13:25.574Z</time>
      </trkpt>
      <trkpt lat="48.74321" lon="2.57104">
        <ele>103</ele>
        <time>2020-12-10T11:13:30.589Z</time>
      </trkpt>
      <trkpt lat="48.74321" lon="2.57099">
        <ele>103</ele>
        <time>2020-12-10T11:13:35.577Z</time>
      </trkpt>
      <trkpt lat="48.74319" lon="2.57092">
        <ele>102</ele>
        <time>2020-12-10T11:13:40.576Z</time>
      </trkpt>
      <trkpt lat="48.74324" lon="2.57084">
        <ele>103</ele>
        <time>2020-12-10T11:13:45.571Z</time>
      </trkpt>
      <trkpt lat="48.74327" lon="2.57073">
        <ele>103</ele>
        <time>2020-12-10T11:13:50.580Z</time>
      </trkpt>
      <trkpt lat="48.74325" lon="2.57071">
        <ele>103</ele>
        <time>2020-12-10T11:13:55.573Z</time>
      </trkpt>
      <trkpt lat="48.74332" lon="2.57056">
        <ele>102</ele>
        <time>2020-12-10T11:14:00.575Z</time>
      </trkpt>
      <trkpt lat="48.74335" lon="2.57047">
        <ele>102</ele>
        <time>2020-12-10T11:14:05.570Z</time>
      </trkpt>
      <trkpt lat="48.7434" lon="2.57041">
        <ele>102</ele>
        <time>2020-12-10T11:14:10.564Z</time>
      </trkpt>
      <trkpt lat="48.74344" lon="2.57039">
        <ele>102</ele>
        <time>2020-12-10T11:14:15.572Z</time>
      </trkpt>
      <trkpt lat="48.74346" lon="2.5703">
        <ele>102</ele>
        <time>2020-12-10T11:14:20.580Z</time>
      </trkpt>
      <trkpt lat="48.74352" lon="2.57023">
        <ele>101</ele>
        <time>2020-12-10T11:14:25.567Z</time>
      </trkpt>
      <trkpt lat="48.74353" lon="2.57022">
        <ele>101</ele>
        <time>2020-12-10T11:14:30.575Z</time>
      </trkpt>
      <trkpt lat="48.74359" lon="2.57013">
        <ele>101</ele>
        <time>2020-12-10T11:14:35.569Z</time>
      </trkpt>
      <trkpt lat="48.74364" lon="2.57003">
        <ele>101</ele>
        <time>2020-12-10T11:14:39.585Z</time>
      </trkpt>
      <trkpt lat="48.7437" lon="2.56991">
        <ele>101</ele>
        <time>2020-12-10T11:14:44.578Z</time>
      </trkpt>
      <trkpt lat="48.74376" lon="2.56985">
        <ele>99</ele>
        <time>2020-12-10T11:14:49.572Z</time>
      </trkpt>
      <trkpt lat="48.7438" lon="2.56984">
        <ele>99</ele>
        <time>2020-12-10T11:14:54.556Z</time>
      </trkpt>
      <trkpt lat="48.74378" lon="2.5699">
        <ele>99</ele>
        <time>2020-12-10T11:14:58.581Z</time>
      </trkpt>
      <trkpt lat="48.74378" lon="2.56994">
        <ele>99</ele>
        <time>2020-12-10T11:15:05.584Z</time>
      </trkpt>
      <trkpt lat="48.74377" lon="2.57">
        <ele>99</ele>
        <time>2020-12-10T11:15:10.586Z</time>
      </trkpt>
      <trkpt lat="48.74368" lon="2.56987">
        <ele>101</ele>
        <time>2020-12-10T11:15:22.582Z</time>
      </trkpt>
      <trkpt lat="48.74361" lon="2.56989">
        <ele>101</ele>
        <time>2020-12-10T11:15:27.590Z</time>
      </trkpt>
      <trkpt lat="48.74353" lon="2.56992">
        <ele>101</ele>
        <time>2020-12-10T11:15:32.579Z</time>
      </trkpt>
      <trkpt lat="48.74343" lon="2.57">
        <ele>102</ele>
        <time>2020-12-10T11:15:37.577Z</time>
      </trkpt>
      <trkpt lat="48.74341" lon="2.57003">
        <ele>102</ele>
        <time>2020-12-10T11:15:42.585Z</time>
      </trkpt>
      <trkpt lat="48.74342" lon="2.57004">
        <ele>102</ele>
        <time>2020-12-10T11:15:47.579Z</time>
      </trkpt>
      <trkpt lat="48.74346" lon="2.5702">
        <ele>102</ele>
        <time>2020-12-10T11:15:52.578Z</time>
      </trkpt>
      <trkpt lat="48.74352" lon="2.57031">
        <ele>101</ele>
        <time>2020-12-10T11:15:57.570Z</time>
      </trkpt>
      <trkpt lat="48.74357" lon="2.57038">
        <ele>101</ele>
        <time>2020-12-10T11:16:02.578Z</time>
      </trkpt>
      <trkpt lat="48.74366" lon="2.5705">
        <ele>101</ele>
        <time>2020-12-10T11:16:07.581Z</time>
      </trkpt>
      <trkpt lat="48.74369" lon="2.57058">
        <ele>101</ele>
        <time>2020-12-10T11:16:12.590Z</time>
      </trkpt>
      <trkpt lat="48.74373" lon="2.57073">
        <ele>101</ele>
        <time>2020-12-10T11:16:17.580Z</time>
      </trkpt>
      <trkpt lat="48.74376" lon="2.57079">
        <ele>99</ele>
        <time>2020-12-10T11:16:22.585Z</time>
      </trkpt>
      <trkpt lat="48.74379" lon="2.57084">
        <ele>99</ele>
        <time>2020-12-10T11:16:27.583Z</time>
      </trkpt>
      <trkpt lat="48.74383" lon="2.57098">
        <ele>99</ele>
        <time>2020-12-10T11:16:32.588Z</time>
      </trkpt>
      <trkpt lat="48.74387" lon="2.57103">
        <ele>99</ele>
        <time>2020-12-10T11:16:37.578Z</time>
      </trkpt>
      <trkpt lat="48.74387" lon="2.57112">
        <ele>99</ele>
        <time>2020-12-10T11:16:42.578Z</time>
      </trkpt>
      <trkpt lat="48.7439" lon="2.57132">
        <ele>100</ele>
        <time>2020-12-10T11:16:50.590Z</time>
      </trkpt>
      <trkpt lat="48.74392" lon="2.57146">
        <ele>100</ele>
        <time>2020-12-10T11:16:57.574Z</time>
      </trkpt>
      <trkpt lat="48.74393" lon="2.57156">
        <ele>101</ele>
        <time>2020-12-10T11:17:03.578Z</time>
      </trkpt>
      <trkpt lat="48.74447" lon="2.57242">
        <ele>100</ele>
        <time>2020-12-10T11:17:54.563Z</time>
      </trkpt>
      <trkpt lat="48.74455" lon="2.57262">
        <ele>100</ele>
        <time>2020-12-10T11:18:00.581Z</time>
      </trkpt>
      <trkpt lat="48.7446" lon="2.57264">
        <ele>103</ele>
        <time>2020-12-10T11:18:05.580Z</time>
      </trkpt>
      <trkpt lat="48.74462" lon="2.57286">
        <ele>103</ele>
        <time>2020-12-10T11:18:16.580Z</time>
      </trkpt>
      <trkpt lat="48.74467" lon="2.57292">
        <ele>103</ele>
        <time>2020-12-10T11:18:23.588Z</time>
      </trkpt>
      <trkpt lat="48.74469" lon="2.5731">
        <ele>103</ele>
        <time>2020-12-10T11:18:28.590Z</time>
      </trkpt>
      <trkpt lat="48.74471" lon="2.57316">
        <ele>103</ele>
        <time>2020-12-10T11:18:33.589Z</time>
      </trkpt>
      <trkpt lat="48.74471" lon="2.5732">
        <ele>103</ele>
        <time>2020-12-10T11:18:38.587Z</time>
      </trkpt>
      <trkpt lat="48.74471" lon="2.57328">
        <ele>103</ele>
        <time>2020-12-10T11:18:43.578Z</time>
      </trkpt>
      <trkpt lat="48.74469" lon="2.57335">
        <ele>103</ele>
        <time>2020-12-10T11:18:48.587Z</time>
      </trkpt>
      <trkpt lat="48.74465" lon="2.57342">
        <ele>103</ele>
        <time>2020-12-10T11:18:53.579Z</time>
      </trkpt>
      <trkpt lat="48.74471" lon="2.57351">
        <ele>104</ele>
        <time>2020-12-10T11:18:58.581Z</time>
      </trkpt>
      <trkpt lat="48.74465" lon="2.57365">
        <ele>104</ele>
        <time>2020-12-10T11:19:03.565Z</time>
      </trkpt>
      <trkpt lat="48.74462" lon="2.57409">
        <ele>104</ele>
        <time>2020-12-10T11:19:23.590Z</time>
      </trkpt>
      <trkpt lat="48.74468" lon="2.57418">
        <ele>104</ele>
        <time>2020-12-10T11:19:28.575Z</time>
      </trkpt>
      <trkpt lat="48.74469" lon="2.57423">
        <ele>104</ele>
        <time>2020-12-10T11:19:33.577Z</time>
      </trkpt>
      <trkpt lat="48.74477" lon="2.57434">
        <ele>104</ele>
        <time>2020-12-10T11:19:38.576Z</time>
      </trkpt>
      <trkpt lat="48.74479" lon="2.57433">
        <ele>104</ele>
        <time>2020-12-10T11:19:43.561Z</time>
      </trkpt>
      <trkpt lat="48.74483" lon="2.57433">
        <ele>104</ele>
        <time>2020-12-10T11:19:47.594Z</time>
      </trkpt>
      <trkpt lat="48.74491" lon="2.57439">
        <ele>105</ele>
        <time>2020-12-10T11:19:52.594Z</time>
      </trkpt>
      <trkpt lat="48.7449" lon="2.57446">
        <ele>105</ele>
        <time>2020-12-10T11:19:57.559Z</time>
      </trkpt>
      <trkpt lat="48.7452" lon="2.57471">
        <ele>104</ele>
        <time>2020-12-10T11:20:02.551Z</time>
      </trkpt>
      <trkpt lat="48.74535" lon="2.57488">
        <ele>105</ele>
        <time>2020-12-10T11:20:06.582Z</time>
      </trkpt>
      <trkpt lat="48.74552" lon="2.57497">
        <ele>104</ele>
        <time>2020-12-10T11:20:11.560Z</time>
      </trkpt>
      <trkpt lat="48.7456" lon="2.57499">
        <ele>104</ele>
        <time>2020-12-10T11:20:15.566Z</time>
      </trkpt>
      <trkpt lat="48.74569" lon="2.57516">
        <ele>105</ele>
        <time>2020-12-10T11:20:20.541Z</time>
      </trkpt>
      <trkpt lat="48.74576" lon="2.57525">
        <ele>103</ele>
        <time>2020-12-10T11:20:24.592Z</time>
      </trkpt>
      <trkpt lat="48.74582" lon="2.57534">
        <ele>103</ele>
        <time>2020-12-10T11:20:29.594Z</time>
      </trkpt>
      <trkpt lat="48.74585" lon="2.57545">
        <ele>104</ele>
        <time>2020-12-10T11:20:34.611Z</time>
      </trkpt>
      <trkpt lat="48.74589" lon="2.5755">
        <ele>104</ele>
        <time>2020-12-10T11:20:39.583Z</time>
      </trkpt>
      <trkpt lat="48.74592" lon="2.57558">
        <ele>104</ele>
        <time>2020-12-10T11:20:44.563Z</time>
      </trkpt>
      <trkpt lat="48.74594" lon="2.57567">
        <ele>104</ele>
        <time>2020-12-10T11:20:48.598Z</time>
      </trkpt>
      <trkpt lat="48.74599" lon="2.57574">
        <ele>104</ele>
        <time>2020-12-10T11:20:53.590Z</time>
      </trkpt>
      <trkpt lat="48.74605" lon="2.57586">
        <ele>104</ele>
        <time>2020-12-10T11:20:58.610Z</time>
      </trkpt>
      <trkpt lat="48.74608" lon="2.57595">
        <ele>104</ele>
        <time>2020-12-10T11:21:03.580Z</time>
      </trkpt>
      <trkpt lat="48.74611" lon="2.57608">
        <ele>104</ele>
        <time>2020-12-10T11:21:08.576Z</time>
      </trkpt>
      <trkpt lat="48.74614" lon="2.57611">
        <ele>104</ele>
        <time>2020-12-10T11:21:12.598Z</time>
      </trkpt>
      <trkpt lat="48.74618" lon="2.57612">
        <ele>104</ele>
        <time>2020-12-10T11:21:17.576Z</time>
      </trkpt>
      <trkpt lat="48.74623" lon="2.57622">
        <ele>104</ele>
        <time>2020-12-10T11:21:22.617Z</time>
      </trkpt>
      <trkpt lat="48.74626" lon="2.57626">
        <ele>105</ele>
        <time>2020-12-10T11:21:27.540Z</time>
      </trkpt>
      <trkpt lat="48.74628" lon="2.57631">
        <ele>105</ele>
        <time>2020-12-10T11:21:31.659Z</time>
      </trkpt>
      <trkpt lat="48.74632" lon="2.5764">
        <ele>105</ele>
        <time>2020-12-10T11:21:36.574Z</time>
      </trkpt>
      <trkpt lat="48.74638" lon="2.57652">
        <ele>105</ele>
        <time>2020-12-10T11:21:41.563Z</time>
      </trkpt>
      <trkpt lat="48.74641" lon="2.57661">
        <ele>104</ele>
        <time>2020-12-10T11:21:46.590Z</time>
      </trkpt>
      <trkpt lat="48.7464" lon="2.5768">
        <ele>104</ele>
        <time>2020-12-10T11:22:16.570Z</time>
      </trkpt>
      <trkpt lat="48.74641" lon="2.57683">
        <ele>104</ele>
        <time>2020-12-10T11:22:21.585Z</time>
      </trkpt>
      <trkpt lat="48.74644" lon="2.57681">
        <ele>104</ele>
        <time>2020-12-10T11:22:25.602Z</time>
      </trkpt>
      <trkpt lat="48.74646" lon="2.5768">
        <ele>104</ele>
        <time>2020-12-10T11:22:30.568Z</time>
      </trkpt>
      <trkpt lat="48.74644" lon="2.57685">
        <ele>104</ele>
        <time>2020-12-10T11:22:35.578Z</time>
      </trkpt>
      <trkpt lat="48.74655" lon="2.5773">
        <ele>102</ele>
        <time>2020-12-10T11:23:19.583Z</time>
      </trkpt>
      <trkpt lat="48.74661" lon="2.57728">
        <ele>102</ele>
        <time>2020-12-10T11:23:24.569Z</time>
      </trkpt>
      <trkpt lat="48.74666" lon="2.57736">
        <ele>102</ele>
        <time>2020-12-10T11:23:29.586Z</time>
      </trkpt>
      <trkpt lat="48.74705" lon="2.57807">
        <ele>101</ele>
        <time>2020-12-10T11:24:16.585Z</time>
      </trkpt>
      <trkpt lat="48.74705" lon="2.5783">
        <ele>102</ele>
        <time>2020-12-10T11:24:21.604Z</time>
      </trkpt>
      <trkpt lat="48.747" lon="2.57872">
        <ele>101</ele>
        <time>2020-12-10T11:24:28.573Z</time>
      </trkpt>
      <trkpt lat="48.74701" lon="2.57868">
        <ele>101</ele>
        <time>2020-12-10T11:24:33.574Z</time>
      </trkpt>
      <trkpt lat="48.74706" lon="2.5787">
        <ele>101</ele>
        <time>2020-12-10T11:24:41.564Z</time>
      </trkpt>
      <trkpt lat="48.7471" lon="2.57885">
        <ele>101</ele>
        <time>2020-12-10T11:24:46.585Z</time>
      </trkpt>
      <trkpt lat="48.74716" lon="2.57911">
        <ele>101</ele>
        <time>2020-12-10T11:24:51.578Z</time>
      </trkpt>
      <trkpt lat="48.7472" lon="2.5792">
        <ele>101</ele>
        <time>2020-12-10T11:24:56.570Z</time>
      </trkpt>
      <trkpt lat="48.74732" lon="2.57931">
        <ele>101</ele>
        <time>2020-12-10T11:25:01.574Z</time>
      </trkpt>
      <trkpt lat="48.74737" lon="2.57932">
        <ele>101</ele>
        <time>2020-12-10T11:25:06.566Z</time>
      </trkpt>
      <trkpt lat="48.74734" lon="2.57937">
        <ele>101</ele>
        <time>2020-12-10T11:25:11.571Z</time>
      </trkpt>
      <trkpt lat="48.7473" lon="2.5793">
        <ele>101</ele>
        <time>2020-12-10T11:25:19.582Z</time>
      </trkpt>
      <trkpt lat="48.7472" lon="2.57952">
        <ele>101</ele>
        <time>2020-12-10T11:25:24.578Z</time>
      </trkpt>
      <trkpt lat="48.74715" lon="2.57965">
        <ele>103</ele>
        <time>2020-12-10T11:25:29.578Z</time>
      </trkpt>
      <trkpt lat="48.74716" lon="2.57967">
        <ele>103</ele>
        <time>2020-12-10T11:25:44.573Z</time>
      </trkpt>
      <trkpt lat="48.74726" lon="2.57994">
        <ele>104</ele>
        <time>2020-12-10T11:25:50.570Z</time>
      </trkpt>
      <trkpt lat="48.74715" lon="2.58008">
        <ele>104</ele>
        <time>2020-12-10T11:25:55.583Z</time>
      </trkpt>
      <trkpt lat="48.7473" lon="2.58017">
        <ele>104</ele>
        <time>2020-12-10T11:26:01.580Z</time>
      </trkpt>
      <trkpt lat="48.74754" lon="2.58041">
        <ele>104</ele>
        <time>2020-12-10T11:26:09.570Z</time>
      </trkpt>
      <trkpt lat="48.74766" lon="2.58065">
        <ele>103</ele>
        <time>2020-12-10T11:26:15.571Z</time>
      </trkpt>
      <trkpt lat="48.74773" lon="2.58072">
        <ele>103</ele>
        <time>2020-12-10T11:26:20.580Z</time>
      </trkpt>
      <trkpt lat="48.74793" lon="2.58082">
        <ele>103</ele>
        <time>2020-12-10T11:26:28.565Z</time>
      </trkpt>
      <trkpt lat="48.74811" lon="2.58128">
        <ele>101</ele>
        <time>2020-12-10T11:27:02.591Z</time>
      </trkpt>
      <trkpt lat="48.74814" lon="2.58132">
        <ele>101</ele>
        <time>2020-12-10T11:27:07.572Z</time>
      </trkpt>
      <trkpt lat="48.74831" lon="2.58158">
        <ele>101</ele>
        <time>2020-12-10T11:27:21.554Z</time>
      </trkpt>
      <trkpt lat="48.74832" lon="2.58165">
        <ele>101</ele>
        <time>2020-12-10T11:27:26.559Z</time>
      </trkpt>
      <trkpt lat="48.7484" lon="2.58172">
        <ele>101</ele>
        <time>2020-12-10T11:27:33.559Z</time>
      </trkpt>
      <trkpt lat="48.74843" lon="2.58175">
        <ele>101</ele>
        <time>2020-12-10T11:27:37.574Z</time>
      </trkpt>
      <trkpt lat="48.74852" lon="2.58174">
        <ele>102</ele>
        <time>2020-12-10T11:27:42.592Z</time>
      </trkpt>
      <trkpt lat="48.74861" lon="2.58182">
        <ele>102</ele>
        <time>2020-12-10T11:27:47.578Z</time>
      </trkpt>
      <trkpt lat="48.74875" lon="2.58185">
        <ele>103</ele>
        <time>2020-12-10T11:27:52.578Z</time>
      </trkpt>
      <trkpt lat="48.74884" lon="2.58189">
        <ele>103</ele>
        <time>2020-12-10T11:27:57.588Z</time>
      </trkpt>
      <trkpt lat="48.7489" lon="2.5819">
        <ele>103</ele>
        <time>2020-12-10T11:28:02.573Z</time>
      </trkpt>
      <trkpt lat="48.74897" lon="2.5819">
        <ele>103</ele>
        <time>2020-12-10T11:28:11.586Z</time>
      </trkpt>
      <trkpt lat="48.74906" lon="2.58191">
        <ele>102</ele>
        <time>2020-12-10T11:28:16.589Z</time>
      </trkpt>
      <trkpt lat="48.74916" lon="2.5819">
        <ele>102</ele>
        <time>2020-12-10T11:28:21.591Z</time>
      </trkpt>
      <trkpt lat="48.74924" lon="2.58193">
        <ele>102</ele>
        <time>2020-12-10T11:28:26.574Z</time>
      </trkpt>
      <trkpt lat="48.74927" lon="2.5819">
        <ele>102</ele>
        <time>2020-12-10T11:28:31.564Z</time>
      </trkpt>
      <trkpt lat="48.74937" lon="2.58196">
        <ele>102</ele>
        <time>2020-12-10T11:28:36.582Z</time>
      </trkpt>
      <trkpt lat="48.74954" lon="2.58212">
        <ele>102</ele>
        <time>2020-12-10T11:28:41.585Z</time>
      </trkpt>
      <trkpt lat="48.74945" lon="2.58238">
        <ele>101</ele>
        <time>2020-12-10T11:28:46.583Z</time>
      </trkpt>
      <trkpt lat="48.74951" lon="2.58245">
        <ele>101</ele>
        <time>2020-12-10T11:28:51.576Z</time>
      </trkpt>
      <trkpt lat="48.74967" lon="2.58242">
        <ele>100</ele>
        <time>2020-12-10T11:28:56.554Z</time>
      </trkpt>
      <trkpt lat="48.75003" lon="2.58234">
        <ele>100</ele>
        <time>2020-12-10T11:29:25.572Z</time>
      </trkpt>
      <trkpt lat="48.75004" lon="2.58203">
        <ele>101</ele>
        <time>2020-12-10T11:29:30.562Z</time>
      </trkpt>
      <trkpt lat="48.7502" lon="2.58173">
        <ele>102</ele>
        <time>2020-12-10T11:29:34.584Z</time>
      </trkpt>
      <trkpt lat="48.75023" lon="2.58165">
        <ele>102</ele>
        <time>2020-12-10T11:29:39.603Z</time>
      </trkpt>
      <trkpt lat="48.75027" lon="2.58156">
        <ele>102</ele>
        <time>2020-12-10T11:29:44.551Z</time>
      </trkpt>
      <trkpt lat="48.75033" lon="2.58153">
        <ele>102</ele>
        <time>2020-12-10T11:29:49.629Z</time>
      </trkpt>
      <trkpt lat="48.75039" lon="2.58145">
        <ele>103</ele>
        <time>2020-12-10T11:29:54.562Z</time>
      </trkpt>
      <trkpt lat="48.75044" lon="2.58142">
        <ele>103</ele>
        <time>2020-12-10T11:29:58.587Z</time>
      </trkpt>
      <trkpt lat="48.75051" lon="2.58138">
        <ele>103</ele>
        <time>2020-12-10T11:30:03.607Z</time>
      </trkpt>
      <trkpt lat="48.75055" lon="2.58137">
        <ele>103</ele>
        <time>2020-12-10T11:30:08.608Z</time>
      </trkpt>
      <trkpt lat="48.75061" lon="2.58133">
        <ele>103</ele>
        <time>2020-12-10T11:30:13.553Z</time>
      </trkpt>
      <trkpt lat="48.75068" lon="2.58136">
        <ele>103</ele>
        <time>2020-12-10T11:30:22.576Z</time>
      </trkpt>
      <trkpt lat="48.75071" lon="2.58138">
        <ele>103</ele>
        <time>2020-12-10T11:30:27.579Z</time>
      </trkpt>
      <trkpt lat="48.75092" lon="2.58075">
        <ele>105</ele>
        <time>2020-12-10T11:31:41.580Z</time>
      </trkpt>
      <trkpt lat="48.751" lon="2.58065">
        <ele>105</ele>
        <time>2020-12-10T11:31:46.590Z</time>
      </trkpt>
      <trkpt lat="48.75116" lon="2.58077">
        <ele>104</ele>
        <time>2020-12-10T11:31:51.585Z</time>
      </trkpt>
      <trkpt lat="48.75117" lon="2.58077">
        <ele>104</ele>
        <time>2020-12-10T11:31:56.583Z</time>
      </trkpt>
      <trkpt lat="48.75125" lon="2.58072">
        <ele>104</ele>
        <time>2020-12-10T11:32:01.608Z</time>
      </trkpt>
      <trkpt lat="48.75127" lon="2.58078">
        <ele>102</ele>
        <time>2020-12-10T11:32:05.579Z</time>
      </trkpt>
      <trkpt lat="48.75142" lon="2.58085">
        <ele>102</ele>
        <time>2020-12-10T11:32:10.568Z</time>
      </trkpt>
      <trkpt lat="48.7516" lon="2.58117">
        <ele>101</ele>
        <time>2020-12-10T11:32:14.634Z</time>
      </trkpt>
      <trkpt lat="48.75185" lon="2.58117">
        <ele>100</ele>
        <time>2020-12-10T11:32:19.575Z</time>
      </trkpt>
      <trkpt lat="48.75203" lon="2.58112">
        <ele>100</ele>
        <time>2020-12-10T11:32:24.582Z</time>
      </trkpt>
      <trkpt lat="48.75204" lon="2.58121">
        <ele>100</ele>
        <time>2020-12-10T11:32:29.552Z</time>
      </trkpt>
      <trkpt lat="48.75218" lon="2.58122">
        <ele>101</ele>
        <time>2020-12-10T11:32:33.573Z</time>
      </trkpt>
      <trkpt lat="48.75232" lon="2.58129">
        <ele>101</ele>
        <time>2020-12-10T11:32:38.580Z</time>
      </trkpt>
      <trkpt lat="48.75256" lon="2.58133">
        <ele>101</ele>
        <time>2020-12-10T11:32:52.572Z</time>
      </trkpt>
      <trkpt lat="48.75264" lon="2.58146">
        <ele>100</ele>
        <time>2020-12-10T11:32:58.595Z</time>
      </trkpt>
      <trkpt lat="48.75271" lon="2.5812">
        <ele>100</ele>
        <time>2020-12-10T11:33:05.564Z</time>
      </trkpt>
      <trkpt lat="48.75274" lon="2.58096">
        <ele>101</ele>
        <time>2020-12-10T11:33:10.586Z</time>
      </trkpt>
      <trkpt lat="48.7528" lon="2.58083">
        <ele>101</ele>
        <time>2020-12-10T11:33:15.601Z</time>
      </trkpt>
      <trkpt lat="48.75283" lon="2.58082">
        <ele>101</ele>
        <time>2020-12-10T11:33:20.586Z</time>
      </trkpt>
      <trkpt lat="48.75285" lon="2.58081">
        <ele>101</ele>
        <time>2020-12-10T11:33:25.551Z</time>
      </trkpt>
      <trkpt lat="48.7529" lon="2.58082">
        <ele>101</ele>
        <time>2020-12-10T11:33:30.619Z</time>
      </trkpt>
      <trkpt lat="48.75295" lon="2.58084">
        <ele>101</ele>
        <time>2020-12-10T11:33:34.608Z</time>
      </trkpt>
      <trkpt lat="48.75297" lon="2.58093">
        <ele>101</ele>
        <time>2020-12-10T11:33:49.584Z</time>
      </trkpt>
      <trkpt lat="48.75314" lon="2.58096">
        <ele>101</ele>
        <time>2020-12-10T11:33:56.584Z</time>
      </trkpt>
      <trkpt lat="48.75318" lon="2.58095">
        <ele>101</ele>
        <time>2020-12-10T11:34:01.569Z</time>
      </trkpt>
      <trkpt lat="48.75327" lon="2.58085">
        <ele>101</ele>
        <time>2020-12-10T11:34:06.581Z</time>
      </trkpt>
      <trkpt lat="48.75338" lon="2.58073">
        <ele>101</ele>
        <time>2020-12-10T11:34:11.560Z</time>
      </trkpt>
      <trkpt lat="48.75346" lon="2.5807">
        <ele>101</ele>
        <time>2020-12-10T11:34:16.563Z</time>
      </trkpt>
      <trkpt lat="48.75357" lon="2.58059">
        <ele>101</ele>
        <time>2020-12-10T11:34:21.587Z</time>
      </trkpt>
      <trkpt lat="48.75364" lon="2.58058">
        <ele>101</ele>
        <time>2020-12-10T11:34:26.567Z</time>
      </trkpt>
      <trkpt lat="48.75367" lon="2.58056">
        <ele>101</ele>
        <time>2020-12-10T11:34:31.573Z</time>
      </trkpt>
      <trkpt lat="48.75369" lon="2.58054">
        <ele>101</ele>
        <time>2020-12-10T11:34:36.585Z</time>
      </trkpt>
      <trkpt lat="48.75373" lon="2.58053">
        <ele>101</ele>
        <time>2020-12-10T11:34:42.587Z</time>
      </trkpt>
      <trkpt lat="48.75377" lon="2.5805">
        <ele>101</ele>
        <time>2020-12-10T11:34:48.565Z</time>
      </trkpt>
      <trkpt lat="48.75381" lon="2.58049">
        <ele>101</ele>
        <time>2020-12-10T11:34:53.600Z</time>
      </trkpt>
      <trkpt lat="48.7538" lon="2.58051">
        <ele>101</ele>
        <time>2020-12-10T11:34:58.586Z</time>
      </trkpt>
      <trkpt lat="48.75384" lon="2.58049">
        <ele>101</ele>
        <time>2020-12-10T11:35:03.576Z</time>
      </trkpt>
      <trkpt lat="48.7539" lon="2.58046">
        <ele>101</ele>
        <time>2020-12-10T11:35:08.572Z</time>
      </trkpt>
      <trkpt lat="48.75394" lon="2.58046">
        <ele>101</ele>
        <time>2020-12-10T11:35:13.571Z</time>
      </trkpt>
      <trkpt lat="48.75398" lon="2.58042">
        <ele>101</ele>
        <time>2020-12-10T11:35:18.586Z</time>
      </trkpt>
      <trkpt lat="48.754" lon="2.58038">
        <ele>101</ele>
        <time>2020-12-10T11:35:23.570Z</time>
      </trkpt>
      <trkpt lat="48.75401" lon="2.58034">
        <ele>101</ele>
        <time>2020-12-10T11:35:28.561Z</time>
      </trkpt>
      <trkpt lat="48.75408" lon="2.5803">
        <ele>101</ele>
        <time>2020-12-10T11:35:33.557Z</time>
      </trkpt>
      <trkpt lat="48.7541" lon="2.58023">
        <ele>101</ele>
        <time>2020-12-10T11:35:37.573Z</time>
      </trkpt>
      <trkpt lat="48.75417" lon="2.58012">
        <ele>101</ele>
        <time>2020-12-10T11:35:42.574Z</time>
      </trkpt>
      <trkpt lat="48.75423" lon="2.58007">
        <ele>101</ele>
        <time>2020-12-10T11:35:47.569Z</time>
      </trkpt>
      <trkpt lat="48.7543" lon="2.58001">
        <ele>101</ele>
        <time>2020-12-10T11:35:52.583Z</time>
      </trkpt>
      <trkpt lat="48.75434" lon="2.57999">
        <ele>103</ele>
        <time>2020-12-10T11:36:06.641Z</time>
      </trkpt>
      <trkpt lat="48.75433" lon="2.58001">
        <ele>103</ele>
        <time>2020-12-10T11:36:11.592Z</time>
      </trkpt>
      <trkpt lat="48.75432" lon="2.58003">
        <ele>103</ele>
        <time>2020-12-10T11:36:16.580Z</time>
      </trkpt>
      <trkpt lat="48.75431" lon="2.58007">
        <ele>103</ele>
        <time>2020-12-10T11:36:21.566Z</time>
      </trkpt>
      <trkpt lat="48.7543" lon="2.58026">
        <ele>101</ele>
        <time>2020-12-10T11:36:26.579Z</time>
      </trkpt>
      <trkpt lat="48.75433" lon="2.58025">
        <ele>102</ele>
        <time>2020-12-10T11:36:31.572Z</time>
      </trkpt>
      <trkpt lat="48.75427" lon="2.58031">
        <ele>101</ele>
        <time>2020-12-10T11:36:36.583Z</time>
      </trkpt>
      <trkpt lat="48.75416" lon="2.58036">
        <ele>101</ele>
        <time>2020-12-10T11:36:41.575Z</time>
      </trkpt>
      <trkpt lat="48.75405" lon="2.58042">
        <ele>101</ele>
        <time>2020-12-10T11:36:46.564Z</time>
      </trkpt>
      <trkpt lat="48.75399" lon="2.58056">
        <ele>101</ele>
        <time>2020-12-10T11:36:51.575Z</time>
      </trkpt>
      <trkpt lat="48.75399" lon="2.5807">
        <ele>101</ele>
        <time>2020-12-10T11:36:56.573Z</time>
      </trkpt>
      <trkpt lat="48.754" lon="2.58074">
        <ele>101</ele>
        <time>2020-12-10T11:37:01.571Z</time>
      </trkpt>
      <trkpt lat="48.75402" lon="2.58079">
        <ele>101</ele>
        <time>2020-12-10T11:37:05.585Z</time>
      </trkpt>
      <trkpt lat="48.75405" lon="2.58082">
        <ele>101</ele>
        <time>2020-12-10T11:37:10.563Z</time>
      </trkpt>
      <trkpt lat="48.75402" lon="2.58082">
        <ele>101</ele>
        <time>2020-12-10T11:37:15.571Z</time>
      </trkpt>
      <trkpt lat="48.75404" lon="2.58092">
        <ele>101</ele>
        <time>2020-12-10T11:37:19.591Z</time>
      </trkpt>
      <trkpt lat="48.75405" lon="2.5811">
        <ele>101</ele>
        <time>2020-12-10T11:37:24.599Z</time>
      </trkpt>
      <trkpt lat="48.75405" lon="2.58113">
        <ele>101</ele>
        <time>2020-12-10T11:37:29.570Z</time>
      </trkpt>
      <trkpt lat="48.75406" lon="2.58116">
        <ele>101</ele>
        <time>2020-12-10T11:37:34.573Z</time>
      </trkpt>
      <trkpt lat="48.75408" lon="2.58116">
        <ele>101</ele>
        <time>2020-12-10T11:37:38.595Z</time>
      </trkpt>
      <trkpt lat="48.75408" lon="2.58121">
        <ele>101</ele>
        <time>2020-12-10T11:37:43.562Z</time>
      </trkpt>
      <trkpt lat="48.75417" lon="2.58123">
        <ele>101</ele>
        <time>2020-12-10T11:37:48.581Z</time>
      </trkpt>
      <trkpt lat="48.75427" lon="2.58129">
        <ele>101</ele>
        <time>2020-12-10T11:37:53.568Z</time>
      </trkpt>
      <trkpt lat="48.7543" lon="2.58136">
        <ele>101</ele>
        <time>2020-12-10T11:37:58.571Z</time>
      </trkpt>
      <trkpt lat="48.75431" lon="2.58142">
        <ele>102</ele>
        <time>2020-12-10T11:38:03.579Z</time>
      </trkpt>
      <trkpt lat="48.75432" lon="2.58187">
        <ele>103</ele>
        <time>2020-12-10T11:38:08.566Z</time>
      </trkpt>
      <trkpt lat="48.75428" lon="2.58247">
        <ele>103</ele>
        <time>2020-12-10T11:38:28.623Z</time>
      </trkpt>
      <trkpt lat="48.75431" lon="2.5825">
        <ele>103</ele>
        <time>2020-12-10T11:38:33.571Z</time>
      </trkpt>
      <trkpt lat="48.75431" lon="2.58253">
        <ele>103</ele>
        <time>2020-12-10T11:38:38.564Z</time>
      </trkpt>
      <trkpt lat="48.75437" lon="2.58259">
        <ele>103</ele>
        <time>2020-12-10T11:38:43.568Z</time>
      </trkpt>
      <trkpt lat="48.75437" lon="2.58265">
        <ele>102</ele>
        <time>2020-12-10T11:38:48.562Z</time>
      </trkpt>
      <trkpt lat="48.7544" lon="2.58275">
        <ele>102</ele>
        <time>2020-12-10T11:38:53.569Z</time>
      </trkpt>
      <trkpt lat="48.75447" lon="2.58283">
        <ele>102</ele>
        <time>2020-12-10T11:38:58.570Z</time>
      </trkpt>
      <trkpt lat="48.75454" lon="2.58285">
        <ele>102</ele>
        <time>2020-12-10T11:39:03.568Z</time>
      </trkpt>
      <trkpt lat="48.75455" lon="2.58291">
        <ele>102</ele>
        <time>2020-12-10T11:39:08.570Z</time>
      </trkpt>
      <trkpt lat="48.75455" lon="2.58301">
        <ele>101</ele>
        <time>2020-12-10T11:39:13.572Z</time>
      </trkpt>
      <trkpt lat="48.7546" lon="2.58315">
        <ele>102</ele>
        <time>2020-12-10T11:39:18.566Z</time>
      </trkpt>
      <trkpt lat="48.75467" lon="2.58338">
        <ele>102</ele>
        <time>2020-12-10T11:39:23.573Z</time>
      </trkpt>
      <trkpt lat="48.75467" lon="2.58359">
        <ele>103</ele>
        <time>2020-12-10T11:39:28.568Z</time>
      </trkpt>
      <trkpt lat="48.75471" lon="2.58373">
        <ele>103</ele>
        <time>2020-12-10T11:39:33.578Z</time>
      </trkpt>
      <trkpt lat="48.75473" lon="2.58377">
        <ele>103</ele>
        <time>2020-12-10T11:39:38.575Z</time>
      </trkpt>
      <trkpt lat="48.75473" lon="2.58392">
        <ele>103</ele>
        <time>2020-12-10T11:39:43.577Z</time>
      </trkpt>
      <trkpt lat="48.75473" lon="2.58394">
        <ele>103</ele>
        <time>2020-12-10T11:39:48.573Z</time>
      </trkpt>
      <trkpt lat="48.75477" lon="2.58397">
        <ele>103</ele>
        <time>2020-12-10T11:39:53.567Z</time>
      </trkpt>
      <trkpt lat="48.75483" lon="2.58404">
        <ele>103</ele>
        <time>2020-12-10T11:39:58.582Z</time>
      </trkpt>
      <trkpt lat="48.75482" lon="2.58418">
        <ele>103</ele>
        <time>2020-12-10T11:40:03.582Z</time>
      </trkpt>
      <trkpt lat="48.75482" lon="2.58436">
        <ele>103</ele>
        <time>2020-12-10T11:40:08.553Z</time>
      </trkpt>
      <trkpt lat="48.75481" lon="2.58452">
        <ele>103</ele>
        <time>2020-12-10T11:40:12.606Z</time>
      </trkpt>
      <trkpt lat="48.75481" lon="2.58474">
        <ele>102</ele>
        <time>2020-12-10T11:40:17.574Z</time>
      </trkpt>
      <trkpt lat="48.75483" lon="2.58488">
        <ele>102</ele>
        <time>2020-12-10T11:40:21.598Z</time>
      </trkpt>
      <trkpt lat="48.75488" lon="2.58495">
        <ele>103</ele>
        <time>2020-12-10T11:40:26.583Z</time>
      </trkpt>
      <trkpt lat="48.755" lon="2.58503">
        <ele>103</ele>
        <time>2020-12-10T11:40:31.586Z</time>
      </trkpt>
      <trkpt lat="48.75499" lon="2.58511">
        <ele>103</ele>
        <time>2020-12-10T11:40:36.587Z</time>
      </trkpt>
      <trkpt lat="48.75497" lon="2.58527">
        <ele>104</ele>
        <time>2020-12-10T11:40:41.582Z</time>
      </trkpt>
      <trkpt lat="48.75504" lon="2.58546">
        <ele>104</ele>
        <time>2020-12-10T11:40:46.576Z</time>
      </trkpt>
      <trkpt lat="48.75499" lon="2.58556">
        <ele>104</ele>
        <time>2020-12-10T11:40:50.595Z</time>
      </trkpt>
      <trkpt lat="48.75499" lon="2.58576">
        <ele>104</ele>
        <time>2020-12-10T11:40:55.568Z</time>
      </trkpt>
      <trkpt lat="48.75498" lon="2.58595">
        <ele>104</ele>
        <time>2020-12-10T11:41:00.578Z</time>
      </trkpt>
      <trkpt lat="48.75497" lon="2.58603">
        <ele>104</ele>
        <time>2020-12-10T11:41:05.580Z</time>
      </trkpt>
      <trkpt lat="48.755" lon="2.58614">
        <ele>104</ele>
        <time>2020-12-10T11:41:10.595Z</time>
      </trkpt>
      <trkpt lat="48.755" lon="2.58631">
        <ele>104</ele>
        <time>2020-12-10T11:41:15.586Z</time>
      </trkpt>
      <trkpt lat="48.75499" lon="2.58639">
        <ele>104</ele>
        <time>2020-12-10T11:41:20.588Z</time>
      </trkpt>
      <trkpt lat="48.755" lon="2.58643">
        <ele>104</ele>
        <time>2020-12-10T11:41:25.590Z</time>
      </trkpt>
      <trkpt lat="48.755" lon="2.5865">
        <ele>104</ele>
        <time>2020-12-10T11:41:30.587Z</time>
      </trkpt>
      <trkpt lat="48.755" lon="2.58653">
        <ele>104</ele>
        <time>2020-12-10T11:41:35.574Z</time>
      </trkpt>
      <trkpt lat="48.75497" lon="2.58659">
        <ele>104</ele>
        <time>2020-12-10T11:41:40.572Z</time>
      </trkpt>
      <trkpt lat="48.75497" lon="2.58667">
        <ele>104</ele>
        <time>2020-12-10T11:41:45.562Z</time>
      </trkpt>
      <trkpt lat="48.75495" lon="2.58684">
        <ele>104</ele>
        <time>2020-12-10T11:41:50.577Z</time>
      </trkpt>
      <trkpt lat="48.75497" lon="2.58695">
        <ele>104</ele>
        <time>2020-12-10T11:41:55.568Z</time>
      </trkpt>
      <trkpt lat="48.755" lon="2.58703">
        <ele>104</ele>
        <time>2020-12-10T11:42:00.580Z</time>
      </trkpt>
      <trkpt lat="48.75503" lon="2.58717">
        <ele>104</ele>
        <time>2020-12-10T11:42:05.582Z</time>
      </trkpt>
      <trkpt lat="48.75502" lon="2.58728">
        <ele>104</ele>
        <time>2020-12-10T11:42:10.589Z</time>
      </trkpt>
      <trkpt lat="48.75502" lon="2.58745">
        <ele>104</ele>
        <time>2020-12-10T11:42:15.571Z</time>
      </trkpt>
      <trkpt lat="48.75504" lon="2.58757">
        <ele>104</ele>
        <time>2020-12-10T11:42:20.581Z</time>
      </trkpt>
      <trkpt lat="48.75505" lon="2.58766">
        <ele>104</ele>
        <time>2020-12-10T11:42:25.573Z</time>
      </trkpt>
      <trkpt lat="48.75506" lon="2.58775">
        <ele>104</ele>
        <time>2020-12-10T11:42:29.594Z</time>
      </trkpt>
      <trkpt lat="48.75504" lon="2.58786">
        <ele>104</ele>
        <time>2020-12-10T11:42:34.589Z</time>
      </trkpt>
      <trkpt lat="48.75504" lon="2.58801">
        <ele>104</ele>
        <time>2020-12-10T11:42:39.557Z</time>
      </trkpt>
      <trkpt lat="48.75502" lon="2.5881">
        <ele>104</ele>
        <time>2020-12-10T11:42:44.564Z</time>
      </trkpt>
      <trkpt lat="48.75497" lon="2.58833">
        <ele>104</ele>
        <time>2020-12-10T11:43:09.572Z</time>
      </trkpt>
      <trkpt lat="48.75498" lon="2.5884">
        <ele>104</ele>
        <time>2020-12-10T11:43:14.577Z</time>
      </trkpt>
      <trkpt lat="48.75498" lon="2.5884">
        <ele>104</ele>
        <time>2020-12-10T11:43:19.582Z</time>
      </trkpt>
      <trkpt lat="48.75499" lon="2.58841">
        <ele>104</ele>
        <time>2020-12-10T11:43:24.593Z</time>
      </trkpt>
      <trkpt lat="48.75505" lon="2.58848">
        <ele>104</ele>
        <time>2020-12-10T11:43:29.576Z</time>
      </trkpt>
      <trkpt lat="48.75512" lon="2.58862">
        <ele>104</ele>
        <time>2020-12-10T11:43:33.588Z</time>
      </trkpt>
      <trkpt lat="48.75518" lon="2.58877">
        <ele>104</ele>
        <time>2020-12-10T11:43:38.570Z</time>
      </trkpt>
      <trkpt lat="48.75527" lon="2.58891">
        <ele>104</ele>
        <time>2020-12-10T11:43:43.569Z</time>
      </trkpt>
      <trkpt lat="48.75521" lon="2.58909">
        <ele>104</ele>
        <time>2020-12-10T11:43:48.571Z</time>
      </trkpt>
      <trkpt lat="48.75525" lon="2.58916">
        <ele>104</ele>
        <time>2020-12-10T11:43:53.567Z</time>
      </trkpt>
      <trkpt lat="48.75519" lon="2.58947">
        <ele>104</ele>
        <time>2020-12-10T11:43:58.581Z</time>
      </trkpt>
      <trkpt lat="48.75517" lon="2.58954">
        <ele>104</ele>
        <time>2020-12-10T11:44:03.591Z</time>
      </trkpt>
      <trkpt lat="48.75518" lon="2.58955">
        <ele>104</ele>
        <time>2020-12-10T11:44:08.583Z</time>
      </trkpt>
      <trkpt lat="48.75518" lon="2.58966">
        <ele>104</ele>
        <time>2020-12-10T11:44:13.572Z</time>
      </trkpt>
      <trkpt lat="48.75518" lon="2.58971">
        <ele>104</ele>
        <time>2020-12-10T11:44:18.577Z</time>
      </trkpt>
      <trkpt lat="48.75511" lon="2.58985">
        <ele>104</ele>
        <time>2020-12-10T11:44:23.567Z</time>
      </trkpt>
      <trkpt lat="48.75505" lon="2.58996">
        <ele>103</ele>
        <time>2020-12-10T11:44:28.585Z</time>
      </trkpt>
      <trkpt lat="48.75501" lon="2.58998">
        <ele>103</ele>
        <time>2020-12-10T11:44:33.576Z</time>
      </trkpt>
      <trkpt lat="48.75503" lon="2.59005">
        <ele>103</ele>
        <time>2020-12-10T11:44:38.593Z</time>
      </trkpt>
      <trkpt lat="48.75504" lon="2.59008">
        <ele>103</ele>
        <time>2020-12-10T11:44:43.575Z</time>
      </trkpt>
      <trkpt lat="48.75503" lon="2.59012">
        <ele>103</ele>
        <time>2020-12-10T11:44:48.578Z</time>
      </trkpt>
      <trkpt lat="48.75504" lon="2.59014">
        <ele>103</ele>
        <time>2020-12-10T11:45:08.576Z</time>
      </trkpt>
      <trkpt lat="48.75506" lon="2.59019">
        <ele>103</ele>
        <time>2020-12-10T11:45:13.564Z</time>
      </trkpt>
      <trkpt lat="48.75511" lon="2.59019">
        <ele>103</ele>
        <time>2020-12-10T11:45:18.577Z</time>
      </trkpt>
      <trkpt lat="48.75515" lon="2.59021">
        <ele>104</ele>
        <time>2020-12-10T11:45:23.571Z</time>
      </trkpt>
      <trkpt lat="48.75519" lon="2.59024">
        <ele>104</ele>
        <time>2020-12-10T11:45:28.584Z</time>
      </trkpt>
      <trkpt lat="48.75521" lon="2.59021">
        <ele>104</ele>
        <time>2020-12-10T11:45:33.569Z</time>
      </trkpt>
      <trkpt lat="48.75525" lon="2.59019">
        <ele>104</ele>
        <time>2020-12-10T11:45:38.586Z</time>
      </trkpt>
      <trkpt lat="48.75529" lon="2.59018">
        <ele>104</ele>
        <time>2020-12-10T11:45:43.569Z</time>
      </trkpt>
      <trkpt lat="48.75529" lon="2.59015">
        <ele>104</ele>
        <time>2020-12-10T11:45:48.572Z</time>
      </trkpt>
      <trkpt lat="48.75534" lon="2.5902">
        <ele>104</ele>
        <time>2020-12-10T11:45:53.567Z</time>
      </trkpt>
      <trkpt lat="48.75538" lon="2.59022">
        <ele>104</ele>
        <time>2020-12-10T11:45:58.588Z</time>
      </trkpt>
      <trkpt lat="48.75542" lon="2.59026">
        <ele>105</ele>
        <time>2020-12-10T11:46:03.579Z</time>
      </trkpt>
      <trkpt lat="48.75545" lon="2.59027">
        <ele>105</ele>
        <time>2020-12-10T11:46:08.581Z</time>
      </trkpt>
      <trkpt lat="48.75548" lon="2.5903">
        <ele>105</ele>
        <time>2020-12-10T11:46:13.578Z</time>
      </trkpt>
      <trkpt lat="48.7555" lon="2.59028">
        <ele>105</ele>
        <time>2020-12-10T11:46:19.571Z</time>
      </trkpt>
      <trkpt lat="48.75553" lon="2.59028">
        <ele>105</ele>
        <time>2020-12-10T11:46:24.579Z</time>
      </trkpt>
      <trkpt lat="48.75558" lon="2.59028">
        <ele>105</ele>
        <time>2020-12-10T11:46:29.578Z</time>
      </trkpt>
      <trkpt lat="48.75559" lon="2.59026">
        <ele>105</ele>
        <time>2020-12-10T11:46:34.591Z</time>
      </trkpt>
      <trkpt lat="48.75562" lon="2.59027">
        <ele>105</ele>
        <time>2020-12-10T11:46:39.576Z</time>
      </trkpt>
      <trkpt lat="48.75563" lon="2.59027">
        <ele>105</ele>
        <time>2020-12-10T11:46:44.576Z</time>
      </trkpt>
      <trkpt lat="48.75566" lon="2.59026">
        <ele>105</ele>
        <time>2020-12-10T11:46:49.558Z</time>
      </trkpt>
      <trkpt lat="48.75568" lon="2.59023">
        <ele>105</ele>
        <time>2020-12-10T11:46:53.578Z</time>
      </trkpt>
      <trkpt lat="48.75574" lon="2.59026">
        <ele>105</ele>
        <time>2020-12-10T11:46:58.578Z</time>
      </trkpt>
      <trkpt lat="48.7558" lon="2.59026">
        <ele>105</ele>
        <time>2020-12-10T11:47:03.576Z</time>
      </trkpt>
      <trkpt lat="48.75584" lon="2.59026">
        <ele>105</ele>
        <time>2020-12-10T11:47:08.574Z</time>
      </trkpt>
      <trkpt lat="48.75591" lon="2.59025">
        <ele>105</ele>
        <time>2020-12-10T11:47:13.577Z</time>
      </trkpt>
      <trkpt lat="48.75598" lon="2.59025">
        <ele>106</ele>
        <time>2020-12-10T11:47:18.583Z</time>
      </trkpt>
      <trkpt lat="48.75604" lon="2.5903">
        <ele>106</ele>
        <time>2020-12-10T11:47:23.575Z</time>
      </trkpt>
      <trkpt lat="48.75612" lon="2.59027">
        <ele>106</ele>
        <time>2020-12-10T11:47:28.592Z</time>
      </trkpt>
      <trkpt lat="48.75617" lon="2.59023">
        <ele>106</ele>
        <time>2020-12-10T11:47:33.571Z</time>
      </trkpt>
      <trkpt lat="48.75619" lon="2.59017">
        <ele>106</ele>
        <time>2020-12-10T11:47:38.574Z</time>
      </trkpt>
      <trkpt lat="48.75627" lon="2.59013">
        <ele>106</ele>
        <time>2020-12-10T11:47:43.556Z</time>
      </trkpt>
      <trkpt lat="48.75632" lon="2.59014">
        <ele>107</ele>
        <time>2020-12-10T11:47:48.550Z</time>
      </trkpt>
      <trkpt lat="48.75639" lon="2.59013">
        <ele>106</ele>
        <time>2020-12-10T11:47:52.578Z</time>
      </trkpt>
      <trkpt lat="48.75648" lon="2.59012">
        <ele>106</ele>
        <time>2020-12-10T11:47:57.568Z</time>
      </trkpt>
      <trkpt lat="48.75671" lon="2.59008">
        <ele>107</ele>
        <time>2020-12-10T11:48:16.565Z</time>
      </trkpt>
      <trkpt lat="48.75674" lon="2.59006">
        <ele>107</ele>
        <time>2020-12-10T11:48:20.592Z</time>
      </trkpt>
      <trkpt lat="48.75676" lon="2.59002">
        <ele>107</ele>
        <time>2020-12-10T11:48:25.568Z</time>
      </trkpt>
      <trkpt lat="48.75677" lon="2.59007">
        <ele>107</ele>
        <time>2020-12-10T11:48:30.574Z</time>
      </trkpt>
      <trkpt lat="48.75679" lon="2.59015">
        <ele>108</ele>
        <time>2020-12-10T11:48:35.565Z</time>
      </trkpt>
      <trkpt lat="48.75681" lon="2.59017">
        <ele>108</ele>
        <time>2020-12-10T11:48:40.570Z</time>
      </trkpt>
      <trkpt lat="48.75692" lon="2.59">
        <ele>107</ele>
        <time>2020-12-10T11:48:45.565Z</time>
      </trkpt>
      <trkpt lat="48.75699" lon="2.58991">
        <ele>107</ele>
        <time>2020-12-10T11:48:50.586Z</time>
      </trkpt>
      <trkpt lat="48.75709" lon="2.58973">
        <ele>105</ele>
        <time>2020-12-10T11:48:55.572Z</time>
      </trkpt>
      <trkpt lat="48.75711" lon="2.5896">
        <ele>105</ele>
        <time>2020-12-10T11:49:00.575Z</time>
      </trkpt>
      <trkpt lat="48.75717" lon="2.5896">
        <ele>105</ele>
        <time>2020-12-10T11:49:05.568Z</time>
      </trkpt>
      <trkpt lat="48.7572" lon="2.58957">
        <ele>106</ele>
        <time>2020-12-10T11:49:10.585Z</time>
      </trkpt>
      <trkpt lat="48.75724" lon="2.58948">
        <ele>106</ele>
        <time>2020-12-10T11:49:15.562Z</time>
      </trkpt>
      <trkpt lat="48.75733" lon="2.58945">
        <ele>106</ele>
        <time>2020-12-10T11:49:20.584Z</time>
      </trkpt>
      <trkpt lat="48.75744" lon="2.58942">
        <ele>106</ele>
        <time>2020-12-10T11:49:24.559Z</time>
      </trkpt>
      <trkpt lat="48.75751" lon="2.58945">
        <ele>106</ele>
        <time>2020-12-10T11:49:28.593Z</time>
      </trkpt>
      <trkpt lat="48.75756" lon="2.58945">
        <ele>106</ele>
        <time>2020-12-10T11:49:33.584Z</time>
      </trkpt>
      <trkpt lat="48.75768" lon="2.58948">
        <ele>106</ele>
        <time>2020-12-10T11:49:38.568Z</time>
      </trkpt>
      <trkpt lat="48.75779" lon="2.58959">
        <ele>107</ele>
        <time>2020-12-10T11:49:43.567Z</time>
      </trkpt>
      <trkpt lat="48.75787" lon="2.5897">
        <ele>107</ele>
        <time>2020-12-10T11:49:48.591Z</time>
      </trkpt>
      <trkpt lat="48.75796" lon="2.5898">
        <ele>108</ele>
        <time>2020-12-10T11:49:53.585Z</time>
      </trkpt>
      <trkpt lat="48.75801" lon="2.58959">
        <ele>108</ele>
        <time>2020-12-10T11:49:58.573Z</time>
      </trkpt>
      <trkpt lat="48.75808" lon="2.58939">
        <ele>107</ele>
        <time>2020-12-10T11:50:02.585Z</time>
      </trkpt>
      <trkpt lat="48.75818" lon="2.58932">
        <ele>107</ele>
        <time>2020-12-10T11:50:07.544Z</time>
      </trkpt>
      <trkpt lat="48.75822" lon="2.58928">
        <ele>105</ele>
        <time>2020-12-10T11:50:11.570Z</time>
      </trkpt>
      <trkpt lat="48.75837" lon="2.58918">
        <ele>105</ele>
        <time>2020-12-10T11:50:26.597Z</time>
      </trkpt>
      <trkpt lat="48.75841" lon="2.58923">
        <ele>105</ele>
        <time>2020-12-10T11:50:31.588Z</time>
      </trkpt>
      <trkpt lat="48.75843" lon="2.58931">
        <ele>106</ele>
        <time>2020-12-10T11:50:36.596Z</time>
      </trkpt>
      <trkpt lat="48.75846" lon="2.58938">
        <ele>106</ele>
        <time>2020-12-10T11:50:41.565Z</time>
      </trkpt>
      <trkpt lat="48.75849" lon="2.58935">
        <ele>104</ele>
        <time>2020-12-10T11:50:46.578Z</time>
      </trkpt>
      <trkpt lat="48.7585" lon="2.58928">
        <ele>103</ele>
        <time>2020-12-10T11:50:51.569Z</time>
      </trkpt>
      <trkpt lat="48.75861" lon="2.58927">
        <ele>103</ele>
        <time>2020-12-10T11:50:56.591Z</time>
      </trkpt>
      <trkpt lat="48.75879" lon="2.58919">
        <ele>102</ele>
        <time>2020-12-10T11:51:01.566Z</time>
      </trkpt>
      <trkpt lat="48.75888" lon="2.58913">
        <ele>102</ele>
        <time>2020-12-10T11:51:06.593Z</time>
      </trkpt>
      <trkpt lat="48.75907" lon="2.58899">
        <ele>102</ele>
        <time>2020-12-10T11:51:11.569Z</time>
      </trkpt>
      <trkpt lat="48.7593" lon="2.589">
        <ele>102</ele>
        <time>2020-12-10T11:51:16.592Z</time>
      </trkpt>
      <trkpt lat="48.75932" lon="2.58903">
        <ele>104</ele>
        <time>2020-12-10T11:51:21.570Z</time>
      </trkpt>
      <trkpt lat="48.75948" lon="2.58905">
        <ele>104</ele>
        <time>2020-12-10T11:51:26.587Z</time>
      </trkpt>
      <trkpt lat="48.75964" lon="2.58919">
        <ele>106</ele>
        <time>2020-12-10T11:51:31.571Z</time>
      </trkpt>
      <trkpt lat="48.75971" lon="2.58919">
        <ele>106</ele>
        <time>2020-12-10T11:51:36.567Z</time>
      </trkpt>
      <trkpt lat="48.75977" lon="2.58927">
        <ele>106</ele>
        <time>2020-12-10T11:51:41.565Z</time>
      </trkpt>
      <trkpt lat="48.75977" lon="2.58937">
        <ele>107</ele>
        <time>2020-12-10T11:51:45.599Z</time>
      </trkpt>
      <trkpt lat="48.7598" lon="2.58939">
        <ele>107</ele>
        <time>2020-12-10T11:51:52.590Z</time>
      </trkpt>
      <trkpt lat="48.75981" lon="2.58948">
        <ele>107</ele>
        <time>2020-12-10T11:51:57.567Z</time>
      </trkpt>
      <trkpt lat="48.75982" lon="2.58952">
        <ele>107</ele>
        <time>2020-12-10T11:52:02.589Z</time>
      </trkpt>
      <trkpt lat="48.75981" lon="2.58966">
        <ele>107</ele>
        <time>2020-12-10T11:52:07.567Z</time>
      </trkpt>
      <trkpt lat="48.75974" lon="2.58975">
        <ele>107</ele>
        <time>2020-12-10T11:52:12.577Z</time>
      </trkpt>
      <trkpt lat="48.75968" lon="2.58981">
        <ele>107</ele>
        <time>2020-12-10T11:52:17.579Z</time>
      </trkpt>
      <trkpt lat="48.75965" lon="2.58987">
        <ele>108</ele>
        <time>2020-12-10T11:52:22.579Z</time>
      </trkpt>
      <trkpt lat="48.75965" lon="2.58993">
        <ele>108</ele>
        <time>2020-12-10T11:52:28.577Z</time>
      </trkpt>
      <trkpt lat="48.75967" lon="2.59004">
        <ele>108</ele>
        <time>2020-12-10T11:52:33.589Z</time>
      </trkpt>
      <trkpt lat="48.7597" lon="2.59009">
        <ele>108</ele>
        <time>2020-12-10T11:52:38.574Z</time>
      </trkpt>
      <trkpt lat="48.75974" lon="2.59011">
        <ele>108</ele>
        <time>2020-12-10T11:52:43.577Z</time>
      </trkpt>
      <trkpt lat="48.75977" lon="2.59012">
        <ele>108</ele>
        <time>2020-12-10T11:52:48.590Z</time>
      </trkpt>
      <trkpt lat="48.7598" lon="2.59027">
        <ele>109</ele>
        <time>2020-12-10T11:52:53.578Z</time>
      </trkpt>
      <trkpt lat="48.75986" lon="2.59034">
        <ele>109</ele>
        <time>2020-12-10T11:52:58.581Z</time>
      </trkpt>
      <trkpt lat="48.75993" lon="2.5905">
        <ele>109</ele>
        <time>2020-12-10T11:53:03.595Z</time>
      </trkpt>
      <trkpt lat="48.76005" lon="2.59061">
        <ele>109</ele>
        <time>2020-12-10T11:53:08.643Z</time>
      </trkpt>
      <trkpt lat="48.76018" lon="2.59076">
        <ele>109</ele>
        <time>2020-12-10T11:53:13.621Z</time>
      </trkpt>
      <trkpt lat="48.76027" lon="2.59088">
        <ele>109</ele>
        <time>2020-12-10T11:53:18.596Z</time>
      </trkpt>
      <trkpt lat="48.76029" lon="2.59098">
        <ele>109</ele>
        <time>2020-12-10T11:53:23.576Z</time>
      </trkpt>
      <trkpt lat="48.76031" lon="2.59098">
        <ele>109</ele>
        <time>2020-12-10T11:53:28.548Z</time>
      </trkpt>
      <trkpt lat="48.76046" lon="2.59128">
        <ele>108</ele>
        <time>2020-12-10T11:53:51.580Z</time>
      </trkpt>
      <trkpt lat="48.76049" lon="2.59133">
        <ele>108</ele>
        <time>2020-12-10T11:53:56.566Z</time>
      </trkpt>
      <trkpt lat="48.76051" lon="2.5914">
        <ele>108</ele>
        <time>2020-12-10T11:54:03.576Z</time>
      </trkpt>
      <trkpt lat="48.76052" lon="2.59152">
        <ele>108</ele>
        <time>2020-12-10T11:54:10.582Z</time>
      </trkpt>
      <trkpt lat="48.76052" lon="2.59165">
        <ele>108</ele>
        <time>2020-12-10T11:54:16.579Z</time>
      </trkpt>
      <trkpt lat="48.76052" lon="2.59186">
        <ele>107</ele>
        <time>2020-12-10T11:54:21.578Z</time>
      </trkpt>
      <trkpt lat="48.76052" lon="2.59208">
        <ele>107</ele>
        <time>2020-12-10T11:54:26.583Z</time>
      </trkpt>
      <trkpt lat="48.7605" lon="2.59222">
        <ele>107</ele>
        <time>2020-12-10T11:54:31.590Z</time>
      </trkpt>
      <trkpt lat="48.76049" lon="2.59233">
        <ele>107</ele>
        <time>2020-12-10T11:54:36.583Z</time>
      </trkpt>
      <trkpt lat="48.76047" lon="2.59245">
        <ele>107</ele>
        <time>2020-12-10T11:54:41.576Z</time>
      </trkpt>
      <trkpt lat="48.76051" lon="2.59241">
        <ele>107</ele>
        <time>2020-12-10T11:54:46.560Z</time>
      </trkpt>
      <trkpt lat="48.76052" lon="2.59242">
        <ele>107</ele>
        <time>2020-12-10T11:54:51.569Z</time>
      </trkpt>
      <trkpt lat="48.76051" lon="2.59253">
        <ele>107</ele>
        <time>2020-12-10T11:54:56.591Z</time>
      </trkpt>
      <trkpt lat="48.76054" lon="2.59254">
        <ele>107</ele>
        <time>2020-12-10T11:55:01.574Z</time>
      </trkpt>
      <trkpt lat="48.76049" lon="2.59279">
        <ele>108</ele>
        <time>2020-12-10T11:55:24.584Z</time>
      </trkpt>
      <trkpt lat="48.76048" lon="2.59285">
        <ele>108</ele>
        <time>2020-12-10T11:55:29.582Z</time>
      </trkpt>
      <trkpt lat="48.76048" lon="2.59288">
        <ele>108</ele>
        <time>2020-12-10T11:55:34.576Z</time>
      </trkpt>
      <trkpt lat="48.76044" lon="2.59291">
        <ele>108</ele>
        <time>2020-12-10T11:55:38.607Z</time>
      </trkpt>
      <trkpt lat="48.76039" lon="2.59289">
        <ele>109</ele>
        <time>2020-12-10T11:55:43.592Z</time>
      </trkpt>
      <trkpt lat="48.76038" lon="2.5929">
        <ele>109</ele>
        <time>2020-12-10T11:55:48.571Z</time>
      </trkpt>
      <trkpt lat="48.76042" lon="2.59295">
        <ele>108</ele>
        <time>2020-12-10T11:55:53.566Z</time>
      </trkpt>
      <trkpt lat="48.76047" lon="2.59308">
        <ele>108</ele>
        <time>2020-12-10T11:56:01.567Z</time>
      </trkpt>
      <trkpt lat="48.7605" lon="2.59312">
        <ele>108</ele>
        <time>2020-12-10T11:56:06.576Z</time>
      </trkpt>
      <trkpt lat="48.76052" lon="2.59318">
        <ele>108</ele>
        <time>2020-12-10T11:56:40.590Z</time>
      </trkpt>
      <trkpt lat="48.76053" lon="2.59335">
        <ele>108</ele>
        <time>2020-12-10T11:56:45.588Z</time>
      </trkpt>
      <trkpt lat="48.76059" lon="2.59336">
        <ele>108</ele>
        <time>2020-12-10T11:56:50.561Z</time>
      </trkpt>
      <trkpt lat="48.76057" lon="2.59342">
        <ele>108</ele>
        <time>2020-12-10T11:56:55.608Z</time>
      </trkpt>
      <trkpt lat="48.76047" lon="2.59352">
        <ele>108</ele>
        <time>2020-12-10T11:57:00.545Z</time>
      </trkpt>
      <trkpt lat="48.76045" lon="2.59363">
        <ele>108</ele>
        <time>2020-12-10T11:57:04.566Z</time>
      </trkpt>
      <trkpt lat="48.76037" lon="2.59399">
        <ele>107</ele>
        <time>2020-12-10T11:57:09.578Z</time>
      </trkpt>
      <trkpt lat="48.76045" lon="2.5944">
        <ele>107</ele>
        <time>2020-12-10T11:57:14.552Z</time>
      </trkpt>
      <trkpt lat="48.76053" lon="2.59459">
        <ele>107</ele>
        <time>2020-12-10T11:57:19.562Z</time>
      </trkpt>
      <trkpt lat="48.76049" lon="2.59474">
        <ele>107</ele>
        <time>2020-12-10T11:57:24.555Z</time>
      </trkpt>
      <trkpt lat="48.76045" lon="2.59489">
        <ele>106</ele>
        <time>2020-12-10T11:57:28.584Z</time>
      </trkpt>
      <trkpt lat="48.76033" lon="2.5951">
        <ele>106</ele>
        <time>2020-12-10T11:57:33.571Z</time>
      </trkpt>
      <trkpt lat="48.76032" lon="2.59526">
        <ele>106</ele>
        <time>2020-12-10T11:57:41.570Z</time>
      </trkpt>
      <trkpt lat="48.76025" lon="2.59537">
        <ele>106</ele>
        <time>2020-12-10T11:57:46.566Z</time>
      </trkpt>
      <trkpt lat="48.76016" lon="2.59545">
        <ele>106</ele>
        <time>2020-12-10T11:57:51.557Z</time>
      </trkpt>
      <trkpt lat="48.76013" lon="2.59548">
        <ele>106</ele>
        <time>2020-12-10T11:57:56.565Z</time>
      </trkpt>
      <trkpt lat="48.76007" lon="2.59551">
        <ele>106</ele>
        <time>2020-12-10T11:58:03.577Z</time>
      </trkpt>
      <trkpt lat="48.75999" lon="2.59562">
        <ele>106</ele>
        <time>2020-12-10T11:58:08.573Z</time>
      </trkpt>
      <trkpt lat="48.75997" lon="2.59573">
        <ele>106</ele>
        <time>2020-12-10T11:58:13.579Z</time>
      </trkpt>
      <trkpt lat="48.75991" lon="2.59584">
        <ele>106</ele>
        <time>2020-12-10T11:58:18.567Z</time>
      </trkpt>
      <trkpt lat="48.75989" lon="2.59602">
        <ele>106</ele>
        <time>2020-12-10T11:58:23.566Z</time>
      </trkpt>
      <trkpt lat="48.75991" lon="2.59602">
        <ele>106</ele>
        <time>2020-12-10T11:58:28.547Z</time>
      </trkpt>
      <trkpt lat="48.75992" lon="2.59605">
        <ele>106</ele>
        <time>2020-12-10T11:58:33.572Z</time>
      </trkpt>
      <trkpt lat="48.75997" lon="2.59608">
        <ele>106</ele>
        <time>2020-12-10T11:58:38.539Z</time>
      </trkpt>
      <trkpt lat="48.76001" lon="2.59612">
        <ele>106</ele>
        <time>2020-12-10T11:58:42.580Z</time>
      </trkpt>
      <trkpt lat="48.76009" lon="2.59625">
        <ele>106</ele>
        <time>2020-12-10T11:58:47.562Z</time>
      </trkpt>
      <trkpt lat="48.76013" lon="2.59637">
        <ele>106</ele>
        <time>2020-12-10T11:58:52.564Z</time>
      </trkpt>
      <trkpt lat="48.76015" lon="2.59642">
        <ele>107</ele>
        <time>2020-12-10T11:58:57.571Z</time>
      </trkpt>
      <trkpt lat="48.76008" lon="2.59651">
        <ele>106</ele>
        <time>2020-12-10T11:59:02.569Z</time>
      </trkpt>
      <trkpt lat="48.76007" lon="2.59683">
        <ele>106</ele>
        <time>2020-12-10T11:59:22.570Z</time>
      </trkpt>
      <trkpt lat="48.76002" lon="2.59684">
        <ele>106</ele>
        <time>2020-12-10T11:59:27.565Z</time>
      </trkpt>
      <trkpt lat="48.75998" lon="2.5969">
        <ele>106</ele>
        <time>2020-12-10T11:59:32.575Z</time>
      </trkpt>
      <trkpt lat="48.75994" lon="2.59713">
        <ele>106</ele>
        <time>2020-12-10T11:59:37.559Z</time>
      </trkpt>
      <trkpt lat="48.75994" lon="2.59739">
        <ele>105</ele>
        <time>2020-12-10T11:59:42.563Z</time>
      </trkpt>
      <trkpt lat="48.75993" lon="2.59751">
        <ele>105</ele>
        <time>2020-12-10T11:59:47.563Z</time>
      </trkpt>
      <trkpt lat="48.75994" lon="2.59758">
        <ele>105</ele>
        <time>2020-12-10T11:59:52.568Z</time>
      </trkpt>
      <trkpt lat="48.75997" lon="2.59759">
        <ele>105</ele>
        <time>2020-12-10T11:59:57.566Z</time>
      </trkpt>
      <trkpt lat="48.76002" lon="2.59759">
        <ele>105</ele>
        <time>2020-12-10T12:00:01.582Z</time>
      </trkpt>
      <trkpt lat="48.7601" lon="2.59758">
        <ele>105</ele>
        <time>2020-12-10T12:00:06.564Z</time>
      </trkpt>
      <trkpt lat="48.7601" lon="2.59758">
        <ele>105</ele>
        <time>2020-12-10T12:00:11.570Z</time>
      </trkpt>
      <trkpt lat="48.76013" lon="2.59758">
        <ele>105</ele>
        <time>2020-12-10T12:00:16.570Z</time>
      </trkpt>
      <trkpt lat="48.76018" lon="2.59754">
        <ele>106</ele>
        <time>2020-12-10T12:00:21.570Z</time>
      </trkpt>
      <trkpt lat="48.76027" lon="2.59754">
        <ele>106</ele>
        <time>2020-12-10T12:00:26.566Z</time>
      </trkpt>
      <trkpt lat="48.7604" lon="2.5976">
        <ele>106</ele>
        <time>2020-12-10T12:00:31.569Z</time>
      </trkpt>
      <trkpt lat="48.76052" lon="2.59767">
        <ele>106</ele>
        <time>2020-12-10T12:00:37.594Z</time>
      </trkpt>
      <trkpt lat="48.76055" lon="2.5977">
        <ele>106</ele>
        <time>2020-12-10T12:00:42.572Z</time>
      </trkpt>
      <trkpt lat="48.76062" lon="2.59773">
        <ele>106</ele>
        <time>2020-12-10T12:00:48.545Z</time>
      </trkpt>
      <trkpt lat="48.76065" lon="2.5978">
        <ele>106</ele>
        <time>2020-12-10T12:00:52.566Z</time>
      </trkpt>
      <trkpt lat="48.76074" lon="2.59797">
        <ele>106</ele>
        <time>2020-12-10T12:00:59.569Z</time>
      </trkpt>
      <trkpt lat="48.76076" lon="2.59806">
        <ele>106</ele>
        <time>2020-12-10T12:01:04.569Z</time>
      </trkpt>
      <trkpt lat="48.76077" lon="2.59811">
        <ele>106</ele>
        <time>2020-12-10T12:01:09.573Z</time>
      </trkpt>
      <trkpt lat="48.76156" lon="2.59693">
        <ele>108</ele>
        <time>2020-12-10T12:03:33.593Z</time>
      </trkpt>
      <trkpt lat="48.76172" lon="2.597">
        <ele>108</ele>
        <time>2020-12-10T12:03:38.589Z</time>
      </trkpt>
      <trkpt lat="48.76188" lon="2.597">
        <ele>108</ele>
        <time>2020-12-10T12:03:43.548Z</time>
      </trkpt>
      <trkpt lat="48.76198" lon="2.59689">
        <ele>108</ele>
        <time>2020-12-10T12:03:47.569Z</time>
      </trkpt>
      <trkpt lat="48.76209" lon="2.5969">
        <ele>107</ele>
        <time>2020-12-10T12:03:52.586Z</time>
      </trkpt>
      <trkpt lat="48.76211" lon="2.5969">
        <ele>107</ele>
        <time>2020-12-10T12:03:57.582Z</time>
      </trkpt>
      <trkpt lat="48.76219" lon="2.59691">
        <ele>107</ele>
        <time>2020-12-10T12:04:02.550Z</time>
      </trkpt>
      <trkpt lat="48.76226" lon="2.59686">
        <ele>107</ele>
        <time>2020-12-10T12:04:07.575Z</time>
      </trkpt>
      <trkpt lat="48.76227" lon="2.59684">
        <ele>107</ele>
        <time>2020-12-10T12:04:11.605Z</time>
      </trkpt>
      <trkpt lat="48.76228" lon="2.59686">
        <ele>107</ele>
        <time>2020-12-10T12:04:16.595Z</time>
      </trkpt>
      <trkpt lat="48.76231" lon="2.59681">
        <ele>107</ele>
        <time>2020-12-10T12:04:21.537Z</time>
      </trkpt>
      <trkpt lat="48.76237" lon="2.5968">
        <ele>107</ele>
        <time>2020-12-10T12:04:25.585Z</time>
      </trkpt>
      <trkpt lat="48.7624" lon="2.59683">
        <ele>106</ele>
        <time>2020-12-10T12:04:30.572Z</time>
      </trkpt>
      <trkpt lat="48.76256" lon="2.59686">
        <ele>106</ele>
        <time>2020-12-10T12:04:54.558Z</time>
      </trkpt>
      <trkpt lat="48.76267" lon="2.59677">
        <ele>106</ele>
        <time>2020-12-10T12:04:59.542Z</time>
      </trkpt>
      <trkpt lat="48.76274" lon="2.59678">
        <ele>106</ele>
        <time>2020-12-10T12:05:04.553Z</time>
      </trkpt>
      <trkpt lat="48.76278" lon="2.59674">
        <ele>106</ele>
        <time>2020-12-10T12:05:09.548Z</time>
      </trkpt>
      <trkpt lat="48.76279" lon="2.59671">
        <ele>106</ele>
        <time>2020-12-10T12:05:13.561Z</time>
      </trkpt>
      <trkpt lat="48.76285" lon="2.59667">
        <ele>106</ele>
        <time>2020-12-10T12:05:18.539Z</time>
      </trkpt>
      <trkpt lat="48.76292" lon="2.5966">
        <ele>106</ele>
        <time>2020-12-10T12:05:22.566Z</time>
      </trkpt>
      <trkpt lat="48.76304" lon="2.5965">
        <ele>106</ele>
        <time>2020-12-10T12:05:28.571Z</time>
      </trkpt>
      <trkpt lat="48.76313" lon="2.59641">
        <ele>106</ele>
        <time>2020-12-10T12:05:39.584Z</time>
      </trkpt>
      <trkpt lat="48.76318" lon="2.59634">
        <ele>106</ele>
        <time>2020-12-10T12:05:44.565Z</time>
      </trkpt>
      <trkpt lat="48.76334" lon="2.5965">
        <ele>106</ele>
        <time>2020-12-10T12:05:55.564Z</time>
      </trkpt>
      <trkpt lat="48.76335" lon="2.59661">
        <ele>106</ele>
        <time>2020-12-10T12:06:02.556Z</time>
      </trkpt>
      <trkpt lat="48.76334" lon="2.59671">
        <ele>106</ele>
        <time>2020-12-10T12:06:09.567Z</time>
      </trkpt>
      <trkpt lat="48.76342" lon="2.59668">
        <ele>106</ele>
        <time>2020-12-10T12:06:15.564Z</time>
      </trkpt>
      <trkpt lat="48.76345" lon="2.59669">
        <ele>106</ele>
        <time>2020-12-10T12:06:20.572Z</time>
      </trkpt>
      <trkpt lat="48.76353" lon="2.59669">
        <ele>105</ele>
        <time>2020-12-10T12:06:25.564Z</time>
      </trkpt>
      <trkpt lat="48.76364" lon="2.59671">
        <ele>105</ele>
        <time>2020-12-10T12:06:31.560Z</time>
      </trkpt>
      <trkpt lat="48.76371" lon="2.59669">
        <ele>105</ele>
        <time>2020-12-10T12:06:52.561Z</time>
      </trkpt>
      <trkpt lat="48.76376" lon="2.59672">
        <ele>104</ele>
        <time>2020-12-10T12:06:57.554Z</time>
      </trkpt>
      <trkpt lat="48.76376" lon="2.5967">
        <ele>104</ele>
        <time>2020-12-10T12:07:02.562Z</time>
      </trkpt>
      <trkpt lat="48.76378" lon="2.59673">
        <ele>104</ele>
        <time>2020-12-10T12:07:07.572Z</time>
      </trkpt>
      <trkpt lat="48.76379" lon="2.59664">
        <ele>104</ele>
        <time>2020-12-10T12:07:12.563Z</time>
      </trkpt>
      <trkpt lat="48.76381" lon="2.59664">
        <ele>104</ele>
        <time>2020-12-10T12:07:17.566Z</time>
      </trkpt>
      <trkpt lat="48.7638" lon="2.59662">
        <ele>104</ele>
        <time>2020-12-10T12:07:22.558Z</time>
      </trkpt>
      <trkpt lat="48.76383" lon="2.59664">
        <ele>104</ele>
        <time>2020-12-10T12:07:27.563Z</time>
      </trkpt>
      <trkpt lat="48.76387" lon="2.59669">
        <ele>104</ele>
        <time>2020-12-10T12:07:32.574Z</time>
      </trkpt>
      <trkpt lat="48.76388" lon="2.59675">
        <ele>104</ele>
        <time>2020-12-10T12:07:37.552Z</time>
      </trkpt>
      <trkpt lat="48.76388" lon="2.59683">
        <ele>104</ele>
        <time>2020-12-10T12:07:42.541Z</time>
      </trkpt>
      <trkpt lat="48.76389" lon="2.59671">
        <ele>104</ele>
        <time>2020-12-10T12:07:46.570Z</time>
      </trkpt>
      <trkpt lat="48.76395" lon="2.59645">
        <ele>105</ele>
        <time>2020-12-10T12:07:51.583Z</time>
      </trkpt>
      <trkpt lat="48.76424" lon="2.5962">
        <ele>105</ele>
        <time>2020-12-10T12:07:56.617Z</time>
      </trkpt>
      <trkpt lat="48.76437" lon="2.59611">
        <ele>107</ele>
        <time>2020-12-10T12:08:01.591Z</time>
      </trkpt>
      <trkpt lat="48.76465" lon="2.59609">
        <ele>107</ele>
        <time>2020-12-10T12:08:06.569Z</time>
      </trkpt>
      <trkpt lat="48.76474" lon="2.59607">
        <ele>107</ele>
        <time>2020-12-10T12:08:12.567Z</time>
      </trkpt>
      <trkpt lat="48.76476" lon="2.59606">
        <ele>107</ele>
        <time>2020-12-10T12:08:17.566Z</time>
      </trkpt>
      <trkpt lat="48.76487" lon="2.59605">
        <ele>107</ele>
        <time>2020-12-10T12:08:22.567Z</time>
      </trkpt>
      <trkpt lat="48.76496" lon="2.59604">
        <ele>107</ele>
        <time>2020-12-10T12:08:27.556Z</time>
      </trkpt>
      <trkpt lat="48.76508" lon="2.59598">
        <ele>107</ele>
        <time>2020-12-10T12:08:33.544Z</time>
      </trkpt>
      <trkpt lat="48.76538" lon="2.59569">
        <ele>108</ele>
        <time>2020-12-10T12:08:38.569Z</time>
      </trkpt>
      <trkpt lat="48.76548" lon="2.59558">
        <ele>109</ele>
        <time>2020-12-10T12:09:02.566Z</time>
      </trkpt>
      <trkpt lat="48.76553" lon="2.59556">
        <ele>109</ele>
        <time>2020-12-10T12:09:07.567Z</time>
      </trkpt>
      <trkpt lat="48.76555" lon="2.59553">
        <ele>109</ele>
        <time>2020-12-10T12:09:12.578Z</time>
      </trkpt>
      <trkpt lat="48.76559" lon="2.59543">
        <ele>109</ele>
        <time>2020-12-10T12:09:17.564Z</time>
      </trkpt>
      <trkpt lat="48.76569" lon="2.59533">
        <ele>109</ele>
        <time>2020-12-10T12:09:23.575Z</time>
      </trkpt>
      <trkpt lat="48.76575" lon="2.59529">
        <ele>110</ele>
        <time>2020-12-10T12:09:28.571Z</time>
      </trkpt>
      <trkpt lat="48.76574" lon="2.59528">
        <ele>110</ele>
        <time>2020-12-10T12:09:33.566Z</time>
      </trkpt>
      <trkpt lat="48.76585" lon="2.59506">
        <ele>110</ele>
        <time>2020-12-10T12:09:38.558Z</time>
      </trkpt>
      <trkpt lat="48.76591" lon="2.59501">
        <ele>110</ele>
        <time>2020-12-10T12:09:43.565Z</time>
      </trkpt>
      <trkpt lat="48.76586" lon="2.59494">
        <ele>110</ele>
        <time>2020-12-10T12:09:49.566Z</time>
      </trkpt>
      <trkpt lat="48.76575" lon="2.59485">
        <ele>110</ele>
        <time>2020-12-10T12:09:54.568Z</time>
      </trkpt>
      <trkpt lat="48.76568" lon="2.59475">
        <ele>109</ele>
        <time>2020-12-10T12:09:59.569Z</time>
      </trkpt>
      <trkpt lat="48.76555" lon="2.5946">
        <ele>109</ele>
        <time>2020-12-10T12:10:04.559Z</time>
      </trkpt>
      <trkpt lat="48.7653" lon="2.59435">
        <ele>108</ele>
        <time>2020-12-10T12:10:09.552Z</time>
      </trkpt>
      <trkpt lat="48.76528" lon="2.59428">
        <ele>109</ele>
        <time>2020-12-10T12:10:14.556Z</time>
      </trkpt>
      <trkpt lat="48.76531" lon="2.59421">
        <ele>109</ele>
        <time>2020-12-10T12:10:19.557Z</time>
      </trkpt>
      <trkpt lat="48.76524" lon="2.59407">
        <ele>109</ele>
        <time>2020-12-10T12:10:24.561Z</time>
      </trkpt>
      <trkpt lat="48.76514" lon="2.59392">
        <ele>110</ele>
        <time>2020-12-10T12:10:29.560Z</time>
      </trkpt>
      <trkpt lat="48.76506" lon="2.59376">
        <ele>108</ele>
        <time>2020-12-10T12:10:33.576Z</time>
      </trkpt>
      <trkpt lat="48.76501" lon="2.59367">
        <ele>109</ele>
        <time>2020-12-10T12:10:38.583Z</time>
      </trkpt>
      <trkpt lat="48.76499" lon="2.59335">
        <ele>109</ele>
        <time>2020-12-10T12:10:46.567Z</time>
      </trkpt>
      <trkpt lat="48.76498" lon="2.593">
        <ele>109</ele>
        <time>2020-12-10T12:11:11.556Z</time>
      </trkpt>
      <trkpt lat="48.76505" lon="2.59292">
        <ele>109</ele>
        <time>2020-12-10T12:11:16.559Z</time>
      </trkpt>
      <trkpt lat="48.7651" lon="2.59296">
        <ele>109</ele>
        <time>2020-12-10T12:11:21.569Z</time>
      </trkpt>
      <trkpt lat="48.76518" lon="2.59293">
        <ele>111</ele>
        <time>2020-12-10T12:11:26.563Z</time>
      </trkpt>
      <trkpt lat="48.76524" lon="2.59284">
        <ele>110</ele>
        <time>2020-12-10T12:11:33.568Z</time>
      </trkpt>
      <trkpt lat="48.76527" lon="2.59284">
        <ele>110</ele>
        <time>2020-12-10T12:11:38.583Z</time>
      </trkpt>
      <trkpt lat="48.76528" lon="2.59281">
        <ele>110</ele>
        <time>2020-12-10T12:11:43.564Z</time>
      </trkpt>
      <trkpt lat="48.76535" lon="2.59278">
        <ele>110</ele>
        <time>2020-12-10T12:11:48.561Z</time>
      </trkpt>
      <trkpt lat="48.76541" lon="2.59266">
        <ele>110</ele>
        <time>2020-12-10T12:11:53.575Z</time>
      </trkpt>
      <trkpt lat="48.76543" lon="2.59246">
        <ele>109</ele>
        <time>2020-12-10T12:11:59.586Z</time>
      </trkpt>
      <trkpt lat="48.76536" lon="2.59227">
        <ele>110</ele>
        <time>2020-12-10T12:12:08.539Z</time>
      </trkpt>
      <trkpt lat="48.76534" lon="2.5921">
        <ele>110</ele>
        <time>2020-12-10T12:12:12.568Z</time>
      </trkpt>
      <trkpt lat="48.76527" lon="2.59191">
        <ele>110</ele>
        <time>2020-12-10T12:12:17.553Z</time>
      </trkpt>
      <trkpt lat="48.7652" lon="2.59171">
        <ele>109</ele>
        <time>2020-12-10T12:12:21.582Z</time>
      </trkpt>
      <trkpt lat="48.76517" lon="2.59171">
        <ele>109</ele>
        <time>2020-12-10T12:12:26.534Z</time>
      </trkpt>
      <trkpt lat="48.76514" lon="2.59155">
        <ele>108</ele>
        <time>2020-12-10T12:12:32.545Z</time>
      </trkpt>
      <trkpt lat="48.76512" lon="2.59147">
        <ele>108</ele>
        <time>2020-12-10T12:12:37.532Z</time>
      </trkpt>
      <trkpt lat="48.76505" lon="2.59125">
        <ele>108</ele>
        <time>2020-12-10T12:12:41.588Z</time>
      </trkpt>
      <trkpt lat="48.76498" lon="2.59104">
        <ele>108</ele>
        <time>2020-12-10T12:12:46.562Z</time>
      </trkpt>
      <trkpt lat="48.76494" lon="2.59093">
        <ele>108</ele>
        <time>2020-12-10T12:12:51.576Z</time>
      </trkpt>
      <trkpt lat="48.76491" lon="2.59085">
        <ele>108</ele>
        <time>2020-12-10T12:12:56.573Z</time>
      </trkpt>
      <trkpt lat="48.76475" lon="2.59038">
        <ele>110</ele>
        <time>2020-12-10T12:14:52.578Z</time>
      </trkpt>
      <trkpt lat="48.76477" lon="2.59028">
        <ele>110</ele>
        <time>2020-12-10T12:14:57.590Z</time>
      </trkpt>
      <trkpt lat="48.76484" lon="2.59012">
        <ele>110</ele>
        <time>2020-12-10T12:15:02.558Z</time>
      </trkpt>
      <trkpt lat="48.76483" lon="2.59008">
        <ele>110</ele>
        <time>2020-12-10T12:15:07.568Z</time>
      </trkpt>
      <trkpt lat="48.76485" lon="2.58997">
        <ele>110</ele>
        <time>2020-12-10T12:15:12.570Z</time>
      </trkpt>
      <trkpt lat="48.76484" lon="2.5899">
        <ele>110</ele>
        <time>2020-12-10T12:15:17.574Z</time>
      </trkpt>
      <trkpt lat="48.76488" lon="2.58982">
        <ele>110</ele>
        <time>2020-12-10T12:15:22.571Z</time>
      </trkpt>
      <trkpt lat="48.76493" lon="2.58975">
        <ele>110</ele>
        <time>2020-12-10T12:15:27.558Z</time>
      </trkpt>
      <trkpt lat="48.76497" lon="2.58963">
        <ele>110</ele>
        <time>2020-12-10T12:15:32.567Z</time>
      </trkpt>
      <trkpt lat="48.76504" lon="2.58957">
        <ele>110</ele>
        <time>2020-12-10T12:15:37.581Z</time>
      </trkpt>
      <trkpt lat="48.76509" lon="2.58952">
        <ele>110</ele>
        <time>2020-12-10T12:15:42.569Z</time>
      </trkpt>
      <trkpt lat="48.76513" lon="2.58953">
        <ele>110</ele>
        <time>2020-12-10T12:15:47.580Z</time>
      </trkpt>
      <trkpt lat="48.76515" lon="2.58951">
        <ele>109</ele>
        <time>2020-12-10T12:15:52.570Z</time>
      </trkpt>
      <trkpt lat="48.76518" lon="2.58948">
        <ele>109</ele>
        <time>2020-12-10T12:15:57.569Z</time>
      </trkpt>
      <trkpt lat="48.76522" lon="2.58943">
        <ele>109</ele>
        <time>2020-12-10T12:16:02.576Z</time>
      </trkpt>
      <trkpt lat="48.7652" lon="2.58937">
        <ele>109</ele>
        <time>2020-12-10T12:16:07.587Z</time>
      </trkpt>
      <trkpt lat="48.76518" lon="2.58931">
        <ele>109</ele>
        <time>2020-12-10T12:16:12.572Z</time>
      </trkpt>
      <trkpt lat="48.7652" lon="2.58924">
        <ele>109</ele>
        <time>2020-12-10T12:16:17.578Z</time>
      </trkpt>
      <trkpt lat="48.76522" lon="2.58921">
        <ele>109</ele>
        <time>2020-12-10T12:16:22.581Z</time>
      </trkpt>
      <trkpt lat="48.76527" lon="2.58912">
        <ele>109</ele>
        <time>2020-12-10T12:16:27.568Z</time>
      </trkpt>
      <trkpt lat="48.76536" lon="2.58909">
        <ele>109</ele>
        <time>2020-12-10T12:16:32.555Z</time>
      </trkpt>
      <trkpt lat="48.76537" lon="2.58898">
        <ele>110</ele>
        <time>2020-12-10T12:16:37.573Z</time>
      </trkpt>
      <trkpt lat="48.76539" lon="2.58892">
        <ele>110</ele>
        <time>2020-12-10T12:16:42.571Z</time>
      </trkpt>
      <trkpt lat="48.76546" lon="2.58885">
        <ele>108</ele>
        <time>2020-12-10T12:16:47.569Z</time>
      </trkpt>
      <trkpt lat="48.76551" lon="2.58882">
        <ele>108</ele>
        <time>2020-12-10T12:16:52.587Z</time>
      </trkpt>
      <trkpt lat="48.76561" lon="2.58877">
        <ele>108</ele>
        <time>2020-12-10T12:16:57.576Z</time>
      </trkpt>
      <trkpt lat="48.76566" lon="2.58871">
        <ele>108</ele>
        <time>2020-12-10T12:17:02.573Z</time>
      </trkpt>
      <trkpt lat="48.76574" lon="2.58867">
        <ele>108</ele>
        <time>2020-12-10T12:17:06.601Z</time>
      </trkpt>
      <trkpt lat="48.76579" lon="2.5886">
        <ele>108</ele>
        <time>2020-12-10T12:17:11.602Z</time>
      </trkpt>
      <trkpt lat="48.76602" lon="2.58837">
        <ele>109</ele>
        <time>2020-12-10T12:17:30.574Z</time>
      </trkpt>
      <trkpt lat="48.76605" lon="2.5883">
        <ele>109</ele>
        <time>2020-12-10T12:17:35.576Z</time>
      </trkpt>
      <trkpt lat="48.76612" lon="2.58811">
        <ele>109</ele>
        <time>2020-12-10T12:17:40.596Z</time>
      </trkpt>
      <trkpt lat="48.76618" lon="2.58802">
        <ele>109</ele>
        <time>2020-12-10T12:17:45.576Z</time>
      </trkpt>
      <trkpt lat="48.76617" lon="2.58795">
        <ele>109</ele>
        <time>2020-12-10T12:17:49.600Z</time>
      </trkpt>
      <trkpt lat="48.76619" lon="2.58785">
        <ele>110</ele>
        <time>2020-12-10T12:17:54.555Z</time>
      </trkpt>
      <trkpt lat="48.76618" lon="2.58777">
        <ele>110</ele>
        <time>2020-12-10T12:17:58.584Z</time>
      </trkpt>
      <trkpt lat="48.76616" lon="2.58772">
        <ele>110</ele>
        <time>2020-12-10T12:18:03.579Z</time>
      </trkpt>
      <trkpt lat="48.76612" lon="2.58762">
        <ele>109</ele>
        <time>2020-12-10T12:18:08.578Z</time>
      </trkpt>
      <trkpt lat="48.76613" lon="2.58751">
        <ele>109</ele>
        <time>2020-12-10T12:18:13.588Z</time>
      </trkpt>
      <trkpt lat="48.76615" lon="2.58747">
        <ele>109</ele>
        <time>2020-12-10T12:18:18.571Z</time>
      </trkpt>
      <trkpt lat="48.76617" lon="2.58741">
        <ele>109</ele>
        <time>2020-12-10T12:18:23.583Z</time>
      </trkpt>
      <trkpt lat="48.7662" lon="2.58733">
        <ele>108</ele>
        <time>2020-12-10T12:18:28.587Z</time>
      </trkpt>
      <trkpt lat="48.76621" lon="2.58726">
        <ele>108</ele>
        <time>2020-12-10T12:18:33.577Z</time>
      </trkpt>
      <trkpt lat="48.76627" lon="2.58718">
        <ele>108</ele>
        <time>2020-12-10T12:18:38.588Z</time>
      </trkpt>
      <trkpt lat="48.76632" lon="2.5871">
        <ele>108</ele>
        <time>2020-12-10T12:18:43.567Z</time>
      </trkpt>
      <trkpt lat="48.76635" lon="2.58705">
        <ele>108</ele>
        <time>2020-12-10T12:18:48.578Z</time>
      </trkpt>
      <trkpt lat="48.76638" lon="2.58703">
        <ele>108</ele>
        <time>2020-12-10T12:18:53.590Z</time>
      </trkpt>
      <trkpt lat="48.76639" lon="2.58703">
        <ele>108</ele>
        <time>2020-12-10T12:18:58.580Z</time>
      </trkpt>
      <trkpt lat="48.76641" lon="2.58704">
        <ele>108</ele>
        <time>2020-12-10T12:19:03.593Z</time>
      </trkpt>
      <trkpt lat="48.76645" lon="2.58706">
        <ele>108</ele>
        <time>2020-12-10T12:19:08.566Z</time>
      </trkpt>
      <trkpt lat="48.76647" lon="2.58706">
        <ele>108</ele>
        <time>2020-12-10T12:19:13.554Z</time>
      </trkpt>
      <trkpt lat="48.76651" lon="2.58708">
        <ele>108</ele>
        <time>2020-12-10T12:19:18.531Z</time>
      </trkpt>
      <trkpt lat="48.76659" lon="2.58702">
        <ele>107</ele>
        <time>2020-12-10T12:19:22.585Z</time>
      </trkpt>
      <trkpt lat="48.7666" lon="2.5869">
        <ele>107</ele>
        <time>2020-12-10T12:19:27.588Z</time>
      </trkpt>
      <trkpt lat="48.76659" lon="2.58684">
        <ele>107</ele>
        <time>2020-12-10T12:19:31.597Z</time>
      </trkpt>
      <trkpt lat="48.76659" lon="2.58685">
        <ele>107</ele>
        <time>2020-12-10T12:19:36.573Z</time>
      </trkpt>
      <trkpt lat="48.76659" lon="2.58681">
        <ele>107</ele>
        <time>2020-12-10T12:19:40.606Z</time>
      </trkpt>
      <trkpt lat="48.7666" lon="2.5868">
        <ele>108</ele>
        <time>2020-12-10T12:19:45.557Z</time>
      </trkpt>
      <trkpt lat="48.76661" lon="2.58677">
        <ele>108</ele>
        <time>2020-12-10T12:19:49.577Z</time>
      </trkpt>
      <trkpt lat="48.7666" lon="2.58666">
        <ele>108</ele>
        <time>2020-12-10T12:19:54.555Z</time>
      </trkpt>
      <trkpt lat="48.76662" lon="2.58657">
        <ele>108</ele>
        <time>2020-12-10T12:19:59.584Z</time>
      </trkpt>
      <trkpt lat="48.76661" lon="2.58649">
        <ele>108</ele>
        <time>2020-12-10T12:20:04.573Z</time>
      </trkpt>
      <trkpt lat="48.76661" lon="2.58645">
        <ele>108</ele>
        <time>2020-12-10T12:20:08.586Z</time>
      </trkpt>
      <trkpt lat="48.76667" lon="2.58642">
        <ele>108</ele>
        <time>2020-12-10T12:20:13.579Z</time>
      </trkpt>
      <trkpt lat="48.76671" lon="2.58641">
        <ele>108</ele>
        <time>2020-12-10T12:20:18.580Z</time>
      </trkpt>
      <trkpt lat="48.76676" lon="2.5864">
        <ele>108</ele>
        <time>2020-12-10T12:20:23.574Z</time>
      </trkpt>
      <trkpt lat="48.76676" lon="2.58637">
        <ele>108</ele>
        <time>2020-12-10T12:20:28.596Z</time>
      </trkpt>
      <trkpt lat="48.76682" lon="2.58638">
        <ele>107</ele>
        <time>2020-12-10T12:20:33.598Z</time>
      </trkpt>
      <trkpt lat="48.76686" lon="2.5863">
        <ele>107</ele>
        <time>2020-12-10T12:20:38.596Z</time>
      </trkpt>
      <trkpt lat="48.76688" lon="2.58631">
        <ele>107</ele>
        <time>2020-12-10T12:20:43.593Z</time>
      </trkpt>
      <trkpt lat="48.76692" lon="2.58632">
        <ele>107</ele>
        <time>2020-12-10T12:20:48.579Z</time>
      </trkpt>
      <trkpt lat="48.76696" lon="2.5863">
        <ele>107</ele>
        <time>2020-12-10T12:20:53.592Z</time>
      </trkpt>
      <trkpt lat="48.76717" lon="2.58629">
        <ele>107</ele>
        <time>2020-12-10T12:20:58.604Z</time>
      </trkpt>
      <trkpt lat="48.7673" lon="2.58626">
        <ele>107</ele>
        <time>2020-12-10T12:21:03.596Z</time>
      </trkpt>
      <trkpt lat="48.7674" lon="2.58623">
        <ele>106</ele>
        <time>2020-12-10T12:21:08.586Z</time>
      </trkpt>
      <trkpt lat="48.76744" lon="2.5862">
        <ele>106</ele>
        <time>2020-12-10T12:21:13.582Z</time>
      </trkpt>
      <trkpt lat="48.76745" lon="2.5862">
        <ele>106</ele>
        <time>2020-12-10T12:21:18.560Z</time>
      </trkpt>
      <trkpt lat="48.76749" lon="2.58615">
        <ele>106</ele>
        <time>2020-12-10T12:21:22.575Z</time>
      </trkpt>
      <trkpt lat="48.76752" lon="2.58614">
        <ele>106</ele>
        <time>2020-12-10T12:21:27.585Z</time>
      </trkpt>
      <trkpt lat="48.76758" lon="2.58607">
        <ele>106</ele>
        <time>2020-12-10T12:21:32.575Z</time>
      </trkpt>
      <trkpt lat="48.76763" lon="2.58606">
        <ele>106</ele>
        <time>2020-12-10T12:21:37.565Z</time>
      </trkpt>
      <trkpt lat="48.76769" lon="2.58607">
        <ele>107</ele>
        <time>2020-12-10T12:21:42.579Z</time>
      </trkpt>
      <trkpt lat="48.76774" lon="2.5861">
        <ele>107</ele>
        <time>2020-12-10T12:21:47.577Z</time>
      </trkpt>
      <trkpt lat="48.76781" lon="2.58613">
        <ele>107</ele>
        <time>2020-12-10T12:21:52.557Z</time>
      </trkpt>
      <trkpt lat="48.76785" lon="2.58614">
        <ele>107</ele>
        <time>2020-12-10T12:21:57.547Z</time>
      </trkpt>
      <trkpt lat="48.76789" lon="2.58614">
        <ele>107</ele>
        <time>2020-12-10T12:22:01.567Z</time>
      </trkpt>
      <trkpt lat="48.7679" lon="2.58613">
        <ele>107</ele>
        <time>2020-12-10T12:22:05.597Z</time>
      </trkpt>
      <trkpt lat="48.76793" lon="2.58615">
        <ele>107</ele>
        <time>2020-12-10T12:22:10.566Z</time>
      </trkpt>
      <trkpt lat="48.76802" lon="2.58629">
        <ele>107</ele>
        <time>2020-12-10T12:22:15.559Z</time>
      </trkpt>
      <trkpt lat="48.76806" lon="2.58626">
        <ele>107</ele>
        <time>2020-12-10T12:22:29.573Z</time>
      </trkpt>
      <trkpt lat="48.76813" lon="2.58633">
        <ele>107</ele>
        <time>2020-12-10T12:22:33.599Z</time>
      </trkpt>
      <trkpt lat="48.76815" lon="2.58632">
        <ele>107</ele>
        <time>2020-12-10T12:22:38.567Z</time>
      </trkpt>
      <trkpt lat="48.76825" lon="2.58636">
        <ele>106</ele>
        <time>2020-12-10T12:22:43.565Z</time>
      </trkpt>
      <trkpt lat="48.76826" lon="2.58636">
        <ele>106</ele>
        <time>2020-12-10T12:22:48.604Z</time>
      </trkpt>
      <trkpt lat="48.76828" lon="2.58639">
        <ele>106</ele>
        <time>2020-12-10T12:22:53.600Z</time>
      </trkpt>
      <trkpt lat="48.76831" lon="2.58641">
        <ele>106</ele>
        <time>2020-12-10T12:22:58.654Z</time>
      </trkpt>
      <trkpt lat="48.76834" lon="2.58643">
        <ele>106</ele>
        <time>2020-12-10T12:23:03.573Z</time>
      </trkpt>
      <trkpt lat="48.76835" lon="2.58642">
        <ele>106</ele>
        <time>2020-12-10T12:23:07.608Z</time>
      </trkpt>
      <trkpt lat="48.7684" lon="2.58647">
        <ele>106</ele>
        <time>2020-12-10T12:23:14.598Z</time>
      </trkpt>
      <trkpt lat="48.76839" lon="2.58639">
        <ele>106</ele>
        <time>2020-12-10T12:23:19.610Z</time>
      </trkpt>
      <trkpt lat="48.7684" lon="2.58644">
        <ele>106</ele>
        <time>2020-12-10T12:23:24.584Z</time>
      </trkpt>
      <trkpt lat="48.76843" lon="2.58644">
        <ele>106</ele>
        <time>2020-12-10T12:23:29.600Z</time>
      </trkpt>
      <trkpt lat="48.76844" lon="2.58642">
        <ele>106</ele>
        <time>2020-12-10T12:23:34.570Z</time>
      </trkpt>
      <trkpt lat="48.76849" lon="2.58646">
        <ele>106</ele>
        <time>2020-12-10T12:23:38.597Z</time>
      </trkpt>
      <trkpt lat="48.76847" lon="2.58643">
        <ele>106</ele>
        <time>2020-12-10T12:24:48.594Z</time>
      </trkpt>
      <trkpt lat="48.76848" lon="2.5864">
        <ele>106</ele>
        <time>2020-12-10T12:24:53.590Z</time>
      </trkpt>
      <trkpt lat="48.76848" lon="2.58637">
        <ele>106</ele>
        <time>2020-12-10T12:24:58.594Z</time>
      </trkpt>
      <trkpt lat="48.7685" lon="2.58633">
        <ele>106</ele>
        <time>2020-12-10T12:25:03.599Z</time>
      </trkpt>
      <trkpt lat="48.7685" lon="2.58633">
        <ele>106</ele>
        <time>2020-12-10T12:25:08.594Z</time>
      </trkpt>
      <trkpt lat="48.7685" lon="2.58634">
        <ele>106</ele>
        <time>2020-12-10T12:25:13.596Z</time>
      </trkpt>
      <trkpt lat="48.76847" lon="2.58641">
        <ele>106</ele>
        <time>2020-12-10T12:25:18.589Z</time>
      </trkpt>
      <trkpt lat="48.76842" lon="2.58642">
        <ele>106</ele>
        <time>2020-12-10T12:25:23.582Z</time>
      </trkpt>
      <trkpt lat="48.76839" lon="2.5864">
        <ele>106</ele>
        <time>2020-12-10T12:25:28.582Z</time>
      </trkpt>
      <trkpt lat="48.7685" lon="2.58641">
        <ele>106</ele>
        <time>2020-12-10T12:26:11.585Z</time>
      </trkpt>
      <trkpt lat="48.7685" lon="2.58639">
        <ele>106</ele>
        <time>2020-12-10T12:26:16.588Z</time>
      </trkpt>
      <trkpt lat="48.76839" lon="2.58639">
        <ele>106</ele>
        <time>2020-12-10T12:26:21.573Z</time>
      </trkpt>
      <trkpt lat="48.7684" lon="2.58633">
        <ele>106</ele>
        <time>2020-12-10T12:26:26.583Z</time>
      </trkpt>
      <trkpt lat="48.76838" lon="2.58632">
        <ele>106</ele>
        <time>2020-12-10T12:26:31.591Z</time>
      </trkpt>
      <trkpt lat="48.76829" lon="2.58645">
        <ele>106</ele>
        <time>2020-12-10T12:31:21.588Z</time>
      </trkpt>
      <trkpt lat="48.76829" lon="2.58645">
        <ele>106</ele>
        <time>2020-12-10T12:31:25.607Z</time>
      </trkpt>
      <trkpt lat="48.76827" lon="2.58643">
        <ele>106</ele>
        <time>2020-12-10T12:31:30.585Z</time>
      </trkpt>
      <trkpt lat="48.76826" lon="2.58642">
        <ele>106</ele>
        <time>2020-12-10T12:31:35.611Z</time>
      </trkpt>
      <trkpt lat="48.76824" lon="2.58642">
        <ele>106</ele>
        <time>2020-12-10T12:31:40.578Z</time>
      </trkpt>
      <trkpt lat="48.76818" lon="2.58641">
        <ele>107</ele>
        <time>2020-12-10T12:35:15.581Z</time>
      </trkpt>
      <trkpt lat="48.76816" lon="2.58649">
        <ele>107</ele>
        <time>2020-12-10T12:35:20.585Z</time>
      </trkpt>
      <trkpt lat="48.76815" lon="2.58652">
        <ele>107</ele>
        <time>2020-12-10T12:35:25.583Z</time>
      </trkpt>
      <trkpt lat="48.76815" lon="2.58654">
        <ele>107</ele>
        <time>2020-12-10T12:35:30.587Z</time>
      </trkpt>
      <trkpt lat="48.76817" lon="2.58659">
        <ele>107</ele>
        <time>2020-12-10T12:35:35.590Z</time>
      </trkpt>
      <trkpt lat="48.76821" lon="2.58656">
        <ele>106</ele>
        <time>2020-12-10T12:36:30.580Z</time>
      </trkpt>
      <trkpt lat="48.76821" lon="2.58654">
        <ele>106</ele>
        <time>2020-12-10T12:36:35.587Z</time>
      </trkpt>
      <trkpt lat="48.76821" lon="2.5865">
        <ele>106</ele>
        <time>2020-12-10T12:36:40.590Z</time>
      </trkpt>
      <trkpt lat="48.76822" lon="2.5865">
        <ele>106</ele>
        <time>2020-12-10T12:36:45.584Z</time>
      </trkpt>
      <trkpt lat="48.76822" lon="2.58648">
        <ele>106</ele>
        <time>2020-12-10T12:36:50.583Z</time>
      </trkpt>
      <trkpt lat="48.76826" lon="2.58645">
        <ele>106</ele>
        <time>2020-12-10T12:38:18.581Z</time>
      </trkpt>
      <trkpt lat="48.76829" lon="2.58642">
        <ele>106</ele>
        <time>2020-12-10T12:38:23.583Z</time>
      </trkpt>
      <trkpt lat="48.76834" lon="2.58637">
        <ele>106</ele>
        <time>2020-12-10T12:38:28.587Z</time>
      </trkpt>
      <trkpt lat="48.76834" lon="2.58637">
        <ele>106</ele>
        <time>2020-12-10T12:38:33.571Z</time>
      </trkpt>
      <trkpt lat="48.76836" lon="2.58633">
        <ele>106</ele>
        <time>2020-12-10T12:38:38.594Z</time>
      </trkpt>
      <trkpt lat="48.7684" lon="2.58643">
        <ele>106</ele>
        <time>2020-12-10T12:40:07.577Z</time>
      </trkpt>
      <trkpt lat="48.76846" lon="2.58646">
        <ele>106</ele>
        <time>2020-12-10T12:40:12.590Z</time>
      </trkpt>
      <trkpt lat="48.76849" lon="2.58647">
        <ele>106</ele>
        <time>2020-12-10T12:40:17.573Z</time>
      </trkpt>
      <trkpt lat="48.76848" lon="2.58653">
        <ele>106</ele>
        <time>2020-12-10T12:40:22.582Z</time>
      </trkpt>
      <trkpt lat="48.76849" lon="2.58659">
        <ele>106</ele>
        <time>2020-12-10T12:40:27.577Z</time>
      </trkpt>
      <trkpt lat="48.76848" lon="2.58657">
        <ele>106</ele>
        <time>2020-12-10T12:40:37.585Z</time>
      </trkpt>
      <trkpt lat="48.76848" lon="2.58655">
        <ele>106</ele>
        <time>2020-12-10T12:40:42.578Z</time>
      </trkpt>
      <trkpt lat="48.76848" lon="2.58655">
        <ele>106</ele>
        <time>2020-12-10T12:40:47.588Z</time>
      </trkpt>
      <trkpt lat="48.76848" lon="2.58644">
        <ele>106</ele>
        <time>2020-12-10T12:40:52.571Z</time>
      </trkpt>
      <trkpt lat="48.76848" lon="2.58644">
        <ele>106</ele>
        <time>2020-12-10T12:40:57.576Z</time>
      </trkpt>
      <trkpt lat="48.76829" lon="2.58653">
        <ele>106</ele>
        <time>2020-12-10T12:42:11.578Z</time>
      </trkpt>
      <trkpt lat="48.76829" lon="2.58653">
        <ele>106</ele>
        <time>2020-12-10T12:42:16.588Z</time>
      </trkpt>
      <trkpt lat="48.76827" lon="2.58651">
        <ele>106</ele>
        <time>2020-12-10T12:42:21.569Z</time>
      </trkpt>
      <trkpt lat="48.76824" lon="2.58649">
        <ele>106</ele>
        <time>2020-12-10T12:42:25.591Z</time>
      </trkpt>
      <trkpt lat="48.76822" lon="2.58648">
        <ele>106</ele>
        <time>2020-12-10T12:42:30.571Z</time>
      </trkpt>
      <trkpt lat="48.76816" lon="2.58642">
        <ele>107</ele>
        <time>2020-12-10T12:42:45.582Z</time>
      </trkpt>
      <trkpt lat="48.76816" lon="2.58642">
        <ele>107</ele>
        <time>2020-12-10T12:42:50.574Z</time>
      </trkpt>
      <trkpt lat="48.76818" lon="2.58639">
        <ele>107</ele>
        <time>2020-12-10T12:42:55.576Z</time>
      </trkpt>
      <trkpt lat="48.7682" lon="2.58634">
        <ele>106</ele>
        <time>2020-12-10T12:43:00.579Z</time>
      </trkpt>
      <trkpt lat="48.76823" lon="2.5863">
        <ele>106</ele>
        <time>2020-12-10T12:43:05.590Z</time>
      </trkpt>
      <trkpt lat="48.7683" lon="2.58648">
        <ele>106</ele>
        <time>2020-12-10T12:46:16.582Z</time>
      </trkpt>
      <trkpt lat="48.76831" lon="2.58649">
        <ele>106</ele>
        <time>2020-12-10T12:46:21.578Z</time>
      </trkpt>
      <trkpt lat="48.76833" lon="2.58652">
        <ele>106</ele>
        <time>2020-12-10T12:46:26.584Z</time>
      </trkpt>
      <trkpt lat="48.76834" lon="2.58654">
        <ele>106</ele>
        <time>2020-12-10T12:46:31.574Z</time>
      </trkpt>
      <trkpt lat="48.76834" lon="2.58655">
        <ele>106</ele>
        <time>2020-12-10T12:46:36.574Z</time>
      </trkpt>
      <trkpt lat="48.76836" lon="2.58653">
        <ele>106</ele>
        <time>2020-12-10T12:50:52.580Z</time>
      </trkpt>
      <trkpt lat="48.76837" lon="2.58658">
        <ele>106</ele>
        <time>2020-12-10T12:50:57.585Z</time>
      </trkpt>
      <trkpt lat="48.7684" lon="2.5866">
        <ele>106</ele>
        <time>2020-12-10T12:51:02.584Z</time>
      </trkpt>
      <trkpt lat="48.76841" lon="2.58664">
        <ele>106</ele>
        <time>2020-12-10T12:51:07.586Z</time>
      </trkpt>
      <trkpt lat="48.76843" lon="2.5867">
        <ele>106</ele>
        <time>2020-12-10T12:51:12.578Z</time>
      </trkpt>
      <trkpt lat="48.7684" lon="2.58661">
        <ele>106</ele>
        <time>2020-12-10T12:54:36.568Z</time>
      </trkpt>
      <trkpt lat="48.7684" lon="2.58661">
        <ele>106</ele>
        <time>2020-12-10T12:54:40.587Z</time>
      </trkpt>
      <trkpt lat="48.7684" lon="2.58657">
        <ele>106</ele>
        <time>2020-12-10T12:54:45.585Z</time>
      </trkpt>
      <trkpt lat="48.7684" lon="2.58656">
        <ele>106</ele>
        <time>2020-12-10T12:54:50.579Z</time>
      </trkpt>
      <trkpt lat="48.7684" lon="2.58656">
        <ele>106</ele>
        <time>2020-12-10T12:54:55.578Z</time>
      </trkpt>
      <trkpt lat="48.76838" lon="2.58654">
        <ele>106</ele>
        <time>2020-12-10T12:55:40.583Z</time>
      </trkpt>
      <trkpt lat="48.76837" lon="2.5865">
        <ele>106</ele>
        <time>2020-12-10T12:55:45.576Z</time>
      </trkpt>
      <trkpt lat="48.76836" lon="2.5865">
        <ele>106</ele>
        <time>2020-12-10T12:55:50.574Z</time>
      </trkpt>
      <trkpt lat="48.76833" lon="2.58651">
        <ele>106</ele>
        <time>2020-12-10T12:55:55.569Z</time>
      </trkpt>
      <trkpt lat="48.7683" lon="2.58654">
        <ele>106</ele>
        <time>2020-12-10T12:56:00.574Z</time>
      </trkpt>
      <trkpt lat="48.7684" lon="2.5865">
        <ele>106</ele>
        <time>2020-12-10T12:58:46.578Z</time>
      </trkpt>
      <trkpt lat="48.76841" lon="2.58649">
        <ele>106</ele>
        <time>2020-12-10T12:58:51.573Z</time>
      </trkpt>
      <trkpt lat="48.76841" lon="2.58648">
        <ele>106</ele>
        <time>2020-12-10T12:58:56.573Z</time>
      </trkpt>
      <trkpt lat="48.76841" lon="2.58649">
        <ele>106</ele>
        <time>2020-12-10T12:59:01.567Z</time>
      </trkpt>
      <trkpt lat="48.76843" lon="2.5865">
        <ele>106</ele>
        <time>2020-12-10T12:59:06.573Z</time>
      </trkpt>
      <trkpt lat="48.7684" lon="2.58643">
        <ele>106</ele>
        <time>2020-12-10T13:01:41.570Z</time>
      </trkpt>
      <trkpt lat="48.76841" lon="2.58642">
        <ele>106</ele>
        <time>2020-12-10T13:01:46.582Z</time>
      </trkpt>
      <trkpt lat="48.76839" lon="2.5864">
        <ele>106</ele>
        <time>2020-12-10T13:01:51.559Z</time>
      </trkpt>
      <trkpt lat="48.76839" lon="2.58639">
        <ele>106</ele>
        <time>2020-12-10T13:01:55.572Z</time>
      </trkpt>
      <trkpt lat="48.76838" lon="2.58638">
        <ele>106</ele>
        <time>2020-12-10T13:02:00.579Z</time>
      </trkpt>
      <trkpt lat="48.76845" lon="2.58639">
        <ele>106</ele>
        <time>2020-12-10T13:03:43.588Z</time>
      </trkpt>
      <trkpt lat="48.76845" lon="2.5864">
        <ele>106</ele>
        <time>2020-12-10T13:03:48.596Z</time>
      </trkpt>
      <trkpt lat="48.76845" lon="2.58641">
        <ele>106</ele>
        <time>2020-12-10T13:03:53.584Z</time>
      </trkpt>
      <trkpt lat="48.76846" lon="2.5864">
        <ele>106</ele>
        <time>2020-12-10T13:03:58.584Z</time>
      </trkpt>
      <trkpt lat="48.76848" lon="2.58642">
        <ele>106</ele>
        <time>2020-12-10T13:04:03.580Z</time>
      </trkpt>
      <trkpt lat="48.76841" lon="2.58646">
        <ele>106</ele>
        <time>2020-12-10T13:07:26.571Z</time>
      </trkpt>
      <trkpt lat="48.76842" lon="2.58649">
        <ele>106</ele>
        <time>2020-12-10T13:07:31.561Z</time>
      </trkpt>
      <trkpt lat="48.76842" lon="2.58649">
        <ele>106</ele>
        <time>2020-12-10T13:07:35.572Z</time>
      </trkpt>
      <trkpt lat="48.76842" lon="2.58653">
        <ele>106</ele>
        <time>2020-12-10T13:07:40.567Z</time>
      </trkpt>
      <trkpt lat="48.76842" lon="2.58663">
        <ele>106</ele>
        <time>2020-12-10T13:07:45.571Z</time>
      </trkpt>
      <trkpt lat="48.7684" lon="2.58663">
        <ele>106</ele>
        <time>2020-12-10T13:07:50.576Z</time>
      </trkpt>
      <trkpt lat="48.76839" lon="2.58662">
        <ele>106</ele>
        <time>2020-12-10T13:07:55.572Z</time>
      </trkpt>
      <trkpt lat="48.76839" lon="2.5866">
        <ele>106</ele>
        <time>2020-12-10T13:08:00.570Z</time>
      </trkpt>
      <trkpt lat="48.7684" lon="2.58653">
        <ele>106</ele>
        <time>2020-12-10T13:08:05.575Z</time>
      </trkpt>
      <trkpt lat="48.76841" lon="2.58648">
        <ele>106</ele>
        <time>2020-12-10T13:08:10.568Z</time>
      </trkpt>
      <trkpt lat="48.76843" lon="2.58643">
        <ele>106</ele>
        <time>2020-12-10T13:11:07.573Z</time>
      </trkpt>
      <trkpt lat="48.76844" lon="2.58642">
        <ele>106</ele>
        <time>2020-12-10T13:11:12.584Z</time>
      </trkpt>
      <trkpt lat="48.76843" lon="2.58641">
        <ele>106</ele>
        <time>2020-12-10T13:11:17.594Z</time>
      </trkpt>
      <trkpt lat="48.76844" lon="2.58641">
        <ele>106</ele>
        <time>2020-12-10T13:11:22.579Z</time>
      </trkpt>
      <trkpt lat="48.76842" lon="2.58637">
        <ele>106</ele>
        <time>2020-12-10T13:11:27.581Z</time>
      </trkpt>
      <trkpt lat="48.76839" lon="2.58637">
        <ele>106</ele>
        <time>2020-12-10T13:12:06.587Z</time>
      </trkpt>
      <trkpt lat="48.76838" lon="2.58636">
        <ele>106</ele>
        <time>2020-12-10T13:12:11.582Z</time>
      </trkpt>
      <trkpt lat="48.76837" lon="2.58635">
        <ele>106</ele>
        <time>2020-12-10T13:12:16.584Z</time>
      </trkpt>
      <trkpt lat="48.76839" lon="2.58624">
        <ele>107</ele>
        <time>2020-12-10T13:12:21.594Z</time>
      </trkpt>
      <trkpt lat="48.76842" lon="2.58618">
        <ele>107</ele>
        <time>2020-12-10T13:12:26.568Z</time>
      </trkpt>
      <trkpt lat="48.7686" lon="2.58595">
        <ele>106</ele>
        <time>2020-12-10T13:13:06.581Z</time>
      </trkpt>
      <trkpt lat="48.76862" lon="2.58595">
        <ele>106</ele>
        <time>2020-12-10T13:13:11.579Z</time>
      </trkpt>
      <trkpt lat="48.76863" lon="2.58595">
        <ele>106</ele>
        <time>2020-12-10T13:13:16.590Z</time>
      </trkpt>
      <trkpt lat="48.76866" lon="2.58592">
        <ele>106</ele>
        <time>2020-12-10T13:13:21.588Z</time>
      </trkpt>
      <trkpt lat="48.76869" lon="2.58587">
        <ele>106</ele>
        <time>2020-12-10T13:13:26.593Z</time>
      </trkpt>
      <trkpt lat="48.76871" lon="2.5858">
        <ele>106</ele>
        <time>2020-12-10T13:13:31.586Z</time>
      </trkpt>
      <trkpt lat="48.76872" lon="2.58575">
        <ele>106</ele>
        <time>2020-12-10T13:13:36.586Z</time>
      </trkpt>
      <trkpt lat="48.76872" lon="2.58571">
        <ele>106</ele>
        <time>2020-12-10T13:13:41.581Z</time>
      </trkpt>
      <trkpt lat="48.76872" lon="2.58563">
        <ele>107</ele>
        <time>2020-12-10T13:13:46.569Z</time>
      </trkpt>
      <trkpt lat="48.76871" lon="2.58556">
        <ele>107</ele>
        <time>2020-12-10T13:13:51.584Z</time>
      </trkpt>
      <trkpt lat="48.76867" lon="2.58549">
        <ele>107</ele>
        <time>2020-12-10T13:13:56.579Z</time>
      </trkpt>
      <trkpt lat="48.76864" lon="2.58538">
        <ele>107</ele>
        <time>2020-12-10T13:14:01.577Z</time>
      </trkpt>
      <trkpt lat="48.76862" lon="2.58534">
        <ele>107</ele>
        <time>2020-12-10T13:14:06.577Z</time>
      </trkpt>
      <trkpt lat="48.76858" lon="2.58527">
        <ele>107</ele>
        <time>2020-12-10T13:14:11.577Z</time>
      </trkpt>
      <trkpt lat="48.76853" lon="2.5852">
        <ele>107</ele>
        <time>2020-12-10T13:14:16.582Z</time>
      </trkpt>
      <trkpt lat="48.76849" lon="2.58511">
        <ele>109</ele>
        <time>2020-12-10T13:14:21.580Z</time>
      </trkpt>
      <trkpt lat="48.76846" lon="2.58502">
        <ele>108</ele>
        <time>2020-12-10T13:14:26.580Z</time>
      </trkpt>
      <trkpt lat="48.76847" lon="2.58502">
        <ele>108</ele>
        <time>2020-12-10T13:14:31.583Z</time>
      </trkpt>
      <trkpt lat="48.76848" lon="2.58497">
        <ele>109</ele>
        <time>2020-12-10T13:14:36.568Z</time>
      </trkpt>
      <trkpt lat="48.76849" lon="2.58491">
        <ele>109</ele>
        <time>2020-12-10T13:14:41.587Z</time>
      </trkpt>
      <trkpt lat="48.7685" lon="2.58474">
        <ele>110</ele>
        <time>2020-12-10T13:14:46.598Z</time>
      </trkpt>
      <trkpt lat="48.76845" lon="2.58461">
        <ele>108</ele>
        <time>2020-12-10T13:14:51.578Z</time>
      </trkpt>
      <trkpt lat="48.76844" lon="2.58455">
        <ele>107</ele>
        <time>2020-12-10T13:14:55.595Z</time>
      </trkpt>
      <trkpt lat="48.76845" lon="2.58447">
        <ele>107</ele>
        <time>2020-12-10T13:15:00.582Z</time>
      </trkpt>
      <trkpt lat="48.76845" lon="2.5844">
        <ele>107</ele>
        <time>2020-12-10T13:15:05.588Z</time>
      </trkpt>
      <trkpt lat="48.76842" lon="2.58438">
        <ele>107</ele>
        <time>2020-12-10T13:15:10.589Z</time>
      </trkpt>
      <trkpt lat="48.76834" lon="2.58438">
        <ele>107</ele>
        <time>2020-12-10T13:15:15.574Z</time>
      </trkpt>
      <trkpt lat="48.76828" lon="2.58436">
        <ele>107</ele>
        <time>2020-12-10T13:15:20.580Z</time>
      </trkpt>
      <trkpt lat="48.76821" lon="2.58431">
        <ele>107</ele>
        <time>2020-12-10T13:15:25.585Z</time>
      </trkpt>
      <trkpt lat="48.76818" lon="2.58424">
        <ele>106</ele>
        <time>2020-12-10T13:15:30.581Z</time>
      </trkpt>
      <trkpt lat="48.76817" lon="2.5842">
        <ele>106</ele>
        <time>2020-12-10T13:15:35.594Z</time>
      </trkpt>
      <trkpt lat="48.7682" lon="2.5841">
        <ele>107</ele>
        <time>2020-12-10T13:15:40.577Z</time>
      </trkpt>
      <trkpt lat="48.76832" lon="2.58406">
        <ele>107</ele>
        <time>2020-12-10T13:15:45.591Z</time>
      </trkpt>
      <trkpt lat="48.76839" lon="2.58405">
        <ele>107</ele>
        <time>2020-12-10T13:15:50.587Z</time>
      </trkpt>
      <trkpt lat="48.76842" lon="2.58403">
        <ele>107</ele>
        <time>2020-12-10T13:15:55.587Z</time>
      </trkpt>
      <trkpt lat="48.7684" lon="2.58397">
        <ele>107</ele>
        <time>2020-12-10T13:16:00.569Z</time>
      </trkpt>
      <trkpt lat="48.76842" lon="2.58395">
        <ele>107</ele>
        <time>2020-12-10T13:16:04.586Z</time>
      </trkpt>
      <trkpt lat="48.76842" lon="2.58391">
        <ele>107</ele>
        <time>2020-12-10T13:16:09.590Z</time>
      </trkpt>
      <trkpt lat="48.7684" lon="2.58386">
        <ele>107</ele>
        <time>2020-12-10T13:16:14.581Z</time>
      </trkpt>
      <trkpt lat="48.7684" lon="2.58376">
        <ele>107</ele>
        <time>2020-12-10T13:16:19.574Z</time>
      </trkpt>
      <trkpt lat="48.76837" lon="2.58367">
        <ele>108</ele>
        <time>2020-12-10T13:16:24.583Z</time>
      </trkpt>
      <trkpt lat="48.76838" lon="2.58352">
        <ele>108</ele>
        <time>2020-12-10T13:16:29.586Z</time>
      </trkpt>
      <trkpt lat="48.7684" lon="2.58331">
        <ele>108</ele>
        <time>2020-12-10T13:16:34.581Z</time>
      </trkpt>
      <trkpt lat="48.76838" lon="2.58315">
        <ele>109</ele>
        <time>2020-12-10T13:16:39.582Z</time>
      </trkpt>
      <trkpt lat="48.76835" lon="2.58305">
        <ele>109</ele>
        <time>2020-12-10T13:16:44.582Z</time>
      </trkpt>
      <trkpt lat="48.76834" lon="2.5829">
        <ele>109</ele>
        <time>2020-12-10T13:16:49.580Z</time>
      </trkpt>
      <trkpt lat="48.76835" lon="2.58277">
        <ele>109</ele>
        <time>2020-12-10T13:17:03.589Z</time>
      </trkpt>
      <trkpt lat="48.76835" lon="2.58275">
        <ele>109</ele>
        <time>2020-12-10T13:17:08.598Z</time>
      </trkpt>
      <trkpt lat="48.76833" lon="2.58274">
        <ele>109</ele>
        <time>2020-12-10T13:17:13.586Z</time>
      </trkpt>
      <trkpt lat="48.76833" lon="2.5827">
        <ele>109</ele>
        <time>2020-12-10T13:17:18.590Z</time>
      </trkpt>
      <trkpt lat="48.76831" lon="2.58268">
        <ele>109</ele>
        <time>2020-12-10T13:17:23.591Z</time>
      </trkpt>
      <trkpt lat="48.76831" lon="2.58264">
        <ele>109</ele>
        <time>2020-12-10T13:17:28.594Z</time>
      </trkpt>
      <trkpt lat="48.76831" lon="2.58258">
        <ele>109</ele>
        <time>2020-12-10T13:17:33.583Z</time>
      </trkpt>
      <trkpt lat="48.76833" lon="2.5825">
        <ele>109</ele>
        <time>2020-12-10T13:17:38.585Z</time>
      </trkpt>
      <trkpt lat="48.76833" lon="2.58245">
        <ele>109</ele>
        <time>2020-12-10T13:17:43.572Z</time>
      </trkpt>
      <trkpt lat="48.76835" lon="2.58239">
        <ele>109</ele>
        <time>2020-12-10T13:17:48.584Z</time>
      </trkpt>
      <trkpt lat="48.76839" lon="2.58233">
        <ele>109</ele>
        <time>2020-12-10T13:17:53.597Z</time>
      </trkpt>
      <trkpt lat="48.76842" lon="2.58228">
        <ele>109</ele>
        <time>2020-12-10T13:17:58.587Z</time>
      </trkpt>
      <trkpt lat="48.76845" lon="2.58223">
        <ele>109</ele>
        <time>2020-12-10T13:18:03.584Z</time>
      </trkpt>
      <trkpt lat="48.76851" lon="2.58224">
        <ele>112</ele>
        <time>2020-12-10T13:18:08.599Z</time>
      </trkpt>
      <trkpt lat="48.76854" lon="2.5822">
        <ele>112</ele>
        <time>2020-12-10T13:18:13.588Z</time>
      </trkpt>
      <trkpt lat="48.76856" lon="2.58216">
        <ele>112</ele>
        <time>2020-12-10T13:18:18.586Z</time>
      </trkpt>
      <trkpt lat="48.76858" lon="2.58213">
        <ele>112</ele>
        <time>2020-12-10T13:18:22.615Z</time>
      </trkpt>
      <trkpt lat="48.76858" lon="2.58207">
        <ele>111</ele>
        <time>2020-12-10T13:18:27.601Z</time>
      </trkpt>
      <trkpt lat="48.76863" lon="2.58207">
        <ele>111</ele>
        <time>2020-12-10T13:18:32.565Z</time>
      </trkpt>
      <trkpt lat="48.76866" lon="2.58203">
        <ele>111</ele>
        <time>2020-12-10T13:18:37.579Z</time>
      </trkpt>
      <trkpt lat="48.76877" lon="2.58205">
        <ele>113</ele>
        <time>2020-12-10T13:18:42.582Z</time>
      </trkpt>
      <trkpt lat="48.76892" lon="2.58197">
        <ele>113</ele>
        <time>2020-12-10T13:18:47.580Z</time>
      </trkpt>
      <trkpt lat="48.76901" lon="2.58194">
        <ele>113</ele>
        <time>2020-12-10T13:18:52.587Z</time>
      </trkpt>
      <trkpt lat="48.76909" lon="2.58184">
        <ele>113</ele>
        <time>2020-12-10T13:18:57.587Z</time>
      </trkpt>
      <trkpt lat="48.76911" lon="2.58169">
        <ele>113</ele>
        <time>2020-12-10T13:19:02.577Z</time>
      </trkpt>
      <trkpt lat="48.76915" lon="2.58145">
        <ele>112</ele>
        <time>2020-12-10T13:19:07.582Z</time>
      </trkpt>
      <trkpt lat="48.76914" lon="2.58125">
        <ele>112</ele>
        <time>2020-12-10T13:19:12.590Z</time>
      </trkpt>
      <trkpt lat="48.76913" lon="2.58116">
        <ele>111</ele>
        <time>2020-12-10T13:19:17.573Z</time>
      </trkpt>
      <trkpt lat="48.76913" lon="2.58107">
        <ele>111</ele>
        <time>2020-12-10T13:19:22.582Z</time>
      </trkpt>
      <trkpt lat="48.76911" lon="2.58101">
        <ele>111</ele>
        <time>2020-12-10T13:19:27.583Z</time>
      </trkpt>
      <trkpt lat="48.7691" lon="2.58097">
        <ele>110</ele>
        <time>2020-12-10T13:19:32.577Z</time>
      </trkpt>
      <trkpt lat="48.76907" lon="2.58092">
        <ele>110</ele>
        <time>2020-12-10T13:19:37.578Z</time>
      </trkpt>
      <trkpt lat="48.76907" lon="2.58086">
        <ele>110</ele>
        <time>2020-12-10T13:19:42.587Z</time>
      </trkpt>
      <trkpt lat="48.76907" lon="2.58081">
        <ele>110</ele>
        <time>2020-12-10T13:19:47.603Z</time>
      </trkpt>
      <trkpt lat="48.76908" lon="2.58078">
        <ele>110</ele>
        <time>2020-12-10T13:19:52.582Z</time>
      </trkpt>
      <trkpt lat="48.7691" lon="2.58075">
        <ele>110</ele>
        <time>2020-12-10T13:19:57.581Z</time>
      </trkpt>
      <trkpt lat="48.76914" lon="2.58072">
        <ele>110</ele>
        <time>2020-12-10T13:20:02.586Z</time>
      </trkpt>
      <trkpt lat="48.76915" lon="2.5807">
        <ele>110</ele>
        <time>2020-12-10T13:20:07.592Z</time>
      </trkpt>
      <trkpt lat="48.76918" lon="2.58065">
        <ele>109</ele>
        <time>2020-12-10T13:20:12.586Z</time>
      </trkpt>
      <trkpt lat="48.76922" lon="2.58056">
        <ele>109</ele>
        <time>2020-12-10T13:20:17.578Z</time>
      </trkpt>
      <trkpt lat="48.76922" lon="2.58052">
        <ele>109</ele>
        <time>2020-12-10T13:20:22.600Z</time>
      </trkpt>
      <trkpt lat="48.7693" lon="2.58039">
        <ele>109</ele>
        <time>2020-12-10T13:20:27.585Z</time>
      </trkpt>
      <trkpt lat="48.76931" lon="2.58014">
        <ele>108</ele>
        <time>2020-12-10T13:20:32.585Z</time>
      </trkpt>
      <trkpt lat="48.76931" lon="2.58001">
        <ele>108</ele>
        <time>2020-12-10T13:20:37.566Z</time>
      </trkpt>
      <trkpt lat="48.76932" lon="2.57994">
        <ele>108</ele>
        <time>2020-12-10T13:20:41.604Z</time>
      </trkpt>
      <trkpt lat="48.76931" lon="2.57985">
        <ele>108</ele>
        <time>2020-12-10T13:20:46.588Z</time>
      </trkpt>
      <trkpt lat="48.76935" lon="2.57983">
        <ele>108</ele>
        <time>2020-12-10T13:20:51.586Z</time>
      </trkpt>
      <trkpt lat="48.76935" lon="2.5798">
        <ele>108</ele>
        <time>2020-12-10T13:20:56.582Z</time>
      </trkpt>
      <trkpt lat="48.76933" lon="2.57977">
        <ele>108</ele>
        <time>2020-12-10T13:21:01.585Z</time>
      </trkpt>
      <trkpt lat="48.76938" lon="2.57965">
        <ele>108</ele>
        <time>2020-12-10T13:21:06.587Z</time>
      </trkpt>
      <trkpt lat="48.76938" lon="2.57954">
        <ele>109</ele>
        <time>2020-12-10T13:21:11.581Z</time>
      </trkpt>
      <trkpt lat="48.76941" lon="2.57942">
        <ele>109</ele>
        <time>2020-12-10T13:21:16.588Z</time>
      </trkpt>
      <trkpt lat="48.76943" lon="2.57925">
        <ele>109</ele>
        <time>2020-12-10T13:21:21.591Z</time>
      </trkpt>
      <trkpt lat="48.76943" lon="2.57914">
        <ele>109</ele>
        <time>2020-12-10T13:21:26.564Z</time>
      </trkpt>
      <trkpt lat="48.76939" lon="2.57907">
        <ele>109</ele>
        <time>2020-12-10T13:21:31.583Z</time>
      </trkpt>
      <trkpt lat="48.7694" lon="2.57901">
        <ele>110</ele>
        <time>2020-12-10T13:21:36.589Z</time>
      </trkpt>
      <trkpt lat="48.76941" lon="2.57879">
        <ele>110</ele>
        <time>2020-12-10T13:21:41.655Z</time>
      </trkpt>
      <trkpt lat="48.76941" lon="2.57864">
        <ele>109</ele>
        <time>2020-12-10T13:21:46.592Z</time>
      </trkpt>
      <trkpt lat="48.76946" lon="2.57853">
        <ele>109</ele>
        <time>2020-12-10T13:21:51.580Z</time>
      </trkpt>
      <trkpt lat="48.76953" lon="2.57836">
        <ele>109</ele>
        <time>2020-12-10T13:21:56.594Z</time>
      </trkpt>
      <trkpt lat="48.76955" lon="2.57822">
        <ele>109</ele>
        <time>2020-12-10T13:22:01.581Z</time>
      </trkpt>
      <trkpt lat="48.76953" lon="2.57811">
        <ele>110</ele>
        <time>2020-12-10T13:22:06.584Z</time>
      </trkpt>
      <trkpt lat="48.76952" lon="2.57804">
        <ele>110</ele>
        <time>2020-12-10T13:22:11.585Z</time>
      </trkpt>
      <trkpt lat="48.7695" lon="2.57798">
        <ele>110</ele>
        <time>2020-12-10T13:22:16.585Z</time>
      </trkpt>
      <trkpt lat="48.76951" lon="2.57778">
        <ele>110</ele>
        <time>2020-12-10T13:22:21.559Z</time>
      </trkpt>
      <trkpt lat="48.76951" lon="2.57776">
        <ele>110</ele>
        <time>2020-12-10T13:22:25.583Z</time>
      </trkpt>
      <trkpt lat="48.76954" lon="2.57773">
        <ele>110</ele>
        <time>2020-12-10T13:22:30.585Z</time>
      </trkpt>
      <trkpt lat="48.76957" lon="2.57769">
        <ele>110</ele>
        <time>2020-12-10T13:22:35.578Z</time>
      </trkpt>
      <trkpt lat="48.76959" lon="2.57764">
        <ele>109</ele>
        <time>2020-12-10T13:22:40.584Z</time>
      </trkpt>
      <trkpt lat="48.76963" lon="2.57753">
        <ele>110</ele>
        <time>2020-12-10T13:22:44.602Z</time>
      </trkpt>
      <trkpt lat="48.76967" lon="2.57736">
        <ele>110</ele>
        <time>2020-12-10T13:22:49.585Z</time>
      </trkpt>
      <trkpt lat="48.76968" lon="2.57724">
        <ele>109</ele>
        <time>2020-12-10T13:22:54.580Z</time>
      </trkpt>
      <trkpt lat="48.76969" lon="2.57713">
        <ele>109</ele>
        <time>2020-12-10T13:22:59.568Z</time>
      </trkpt>
      <trkpt lat="48.76969" lon="2.57699">
        <ele>109</ele>
        <time>2020-12-10T13:23:04.586Z</time>
      </trkpt>
      <trkpt lat="48.76971" lon="2.57686">
        <ele>109</ele>
        <time>2020-12-10T13:23:09.586Z</time>
      </trkpt>
      <trkpt lat="48.76972" lon="2.57675">
        <ele>109</ele>
        <time>2020-12-10T13:23:14.583Z</time>
      </trkpt>
      <trkpt lat="48.7697" lon="2.5767">
        <ele>109</ele>
        <time>2020-12-10T13:23:19.578Z</time>
      </trkpt>
      <trkpt lat="48.76975" lon="2.57656">
        <ele>109</ele>
        <time>2020-12-10T13:23:24.579Z</time>
      </trkpt>
      <trkpt lat="48.76977" lon="2.57654">
        <ele>109</ele>
        <time>2020-12-10T13:23:29.583Z</time>
      </trkpt>
      <trkpt lat="48.76979" lon="2.57649">
        <ele>109</ele>
        <time>2020-12-10T13:23:34.580Z</time>
      </trkpt>
      <trkpt lat="48.76976" lon="2.57641">
        <ele>109</ele>
        <time>2020-12-10T13:23:39.589Z</time>
      </trkpt>
      <trkpt lat="48.76973" lon="2.57637">
        <ele>109</ele>
        <time>2020-12-10T13:23:44.589Z</time>
      </trkpt>
      <trkpt lat="48.76967" lon="2.57631">
        <ele>109</ele>
        <time>2020-12-10T13:23:49.596Z</time>
      </trkpt>
      <trkpt lat="48.7696" lon="2.57636">
        <ele>109</ele>
        <time>2020-12-10T13:23:54.581Z</time>
      </trkpt>
      <trkpt lat="48.76946" lon="2.57632">
        <ele>109</ele>
        <time>2020-12-10T13:23:59.604Z</time>
      </trkpt>
      <trkpt lat="48.76936" lon="2.57631">
        <ele>109</ele>
        <time>2020-12-10T13:24:04.583Z</time>
      </trkpt>
      <trkpt lat="48.76925" lon="2.57629">
        <ele>108</ele>
        <time>2020-12-10T13:24:09.586Z</time>
      </trkpt>
      <trkpt lat="48.76919" lon="2.57629">
        <ele>108</ele>
        <time>2020-12-10T13:24:14.569Z</time>
      </trkpt>
      <trkpt lat="48.76915" lon="2.57631">
        <ele>108</ele>
        <time>2020-12-10T13:24:18.586Z</time>
      </trkpt>
      <trkpt lat="48.76914" lon="2.57631">
        <ele>108</ele>
        <time>2020-12-10T13:24:23.583Z</time>
      </trkpt>
      <trkpt lat="48.7691" lon="2.57629">
        <ele>108</ele>
        <time>2020-12-10T13:24:28.584Z</time>
      </trkpt>
      <trkpt lat="48.76905" lon="2.57628">
        <ele>108</ele>
        <time>2020-12-10T13:24:33.585Z</time>
      </trkpt>
      <trkpt lat="48.76899" lon="2.57627">
        <ele>107</ele>
        <time>2020-12-10T13:24:38.586Z</time>
      </trkpt>
      <trkpt lat="48.7689" lon="2.57627">
        <ele>107</ele>
        <time>2020-12-10T13:24:43.567Z</time>
      </trkpt>
      <trkpt lat="48.76879" lon="2.57628">
        <ele>107</ele>
        <time>2020-12-10T13:24:48.588Z</time>
      </trkpt>
      <trkpt lat="48.76868" lon="2.57628">
        <ele>107</ele>
        <time>2020-12-10T13:24:53.592Z</time>
      </trkpt>
      <trkpt lat="48.76857" lon="2.57625">
        <ele>107</ele>
        <time>2020-12-10T13:24:58.591Z</time>
      </trkpt>
      <trkpt lat="48.76852" lon="2.57618">
        <ele>106</ele>
        <time>2020-12-10T13:25:03.577Z</time>
      </trkpt>
      <trkpt lat="48.76854" lon="2.57617">
        <ele>106</ele>
        <time>2020-12-10T13:25:08.586Z</time>
      </trkpt>
      <trkpt lat="48.76852" lon="2.57613">
        <ele>106</ele>
        <time>2020-12-10T13:25:13.584Z</time>
      </trkpt>
      <trkpt lat="48.76854" lon="2.57609">
        <ele>106</ele>
        <time>2020-12-10T13:25:18.566Z</time>
      </trkpt>
      <trkpt lat="48.76858" lon="2.57609">
        <ele>106</ele>
        <time>2020-12-10T13:25:22.591Z</time>
      </trkpt>
      <trkpt lat="48.7686" lon="2.57599">
        <ele>106</ele>
        <time>2020-12-10T13:25:27.581Z</time>
      </trkpt>
      <trkpt lat="48.76857" lon="2.57594">
        <ele>106</ele>
        <time>2020-12-10T13:25:32.585Z</time>
      </trkpt>
      <trkpt lat="48.76854" lon="2.57585">
        <ele>106</ele>
        <time>2020-12-10T13:25:37.587Z</time>
      </trkpt>
      <trkpt lat="48.76851" lon="2.57574">
        <ele>106</ele>
        <time>2020-12-10T13:25:42.556Z</time>
      </trkpt>
      <trkpt lat="48.76849" lon="2.57569">
        <ele>106</ele>
        <time>2020-12-10T13:25:46.574Z</time>
      </trkpt>
      <trkpt lat="48.76843" lon="2.57556">
        <ele>108</ele>
        <time>2020-12-10T13:25:51.580Z</time>
      </trkpt>
      <trkpt lat="48.76841" lon="2.57542">
        <ele>108</ele>
        <time>2020-12-10T13:25:56.580Z</time>
      </trkpt>
      <trkpt lat="48.7684" lon="2.57539">
        <ele>108</ele>
        <time>2020-12-10T13:26:01.579Z</time>
      </trkpt>
      <trkpt lat="48.76839" lon="2.57535">
        <ele>108</ele>
        <time>2020-12-10T13:26:06.579Z</time>
      </trkpt>
      <trkpt lat="48.76837" lon="2.57527">
        <ele>108</ele>
        <time>2020-12-10T13:26:11.591Z</time>
      </trkpt>
      <trkpt lat="48.7683" lon="2.57509">
        <ele>108</ele>
        <time>2020-12-10T13:26:16.578Z</time>
      </trkpt>
      <trkpt lat="48.76827" lon="2.57499">
        <ele>108</ele>
        <time>2020-12-10T13:26:20.592Z</time>
      </trkpt>
      <trkpt lat="48.76825" lon="2.57485">
        <ele>108</ele>
        <time>2020-12-10T13:26:25.582Z</time>
      </trkpt>
      <trkpt lat="48.76822" lon="2.57479">
        <ele>108</ele>
        <time>2020-12-10T13:26:30.591Z</time>
      </trkpt>
      <trkpt lat="48.76826" lon="2.57467">
        <ele>108</ele>
        <time>2020-12-10T13:26:35.574Z</time>
      </trkpt>
      <trkpt lat="48.76828" lon="2.5746">
        <ele>108</ele>
        <time>2020-12-10T13:26:40.587Z</time>
      </trkpt>
      <trkpt lat="48.76826" lon="2.57453">
        <ele>107</ele>
        <time>2020-12-10T13:26:45.590Z</time>
      </trkpt>
      <trkpt lat="48.76822" lon="2.57437">
        <ele>107</ele>
        <time>2020-12-10T13:26:50.591Z</time>
      </trkpt>
      <trkpt lat="48.76823" lon="2.57421">
        <ele>105</ele>
        <time>2020-12-10T13:26:55.575Z</time>
      </trkpt>
      <trkpt lat="48.7682" lon="2.57409">
        <ele>105</ele>
        <time>2020-12-10T13:27:00.577Z</time>
      </trkpt>
      <trkpt lat="48.76817" lon="2.57404">
        <ele>107</ele>
        <time>2020-12-10T13:27:05.586Z</time>
      </trkpt>
      <trkpt lat="48.76814" lon="2.57387">
        <ele>106</ele>
        <time>2020-12-10T13:27:10.582Z</time>
      </trkpt>
      <trkpt lat="48.76813" lon="2.57379">
        <ele>106</ele>
        <time>2020-12-10T13:27:15.582Z</time>
      </trkpt>
      <trkpt lat="48.7681" lon="2.57366">
        <ele>105</ele>
        <time>2020-12-10T13:27:20.579Z</time>
      </trkpt>
      <trkpt lat="48.76801" lon="2.57353">
        <ele>105</ele>
        <time>2020-12-10T13:27:25.579Z</time>
      </trkpt>
      <trkpt lat="48.76787" lon="2.57329">
        <ele>105</ele>
        <time>2020-12-10T13:27:45.594Z</time>
      </trkpt>
      <trkpt lat="48.76783" lon="2.57322">
        <ele>105</ele>
        <time>2020-12-10T13:27:50.591Z</time>
      </trkpt>
      <trkpt lat="48.7678" lon="2.5731">
        <ele>105</ele>
        <time>2020-12-10T13:27:55.588Z</time>
      </trkpt>
      <trkpt lat="48.76774" lon="2.57297">
        <ele>105</ele>
        <time>2020-12-10T13:28:00.563Z</time>
      </trkpt>
      <trkpt lat="48.7677" lon="2.57286">
        <ele>106</ele>
        <time>2020-12-10T13:28:05.586Z</time>
      </trkpt>
      <trkpt lat="48.76761" lon="2.57277">
        <ele>105</ele>
        <time>2020-12-10T13:28:10.578Z</time>
      </trkpt>
      <trkpt lat="48.76756" lon="2.57267">
        <ele>105</ele>
        <time>2020-12-10T13:28:15.579Z</time>
      </trkpt>
      <trkpt lat="48.76752" lon="2.5726">
        <ele>105</ele>
        <time>2020-12-10T13:28:20.585Z</time>
      </trkpt>
      <trkpt lat="48.7675" lon="2.57254">
        <ele>105</ele>
        <time>2020-12-10T13:28:25.578Z</time>
      </trkpt>
      <trkpt lat="48.76746" lon="2.5724">
        <ele>105</ele>
        <time>2020-12-10T13:28:30.578Z</time>
      </trkpt>
      <trkpt lat="48.76742" lon="2.57229">
        <ele>105</ele>
        <time>2020-12-10T13:28:35.585Z</time>
      </trkpt>
      <trkpt lat="48.7674" lon="2.57222">
        <ele>105</ele>
        <time>2020-12-10T13:28:40.596Z</time>
      </trkpt>
      <trkpt lat="48.76739" lon="2.57217">
        <ele>105</ele>
        <time>2020-12-10T13:28:45.570Z</time>
      </trkpt>
      <trkpt lat="48.76735" lon="2.57209">
        <ele>105</ele>
        <time>2020-12-10T13:28:50.562Z</time>
      </trkpt>
      <trkpt lat="48.76731" lon="2.57203">
        <ele>106</ele>
        <time>2020-12-10T13:28:54.579Z</time>
      </trkpt>
      <trkpt lat="48.76724" lon="2.57195">
        <ele>106</ele>
        <time>2020-12-10T13:28:59.579Z</time>
      </trkpt>
      <trkpt lat="48.76718" lon="2.57186">
        <ele>106</ele>
        <time>2020-12-10T13:29:04.586Z</time>
      </trkpt>
      <trkpt lat="48.76717" lon="2.57181">
        <ele>106</ele>
        <time>2020-12-10T13:29:09.586Z</time>
      </trkpt>
      <trkpt lat="48.76711" lon="2.57176">
        <ele>106</ele>
        <time>2020-12-10T13:29:14.579Z</time>
      </trkpt>
      <trkpt lat="48.76707" lon="2.57171">
        <ele>106</ele>
        <time>2020-12-10T13:29:19.580Z</time>
      </trkpt>
      <trkpt lat="48.76703" lon="2.57164">
        <ele>106</ele>
        <time>2020-12-10T13:29:24.571Z</time>
      </trkpt>
      <trkpt lat="48.76703" lon="2.57152">
        <ele>106</ele>
        <time>2020-12-10T13:29:29.584Z</time>
      </trkpt>
      <trkpt lat="48.76699" lon="2.57137">
        <ele>106</ele>
        <time>2020-12-10T13:29:34.583Z</time>
      </trkpt>
      <trkpt lat="48.76693" lon="2.57129">
        <ele>106</ele>
        <time>2020-12-10T13:29:39.587Z</time>
      </trkpt>
      <trkpt lat="48.7669" lon="2.57116">
        <ele>105</ele>
        <time>2020-12-10T13:29:44.584Z</time>
      </trkpt>
      <trkpt lat="48.76687" lon="2.57105">
        <ele>105</ele>
        <time>2020-12-10T13:29:49.584Z</time>
      </trkpt>
      <trkpt lat="48.76688" lon="2.57093">
        <ele>105</ele>
        <time>2020-12-10T13:29:54.584Z</time>
      </trkpt>
      <trkpt lat="48.76685" lon="2.57075">
        <ele>105</ele>
        <time>2020-12-10T13:29:59.579Z</time>
      </trkpt>
      <trkpt lat="48.76682" lon="2.57066">
        <ele>105</ele>
        <time>2020-12-10T13:30:04.580Z</time>
      </trkpt>
      <trkpt lat="48.76681" lon="2.57061">
        <ele>105</ele>
        <time>2020-12-10T13:30:09.585Z</time>
      </trkpt>
      <trkpt lat="48.76673" lon="2.57054">
        <ele>105</ele>
        <time>2020-12-10T13:30:14.585Z</time>
      </trkpt>
      <trkpt lat="48.7667" lon="2.57049">
        <ele>105</ele>
        <time>2020-12-10T13:30:19.577Z</time>
      </trkpt>
      <trkpt lat="48.76669" lon="2.57045">
        <ele>105</ele>
        <time>2020-12-10T13:30:24.577Z</time>
      </trkpt>
      <trkpt lat="48.76669" lon="2.57036">
        <ele>106</ele>
        <time>2020-12-10T13:30:29.590Z</time>
      </trkpt>
      <trkpt lat="48.76671" lon="2.57023">
        <ele>106</ele>
        <time>2020-12-10T13:30:34.578Z</time>
      </trkpt>
      <trkpt lat="48.7667" lon="2.57008">
        <ele>107</ele>
        <time>2020-12-10T13:30:39.590Z</time>
      </trkpt>
      <trkpt lat="48.76668" lon="2.56991">
        <ele>107</ele>
        <time>2020-12-10T13:30:44.596Z</time>
      </trkpt>
      <trkpt lat="48.7665" lon="2.56975">
        <ele>107</ele>
        <time>2020-12-10T13:31:04.579Z</time>
      </trkpt>
      <trkpt lat="48.76644" lon="2.5698">
        <ele>107</ele>
        <time>2020-12-10T13:31:09.576Z</time>
      </trkpt>
      <trkpt lat="48.76641" lon="2.56984">
        <ele>107</ele>
        <time>2020-12-10T13:31:14.579Z</time>
      </trkpt>
      <trkpt lat="48.76639" lon="2.56986">
        <ele>107</ele>
        <time>2020-12-10T13:31:19.588Z</time>
      </trkpt>
      <trkpt lat="48.76637" lon="2.56987">
        <ele>106</ele>
        <time>2020-12-10T13:31:24.587Z</time>
      </trkpt>
      <trkpt lat="48.76633" lon="2.56986">
        <ele>107</ele>
        <time>2020-12-10T13:31:28.605Z</time>
      </trkpt>
      <trkpt lat="48.7663" lon="2.56989">
        <ele>106</ele>
        <time>2020-12-10T13:31:33.594Z</time>
      </trkpt>
      <trkpt lat="48.76627" lon="2.56998">
        <ele>106</ele>
        <time>2020-12-10T13:31:38.592Z</time>
      </trkpt>
      <trkpt lat="48.76626" lon="2.57004">
        <ele>106</ele>
        <time>2020-12-10T13:31:43.590Z</time>
      </trkpt>
      <trkpt lat="48.76623" lon="2.57012">
        <ele>106</ele>
        <time>2020-12-10T13:31:48.591Z</time>
      </trkpt>
      <trkpt lat="48.76617" lon="2.57018">
        <ele>105</ele>
        <time>2020-12-10T13:31:53.588Z</time>
      </trkpt>
      <trkpt lat="48.76609" lon="2.57023">
        <ele>105</ele>
        <time>2020-12-10T13:31:58.584Z</time>
      </trkpt>
      <trkpt lat="48.76605" lon="2.57029">
        <ele>105</ele>
        <time>2020-12-10T13:32:03.571Z</time>
      </trkpt>
      <trkpt lat="48.766" lon="2.57039">
        <ele>105</ele>
        <time>2020-12-10T13:32:08.593Z</time>
      </trkpt>
      <trkpt lat="48.76593" lon="2.57045">
        <ele>105</ele>
        <time>2020-12-10T13:32:13.591Z</time>
      </trkpt>
      <trkpt lat="48.7659" lon="2.57051">
        <ele>105</ele>
        <time>2020-12-10T13:32:17.608Z</time>
      </trkpt>
      <trkpt lat="48.76586" lon="2.57058">
        <ele>105</ele>
        <time>2020-12-10T13:32:22.601Z</time>
      </trkpt>
      <trkpt lat="48.76584" lon="2.57067">
        <ele>105</ele>
        <time>2020-12-10T13:32:27.592Z</time>
      </trkpt>
      <trkpt lat="48.76579" lon="2.57071">
        <ele>104</ele>
        <time>2020-12-10T13:32:32.582Z</time>
      </trkpt>
      <trkpt lat="48.76574" lon="2.5708">
        <ele>104</ele>
        <time>2020-12-10T13:32:37.594Z</time>
      </trkpt>
      <trkpt lat="48.7657" lon="2.57088">
        <ele>104</ele>
        <time>2020-12-10T13:32:42.592Z</time>
      </trkpt>
      <trkpt lat="48.76565" lon="2.57096">
        <ele>104</ele>
        <time>2020-12-10T13:32:47.588Z</time>
      </trkpt>
      <trkpt lat="48.76561" lon="2.57112">
        <ele>103</ele>
        <time>2020-12-10T13:32:52.593Z</time>
      </trkpt>
      <trkpt lat="48.76557" lon="2.5712">
        <ele>103</ele>
        <time>2020-12-10T13:32:57.586Z</time>
      </trkpt>
      <trkpt lat="48.76555" lon="2.57126">
        <ele>103</ele>
        <time>2020-12-10T13:33:02.583Z</time>
      </trkpt>
      <trkpt lat="48.76551" lon="2.57135">
        <ele>103</ele>
        <time>2020-12-10T13:33:07.597Z</time>
      </trkpt>
      <trkpt lat="48.76547" lon="2.57143">
        <ele>103</ele>
        <time>2020-12-10T13:33:12.594Z</time>
      </trkpt>
      <trkpt lat="48.76543" lon="2.57147">
        <ele>103</ele>
        <time>2020-12-10T13:33:17.600Z</time>
      </trkpt>
      <trkpt lat="48.76538" lon="2.57155">
        <ele>103</ele>
        <time>2020-12-10T13:33:22.588Z</time>
      </trkpt>
      <trkpt lat="48.76535" lon="2.57164">
        <ele>103</ele>
        <time>2020-12-10T13:33:27.586Z</time>
      </trkpt>
      <trkpt lat="48.76531" lon="2.57174">
        <ele>103</ele>
        <time>2020-12-10T13:33:32.598Z</time>
      </trkpt>
      <trkpt lat="48.76527" lon="2.57184">
        <ele>103</ele>
        <time>2020-12-10T13:33:37.588Z</time>
      </trkpt>
      <trkpt lat="48.7652" lon="2.57193">
        <ele>103</ele>
        <time>2020-12-10T13:33:42.585Z</time>
      </trkpt>
      <trkpt lat="48.76515" lon="2.57204">
        <ele>103</ele>
        <time>2020-12-10T13:33:47.589Z</time>
      </trkpt>
      <trkpt lat="48.7651" lon="2.57214">
        <ele>102</ele>
        <time>2020-12-10T13:33:52.582Z</time>
      </trkpt>
      <trkpt lat="48.76507" lon="2.57223">
        <ele>102</ele>
        <time>2020-12-10T13:33:57.570Z</time>
      </trkpt>
      <trkpt lat="48.76503" lon="2.5723">
        <ele>102</ele>
        <time>2020-12-10T13:34:02.578Z</time>
      </trkpt>
      <trkpt lat="48.76498" lon="2.57236">
        <ele>102</ele>
        <time>2020-12-10T13:34:07.580Z</time>
      </trkpt>
      <trkpt lat="48.76492" lon="2.57247">
        <ele>102</ele>
        <time>2020-12-10T13:34:12.564Z</time>
      </trkpt>
      <trkpt lat="48.76487" lon="2.57253">
        <ele>102</ele>
        <time>2020-12-10T13:34:17.582Z</time>
      </trkpt>
      <trkpt lat="48.76483" lon="2.57259">
        <ele>102</ele>
        <time>2020-12-10T13:34:22.572Z</time>
      </trkpt>
      <trkpt lat="48.76481" lon="2.57267">
        <ele>102</ele>
        <time>2020-12-10T13:34:26.583Z</time>
      </trkpt>
      <trkpt lat="48.76477" lon="2.57276">
        <ele>102</ele>
        <time>2020-12-10T13:34:31.576Z</time>
      </trkpt>
      <trkpt lat="48.76473" lon="2.57279">
        <ele>102</ele>
        <time>2020-12-10T13:34:35.588Z</time>
      </trkpt>
      <trkpt lat="48.76468" lon="2.57289">
        <ele>102</ele>
        <time>2020-12-10T13:34:40.579Z</time>
      </trkpt>
      <trkpt lat="48.76462" lon="2.57301">
        <ele>102</ele>
        <time>2020-12-10T13:34:45.602Z</time>
      </trkpt>
      <trkpt lat="48.76458" lon="2.57309">
        <ele>104</ele>
        <time>2020-12-10T13:34:50.586Z</time>
      </trkpt>
      <trkpt lat="48.76454" lon="2.57316">
        <ele>104</ele>
        <time>2020-12-10T13:34:55.590Z</time>
      </trkpt>
      <trkpt lat="48.76448" lon="2.5733">
        <ele>104</ele>
        <time>2020-12-10T13:35:00.590Z</time>
      </trkpt>
      <trkpt lat="48.76444" lon="2.57338">
        <ele>104</ele>
        <time>2020-12-10T13:35:05.584Z</time>
      </trkpt>
      <trkpt lat="48.76438" lon="2.57347">
        <ele>104</ele>
        <time>2020-12-10T13:35:10.584Z</time>
      </trkpt>
      <trkpt lat="48.76434" lon="2.57356">
        <ele>104</ele>
        <time>2020-12-10T13:35:15.585Z</time>
      </trkpt>
      <trkpt lat="48.76427" lon="2.57363">
        <ele>105</ele>
        <time>2020-12-10T13:35:20.580Z</time>
      </trkpt>
      <trkpt lat="48.76423" lon="2.57368">
        <ele>105</ele>
        <time>2020-12-10T13:35:25.588Z</time>
      </trkpt>
      <trkpt lat="48.7642" lon="2.57372">
        <ele>105</ele>
        <time>2020-12-10T13:35:30.583Z</time>
      </trkpt>
      <trkpt lat="48.76414" lon="2.57383">
        <ele>105</ele>
        <time>2020-12-10T13:35:35.589Z</time>
      </trkpt>
      <trkpt lat="48.76409" lon="2.57391">
        <ele>105</ele>
        <time>2020-12-10T13:35:40.578Z</time>
      </trkpt>
      <trkpt lat="48.76405" lon="2.574">
        <ele>105</ele>
        <time>2020-12-10T13:35:45.585Z</time>
      </trkpt>
      <trkpt lat="48.76402" lon="2.57408">
        <ele>106</ele>
        <time>2020-12-10T13:35:50.580Z</time>
      </trkpt>
      <trkpt lat="48.76398" lon="2.57416">
        <ele>106</ele>
        <time>2020-12-10T13:35:55.569Z</time>
      </trkpt>
      <trkpt lat="48.76393" lon="2.57426">
        <ele>106</ele>
        <time>2020-12-10T13:36:00.584Z</time>
      </trkpt>
      <trkpt lat="48.76387" lon="2.57435">
        <ele>106</ele>
        <time>2020-12-10T13:36:05.589Z</time>
      </trkpt>
      <trkpt lat="48.76385" lon="2.57442">
        <ele>106</ele>
        <time>2020-12-10T13:36:10.586Z</time>
      </trkpt>
      <trkpt lat="48.76378" lon="2.57451">
        <ele>106</ele>
        <time>2020-12-10T13:36:15.592Z</time>
      </trkpt>
      <trkpt lat="48.76374" lon="2.57458">
        <ele>106</ele>
        <time>2020-12-10T13:36:20.583Z</time>
      </trkpt>
      <trkpt lat="48.7637" lon="2.57463">
        <ele>106</ele>
        <time>2020-12-10T13:36:25.574Z</time>
      </trkpt>
      <trkpt lat="48.76366" lon="2.57472">
        <ele>106</ele>
        <time>2020-12-10T13:36:30.582Z</time>
      </trkpt>
      <trkpt lat="48.76363" lon="2.57479">
        <ele>106</ele>
        <time>2020-12-10T13:36:35.598Z</time>
      </trkpt>
      <trkpt lat="48.7636" lon="2.57489">
        <ele>106</ele>
        <time>2020-12-10T13:36:40.575Z</time>
      </trkpt>
      <trkpt lat="48.76354" lon="2.57498">
        <ele>106</ele>
        <time>2020-12-10T13:36:45.585Z</time>
      </trkpt>
      <trkpt lat="48.76349" lon="2.57509">
        <ele>106</ele>
        <time>2020-12-10T13:36:50.568Z</time>
      </trkpt>
      <trkpt lat="48.76343" lon="2.57522">
        <ele>105</ele>
        <time>2020-12-10T13:36:55.591Z</time>
      </trkpt>
      <trkpt lat="48.76339" lon="2.57527">
        <ele>105</ele>
        <time>2020-12-10T13:37:00.587Z</time>
      </trkpt>
      <trkpt lat="48.76335" lon="2.57537">
        <ele>105</ele>
        <time>2020-12-10T13:37:05.586Z</time>
      </trkpt>
      <trkpt lat="48.76332" lon="2.57542">
        <ele>104</ele>
        <time>2020-12-10T13:37:10.587Z</time>
      </trkpt>
      <trkpt lat="48.76329" lon="2.5755">
        <ele>104</ele>
        <time>2020-12-10T13:37:15.596Z</time>
      </trkpt>
      <trkpt lat="48.76325" lon="2.57558">
        <ele>104</ele>
        <time>2020-12-10T13:37:20.578Z</time>
      </trkpt>
      <trkpt lat="48.76322" lon="2.57564">
        <ele>104</ele>
        <time>2020-12-10T13:37:25.597Z</time>
      </trkpt>
      <trkpt lat="48.76318" lon="2.57575">
        <ele>104</ele>
        <time>2020-12-10T13:37:30.577Z</time>
      </trkpt>
      <trkpt lat="48.76316" lon="2.57578">
        <ele>104</ele>
        <time>2020-12-10T13:37:35.606Z</time>
      </trkpt>
      <trkpt lat="48.76313" lon="2.57581">
        <ele>104</ele>
        <time>2020-12-10T13:37:40.583Z</time>
      </trkpt>
      <trkpt lat="48.76308" lon="2.5759">
        <ele>104</ele>
        <time>2020-12-10T13:37:45.587Z</time>
      </trkpt>
      <trkpt lat="48.76301" lon="2.57606">
        <ele>104</ele>
        <time>2020-12-10T13:37:50.572Z</time>
      </trkpt>
      <trkpt lat="48.76296" lon="2.57616">
        <ele>104</ele>
        <time>2020-12-10T13:37:55.599Z</time>
      </trkpt>
      <trkpt lat="48.76291" lon="2.57622">
        <ele>104</ele>
        <time>2020-12-10T13:38:00.588Z</time>
      </trkpt>
      <trkpt lat="48.76286" lon="2.57628">
        <ele>105</ele>
        <time>2020-12-10T13:38:05.596Z</time>
      </trkpt>
      <trkpt lat="48.76279" lon="2.57639">
        <ele>105</ele>
        <time>2020-12-10T13:38:10.588Z</time>
      </trkpt>
      <trkpt lat="48.76275" lon="2.57647">
        <ele>105</ele>
        <time>2020-12-10T13:38:15.596Z</time>
      </trkpt>
      <trkpt lat="48.7627" lon="2.57653">
        <ele>104</ele>
        <time>2020-12-10T13:38:20.575Z</time>
      </trkpt>
      <trkpt lat="48.76266" lon="2.57659">
        <ele>104</ele>
        <time>2020-12-10T13:38:25.598Z</time>
      </trkpt>
      <trkpt lat="48.76263" lon="2.57666">
        <ele>104</ele>
        <time>2020-12-10T13:38:30.576Z</time>
      </trkpt>
      <trkpt lat="48.76258" lon="2.57677">
        <ele>104</ele>
        <time>2020-12-10T13:38:35.584Z</time>
      </trkpt>
      <trkpt lat="48.76252" lon="2.57686">
        <ele>104</ele>
        <time>2020-12-10T13:38:40.578Z</time>
      </trkpt>
      <trkpt lat="48.76249" lon="2.57693">
        <ele>104</ele>
        <time>2020-12-10T13:38:45.591Z</time>
      </trkpt>
      <trkpt lat="48.76247" lon="2.57699">
        <ele>104</ele>
        <time>2020-12-10T13:38:50.576Z</time>
      </trkpt>
      <trkpt lat="48.76239" lon="2.57703">
        <ele>104</ele>
        <time>2020-12-10T13:38:55.595Z</time>
      </trkpt>
      <trkpt lat="48.76235" lon="2.57709">
        <ele>105</ele>
        <time>2020-12-10T13:39:00.582Z</time>
      </trkpt>
      <trkpt lat="48.76229" lon="2.57709">
        <ele>105</ele>
        <time>2020-12-10T13:39:05.590Z</time>
      </trkpt>
      <trkpt lat="48.76222" lon="2.57714">
        <ele>105</ele>
        <time>2020-12-10T13:39:10.584Z</time>
      </trkpt>
      <trkpt lat="48.76215" lon="2.57718">
        <ele>105</ele>
        <time>2020-12-10T13:39:15.584Z</time>
      </trkpt>
      <trkpt lat="48.76213" lon="2.57724">
        <ele>105</ele>
        <time>2020-12-10T13:39:20.572Z</time>
      </trkpt>
      <trkpt lat="48.76208" lon="2.57718">
        <ele>105</ele>
        <time>2020-12-10T13:39:43.595Z</time>
      </trkpt>
      <trkpt lat="48.76204" lon="2.57716">
        <ele>105</ele>
        <time>2020-12-10T13:39:48.587Z</time>
      </trkpt>
      <trkpt lat="48.76202" lon="2.57714">
        <ele>105</ele>
        <time>2020-12-10T13:39:53.592Z</time>
      </trkpt>
      <trkpt lat="48.76201" lon="2.57714">
        <ele>105</ele>
        <time>2020-12-10T13:39:58.580Z</time>
      </trkpt>
      <trkpt lat="48.76198" lon="2.57711">
        <ele>105</ele>
        <time>2020-12-10T13:40:03.583Z</time>
      </trkpt>
      <trkpt lat="48.76195" lon="2.57713">
        <ele>105</ele>
        <time>2020-12-10T13:40:08.583Z</time>
      </trkpt>
      <trkpt lat="48.76184" lon="2.57711">
        <ele>105</ele>
        <time>2020-12-10T13:40:13.587Z</time>
      </trkpt>
      <trkpt lat="48.76179" lon="2.57714">
        <ele>105</ele>
        <time>2020-12-10T13:40:18.581Z</time>
      </trkpt>
      <trkpt lat="48.76177" lon="2.57717">
        <ele>105</ele>
        <time>2020-12-10T13:40:23.597Z</time>
      </trkpt>
      <trkpt lat="48.76167" lon="2.57721">
        <ele>105</ele>
        <time>2020-12-10T13:40:28.564Z</time>
      </trkpt>
      <trkpt lat="48.76155" lon="2.57729">
        <ele>105</ele>
        <time>2020-12-10T13:40:33.587Z</time>
      </trkpt>
      <trkpt lat="48.76144" lon="2.57731">
        <ele>104</ele>
        <time>2020-12-10T13:40:38.585Z</time>
      </trkpt>
      <trkpt lat="48.76141" lon="2.57733">
        <ele>104</ele>
        <time>2020-12-10T13:40:43.591Z</time>
      </trkpt>
      <trkpt lat="48.76139" lon="2.57736">
        <ele>104</ele>
        <time>2020-12-10T13:40:48.571Z</time>
      </trkpt>
      <trkpt lat="48.76139" lon="2.57737">
        <ele>104</ele>
        <time>2020-12-10T13:40:53.579Z</time>
      </trkpt>
      <trkpt lat="48.76134" lon="2.57734">
        <ele>104</ele>
        <time>2020-12-10T13:40:57.592Z</time>
      </trkpt>
      <trkpt lat="48.76127" lon="2.57735">
        <ele>104</ele>
        <time>2020-12-10T13:41:02.584Z</time>
      </trkpt>
      <trkpt lat="48.76117" lon="2.57739">
        <ele>104</ele>
        <time>2020-12-10T13:41:07.585Z</time>
      </trkpt>
      <trkpt lat="48.76108" lon="2.57746">
        <ele>104</ele>
        <time>2020-12-10T13:41:12.571Z</time>
      </trkpt>
      <trkpt lat="48.76098" lon="2.57754">
        <ele>104</ele>
        <time>2020-12-10T13:41:17.587Z</time>
      </trkpt>
      <trkpt lat="48.76087" lon="2.57753">
        <ele>105</ele>
        <time>2020-12-10T13:41:22.573Z</time>
      </trkpt>
      <trkpt lat="48.76081" lon="2.57751">
        <ele>105</ele>
        <time>2020-12-10T13:41:27.581Z</time>
      </trkpt>
      <trkpt lat="48.76075" lon="2.57759">
        <ele>105</ele>
        <time>2020-12-10T13:41:32.579Z</time>
      </trkpt>
      <trkpt lat="48.76072" lon="2.57758">
        <ele>105</ele>
        <time>2020-12-10T13:41:37.595Z</time>
      </trkpt>
      <trkpt lat="48.76067" lon="2.57759">
        <ele>104</ele>
        <time>2020-12-10T13:41:42.588Z</time>
      </trkpt>
      <trkpt lat="48.76063" lon="2.57759">
        <ele>104</ele>
        <time>2020-12-10T13:41:47.563Z</time>
      </trkpt>
      <trkpt lat="48.76053" lon="2.5776">
        <ele>104</ele>
        <time>2020-12-10T13:41:52.574Z</time>
      </trkpt>
      <trkpt lat="48.76045" lon="2.57764">
        <ele>104</ele>
        <time>2020-12-10T13:41:57.565Z</time>
      </trkpt>
      <trkpt lat="48.76038" lon="2.57771">
        <ele>101</ele>
        <time>2020-12-10T13:42:02.561Z</time>
      </trkpt>
      <trkpt lat="48.76031" lon="2.57778">
        <ele>101</ele>
        <time>2020-12-10T13:42:07.562Z</time>
      </trkpt>
      <trkpt lat="48.76026" lon="2.57779">
        <ele>101</ele>
        <time>2020-12-10T13:42:11.580Z</time>
      </trkpt>
      <trkpt lat="48.76019" lon="2.57785">
        <ele>101</ele>
        <time>2020-12-10T13:42:16.572Z</time>
      </trkpt>
      <trkpt lat="48.76007" lon="2.57783">
        <ele>101</ele>
        <time>2020-12-10T13:42:21.574Z</time>
      </trkpt>
      <trkpt lat="48.76001" lon="2.57788">
        <ele>101</ele>
        <time>2020-12-10T13:42:26.567Z</time>
      </trkpt>
      <trkpt lat="48.75997" lon="2.57789">
        <ele>101</ele>
        <time>2020-12-10T13:42:30.584Z</time>
      </trkpt>
      <trkpt lat="48.75988" lon="2.5779">
        <ele>101</ele>
        <time>2020-12-10T13:42:35.588Z</time>
      </trkpt>
      <trkpt lat="48.75977" lon="2.57791">
        <ele>103</ele>
        <time>2020-12-10T13:42:40.565Z</time>
      </trkpt>
      <trkpt lat="48.75975" lon="2.5779">
        <ele>103</ele>
        <time>2020-12-10T13:42:45.578Z</time>
      </trkpt>
      <trkpt lat="48.7597" lon="2.5779">
        <ele>103</ele>
        <time>2020-12-10T13:42:50.570Z</time>
      </trkpt>
      <trkpt lat="48.75967" lon="2.57792">
        <ele>103</ele>
        <time>2020-12-10T13:42:54.595Z</time>
      </trkpt>
      <trkpt lat="48.75959" lon="2.57792">
        <ele>103</ele>
        <time>2020-12-10T13:42:59.570Z</time>
      </trkpt>
      <trkpt lat="48.75954" lon="2.57794">
        <ele>103</ele>
        <time>2020-12-10T13:43:03.586Z</time>
      </trkpt>
      <trkpt lat="48.75949" lon="2.57797">
        <ele>103</ele>
        <time>2020-12-10T13:43:08.576Z</time>
      </trkpt>
      <trkpt lat="48.7594" lon="2.57798">
        <ele>103</ele>
        <time>2020-12-10T13:43:13.600Z</time>
      </trkpt>
      <trkpt lat="48.75938" lon="2.57797">
        <ele>103</ele>
        <time>2020-12-10T13:43:18.581Z</time>
      </trkpt>
      <trkpt lat="48.7593" lon="2.57801">
        <ele>104</ele>
        <time>2020-12-10T13:43:23.582Z</time>
      </trkpt>
      <trkpt lat="48.75922" lon="2.57804">
        <ele>104</ele>
        <time>2020-12-10T13:43:28.577Z</time>
      </trkpt>
      <trkpt lat="48.75914" lon="2.57804">
        <ele>104</ele>
        <time>2020-12-10T13:43:33.596Z</time>
      </trkpt>
      <trkpt lat="48.75903" lon="2.5781">
        <ele>104</ele>
        <time>2020-12-10T13:43:38.577Z</time>
      </trkpt>
      <trkpt lat="48.75899" lon="2.57811">
        <ele>104</ele>
        <time>2020-12-10T13:43:43.582Z</time>
      </trkpt>
      <trkpt lat="48.75888" lon="2.57818">
        <ele>104</ele>
        <time>2020-12-10T13:43:48.581Z</time>
      </trkpt>
      <trkpt lat="48.75878" lon="2.5783">
        <ele>103</ele>
        <time>2020-12-10T13:43:53.590Z</time>
      </trkpt>
      <trkpt lat="48.75874" lon="2.5783">
        <ele>105</ele>
        <time>2020-12-10T13:43:58.576Z</time>
      </trkpt>
      <trkpt lat="48.75866" lon="2.57835">
        <ele>105</ele>
        <time>2020-12-10T13:44:03.579Z</time>
      </trkpt>
      <trkpt lat="48.75859" lon="2.57836">
        <ele>105</ele>
        <time>2020-12-10T13:44:08.577Z</time>
      </trkpt>
      <trkpt lat="48.75853" lon="2.57838">
        <ele>105</ele>
        <time>2020-12-10T13:44:13.572Z</time>
      </trkpt>
      <trkpt lat="48.75845" lon="2.57839">
        <ele>106</ele>
        <time>2020-12-10T13:44:18.576Z</time>
      </trkpt>
      <trkpt lat="48.7584" lon="2.57838">
        <ele>106</ele>
        <time>2020-12-10T13:44:23.597Z</time>
      </trkpt>
      <trkpt lat="48.75833" lon="2.57843">
        <ele>106</ele>
        <time>2020-12-10T13:44:28.575Z</time>
      </trkpt>
      <trkpt lat="48.75825" lon="2.57842">
        <ele>106</ele>
        <time>2020-12-10T13:44:33.565Z</time>
      </trkpt>
      <trkpt lat="48.75821" lon="2.57846">
        <ele>106</ele>
        <time>2020-12-10T13:44:37.580Z</time>
      </trkpt>
      <trkpt lat="48.75814" lon="2.57848">
        <ele>105</ele>
        <time>2020-12-10T13:44:42.572Z</time>
      </trkpt>
      <trkpt lat="48.75813" lon="2.57852">
        <ele>105</ele>
        <time>2020-12-10T13:44:47.573Z</time>
      </trkpt>
      <trkpt lat="48.75806" lon="2.57853">
        <ele>105</ele>
        <time>2020-12-10T13:44:52.564Z</time>
      </trkpt>
      <trkpt lat="48.75792" lon="2.57861">
        <ele>105</ele>
        <time>2020-12-10T13:44:57.590Z</time>
      </trkpt>
      <trkpt lat="48.75779" lon="2.57869">
        <ele>104</ele>
        <time>2020-12-10T13:45:02.568Z</time>
      </trkpt>
      <trkpt lat="48.75771" lon="2.57872">
        <ele>104</ele>
        <time>2020-12-10T13:45:07.616Z</time>
      </trkpt>
      <trkpt lat="48.75763" lon="2.57873">
        <ele>105</ele>
        <time>2020-12-10T13:45:12.566Z</time>
      </trkpt>
      <trkpt lat="48.75757" lon="2.57874">
        <ele>105</ele>
        <time>2020-12-10T13:45:17.587Z</time>
      </trkpt>
      <trkpt lat="48.75749" lon="2.57877">
        <ele>105</ele>
        <time>2020-12-10T13:45:22.565Z</time>
      </trkpt>
      <trkpt lat="48.75745" lon="2.57879">
        <ele>105</ele>
        <time>2020-12-10T13:45:27.585Z</time>
      </trkpt>
      <trkpt lat="48.75738" lon="2.57879">
        <ele>105</ele>
        <time>2020-12-10T13:45:32.568Z</time>
      </trkpt>
      <trkpt lat="48.75735" lon="2.57883">
        <ele>106</ele>
        <time>2020-12-10T13:45:37.579Z</time>
      </trkpt>
      <trkpt lat="48.75727" lon="2.57882">
        <ele>106</ele>
        <time>2020-12-10T13:45:42.568Z</time>
      </trkpt>
      <trkpt lat="48.75722" lon="2.57882">
        <ele>106</ele>
        <time>2020-12-10T13:45:47.575Z</time>
      </trkpt>
      <trkpt lat="48.75713" lon="2.57883">
        <ele>106</ele>
        <time>2020-12-10T13:45:52.570Z</time>
      </trkpt>
      <trkpt lat="48.75709" lon="2.57882">
        <ele>106</ele>
        <time>2020-12-10T13:45:57.576Z</time>
      </trkpt>
      <trkpt lat="48.75702" lon="2.57881">
        <ele>105</ele>
        <time>2020-12-10T13:46:02.571Z</time>
      </trkpt>
      <trkpt lat="48.75694" lon="2.57887">
        <ele>105</ele>
        <time>2020-12-10T13:46:07.567Z</time>
      </trkpt>
      <trkpt lat="48.75692" lon="2.57889">
        <ele>105</ele>
        <time>2020-12-10T13:46:12.572Z</time>
      </trkpt>
      <trkpt lat="48.75683" lon="2.57894">
        <ele>105</ele>
        <time>2020-12-10T13:46:17.584Z</time>
      </trkpt>
      <trkpt lat="48.75673" lon="2.57893">
        <ele>105</ele>
        <time>2020-12-10T13:46:22.572Z</time>
      </trkpt>
      <trkpt lat="48.75664" lon="2.57894">
        <ele>105</ele>
        <time>2020-12-10T13:46:27.583Z</time>
      </trkpt>
      <trkpt lat="48.75659" lon="2.57906">
        <ele>106</ele>
        <time>2020-12-10T13:46:32.582Z</time>
      </trkpt>
      <trkpt lat="48.75652" lon="2.57907">
        <ele>107</ele>
        <time>2020-12-10T13:46:36.617Z</time>
      </trkpt>
      <trkpt lat="48.75647" lon="2.57909">
        <ele>107</ele>
        <time>2020-12-10T13:46:41.584Z</time>
      </trkpt>
      <trkpt lat="48.75641" lon="2.57907">
        <ele>107</ele>
        <time>2020-12-10T13:46:46.575Z</time>
      </trkpt>
      <trkpt lat="48.75633" lon="2.57912">
        <ele>107</ele>
        <time>2020-12-10T13:46:51.581Z</time>
      </trkpt>
      <trkpt lat="48.75625" lon="2.57919">
        <ele>107</ele>
        <time>2020-12-10T13:46:56.574Z</time>
      </trkpt>
      <trkpt lat="48.75618" lon="2.57922">
        <ele>108</ele>
        <time>2020-12-10T13:47:01.581Z</time>
      </trkpt>
      <trkpt lat="48.75608" lon="2.57927">
        <ele>108</ele>
        <time>2020-12-10T13:47:06.579Z</time>
      </trkpt>
      <trkpt lat="48.75606" lon="2.57928">
        <ele>108</ele>
        <time>2020-12-10T13:47:11.582Z</time>
      </trkpt>
      <trkpt lat="48.75599" lon="2.57927">
        <ele>108</ele>
        <time>2020-12-10T13:47:16.566Z</time>
      </trkpt>
      <trkpt lat="48.75594" lon="2.57933">
        <ele>107</ele>
        <time>2020-12-10T13:47:21.583Z</time>
      </trkpt>
      <trkpt lat="48.75588" lon="2.57938">
        <ele>107</ele>
        <time>2020-12-10T13:47:26.572Z</time>
      </trkpt>
      <trkpt lat="48.75579" lon="2.57939">
        <ele>107</ele>
        <time>2020-12-10T13:47:31.574Z</time>
      </trkpt>
      <trkpt lat="48.75574" lon="2.57944">
        <ele>107</ele>
        <time>2020-12-10T13:47:35.584Z</time>
      </trkpt>
      <trkpt lat="48.75573" lon="2.57946">
        <ele>107</ele>
        <time>2020-12-10T13:47:40.566Z</time>
      </trkpt>
      <trkpt lat="48.75563" lon="2.57942">
        <ele>106</ele>
        <time>2020-12-10T13:47:45.582Z</time>
      </trkpt>
      <trkpt lat="48.75554" lon="2.57946">
        <ele>106</ele>
        <time>2020-12-10T13:47:50.568Z</time>
      </trkpt>
      <trkpt lat="48.7555" lon="2.57946">
        <ele>106</ele>
        <time>2020-12-10T13:47:54.586Z</time>
      </trkpt>
      <trkpt lat="48.75543" lon="2.57943">
        <ele>106</ele>
        <time>2020-12-10T13:47:59.580Z</time>
      </trkpt>
      <trkpt lat="48.75536" lon="2.57946">
        <ele>106</ele>
        <time>2020-12-10T13:48:04.588Z</time>
      </trkpt>
      <trkpt lat="48.75528" lon="2.57948">
        <ele>106</ele>
        <time>2020-12-10T13:48:09.580Z</time>
      </trkpt>
      <trkpt lat="48.75525" lon="2.57952">
        <ele>106</ele>
        <time>2020-12-10T13:48:14.587Z</time>
      </trkpt>
      <trkpt lat="48.75519" lon="2.57953">
        <ele>106</ele>
        <time>2020-12-10T13:48:19.583Z</time>
      </trkpt>
      <trkpt lat="48.75518" lon="2.57957">
        <ele>106</ele>
        <time>2020-12-10T13:48:24.576Z</time>
      </trkpt>
      <trkpt lat="48.75509" lon="2.57964">
        <ele>105</ele>
        <time>2020-12-10T13:48:29.577Z</time>
      </trkpt>
      <trkpt lat="48.75496" lon="2.57961">
        <ele>105</ele>
        <time>2020-12-10T13:48:34.584Z</time>
      </trkpt>
      <trkpt lat="48.75486" lon="2.57958">
        <ele>104</ele>
        <time>2020-12-10T13:48:39.572Z</time>
      </trkpt>
      <trkpt lat="48.75483" lon="2.57958">
        <ele>104</ele>
        <time>2020-12-10T13:48:44.583Z</time>
      </trkpt>
      <trkpt lat="48.75475" lon="2.57956">
        <ele>104</ele>
        <time>2020-12-10T13:48:49.579Z</time>
      </trkpt>
      <trkpt lat="48.75466" lon="2.57954">
        <ele>104</ele>
        <time>2020-12-10T13:48:54.589Z</time>
      </trkpt>
      <trkpt lat="48.75464" lon="2.57947">
        <ele>104</ele>
        <time>2020-12-10T13:48:59.563Z</time>
      </trkpt>
      <trkpt lat="48.75464" lon="2.57938">
        <ele>104</ele>
        <time>2020-12-10T13:49:03.579Z</time>
      </trkpt>
      <trkpt lat="48.75463" lon="2.57931">
        <ele>104</ele>
        <time>2020-12-10T13:49:08.580Z</time>
      </trkpt>
      <trkpt lat="48.75462" lon="2.5792">
        <ele>104</ele>
        <time>2020-12-10T13:49:13.579Z</time>
      </trkpt>
      <trkpt lat="48.75462" lon="2.57916">
        <ele>104</ele>
        <time>2020-12-10T13:49:18.572Z</time>
      </trkpt>
      <trkpt lat="48.75464" lon="2.57907">
        <ele>104</ele>
        <time>2020-12-10T13:49:22.591Z</time>
      </trkpt>
      <trkpt lat="48.75465" lon="2.57902">
        <ele>105</ele>
        <time>2020-12-10T13:49:27.573Z</time>
      </trkpt>
      <trkpt lat="48.75467" lon="2.57895">
        <ele>105</ele>
        <time>2020-12-10T13:49:32.580Z</time>
      </trkpt>
      <trkpt lat="48.75467" lon="2.57886">
        <ele>105</ele>
        <time>2020-12-10T13:49:37.581Z</time>
      </trkpt>
      <trkpt lat="48.75466" lon="2.57875">
        <ele>105</ele>
        <time>2020-12-10T13:49:42.572Z</time>
      </trkpt>
      <trkpt lat="48.75466" lon="2.57868">
        <ele>105</ele>
        <time>2020-12-10T13:49:46.598Z</time>
      </trkpt>
      <trkpt lat="48.75464" lon="2.57854">
        <ele>105</ele>
        <time>2020-12-10T13:49:51.594Z</time>
      </trkpt>
      <trkpt lat="48.75463" lon="2.57839">
        <ele>105</ele>
        <time>2020-12-10T13:49:56.588Z</time>
      </trkpt>
      <trkpt lat="48.75462" lon="2.5782">
        <ele>105</ele>
        <time>2020-12-10T13:50:01.585Z</time>
      </trkpt>
      <trkpt lat="48.7546" lon="2.57809">
        <ele>105</ele>
        <time>2020-12-10T13:50:06.589Z</time>
      </trkpt>
      <trkpt lat="48.75462" lon="2.57795">
        <ele>105</ele>
        <time>2020-12-10T13:50:11.596Z</time>
      </trkpt>
      <trkpt lat="48.75462" lon="2.57784">
        <ele>105</ele>
        <time>2020-12-10T13:50:16.590Z</time>
      </trkpt>
      <trkpt lat="48.75461" lon="2.57778">
        <ele>105</ele>
        <time>2020-12-10T13:50:21.600Z</time>
      </trkpt>
      <trkpt lat="48.75461" lon="2.57773">
        <ele>105</ele>
        <time>2020-12-10T13:50:26.584Z</time>
      </trkpt>
      <trkpt lat="48.75461" lon="2.57762">
        <ele>104</ele>
        <time>2020-12-10T13:50:31.596Z</time>
      </trkpt>
      <trkpt lat="48.7546" lon="2.57757">
        <ele>104</ele>
        <time>2020-12-10T13:50:36.593Z</time>
      </trkpt>
      <trkpt lat="48.7546" lon="2.57745">
        <ele>104</ele>
        <time>2020-12-10T13:50:41.586Z</time>
      </trkpt>
      <trkpt lat="48.7546" lon="2.57737">
        <ele>104</ele>
        <time>2020-12-10T13:50:46.583Z</time>
      </trkpt>
      <trkpt lat="48.7546" lon="2.5773">
        <ele>105</ele>
        <time>2020-12-10T13:50:50.597Z</time>
      </trkpt>
      <trkpt lat="48.75459" lon="2.57721">
        <ele>105</ele>
        <time>2020-12-10T13:50:55.595Z</time>
      </trkpt>
      <trkpt lat="48.75462" lon="2.57705">
        <ele>104</ele>
        <time>2020-12-10T13:51:00.594Z</time>
      </trkpt>
      <trkpt lat="48.7546" lon="2.57687">
        <ele>104</ele>
        <time>2020-12-10T13:51:05.598Z</time>
      </trkpt>
      <trkpt lat="48.75455" lon="2.57672">
        <ele>107</ele>
        <time>2020-12-10T13:51:10.595Z</time>
      </trkpt>
      <trkpt lat="48.75451" lon="2.57659">
        <ele>107</ele>
        <time>2020-12-10T13:51:15.595Z</time>
      </trkpt>
      <trkpt lat="48.75441" lon="2.57647">
        <ele>107</ele>
        <time>2020-12-10T13:51:20.588Z</time>
      </trkpt>
      <trkpt lat="48.75435" lon="2.57644">
        <ele>107</ele>
        <time>2020-12-10T13:51:25.595Z</time>
      </trkpt>
      <trkpt lat="48.75426" lon="2.5764">
        <ele>108</ele>
        <time>2020-12-10T13:51:30.584Z</time>
      </trkpt>
      <trkpt lat="48.75418" lon="2.57634">
        <ele>108</ele>
        <time>2020-12-10T13:51:35.591Z</time>
      </trkpt>
      <trkpt lat="48.75416" lon="2.5763">
        <ele>108</ele>
        <time>2020-12-10T13:51:40.590Z</time>
      </trkpt>
      <trkpt lat="48.75413" lon="2.57626">
        <ele>108</ele>
        <time>2020-12-10T13:51:45.592Z</time>
      </trkpt>
      <trkpt lat="48.75404" lon="2.57618">
        <ele>108</ele>
        <time>2020-12-10T13:51:50.593Z</time>
      </trkpt>
      <trkpt lat="48.75399" lon="2.57611">
        <ele>108</ele>
        <time>2020-12-10T13:51:55.583Z</time>
      </trkpt>
      <trkpt lat="48.7539" lon="2.5761">
        <ele>108</ele>
        <time>2020-12-10T13:52:00.571Z</time>
      </trkpt>
      <trkpt lat="48.75383" lon="2.57608">
        <ele>108</ele>
        <time>2020-12-10T13:52:04.597Z</time>
      </trkpt>
      <trkpt lat="48.75378" lon="2.57603">
        <ele>108</ele>
        <time>2020-12-10T13:52:09.590Z</time>
      </trkpt>
      <trkpt lat="48.75377" lon="2.57598">
        <ele>108</ele>
        <time>2020-12-10T13:52:14.590Z</time>
      </trkpt>
      <trkpt lat="48.75372" lon="2.57589">
        <ele>108</ele>
        <time>2020-12-10T13:52:19.569Z</time>
      </trkpt>
      <trkpt lat="48.75364" lon="2.57582">
        <ele>108</ele>
        <time>2020-12-10T13:52:24.585Z</time>
      </trkpt>
      <trkpt lat="48.75354" lon="2.57577">
        <ele>108</ele>
        <time>2020-12-10T13:52:29.581Z</time>
      </trkpt>
      <trkpt lat="48.7535" lon="2.57572">
        <ele>108</ele>
        <time>2020-12-10T13:52:34.590Z</time>
      </trkpt>
      <trkpt lat="48.75344" lon="2.57567">
        <ele>107</ele>
        <time>2020-12-10T13:52:39.594Z</time>
      </trkpt>
      <trkpt lat="48.75339" lon="2.57563">
        <ele>107</ele>
        <time>2020-12-10T13:52:44.593Z</time>
      </trkpt>
      <trkpt lat="48.75333" lon="2.57559">
        <ele>107</ele>
        <time>2020-12-10T13:52:49.595Z</time>
      </trkpt>
      <trkpt lat="48.75331" lon="2.5756">
        <ele>107</ele>
        <time>2020-12-10T13:52:54.596Z</time>
      </trkpt>
      <trkpt lat="48.75325" lon="2.57556">
        <ele>107</ele>
        <time>2020-12-10T13:52:59.592Z</time>
      </trkpt>
      <trkpt lat="48.75319" lon="2.57549">
        <ele>105</ele>
        <time>2020-12-10T13:53:04.591Z</time>
      </trkpt>
      <trkpt lat="48.75314" lon="2.57541">
        <ele>105</ele>
        <time>2020-12-10T13:53:09.596Z</time>
      </trkpt>
      <trkpt lat="48.75307" lon="2.57532">
        <ele>105</ele>
        <time>2020-12-10T13:53:14.598Z</time>
      </trkpt>
      <trkpt lat="48.75302" lon="2.57531">
        <ele>105</ele>
        <time>2020-12-10T13:53:19.588Z</time>
      </trkpt>
      <trkpt lat="48.75294" lon="2.57529">
        <ele>105</ele>
        <time>2020-12-10T13:53:24.596Z</time>
      </trkpt>
      <trkpt lat="48.75285" lon="2.57522">
        <ele>104</ele>
        <time>2020-12-10T13:53:29.592Z</time>
      </trkpt>
      <trkpt lat="48.75276" lon="2.57518">
        <ele>104</ele>
        <time>2020-12-10T13:53:34.595Z</time>
      </trkpt>
      <trkpt lat="48.7527" lon="2.57513">
        <ele>104</ele>
        <time>2020-12-10T13:53:39.553Z</time>
      </trkpt>
      <trkpt lat="48.75265" lon="2.57513">
        <ele>104</ele>
        <time>2020-12-10T13:53:44.562Z</time>
      </trkpt>
      <trkpt lat="48.75254" lon="2.57514">
        <ele>105</ele>
        <time>2020-12-10T13:53:48.601Z</time>
      </trkpt>
      <trkpt lat="48.75239" lon="2.57518">
        <ele>105</ele>
        <time>2020-12-10T13:53:53.594Z</time>
      </trkpt>
      <trkpt lat="48.75234" lon="2.5752">
        <ele>106</ele>
        <time>2020-12-10T13:53:58.565Z</time>
      </trkpt>
      <trkpt lat="48.75232" lon="2.57513">
        <ele>105</ele>
        <time>2020-12-10T13:54:02.580Z</time>
      </trkpt>
      <trkpt lat="48.75229" lon="2.57508">
        <ele>105</ele>
        <time>2020-12-10T13:54:07.615Z</time>
      </trkpt>
      <trkpt lat="48.75227" lon="2.575">
        <ele>105</ele>
        <time>2020-12-10T13:54:12.580Z</time>
      </trkpt>
      <trkpt lat="48.75228" lon="2.57491">
        <ele>105</ele>
        <time>2020-12-10T13:54:17.597Z</time>
      </trkpt>
      <trkpt lat="48.75226" lon="2.57484">
        <ele>104</ele>
        <time>2020-12-10T13:54:22.582Z</time>
      </trkpt>
      <trkpt lat="48.75226" lon="2.57476">
        <ele>104</ele>
        <time>2020-12-10T13:54:26.604Z</time>
      </trkpt>
      <trkpt lat="48.75223" lon="2.57462">
        <ele>104</ele>
        <time>2020-12-10T13:54:31.589Z</time>
      </trkpt>
      <trkpt lat="48.75223" lon="2.57453">
        <ele>104</ele>
        <time>2020-12-10T13:54:36.575Z</time>
      </trkpt>
      <trkpt lat="48.75223" lon="2.57443">
        <ele>104</ele>
        <time>2020-12-10T13:54:41.602Z</time>
      </trkpt>
      <trkpt lat="48.75223" lon="2.57432">
        <ele>104</ele>
        <time>2020-12-10T13:54:46.588Z</time>
      </trkpt>
      <trkpt lat="48.7522" lon="2.57422">
        <ele>104</ele>
        <time>2020-12-10T13:54:50.678Z</time>
      </trkpt>
      <trkpt lat="48.7522" lon="2.57414">
        <ele>104</ele>
        <time>2020-12-10T13:54:55.572Z</time>
      </trkpt>
      <trkpt lat="48.75216" lon="2.57403">
        <ele>105</ele>
        <time>2020-12-10T13:55:00.586Z</time>
      </trkpt>
      <trkpt lat="48.75218" lon="2.57393">
        <ele>105</ele>
        <time>2020-12-10T13:55:05.588Z</time>
      </trkpt>
      <trkpt lat="48.7522" lon="2.57382">
        <ele>105</ele>
        <time>2020-12-10T13:55:10.590Z</time>
      </trkpt>
      <trkpt lat="48.75214" lon="2.57377">
        <ele>105</ele>
        <time>2020-12-10T13:55:15.622Z</time>
      </trkpt>
      <trkpt lat="48.75214" lon="2.57357">
        <ele>105</ele>
        <time>2020-12-10T13:55:20.585Z</time>
      </trkpt>
      <trkpt lat="48.75219" lon="2.57349">
        <ele>105</ele>
        <time>2020-12-10T13:55:25.630Z</time>
      </trkpt>
      <trkpt lat="48.7522" lon="2.57344">
        <ele>105</ele>
        <time>2020-12-10T13:55:30.585Z</time>
      </trkpt>
      <trkpt lat="48.75218" lon="2.57341">
        <ele>105</ele>
        <time>2020-12-10T13:55:35.590Z</time>
      </trkpt>
      <trkpt lat="48.75223" lon="2.5733">
        <ele>105</ele>
        <time>2020-12-10T13:55:40.576Z</time>
      </trkpt>
      <trkpt lat="48.75217" lon="2.57329">
        <ele>105</ele>
        <time>2020-12-10T13:55:45.575Z</time>
      </trkpt>
      <trkpt lat="48.75218" lon="2.57309">
        <ele>104</ele>
        <time>2020-12-10T13:55:50.574Z</time>
      </trkpt>
      <trkpt lat="48.75208" lon="2.57294">
        <ele>104</ele>
        <time>2020-12-10T13:55:55.581Z</time>
      </trkpt>
      <trkpt lat="48.75206" lon="2.57281">
        <ele>104</ele>
        <time>2020-12-10T13:56:00.569Z</time>
      </trkpt>
      <trkpt lat="48.75206" lon="2.57272">
        <ele>104</ele>
        <time>2020-12-10T13:56:04.592Z</time>
      </trkpt>
      <trkpt lat="48.75206" lon="2.57261">
        <ele>104</ele>
        <time>2020-12-10T13:56:09.583Z</time>
      </trkpt>
      <trkpt lat="48.75206" lon="2.57256">
        <ele>104</ele>
        <time>2020-12-10T13:56:14.595Z</time>
      </trkpt>
      <trkpt lat="48.75208" lon="2.57243">
        <ele>103</ele>
        <time>2020-12-10T13:56:19.596Z</time>
      </trkpt>
      <trkpt lat="48.75204" lon="2.57227">
        <ele>104</ele>
        <time>2020-12-10T13:56:24.585Z</time>
      </trkpt>
      <trkpt lat="48.75201" lon="2.57227">
        <ele>104</ele>
        <time>2020-12-10T13:56:29.594Z</time>
      </trkpt>
      <trkpt lat="48.75199" lon="2.57222">
        <ele>104</ele>
        <time>2020-12-10T13:56:34.581Z</time>
      </trkpt>
      <trkpt lat="48.75204" lon="2.57208">
        <ele>104</ele>
        <time>2020-12-10T13:56:39.612Z</time>
      </trkpt>
      <trkpt lat="48.75204" lon="2.57184">
        <ele>104</ele>
        <time>2020-12-10T13:56:44.582Z</time>
      </trkpt>
      <trkpt lat="48.75199" lon="2.57186">
        <ele>104</ele>
        <time>2020-12-10T13:57:23.578Z</time>
      </trkpt>
      <trkpt lat="48.75193" lon="2.57176">
        <ele>104</ele>
        <time>2020-12-10T13:57:28.589Z</time>
      </trkpt>
      <trkpt lat="48.75192" lon="2.57172">
        <ele>104</ele>
        <time>2020-12-10T13:57:33.593Z</time>
      </trkpt>
      <trkpt lat="48.75193" lon="2.57159">
        <ele>104</ele>
        <time>2020-12-10T13:57:38.581Z</time>
      </trkpt>
      <trkpt lat="48.75195" lon="2.57148">
        <ele>105</ele>
        <time>2020-12-10T13:57:43.583Z</time>
      </trkpt>
      <trkpt lat="48.75197" lon="2.57144">
        <ele>105</ele>
        <time>2020-12-10T13:57:57.612Z</time>
      </trkpt>
      <trkpt lat="48.75198" lon="2.57138">
        <ele>105</ele>
        <time>2020-12-10T13:58:02.596Z</time>
      </trkpt>
      <trkpt lat="48.75201" lon="2.57127">
        <ele>105</ele>
        <time>2020-12-10T13:58:07.603Z</time>
      </trkpt>
      <trkpt lat="48.75191" lon="2.57124">
        <ele>105</ele>
        <time>2020-12-10T13:58:12.587Z</time>
      </trkpt>
      <trkpt lat="48.75199" lon="2.57108">
        <ele>105</ele>
        <time>2020-12-10T13:58:17.615Z</time>
      </trkpt>
      <trkpt lat="48.75197" lon="2.57104">
        <ele>105</ele>
        <time>2020-12-10T13:58:22.591Z</time>
      </trkpt>
      <trkpt lat="48.752" lon="2.57098">
        <ele>105</ele>
        <time>2020-12-10T13:58:26.641Z</time>
      </trkpt>
      <trkpt lat="48.75199" lon="2.57074">
        <ele>104</ele>
        <time>2020-12-10T13:58:31.569Z</time>
      </trkpt>
      <trkpt lat="48.75193" lon="2.57059">
        <ele>104</ele>
        <time>2020-12-10T13:58:35.592Z</time>
      </trkpt>
      <trkpt lat="48.7519" lon="2.57059">
        <ele>104</ele>
        <time>2020-12-10T13:58:40.588Z</time>
      </trkpt>
      <trkpt lat="48.75176" lon="2.57033">
        <ele>105</ele>
        <time>2020-12-10T13:58:45.585Z</time>
      </trkpt>
      <trkpt lat="48.75171" lon="2.57019">
        <ele>105</ele>
        <time>2020-12-10T13:58:50.594Z</time>
      </trkpt>
      <trkpt lat="48.75162" lon="2.57017">
        <ele>105</ele>
        <time>2020-12-10T13:58:55.580Z</time>
      </trkpt>
      <trkpt lat="48.75166" lon="2.57001">
        <ele>105</ele>
        <time>2020-12-10T13:59:00.585Z</time>
      </trkpt>
      <trkpt lat="48.75155" lon="2.57006">
        <ele>105</ele>
        <time>2020-12-10T13:59:04.601Z</time>
      </trkpt>
      <trkpt lat="48.75142" lon="2.56994">
        <ele>106</ele>
        <time>2020-12-10T13:59:09.589Z</time>
      </trkpt>
      <trkpt lat="48.75141" lon="2.57">
        <ele>106</ele>
        <time>2020-12-10T13:59:14.591Z</time>
      </trkpt>
      <trkpt lat="48.75086" lon="2.56978">
        <ele>107</ele>
        <time>2020-12-10T13:59:53.576Z</time>
      </trkpt>
      <trkpt lat="48.75083" lon="2.5698">
        <ele>107</ele>
        <time>2020-12-10T13:59:58.571Z</time>
      </trkpt>
      <trkpt lat="48.7507" lon="2.56975">
        <ele>107</ele>
        <time>2020-12-10T14:00:03.592Z</time>
      </trkpt>
      <trkpt lat="48.75063" lon="2.56954">
        <ele>106</ele>
        <time>2020-12-10T14:00:08.577Z</time>
      </trkpt>
      <trkpt lat="48.75052" lon="2.56967">
        <ele>106</ele>
        <time>2020-12-10T14:00:13.590Z</time>
      </trkpt>
      <trkpt lat="48.75043" lon="2.56963">
        <ele>106</ele>
        <time>2020-12-10T14:00:18.582Z</time>
      </trkpt>
      <trkpt lat="48.75041" lon="2.56966">
        <ele>105</ele>
        <time>2020-12-10T14:00:22.599Z</time>
      </trkpt>
      <trkpt lat="48.75039" lon="2.56954">
        <ele>105</ele>
        <time>2020-12-10T14:00:27.590Z</time>
      </trkpt>
      <trkpt lat="48.75029" lon="2.56951">
        <ele>105</ele>
        <time>2020-12-10T14:00:32.585Z</time>
      </trkpt>
      <trkpt lat="48.75023" lon="2.56951">
        <ele>105</ele>
        <time>2020-12-10T14:00:59.590Z</time>
      </trkpt>
      <trkpt lat="48.75025" lon="2.56952">
        <ele>105</ele>
        <time>2020-12-10T14:01:04.600Z</time>
      </trkpt>
      <trkpt lat="48.75023" lon="2.56947">
        <ele>105</ele>
        <time>2020-12-10T14:01:08.645Z</time>
      </trkpt>
      <trkpt lat="48.75021" lon="2.56943">
        <ele>105</ele>
        <time>2020-12-10T14:01:13.547Z</time>
      </trkpt>
      <trkpt lat="48.75012" lon="2.56944">
        <ele>104</ele>
        <time>2020-12-10T14:01:17.571Z</time>
      </trkpt>
      <trkpt lat="48.7501" lon="2.5694">
        <ele>104</ele>
        <time>2020-12-10T14:01:21.582Z</time>
      </trkpt>
      <trkpt lat="48.75008" lon="2.56947">
        <ele>104</ele>
        <time>2020-12-10T14:01:26.605Z</time>
      </trkpt>
      <trkpt lat="48.75005" lon="2.56941">
        <ele>104</ele>
        <time>2020-12-10T14:01:31.597Z</time>
      </trkpt>
      <trkpt lat="48.74998" lon="2.56943">
        <ele>104</ele>
        <time>2020-12-10T14:01:36.582Z</time>
      </trkpt>
      <trkpt lat="48.74999" lon="2.56934">
        <ele>104</ele>
        <time>2020-12-10T14:01:41.583Z</time>
      </trkpt>
      <trkpt lat="48.74996" lon="2.56923">
        <ele>104</ele>
        <time>2020-12-10T14:01:46.596Z</time>
      </trkpt>
      <trkpt lat="48.74993" lon="2.56915">
        <ele>104</ele>
        <time>2020-12-10T14:01:51.589Z</time>
      </trkpt>
      <trkpt lat="48.74989" lon="2.56903">
        <ele>104</ele>
        <time>2020-12-10T14:01:56.589Z</time>
      </trkpt>
      <trkpt lat="48.74987" lon="2.56911">
        <ele>104</ele>
        <time>2020-12-10T14:02:01.587Z</time>
      </trkpt>
      <trkpt lat="48.74985" lon="2.56907">
        <ele>103</ele>
        <time>2020-12-10T14:02:06.586Z</time>
      </trkpt>
      <trkpt lat="48.74977" lon="2.56909">
        <ele>103</ele>
        <time>2020-12-10T14:02:11.586Z</time>
      </trkpt>
      <trkpt lat="48.7497" lon="2.56909">
        <ele>103</ele>
        <time>2020-12-10T14:02:16.588Z</time>
      </trkpt>
      <trkpt lat="48.74961" lon="2.56911">
        <ele>103</ele>
        <time>2020-12-10T14:02:21.589Z</time>
      </trkpt>
      <trkpt lat="48.74956" lon="2.56914">
        <ele>103</ele>
        <time>2020-12-10T14:02:26.579Z</time>
      </trkpt>
      <trkpt lat="48.74946" lon="2.56909">
        <ele>103</ele>
        <time>2020-12-10T14:02:31.588Z</time>
      </trkpt>
      <trkpt lat="48.74939" lon="2.569">
        <ele>103</ele>
        <time>2020-12-10T14:02:36.588Z</time>
      </trkpt>
      <trkpt lat="48.74933" lon="2.56902">
        <ele>103</ele>
        <time>2020-12-10T14:02:41.583Z</time>
      </trkpt>
      <trkpt lat="48.74931" lon="2.56899">
        <ele>103</ele>
        <time>2020-12-10T14:02:46.594Z</time>
      </trkpt>
      <trkpt lat="48.74921" lon="2.56894">
        <ele>103</ele>
        <time>2020-12-10T14:02:51.596Z</time>
      </trkpt>
      <trkpt lat="48.74919" lon="2.56891">
        <ele>103</ele>
        <time>2020-12-10T14:02:56.588Z</time>
      </trkpt>
      <trkpt lat="48.74913" lon="2.56876">
        <ele>103</ele>
        <time>2020-12-10T14:03:01.578Z</time>
      </trkpt>
      <trkpt lat="48.74907" lon="2.56878">
        <ele>103</ele>
        <time>2020-12-10T14:03:06.581Z</time>
      </trkpt>
      <trkpt lat="48.74899" lon="2.56872">
        <ele>105</ele>
        <time>2020-12-10T14:03:11.564Z</time>
      </trkpt>
      <trkpt lat="48.74894" lon="2.56861">
        <ele>105</ele>
        <time>2020-12-10T14:03:15.589Z</time>
      </trkpt>
      <trkpt lat="48.74891" lon="2.56856">
        <ele>105</ele>
        <time>2020-12-10T14:03:20.576Z</time>
      </trkpt>
      <trkpt lat="48.74886" lon="2.56855">
        <ele>105</ele>
        <time>2020-12-10T14:03:25.584Z</time>
      </trkpt>
      <trkpt lat="48.74882" lon="2.56857">
        <ele>105</ele>
        <time>2020-12-10T14:03:30.579Z</time>
      </trkpt>
      <trkpt lat="48.74874" lon="2.56856">
        <ele>105</ele>
        <time>2020-12-10T14:03:35.570Z</time>
      </trkpt>
      <trkpt lat="48.74869" lon="2.56844">
        <ele>105</ele>
        <time>2020-12-10T14:03:39.590Z</time>
      </trkpt>
      <trkpt lat="48.74868" lon="2.56829">
        <ele>105</ele>
        <time>2020-12-10T14:03:44.592Z</time>
      </trkpt>
      <trkpt lat="48.74868" lon="2.56824">
        <ele>105</ele>
        <time>2020-12-10T14:03:49.577Z</time>
      </trkpt>
      <trkpt lat="48.74853" lon="2.56823">
        <ele>105</ele>
        <time>2020-12-10T14:03:54.591Z</time>
      </trkpt>
      <trkpt lat="48.74846" lon="2.56812">
        <ele>104</ele>
        <time>2020-12-10T14:03:59.582Z</time>
      </trkpt>
      <trkpt lat="48.74843" lon="2.56811">
        <ele>104</ele>
        <time>2020-12-10T14:04:04.593Z</time>
      </trkpt>
      <trkpt lat="48.74849" lon="2.56818">
        <ele>105</ele>
        <time>2020-12-10T14:04:09.585Z</time>
      </trkpt>
      <trkpt lat="48.74851" lon="2.56821">
        <ele>105</ele>
        <time>2020-12-10T14:04:14.584Z</time>
      </trkpt>
      <trkpt lat="48.74857" lon="2.56825">
        <ele>105</ele>
        <time>2020-12-10T14:04:19.571Z</time>
      </trkpt>
      <trkpt lat="48.74859" lon="2.5684">
        <ele>105</ele>
        <time>2020-12-10T14:04:24.586Z</time>
      </trkpt>
      <trkpt lat="48.74863" lon="2.56837">
        <ele>105</ele>
        <time>2020-12-10T14:04:29.596Z</time>
      </trkpt>
      <trkpt lat="48.74856" lon="2.56849">
        <ele>105</ele>
        <time>2020-12-10T14:04:34.598Z</time>
      </trkpt>
      <trkpt lat="48.74855" lon="2.56852">
        <ele>105</ele>
        <time>2020-12-10T14:04:39.597Z</time>
      </trkpt>
      <trkpt lat="48.74852" lon="2.56844">
        <ele>105</ele>
        <time>2020-12-10T14:04:44.581Z</time>
      </trkpt>
      <trkpt lat="48.74854" lon="2.56836">
        <ele>105</ele>
        <time>2020-12-10T14:04:49.579Z</time>
      </trkpt>
      <trkpt lat="48.74859" lon="2.56822">
        <ele>105</ele>
        <time>2020-12-10T14:04:54.586Z</time>
      </trkpt>
      <trkpt lat="48.7486" lon="2.56811">
        <ele>105</ele>
        <time>2020-12-10T14:04:59.583Z</time>
      </trkpt>
      <trkpt lat="48.74864" lon="2.56805">
        <ele>105</ele>
        <time>2020-12-10T14:05:04.585Z</time>
      </trkpt>
      <trkpt lat="48.74864" lon="2.56795">
        <ele>105</ele>
        <time>2020-12-10T14:05:09.587Z</time>
      </trkpt>
      <trkpt lat="48.74861" lon="2.56793">
        <ele>105</ele>
        <time>2020-12-10T14:05:14.594Z</time>
      </trkpt>
      <trkpt lat="48.74866" lon="2.56789">
        <ele>104</ele>
        <time>2020-12-10T14:05:19.578Z</time>
      </trkpt>
      <trkpt lat="48.7487" lon="2.56768">
        <ele>104</ele>
        <time>2020-12-10T14:05:24.581Z</time>
      </trkpt>
      <trkpt lat="48.74872" lon="2.5677">
        <ele>104</ele>
        <time>2020-12-10T14:05:29.584Z</time>
      </trkpt>
      <trkpt lat="48.74874" lon="2.56757">
        <ele>104</ele>
        <time>2020-12-10T14:05:34.588Z</time>
      </trkpt>
      <trkpt lat="48.74869" lon="2.56749">
        <ele>104</ele>
        <time>2020-12-10T14:05:39.587Z</time>
      </trkpt>
      <trkpt lat="48.74869" lon="2.56738">
        <ele>104</ele>
        <time>2020-12-10T14:05:44.596Z</time>
      </trkpt>
      <trkpt lat="48.74871" lon="2.56722">
        <ele>104</ele>
        <time>2020-12-10T14:05:49.583Z</time>
      </trkpt>
      <trkpt lat="48.74869" lon="2.56707">
        <ele>104</ele>
        <time>2020-12-10T14:05:54.600Z</time>
      </trkpt>
      <trkpt lat="48.74868" lon="2.56692">
        <ele>104</ele>
        <time>2020-12-10T14:05:59.581Z</time>
      </trkpt>
      <trkpt lat="48.74873" lon="2.56687">
        <ele>104</ele>
        <time>2020-12-10T14:06:04.597Z</time>
      </trkpt>
      <trkpt lat="48.74872" lon="2.56674">
        <ele>104</ele>
        <time>2020-12-10T14:06:09.567Z</time>
      </trkpt>
      <trkpt lat="48.74863" lon="2.56655">
        <ele>104</ele>
        <time>2020-12-10T14:06:14.592Z</time>
      </trkpt>
      <trkpt lat="48.74867" lon="2.56644">
        <ele>104</ele>
        <time>2020-12-10T14:06:19.596Z</time>
      </trkpt>
      <trkpt lat="48.74864" lon="2.56644">
        <ele>104</ele>
        <time>2020-12-10T14:06:24.588Z</time>
      </trkpt>
      <trkpt lat="48.74869" lon="2.56623">
        <ele>104</ele>
        <time>2020-12-10T14:06:29.582Z</time>
      </trkpt>
      <trkpt lat="48.74874" lon="2.56608">
        <ele>104</ele>
        <time>2020-12-10T14:06:34.597Z</time>
      </trkpt>
      <trkpt lat="48.74872" lon="2.56606">
        <ele>104</ele>
        <time>2020-12-10T14:06:39.588Z</time>
      </trkpt>
      <trkpt lat="48.74888" lon="2.5652">
        <ele>103</ele>
        <time>2020-12-10T14:07:37.569Z</time>
      </trkpt>
      <trkpt lat="48.74883" lon="2.56506">
        <ele>103</ele>
        <time>2020-12-10T14:07:41.593Z</time>
      </trkpt>
      <trkpt lat="48.74884" lon="2.56493">
        <ele>103</ele>
        <time>2020-12-10T14:07:46.570Z</time>
      </trkpt>
      <trkpt lat="48.74887" lon="2.56485">
        <ele>102</ele>
        <time>2020-12-10T14:07:50.586Z</time>
      </trkpt>
      <trkpt lat="48.74888" lon="2.56474">
        <ele>102</ele>
        <time>2020-12-10T14:07:55.570Z</time>
      </trkpt>
      <trkpt lat="48.74885" lon="2.56464">
        <ele>102</ele>
        <time>2020-12-10T14:08:00.580Z</time>
      </trkpt>
      <trkpt lat="48.74885" lon="2.56454">
        <ele>102</ele>
        <time>2020-12-10T14:08:05.589Z</time>
      </trkpt>
      <trkpt lat="48.74888" lon="2.56446">
        <ele>102</ele>
        <time>2020-12-10T14:08:10.587Z</time>
      </trkpt>
      <trkpt lat="48.74892" lon="2.56439">
        <ele>102</ele>
        <time>2020-12-10T14:08:14.664Z</time>
      </trkpt>
      <trkpt lat="48.7489" lon="2.56435">
        <ele>102</ele>
        <time>2020-12-10T14:08:19.586Z</time>
      </trkpt>
      <trkpt lat="48.74893" lon="2.5643">
        <ele>103</ele>
        <time>2020-12-10T14:08:23.623Z</time>
      </trkpt>
      <trkpt lat="48.74894" lon="2.56423">
        <ele>103</ele>
        <time>2020-12-10T14:08:28.577Z</time>
      </trkpt>
      <trkpt lat="48.74893" lon="2.56419">
        <ele>103</ele>
        <time>2020-12-10T14:08:33.583Z</time>
      </trkpt>
      <trkpt lat="48.74893" lon="2.56417">
        <ele>103</ele>
        <time>2020-12-10T14:08:38.577Z</time>
      </trkpt>
      <trkpt lat="48.74893" lon="2.56408">
        <ele>103</ele>
        <time>2020-12-10T14:08:42.591Z</time>
      </trkpt>
      <trkpt lat="48.74892" lon="2.56402">
        <ele>103</ele>
        <time>2020-12-10T14:08:47.583Z</time>
      </trkpt>
      <trkpt lat="48.7489" lon="2.5639">
        <ele>103</ele>
        <time>2020-12-10T14:08:52.592Z</time>
      </trkpt>
      <trkpt lat="48.74884" lon="2.56371">
        <ele>104</ele>
        <time>2020-12-10T14:08:57.577Z</time>
      </trkpt>
      <trkpt lat="48.74877" lon="2.56353">
        <ele>104</ele>
        <time>2020-12-10T14:09:02.594Z</time>
      </trkpt>
      <trkpt lat="48.74871" lon="2.56338">
        <ele>104</ele>
        <time>2020-12-10T14:09:06.611Z</time>
      </trkpt>
      <trkpt lat="48.74863" lon="2.56327">
        <ele>104</ele>
        <time>2020-12-10T14:09:11.590Z</time>
      </trkpt>
      <trkpt lat="48.74858" lon="2.56322">
        <ele>104</ele>
        <time>2020-12-10T14:09:16.584Z</time>
      </trkpt>
      <trkpt lat="48.74853" lon="2.56316">
        <ele>104</ele>
        <time>2020-12-10T14:09:21.586Z</time>
      </trkpt>
      <trkpt lat="48.74847" lon="2.56311">
        <ele>103</ele>
        <time>2020-12-10T14:09:26.584Z</time>
      </trkpt>
      <trkpt lat="48.74838" lon="2.56304">
        <ele>103</ele>
        <time>2020-12-10T14:09:31.573Z</time>
      </trkpt>
      <trkpt lat="48.74831" lon="2.563">
        <ele>103</ele>
        <time>2020-12-10T14:09:36.593Z</time>
      </trkpt>
      <trkpt lat="48.74824" lon="2.56296">
        <ele>103</ele>
        <time>2020-12-10T14:09:41.594Z</time>
      </trkpt>
      <trkpt lat="48.7482" lon="2.56293">
        <ele>103</ele>
        <time>2020-12-10T14:09:46.596Z</time>
      </trkpt>
      <trkpt lat="48.74816" lon="2.56289">
        <ele>102</ele>
        <time>2020-12-10T14:09:50.585Z</time>
      </trkpt>
      <trkpt lat="48.74809" lon="2.56285">
        <ele>102</ele>
        <time>2020-12-10T14:09:55.592Z</time>
      </trkpt>
      <trkpt lat="48.74806" lon="2.56279">
        <ele>102</ele>
        <time>2020-12-10T14:10:00.580Z</time>
      </trkpt>
      <trkpt lat="48.74799" lon="2.56269">
        <ele>102</ele>
        <time>2020-12-10T14:10:05.582Z</time>
      </trkpt>
      <trkpt lat="48.74795" lon="2.56263">
        <ele>102</ele>
        <time>2020-12-10T14:10:10.695Z</time>
      </trkpt>
      <trkpt lat="48.74788" lon="2.56254">
        <ele>102</ele>
        <time>2020-12-10T14:10:15.579Z</time>
      </trkpt>
      <trkpt lat="48.74782" lon="2.56246">
        <ele>102</ele>
        <time>2020-12-10T14:10:20.594Z</time>
      </trkpt>
      <trkpt lat="48.74779" lon="2.56237">
        <ele>102</ele>
        <time>2020-12-10T14:10:25.577Z</time>
      </trkpt>
      <trkpt lat="48.74774" lon="2.5623">
        <ele>102</ele>
        <time>2020-12-10T14:10:30.585Z</time>
      </trkpt>
      <trkpt lat="48.74771" lon="2.56224">
        <ele>102</ele>
        <time>2020-12-10T14:10:35.578Z</time>
      </trkpt>
      <trkpt lat="48.74767" lon="2.56221">
        <ele>102</ele>
        <time>2020-12-10T14:10:39.602Z</time>
      </trkpt>
      <trkpt lat="48.7476" lon="2.5621">
        <ele>102</ele>
        <time>2020-12-10T14:10:44.591Z</time>
      </trkpt>
      <trkpt lat="48.74753" lon="2.56201">
        <ele>103</ele>
        <time>2020-12-10T14:10:49.581Z</time>
      </trkpt>
      <trkpt lat="48.74748" lon="2.56195">
        <ele>103</ele>
        <time>2020-12-10T14:10:54.578Z</time>
      </trkpt>
      <trkpt lat="48.74742" lon="2.56194">
        <ele>103</ele>
        <time>2020-12-10T14:10:58.595Z</time>
      </trkpt>
      <trkpt lat="48.74736" lon="2.56192">
        <ele>105</ele>
        <time>2020-12-10T14:11:02.622Z</time>
      </trkpt>
      <trkpt lat="48.74729" lon="2.56185">
        <ele>105</ele>
        <time>2020-12-10T14:11:07.583Z</time>
      </trkpt>
      <trkpt lat="48.74725" lon="2.56184">
        <ele>105</ele>
        <time>2020-12-10T14:11:11.597Z</time>
      </trkpt>
      <trkpt lat="48.74719" lon="2.56178">
        <ele>105</ele>
        <time>2020-12-10T14:11:16.596Z</time>
      </trkpt>
      <trkpt lat="48.74713" lon="2.56173">
        <ele>105</ele>
        <time>2020-12-10T14:11:21.592Z</time>
      </trkpt>
      <trkpt lat="48.74705" lon="2.56165">
        <ele>106</ele>
        <time>2020-12-10T14:11:26.583Z</time>
      </trkpt>
      <trkpt lat="48.74699" lon="2.56161">
        <ele>106</ele>
        <time>2020-12-10T14:11:31.583Z</time>
      </trkpt>
      <trkpt lat="48.74693" lon="2.56155">
        <ele>106</ele>
        <time>2020-12-10T14:11:36.613Z</time>
      </trkpt>
      <trkpt lat="48.74686" lon="2.56148">
        <ele>106</ele>
        <time>2020-12-10T14:11:41.578Z</time>
      </trkpt>
      <trkpt lat="48.7468" lon="2.56145">
        <ele>105</ele>
        <time>2020-12-10T14:11:46.601Z</time>
      </trkpt>
      <trkpt lat="48.74673" lon="2.56141">
        <ele>105</ele>
        <time>2020-12-10T14:11:51.574Z</time>
      </trkpt>
      <trkpt lat="48.74666" lon="2.56131">
        <ele>105</ele>
        <time>2020-12-10T14:11:56.592Z</time>
      </trkpt>
      <trkpt lat="48.74662" lon="2.56124">
        <ele>104</ele>
        <time>2020-12-10T14:12:01.584Z</time>
      </trkpt>
      <trkpt lat="48.74656" lon="2.56121">
        <ele>104</ele>
        <time>2020-12-10T14:12:06.582Z</time>
      </trkpt>
      <trkpt lat="48.74648" lon="2.56117">
        <ele>103</ele>
        <time>2020-12-10T14:12:11.584Z</time>
      </trkpt>
      <trkpt lat="48.74642" lon="2.56111">
        <ele>103</ele>
        <time>2020-12-10T14:12:16.584Z</time>
      </trkpt>
      <trkpt lat="48.74635" lon="2.56102">
        <ele>103</ele>
        <time>2020-12-10T14:12:21.590Z</time>
      </trkpt>
      <trkpt lat="48.7463" lon="2.56097">
        <ele>103</ele>
        <time>2020-12-10T14:12:26.587Z</time>
      </trkpt>
      <trkpt lat="48.74625" lon="2.56095">
        <ele>103</ele>
        <time>2020-12-10T14:12:30.601Z</time>
      </trkpt>
      <trkpt lat="48.74618" lon="2.56089">
        <ele>102</ele>
        <time>2020-12-10T14:12:35.587Z</time>
      </trkpt>
      <trkpt lat="48.74612" lon="2.56084">
        <ele>102</ele>
        <time>2020-12-10T14:12:40.589Z</time>
      </trkpt>
      <trkpt lat="48.74606" lon="2.56077">
        <ele>102</ele>
        <time>2020-12-10T14:12:45.585Z</time>
      </trkpt>
      <trkpt lat="48.746" lon="2.56069">
        <ele>103</ele>
        <time>2020-12-10T14:12:50.586Z</time>
      </trkpt>
      <trkpt lat="48.74593" lon="2.56068">
        <ele>102</ele>
        <time>2020-12-10T14:12:55.580Z</time>
      </trkpt>
      <trkpt lat="48.74589" lon="2.56061">
        <ele>102</ele>
        <time>2020-12-10T14:12:59.612Z</time>
      </trkpt>
      <trkpt lat="48.74586" lon="2.56051">
        <ele>102</ele>
        <time>2020-12-10T14:13:04.582Z</time>
      </trkpt>
      <trkpt lat="48.74584" lon="2.56043">
        <ele>102</ele>
        <time>2020-12-10T14:13:08.614Z</time>
      </trkpt>
      <trkpt lat="48.74581" lon="2.56033">
        <ele>103</ele>
        <time>2020-12-10T14:13:13.576Z</time>
      </trkpt>
      <trkpt lat="48.74582" lon="2.56022">
        <ele>103</ele>
        <time>2020-12-10T14:13:18.579Z</time>
      </trkpt>
      <trkpt lat="48.74581" lon="2.56014">
        <ele>103</ele>
        <time>2020-12-10T14:13:23.591Z</time>
      </trkpt>
      <trkpt lat="48.74583" lon="2.56005">
        <ele>103</ele>
        <time>2020-12-10T14:13:28.586Z</time>
      </trkpt>
      <trkpt lat="48.74582" lon="2.55995">
        <ele>103</ele>
        <time>2020-12-10T14:13:33.573Z</time>
      </trkpt>
      <trkpt lat="48.74578" lon="2.55981">
        <ele>103</ele>
        <time>2020-12-10T14:13:38.596Z</time>
      </trkpt>
      <trkpt lat="48.74579" lon="2.55971">
        <ele>103</ele>
        <time>2020-12-10T14:13:43.583Z</time>
      </trkpt>
      <trkpt lat="48.74579" lon="2.55965">
        <ele>103</ele>
        <time>2020-12-10T14:13:47.609Z</time>
      </trkpt>
      <trkpt lat="48.74579" lon="2.55954">
        <ele>103</ele>
        <time>2020-12-10T14:13:52.591Z</time>
      </trkpt>
      <trkpt lat="48.74578" lon="2.55944">
        <ele>103</ele>
        <time>2020-12-10T14:13:57.583Z</time>
      </trkpt>
      <trkpt lat="48.74577" lon="2.55934">
        <ele>103</ele>
        <time>2020-12-10T14:14:02.595Z</time>
      </trkpt>
      <trkpt lat="48.74579" lon="2.55924">
        <ele>103</ele>
        <time>2020-12-10T14:14:07.581Z</time>
      </trkpt>
      <trkpt lat="48.74579" lon="2.55916">
        <ele>103</ele>
        <time>2020-12-10T14:14:12.587Z</time>
      </trkpt>
      <trkpt lat="48.74577" lon="2.55904">
        <ele>103</ele>
        <time>2020-12-10T14:14:16.599Z</time>
      </trkpt>
      <trkpt lat="48.74571" lon="2.55892">
        <ele>103</ele>
        <time>2020-12-10T14:14:21.590Z</time>
      </trkpt>
      <trkpt lat="48.74565" lon="2.55895">
        <ele>101</ele>
        <time>2020-12-10T14:14:26.613Z</time>
      </trkpt>
      <trkpt lat="48.74561" lon="2.55906">
        <ele>101</ele>
        <time>2020-12-10T14:14:31.586Z</time>
      </trkpt>
      <trkpt lat="48.74557" lon="2.55912">
        <ele>101</ele>
        <time>2020-12-10T14:14:36.598Z</time>
      </trkpt>
      <trkpt lat="48.74552" lon="2.5592">
        <ele>101</ele>
        <time>2020-12-10T14:14:41.583Z</time>
      </trkpt>
      <trkpt lat="48.74549" lon="2.55928">
        <ele>101</ele>
        <time>2020-12-10T14:14:46.595Z</time>
      </trkpt>
      <trkpt lat="48.74545" lon="2.55935">
        <ele>100</ele>
        <time>2020-12-10T14:14:51.584Z</time>
      </trkpt>
      <trkpt lat="48.74539" lon="2.55942">
        <ele>98</ele>
        <time>2020-12-10T14:14:56.571Z</time>
      </trkpt>
      <trkpt lat="48.74533" lon="2.55942">
        <ele>98</ele>
        <time>2020-12-10T14:15:00.587Z</time>
      </trkpt>
      <trkpt lat="48.74532" lon="2.55941">
        <ele>98</ele>
        <time>2020-12-10T14:15:05.588Z</time>
      </trkpt>
      <trkpt lat="48.74527" lon="2.55936">
        <ele>98</ele>
        <time>2020-12-10T14:15:10.587Z</time>
      </trkpt>
      <trkpt lat="48.74521" lon="2.55926">
        <ele>98</ele>
        <time>2020-12-10T14:15:15.583Z</time>
      </trkpt>
      <trkpt lat="48.74515" lon="2.55918">
        <ele>98</ele>
        <time>2020-12-10T14:15:20.602Z</time>
      </trkpt>
      <trkpt lat="48.74509" lon="2.55912">
        <ele>98</ele>
        <time>2020-12-10T14:15:25.590Z</time>
      </trkpt>
      <trkpt lat="48.74502" lon="2.55903">
        <ele>98</ele>
        <time>2020-12-10T14:15:30.590Z</time>
      </trkpt>
      <trkpt lat="48.74498" lon="2.55898">
        <ele>98</ele>
        <time>2020-12-10T14:15:35.586Z</time>
      </trkpt>
      <trkpt lat="48.74493" lon="2.55892">
        <ele>98</ele>
        <time>2020-12-10T14:15:40.599Z</time>
      </trkpt>
      <trkpt lat="48.74489" lon="2.5589">
        <ele>98</ele>
        <time>2020-12-10T14:15:45.584Z</time>
      </trkpt>
      <trkpt lat="48.74484" lon="2.55882">
        <ele>98</ele>
        <time>2020-12-10T14:15:50.588Z</time>
      </trkpt>
      <trkpt lat="48.7448" lon="2.55877">
        <ele>98</ele>
        <time>2020-12-10T14:15:55.582Z</time>
      </trkpt>
      <trkpt lat="48.74473" lon="2.55871">
        <ele>97</ele>
        <time>2020-12-10T14:16:00.586Z</time>
      </trkpt>
      <trkpt lat="48.74467" lon="2.55864">
        <ele>97</ele>
        <time>2020-12-10T14:16:05.576Z</time>
      </trkpt>
      <trkpt lat="48.74463" lon="2.55857">
        <ele>97</ele>
        <time>2020-12-10T14:16:09.587Z</time>
      </trkpt>
      <trkpt lat="48.74457" lon="2.55848">
        <ele>96</ele>
        <time>2020-12-10T14:16:14.589Z</time>
      </trkpt>
      <trkpt lat="48.74453" lon="2.55842">
        <ele>96</ele>
        <time>2020-12-10T14:16:18.610Z</time>
      </trkpt>
      <trkpt lat="48.74447" lon="2.55836">
        <ele>96</ele>
        <time>2020-12-10T14:16:23.577Z</time>
      </trkpt>
      <trkpt lat="48.74442" lon="2.55829">
        <ele>96</ele>
        <time>2020-12-10T14:16:28.594Z</time>
      </trkpt>
      <trkpt lat="48.74437" lon="2.55823">
        <ele>96</ele>
        <time>2020-12-10T14:16:33.597Z</time>
      </trkpt>
      <trkpt lat="48.74431" lon="2.55818">
        <ele>96</ele>
        <time>2020-12-10T14:16:38.588Z</time>
      </trkpt>
      <trkpt lat="48.74426" lon="2.55814">
        <ele>96</ele>
        <time>2020-12-10T14:16:43.593Z</time>
      </trkpt>
      <trkpt lat="48.7442" lon="2.55811">
        <ele>96</ele>
        <time>2020-12-10T14:16:48.593Z</time>
      </trkpt>
      <trkpt lat="48.74413" lon="2.55814">
        <ele>96</ele>
        <time>2020-12-10T14:16:53.587Z</time>
      </trkpt>
      <trkpt lat="48.74404" lon="2.55815">
        <ele>96</ele>
        <time>2020-12-10T14:16:58.591Z</time>
      </trkpt>
      <trkpt lat="48.744" lon="2.55815">
        <ele>96</ele>
        <time>2020-12-10T14:17:03.591Z</time>
      </trkpt>
      <trkpt lat="48.74393" lon="2.55818">
        <ele>96</ele>
        <time>2020-12-10T14:17:08.593Z</time>
      </trkpt>
      <trkpt lat="48.74384" lon="2.5582">
        <ele>97</ele>
        <time>2020-12-10T14:17:13.578Z</time>
      </trkpt>
      <trkpt lat="48.74378" lon="2.55819">
        <ele>96</ele>
        <time>2020-12-10T14:17:17.590Z</time>
      </trkpt>
      <trkpt lat="48.74373" lon="2.55823">
        <ele>97</ele>
        <time>2020-12-10T14:17:22.591Z</time>
      </trkpt>
      <trkpt lat="48.74369" lon="2.55825">
        <ele>97</ele>
        <time>2020-12-10T14:17:27.587Z</time>
      </trkpt>
      <trkpt lat="48.74363" lon="2.55825">
        <ele>97</ele>
        <time>2020-12-10T14:17:32.600Z</time>
      </trkpt>
      <trkpt lat="48.74356" lon="2.55829">
        <ele>97</ele>
        <time>2020-12-10T14:17:37.586Z</time>
      </trkpt>
      <trkpt lat="48.74351" lon="2.55831">
        <ele>97</ele>
        <time>2020-12-10T14:17:42.581Z</time>
      </trkpt>
      <trkpt lat="48.74347" lon="2.55832">
        <ele>98</ele>
        <time>2020-12-10T14:17:47.590Z</time>
      </trkpt>
      <trkpt lat="48.74345" lon="2.55836">
        <ele>98</ele>
        <time>2020-12-10T14:17:52.586Z</time>
      </trkpt>
      <trkpt lat="48.74338" lon="2.55844">
        <ele>98</ele>
        <time>2020-12-10T14:17:57.580Z</time>
      </trkpt>
      <trkpt lat="48.74335" lon="2.55849">
        <ele>98</ele>
        <time>2020-12-10T14:18:01.593Z</time>
      </trkpt>
      <trkpt lat="48.74326" lon="2.55858">
        <ele>98</ele>
        <time>2020-12-10T14:18:06.590Z</time>
      </trkpt>
      <trkpt lat="48.74316" lon="2.55863">
        <ele>97</ele>
        <time>2020-12-10T14:18:11.587Z</time>
      </trkpt>
      <trkpt lat="48.74312" lon="2.55869">
        <ele>97</ele>
        <time>2020-12-10T14:18:16.597Z</time>
      </trkpt>
      <trkpt lat="48.74306" lon="2.55876">
        <ele>97</ele>
        <time>2020-12-10T14:18:21.589Z</time>
      </trkpt>
      <trkpt lat="48.74299" lon="2.55882">
        <ele>97</ele>
        <time>2020-12-10T14:18:26.600Z</time>
      </trkpt>
      <trkpt lat="48.74293" lon="2.55887">
        <ele>97</ele>
        <time>2020-12-10T14:18:31.601Z</time>
      </trkpt>
      <trkpt lat="48.74286" lon="2.55893">
        <ele>97</ele>
        <time>2020-12-10T14:18:36.585Z</time>
      </trkpt>
      <trkpt lat="48.74282" lon="2.55895">
        <ele>97</ele>
        <time>2020-12-10T14:18:41.588Z</time>
      </trkpt>
      <trkpt lat="48.74275" lon="2.55901">
        <ele>97</ele>
        <time>2020-12-10T14:18:46.594Z</time>
      </trkpt>
      <trkpt lat="48.74269" lon="2.55904">
        <ele>97</ele>
        <time>2020-12-10T14:18:51.585Z</time>
      </trkpt>
      <trkpt lat="48.74263" lon="2.55904">
        <ele>97</ele>
        <time>2020-12-10T14:18:56.593Z</time>
      </trkpt>
      <trkpt lat="48.74256" lon="2.55903">
        <ele>97</ele>
        <time>2020-12-10T14:19:01.586Z</time>
      </trkpt>
      <trkpt lat="48.74251" lon="2.55904">
        <ele>97</ele>
        <time>2020-12-10T14:19:05.592Z</time>
      </trkpt>
      <trkpt lat="48.74244" lon="2.55904">
        <ele>97</ele>
        <time>2020-12-10T14:19:10.600Z</time>
      </trkpt>
      <trkpt lat="48.74235" lon="2.55905">
        <ele>97</ele>
        <time>2020-12-10T14:19:15.582Z</time>
      </trkpt>
      <trkpt lat="48.74229" lon="2.55906">
        <ele>97</ele>
        <time>2020-12-10T14:19:20.595Z</time>
      </trkpt>
      <trkpt lat="48.74222" lon="2.55907">
        <ele>97</ele>
        <time>2020-12-10T14:19:25.581Z</time>
      </trkpt>
      <trkpt lat="48.74214" lon="2.55907">
        <ele>97</ele>
        <time>2020-12-10T14:19:30.601Z</time>
      </trkpt>
      <trkpt lat="48.74206" lon="2.55909">
        <ele>97</ele>
        <time>2020-12-10T14:19:35.585Z</time>
      </trkpt>
      <trkpt lat="48.74198" lon="2.55912">
        <ele>97</ele>
        <time>2020-12-10T14:19:40.604Z</time>
      </trkpt>
      <trkpt lat="48.74192" lon="2.55913">
        <ele>97</ele>
        <time>2020-12-10T14:19:45.584Z</time>
      </trkpt>
      <trkpt lat="48.74184" lon="2.55913">
        <ele>97</ele>
        <time>2020-12-10T14:19:50.605Z</time>
      </trkpt>
      <trkpt lat="48.74177" lon="2.55914">
        <ele>98</ele>
        <time>2020-12-10T14:19:55.579Z</time>
      </trkpt>
      <trkpt lat="48.74169" lon="2.55913">
        <ele>98</ele>
        <time>2020-12-10T14:20:00.598Z</time>
      </trkpt>
      <trkpt lat="48.7416" lon="2.5591">
        <ele>98</ele>
        <time>2020-12-10T14:20:05.585Z</time>
      </trkpt>
      <trkpt lat="48.74151" lon="2.55909">
        <ele>97</ele>
        <time>2020-12-10T14:20:10.606Z</time>
      </trkpt>
      <trkpt lat="48.74146" lon="2.55906">
        <ele>97</ele>
        <time>2020-12-10T14:20:15.580Z</time>
      </trkpt>
      <trkpt lat="48.74139" lon="2.55907">
        <ele>97</ele>
        <time>2020-12-10T14:20:20.600Z</time>
      </trkpt>
      <trkpt lat="48.74132" lon="2.55911">
        <ele>97</ele>
        <time>2020-12-10T14:20:25.584Z</time>
      </trkpt>
      <trkpt lat="48.74125" lon="2.55912">
        <ele>97</ele>
        <time>2020-12-10T14:20:30.600Z</time>
      </trkpt>
      <trkpt lat="48.7412" lon="2.55912">
        <ele>98</ele>
        <time>2020-12-10T14:20:35.580Z</time>
      </trkpt>
      <trkpt lat="48.74113" lon="2.55912">
        <ele>98</ele>
        <time>2020-12-10T14:20:40.591Z</time>
      </trkpt>
      <trkpt lat="48.74107" lon="2.5591">
        <ele>98</ele>
        <time>2020-12-10T14:20:44.619Z</time>
      </trkpt>
      <trkpt lat="48.741" lon="2.55908">
        <ele>98</ele>
        <time>2020-12-10T14:20:49.575Z</time>
      </trkpt>
      <trkpt lat="48.74095" lon="2.559">
        <ele>98</ele>
        <time>2020-12-10T14:20:54.598Z</time>
      </trkpt>
      <trkpt lat="48.74089" lon="2.55894">
        <ele>98</ele>
        <time>2020-12-10T14:20:59.577Z</time>
      </trkpt>
      <trkpt lat="48.74083" lon="2.5589">
        <ele>98</ele>
        <time>2020-12-10T14:21:03.606Z</time>
      </trkpt>
      <trkpt lat="48.74077" lon="2.55884">
        <ele>98</ele>
        <time>2020-12-10T14:21:08.588Z</time>
      </trkpt>
      <trkpt lat="48.74072" lon="2.55881">
        <ele>98</ele>
        <time>2020-12-10T14:21:13.577Z</time>
      </trkpt>
      <trkpt lat="48.74064" lon="2.55878">
        <ele>97</ele>
        <time>2020-12-10T14:21:18.597Z</time>
      </trkpt>
      <trkpt lat="48.74057" lon="2.55875">
        <ele>97</ele>
        <time>2020-12-10T14:21:23.580Z</time>
      </trkpt>
      <trkpt lat="48.74051" lon="2.55873">
        <ele>97</ele>
        <time>2020-12-10T14:21:28.594Z</time>
      </trkpt>
      <trkpt lat="48.74044" lon="2.55872">
        <ele>97</ele>
        <time>2020-12-10T14:21:33.589Z</time>
      </trkpt>
      <trkpt lat="48.74036" lon="2.55872">
        <ele>96</ele>
        <time>2020-12-10T14:21:38.595Z</time>
      </trkpt>
      <trkpt lat="48.74029" lon="2.55872">
        <ele>96</ele>
        <time>2020-12-10T14:21:43.578Z</time>
      </trkpt>
      <trkpt lat="48.74023" lon="2.55873">
        <ele>96</ele>
        <time>2020-12-10T14:21:48.595Z</time>
      </trkpt>
      <trkpt lat="48.74016" lon="2.55875">
        <ele>96</ele>
        <time>2020-12-10T14:21:53.584Z</time>
      </trkpt>
      <trkpt lat="48.7401" lon="2.55877">
        <ele>97</ele>
        <time>2020-12-10T14:21:58.604Z</time>
      </trkpt>
      <trkpt lat="48.74004" lon="2.55878">
        <ele>97</ele>
        <time>2020-12-10T14:22:03.579Z</time>
      </trkpt>
      <trkpt lat="48.73996" lon="2.5588">
        <ele>97</ele>
        <time>2020-12-10T14:22:08.596Z</time>
      </trkpt>
      <trkpt lat="48.73989" lon="2.55881">
        <ele>97</ele>
        <time>2020-12-10T14:22:13.588Z</time>
      </trkpt>
      <trkpt lat="48.73981" lon="2.55882">
        <ele>98</ele>
        <time>2020-12-10T14:22:18.602Z</time>
      </trkpt>
      <trkpt lat="48.73974" lon="2.55882">
        <ele>98</ele>
        <time>2020-12-10T14:22:23.582Z</time>
      </trkpt>
      <trkpt lat="48.73969" lon="2.55881">
        <ele>98</ele>
        <time>2020-12-10T14:22:27.593Z</time>
      </trkpt>
      <trkpt lat="48.73963" lon="2.5588">
        <ele>98</ele>
        <time>2020-12-10T14:22:32.594Z</time>
      </trkpt>
      <trkpt lat="48.73958" lon="2.55879">
        <ele>98</ele>
        <time>2020-12-10T14:22:36.612Z</time>
      </trkpt>
      <trkpt lat="48.73951" lon="2.55876">
        <ele>98</ele>
        <time>2020-12-10T14:22:41.592Z</time>
      </trkpt>
      <trkpt lat="48.73943" lon="2.5587">
        <ele>99</ele>
        <time>2020-12-10T14:22:46.601Z</time>
      </trkpt>
      <trkpt lat="48.73938" lon="2.55866">
        <ele>99</ele>
        <time>2020-12-10T14:22:51.585Z</time>
      </trkpt>
      <trkpt lat="48.73933" lon="2.55859">
        <ele>99</ele>
        <time>2020-12-10T14:22:56.607Z</time>
      </trkpt>
      <trkpt lat="48.73928" lon="2.55848">
        <ele>99</ele>
        <time>2020-12-10T14:23:01.580Z</time>
      </trkpt>
      <trkpt lat="48.73924" lon="2.55837">
        <ele>99</ele>
        <time>2020-12-10T14:23:06.586Z</time>
      </trkpt>
      <trkpt lat="48.73919" lon="2.55828">
        <ele>99</ele>
        <time>2020-12-10T14:23:11.586Z</time>
      </trkpt>
      <trkpt lat="48.73915" lon="2.55819">
        <ele>98</ele>
        <time>2020-12-10T14:23:16.594Z</time>
      </trkpt>
      <trkpt lat="48.73914" lon="2.55811">
        <ele>98</ele>
        <time>2020-12-10T14:23:21.587Z</time>
      </trkpt>
      <trkpt lat="48.7391" lon="2.55802">
        <ele>98</ele>
        <time>2020-12-10T14:23:26.589Z</time>
      </trkpt>
      <trkpt lat="48.73909" lon="2.558">
        <ele>98</ele>
        <time>2020-12-10T14:23:30.657Z</time>
      </trkpt>
      <trkpt lat="48.73904" lon="2.55788">
        <ele>97</ele>
        <time>2020-12-10T14:23:35.584Z</time>
      </trkpt>
      <trkpt lat="48.739" lon="2.5578">
        <ele>96</ele>
        <time>2020-12-10T14:23:40.597Z</time>
      </trkpt>
      <trkpt lat="48.73898" lon="2.55775">
        <ele>96</ele>
        <time>2020-12-10T14:23:45.584Z</time>
      </trkpt>
      <trkpt lat="48.73895" lon="2.55765">
        <ele>96</ele>
        <time>2020-12-10T14:23:50.605Z</time>
      </trkpt>
      <trkpt lat="48.73893" lon="2.55753">
        <ele>95</ele>
        <time>2020-12-10T14:23:55.587Z</time>
      </trkpt>
      <trkpt lat="48.73888" lon="2.55743">
        <ele>95</ele>
        <time>2020-12-10T14:24:00.587Z</time>
      </trkpt>
      <trkpt lat="48.73886" lon="2.55737">
        <ele>95</ele>
        <time>2020-12-10T14:24:04.613Z</time>
      </trkpt>
      <trkpt lat="48.73884" lon="2.55726">
        <ele>95</ele>
        <time>2020-12-10T14:24:09.588Z</time>
      </trkpt>
      <trkpt lat="48.73883" lon="2.55717">
        <ele>95</ele>
        <time>2020-12-10T14:24:14.620Z</time>
      </trkpt>
      <trkpt lat="48.73881" lon="2.5571">
        <ele>95</ele>
        <time>2020-12-10T14:24:19.588Z</time>
      </trkpt>
      <trkpt lat="48.73879" lon="2.55701">
        <ele>96</ele>
        <time>2020-12-10T14:24:24.610Z</time>
      </trkpt>
      <trkpt lat="48.73874" lon="2.55694">
        <ele>95</ele>
        <time>2020-12-10T14:24:29.588Z</time>
      </trkpt>
      <trkpt lat="48.73867" lon="2.55688">
        <ele>95</ele>
        <time>2020-12-10T14:24:39.589Z</time>
      </trkpt>
      <trkpt lat="48.73866" lon="2.55687">
        <ele>95</ele>
        <time>2020-12-10T14:24:44.615Z</time>
      </trkpt>
      <trkpt lat="48.73866" lon="2.55686">
        <ele>95</ele>
        <time>2020-12-10T14:24:49.601Z</time>
      </trkpt>
      <trkpt lat="48.73864" lon="2.5568">
        <ele>95</ele>
        <time>2020-12-10T14:24:53.586Z</time>
      </trkpt>
      <trkpt lat="48.73866" lon="2.55655">
        <ele>95</ele>
        <time>2020-12-10T14:24:58.605Z</time>
      </trkpt>
      <trkpt lat="48.73868" lon="2.55633">
        <ele>95</ele>
        <time>2020-12-10T14:25:03.600Z</time>
      </trkpt>
      <trkpt lat="48.73867" lon="2.55617">
        <ele>95</ele>
        <time>2020-12-10T14:25:08.607Z</time>
      </trkpt>
      <trkpt lat="48.73867" lon="2.55602">
        <ele>95</ele>
        <time>2020-12-10T14:25:13.583Z</time>
      </trkpt>
      <trkpt lat="48.73865" lon="2.55589">
        <ele>95</ele>
        <time>2020-12-10T14:25:18.592Z</time>
      </trkpt>
      <trkpt lat="48.73862" lon="2.5558">
        <ele>95</ele>
        <time>2020-12-10T14:25:22.607Z</time>
      </trkpt>
      <trkpt lat="48.73862" lon="2.55573">
        <ele>95</ele>
        <time>2020-12-10T14:25:27.636Z</time>
      </trkpt>
      <trkpt lat="48.73859" lon="2.55565">
        <ele>95</ele>
        <time>2020-12-10T14:25:32.624Z</time>
      </trkpt>
      <trkpt lat="48.73857" lon="2.55554">
        <ele>95</ele>
        <time>2020-12-10T14:25:37.586Z</time>
      </trkpt>
      <trkpt lat="48.73854" lon="2.55544">
        <ele>95</ele>
        <time>2020-12-10T14:25:42.609Z</time>
      </trkpt>
      <trkpt lat="48.73853" lon="2.55537">
        <ele>95</ele>
        <time>2020-12-10T14:25:47.600Z</time>
      </trkpt>
      <trkpt lat="48.7385" lon="2.55528">
        <ele>95</ele>
        <time>2020-12-10T14:25:52.604Z</time>
      </trkpt>
      <trkpt lat="48.73847" lon="2.55516">
        <ele>95</ele>
        <time>2020-12-10T14:25:57.638Z</time>
      </trkpt>
      <trkpt lat="48.73843" lon="2.55501">
        <ele>94</ele>
        <time>2020-12-10T14:26:02.609Z</time>
      </trkpt>
      <trkpt lat="48.73837" lon="2.55492">
        <ele>94</ele>
        <time>2020-12-10T14:26:07.594Z</time>
      </trkpt>
      <trkpt lat="48.73831" lon="2.55481">
        <ele>94</ele>
        <time>2020-12-10T14:26:12.606Z</time>
      </trkpt>
      <trkpt lat="48.73826" lon="2.55473">
        <ele>94</ele>
        <time>2020-12-10T14:26:17.583Z</time>
      </trkpt>
      <trkpt lat="48.73821" lon="2.55465">
        <ele>94</ele>
        <time>2020-12-10T14:26:22.599Z</time>
      </trkpt>
      <trkpt lat="48.73816" lon="2.55458">
        <ele>94</ele>
        <time>2020-12-10T14:26:27.598Z</time>
      </trkpt>
      <trkpt lat="48.73811" lon="2.55451">
        <ele>94</ele>
        <time>2020-12-10T14:26:32.606Z</time>
      </trkpt>
      <trkpt lat="48.73806" lon="2.55443">
        <ele>94</ele>
        <time>2020-12-10T14:26:37.594Z</time>
      </trkpt>
      <trkpt lat="48.73801" lon="2.55435">
        <ele>94</ele>
        <time>2020-12-10T14:26:42.603Z</time>
      </trkpt>
      <trkpt lat="48.73796" lon="2.55428">
        <ele>95</ele>
        <time>2020-12-10T14:26:47.592Z</time>
      </trkpt>
      <trkpt lat="48.73791" lon="2.55422">
        <ele>94</ele>
        <time>2020-12-10T14:26:52.588Z</time>
      </trkpt>
      <trkpt lat="48.73785" lon="2.55415">
        <ele>94</ele>
        <time>2020-12-10T14:26:57.596Z</time>
      </trkpt>
      <trkpt lat="48.73782" lon="2.55408">
        <ele>94</ele>
        <time>2020-12-10T14:27:02.604Z</time>
      </trkpt>
      <trkpt lat="48.73779" lon="2.55402">
        <ele>95</ele>
        <time>2020-12-10T14:27:06.630Z</time>
      </trkpt>
      <trkpt lat="48.73775" lon="2.55392">
        <ele>95</ele>
        <time>2020-12-10T14:27:11.588Z</time>
      </trkpt>
      <trkpt lat="48.73772" lon="2.55383">
        <ele>95</ele>
        <time>2020-12-10T14:27:16.599Z</time>
      </trkpt>
      <trkpt lat="48.73768" lon="2.55377">
        <ele>95</ele>
        <time>2020-12-10T14:27:21.578Z</time>
      </trkpt>
      <trkpt lat="48.73763" lon="2.55373">
        <ele>95</ele>
        <time>2020-12-10T14:27:26.605Z</time>
      </trkpt>
      <trkpt lat="48.73754" lon="2.55369">
        <ele>95</ele>
        <time>2020-12-10T14:27:31.604Z</time>
      </trkpt>
      <trkpt lat="48.73751" lon="2.55365">
        <ele>95</ele>
        <time>2020-12-10T14:27:36.598Z</time>
      </trkpt>
      <trkpt lat="48.73745" lon="2.55365">
        <ele>95</ele>
        <time>2020-12-10T14:27:41.601Z</time>
      </trkpt>
      <trkpt lat="48.73739" lon="2.55361">
        <ele>95</ele>
        <time>2020-12-10T14:27:46.610Z</time>
      </trkpt>
      <trkpt lat="48.73735" lon="2.55361">
        <ele>94</ele>
        <time>2020-12-10T14:27:51.593Z</time>
      </trkpt>
      <trkpt lat="48.73732" lon="2.55362">
        <ele>94</ele>
        <time>2020-12-10T14:27:55.668Z</time>
      </trkpt>
      <trkpt lat="48.73721" lon="2.55362">
        <ele>94</ele>
        <time>2020-12-10T14:31:18.588Z</time>
      </trkpt>
      <trkpt lat="48.73721" lon="2.55363">
        <ele>94</ele>
        <time>2020-12-10T14:31:23.600Z</time>
      </trkpt>
      <trkpt lat="48.73719" lon="2.55361">
        <ele>94</ele>
        <time>2020-12-10T14:31:28.600Z</time>
      </trkpt>
      <trkpt lat="48.73716" lon="2.55354">
        <ele>94</ele>
        <time>2020-12-10T14:31:33.602Z</time>
      </trkpt>
      <trkpt lat="48.73715" lon="2.55349">
        <ele>94</ele>
        <time>2020-12-10T14:31:38.595Z</time>
      </trkpt>
      <trkpt lat="48.73714" lon="2.5534">
        <ele>94</ele>
        <time>2020-12-10T14:31:43.607Z</time>
      </trkpt>
      <trkpt lat="48.73709" lon="2.55334">
        <ele>94</ele>
        <time>2020-12-10T14:31:48.605Z</time>
      </trkpt>
      <trkpt lat="48.73704" lon="2.55331">
        <ele>94</ele>
        <time>2020-12-10T14:31:53.607Z</time>
      </trkpt>
      <trkpt lat="48.73699" lon="2.55328">
        <ele>94</ele>
        <time>2020-12-10T14:31:58.627Z</time>
      </trkpt>
      <trkpt lat="48.73696" lon="2.55321">
        <ele>94</ele>
        <time>2020-12-10T14:32:03.621Z</time>
      </trkpt>
      <trkpt lat="48.73693" lon="2.55315">
        <ele>95</ele>
        <time>2020-12-10T14:32:08.601Z</time>
      </trkpt>
      <trkpt lat="48.73691" lon="2.55308">
        <ele>95</ele>
        <time>2020-12-10T14:32:13.617Z</time>
      </trkpt>
      <trkpt lat="48.73689" lon="2.553">
        <ele>95</ele>
        <time>2020-12-10T14:32:18.606Z</time>
      </trkpt>
      <trkpt lat="48.73686" lon="2.55293">
        <ele>95</ele>
        <time>2020-12-10T14:32:23.626Z</time>
      </trkpt>
      <trkpt lat="48.73684" lon="2.55285">
        <ele>95</ele>
        <time>2020-12-10T14:32:28.611Z</time>
      </trkpt>
      <trkpt lat="48.73683" lon="2.55278">
        <ele>95</ele>
        <time>2020-12-10T14:32:33.622Z</time>
      </trkpt>
      <trkpt lat="48.73681" lon="2.55271">
        <ele>95</ele>
        <time>2020-12-10T14:32:38.610Z</time>
      </trkpt>
      <trkpt lat="48.73677" lon="2.55263">
        <ele>94</ele>
        <time>2020-12-10T14:32:43.612Z</time>
      </trkpt>
      <trkpt lat="48.73674" lon="2.55257">
        <ele>94</ele>
        <time>2020-12-10T14:32:48.614Z</time>
      </trkpt>
      <trkpt lat="48.73669" lon="2.55251">
        <ele>94</ele>
        <time>2020-12-10T14:32:53.600Z</time>
      </trkpt>
      <trkpt lat="48.73662" lon="2.55242">
        <ele>94</ele>
        <time>2020-12-10T14:32:58.607Z</time>
      </trkpt>
      <trkpt lat="48.73659" lon="2.55236">
        <ele>92</ele>
        <time>2020-12-10T14:33:03.634Z</time>
      </trkpt>
      <trkpt lat="48.73653" lon="2.55227">
        <ele>92</ele>
        <time>2020-12-10T14:33:08.618Z</time>
      </trkpt>
      <trkpt lat="48.73649" lon="2.55222">
        <ele>92</ele>
        <time>2020-12-10T14:33:13.593Z</time>
      </trkpt>
      <trkpt lat="48.73645" lon="2.55215">
        <ele>92</ele>
        <time>2020-12-10T14:33:18.612Z</time>
      </trkpt>
      <trkpt lat="48.73641" lon="2.55208">
        <ele>91</ele>
        <time>2020-12-10T14:33:23.623Z</time>
      </trkpt>
      <trkpt lat="48.73636" lon="2.55203">
        <ele>91</ele>
        <time>2020-12-10T14:33:28.588Z</time>
      </trkpt>
      <trkpt lat="48.73632" lon="2.55197">
        <ele>91</ele>
        <time>2020-12-10T14:33:33.612Z</time>
      </trkpt>
      <trkpt lat="48.73626" lon="2.5519">
        <ele>91</ele>
        <time>2020-12-10T14:33:38.604Z</time>
      </trkpt>
      <trkpt lat="48.73621" lon="2.55183">
        <ele>92</ele>
        <time>2020-12-10T14:33:43.616Z</time>
      </trkpt>
      <trkpt lat="48.73619" lon="2.55179">
        <ele>92</ele>
        <time>2020-12-10T14:33:47.655Z</time>
      </trkpt>
      <trkpt lat="48.73613" lon="2.55172">
        <ele>92</ele>
        <time>2020-12-10T14:33:52.610Z</time>
      </trkpt>
      <trkpt lat="48.73609" lon="2.55165">
        <ele>92</ele>
        <time>2020-12-10T14:33:57.612Z</time>
      </trkpt>
      <trkpt lat="48.73603" lon="2.55159">
        <ele>92</ele>
        <time>2020-12-10T14:34:02.613Z</time>
      </trkpt>
      <trkpt lat="48.73597" lon="2.55148">
        <ele>92</ele>
        <time>2020-12-10T14:34:07.612Z</time>
      </trkpt>
      <trkpt lat="48.73592" lon="2.55141">
        <ele>92</ele>
        <time>2020-12-10T14:34:11.631Z</time>
      </trkpt>
      <trkpt lat="48.73586" lon="2.55133">
        <ele>92</ele>
        <time>2020-12-10T14:34:16.615Z</time>
      </trkpt>
      <trkpt lat="48.73582" lon="2.55126">
        <ele>92</ele>
        <time>2020-12-10T14:34:21.616Z</time>
      </trkpt>
      <trkpt lat="48.73578" lon="2.55119">
        <ele>92</ele>
        <time>2020-12-10T14:34:26.613Z</time>
      </trkpt>
      <trkpt lat="48.73574" lon="2.55113">
        <ele>92</ele>
        <time>2020-12-10T14:34:31.621Z</time>
      </trkpt>
      <trkpt lat="48.73566" lon="2.55106">
        <ele>92</ele>
        <time>2020-12-10T14:34:36.619Z</time>
      </trkpt>
      <trkpt lat="48.7356" lon="2.55098">
        <ele>92</ele>
        <time>2020-12-10T14:34:41.620Z</time>
      </trkpt>
      <trkpt lat="48.73556" lon="2.55088">
        <ele>92</ele>
        <time>2020-12-10T14:34:46.604Z</time>
      </trkpt>
      <trkpt lat="48.73552" lon="2.55084">
        <ele>92</ele>
        <time>2020-12-10T14:34:51.615Z</time>
      </trkpt>
      <trkpt lat="48.73549" lon="2.55077">
        <ele>92</ele>
        <time>2020-12-10T14:34:56.611Z</time>
      </trkpt>
      <trkpt lat="48.73544" lon="2.55068">
        <ele>91</ele>
        <time>2020-12-10T14:35:01.622Z</time>
      </trkpt>
      <trkpt lat="48.73539" lon="2.55059">
        <ele>92</ele>
        <time>2020-12-10T14:35:06.632Z</time>
      </trkpt>
      <trkpt lat="48.73535" lon="2.55052">
        <ele>92</ele>
        <time>2020-12-10T14:35:11.612Z</time>
      </trkpt>
      <trkpt lat="48.73532" lon="2.55047">
        <ele>92</ele>
        <time>2020-12-10T14:35:16.610Z</time>
      </trkpt>
      <trkpt lat="48.7353" lon="2.5504">
        <ele>92</ele>
        <time>2020-12-10T14:35:21.593Z</time>
      </trkpt>
      <trkpt lat="48.73529" lon="2.55033">
        <ele>92</ele>
        <time>2020-12-10T14:35:26.583Z</time>
      </trkpt>
      <trkpt lat="48.73527" lon="2.55019">
        <ele>92</ele>
        <time>2020-12-10T14:35:31.604Z</time>
      </trkpt>
      <trkpt lat="48.73526" lon="2.55011">
        <ele>93</ele>
        <time>2020-12-10T14:35:36.589Z</time>
      </trkpt>
      <trkpt lat="48.73524" lon="2.55006">
        <ele>93</ele>
        <time>2020-12-10T14:35:40.616Z</time>
      </trkpt>
      <trkpt lat="48.73523" lon="2.54997">
        <ele>93</ele>
        <time>2020-12-10T14:35:45.607Z</time>
      </trkpt>
      <trkpt lat="48.7352" lon="2.54987">
        <ele>93</ele>
        <time>2020-12-10T14:35:50.593Z</time>
      </trkpt>
      <trkpt lat="48.73517" lon="2.54978">
        <ele>94</ele>
        <time>2020-12-10T14:35:55.609Z</time>
      </trkpt>
      <trkpt lat="48.73515" lon="2.54973">
        <ele>94</ele>
        <time>2020-12-10T14:36:00.602Z</time>
      </trkpt>
      <trkpt lat="48.73511" lon="2.54963">
        <ele>93</ele>
        <time>2020-12-10T14:36:05.623Z</time>
      </trkpt>
      <trkpt lat="48.73508" lon="2.54953">
        <ele>93</ele>
        <time>2020-12-10T14:36:10.598Z</time>
      </trkpt>
      <trkpt lat="48.73505" lon="2.54946">
        <ele>93</ele>
        <time>2020-12-10T14:36:15.589Z</time>
      </trkpt>
      <trkpt lat="48.73503" lon="2.54937">
        <ele>93</ele>
        <time>2020-12-10T14:36:20.599Z</time>
      </trkpt>
      <trkpt lat="48.735" lon="2.54927">
        <ele>92</ele>
        <time>2020-12-10T14:36:25.592Z</time>
      </trkpt>
      <trkpt lat="48.73497" lon="2.54918">
        <ele>92</ele>
        <time>2020-12-10T14:36:30.606Z</time>
      </trkpt>
      <trkpt lat="48.73495" lon="2.54913">
        <ele>92</ele>
        <time>2020-12-10T14:36:35.598Z</time>
      </trkpt>
      <trkpt lat="48.73487" lon="2.5489">
        <ele>91</ele>
        <time>2020-12-10T14:36:54.606Z</time>
      </trkpt>
      <trkpt lat="48.73482" lon="2.54877">
        <ele>91</ele>
        <time>2020-12-10T14:36:59.596Z</time>
      </trkpt>
      <trkpt lat="48.73479" lon="2.54867">
        <ele>91</ele>
        <time>2020-12-10T14:37:04.600Z</time>
      </trkpt>
      <trkpt lat="48.73476" lon="2.54855">
        <ele>91</ele>
        <time>2020-12-10T14:37:09.581Z</time>
      </trkpt>
      <trkpt lat="48.73474" lon="2.54847">
        <ele>91</ele>
        <time>2020-12-10T14:37:13.625Z</time>
      </trkpt>
      <trkpt lat="48.7347" lon="2.54838">
        <ele>91</ele>
        <time>2020-12-10T14:37:18.604Z</time>
      </trkpt>
      <trkpt lat="48.73467" lon="2.54828">
        <ele>91</ele>
        <time>2020-12-10T14:37:23.603Z</time>
      </trkpt>
      <trkpt lat="48.73464" lon="2.54818">
        <ele>91</ele>
        <time>2020-12-10T14:37:28.595Z</time>
      </trkpt>
      <trkpt lat="48.73462" lon="2.54807">
        <ele>91</ele>
        <time>2020-12-10T14:37:33.603Z</time>
      </trkpt>
      <trkpt lat="48.73461" lon="2.54799">
        <ele>91</ele>
        <time>2020-12-10T14:37:38.593Z</time>
      </trkpt>
      <trkpt lat="48.73457" lon="2.54791">
        <ele>90</ele>
        <time>2020-12-10T14:37:43.594Z</time>
      </trkpt>
      <trkpt lat="48.73452" lon="2.54781">
        <ele>90</ele>
        <time>2020-12-10T14:37:48.598Z</time>
      </trkpt>
      <trkpt lat="48.73448" lon="2.54773">
        <ele>90</ele>
        <time>2020-12-10T14:37:53.600Z</time>
      </trkpt>
      <trkpt lat="48.73444" lon="2.54762">
        <ele>90</ele>
        <time>2020-12-10T14:37:58.604Z</time>
      </trkpt>
      <trkpt lat="48.73441" lon="2.54754">
        <ele>90</ele>
        <time>2020-12-10T14:38:03.593Z</time>
      </trkpt>
      <trkpt lat="48.73438" lon="2.54746">
        <ele>90</ele>
        <time>2020-12-10T14:38:08.601Z</time>
      </trkpt>
      <trkpt lat="48.73435" lon="2.54736">
        <ele>90</ele>
        <time>2020-12-10T14:38:13.592Z</time>
      </trkpt>
      <trkpt lat="48.73431" lon="2.54729">
        <ele>90</ele>
        <time>2020-12-10T14:38:18.609Z</time>
      </trkpt>
      <trkpt lat="48.73427" lon="2.54721">
        <ele>90</ele>
        <time>2020-12-10T14:38:23.605Z</time>
      </trkpt>
      <trkpt lat="48.73422" lon="2.54716">
        <ele>90</ele>
        <time>2020-12-10T14:38:28.598Z</time>
      </trkpt>
      <trkpt lat="48.73418" lon="2.54707">
        <ele>91</ele>
        <time>2020-12-10T14:38:33.592Z</time>
      </trkpt>
      <trkpt lat="48.73412" lon="2.54699">
        <ele>91</ele>
        <time>2020-12-10T14:38:38.604Z</time>
      </trkpt>
      <trkpt lat="48.73407" lon="2.54694">
        <ele>91</ele>
        <time>2020-12-10T14:38:43.612Z</time>
      </trkpt>
      <trkpt lat="48.73402" lon="2.54688">
        <ele>91</ele>
        <time>2020-12-10T14:38:48.590Z</time>
      </trkpt>
      <trkpt lat="48.73398" lon="2.54684">
        <ele>91</ele>
        <time>2020-12-10T14:38:52.609Z</time>
      </trkpt>
      <trkpt lat="48.73394" lon="2.5468">
        <ele>91</ele>
        <time>2020-12-10T14:38:57.586Z</time>
      </trkpt>
      <trkpt lat="48.73387" lon="2.54678">
        <ele>91</ele>
        <time>2020-12-10T14:39:02.607Z</time>
      </trkpt>
      <trkpt lat="48.73382" lon="2.54677">
        <ele>91</ele>
        <time>2020-12-10T14:39:07.592Z</time>
      </trkpt>
      <trkpt lat="48.73373" lon="2.54675">
        <ele>91</ele>
        <time>2020-12-10T14:39:12.594Z</time>
      </trkpt>
      <trkpt lat="48.73367" lon="2.54669">
        <ele>91</ele>
        <time>2020-12-10T14:39:17.603Z</time>
      </trkpt>
      <trkpt lat="48.73363" lon="2.54662">
        <ele>91</ele>
        <time>2020-12-10T14:39:22.606Z</time>
      </trkpt>
      <trkpt lat="48.73359" lon="2.54658">
        <ele>91</ele>
        <time>2020-12-10T14:39:27.588Z</time>
      </trkpt>
      <trkpt lat="48.73353" lon="2.54651">
        <ele>90</ele>
        <time>2020-12-10T14:39:32.596Z</time>
      </trkpt>
      <trkpt lat="48.73349" lon="2.54649">
        <ele>90</ele>
        <time>2020-12-10T14:39:37.597Z</time>
      </trkpt>
      <trkpt lat="48.73344" lon="2.54643">
        <ele>89</ele>
        <time>2020-12-10T14:39:42.595Z</time>
      </trkpt>
      <trkpt lat="48.73336" lon="2.54637">
        <ele>89</ele>
        <time>2020-12-10T14:39:47.583Z</time>
      </trkpt>
      <trkpt lat="48.73332" lon="2.54633">
        <ele>89</ele>
        <time>2020-12-10T14:39:52.592Z</time>
      </trkpt>
      <trkpt lat="48.73328" lon="2.5463">
        <ele>89</ele>
        <time>2020-12-10T14:39:56.613Z</time>
      </trkpt>
      <trkpt lat="48.73326" lon="2.54629">
        <ele>89</ele>
        <time>2020-12-10T14:40:01.595Z</time>
      </trkpt>
      <trkpt lat="48.73319" lon="2.54622">
        <ele>89</ele>
        <time>2020-12-10T14:40:06.600Z</time>
      </trkpt>
      <trkpt lat="48.73313" lon="2.54617">
        <ele>89</ele>
        <time>2020-12-10T14:40:11.612Z</time>
      </trkpt>
      <trkpt lat="48.73308" lon="2.54612">
        <ele>89</ele>
        <time>2020-12-10T14:40:16.604Z</time>
      </trkpt>
      <trkpt lat="48.73302" lon="2.54609">
        <ele>89</ele>
        <time>2020-12-10T14:40:21.596Z</time>
      </trkpt>
      <trkpt lat="48.73294" lon="2.54605">
        <ele>89</ele>
        <time>2020-12-10T14:40:26.594Z</time>
      </trkpt>
      <trkpt lat="48.73287" lon="2.54602">
        <ele>86</ele>
        <time>2020-12-10T14:40:31.598Z</time>
      </trkpt>
      <trkpt lat="48.73282" lon="2.54599">
        <ele>86</ele>
        <time>2020-12-10T14:40:36.606Z</time>
      </trkpt>
      <trkpt lat="48.73277" lon="2.54594">
        <ele>86</ele>
        <time>2020-12-10T14:40:41.600Z</time>
      </trkpt>
      <trkpt lat="48.7327" lon="2.54591">
        <ele>86</ele>
        <time>2020-12-10T14:40:46.592Z</time>
      </trkpt>
      <trkpt lat="48.73265" lon="2.54592">
        <ele>86</ele>
        <time>2020-12-10T14:40:50.611Z</time>
      </trkpt>
      <trkpt lat="48.73258" lon="2.54586">
        <ele>83</ele>
        <time>2020-12-10T14:40:55.602Z</time>
      </trkpt>
      <trkpt lat="48.73251" lon="2.54584">
        <ele>83</ele>
        <time>2020-12-10T14:41:00.607Z</time>
      </trkpt>
      <trkpt lat="48.73244" lon="2.54579">
        <ele>83</ele>
        <time>2020-12-10T14:41:05.601Z</time>
      </trkpt>
      <trkpt lat="48.73237" lon="2.54575">
        <ele>83</ele>
        <time>2020-12-10T14:41:10.596Z</time>
      </trkpt>
      <trkpt lat="48.73229" lon="2.54574">
        <ele>83</ele>
        <time>2020-12-10T14:41:15.600Z</time>
      </trkpt>
      <trkpt lat="48.73224" lon="2.54573">
        <ele>83</ele>
        <time>2020-12-10T14:41:20.595Z</time>
      </trkpt>
      <trkpt lat="48.73218" lon="2.54574">
        <ele>83</ele>
        <time>2020-12-10T14:41:25.629Z</time>
      </trkpt>
      <trkpt lat="48.73212" lon="2.54567">
        <ele>83</ele>
        <time>2020-12-10T14:41:30.591Z</time>
      </trkpt>
      <trkpt lat="48.73209" lon="2.54557">
        <ele>83</ele>
        <time>2020-12-10T14:41:35.606Z</time>
      </trkpt>
      <trkpt lat="48.73204" lon="2.54549">
        <ele>82</ele>
        <time>2020-12-10T14:41:40.598Z</time>
      </trkpt>
      <trkpt lat="48.732" lon="2.54538">
        <ele>81</ele>
        <time>2020-12-10T14:41:45.596Z</time>
      </trkpt>
      <trkpt lat="48.73198" lon="2.54533">
        <ele>81</ele>
        <time>2020-12-10T14:41:50.583Z</time>
      </trkpt>
      <trkpt lat="48.73196" lon="2.54527">
        <ele>81</ele>
        <time>2020-12-10T14:41:54.602Z</time>
      </trkpt>
      <trkpt lat="48.73194" lon="2.54518">
        <ele>81</ele>
        <time>2020-12-10T14:41:59.597Z</time>
      </trkpt>
      <trkpt lat="48.7319" lon="2.54511">
        <ele>80</ele>
        <time>2020-12-10T14:42:04.587Z</time>
      </trkpt>
      <trkpt lat="48.73188" lon="2.54502">
        <ele>80</ele>
        <time>2020-12-10T14:42:08.597Z</time>
      </trkpt>
      <trkpt lat="48.73186" lon="2.54492">
        <ele>80</ele>
        <time>2020-12-10T14:42:13.595Z</time>
      </trkpt>
      <trkpt lat="48.73183" lon="2.54484">
        <ele>79</ele>
        <time>2020-12-10T14:42:18.601Z</time>
      </trkpt>
      <trkpt lat="48.73178" lon="2.54479">
        <ele>77</ele>
        <time>2020-12-10T14:42:23.603Z</time>
      </trkpt>
      <trkpt lat="48.73175" lon="2.54475">
        <ele>77</ele>
        <time>2020-12-10T14:42:28.598Z</time>
      </trkpt>
      <trkpt lat="48.7317" lon="2.54468">
        <ele>77</ele>
        <time>2020-12-10T14:42:33.608Z</time>
      </trkpt>
      <trkpt lat="48.73166" lon="2.54464">
        <ele>77</ele>
        <time>2020-12-10T14:42:38.599Z</time>
      </trkpt>
      <trkpt lat="48.73164" lon="2.54456">
        <ele>77</ele>
        <time>2020-12-10T14:42:43.599Z</time>
      </trkpt>
      <trkpt lat="48.73162" lon="2.54448">
        <ele>77</ele>
        <time>2020-12-10T14:42:48.609Z</time>
      </trkpt>
      <trkpt lat="48.73157" lon="2.54437">
        <ele>77</ele>
        <time>2020-12-10T14:42:53.613Z</time>
      </trkpt>
      <trkpt lat="48.73154" lon="2.54432">
        <ele>77</ele>
        <time>2020-12-10T14:42:58.598Z</time>
      </trkpt>
      <trkpt lat="48.7315" lon="2.54425">
        <ele>76</ele>
        <time>2020-12-10T14:43:03.609Z</time>
      </trkpt>
      <trkpt lat="48.73144" lon="2.54419">
        <ele>76</ele>
        <time>2020-12-10T14:43:08.604Z</time>
      </trkpt>
      <trkpt lat="48.73139" lon="2.5441">
        <ele>76</ele>
        <time>2020-12-10T14:43:13.610Z</time>
      </trkpt>
      <trkpt lat="48.73136" lon="2.54403">
        <ele>75</ele>
        <time>2020-12-10T14:43:18.602Z</time>
      </trkpt>
      <trkpt lat="48.73132" lon="2.54393">
        <ele>75</ele>
        <time>2020-12-10T14:43:23.614Z</time>
      </trkpt>
      <trkpt lat="48.73129" lon="2.54385">
        <ele>75</ele>
        <time>2020-12-10T14:43:28.605Z</time>
      </trkpt>
      <trkpt lat="48.73124" lon="2.54378">
        <ele>74</ele>
        <time>2020-12-10T14:43:33.598Z</time>
      </trkpt>
      <trkpt lat="48.73118" lon="2.54371">
        <ele>74</ele>
        <time>2020-12-10T14:43:38.593Z</time>
      </trkpt>
      <trkpt lat="48.73112" lon="2.5437">
        <ele>74</ele>
        <time>2020-12-10T14:43:43.599Z</time>
      </trkpt>
      <trkpt lat="48.73108" lon="2.54371">
        <ele>74</ele>
        <time>2020-12-10T14:43:48.586Z</time>
      </trkpt>
      <trkpt lat="48.73103" lon="2.5437">
        <ele>74</ele>
        <time>2020-12-10T14:43:53.603Z</time>
      </trkpt>
      <trkpt lat="48.731" lon="2.5437">
        <ele>74</ele>
        <time>2020-12-10T14:43:57.694Z</time>
      </trkpt>
      <trkpt lat="48.73094" lon="2.54367">
        <ele>72</ele>
        <time>2020-12-10T14:44:02.601Z</time>
      </trkpt>
      <trkpt lat="48.73088" lon="2.5436">
        <ele>72</ele>
        <time>2020-12-10T14:44:07.595Z</time>
      </trkpt>
      <trkpt lat="48.7308" lon="2.54352">
        <ele>72</ele>
        <time>2020-12-10T14:44:12.596Z</time>
      </trkpt>
      <trkpt lat="48.73074" lon="2.54351">
        <ele>72</ele>
        <time>2020-12-10T14:44:17.602Z</time>
      </trkpt>
      <trkpt lat="48.73069" lon="2.54351">
        <ele>71</ele>
        <time>2020-12-10T14:44:22.605Z</time>
      </trkpt>
      <trkpt lat="48.73063" lon="2.54352">
        <ele>71</ele>
        <time>2020-12-10T14:44:27.607Z</time>
      </trkpt>
      <trkpt lat="48.73055" lon="2.54348">
        <ele>71</ele>
        <time>2020-12-10T14:44:32.610Z</time>
      </trkpt>
      <trkpt lat="48.7305" lon="2.54342">
        <ele>71</ele>
        <time>2020-12-10T14:44:37.603Z</time>
      </trkpt>
      <trkpt lat="48.73044" lon="2.54336">
        <ele>71</ele>
        <time>2020-12-10T14:44:42.608Z</time>
      </trkpt>
      <trkpt lat="48.73039" lon="2.54331">
        <ele>70</ele>
        <time>2020-12-10T14:44:47.606Z</time>
      </trkpt>
      <trkpt lat="48.73038" lon="2.54331">
        <ele>70</ele>
        <time>2020-12-10T14:44:52.609Z</time>
      </trkpt>
      <trkpt lat="48.73036" lon="2.54331">
        <ele>70</ele>
        <time>2020-12-10T14:44:57.612Z</time>
      </trkpt>
      <trkpt lat="48.73035" lon="2.54328">
        <ele>70</ele>
        <time>2020-12-10T14:45:02.595Z</time>
      </trkpt>
      <trkpt lat="48.73033" lon="2.54325">
        <ele>70</ele>
        <time>2020-12-10T14:45:06.607Z</time>
      </trkpt>
      <trkpt lat="48.73029" lon="2.54315">
        <ele>70</ele>
        <time>2020-12-10T14:45:11.602Z</time>
      </trkpt>
      <trkpt lat="48.73024" lon="2.54306">
        <ele>70</ele>
        <time>2020-12-10T14:45:16.607Z</time>
      </trkpt>
      <trkpt lat="48.73019" lon="2.54291">
        <ele>70</ele>
        <time>2020-12-10T14:45:21.596Z</time>
      </trkpt>
      <trkpt lat="48.73015" lon="2.54283">
        <ele>70</ele>
        <time>2020-12-10T14:45:25.618Z</time>
      </trkpt>
      <trkpt lat="48.73012" lon="2.54275">
        <ele>68</ele>
        <time>2020-12-10T14:45:30.633Z</time>
      </trkpt>
      <trkpt lat="48.73011" lon="2.54269">
        <ele>68</ele>
        <time>2020-12-10T14:45:35.589Z</time>
      </trkpt>
      <trkpt lat="48.73007" lon="2.54256">
        <ele>68</ele>
        <time>2020-12-10T14:45:40.588Z</time>
      </trkpt>
      <trkpt lat="48.73002" lon="2.54241">
        <ele>68</ele>
        <time>2020-12-10T14:45:45.607Z</time>
      </trkpt>
      <trkpt lat="48.72998" lon="2.54232">
        <ele>67</ele>
        <time>2020-12-10T14:45:50.596Z</time>
      </trkpt>
      <trkpt lat="48.72995" lon="2.54225">
        <ele>67</ele>
        <time>2020-12-10T14:45:55.600Z</time>
      </trkpt>
      <trkpt lat="48.72994" lon="2.54221">
        <ele>67</ele>
        <time>2020-12-10T14:45:59.623Z</time>
      </trkpt>
      <trkpt lat="48.72989" lon="2.54217">
        <ele>67</ele>
        <time>2020-12-10T14:46:04.581Z</time>
      </trkpt>
      <trkpt lat="48.72986" lon="2.54214">
        <ele>65</ele>
        <time>2020-12-10T14:46:08.605Z</time>
      </trkpt>
      <trkpt lat="48.72978" lon="2.54201">
        <ele>64</ele>
        <time>2020-12-10T14:46:23.606Z</time>
      </trkpt>
      <trkpt lat="48.72974" lon="2.54211">
        <ele>65</ele>
        <time>2020-12-10T14:46:28.604Z</time>
      </trkpt>
      <trkpt lat="48.72966" lon="2.54214">
        <ele>65</ele>
        <time>2020-12-10T14:46:33.599Z</time>
      </trkpt>
      <trkpt lat="48.7296" lon="2.54216">
        <ele>65</ele>
        <time>2020-12-10T14:46:38.611Z</time>
      </trkpt>
      <trkpt lat="48.72959" lon="2.54218">
        <ele>65</ele>
        <time>2020-12-10T14:46:43.612Z</time>
      </trkpt>
      <trkpt lat="48.72955" lon="2.54223">
        <ele>63</ele>
        <time>2020-12-10T14:46:48.590Z</time>
      </trkpt>
      <trkpt lat="48.72954" lon="2.54225">
        <ele>63</ele>
        <time>2020-12-10T14:46:53.608Z</time>
      </trkpt>
      <trkpt lat="48.72951" lon="2.54232">
        <ele>63</ele>
        <time>2020-12-10T14:46:58.611Z</time>
      </trkpt>
      <trkpt lat="48.72947" lon="2.54245">
        <ele>64</ele>
        <time>2020-12-10T14:47:03.603Z</time>
      </trkpt>
      <trkpt lat="48.72944" lon="2.5425">
        <ele>64</ele>
        <time>2020-12-10T14:47:07.619Z</time>
      </trkpt>
      <trkpt lat="48.72943" lon="2.54254">
        <ele>64</ele>
        <time>2020-12-10T14:47:12.606Z</time>
      </trkpt>
      <trkpt lat="48.72941" lon="2.54258">
        <ele>64</ele>
        <time>2020-12-10T14:47:17.606Z</time>
      </trkpt>
      <trkpt lat="48.72937" lon="2.54265">
        <ele>64</ele>
        <time>2020-12-10T14:47:22.613Z</time>
      </trkpt>
      <trkpt lat="48.72935" lon="2.5427">
        <ele>64</ele>
        <time>2020-12-10T14:47:27.599Z</time>
      </trkpt>
      <trkpt lat="48.72934" lon="2.54278">
        <ele>64</ele>
        <time>2020-12-10T14:47:31.616Z</time>
      </trkpt>
      <trkpt lat="48.7293" lon="2.54288">
        <ele>64</ele>
        <time>2020-12-10T14:47:36.603Z</time>
      </trkpt>
      <trkpt lat="48.72926" lon="2.54296">
        <ele>64</ele>
        <time>2020-12-10T14:47:41.605Z</time>
      </trkpt>
      <trkpt lat="48.72923" lon="2.54302">
        <ele>64</ele>
        <time>2020-12-10T14:47:46.616Z</time>
      </trkpt>
      <trkpt lat="48.72923" lon="2.54312">
        <ele>64</ele>
        <time>2020-12-10T14:47:51.619Z</time>
      </trkpt>
      <trkpt lat="48.72917" lon="2.54329">
        <ele>64</ele>
        <time>2020-12-10T14:47:56.627Z</time>
      </trkpt>
      <trkpt lat="48.72913" lon="2.54346">
        <ele>64</ele>
        <time>2020-12-10T14:48:01.608Z</time>
      </trkpt>
      <trkpt lat="48.7291" lon="2.54368">
        <ele>64</ele>
        <time>2020-12-10T14:48:06.616Z</time>
      </trkpt>
      <trkpt lat="48.72911" lon="2.54377">
        <ele>65</ele>
        <time>2020-12-10T14:48:11.615Z</time>
      </trkpt>
      <trkpt lat="48.72911" lon="2.54391">
        <ele>65</ele>
        <time>2020-12-10T14:48:16.622Z</time>
      </trkpt>
      <trkpt lat="48.72912" lon="2.54396">
        <ele>65</ele>
        <time>2020-12-10T14:48:21.609Z</time>
      </trkpt>
      <trkpt lat="48.72914" lon="2.54404">
        <ele>65</ele>
        <time>2020-12-10T14:48:26.598Z</time>
      </trkpt>
      <trkpt lat="48.72915" lon="2.54411">
        <ele>65</ele>
        <time>2020-12-10T14:48:31.617Z</time>
      </trkpt>
      <trkpt lat="48.72916" lon="2.54419">
        <ele>65</ele>
        <time>2020-12-10T14:48:36.598Z</time>
      </trkpt>
      <trkpt lat="48.72917" lon="2.54426">
        <ele>65</ele>
        <time>2020-12-10T14:48:41.614Z</time>
      </trkpt>
      <trkpt lat="48.72917" lon="2.54435">
        <ele>65</ele>
        <time>2020-12-10T14:48:46.605Z</time>
      </trkpt>
      <trkpt lat="48.72919" lon="2.5445">
        <ele>65</ele>
        <time>2020-12-10T14:48:51.621Z</time>
      </trkpt>
      <trkpt lat="48.72922" lon="2.54461">
        <ele>64</ele>
        <time>2020-12-10T14:48:56.605Z</time>
      </trkpt>
      <trkpt lat="48.72922" lon="2.54469">
        <ele>64</ele>
        <time>2020-12-10T14:49:00.650Z</time>
      </trkpt>
      <trkpt lat="48.72925" lon="2.54478">
        <ele>64</ele>
        <time>2020-12-10T14:49:05.594Z</time>
      </trkpt>
      <trkpt lat="48.72927" lon="2.54484">
        <ele>64</ele>
        <time>2020-12-10T14:49:10.597Z</time>
      </trkpt>
      <trkpt lat="48.72929" lon="2.54493">
        <ele>63</ele>
        <time>2020-12-10T14:49:15.616Z</time>
      </trkpt>
      <trkpt lat="48.72931" lon="2.54503">
        <ele>64</ele>
        <time>2020-12-10T14:49:20.598Z</time>
      </trkpt>
      <trkpt lat="48.72933" lon="2.54507">
        <ele>64</ele>
        <time>2020-12-10T14:49:25.595Z</time>
      </trkpt>
      <trkpt lat="48.72934" lon="2.54516">
        <ele>63</ele>
        <time>2020-12-10T14:49:30.611Z</time>
      </trkpt>
      <trkpt lat="48.72936" lon="2.54523">
        <ele>63</ele>
        <time>2020-12-10T14:49:35.596Z</time>
      </trkpt>
      <trkpt lat="48.72939" lon="2.5453">
        <ele>63</ele>
        <time>2020-12-10T14:49:40.594Z</time>
      </trkpt>
      <trkpt lat="48.72946" lon="2.54547">
        <ele>63</ele>
        <time>2020-12-10T14:49:45.604Z</time>
      </trkpt>
      <trkpt lat="48.72948" lon="2.54558">
        <ele>63</ele>
        <time>2020-12-10T14:49:50.609Z</time>
      </trkpt>
      <trkpt lat="48.72949" lon="2.54571">
        <ele>63</ele>
        <time>2020-12-10T14:49:55.608Z</time>
      </trkpt>
      <trkpt lat="48.72951" lon="2.54577">
        <ele>63</ele>
        <time>2020-12-10T14:50:00.606Z</time>
      </trkpt>
      <trkpt lat="48.72952" lon="2.54588">
        <ele>63</ele>
        <time>2020-12-10T14:50:05.615Z</time>
      </trkpt>
      <trkpt lat="48.72953" lon="2.54598">
        <ele>63</ele>
        <time>2020-12-10T14:50:10.599Z</time>
      </trkpt>
      <trkpt lat="48.72954" lon="2.54606">
        <ele>63</ele>
        <time>2020-12-10T14:50:15.617Z</time>
      </trkpt>
      <trkpt lat="48.72955" lon="2.54618">
        <ele>63</ele>
        <time>2020-12-10T14:50:20.615Z</time>
      </trkpt>
      <trkpt lat="48.72954" lon="2.54626">
        <ele>63</ele>
        <time>2020-12-10T14:50:25.606Z</time>
      </trkpt>
      <trkpt lat="48.72947" lon="2.5463">
        <ele>63</ele>
        <time>2020-12-10T14:50:30.602Z</time>
      </trkpt>
      <trkpt lat="48.72935" lon="2.54627">
        <ele>63</ele>
        <time>2020-12-10T14:50:35.613Z</time>
      </trkpt>
      <trkpt lat="48.72926" lon="2.54622">
        <ele>59</ele>
        <time>2020-12-10T14:50:40.612Z</time>
      </trkpt>
      <trkpt lat="48.72922" lon="2.5462">
        <ele>59</ele>
        <time>2020-12-10T14:50:45.609Z</time>
      </trkpt>
      <trkpt lat="48.7292" lon="2.54615">
        <ele>59</ele>
        <time>2020-12-10T14:50:50.592Z</time>
      </trkpt>
      <trkpt lat="48.72916" lon="2.54608">
        <ele>59</ele>
        <time>2020-12-10T14:50:54.610Z</time>
      </trkpt>
      <trkpt lat="48.72911" lon="2.54601">
        <ele>59</ele>
        <time>2020-12-10T14:50:59.607Z</time>
      </trkpt>
      <trkpt lat="48.72904" lon="2.54595">
        <ele>60</ele>
        <time>2020-12-10T14:51:04.604Z</time>
      </trkpt>
      <trkpt lat="48.72899" lon="2.5459">
        <ele>57</ele>
        <time>2020-12-10T14:51:09.612Z</time>
      </trkpt>
      <trkpt lat="48.72897" lon="2.54588">
        <ele>57</ele>
        <time>2020-12-10T14:51:14.616Z</time>
      </trkpt>
      <trkpt lat="48.72892" lon="2.54583">
        <ele>57</ele>
        <time>2020-12-10T14:51:19.608Z</time>
      </trkpt>
      <trkpt lat="48.72886" lon="2.54578">
        <ele>57</ele>
        <time>2020-12-10T14:51:24.611Z</time>
      </trkpt>
      <trkpt lat="48.7288" lon="2.5457">
        <ele>57</ele>
        <time>2020-12-10T14:51:29.610Z</time>
      </trkpt>
      <trkpt lat="48.72872" lon="2.54566">
        <ele>58</ele>
        <time>2020-12-10T14:51:34.592Z</time>
      </trkpt>
      <trkpt lat="48.72862" lon="2.54561">
        <ele>58</ele>
        <time>2020-12-10T14:51:39.588Z</time>
      </trkpt>
      <trkpt lat="48.72856" lon="2.54561">
        <ele>58</ele>
        <time>2020-12-10T14:51:44.599Z</time>
      </trkpt>
      <trkpt lat="48.72851" lon="2.54561">
        <ele>58</ele>
        <time>2020-12-10T14:51:49.602Z</time>
      </trkpt>
      <trkpt lat="48.72849" lon="2.5456">
        <ele>58</ele>
        <time>2020-12-10T14:51:54.604Z</time>
      </trkpt>
      <trkpt lat="48.72845" lon="2.54559">
        <ele>58</ele>
        <time>2020-12-10T14:51:59.593Z</time>
      </trkpt>
      <trkpt lat="48.72835" lon="2.54561">
        <ele>58</ele>
        <time>2020-12-10T14:52:04.614Z</time>
      </trkpt>
      <trkpt lat="48.72826" lon="2.54559">
        <ele>58</ele>
        <time>2020-12-10T14:52:09.595Z</time>
      </trkpt>
      <trkpt lat="48.72821" lon="2.54557">
        <ele>58</ele>
        <time>2020-12-10T14:52:14.633Z</time>
      </trkpt>
      <trkpt lat="48.72817" lon="2.54555">
        <ele>59</ele>
        <time>2020-12-10T14:52:19.610Z</time>
      </trkpt>
      <trkpt lat="48.72812" lon="2.54552">
        <ele>59</ele>
        <time>2020-12-10T14:52:24.594Z</time>
      </trkpt>
      <trkpt lat="48.72805" lon="2.54551">
        <ele>59</ele>
        <time>2020-12-10T14:52:29.600Z</time>
      </trkpt>
      <trkpt lat="48.72797" lon="2.54548">
        <ele>59</ele>
        <time>2020-12-10T14:52:34.599Z</time>
      </trkpt>
      <trkpt lat="48.72788" lon="2.54544">
        <ele>59</ele>
        <time>2020-12-10T14:52:39.597Z</time>
      </trkpt>
      <trkpt lat="48.72782" lon="2.54547">
        <ele>59</ele>
        <time>2020-12-10T14:52:44.597Z</time>
      </trkpt>
      <trkpt lat="48.72771" lon="2.5455">
        <ele>59</ele>
        <time>2020-12-10T14:52:58.608Z</time>
      </trkpt>
      <trkpt lat="48.7276" lon="2.54534">
        <ele>61</ele>
        <time>2020-12-10T14:53:03.597Z</time>
      </trkpt>
      <trkpt lat="48.72747" lon="2.5454">
        <ele>61</ele>
        <time>2020-12-10T14:53:08.602Z</time>
      </trkpt>
      <trkpt lat="48.72738" lon="2.54541">
        <ele>61</ele>
        <time>2020-12-10T14:53:13.601Z</time>
      </trkpt>
      <trkpt lat="48.72732" lon="2.54539">
        <ele>61</ele>
        <time>2020-12-10T14:53:18.605Z</time>
      </trkpt>
      <trkpt lat="48.72726" lon="2.54538">
        <ele>61</ele>
        <time>2020-12-10T14:53:23.597Z</time>
      </trkpt>
      <trkpt lat="48.7272" lon="2.54538">
        <ele>61</ele>
        <time>2020-12-10T14:53:28.595Z</time>
      </trkpt>
      <trkpt lat="48.72715" lon="2.54539">
        <ele>61</ele>
        <time>2020-12-10T14:53:32.608Z</time>
      </trkpt>
      <trkpt lat="48.72707" lon="2.54539">
        <ele>59</ele>
        <time>2020-12-10T14:53:37.598Z</time>
      </trkpt>
      <trkpt lat="48.72702" lon="2.5454">
        <ele>59</ele>
        <time>2020-12-10T14:53:42.605Z</time>
      </trkpt>
      <trkpt lat="48.72695" lon="2.54536">
        <ele>59</ele>
        <time>2020-12-10T14:53:47.607Z</time>
      </trkpt>
      <trkpt lat="48.72689" lon="2.54533">
        <ele>59</ele>
        <time>2020-12-10T14:53:52.603Z</time>
      </trkpt>
      <trkpt lat="48.72682" lon="2.54532">
        <ele>59</ele>
        <time>2020-12-10T14:53:57.601Z</time>
      </trkpt>
      <trkpt lat="48.72677" lon="2.54526">
        <ele>58</ele>
        <time>2020-12-10T14:54:02.604Z</time>
      </trkpt>
      <trkpt lat="48.72674" lon="2.5452">
        <ele>58</ele>
        <time>2020-12-10T14:54:06.594Z</time>
      </trkpt>
      <trkpt lat="48.72669" lon="2.5451">
        <ele>58</ele>
        <time>2020-12-10T14:54:11.597Z</time>
      </trkpt>
      <trkpt lat="48.72665" lon="2.54502">
        <ele>58</ele>
        <time>2020-12-10T14:54:16.610Z</time>
      </trkpt>
      <trkpt lat="48.72662" lon="2.54492">
        <ele>58</ele>
        <time>2020-12-10T14:54:21.604Z</time>
      </trkpt>
      <trkpt lat="48.72657" lon="2.5448">
        <ele>60</ele>
        <time>2020-12-10T14:54:26.583Z</time>
      </trkpt>
      <trkpt lat="48.72653" lon="2.54474">
        <ele>60</ele>
        <time>2020-12-10T14:54:30.611Z</time>
      </trkpt>
      <trkpt lat="48.72649" lon="2.54466">
        <ele>59</ele>
        <time>2020-12-10T14:54:35.597Z</time>
      </trkpt>
      <trkpt lat="48.72644" lon="2.5446">
        <ele>59</ele>
        <time>2020-12-10T14:54:39.618Z</time>
      </trkpt>
      <trkpt lat="48.72639" lon="2.54455">
        <ele>60</ele>
        <time>2020-12-10T14:54:44.606Z</time>
      </trkpt>
      <trkpt lat="48.72634" lon="2.54449">
        <ele>60</ele>
        <time>2020-12-10T14:54:49.601Z</time>
      </trkpt>
      <trkpt lat="48.72628" lon="2.54444">
        <ele>60</ele>
        <time>2020-12-10T14:54:54.589Z</time>
      </trkpt>
      <trkpt lat="48.72625" lon="2.54442">
        <ele>59</ele>
        <time>2020-12-10T14:54:59.589Z</time>
      </trkpt>
      <trkpt lat="48.7262" lon="2.54436">
        <ele>59</ele>
        <time>2020-12-10T14:55:03.610Z</time>
      </trkpt>
      <trkpt lat="48.72615" lon="2.54427">
        <ele>60</ele>
        <time>2020-12-10T14:55:08.601Z</time>
      </trkpt>
      <trkpt lat="48.72608" lon="2.54418">
        <ele>60</ele>
        <time>2020-12-10T14:55:13.595Z</time>
      </trkpt>
      <trkpt lat="48.72605" lon="2.54414">
        <ele>60</ele>
        <time>2020-12-10T14:55:18.597Z</time>
      </trkpt>
      <trkpt lat="48.72603" lon="2.54415">
        <ele>60</ele>
        <time>2020-12-10T14:55:23.626Z</time>
      </trkpt>
      <trkpt lat="48.7259" lon="2.5441">
        <ele>60</ele>
        <time>2020-12-10T14:55:28.602Z</time>
      </trkpt>
      <trkpt lat="48.72584" lon="2.54401">
        <ele>60</ele>
        <time>2020-12-10T14:55:33.605Z</time>
      </trkpt>
      <trkpt lat="48.72573" lon="2.544">
        <ele>60</ele>
        <time>2020-12-10T14:55:38.599Z</time>
      </trkpt>
      <trkpt lat="48.72565" lon="2.54389">
        <ele>63</ele>
        <time>2020-12-10T14:55:43.604Z</time>
      </trkpt>
      <trkpt lat="48.72563" lon="2.54389">
        <ele>63</ele>
        <time>2020-12-10T14:55:48.599Z</time>
      </trkpt>
      <trkpt lat="48.72565" lon="2.54372">
        <ele>65</ele>
        <time>2020-12-10T14:55:53.588Z</time>
      </trkpt>
      <trkpt lat="48.7257" lon="2.54356">
        <ele>61</ele>
        <time>2020-12-10T14:55:57.604Z</time>
      </trkpt>
      <trkpt lat="48.72569" lon="2.54343">
        <ele>63</ele>
        <time>2020-12-10T14:56:02.598Z</time>
      </trkpt>
      <trkpt lat="48.72571" lon="2.54333">
        <ele>63</ele>
        <time>2020-12-10T14:56:07.621Z</time>
      </trkpt>
      <trkpt lat="48.72572" lon="2.54328">
        <ele>63</ele>
        <time>2020-12-10T14:56:12.600Z</time>
      </trkpt>
      <trkpt lat="48.72574" lon="2.54324">
        <ele>63</ele>
        <time>2020-12-10T14:56:17.605Z</time>
      </trkpt>
      <trkpt lat="48.72576" lon="2.54315">
        <ele>66</ele>
        <time>2020-12-10T14:56:22.596Z</time>
      </trkpt>
      <trkpt lat="48.72578" lon="2.54312">
        <ele>66</ele>
        <time>2020-12-10T14:56:26.615Z</time>
      </trkpt>
      <trkpt lat="48.72581" lon="2.54304">
        <ele>66</ele>
        <time>2020-12-10T14:56:31.613Z</time>
      </trkpt>
      <trkpt lat="48.72583" lon="2.54298">
        <ele>66</ele>
        <time>2020-12-10T14:56:36.605Z</time>
      </trkpt>
      <trkpt lat="48.72585" lon="2.54293">
        <ele>66</ele>
        <time>2020-12-10T14:56:41.605Z</time>
      </trkpt>
      <trkpt lat="48.72588" lon="2.54286">
        <ele>66</ele>
        <time>2020-12-10T14:56:46.600Z</time>
      </trkpt>
      <trkpt lat="48.72591" lon="2.54272">
        <ele>66</ele>
        <time>2020-12-10T14:56:51.607Z</time>
      </trkpt>
      <trkpt lat="48.72594" lon="2.54264">
        <ele>66</ele>
        <time>2020-12-10T14:56:56.600Z</time>
      </trkpt>
      <trkpt lat="48.72596" lon="2.54255">
        <ele>66</ele>
        <time>2020-12-10T14:57:01.605Z</time>
      </trkpt>
      <trkpt lat="48.72598" lon="2.54247">
        <ele>66</ele>
        <time>2020-12-10T14:57:06.601Z</time>
      </trkpt>
      <trkpt lat="48.72598" lon="2.54232">
        <ele>67</ele>
        <time>2020-12-10T14:57:11.610Z</time>
      </trkpt>
      <trkpt lat="48.72599" lon="2.54226">
        <ele>67</ele>
        <time>2020-12-10T14:57:16.591Z</time>
      </trkpt>
      <trkpt lat="48.726" lon="2.54216">
        <ele>67</ele>
        <time>2020-12-10T14:57:21.613Z</time>
      </trkpt>
      <trkpt lat="48.72602" lon="2.54207">
        <ele>67</ele>
        <time>2020-12-10T14:57:26.598Z</time>
      </trkpt>
      <trkpt lat="48.72603" lon="2.54198">
        <ele>67</ele>
        <time>2020-12-10T14:57:31.621Z</time>
      </trkpt>
      <trkpt lat="48.72605" lon="2.54188">
        <ele>67</ele>
        <time>2020-12-10T14:57:36.609Z</time>
      </trkpt>
      <trkpt lat="48.72607" lon="2.54179">
        <ele>68</ele>
        <time>2020-12-10T14:57:41.582Z</time>
      </trkpt>
      <trkpt lat="48.72607" lon="2.54172">
        <ele>68</ele>
        <time>2020-12-10T14:57:45.604Z</time>
      </trkpt>
      <trkpt lat="48.72609" lon="2.54163">
        <ele>68</ele>
        <time>2020-12-10T14:57:50.593Z</time>
      </trkpt>
      <trkpt lat="48.7261" lon="2.54149">
        <ele>69</ele>
        <time>2020-12-10T14:57:55.608Z</time>
      </trkpt>
      <trkpt lat="48.72613" lon="2.54137">
        <ele>69</ele>
        <time>2020-12-10T14:58:00.598Z</time>
      </trkpt>
      <trkpt lat="48.72613" lon="2.54127">
        <ele>69</ele>
        <time>2020-12-10T14:58:05.603Z</time>
      </trkpt>
      <trkpt lat="48.72614" lon="2.54118">
        <ele>69</ele>
        <time>2020-12-10T14:58:10.632Z</time>
      </trkpt>
      <trkpt lat="48.72617" lon="2.54109">
        <ele>69</ele>
        <time>2020-12-10T14:58:15.604Z</time>
      </trkpt>
      <trkpt lat="48.7262" lon="2.54102">
        <ele>69</ele>
        <time>2020-12-10T14:58:20.612Z</time>
      </trkpt>
      <trkpt lat="48.7262" lon="2.5409">
        <ele>69</ele>
        <time>2020-12-10T14:58:25.599Z</time>
      </trkpt>
      <trkpt lat="48.72622" lon="2.54077">
        <ele>69</ele>
        <time>2020-12-10T14:58:30.608Z</time>
      </trkpt>
      <trkpt lat="48.72624" lon="2.54066">
        <ele>69</ele>
        <time>2020-12-10T14:58:35.608Z</time>
      </trkpt>
      <trkpt lat="48.72626" lon="2.54057">
        <ele>68</ele>
        <time>2020-12-10T14:58:40.619Z</time>
      </trkpt>
      <trkpt lat="48.72629" lon="2.5405">
        <ele>68</ele>
        <time>2020-12-10T14:58:45.598Z</time>
      </trkpt>
      <trkpt lat="48.72628" lon="2.54044">
        <ele>68</ele>
        <time>2020-12-10T14:58:50.612Z</time>
      </trkpt>
      <trkpt lat="48.72629" lon="2.54029">
        <ele>68</ele>
        <time>2020-12-10T14:58:55.601Z</time>
      </trkpt>
      <trkpt lat="48.72629" lon="2.54016">
        <ele>68</ele>
        <time>2020-12-10T14:59:00.590Z</time>
      </trkpt>
      <trkpt lat="48.7263" lon="2.54009">
        <ele>68</ele>
        <time>2020-12-10T14:59:04.606Z</time>
      </trkpt>
      <trkpt lat="48.72629" lon="2.53999">
        <ele>68</ele>
        <time>2020-12-10T14:59:09.609Z</time>
      </trkpt>
      <trkpt lat="48.72629" lon="2.53992">
        <ele>68</ele>
        <time>2020-12-10T14:59:14.598Z</time>
      </trkpt>
      <trkpt lat="48.7263" lon="2.53982">
        <ele>69</ele>
        <time>2020-12-10T14:59:19.606Z</time>
      </trkpt>
      <trkpt lat="48.7263" lon="2.53971">
        <ele>69</ele>
        <time>2020-12-10T14:59:39.607Z</time>
      </trkpt>
      <trkpt lat="48.72632" lon="2.53963">
        <ele>69</ele>
        <time>2020-12-10T14:59:44.610Z</time>
      </trkpt>
      <trkpt lat="48.72631" lon="2.5396">
        <ele>69</ele>
        <time>2020-12-10T14:59:49.597Z</time>
      </trkpt>
      <trkpt lat="48.72631" lon="2.53952">
        <ele>69</ele>
        <time>2020-12-10T14:59:53.612Z</time>
      </trkpt>
      <trkpt lat="48.72631" lon="2.53941">
        <ele>69</ele>
        <time>2020-12-10T14:59:58.611Z</time>
      </trkpt>
      <trkpt lat="48.72632" lon="2.53931">
        <ele>69</ele>
        <time>2020-12-10T15:00:03.610Z</time>
      </trkpt>
      <trkpt lat="48.72632" lon="2.53925">
        <ele>70</ele>
        <time>2020-12-10T15:00:08.620Z</time>
      </trkpt>
      <trkpt lat="48.72633" lon="2.53918">
        <ele>70</ele>
        <time>2020-12-10T15:00:13.620Z</time>
      </trkpt>
      <trkpt lat="48.72635" lon="2.53907">
        <ele>70</ele>
        <time>2020-12-10T15:00:18.610Z</time>
      </trkpt>
      <trkpt lat="48.72634" lon="2.53895">
        <ele>71</ele>
        <time>2020-12-10T15:00:23.611Z</time>
      </trkpt>
      <trkpt lat="48.72635" lon="2.53887">
        <ele>71</ele>
        <time>2020-12-10T15:00:28.604Z</time>
      </trkpt>
      <trkpt lat="48.72636" lon="2.53879">
        <ele>71</ele>
        <time>2020-12-10T15:00:33.609Z</time>
      </trkpt>
      <trkpt lat="48.72636" lon="2.53872">
        <ele>71</ele>
        <time>2020-12-10T15:00:38.604Z</time>
      </trkpt>
      <trkpt lat="48.72636" lon="2.53862">
        <ele>71</ele>
        <time>2020-12-10T15:00:43.588Z</time>
      </trkpt>
      <trkpt lat="48.72637" lon="2.53853">
        <ele>71</ele>
        <time>2020-12-10T15:00:47.613Z</time>
      </trkpt>
      <trkpt lat="48.72639" lon="2.53841">
        <ele>71</ele>
        <time>2020-12-10T15:00:52.607Z</time>
      </trkpt>
      <trkpt lat="48.72641" lon="2.53831">
        <ele>71</ele>
        <time>2020-12-10T15:00:57.602Z</time>
      </trkpt>
      <trkpt lat="48.7264" lon="2.53822">
        <ele>71</ele>
        <time>2020-12-10T15:01:02.612Z</time>
      </trkpt>
      <trkpt lat="48.7264" lon="2.53814">
        <ele>72</ele>
        <time>2020-12-10T15:01:07.615Z</time>
      </trkpt>
      <trkpt lat="48.7264" lon="2.53806">
        <ele>72</ele>
        <time>2020-12-10T15:01:12.606Z</time>
      </trkpt>
      <trkpt lat="48.7264" lon="2.53796">
        <ele>72</ele>
        <time>2020-12-10T15:01:17.610Z</time>
      </trkpt>
      <trkpt lat="48.7264" lon="2.53786">
        <ele>73</ele>
        <time>2020-12-10T15:01:21.628Z</time>
      </trkpt>
      <trkpt lat="48.72641" lon="2.53775">
        <ele>73</ele>
        <time>2020-12-10T15:01:26.606Z</time>
      </trkpt>
      <trkpt lat="48.72642" lon="2.53766">
        <ele>73</ele>
        <time>2020-12-10T15:01:31.597Z</time>
      </trkpt>
      <trkpt lat="48.72642" lon="2.53758">
        <ele>74</ele>
        <time>2020-12-10T15:01:35.613Z</time>
      </trkpt>
      <trkpt lat="48.72641" lon="2.53749">
        <ele>74</ele>
        <time>2020-12-10T15:01:40.609Z</time>
      </trkpt>
      <trkpt lat="48.72641" lon="2.5374">
        <ele>74</ele>
        <time>2020-12-10T15:01:45.593Z</time>
      </trkpt>
      <trkpt lat="48.7264" lon="2.53732">
        <ele>74</ele>
        <time>2020-12-10T15:01:50.602Z</time>
      </trkpt>
      <trkpt lat="48.7264" lon="2.53723">
        <ele>74</ele>
        <time>2020-12-10T15:01:55.593Z</time>
      </trkpt>
      <trkpt lat="48.72639" lon="2.53713">
        <ele>74</ele>
        <time>2020-12-10T15:02:00.599Z</time>
      </trkpt>
      <trkpt lat="48.72637" lon="2.53702">
        <ele>75</ele>
        <time>2020-12-10T15:02:05.577Z</time>
      </trkpt>
      <trkpt lat="48.72636" lon="2.53695">
        <ele>75</ele>
        <time>2020-12-10T15:02:09.611Z</time>
      </trkpt>
      <trkpt lat="48.72636" lon="2.53687">
        <ele>75</ele>
        <time>2020-12-10T15:02:13.675Z</time>
      </trkpt>
      <trkpt lat="48.72635" lon="2.53679">
        <ele>76</ele>
        <time>2020-12-10T15:02:18.635Z</time>
      </trkpt>
      <trkpt lat="48.72634" lon="2.5367">
        <ele>76</ele>
        <time>2020-12-10T15:02:23.600Z</time>
      </trkpt>
      <trkpt lat="48.72633" lon="2.53662">
        <ele>76</ele>
        <time>2020-12-10T15:02:28.598Z</time>
      </trkpt>
      <trkpt lat="48.72633" lon="2.53652">
        <ele>77</ele>
        <time>2020-12-10T15:02:33.619Z</time>
      </trkpt>
      <trkpt lat="48.72631" lon="2.53639">
        <ele>77</ele>
        <time>2020-12-10T15:02:38.683Z</time>
      </trkpt>
      <trkpt lat="48.72629" lon="2.53628">
        <ele>77</ele>
        <time>2020-12-10T15:02:43.617Z</time>
      </trkpt>
      <trkpt lat="48.72629" lon="2.53619">
        <ele>79</ele>
        <time>2020-12-10T15:02:48.630Z</time>
      </trkpt>
      <trkpt lat="48.72628" lon="2.53608">
        <ele>79</ele>
        <time>2020-12-10T15:02:53.568Z</time>
      </trkpt>
      <trkpt lat="48.72627" lon="2.536">
        <ele>79</ele>
        <time>2020-12-10T15:02:58.589Z</time>
      </trkpt>
      <trkpt lat="48.72625" lon="2.53586">
        <ele>80</ele>
        <time>2020-12-10T15:03:03.603Z</time>
      </trkpt>
      <trkpt lat="48.72623" lon="2.53573">
        <ele>80</ele>
        <time>2020-12-10T15:03:08.611Z</time>
      </trkpt>
      <trkpt lat="48.72622" lon="2.53563">
        <ele>80</ele>
        <time>2020-12-10T15:03:13.611Z</time>
      </trkpt>
      <trkpt lat="48.72622" lon="2.53556">
        <ele>80</ele>
        <time>2020-12-10T15:03:18.591Z</time>
      </trkpt>
      <trkpt lat="48.72621" lon="2.53547">
        <ele>80</ele>
        <time>2020-12-10T15:03:23.586Z</time>
      </trkpt>
      <trkpt lat="48.72621" lon="2.53539">
        <ele>80</ele>
        <time>2020-12-10T15:03:27.610Z</time>
      </trkpt>
      <trkpt lat="48.72624" lon="2.53529">
        <ele>80</ele>
        <time>2020-12-10T15:03:32.603Z</time>
      </trkpt>
      <trkpt lat="48.72628" lon="2.53522">
        <ele>82</ele>
        <time>2020-12-10T15:03:37.606Z</time>
      </trkpt>
      <trkpt lat="48.72631" lon="2.53516">
        <ele>82</ele>
        <time>2020-12-10T15:03:42.606Z</time>
      </trkpt>
      <trkpt lat="48.72634" lon="2.53507">
        <ele>82</ele>
        <time>2020-12-10T15:03:47.600Z</time>
      </trkpt>
      <trkpt lat="48.72635" lon="2.53498">
        <ele>82</ele>
        <time>2020-12-10T15:03:51.611Z</time>
      </trkpt>
      <trkpt lat="48.72635" lon="2.53491">
        <ele>82</ele>
        <time>2020-12-10T15:03:55.622Z</time>
      </trkpt>
      <trkpt lat="48.72633" lon="2.53481">
        <ele>82</ele>
        <time>2020-12-10T15:04:00.603Z</time>
      </trkpt>
      <trkpt lat="48.72633" lon="2.53474">
        <ele>82</ele>
        <time>2020-12-10T15:04:05.609Z</time>
      </trkpt>
      <trkpt lat="48.72632" lon="2.53465">
        <ele>82</ele>
        <time>2020-12-10T15:04:10.600Z</time>
      </trkpt>
      <trkpt lat="48.72629" lon="2.53453">
        <ele>83</ele>
        <time>2020-12-10T15:04:15.615Z</time>
      </trkpt>
      <trkpt lat="48.72627" lon="2.53443">
        <ele>83</ele>
        <time>2020-12-10T15:04:20.617Z</time>
      </trkpt>
      <trkpt lat="48.72625" lon="2.53434">
        <ele>83</ele>
        <time>2020-12-10T15:04:25.596Z</time>
      </trkpt>
      <trkpt lat="48.72624" lon="2.53424">
        <ele>83</ele>
        <time>2020-12-10T15:04:30.617Z</time>
      </trkpt>
      <trkpt lat="48.72622" lon="2.53412">
        <ele>83</ele>
        <time>2020-12-10T15:04:35.617Z</time>
      </trkpt>
      <trkpt lat="48.72619" lon="2.53404">
        <ele>83</ele>
        <time>2020-12-10T15:04:40.613Z</time>
      </trkpt>
      <trkpt lat="48.72615" lon="2.53395">
        <ele>85</ele>
        <time>2020-12-10T15:04:45.622Z</time>
      </trkpt>
      <trkpt lat="48.72614" lon="2.53383">
        <ele>85</ele>
        <time>2020-12-10T15:04:50.606Z</time>
      </trkpt>
      <trkpt lat="48.72612" lon="2.53374">
        <ele>88</ele>
        <time>2020-12-10T15:04:55.619Z</time>
      </trkpt>
      <trkpt lat="48.72611" lon="2.53365">
        <ele>88</ele>
        <time>2020-12-10T15:05:00.627Z</time>
      </trkpt>
      <trkpt lat="48.72609" lon="2.53353">
        <ele>88</ele>
        <time>2020-12-10T15:05:05.624Z</time>
      </trkpt>
      <trkpt lat="48.72606" lon="2.53342">
        <ele>89</ele>
        <time>2020-12-10T15:05:10.621Z</time>
      </trkpt>
      <trkpt lat="48.72604" lon="2.53333">
        <ele>89</ele>
        <time>2020-12-10T15:05:15.611Z</time>
      </trkpt>
      <trkpt lat="48.72602" lon="2.53323">
        <ele>89</ele>
        <time>2020-12-10T15:05:20.618Z</time>
      </trkpt>
      <trkpt lat="48.72601" lon="2.53314">
        <ele>90</ele>
        <time>2020-12-10T15:05:25.600Z</time>
      </trkpt>
      <trkpt lat="48.726" lon="2.53305">
        <ele>90</ele>
        <time>2020-12-10T15:05:29.615Z</time>
      </trkpt>
      <trkpt lat="48.72596" lon="2.53286">
        <ele>92</ele>
        <time>2020-12-10T15:05:59.618Z</time>
      </trkpt>
      <trkpt lat="48.72595" lon="2.53283">
        <ele>92</ele>
        <time>2020-12-10T15:06:04.615Z</time>
      </trkpt>
      <trkpt lat="48.72594" lon="2.53278">
        <ele>92</ele>
        <time>2020-12-10T15:06:09.601Z</time>
      </trkpt>
      <trkpt lat="48.72594" lon="2.53272">
        <ele>92</ele>
        <time>2020-12-10T15:06:13.622Z</time>
      </trkpt>
      <trkpt lat="48.72593" lon="2.53269">
        <ele>92</ele>
        <time>2020-12-10T15:06:18.611Z</time>
      </trkpt>
      <trkpt lat="48.72594" lon="2.53264">
        <ele>92</ele>
        <time>2020-12-10T15:07:28.622Z</time>
      </trkpt>
      <trkpt lat="48.72591" lon="2.53269">
        <ele>92</ele>
        <time>2020-12-10T15:07:33.624Z</time>
      </trkpt>
      <trkpt lat="48.7259" lon="2.53278">
        <ele>92</ele>
        <time>2020-12-10T15:07:38.618Z</time>
      </trkpt>
      <trkpt lat="48.7259" lon="2.53285">
        <ele>92</ele>
        <time>2020-12-10T15:07:43.625Z</time>
      </trkpt>
      <trkpt lat="48.7259" lon="2.5329">
        <ele>92</ele>
        <time>2020-12-10T15:07:48.615Z</time>
      </trkpt>
      <trkpt lat="48.72592" lon="2.5329">
        <ele>92</ele>
        <time>2020-12-10T15:07:53.623Z</time>
      </trkpt>
      <trkpt lat="48.72592" lon="2.53289">
        <ele>92</ele>
        <time>2020-12-10T15:07:58.602Z</time>
      </trkpt>
      <trkpt lat="48.72596" lon="2.53285">
        <ele>92</ele>
        <time>2020-12-10T15:08:02.623Z</time>
      </trkpt>
      <trkpt lat="48.72603" lon="2.53275">
        <ele>90</ele>
        <time>2020-12-10T15:08:07.623Z</time>
      </trkpt>
      <trkpt lat="48.72605" lon="2.53263">
        <ele>89</ele>
        <time>2020-12-10T15:08:12.608Z</time>
      </trkpt>
      <trkpt lat="48.72606" lon="2.5325">
        <ele>89</ele>
        <time>2020-12-10T15:08:17.609Z</time>
      </trkpt>
      <trkpt lat="48.72607" lon="2.53241">
        <ele>89</ele>
        <time>2020-12-10T15:08:22.634Z</time>
      </trkpt>
      <trkpt lat="48.72607" lon="2.53231">
        <ele>89</ele>
        <time>2020-12-10T15:08:27.623Z</time>
      </trkpt>
      <trkpt lat="48.72604" lon="2.53215">
        <ele>89</ele>
        <time>2020-12-10T15:10:24.621Z</time>
      </trkpt>
      <trkpt lat="48.72604" lon="2.53215">
        <ele>89</ele>
        <time>2020-12-10T15:10:29.626Z</time>
      </trkpt>
      <trkpt lat="48.72604" lon="2.53215">
        <ele>89</ele>
        <time>2020-12-10T15:10:34.628Z</time>
      </trkpt>
      <trkpt lat="48.72604" lon="2.53214">
        <ele>89</ele>
        <time>2020-12-10T15:10:39.621Z</time>
      </trkpt>
      <trkpt lat="48.72604" lon="2.53205">
        <ele>88</ele>
        <time>2020-12-10T15:10:44.612Z</time>
      </trkpt>
      <trkpt lat="48.72602" lon="2.53195">
        <ele>88</ele>
        <time>2020-12-10T15:10:49.614Z</time>
      </trkpt>
      <trkpt lat="48.72602" lon="2.53184">
        <ele>88</ele>
        <time>2020-12-10T15:10:54.619Z</time>
      </trkpt>
      <trkpt lat="48.72603" lon="2.53175">
        <ele>88</ele>
        <time>2020-12-10T15:10:59.615Z</time>
      </trkpt>
      <trkpt lat="48.72604" lon="2.53166">
        <ele>88</ele>
        <time>2020-12-10T15:11:04.617Z</time>
      </trkpt>
      <trkpt lat="48.72604" lon="2.53159">
        <ele>88</ele>
        <time>2020-12-10T15:11:09.619Z</time>
      </trkpt>
      <trkpt lat="48.72605" lon="2.53151">
        <ele>89</ele>
        <time>2020-12-10T15:11:14.613Z</time>
      </trkpt>
      <trkpt lat="48.72608" lon="2.53144">
        <ele>89</ele>
        <time>2020-12-10T15:11:19.622Z</time>
      </trkpt>
      <trkpt lat="48.7261" lon="2.53137">
        <ele>89</ele>
        <time>2020-12-10T15:11:24.624Z</time>
      </trkpt>
      <trkpt lat="48.72612" lon="2.53131">
        <ele>89</ele>
        <time>2020-12-10T15:11:28.617Z</time>
      </trkpt>
      <trkpt lat="48.72613" lon="2.53121">
        <ele>89</ele>
        <time>2020-12-10T15:11:33.613Z</time>
      </trkpt>
      <trkpt lat="48.72614" lon="2.53112">
        <ele>89</ele>
        <time>2020-12-10T15:11:38.619Z</time>
      </trkpt>
      <trkpt lat="48.72614" lon="2.53103">
        <ele>89</ele>
        <time>2020-12-10T15:11:43.620Z</time>
      </trkpt>
      <trkpt lat="48.72615" lon="2.53095">
        <ele>89</ele>
        <time>2020-12-10T15:11:48.617Z</time>
      </trkpt>
      <trkpt lat="48.72617" lon="2.53083">
        <ele>89</ele>
        <time>2020-12-10T15:11:53.619Z</time>
      </trkpt>
      <trkpt lat="48.72617" lon="2.53074">
        <ele>89</ele>
        <time>2020-12-10T15:11:58.625Z</time>
      </trkpt>
      <trkpt lat="48.72619" lon="2.53067">
        <ele>90</ele>
        <time>2020-12-10T15:12:03.616Z</time>
      </trkpt>
      <trkpt lat="48.7262" lon="2.53055">
        <ele>90</ele>
        <time>2020-12-10T15:12:08.628Z</time>
      </trkpt>
      <trkpt lat="48.72622" lon="2.53045">
        <ele>90</ele>
        <time>2020-12-10T15:12:13.621Z</time>
      </trkpt>
      <trkpt lat="48.72625" lon="2.53035">
        <ele>91</ele>
        <time>2020-12-10T15:12:18.623Z</time>
      </trkpt>
      <trkpt lat="48.72627" lon="2.53024">
        <ele>91</ele>
        <time>2020-12-10T15:12:23.612Z</time>
      </trkpt>
      <trkpt lat="48.72628" lon="2.53014">
        <ele>91</ele>
        <time>2020-12-10T15:12:28.618Z</time>
      </trkpt>
      <trkpt lat="48.72631" lon="2.53004">
        <ele>91</ele>
        <time>2020-12-10T15:12:33.626Z</time>
      </trkpt>
      <trkpt lat="48.72633" lon="2.52996">
        <ele>91</ele>
        <time>2020-12-10T15:12:38.621Z</time>
      </trkpt>
      <trkpt lat="48.72635" lon="2.52988">
        <ele>91</ele>
        <time>2020-12-10T15:12:43.613Z</time>
      </trkpt>
      <trkpt lat="48.72639" lon="2.52978">
        <ele>91</ele>
        <time>2020-12-10T15:12:48.624Z</time>
      </trkpt>
      <trkpt lat="48.72643" lon="2.52967">
        <ele>91</ele>
        <time>2020-12-10T15:12:53.631Z</time>
      </trkpt>
      <trkpt lat="48.72647" lon="2.52956">
        <ele>91</ele>
        <time>2020-12-10T15:12:58.622Z</time>
      </trkpt>
      <trkpt lat="48.72651" lon="2.52947">
        <ele>91</ele>
        <time>2020-12-10T15:13:03.622Z</time>
      </trkpt>
      <trkpt lat="48.72654" lon="2.52937">
        <ele>90</ele>
        <time>2020-12-10T15:13:08.624Z</time>
      </trkpt>
      <trkpt lat="48.72656" lon="2.52929">
        <ele>90</ele>
        <time>2020-12-10T15:13:13.624Z</time>
      </trkpt>
      <trkpt lat="48.72658" lon="2.5292">
        <ele>90</ele>
        <time>2020-12-10T15:13:18.611Z</time>
      </trkpt>
      <trkpt lat="48.72661" lon="2.52912">
        <ele>90</ele>
        <time>2020-12-10T15:13:22.625Z</time>
      </trkpt>
      <trkpt lat="48.72664" lon="2.52904">
        <ele>90</ele>
        <time>2020-12-10T15:13:27.630Z</time>
      </trkpt>
      <trkpt lat="48.72667" lon="2.52894">
        <ele>91</ele>
        <time>2020-12-10T15:13:32.613Z</time>
      </trkpt>
      <trkpt lat="48.72668" lon="2.52886">
        <ele>91</ele>
        <time>2020-12-10T15:13:37.620Z</time>
      </trkpt>
      <trkpt lat="48.72671" lon="2.52875">
        <ele>91</ele>
        <time>2020-12-10T15:13:42.619Z</time>
      </trkpt>
      <trkpt lat="48.72676" lon="2.52865">
        <ele>91</ele>
        <time>2020-12-10T15:13:47.617Z</time>
      </trkpt>
      <trkpt lat="48.72678" lon="2.52854">
        <ele>91</ele>
        <time>2020-12-10T15:13:52.614Z</time>
      </trkpt>
      <trkpt lat="48.7268" lon="2.52847">
        <ele>92</ele>
        <time>2020-12-10T15:13:56.622Z</time>
      </trkpt>
      <trkpt lat="48.72683" lon="2.52836">
        <ele>91</ele>
        <time>2020-12-10T15:14:01.614Z</time>
      </trkpt>
      <trkpt lat="48.72684" lon="2.52826">
        <ele>91</ele>
        <time>2020-12-10T15:14:05.625Z</time>
      </trkpt>
      <trkpt lat="48.72686" lon="2.52817">
        <ele>92</ele>
        <time>2020-12-10T15:14:10.608Z</time>
      </trkpt>
      <trkpt lat="48.72689" lon="2.52809">
        <ele>92</ele>
        <time>2020-12-10T15:14:14.624Z</time>
      </trkpt>
      <trkpt lat="48.72694" lon="2.52801">
        <ele>92</ele>
        <time>2020-12-10T15:14:19.618Z</time>
      </trkpt>
      <trkpt lat="48.72699" lon="2.52798">
        <ele>92</ele>
        <time>2020-12-10T15:14:24.624Z</time>
      </trkpt>
      <trkpt lat="48.72703" lon="2.52796">
        <ele>92</ele>
        <time>2020-12-10T15:14:29.628Z</time>
      </trkpt>
      <trkpt lat="48.7271" lon="2.52791">
        <ele>94</ele>
        <time>2020-12-10T15:14:34.613Z</time>
      </trkpt>
      <trkpt lat="48.72714" lon="2.52789">
        <ele>94</ele>
        <time>2020-12-10T15:14:38.624Z</time>
      </trkpt>
      <trkpt lat="48.7272" lon="2.52781">
        <ele>94</ele>
        <time>2020-12-10T15:14:43.618Z</time>
      </trkpt>
      <trkpt lat="48.72726" lon="2.52776">
        <ele>94</ele>
        <time>2020-12-10T15:14:48.613Z</time>
      </trkpt>
      <trkpt lat="48.72733" lon="2.52772">
        <ele>94</ele>
        <time>2020-12-10T15:14:52.643Z</time>
      </trkpt>
      <trkpt lat="48.72736" lon="2.52764">
        <ele>95</ele>
        <time>2020-12-10T15:14:57.617Z</time>
      </trkpt>
      <trkpt lat="48.72738" lon="2.52751">
        <ele>96</ele>
        <time>2020-12-10T15:15:02.620Z</time>
      </trkpt>
      <trkpt lat="48.72742" lon="2.52739">
        <ele>96</ele>
        <time>2020-12-10T15:15:07.609Z</time>
      </trkpt>
      <trkpt lat="48.72745" lon="2.52727">
        <ele>96</ele>
        <time>2020-12-10T15:15:12.615Z</time>
      </trkpt>
      <trkpt lat="48.72749" lon="2.52718">
        <ele>96</ele>
        <time>2020-12-10T15:15:17.613Z</time>
      </trkpt>
      <trkpt lat="48.72752" lon="2.52712">
        <ele>96</ele>
        <time>2020-12-10T15:15:21.622Z</time>
      </trkpt>
      <trkpt lat="48.72755" lon="2.52704">
        <ele>96</ele>
        <time>2020-12-10T15:15:25.643Z</time>
      </trkpt>
      <trkpt lat="48.72758" lon="2.52694">
        <ele>96</ele>
        <time>2020-12-10T15:15:30.615Z</time>
      </trkpt>
      <trkpt lat="48.72762" lon="2.52686">
        <ele>96</ele>
        <time>2020-12-10T15:15:35.611Z</time>
      </trkpt>
      <trkpt lat="48.72765" lon="2.52679">
        <ele>94</ele>
        <time>2020-12-10T15:15:40.624Z</time>
      </trkpt>
      <trkpt lat="48.72766" lon="2.52671">
        <ele>94</ele>
        <time>2020-12-10T15:15:45.624Z</time>
      </trkpt>
      <trkpt lat="48.72768" lon="2.52671">
        <ele>94</ele>
        <time>2020-12-10T15:15:49.636Z</time>
      </trkpt>
      <trkpt lat="48.72769" lon="2.52669">
        <ele>94</ele>
        <time>2020-12-10T15:15:54.633Z</time>
      </trkpt>
      <trkpt lat="48.72775" lon="2.52667">
        <ele>94</ele>
        <time>2020-12-10T15:15:59.598Z</time>
      </trkpt>
      <trkpt lat="48.72782" lon="2.52661">
        <ele>94</ele>
        <time>2020-12-10T15:16:04.618Z</time>
      </trkpt>
      <trkpt lat="48.72784" lon="2.52649">
        <ele>93</ele>
        <time>2020-12-10T15:16:09.606Z</time>
      </trkpt>
      <trkpt lat="48.72786" lon="2.52639">
        <ele>93</ele>
        <time>2020-12-10T15:16:14.615Z</time>
      </trkpt>
      <trkpt lat="48.72789" lon="2.5263">
        <ele>93</ele>
        <time>2020-12-10T15:16:19.637Z</time>
      </trkpt>
      <trkpt lat="48.7279" lon="2.52619">
        <ele>93</ele>
        <time>2020-12-10T15:16:24.619Z</time>
      </trkpt>
      <trkpt lat="48.72793" lon="2.52608">
        <ele>93</ele>
        <time>2020-12-10T15:16:29.602Z</time>
      </trkpt>
      <trkpt lat="48.72796" lon="2.52602">
        <ele>93</ele>
        <time>2020-12-10T15:16:34.610Z</time>
      </trkpt>
      <trkpt lat="48.728" lon="2.52596">
        <ele>93</ele>
        <time>2020-12-10T15:16:39.615Z</time>
      </trkpt>
      <trkpt lat="48.72803" lon="2.52587">
        <ele>93</ele>
        <time>2020-12-10T15:16:44.613Z</time>
      </trkpt>
      <trkpt lat="48.72806" lon="2.52578">
        <ele>93</ele>
        <time>2020-12-10T15:16:49.608Z</time>
      </trkpt>
      <trkpt lat="48.72808" lon="2.52569">
        <ele>93</ele>
        <time>2020-12-10T15:16:54.615Z</time>
      </trkpt>
      <trkpt lat="48.7281" lon="2.52567">
        <ele>94</ele>
        <time>2020-12-10T15:16:59.608Z</time>
      </trkpt>
      <trkpt lat="48.72813" lon="2.52561">
        <ele>94</ele>
        <time>2020-12-10T15:17:03.619Z</time>
      </trkpt>
      <trkpt lat="48.72817" lon="2.52549">
        <ele>94</ele>
        <time>2020-12-10T15:17:08.621Z</time>
      </trkpt>
      <trkpt lat="48.72819" lon="2.52537">
        <ele>94</ele>
        <time>2020-12-10T15:17:13.621Z</time>
      </trkpt>
      <trkpt lat="48.7282" lon="2.52524">
        <ele>93</ele>
        <time>2020-12-10T15:17:18.619Z</time>
      </trkpt>
      <trkpt lat="48.72823" lon="2.52514">
        <ele>93</ele>
        <time>2020-12-10T15:17:23.617Z</time>
      </trkpt>
      <trkpt lat="48.72826" lon="2.52503">
        <ele>93</ele>
        <time>2020-12-10T15:17:28.651Z</time>
      </trkpt>
      <trkpt lat="48.72828" lon="2.52493">
        <ele>93</ele>
        <time>2020-12-10T15:17:33.621Z</time>
      </trkpt>
      <trkpt lat="48.7283" lon="2.52482">
        <ele>94</ele>
        <time>2020-12-10T15:17:38.594Z</time>
      </trkpt>
      <trkpt lat="48.72834" lon="2.52472">
        <ele>94</ele>
        <time>2020-12-10T15:17:43.606Z</time>
      </trkpt>
      <trkpt lat="48.72839" lon="2.52463">
        <ele>94</ele>
        <time>2020-12-10T15:17:48.607Z</time>
      </trkpt>
      <trkpt lat="48.72842" lon="2.52455">
        <ele>95</ele>
        <time>2020-12-10T15:17:53.600Z</time>
      </trkpt>
      <trkpt lat="48.72845" lon="2.52448">
        <ele>95</ele>
        <time>2020-12-10T15:17:58.592Z</time>
      </trkpt>
      <trkpt lat="48.72847" lon="2.52444">
        <ele>94</ele>
        <time>2020-12-10T15:18:02.613Z</time>
      </trkpt>
      <trkpt lat="48.7285" lon="2.52439">
        <ele>94</ele>
        <time>2020-12-10T15:18:07.585Z</time>
      </trkpt>
      <trkpt lat="48.72854" lon="2.52431">
        <ele>94</ele>
        <time>2020-12-10T15:18:12.595Z</time>
      </trkpt>
      <trkpt lat="48.72856" lon="2.52424">
        <ele>95</ele>
        <time>2020-12-10T15:18:16.616Z</time>
      </trkpt>
      <trkpt lat="48.72858" lon="2.52418">
        <ele>95</ele>
        <time>2020-12-10T15:18:20.623Z</time>
      </trkpt>
      <trkpt lat="48.72862" lon="2.52407">
        <ele>95</ele>
        <time>2020-12-10T15:18:25.614Z</time>
      </trkpt>
      <trkpt lat="48.72868" lon="2.524">
        <ele>96</ele>
        <time>2020-12-10T15:18:30.618Z</time>
      </trkpt>
      <trkpt lat="48.72872" lon="2.52396">
        <ele>96</ele>
        <time>2020-12-10T15:18:34.628Z</time>
      </trkpt>
      <trkpt lat="48.72875" lon="2.52388">
        <ele>96</ele>
        <time>2020-12-10T15:18:39.628Z</time>
      </trkpt>
      <trkpt lat="48.72879" lon="2.52376">
        <ele>96</ele>
        <time>2020-12-10T15:18:44.631Z</time>
      </trkpt>
      <trkpt lat="48.72883" lon="2.52364">
        <ele>96</ele>
        <time>2020-12-10T15:18:49.618Z</time>
      </trkpt>
      <trkpt lat="48.72887" lon="2.52356">
        <ele>96</ele>
        <time>2020-12-10T15:18:54.619Z</time>
      </trkpt>
      <trkpt lat="48.72892" lon="2.52348">
        <ele>96</ele>
        <time>2020-12-10T15:18:59.612Z</time>
      </trkpt>
      <trkpt lat="48.72896" lon="2.52339">
        <ele>96</ele>
        <time>2020-12-10T15:19:04.609Z</time>
      </trkpt>
      <trkpt lat="48.72898" lon="2.52331">
        <ele>96</ele>
        <time>2020-12-10T15:19:09.620Z</time>
      </trkpt>
      <trkpt lat="48.72902" lon="2.52321">
        <ele>96</ele>
        <time>2020-12-10T15:19:14.624Z</time>
      </trkpt>
      <trkpt lat="48.72906" lon="2.52312">
        <ele>96</ele>
        <time>2020-12-10T15:19:19.613Z</time>
      </trkpt>
      <trkpt lat="48.7291" lon="2.52302">
        <ele>96</ele>
        <time>2020-12-10T15:19:24.630Z</time>
      </trkpt>
      <trkpt lat="48.72912" lon="2.52295">
        <ele>96</ele>
        <time>2020-12-10T15:19:28.615Z</time>
      </trkpt>
      <trkpt lat="48.72913" lon="2.52282">
        <ele>97</ele>
        <time>2020-12-10T15:19:32.617Z</time>
      </trkpt>
      <trkpt lat="48.72918" lon="2.52272">
        <ele>97</ele>
        <time>2020-12-10T15:19:37.614Z</time>
      </trkpt>
      <trkpt lat="48.72921" lon="2.52263">
        <ele>98</ele>
        <time>2020-12-10T15:19:42.615Z</time>
      </trkpt>
      <trkpt lat="48.72923" lon="2.52252">
        <ele>98</ele>
        <time>2020-12-10T15:19:47.613Z</time>
      </trkpt>
      <trkpt lat="48.72927" lon="2.52241">
        <ele>98</ele>
        <time>2020-12-10T15:19:52.621Z</time>
      </trkpt>
      <trkpt lat="48.72932" lon="2.52233">
        <ele>93</ele>
        <time>2020-12-10T15:19:57.604Z</time>
      </trkpt>
      <trkpt lat="48.72937" lon="2.52227">
        <ele>93</ele>
        <time>2020-12-10T15:20:01.621Z</time>
      </trkpt>
      <trkpt lat="48.72942" lon="2.52218">
        <ele>93</ele>
        <time>2020-12-10T15:20:06.626Z</time>
      </trkpt>
      <trkpt lat="48.72946" lon="2.52209">
        <ele>93</ele>
        <time>2020-12-10T15:20:11.618Z</time>
      </trkpt>
      <trkpt lat="48.72948" lon="2.52199">
        <ele>93</ele>
        <time>2020-12-10T15:20:16.625Z</time>
      </trkpt>
      <trkpt lat="48.72955" lon="2.52195">
        <ele>93</ele>
        <time>2020-12-10T15:20:21.616Z</time>
      </trkpt>
      <trkpt lat="48.72961" lon="2.52189">
        <ele>90</ele>
        <time>2020-12-10T15:20:25.617Z</time>
      </trkpt>
      <trkpt lat="48.72969" lon="2.52181">
        <ele>90</ele>
        <time>2020-12-10T15:20:30.625Z</time>
      </trkpt>
      <trkpt lat="48.72971" lon="2.52173">
        <ele>91</ele>
        <time>2020-12-10T15:20:35.625Z</time>
      </trkpt>
      <trkpt lat="48.72976" lon="2.52165">
        <ele>91</ele>
        <time>2020-12-10T15:20:40.615Z</time>
      </trkpt>
      <trkpt lat="48.7298" lon="2.52159">
        <ele>91</ele>
        <time>2020-12-10T15:20:45.622Z</time>
      </trkpt>
      <trkpt lat="48.72985" lon="2.5215">
        <ele>92</ele>
        <time>2020-12-10T15:20:50.610Z</time>
      </trkpt>
      <trkpt lat="48.72988" lon="2.5214">
        <ele>91</ele>
        <time>2020-12-10T15:20:55.601Z</time>
      </trkpt>
      <trkpt lat="48.72988" lon="2.52132">
        <ele>91</ele>
        <time>2020-12-10T15:20:59.623Z</time>
      </trkpt>
      <trkpt lat="48.72992" lon="2.52122">
        <ele>92</ele>
        <time>2020-12-10T15:21:04.620Z</time>
      </trkpt>
      <trkpt lat="48.72996" lon="2.52108">
        <ele>92</ele>
        <time>2020-12-10T15:21:09.621Z</time>
      </trkpt>
      <trkpt lat="48.73" lon="2.52096">
        <ele>93</ele>
        <time>2020-12-10T15:21:14.619Z</time>
      </trkpt>
      <trkpt lat="48.73003" lon="2.52087">
        <ele>93</ele>
        <time>2020-12-10T15:21:18.622Z</time>
      </trkpt>
      <trkpt lat="48.73006" lon="2.5208">
        <ele>93</ele>
        <time>2020-12-10T15:21:23.620Z</time>
      </trkpt>
      <trkpt lat="48.7301" lon="2.52074">
        <ele>93</ele>
        <time>2020-12-10T15:21:27.618Z</time>
      </trkpt>
      <trkpt lat="48.73012" lon="2.52062">
        <ele>93</ele>
        <time>2020-12-10T15:21:32.600Z</time>
      </trkpt>
      <trkpt lat="48.73014" lon="2.52055">
        <ele>94</ele>
        <time>2020-12-10T15:21:36.613Z</time>
      </trkpt>
      <trkpt lat="48.73019" lon="2.52051">
        <ele>94</ele>
        <time>2020-12-10T15:21:41.622Z</time>
      </trkpt>
      <trkpt lat="48.73025" lon="2.52044">
        <ele>94</ele>
        <time>2020-12-10T15:21:46.615Z</time>
      </trkpt>
      <trkpt lat="48.73026" lon="2.52035">
        <ele>94</ele>
        <time>2020-12-10T15:21:51.616Z</time>
      </trkpt>
      <trkpt lat="48.73026" lon="2.52026">
        <ele>94</ele>
        <time>2020-12-10T15:21:56.614Z</time>
      </trkpt>
      <trkpt lat="48.73028" lon="2.52016">
        <ele>94</ele>
        <time>2020-12-10T15:22:01.614Z</time>
      </trkpt>
      <trkpt lat="48.7303" lon="2.52007">
        <ele>96</ele>
        <time>2020-12-10T15:22:06.606Z</time>
      </trkpt>
      <trkpt lat="48.73033" lon="2.51998">
        <ele>96</ele>
        <time>2020-12-10T15:22:10.613Z</time>
      </trkpt>
      <trkpt lat="48.73037" lon="2.51989">
        <ele>96</ele>
        <time>2020-12-10T15:22:15.625Z</time>
      </trkpt>
      <trkpt lat="48.73042" lon="2.51979">
        <ele>97</ele>
        <time>2020-12-10T15:22:20.620Z</time>
      </trkpt>
      <trkpt lat="48.73044" lon="2.5197">
        <ele>97</ele>
        <time>2020-12-10T15:22:25.618Z</time>
      </trkpt>
      <trkpt lat="48.73047" lon="2.5196">
        <ele>97</ele>
        <time>2020-12-10T15:22:30.609Z</time>
      </trkpt>
      <trkpt lat="48.73052" lon="2.51952">
        <ele>98</ele>
        <time>2020-12-10T15:22:35.609Z</time>
      </trkpt>
      <trkpt lat="48.73055" lon="2.51945">
        <ele>98</ele>
        <time>2020-12-10T15:22:39.618Z</time>
      </trkpt>
      <trkpt lat="48.73062" lon="2.51937">
        <ele>98</ele>
        <time>2020-12-10T15:22:44.619Z</time>
      </trkpt>
      <trkpt lat="48.73065" lon="2.51934">
        <ele>98</ele>
        <time>2020-12-10T15:22:48.614Z</time>
      </trkpt>
      <trkpt lat="48.73068" lon="2.51919">
        <ele>99</ele>
        <time>2020-12-10T15:22:53.615Z</time>
      </trkpt>
      <trkpt lat="48.73071" lon="2.51912">
        <ele>97</ele>
        <time>2020-12-10T15:22:57.620Z</time>
      </trkpt>
      <trkpt lat="48.73072" lon="2.51901">
        <ele>96</ele>
        <time>2020-12-10T15:23:02.616Z</time>
      </trkpt>
      <trkpt lat="48.73073" lon="2.51892">
        <ele>96</ele>
        <time>2020-12-10T15:23:07.593Z</time>
      </trkpt>
      <trkpt lat="48.73073" lon="2.51882">
        <ele>96</ele>
        <time>2020-12-10T15:23:12.616Z</time>
      </trkpt>
      <trkpt lat="48.73077" lon="2.51876">
        <ele>96</ele>
        <time>2020-12-10T15:23:16.611Z</time>
      </trkpt>
      <trkpt lat="48.73078" lon="2.51862">
        <ele>96</ele>
        <time>2020-12-10T15:23:21.596Z</time>
      </trkpt>
      <trkpt lat="48.73081" lon="2.51852">
        <ele>96</ele>
        <time>2020-12-10T15:23:26.622Z</time>
      </trkpt>
      <trkpt lat="48.73083" lon="2.51845">
        <ele>96</ele>
        <time>2020-12-10T15:23:30.621Z</time>
      </trkpt>
      <trkpt lat="48.73087" lon="2.51837">
        <ele>96</ele>
        <time>2020-12-10T15:23:35.621Z</time>
      </trkpt>
      <trkpt lat="48.73091" lon="2.51827">
        <ele>96</ele>
        <time>2020-12-10T15:23:39.624Z</time>
      </trkpt>
      <trkpt lat="48.73095" lon="2.51815">
        <ele>96</ele>
        <time>2020-12-10T15:23:44.608Z</time>
      </trkpt>
      <trkpt lat="48.73099" lon="2.51807">
        <ele>93</ele>
        <time>2020-12-10T15:23:49.625Z</time>
      </trkpt>
      <trkpt lat="48.73104" lon="2.51803">
        <ele>93</ele>
        <time>2020-12-10T15:23:53.625Z</time>
      </trkpt>
      <trkpt lat="48.73107" lon="2.51794">
        <ele>93</ele>
        <time>2020-12-10T15:23:58.605Z</time>
      </trkpt>
      <trkpt lat="48.73112" lon="2.51787">
        <ele>93</ele>
        <time>2020-12-10T15:24:03.620Z</time>
      </trkpt>
      <trkpt lat="48.73117" lon="2.51779">
        <ele>93</ele>
        <time>2020-12-10T15:24:07.597Z</time>
      </trkpt>
      <trkpt lat="48.73119" lon="2.51772">
        <ele>93</ele>
        <time>2020-12-10T15:24:11.611Z</time>
      </trkpt>
      <trkpt lat="48.73124" lon="2.51764">
        <ele>93</ele>
        <time>2020-12-10T15:24:16.608Z</time>
      </trkpt>
      <trkpt lat="48.73127" lon="2.51754">
        <ele>91</ele>
        <time>2020-12-10T15:24:21.609Z</time>
      </trkpt>
      <trkpt lat="48.73131" lon="2.51745">
        <ele>91</ele>
        <time>2020-12-10T15:24:26.608Z</time>
      </trkpt>
      <trkpt lat="48.73136" lon="2.51736">
        <ele>91</ele>
        <time>2020-12-10T15:24:31.605Z</time>
      </trkpt>
      <trkpt lat="48.7314" lon="2.51728">
        <ele>91</ele>
        <time>2020-12-10T15:24:36.596Z</time>
      </trkpt>
      <trkpt lat="48.73142" lon="2.51718">
        <ele>91</ele>
        <time>2020-12-10T15:24:40.594Z</time>
      </trkpt>
      <trkpt lat="48.73145" lon="2.51706">
        <ele>91</ele>
        <time>2020-12-10T15:24:45.606Z</time>
      </trkpt>
      <trkpt lat="48.73147" lon="2.517">
        <ele>91</ele>
        <time>2020-12-10T15:24:49.610Z</time>
      </trkpt>
      <trkpt lat="48.73149" lon="2.5169">
        <ele>91</ele>
        <time>2020-12-10T15:24:54.613Z</time>
      </trkpt>
      <trkpt lat="48.73153" lon="2.51681">
        <ele>91</ele>
        <time>2020-12-10T15:24:59.607Z</time>
      </trkpt>
      <trkpt lat="48.73158" lon="2.51674">
        <ele>92</ele>
        <time>2020-12-10T15:25:04.609Z</time>
      </trkpt>
      <trkpt lat="48.73164" lon="2.51668">
        <ele>92</ele>
        <time>2020-12-10T15:25:09.616Z</time>
      </trkpt>
      <trkpt lat="48.73167" lon="2.5166">
        <ele>92</ele>
        <time>2020-12-10T15:25:14.615Z</time>
      </trkpt>
      <trkpt lat="48.73171" lon="2.5165">
        <ele>93</ele>
        <time>2020-12-10T15:25:19.599Z</time>
      </trkpt>
      <trkpt lat="48.73174" lon="2.51639">
        <ele>93</ele>
        <time>2020-12-10T15:25:23.610Z</time>
      </trkpt>
      <trkpt lat="48.73177" lon="2.51629">
        <ele>93</ele>
        <time>2020-12-10T15:25:28.599Z</time>
      </trkpt>
      <trkpt lat="48.73181" lon="2.51622">
        <ele>93</ele>
        <time>2020-12-10T15:25:32.596Z</time>
      </trkpt>
      <trkpt lat="48.73189" lon="2.51615">
        <ele>93</ele>
        <time>2020-12-10T15:25:37.604Z</time>
      </trkpt>
      <trkpt lat="48.73196" lon="2.51609">
        <ele>93</ele>
        <time>2020-12-10T15:25:42.603Z</time>
      </trkpt>
      <trkpt lat="48.73197" lon="2.51605">
        <ele>93</ele>
        <time>2020-12-10T15:25:46.622Z</time>
      </trkpt>
      <trkpt lat="48.73201" lon="2.51589">
        <ele>93</ele>
        <time>2020-12-10T15:25:51.600Z</time>
      </trkpt>
      <trkpt lat="48.73204" lon="2.51578">
        <ele>93</ele>
        <time>2020-12-10T15:25:56.613Z</time>
      </trkpt>
      <trkpt lat="48.73208" lon="2.51569">
        <ele>93</ele>
        <time>2020-12-10T15:26:01.610Z</time>
      </trkpt>
      <trkpt lat="48.73211" lon="2.51559">
        <ele>92</ele>
        <time>2020-12-10T15:26:06.625Z</time>
      </trkpt>
      <trkpt lat="48.73213" lon="2.51552">
        <ele>92</ele>
        <time>2020-12-10T15:26:11.606Z</time>
      </trkpt>
      <trkpt lat="48.73214" lon="2.51542">
        <ele>92</ele>
        <time>2020-12-10T15:26:16.599Z</time>
      </trkpt>
      <trkpt lat="48.73216" lon="2.51534">
        <ele>92</ele>
        <time>2020-12-10T15:26:20.616Z</time>
      </trkpt>
      <trkpt lat="48.73218" lon="2.51527">
        <ele>92</ele>
        <time>2020-12-10T15:26:25.614Z</time>
      </trkpt>
      <trkpt lat="48.73223" lon="2.51515">
        <ele>92</ele>
        <time>2020-12-10T15:26:30.603Z</time>
      </trkpt>
      <trkpt lat="48.73227" lon="2.51508">
        <ele>92</ele>
        <time>2020-12-10T15:26:35.607Z</time>
      </trkpt>
      <trkpt lat="48.73231" lon="2.51498">
        <ele>92</ele>
        <time>2020-12-10T15:26:40.598Z</time>
      </trkpt>
      <trkpt lat="48.73235" lon="2.51484">
        <ele>92</ele>
        <time>2020-12-10T15:26:45.601Z</time>
      </trkpt>
      <trkpt lat="48.73237" lon="2.51475">
        <ele>91</ele>
        <time>2020-12-10T15:26:50.611Z</time>
      </trkpt>
      <trkpt lat="48.7324" lon="2.51467">
        <ele>91</ele>
        <time>2020-12-10T15:26:55.607Z</time>
      </trkpt>
      <trkpt lat="48.73244" lon="2.51461">
        <ele>91</ele>
        <time>2020-12-10T15:27:00.599Z</time>
      </trkpt>
      <trkpt lat="48.73246" lon="2.51457">
        <ele>91</ele>
        <time>2020-12-10T15:27:04.610Z</time>
      </trkpt>
      <trkpt lat="48.73251" lon="2.51449">
        <ele>91</ele>
        <time>2020-12-10T15:27:09.606Z</time>
      </trkpt>
      <trkpt lat="48.73254" lon="2.51438">
        <ele>91</ele>
        <time>2020-12-10T15:27:14.599Z</time>
      </trkpt>
      <trkpt lat="48.73257" lon="2.51432">
        <ele>91</ele>
        <time>2020-12-10T15:27:18.616Z</time>
      </trkpt>
      <trkpt lat="48.73259" lon="2.51422">
        <ele>91</ele>
        <time>2020-12-10T15:27:23.606Z</time>
      </trkpt>
      <trkpt lat="48.73263" lon="2.51415">
        <ele>91</ele>
        <time>2020-12-10T15:27:27.609Z</time>
      </trkpt>
      <trkpt lat="48.73265" lon="2.51404">
        <ele>93</ele>
        <time>2020-12-10T15:27:32.595Z</time>
      </trkpt>
      <trkpt lat="48.73266" lon="2.51396">
        <ele>94</ele>
        <time>2020-12-10T15:27:36.603Z</time>
      </trkpt>
      <trkpt lat="48.73269" lon="2.51384">
        <ele>94</ele>
        <time>2020-12-10T15:27:41.596Z</time>
      </trkpt>
      <trkpt lat="48.73272" lon="2.51374">
        <ele>95</ele>
        <time>2020-12-10T15:27:46.608Z</time>
      </trkpt>
      <trkpt lat="48.73276" lon="2.51361">
        <ele>95</ele>
        <time>2020-12-10T15:27:51.607Z</time>
      </trkpt>
      <trkpt lat="48.73279" lon="2.51348">
        <ele>95</ele>
        <time>2020-12-10T15:27:55.605Z</time>
      </trkpt>
      <trkpt lat="48.7328" lon="2.51344">
        <ele>95</ele>
        <time>2020-12-10T15:28:00.594Z</time>
      </trkpt>
      <trkpt lat="48.7328" lon="2.51339">
        <ele>95</ele>
        <time>2020-12-10T15:28:05.596Z</time>
      </trkpt>
      <trkpt lat="48.73278" lon="2.5134">
        <ele>95</ele>
        <time>2020-12-10T15:28:39.608Z</time>
      </trkpt>
      <trkpt lat="48.73279" lon="2.51332">
        <ele>95</ele>
        <time>2020-12-10T15:28:44.605Z</time>
      </trkpt>
      <trkpt lat="48.73274" lon="2.51325">
        <ele>95</ele>
        <time>2020-12-10T15:28:49.595Z</time>
      </trkpt>
      <trkpt lat="48.73277" lon="2.51322">
        <ele>95</ele>
        <time>2020-12-10T15:28:53.599Z</time>
      </trkpt>
      <trkpt lat="48.73281" lon="2.51318">
        <ele>94</ele>
        <time>2020-12-10T15:28:58.597Z</time>
      </trkpt>
      <trkpt lat="48.73282" lon="2.51316">
        <ele>94</ele>
        <time>2020-12-10T15:29:03.589Z</time>
      </trkpt>
      <trkpt lat="48.73285" lon="2.51311">
        <ele>94</ele>
        <time>2020-12-10T15:29:08.599Z</time>
      </trkpt>
      <trkpt lat="48.73289" lon="2.51298">
        <ele>94</ele>
        <time>2020-12-10T15:29:13.598Z</time>
      </trkpt>
      <trkpt lat="48.73294" lon="2.51282">
        <ele>97</ele>
        <time>2020-12-10T15:29:18.586Z</time>
      </trkpt>
      <trkpt lat="48.73297" lon="2.51277">
        <ele>97</ele>
        <time>2020-12-10T15:29:23.596Z</time>
      </trkpt>
      <trkpt lat="48.733" lon="2.51266">
        <ele>97</ele>
        <time>2020-12-10T15:29:28.594Z</time>
      </trkpt>
      <trkpt lat="48.73303" lon="2.51266">
        <ele>97</ele>
        <time>2020-12-10T15:29:32.601Z</time>
      </trkpt>
      <trkpt lat="48.73304" lon="2.51259">
        <ele>96</ele>
        <time>2020-12-10T15:29:37.595Z</time>
      </trkpt>
      <trkpt lat="48.73306" lon="2.5125">
        <ele>96</ele>
        <time>2020-12-10T15:29:42.594Z</time>
      </trkpt>
      <trkpt lat="48.7331" lon="2.51239">
        <ele>96</ele>
        <time>2020-12-10T15:29:46.597Z</time>
      </trkpt>
      <trkpt lat="48.73313" lon="2.51229">
        <ele>96</ele>
        <time>2020-12-10T15:29:51.590Z</time>
      </trkpt>
      <trkpt lat="48.73317" lon="2.51223">
        <ele>96</ele>
        <time>2020-12-10T15:29:56.592Z</time>
      </trkpt>
      <trkpt lat="48.73316" lon="2.51217">
        <ele>96</ele>
        <time>2020-12-10T15:30:01.580Z</time>
      </trkpt>
      <trkpt lat="48.7332" lon="2.51209">
        <ele>98</ele>
        <time>2020-12-10T15:30:05.586Z</time>
      </trkpt>
      <trkpt lat="48.73322" lon="2.51208">
        <ele>97</ele>
        <time>2020-12-10T15:30:09.585Z</time>
      </trkpt>
      <trkpt lat="48.73322" lon="2.51194">
        <ele>97</ele>
        <time>2020-12-10T15:30:14.607Z</time>
      </trkpt>
      <trkpt lat="48.73318" lon="2.51176">
        <ele>95</ele>
        <time>2020-12-10T15:30:19.609Z</time>
      </trkpt>
      <trkpt lat="48.7332" lon="2.51169">
        <ele>97</ele>
        <time>2020-12-10T15:30:24.590Z</time>
      </trkpt>
      <trkpt lat="48.73321" lon="2.51157">
        <ele>97</ele>
        <time>2020-12-10T15:30:29.595Z</time>
      </trkpt>
      <trkpt lat="48.73322" lon="2.51147">
        <ele>96</ele>
        <time>2020-12-10T15:30:34.584Z</time>
      </trkpt>
      <trkpt lat="48.73325" lon="2.51136">
        <ele>96</ele>
        <time>2020-12-10T15:30:39.594Z</time>
      </trkpt>
      <trkpt lat="48.73331" lon="2.51136">
        <ele>96</ele>
        <time>2020-12-10T15:30:44.592Z</time>
      </trkpt>
      <trkpt lat="48.73336" lon="2.5113">
        <ele>96</ele>
        <time>2020-12-10T15:30:48.595Z</time>
      </trkpt>
      <trkpt lat="48.73342" lon="2.51128">
        <ele>96</ele>
        <time>2020-12-10T15:30:53.612Z</time>
      </trkpt>
      <trkpt lat="48.73346" lon="2.51121">
        <ele>95</ele>
        <time>2020-12-10T15:30:58.586Z</time>
      </trkpt>
      <trkpt lat="48.73349" lon="2.51114">
        <ele>98</ele>
        <time>2020-12-10T15:31:02.577Z</time>
      </trkpt>
      <trkpt lat="48.73353" lon="2.51107">
        <ele>98</ele>
        <time>2020-12-10T15:31:06.596Z</time>
      </trkpt>
      <trkpt lat="48.73356" lon="2.511">
        <ele>98</ele>
        <time>2020-12-10T15:31:10.596Z</time>
      </trkpt>
      <trkpt lat="48.73362" lon="2.51091">
        <ele>97</ele>
        <time>2020-12-10T15:31:15.591Z</time>
      </trkpt>
      <trkpt lat="48.73365" lon="2.51086">
        <ele>97</ele>
        <time>2020-12-10T15:31:20.572Z</time>
      </trkpt>
      <trkpt lat="48.73369" lon="2.51086">
        <ele>97</ele>
        <time>2020-12-10T15:31:24.595Z</time>
      </trkpt>
      <trkpt lat="48.73376" lon="2.5108">
        <ele>98</ele>
        <time>2020-12-10T15:31:29.587Z</time>
      </trkpt>
      <trkpt lat="48.73383" lon="2.51076">
        <ele>98</ele>
        <time>2020-12-10T15:31:34.591Z</time>
      </trkpt>
      <trkpt lat="48.73387" lon="2.51067">
        <ele>98</ele>
        <time>2020-12-10T15:31:38.591Z</time>
      </trkpt>
      <trkpt lat="48.73391" lon="2.51062">
        <ele>98</ele>
        <time>2020-12-10T15:31:43.594Z</time>
      </trkpt>
      <trkpt lat="48.73396" lon="2.51057">
        <ele>98</ele>
        <time>2020-12-10T15:31:48.596Z</time>
      </trkpt>
      <trkpt lat="48.73402" lon="2.51056">
        <ele>98</ele>
        <time>2020-12-10T15:31:53.593Z</time>
      </trkpt>
      <trkpt lat="48.73408" lon="2.5105">
        <ele>97</ele>
        <time>2020-12-10T15:31:58.612Z</time>
      </trkpt>
      <trkpt lat="48.7341" lon="2.51041">
        <ele>97</ele>
        <time>2020-12-10T15:32:03.594Z</time>
      </trkpt>
      <trkpt lat="48.73419" lon="2.51034">
        <ele>97</ele>
        <time>2020-12-10T15:32:08.586Z</time>
      </trkpt>
      <trkpt lat="48.73424" lon="2.51032">
        <ele>97</ele>
        <time>2020-12-10T15:32:12.586Z</time>
      </trkpt>
      <trkpt lat="48.73427" lon="2.51028">
        <ele>97</ele>
        <time>2020-12-10T15:32:16.588Z</time>
      </trkpt>
      <trkpt lat="48.73433" lon="2.51022">
        <ele>99</ele>
        <time>2020-12-10T15:32:21.587Z</time>
      </trkpt>
      <trkpt lat="48.73437" lon="2.51019">
        <ele>99</ele>
        <time>2020-12-10T15:32:25.583Z</time>
      </trkpt>
      <trkpt lat="48.73442" lon="2.51015">
        <ele>99</ele>
        <time>2020-12-10T15:32:30.597Z</time>
      </trkpt>
      <trkpt lat="48.73449" lon="2.51007">
        <ele>99</ele>
        <time>2020-12-10T15:32:35.591Z</time>
      </trkpt>
      <trkpt lat="48.73451" lon="2.51003">
        <ele>99</ele>
        <time>2020-12-10T15:32:39.603Z</time>
      </trkpt>
      <trkpt lat="48.73453" lon="2.50997">
        <ele>99</ele>
        <time>2020-12-10T15:32:44.595Z</time>
      </trkpt>
      <trkpt lat="48.73457" lon="2.5099">
        <ele>99</ele>
        <time>2020-12-10T15:32:49.599Z</time>
      </trkpt>
      <trkpt lat="48.7346" lon="2.50986">
        <ele>99</ele>
        <time>2020-12-10T15:32:54.594Z</time>
      </trkpt>
      <trkpt lat="48.73462" lon="2.5098">
        <ele>99</ele>
        <time>2020-12-10T15:32:59.590Z</time>
      </trkpt>
      <trkpt lat="48.7346" lon="2.50969">
        <ele>99</ele>
        <time>2020-12-10T15:33:04.590Z</time>
      </trkpt>
      <trkpt lat="48.73463" lon="2.50962">
        <ele>99</ele>
        <time>2020-12-10T15:33:09.582Z</time>
      </trkpt>
      <trkpt lat="48.73465" lon="2.50953">
        <ele>99</ele>
        <time>2020-12-10T15:33:13.592Z</time>
      </trkpt>
      <trkpt lat="48.73467" lon="2.50946">
        <ele>99</ele>
        <time>2020-12-10T15:33:18.593Z</time>
      </trkpt>
      <trkpt lat="48.7347" lon="2.50939">
        <ele>99</ele>
        <time>2020-12-10T15:33:22.585Z</time>
      </trkpt>
      <trkpt lat="48.73472" lon="2.50933">
        <ele>99</ele>
        <time>2020-12-10T15:33:26.608Z</time>
      </trkpt>
      <trkpt lat="48.73475" lon="2.50924">
        <ele>98</ele>
        <time>2020-12-10T15:33:31.596Z</time>
      </trkpt>
      <trkpt lat="48.73477" lon="2.50914">
        <ele>98</ele>
        <time>2020-12-10T15:33:35.592Z</time>
      </trkpt>
      <trkpt lat="48.73481" lon="2.50908">
        <ele>98</ele>
        <time>2020-12-10T15:33:40.602Z</time>
      </trkpt>
      <trkpt lat="48.73485" lon="2.50899">
        <ele>97</ele>
        <time>2020-12-10T15:33:45.594Z</time>
      </trkpt>
      <trkpt lat="48.73488" lon="2.50894">
        <ele>97</ele>
        <time>2020-12-10T15:33:49.595Z</time>
      </trkpt>
      <trkpt lat="48.7349" lon="2.50888">
        <ele>97</ele>
        <time>2020-12-10T15:33:54.603Z</time>
      </trkpt>
      <trkpt lat="48.73492" lon="2.50873">
        <ele>97</ele>
        <time>2020-12-10T15:33:59.588Z</time>
      </trkpt>
      <trkpt lat="48.73495" lon="2.50872">
        <ele>97</ele>
        <time>2020-12-10T15:34:03.593Z</time>
      </trkpt>
      <trkpt lat="48.73496" lon="2.50868">
        <ele>97</ele>
        <time>2020-12-10T15:34:08.594Z</time>
      </trkpt>
      <trkpt lat="48.735" lon="2.50854">
        <ele>97</ele>
        <time>2020-12-10T15:34:13.573Z</time>
      </trkpt>
      <trkpt lat="48.73503" lon="2.50846">
        <ele>96</ele>
        <time>2020-12-10T15:34:17.588Z</time>
      </trkpt>
      <trkpt lat="48.73502" lon="2.50841">
        <ele>96</ele>
        <time>2020-12-10T15:34:21.603Z</time>
      </trkpt>
      <trkpt lat="48.73509" lon="2.50834">
        <ele>96</ele>
        <time>2020-12-10T15:34:26.591Z</time>
      </trkpt>
      <trkpt lat="48.73513" lon="2.50826">
        <ele>96</ele>
        <time>2020-12-10T15:34:31.594Z</time>
      </trkpt>
      <trkpt lat="48.73515" lon="2.50817">
        <ele>97</ele>
        <time>2020-12-10T15:34:36.591Z</time>
      </trkpt>
      <trkpt lat="48.73519" lon="2.5081">
        <ele>97</ele>
        <time>2020-12-10T15:34:40.600Z</time>
      </trkpt>
      <trkpt lat="48.73524" lon="2.50801">
        <ele>97</ele>
        <time>2020-12-10T15:34:45.595Z</time>
      </trkpt>
      <trkpt lat="48.73525" lon="2.50799">
        <ele>97</ele>
        <time>2020-12-10T15:34:50.587Z</time>
      </trkpt>
      <trkpt lat="48.73533" lon="2.50795">
        <ele>97</ele>
        <time>2020-12-10T15:34:54.596Z</time>
      </trkpt>
      <trkpt lat="48.73537" lon="2.50785">
        <ele>95</ele>
        <time>2020-12-10T15:34:59.592Z</time>
      </trkpt>
      <trkpt lat="48.73541" lon="2.50776">
        <ele>95</ele>
        <time>2020-12-10T15:35:04.602Z</time>
      </trkpt>
      <trkpt lat="48.73548" lon="2.50773">
        <ele>97</ele>
        <time>2020-12-10T15:35:09.596Z</time>
      </trkpt>
      <trkpt lat="48.73552" lon="2.50764">
        <ele>97</ele>
        <time>2020-12-10T15:35:14.584Z</time>
      </trkpt>
      <trkpt lat="48.73557" lon="2.5076">
        <ele>96</ele>
        <time>2020-12-10T15:35:19.576Z</time>
      </trkpt>
      <trkpt lat="48.73563" lon="2.50754">
        <ele>96</ele>
        <time>2020-12-10T15:35:24.598Z</time>
      </trkpt>
      <trkpt lat="48.73565" lon="2.5075">
        <ele>96</ele>
        <time>2020-12-10T15:35:28.585Z</time>
      </trkpt>
      <trkpt lat="48.7357" lon="2.50743">
        <ele>96</ele>
        <time>2020-12-10T15:35:33.588Z</time>
      </trkpt>
      <trkpt lat="48.73574" lon="2.50733">
        <ele>96</ele>
        <time>2020-12-10T15:35:38.591Z</time>
      </trkpt>
      <trkpt lat="48.73578" lon="2.50728">
        <ele>96</ele>
        <time>2020-12-10T15:35:42.575Z</time>
      </trkpt>
      <trkpt lat="48.73583" lon="2.50722">
        <ele>96</ele>
        <time>2020-12-10T15:35:46.595Z</time>
      </trkpt>
      <trkpt lat="48.73581" lon="2.50719">
        <ele>96</ele>
        <time>2020-12-10T15:35:51.590Z</time>
      </trkpt>
      <trkpt lat="48.73585" lon="2.50707">
        <ele>95</ele>
        <time>2020-12-10T15:35:55.585Z</time>
      </trkpt>
      <trkpt lat="48.73592" lon="2.50701">
        <ele>95</ele>
        <time>2020-12-10T15:36:00.592Z</time>
      </trkpt>
      <trkpt lat="48.73601" lon="2.50697">
        <ele>95</ele>
        <time>2020-12-10T15:36:05.592Z</time>
      </trkpt>
      <trkpt lat="48.73605" lon="2.5069">
        <ele>95</ele>
        <time>2020-12-10T15:36:10.596Z</time>
      </trkpt>
      <trkpt lat="48.73608" lon="2.50684">
        <ele>95</ele>
        <time>2020-12-10T15:36:15.584Z</time>
      </trkpt>
      <trkpt lat="48.73612" lon="2.50681">
        <ele>95</ele>
        <time>2020-12-10T15:36:20.593Z</time>
      </trkpt>
      <trkpt lat="48.73616" lon="2.50676">
        <ele>95</ele>
        <time>2020-12-10T15:36:24.593Z</time>
      </trkpt>
      <trkpt lat="48.73622" lon="2.50671">
        <ele>95</ele>
        <time>2020-12-10T15:36:29.592Z</time>
      </trkpt>
      <trkpt lat="48.73626" lon="2.50664">
        <ele>96</ele>
        <time>2020-12-10T15:36:34.593Z</time>
      </trkpt>
      <trkpt lat="48.73631" lon="2.50661">
        <ele>96</ele>
        <time>2020-12-10T15:36:38.585Z</time>
      </trkpt>
      <trkpt lat="48.73636" lon="2.50654">
        <ele>96</ele>
        <time>2020-12-10T15:36:43.590Z</time>
      </trkpt>
      <trkpt lat="48.7364" lon="2.50647">
        <ele>96</ele>
        <time>2020-12-10T15:36:48.580Z</time>
      </trkpt>
      <trkpt lat="48.73642" lon="2.50641">
        <ele>96</ele>
        <time>2020-12-10T15:36:52.595Z</time>
      </trkpt>
      <trkpt lat="48.73644" lon="2.5063">
        <ele>96</ele>
        <time>2020-12-10T15:36:57.591Z</time>
      </trkpt>
      <trkpt lat="48.73644" lon="2.5062">
        <ele>96</ele>
        <time>2020-12-10T15:37:02.585Z</time>
      </trkpt>
      <trkpt lat="48.73647" lon="2.50613">
        <ele>96</ele>
        <time>2020-12-10T15:37:07.576Z</time>
      </trkpt>
      <trkpt lat="48.73649" lon="2.50608">
        <ele>96</ele>
        <time>2020-12-10T15:37:11.593Z</time>
      </trkpt>
      <trkpt lat="48.73649" lon="2.50598">
        <ele>96</ele>
        <time>2020-12-10T15:37:16.586Z</time>
      </trkpt>
      <trkpt lat="48.73649" lon="2.50588">
        <ele>97</ele>
        <time>2020-12-10T15:37:21.587Z</time>
      </trkpt>
      <trkpt lat="48.73649" lon="2.5058">
        <ele>97</ele>
        <time>2020-12-10T15:37:25.586Z</time>
      </trkpt>
      <trkpt lat="48.7365" lon="2.5057">
        <ele>97</ele>
        <time>2020-12-10T15:37:30.583Z</time>
      </trkpt>
      <trkpt lat="48.73654" lon="2.5056">
        <ele>97</ele>
        <time>2020-12-10T15:37:35.593Z</time>
      </trkpt>
      <trkpt lat="48.73655" lon="2.50554">
        <ele>97</ele>
        <time>2020-12-10T15:37:39.593Z</time>
      </trkpt>
      <trkpt lat="48.73659" lon="2.50548">
        <ele>97</ele>
        <time>2020-12-10T15:37:44.595Z</time>
      </trkpt>
      <trkpt lat="48.73665" lon="2.5054">
        <ele>97</ele>
        <time>2020-12-10T15:37:49.587Z</time>
      </trkpt>
      <trkpt lat="48.73667" lon="2.50531">
        <ele>97</ele>
        <time>2020-12-10T15:37:54.598Z</time>
      </trkpt>
      <trkpt lat="48.73672" lon="2.50521">
        <ele>97</ele>
        <time>2020-12-10T15:37:59.590Z</time>
      </trkpt>
      <trkpt lat="48.73673" lon="2.50512">
        <ele>96</ele>
        <time>2020-12-10T15:38:03.597Z</time>
      </trkpt>
      <trkpt lat="48.73675" lon="2.50499">
        <ele>96</ele>
        <time>2020-12-10T15:38:08.590Z</time>
      </trkpt>
      <trkpt lat="48.73677" lon="2.50491">
        <ele>96</ele>
        <time>2020-12-10T15:38:12.585Z</time>
      </trkpt>
      <trkpt lat="48.73678" lon="2.5048">
        <ele>95</ele>
        <time>2020-12-10T15:38:17.596Z</time>
      </trkpt>
      <trkpt lat="48.7368" lon="2.50476">
        <ele>95</ele>
        <time>2020-12-10T15:38:22.586Z</time>
      </trkpt>
      <trkpt lat="48.73683" lon="2.5047">
        <ele>97</ele>
        <time>2020-12-10T15:38:26.582Z</time>
      </trkpt>
      <trkpt lat="48.73685" lon="2.5046">
        <ele>97</ele>
        <time>2020-12-10T15:38:31.587Z</time>
      </trkpt>
      <trkpt lat="48.73689" lon="2.50455">
        <ele>94</ele>
        <time>2020-12-10T15:38:35.587Z</time>
      </trkpt>
      <trkpt lat="48.73693" lon="2.50448">
        <ele>94</ele>
        <time>2020-12-10T15:38:40.597Z</time>
      </trkpt>
      <trkpt lat="48.73695" lon="2.50443">
        <ele>94</ele>
        <time>2020-12-10T15:38:45.587Z</time>
      </trkpt>
      <trkpt lat="48.73697" lon="2.50439">
        <ele>94</ele>
        <time>2020-12-10T15:38:49.585Z</time>
      </trkpt>
      <trkpt lat="48.73699" lon="2.50432">
        <ele>94</ele>
        <time>2020-12-10T15:38:54.588Z</time>
      </trkpt>
      <trkpt lat="48.73703" lon="2.50427">
        <ele>93</ele>
        <time>2020-12-10T15:38:58.591Z</time>
      </trkpt>
      <trkpt lat="48.73706" lon="2.50417">
        <ele>93</ele>
        <time>2020-12-10T15:39:03.584Z</time>
      </trkpt>
      <trkpt lat="48.73707" lon="2.50407">
        <ele>93</ele>
        <time>2020-12-10T15:39:08.583Z</time>
      </trkpt>
      <trkpt lat="48.73708" lon="2.504">
        <ele>93</ele>
        <time>2020-12-10T15:39:12.570Z</time>
      </trkpt>
      <trkpt lat="48.7371" lon="2.50393">
        <ele>95</ele>
        <time>2020-12-10T15:39:16.584Z</time>
      </trkpt>
      <trkpt lat="48.73713" lon="2.50387">
        <ele>95</ele>
        <time>2020-12-10T15:39:20.589Z</time>
      </trkpt>
      <trkpt lat="48.73717" lon="2.50378">
        <ele>95</ele>
        <time>2020-12-10T15:39:25.595Z</time>
      </trkpt>
      <trkpt lat="48.7372" lon="2.50372">
        <ele>95</ele>
        <time>2020-12-10T15:39:30.585Z</time>
      </trkpt>
      <trkpt lat="48.73721" lon="2.50364">
        <ele>95</ele>
        <time>2020-12-10T15:39:34.584Z</time>
      </trkpt>
      <trkpt lat="48.73723" lon="2.50352">
        <ele>95</ele>
        <time>2020-12-10T15:39:39.589Z</time>
      </trkpt>
      <trkpt lat="48.73725" lon="2.50341">
        <ele>94</ele>
        <time>2020-12-10T15:39:44.598Z</time>
      </trkpt>
      <trkpt lat="48.73729" lon="2.50332">
        <ele>94</ele>
        <time>2020-12-10T15:39:49.578Z</time>
      </trkpt>
      <trkpt lat="48.73731" lon="2.50325">
        <ele>94</ele>
        <time>2020-12-10T15:39:54.584Z</time>
      </trkpt>
      <trkpt lat="48.73733" lon="2.50318">
        <ele>95</ele>
        <time>2020-12-10T15:39:59.591Z</time>
      </trkpt>
      <trkpt lat="48.73735" lon="2.50306">
        <ele>95</ele>
        <time>2020-12-10T15:40:04.570Z</time>
      </trkpt>
      <trkpt lat="48.73734" lon="2.50296">
        <ele>95</ele>
        <time>2020-12-10T15:40:08.599Z</time>
      </trkpt>
      <trkpt lat="48.73733" lon="2.50292">
        <ele>96</ele>
        <time>2020-12-10T15:40:13.600Z</time>
      </trkpt>
      <trkpt lat="48.73731" lon="2.5029">
        <ele>96</ele>
        <time>2020-12-10T15:40:18.590Z</time>
      </trkpt>
      <trkpt lat="48.73727" lon="2.50288">
        <ele>96</ele>
        <time>2020-12-10T15:40:22.581Z</time>
      </trkpt>
      <trkpt lat="48.73723" lon="2.50286">
        <ele>96</ele>
        <time>2020-12-10T15:40:27.578Z</time>
      </trkpt>
      <trkpt lat="48.73719" lon="2.50284">
        <ele>96</ele>
        <time>2020-12-10T15:40:32.588Z</time>
      </trkpt>
      <trkpt lat="48.73715" lon="2.50285">
        <ele>96</ele>
        <time>2020-12-10T15:40:36.599Z</time>
      </trkpt>
      <trkpt lat="48.73707" lon="2.5029">
        <ele>96</ele>
        <time>2020-12-10T15:40:41.589Z</time>
      </trkpt>
      <trkpt lat="48.73699" lon="2.5029">
        <ele>96</ele>
        <time>2020-12-10T15:40:45.595Z</time>
      </trkpt>
      <trkpt lat="48.7369" lon="2.50295">
        <ele>95</ele>
        <time>2020-12-10T15:40:50.595Z</time>
      </trkpt>
      <trkpt lat="48.73686" lon="2.50294">
        <ele>95</ele>
        <time>2020-12-10T15:40:55.571Z</time>
      </trkpt>
      <trkpt lat="48.73678" lon="2.50296">
        <ele>95</ele>
        <time>2020-12-10T15:41:00.588Z</time>
      </trkpt>
      <trkpt lat="48.73669" lon="2.50297">
        <ele>95</ele>
        <time>2020-12-10T15:41:05.575Z</time>
      </trkpt>
      <trkpt lat="48.73661" lon="2.50295">
        <ele>95</ele>
        <time>2020-12-10T15:41:10.590Z</time>
      </trkpt>
      <trkpt lat="48.73657" lon="2.5029">
        <ele>95</ele>
        <time>2020-12-10T15:41:15.586Z</time>
      </trkpt>
      <trkpt lat="48.73654" lon="2.50289">
        <ele>95</ele>
        <time>2020-12-10T15:41:19.596Z</time>
      </trkpt>
      <trkpt lat="48.73652" lon="2.50291">
        <ele>94</ele>
        <time>2020-12-10T15:41:24.599Z</time>
      </trkpt>
      <trkpt lat="48.73645" lon="2.50296">
        <ele>95</ele>
        <time>2020-12-10T15:41:29.595Z</time>
      </trkpt>
      <trkpt lat="48.73638" lon="2.503">
        <ele>95</ele>
        <time>2020-12-10T15:41:34.583Z</time>
      </trkpt>
      <trkpt lat="48.73631" lon="2.50302">
        <ele>95</ele>
        <time>2020-12-10T15:41:39.583Z</time>
      </trkpt>
      <trkpt lat="48.73623" lon="2.50301">
        <ele>95</ele>
        <time>2020-12-10T15:41:44.579Z</time>
      </trkpt>
      <trkpt lat="48.73615" lon="2.50298">
        <ele>95</ele>
        <time>2020-12-10T15:41:49.578Z</time>
      </trkpt>
      <trkpt lat="48.73604" lon="2.50303">
        <ele>95</ele>
        <time>2020-12-10T15:41:54.582Z</time>
      </trkpt>
      <trkpt lat="48.73599" lon="2.50305">
        <ele>95</ele>
        <time>2020-12-10T15:41:58.591Z</time>
      </trkpt>
      <trkpt lat="48.73594" lon="2.503">
        <ele>96</ele>
        <time>2020-12-10T15:42:03.578Z</time>
      </trkpt>
      <trkpt lat="48.73592" lon="2.50296">
        <ele>96</ele>
        <time>2020-12-10T15:42:07.591Z</time>
      </trkpt>
      <trkpt lat="48.73585" lon="2.50295">
        <ele>96</ele>
        <time>2020-12-10T15:42:12.592Z</time>
      </trkpt>
      <trkpt lat="48.73579" lon="2.50307">
        <ele>96</ele>
        <time>2020-12-10T15:42:17.595Z</time>
      </trkpt>
      <trkpt lat="48.73569" lon="2.50304">
        <ele>96</ele>
        <time>2020-12-10T15:42:22.584Z</time>
      </trkpt>
      <trkpt lat="48.73561" lon="2.50306">
        <ele>96</ele>
        <time>2020-12-10T15:42:26.584Z</time>
      </trkpt>
      <trkpt lat="48.73554" lon="2.50314">
        <ele>96</ele>
        <time>2020-12-10T15:42:31.594Z</time>
      </trkpt>
      <trkpt lat="48.73548" lon="2.50308">
        <ele>96</ele>
        <time>2020-12-10T15:42:36.595Z</time>
      </trkpt>
      <trkpt lat="48.73538" lon="2.50312">
        <ele>95</ele>
        <time>2020-12-10T15:42:41.585Z</time>
      </trkpt>
      <trkpt lat="48.73532" lon="2.50308">
        <ele>95</ele>
        <time>2020-12-10T15:42:45.590Z</time>
      </trkpt>
      <trkpt lat="48.73525" lon="2.50304">
        <ele>95</ele>
        <time>2020-12-10T15:42:49.587Z</time>
      </trkpt>
      <trkpt lat="48.73514" lon="2.5031">
        <ele>95</ele>
        <time>2020-12-10T15:42:53.582Z</time>
      </trkpt>
      <trkpt lat="48.7351" lon="2.50311">
        <ele>95</ele>
        <time>2020-12-10T15:42:58.599Z</time>
      </trkpt>
      <trkpt lat="48.73508" lon="2.50314">
        <ele>95</ele>
        <time>2020-12-10T15:43:03.592Z</time>
      </trkpt>
      <trkpt lat="48.73502" lon="2.50309">
        <ele>95</ele>
        <time>2020-12-10T15:43:17.591Z</time>
      </trkpt>
      <trkpt lat="48.73499" lon="2.50305">
        <ele>95</ele>
        <time>2020-12-10T15:43:22.598Z</time>
      </trkpt>
      <trkpt lat="48.73492" lon="2.50303">
        <ele>95</ele>
        <time>2020-12-10T15:43:27.587Z</time>
      </trkpt>
      <trkpt lat="48.73487" lon="2.50301">
        <ele>95</ele>
        <time>2020-12-10T15:43:32.605Z</time>
      </trkpt>
      <trkpt lat="48.73477" lon="2.50298">
        <ele>95</ele>
        <time>2020-12-10T15:43:37.600Z</time>
      </trkpt>
      <trkpt lat="48.7347" lon="2.50298">
        <ele>95</ele>
        <time>2020-12-10T15:43:42.587Z</time>
      </trkpt>
      <trkpt lat="48.73462" lon="2.50309">
        <ele>95</ele>
        <time>2020-12-10T15:43:47.579Z</time>
      </trkpt>
      <trkpt lat="48.7346" lon="2.50315">
        <ele>95</ele>
        <time>2020-12-10T15:43:51.587Z</time>
      </trkpt>
      <trkpt lat="48.7345" lon="2.50315">
        <ele>94</ele>
        <time>2020-12-10T15:43:55.592Z</time>
      </trkpt>
      <trkpt lat="48.7345" lon="2.50315">
        <ele>94</ele>
        <time>2020-12-10T15:44:00.575Z</time>
      </trkpt>
      <trkpt lat="48.73443" lon="2.50317">
        <ele>94</ele>
        <time>2020-12-10T15:44:05.584Z</time>
      </trkpt>
      <trkpt lat="48.73432" lon="2.50323">
        <ele>96</ele>
        <time>2020-12-10T15:44:10.573Z</time>
      </trkpt>
      <trkpt lat="48.73426" lon="2.50318">
        <ele>91</ele>
        <time>2020-12-10T15:44:15.589Z</time>
      </trkpt>
      <trkpt lat="48.7342" lon="2.50315">
        <ele>91</ele>
        <time>2020-12-10T15:44:20.583Z</time>
      </trkpt>
      <trkpt lat="48.73416" lon="2.50311">
        <ele>91</ele>
        <time>2020-12-10T15:44:25.587Z</time>
      </trkpt>
      <trkpt lat="48.73408" lon="2.50312">
        <ele>91</ele>
        <time>2020-12-10T15:44:30.578Z</time>
      </trkpt>
      <trkpt lat="48.73403" lon="2.50314">
        <ele>91</ele>
        <time>2020-12-10T15:44:35.579Z</time>
      </trkpt>
      <trkpt lat="48.734" lon="2.50308">
        <ele>91</ele>
        <time>2020-12-10T15:44:40.583Z</time>
      </trkpt>
      <trkpt lat="48.73389" lon="2.50317">
        <ele>91</ele>
        <time>2020-12-10T15:44:45.582Z</time>
      </trkpt>
      <trkpt lat="48.73384" lon="2.50321">
        <ele>92</ele>
        <time>2020-12-10T15:44:50.592Z</time>
      </trkpt>
      <trkpt lat="48.73379" lon="2.5032">
        <ele>92</ele>
        <time>2020-12-10T15:44:55.584Z</time>
      </trkpt>
      <trkpt lat="48.73373" lon="2.5032">
        <ele>93</ele>
        <time>2020-12-10T15:44:59.585Z</time>
      </trkpt>
      <trkpt lat="48.73368" lon="2.50319">
        <ele>93</ele>
        <time>2020-12-10T15:45:03.592Z</time>
      </trkpt>
      <trkpt lat="48.73366" lon="2.50319">
        <ele>93</ele>
        <time>2020-12-10T15:45:08.588Z</time>
      </trkpt>
      <trkpt lat="48.73359" lon="2.50319">
        <ele>93</ele>
        <time>2020-12-10T15:45:13.590Z</time>
      </trkpt>
      <trkpt lat="48.73351" lon="2.50318">
        <ele>93</ele>
        <time>2020-12-10T15:45:18.596Z</time>
      </trkpt>
      <trkpt lat="48.73352" lon="2.50298">
        <ele>93</ele>
        <time>2020-12-10T15:45:23.594Z</time>
      </trkpt>
      <trkpt lat="48.7335" lon="2.50288">
        <ele>93</ele>
        <time>2020-12-10T15:45:28.584Z</time>
      </trkpt>
      <trkpt lat="48.73355" lon="2.50286">
        <ele>93</ele>
        <time>2020-12-10T15:45:33.577Z</time>
      </trkpt>
      <trkpt lat="48.7336" lon="2.50284">
        <ele>93</ele>
        <time>2020-12-10T15:45:37.572Z</time>
      </trkpt>
      <trkpt lat="48.73358" lon="2.50276">
        <ele>93</ele>
        <time>2020-12-10T15:45:42.582Z</time>
      </trkpt>
      <trkpt lat="48.73354" lon="2.50268">
        <ele>93</ele>
        <time>2020-12-10T15:45:47.593Z</time>
      </trkpt>
      <trkpt lat="48.73354" lon="2.50262">
        <ele>92</ele>
        <time>2020-12-10T15:45:52.581Z</time>
      </trkpt>
      <trkpt lat="48.73355" lon="2.50257">
        <ele>92</ele>
        <time>2020-12-10T15:45:56.598Z</time>
      </trkpt>
      <trkpt lat="48.73359" lon="2.50251">
        <ele>92</ele>
        <time>2020-12-10T15:46:01.599Z</time>
      </trkpt>
      <trkpt lat="48.73362" lon="2.50236">
        <ele>93</ele>
        <time>2020-12-10T15:46:06.584Z</time>
      </trkpt>
      <trkpt lat="48.73358" lon="2.50224">
        <ele>93</ele>
        <time>2020-12-10T15:46:10.578Z</time>
      </trkpt>
      <trkpt lat="48.73358" lon="2.50208">
        <ele>94</ele>
        <time>2020-12-10T15:46:14.583Z</time>
      </trkpt>
      <trkpt lat="48.73362" lon="2.50203">
        <ele>94</ele>
        <time>2020-12-10T15:46:18.594Z</time>
      </trkpt>
      <trkpt lat="48.73362" lon="2.50201">
        <ele>94</ele>
        <time>2020-12-10T15:46:23.584Z</time>
      </trkpt>
      <trkpt lat="48.73361" lon="2.50199">
        <ele>94</ele>
        <time>2020-12-10T15:46:28.577Z</time>
      </trkpt>
      <trkpt lat="48.7336" lon="2.50184">
        <ele>94</ele>
        <time>2020-12-10T15:46:33.584Z</time>
      </trkpt>
      <trkpt lat="48.7336" lon="2.50165">
        <ele>94</ele>
        <time>2020-12-10T15:46:37.587Z</time>
      </trkpt>
      <trkpt lat="48.73363" lon="2.50154">
        <ele>94</ele>
        <time>2020-12-10T15:46:42.582Z</time>
      </trkpt>
      <trkpt lat="48.73365" lon="2.5015">
        <ele>93</ele>
        <time>2020-12-10T15:46:46.579Z</time>
      </trkpt>
      <trkpt lat="48.73364" lon="2.50149">
        <ele>93</ele>
        <time>2020-12-10T15:46:50.588Z</time>
      </trkpt>
      <trkpt lat="48.73365" lon="2.50138">
        <ele>93</ele>
        <time>2020-12-10T15:46:55.588Z</time>
      </trkpt>
      <trkpt lat="48.73365" lon="2.50125">
        <ele>92</ele>
        <time>2020-12-10T15:47:00.588Z</time>
      </trkpt>
      <trkpt lat="48.73368" lon="2.50109">
        <ele>92</ele>
        <time>2020-12-10T15:47:05.585Z</time>
      </trkpt>
      <trkpt lat="48.73368" lon="2.50103">
        <ele>92</ele>
        <time>2020-12-10T15:47:09.574Z</time>
      </trkpt>
      <trkpt lat="48.73369" lon="2.50093">
        <ele>91</ele>
        <time>2020-12-10T15:47:14.570Z</time>
      </trkpt>
      <trkpt lat="48.73369" lon="2.50088">
        <ele>91</ele>
        <time>2020-12-10T15:47:19.583Z</time>
      </trkpt>
      <trkpt lat="48.7337" lon="2.50072">
        <ele>91</ele>
        <time>2020-12-10T15:47:24.582Z</time>
      </trkpt>
      <trkpt lat="48.73373" lon="2.50063">
        <ele>90</ele>
        <time>2020-12-10T15:47:28.591Z</time>
      </trkpt>
      <trkpt lat="48.7338" lon="2.50051">
        <ele>88</ele>
        <time>2020-12-10T15:47:33.584Z</time>
      </trkpt>
      <trkpt lat="48.73383" lon="2.50042">
        <ele>88</ele>
        <time>2020-12-10T15:47:38.586Z</time>
      </trkpt>
      <trkpt lat="48.73385" lon="2.50034">
        <ele>88</ele>
        <time>2020-12-10T15:47:43.578Z</time>
      </trkpt>
      <trkpt lat="48.73385" lon="2.50031">
        <ele>88</ele>
        <time>2020-12-10T15:47:48.587Z</time>
      </trkpt>
      <trkpt lat="48.73383" lon="2.50025">
        <ele>88</ele>
        <time>2020-12-10T15:48:22.580Z</time>
      </trkpt>
      <trkpt lat="48.73384" lon="2.50019">
        <ele>88</ele>
        <time>2020-12-10T15:48:27.599Z</time>
      </trkpt>
      <trkpt lat="48.73383" lon="2.50014">
        <ele>89</ele>
        <time>2020-12-10T15:48:32.585Z</time>
      </trkpt>
      <trkpt lat="48.73382" lon="2.50006">
        <ele>89</ele>
        <time>2020-12-10T15:48:37.588Z</time>
      </trkpt>
      <trkpt lat="48.73377" lon="2.49994">
        <ele>89</ele>
        <time>2020-12-10T15:48:42.591Z</time>
      </trkpt>
      <trkpt lat="48.73372" lon="2.49982">
        <ele>92</ele>
        <time>2020-12-10T15:48:47.584Z</time>
      </trkpt>
      <trkpt lat="48.73369" lon="2.4997">
        <ele>92</ele>
        <time>2020-12-10T15:48:52.591Z</time>
      </trkpt>
      <trkpt lat="48.7337" lon="2.49959">
        <ele>92</ele>
        <time>2020-12-10T15:48:57.588Z</time>
      </trkpt>
      <trkpt lat="48.73371" lon="2.4995">
        <ele>92</ele>
        <time>2020-12-10T15:49:02.594Z</time>
      </trkpt>
      <trkpt lat="48.73374" lon="2.49943">
        <ele>92</ele>
        <time>2020-12-10T15:49:07.575Z</time>
      </trkpt>
      <trkpt lat="48.73376" lon="2.49931">
        <ele>90</ele>
        <time>2020-12-10T15:49:12.580Z</time>
      </trkpt>
      <trkpt lat="48.7338" lon="2.49923">
        <ele>90</ele>
        <time>2020-12-10T15:49:17.596Z</time>
      </trkpt>
      <trkpt lat="48.73382" lon="2.49917">
        <ele>90</ele>
        <time>2020-12-10T15:49:22.579Z</time>
      </trkpt>
      <trkpt lat="48.73385" lon="2.49907">
        <ele>90</ele>
        <time>2020-12-10T15:49:27.582Z</time>
      </trkpt>
      <trkpt lat="48.73386" lon="2.49899">
        <ele>90</ele>
        <time>2020-12-10T15:49:31.581Z</time>
      </trkpt>
      <trkpt lat="48.73381" lon="2.49886">
        <ele>90</ele>
        <time>2020-12-10T15:49:36.594Z</time>
      </trkpt>
      <trkpt lat="48.73381" lon="2.49875">
        <ele>91</ele>
        <time>2020-12-10T15:49:41.578Z</time>
      </trkpt>
      <trkpt lat="48.73383" lon="2.49868">
        <ele>91</ele>
        <time>2020-12-10T15:49:46.589Z</time>
      </trkpt>
      <trkpt lat="48.73384" lon="2.4986">
        <ele>91</ele>
        <time>2020-12-10T15:49:50.597Z</time>
      </trkpt>
      <trkpt lat="48.73386" lon="2.4985">
        <ele>91</ele>
        <time>2020-12-10T15:49:55.589Z</time>
      </trkpt>
      <trkpt lat="48.73389" lon="2.49846">
        <ele>92</ele>
        <time>2020-12-10T15:50:00.603Z</time>
      </trkpt>
      <trkpt lat="48.7339" lon="2.49835">
        <ele>92</ele>
        <time>2020-12-10T15:50:05.587Z</time>
      </trkpt>
      <trkpt lat="48.73389" lon="2.49827">
        <ele>92</ele>
        <time>2020-12-10T15:50:10.577Z</time>
      </trkpt>
      <trkpt lat="48.73387" lon="2.49819">
        <ele>92</ele>
        <time>2020-12-10T15:50:14.580Z</time>
      </trkpt>
      <trkpt lat="48.73387" lon="2.49798">
        <ele>92</ele>
        <time>2020-12-10T15:50:19.568Z</time>
      </trkpt>
      <trkpt lat="48.73387" lon="2.49791">
        <ele>91</ele>
        <time>2020-12-10T15:50:23.592Z</time>
      </trkpt>
      <trkpt lat="48.73384" lon="2.4978">
        <ele>91</ele>
        <time>2020-12-10T15:50:28.580Z</time>
      </trkpt>
      <trkpt lat="48.73386" lon="2.4977">
        <ele>91</ele>
        <time>2020-12-10T15:50:33.593Z</time>
      </trkpt>
      <trkpt lat="48.7339" lon="2.49764">
        <ele>91</ele>
        <time>2020-12-10T15:50:37.592Z</time>
      </trkpt>
      <trkpt lat="48.73394" lon="2.49758">
        <ele>92</ele>
        <time>2020-12-10T15:50:42.594Z</time>
      </trkpt>
      <trkpt lat="48.73393" lon="2.49748">
        <ele>92</ele>
        <time>2020-12-10T15:50:46.589Z</time>
      </trkpt>
      <trkpt lat="48.73392" lon="2.49736">
        <ele>93</ele>
        <time>2020-12-10T15:50:50.592Z</time>
      </trkpt>
      <trkpt lat="48.73395" lon="2.49727">
        <ele>93</ele>
        <time>2020-12-10T15:50:55.588Z</time>
      </trkpt>
      <trkpt lat="48.734" lon="2.4972">
        <ele>93</ele>
        <time>2020-12-10T15:51:00.586Z</time>
      </trkpt>
      <trkpt lat="48.73406" lon="2.49717">
        <ele>89</ele>
        <time>2020-12-10T15:51:05.584Z</time>
      </trkpt>
      <trkpt lat="48.73409" lon="2.49713">
        <ele>89</ele>
        <time>2020-12-10T15:51:09.599Z</time>
      </trkpt>
      <trkpt lat="48.7341" lon="2.49709">
        <ele>89</ele>
        <time>2020-12-10T15:51:14.592Z</time>
      </trkpt>
      <trkpt lat="48.73422" lon="2.4969">
        <ele>90</ele>
        <time>2020-12-10T15:51:25.584Z</time>
      </trkpt>
      <trkpt lat="48.73414" lon="2.49686">
        <ele>90</ele>
        <time>2020-12-10T15:51:30.573Z</time>
      </trkpt>
      <trkpt lat="48.73409" lon="2.49672">
        <ele>90</ele>
        <time>2020-12-10T15:51:34.581Z</time>
      </trkpt>
      <trkpt lat="48.73401" lon="2.49669">
        <ele>94</ele>
        <time>2020-12-10T15:51:39.582Z</time>
      </trkpt>
      <trkpt lat="48.73395" lon="2.49669">
        <ele>94</ele>
        <time>2020-12-10T15:51:44.584Z</time>
      </trkpt>
      <trkpt lat="48.73389" lon="2.49663">
        <ele>94</ele>
        <time>2020-12-10T15:51:49.592Z</time>
      </trkpt>
      <trkpt lat="48.73387" lon="2.49657">
        <ele>94</ele>
        <time>2020-12-10T15:51:54.570Z</time>
      </trkpt>
      <trkpt lat="48.73388" lon="2.4965">
        <ele>93</ele>
        <time>2020-12-10T15:51:58.576Z</time>
      </trkpt>
      <trkpt lat="48.73388" lon="2.49644">
        <ele>93</ele>
        <time>2020-12-10T15:52:03.590Z</time>
      </trkpt>
      <trkpt lat="48.73385" lon="2.49632">
        <ele>93</ele>
        <time>2020-12-10T15:52:08.580Z</time>
      </trkpt>
      <trkpt lat="48.73384" lon="2.49624">
        <ele>92</ele>
        <time>2020-12-10T15:52:12.593Z</time>
      </trkpt>
      <trkpt lat="48.73387" lon="2.49613">
        <ele>92</ele>
        <time>2020-12-10T15:52:17.577Z</time>
      </trkpt>
      <trkpt lat="48.73386" lon="2.49607">
        <ele>92</ele>
        <time>2020-12-10T15:52:21.589Z</time>
      </trkpt>
      <trkpt lat="48.73389" lon="2.49598">
        <ele>92</ele>
        <time>2020-12-10T15:52:26.579Z</time>
      </trkpt>
      <trkpt lat="48.7339" lon="2.49589">
        <ele>92</ele>
        <time>2020-12-10T15:52:31.578Z</time>
      </trkpt>
      <trkpt lat="48.73391" lon="2.49583">
        <ele>92</ele>
        <time>2020-12-10T15:52:36.580Z</time>
      </trkpt>
      <trkpt lat="48.73393" lon="2.4958">
        <ele>92</ele>
        <time>2020-12-10T15:52:41.593Z</time>
      </trkpt>
      <trkpt lat="48.73394" lon="2.4956">
        <ele>93</ele>
        <time>2020-12-10T15:52:46.583Z</time>
      </trkpt>
      <trkpt lat="48.73391" lon="2.49549">
        <ele>93</ele>
        <time>2020-12-10T15:52:51.589Z</time>
      </trkpt>
      <trkpt lat="48.73395" lon="2.49539">
        <ele>94</ele>
        <time>2020-12-10T15:52:56.586Z</time>
      </trkpt>
      <trkpt lat="48.73397" lon="2.49527">
        <ele>94</ele>
        <time>2020-12-10T15:53:01.586Z</time>
      </trkpt>
      <trkpt lat="48.73399" lon="2.49517">
        <ele>94</ele>
        <time>2020-12-10T15:53:06.572Z</time>
      </trkpt>
      <trkpt lat="48.73401" lon="2.49501">
        <ele>93</ele>
        <time>2020-12-10T15:53:11.578Z</time>
      </trkpt>
      <trkpt lat="48.73402" lon="2.49494">
        <ele>93</ele>
        <time>2020-12-10T15:53:15.575Z</time>
      </trkpt>
      <trkpt lat="48.73402" lon="2.49485">
        <ele>93</ele>
        <time>2020-12-10T15:53:20.578Z</time>
      </trkpt>
      <trkpt lat="48.73404" lon="2.49477">
        <ele>91</ele>
        <time>2020-12-10T15:53:25.585Z</time>
      </trkpt>
      <trkpt lat="48.73408" lon="2.49474">
        <ele>91</ele>
        <time>2020-12-10T15:53:30.575Z</time>
      </trkpt>
      <trkpt lat="48.73407" lon="2.49458">
        <ele>91</ele>
        <time>2020-12-10T15:53:35.580Z</time>
      </trkpt>
      <trkpt lat="48.73404" lon="2.49447">
        <ele>91</ele>
        <time>2020-12-10T15:53:40.576Z</time>
      </trkpt>
      <trkpt lat="48.73404" lon="2.49438">
        <ele>91</ele>
        <time>2020-12-10T15:53:44.578Z</time>
      </trkpt>
      <trkpt lat="48.73412" lon="2.49426">
        <ele>92</ele>
        <time>2020-12-10T15:53:49.583Z</time>
      </trkpt>
      <trkpt lat="48.73412" lon="2.49418">
        <ele>92</ele>
        <time>2020-12-10T15:53:53.582Z</time>
      </trkpt>
      <trkpt lat="48.73413" lon="2.49404">
        <ele>92</ele>
        <time>2020-12-10T15:53:58.576Z</time>
      </trkpt>
      <trkpt lat="48.73413" lon="2.49396">
        <ele>92</ele>
        <time>2020-12-10T15:54:03.594Z</time>
      </trkpt>
      <trkpt lat="48.73415" lon="2.4939">
        <ele>92</ele>
        <time>2020-12-10T15:54:08.578Z</time>
      </trkpt>
      <trkpt lat="48.73415" lon="2.49389">
        <ele>92</ele>
        <time>2020-12-10T15:54:13.577Z</time>
      </trkpt>
      <trkpt lat="48.73414" lon="2.49386">
        <ele>92</ele>
        <time>2020-12-10T15:54:17.583Z</time>
      </trkpt>
      <trkpt lat="48.73413" lon="2.4938">
        <ele>92</ele>
        <time>2020-12-10T15:54:22.573Z</time>
      </trkpt>
      <trkpt lat="48.73414" lon="2.49372">
        <ele>92</ele>
        <time>2020-12-10T15:54:27.591Z</time>
      </trkpt>
      <trkpt lat="48.73413" lon="2.49364">
        <ele>92</ele>
        <time>2020-12-10T15:54:32.570Z</time>
      </trkpt>
      <trkpt lat="48.73411" lon="2.49361">
        <ele>92</ele>
        <time>2020-12-10T15:54:36.576Z</time>
      </trkpt>
      <trkpt lat="48.73408" lon="2.49358">
        <ele>92</ele>
        <time>2020-12-10T15:54:41.579Z</time>
      </trkpt>
      <trkpt lat="48.73405" lon="2.49347">
        <ele>92</ele>
        <time>2020-12-10T15:54:45.577Z</time>
      </trkpt>
      <trkpt lat="48.73398" lon="2.49349">
        <ele>96</ele>
        <time>2020-12-10T15:54:50.564Z</time>
      </trkpt>
      <trkpt lat="48.73396" lon="2.49351">
        <ele>96</ele>
        <time>2020-12-10T15:54:54.580Z</time>
      </trkpt>
      <trkpt lat="48.73386" lon="2.49348">
        <ele>96</ele>
        <time>2020-12-10T15:54:59.583Z</time>
      </trkpt>
      <trkpt lat="48.73381" lon="2.4935">
        <ele>96</ele>
        <time>2020-12-10T15:55:04.563Z</time>
      </trkpt>
      <trkpt lat="48.73378" lon="2.49354">
        <ele>96</ele>
        <time>2020-12-10T15:55:08.603Z</time>
      </trkpt>
      <trkpt lat="48.73375" lon="2.49361">
        <ele>96</ele>
        <time>2020-12-10T15:55:13.581Z</time>
      </trkpt>
      <trkpt lat="48.73367" lon="2.49368">
        <ele>97</ele>
        <time>2020-12-10T15:55:18.574Z</time>
      </trkpt>
      <trkpt lat="48.73358" lon="2.49376">
        <ele>97</ele>
        <time>2020-12-10T15:55:23.580Z</time>
      </trkpt>
      <trkpt lat="48.73354" lon="2.49388">
        <ele>97</ele>
        <time>2020-12-10T15:55:27.585Z</time>
      </trkpt>
      <trkpt lat="48.73349" lon="2.49384">
        <ele>97</ele>
        <time>2020-12-10T15:55:31.587Z</time>
      </trkpt>
      <trkpt lat="48.73343" lon="2.49389">
        <ele>96</ele>
        <time>2020-12-10T15:55:36.569Z</time>
      </trkpt>
      <trkpt lat="48.73339" lon="2.49398">
        <ele>96</ele>
        <time>2020-12-10T15:55:41.583Z</time>
      </trkpt>
      <trkpt lat="48.73334" lon="2.49407">
        <ele>95</ele>
        <time>2020-12-10T15:55:45.581Z</time>
      </trkpt>
      <trkpt lat="48.73327" lon="2.49409">
        <ele>95</ele>
        <time>2020-12-10T15:55:50.568Z</time>
      </trkpt>
      <trkpt lat="48.73316" lon="2.49411">
        <ele>94</ele>
        <time>2020-12-10T15:55:55.576Z</time>
      </trkpt>
      <trkpt lat="48.73311" lon="2.49415">
        <ele>94</ele>
        <time>2020-12-10T15:56:00.576Z</time>
      </trkpt>
      <trkpt lat="48.73308" lon="2.49422">
        <ele>94</ele>
        <time>2020-12-10T15:56:05.592Z</time>
      </trkpt>
      <trkpt lat="48.73305" lon="2.49436">
        <ele>95</ele>
        <time>2020-12-10T15:56:10.578Z</time>
      </trkpt>
      <trkpt lat="48.73299" lon="2.4944">
        <ele>95</ele>
        <time>2020-12-10T15:56:14.572Z</time>
      </trkpt>
      <trkpt lat="48.73291" lon="2.49444">
        <ele>95</ele>
        <time>2020-12-10T15:56:19.579Z</time>
      </trkpt>
      <trkpt lat="48.73286" lon="2.49449">
        <ele>95</ele>
        <time>2020-12-10T15:56:23.596Z</time>
      </trkpt>
      <trkpt lat="48.73269" lon="2.49456">
        <ele>95</ele>
        <time>2020-12-10T15:56:28.571Z</time>
      </trkpt>
      <trkpt lat="48.73266" lon="2.49459">
        <ele>95</ele>
        <time>2020-12-10T15:56:33.583Z</time>
      </trkpt>
      <trkpt lat="48.73261" lon="2.49461">
        <ele>94</ele>
        <time>2020-12-10T15:56:37.595Z</time>
      </trkpt>
      <trkpt lat="48.73256" lon="2.49462">
        <ele>94</ele>
        <time>2020-12-10T15:56:42.565Z</time>
      </trkpt>
      <trkpt lat="48.73254" lon="2.49464">
        <ele>94</ele>
        <time>2020-12-10T15:56:46.573Z</time>
      </trkpt>
      <trkpt lat="48.73245" lon="2.49462">
        <ele>94</ele>
        <time>2020-12-10T15:56:51.575Z</time>
      </trkpt>
      <trkpt lat="48.73243" lon="2.49457">
        <ele>94</ele>
        <time>2020-12-10T15:56:55.570Z</time>
      </trkpt>
      <trkpt lat="48.73239" lon="2.49443">
        <ele>94</ele>
        <time>2020-12-10T15:57:00.570Z</time>
      </trkpt>
      <trkpt lat="48.73235" lon="2.49434">
        <ele>93</ele>
        <time>2020-12-10T15:57:05.583Z</time>
      </trkpt>
      <trkpt lat="48.73234" lon="2.49424">
        <ele>92</ele>
        <time>2020-12-10T15:57:10.571Z</time>
      </trkpt>
      <trkpt lat="48.73233" lon="2.49415">
        <ele>92</ele>
        <time>2020-12-10T15:57:15.577Z</time>
      </trkpt>
      <trkpt lat="48.73231" lon="2.49409">
        <ele>92</ele>
        <time>2020-12-10T15:57:19.581Z</time>
      </trkpt>
      <trkpt lat="48.73228" lon="2.49399">
        <ele>93</ele>
        <time>2020-12-10T15:57:24.574Z</time>
      </trkpt>
      <trkpt lat="48.73225" lon="2.4939">
        <ele>93</ele>
        <time>2020-12-10T15:57:29.595Z</time>
      </trkpt>
      <trkpt lat="48.73224" lon="2.49379">
        <ele>93</ele>
        <time>2020-12-10T15:57:34.575Z</time>
      </trkpt>
      <trkpt lat="48.73219" lon="2.49373">
        <ele>93</ele>
        <time>2020-12-10T15:57:38.576Z</time>
      </trkpt>
      <trkpt lat="48.73213" lon="2.49355">
        <ele>93</ele>
        <time>2020-12-10T15:57:43.575Z</time>
      </trkpt>
      <trkpt lat="48.73214" lon="2.49352">
        <ele>93</ele>
        <time>2020-12-10T15:57:47.581Z</time>
      </trkpt>
      <trkpt lat="48.73213" lon="2.49348">
        <ele>93</ele>
        <time>2020-12-10T15:57:51.593Z</time>
      </trkpt>
      <trkpt lat="48.73213" lon="2.49339">
        <ele>94</ele>
        <time>2020-12-10T15:57:56.571Z</time>
      </trkpt>
      <trkpt lat="48.73212" lon="2.49332">
        <ele>94</ele>
        <time>2020-12-10T15:58:00.582Z</time>
      </trkpt>
      <trkpt lat="48.7321" lon="2.49325">
        <ele>94</ele>
        <time>2020-12-10T15:58:04.607Z</time>
      </trkpt>
      <trkpt lat="48.73205" lon="2.49329">
        <ele>94</ele>
        <time>2020-12-10T15:58:09.590Z</time>
      </trkpt>
      <trkpt lat="48.73203" lon="2.49322">
        <ele>94</ele>
        <time>2020-12-10T15:58:14.584Z</time>
      </trkpt>
      <trkpt lat="48.73192" lon="2.4931">
        <ele>95</ele>
        <time>2020-12-10T15:58:19.583Z</time>
      </trkpt>
      <trkpt lat="48.73191" lon="2.49296">
        <ele>95</ele>
        <time>2020-12-10T15:58:24.573Z</time>
      </trkpt>
      <trkpt lat="48.7319" lon="2.49284">
        <ele>95</ele>
        <time>2020-12-10T15:58:29.588Z</time>
      </trkpt>
      <trkpt lat="48.73189" lon="2.4927">
        <ele>95</ele>
        <time>2020-12-10T15:58:34.574Z</time>
      </trkpt>
      <trkpt lat="48.73184" lon="2.4926">
        <ele>95</ele>
        <time>2020-12-10T15:58:38.571Z</time>
      </trkpt>
      <trkpt lat="48.73182" lon="2.49255">
        <ele>95</ele>
        <time>2020-12-10T15:58:43.583Z</time>
      </trkpt>
      <trkpt lat="48.73177" lon="2.49244">
        <ele>97</ele>
        <time>2020-12-10T15:58:48.579Z</time>
      </trkpt>
      <trkpt lat="48.73175" lon="2.4923">
        <ele>97</ele>
        <time>2020-12-10T15:58:53.569Z</time>
      </trkpt>
      <trkpt lat="48.73174" lon="2.49221">
        <ele>97</ele>
        <time>2020-12-10T15:58:57.587Z</time>
      </trkpt>
      <trkpt lat="48.73168" lon="2.49212">
        <ele>97</ele>
        <time>2020-12-10T15:59:02.578Z</time>
      </trkpt>
      <trkpt lat="48.73164" lon="2.49199">
        <ele>97</ele>
        <time>2020-12-10T15:59:07.596Z</time>
      </trkpt>
      <trkpt lat="48.73163" lon="2.49197">
        <ele>97</ele>
        <time>2020-12-10T15:59:12.577Z</time>
      </trkpt>
      <trkpt lat="48.7316" lon="2.49186">
        <ele>97</ele>
        <time>2020-12-10T15:59:17.586Z</time>
      </trkpt>
      <trkpt lat="48.73155" lon="2.49175">
        <ele>97</ele>
        <time>2020-12-10T15:59:22.572Z</time>
      </trkpt>
      <trkpt lat="48.73153" lon="2.49168">
        <ele>97</ele>
        <time>2020-12-10T15:59:27.584Z</time>
      </trkpt>
      <trkpt lat="48.7315" lon="2.49158">
        <ele>99</ele>
        <time>2020-12-10T15:59:31.565Z</time>
      </trkpt>
      <trkpt lat="48.73146" lon="2.49148">
        <ele>98</ele>
        <time>2020-12-10T15:59:35.590Z</time>
      </trkpt>
      <trkpt lat="48.73143" lon="2.4914">
        <ele>98</ele>
        <time>2020-12-10T15:59:39.590Z</time>
      </trkpt>
      <trkpt lat="48.73138" lon="2.49136">
        <ele>98</ele>
        <time>2020-12-10T15:59:44.574Z</time>
      </trkpt>
      <trkpt lat="48.73136" lon="2.49125">
        <ele>99</ele>
        <time>2020-12-10T15:59:49.587Z</time>
      </trkpt>
      <trkpt lat="48.73132" lon="2.49113">
        <ele>99</ele>
        <time>2020-12-10T15:59:54.576Z</time>
      </trkpt>
      <trkpt lat="48.73131" lon="2.49106">
        <ele>99</ele>
        <time>2020-12-10T15:59:59.584Z</time>
      </trkpt>
      <trkpt lat="48.7313" lon="2.491">
        <ele>99</ele>
        <time>2020-12-10T16:00:04.588Z</time>
      </trkpt>
      <trkpt lat="48.73127" lon="2.49095">
        <ele>99</ele>
        <time>2020-12-10T16:00:09.589Z</time>
      </trkpt>
      <trkpt lat="48.73125" lon="2.49088">
        <ele>99</ele>
        <time>2020-12-10T16:00:14.580Z</time>
      </trkpt>
      <trkpt lat="48.73121" lon="2.4907">
        <ele>99</ele>
        <time>2020-12-10T16:00:19.601Z</time>
      </trkpt>
      <trkpt lat="48.73116" lon="2.49055">
        <ele>99</ele>
        <time>2020-12-10T16:00:24.571Z</time>
      </trkpt>
      <trkpt lat="48.73116" lon="2.49045">
        <ele>99</ele>
        <time>2020-12-10T16:00:29.580Z</time>
      </trkpt>
      <trkpt lat="48.73112" lon="2.49036">
        <ele>99</ele>
        <time>2020-12-10T16:00:34.571Z</time>
      </trkpt>
      <trkpt lat="48.73113" lon="2.49028">
        <ele>99</ele>
        <time>2020-12-10T16:00:39.583Z</time>
      </trkpt>
      <trkpt lat="48.73106" lon="2.49023">
        <ele>99</ele>
        <time>2020-12-10T16:00:43.570Z</time>
      </trkpt>
      <trkpt lat="48.73105" lon="2.49003">
        <ele>99</ele>
        <time>2020-12-10T16:00:47.579Z</time>
      </trkpt>
      <trkpt lat="48.731" lon="2.49">
        <ele>99</ele>
        <time>2020-12-10T16:00:52.570Z</time>
      </trkpt>
      <trkpt lat="48.73095" lon="2.49003">
        <ele>100</ele>
        <time>2020-12-10T16:00:57.580Z</time>
      </trkpt>
      <trkpt lat="48.73093" lon="2.48986">
        <ele>100</ele>
        <time>2020-12-10T16:01:02.584Z</time>
      </trkpt>
      <trkpt lat="48.73095" lon="2.48974">
        <ele>100</ele>
        <time>2020-12-10T16:01:06.586Z</time>
      </trkpt>
      <trkpt lat="48.7309" lon="2.48973">
        <ele>100</ele>
        <time>2020-12-10T16:01:11.592Z</time>
      </trkpt>
      <trkpt lat="48.73089" lon="2.48965">
        <ele>100</ele>
        <time>2020-12-10T16:01:16.573Z</time>
      </trkpt>
      <trkpt lat="48.73083" lon="2.48953">
        <ele>99</ele>
        <time>2020-12-10T16:01:20.576Z</time>
      </trkpt>
      <trkpt lat="48.73078" lon="2.48944">
        <ele>99</ele>
        <time>2020-12-10T16:01:25.576Z</time>
      </trkpt>
      <trkpt lat="48.73076" lon="2.48935">
        <ele>99</ele>
        <time>2020-12-10T16:01:29.584Z</time>
      </trkpt>
      <trkpt lat="48.73069" lon="2.48923">
        <ele>97</ele>
        <time>2020-12-10T16:01:34.582Z</time>
      </trkpt>
      <trkpt lat="48.73068" lon="2.48916">
        <ele>97</ele>
        <time>2020-12-10T16:01:39.577Z</time>
      </trkpt>
      <trkpt lat="48.73059" lon="2.48915">
        <ele>97</ele>
        <time>2020-12-10T16:01:43.589Z</time>
      </trkpt>
      <trkpt lat="48.73055" lon="2.48872">
        <ele>95</ele>
        <time>2020-12-10T16:02:01.583Z</time>
      </trkpt>
      <trkpt lat="48.73051" lon="2.48866">
        <ele>95</ele>
        <time>2020-12-10T16:02:05.578Z</time>
      </trkpt>
      <trkpt lat="48.73048" lon="2.48859">
        <ele>95</ele>
        <time>2020-12-10T16:02:10.572Z</time>
      </trkpt>
      <trkpt lat="48.73049" lon="2.48847">
        <ele>95</ele>
        <time>2020-12-10T16:02:14.576Z</time>
      </trkpt>
      <trkpt lat="48.73042" lon="2.48841">
        <ele>95</ele>
        <time>2020-12-10T16:02:19.584Z</time>
      </trkpt>
      <trkpt lat="48.7304" lon="2.48832">
        <ele>97</ele>
        <time>2020-12-10T16:02:24.589Z</time>
      </trkpt>
      <trkpt lat="48.7304" lon="2.48825">
        <ele>97</ele>
        <time>2020-12-10T16:02:29.590Z</time>
      </trkpt>
      <trkpt lat="48.73037" lon="2.48815">
        <ele>97</ele>
        <time>2020-12-10T16:02:34.599Z</time>
      </trkpt>
      <trkpt lat="48.73035" lon="2.48811">
        <ele>97</ele>
        <time>2020-12-10T16:02:38.615Z</time>
      </trkpt>
      <trkpt lat="48.73033" lon="2.48803">
        <ele>97</ele>
        <time>2020-12-10T16:02:43.580Z</time>
      </trkpt>
      <trkpt lat="48.73033" lon="2.48798">
        <ele>97</ele>
        <time>2020-12-10T16:02:48.585Z</time>
      </trkpt>
      <trkpt lat="48.73026" lon="2.48783">
        <ele>96</ele>
        <time>2020-12-10T16:02:53.587Z</time>
      </trkpt>
      <trkpt lat="48.73023" lon="2.4877">
        <ele>96</ele>
        <time>2020-12-10T16:02:58.571Z</time>
      </trkpt>
      <trkpt lat="48.73018" lon="2.48764">
        <ele>95</ele>
        <time>2020-12-10T16:03:02.593Z</time>
      </trkpt>
      <trkpt lat="48.73013" lon="2.48755">
        <ele>96</ele>
        <time>2020-12-10T16:03:07.585Z</time>
      </trkpt>
      <trkpt lat="48.7301" lon="2.48742">
        <ele>96</ele>
        <time>2020-12-10T16:03:12.590Z</time>
      </trkpt>
      <trkpt lat="48.73012" lon="2.4873">
        <ele>95</ele>
        <time>2020-12-10T16:03:17.578Z</time>
      </trkpt>
      <trkpt lat="48.73006" lon="2.48719">
        <ele>95</ele>
        <time>2020-12-10T16:03:22.559Z</time>
      </trkpt>
      <trkpt lat="48.73002" lon="2.48715">
        <ele>95</ele>
        <time>2020-12-10T16:03:26.590Z</time>
      </trkpt>
      <trkpt lat="48.73" lon="2.48706">
        <ele>95</ele>
        <time>2020-12-10T16:03:31.587Z</time>
      </trkpt>
      <trkpt lat="48.72997" lon="2.48698">
        <ele>95</ele>
        <time>2020-12-10T16:03:36.569Z</time>
      </trkpt>
      <trkpt lat="48.72995" lon="2.48689">
        <ele>95</ele>
        <time>2020-12-10T16:03:40.589Z</time>
      </trkpt>
      <trkpt lat="48.72992" lon="2.48682">
        <ele>95</ele>
        <time>2020-12-10T16:03:45.583Z</time>
      </trkpt>
      <trkpt lat="48.72992" lon="2.48679">
        <ele>94</ele>
        <time>2020-12-10T16:03:50.582Z</time>
      </trkpt>
      <trkpt lat="48.7299" lon="2.48672">
        <ele>94</ele>
        <time>2020-12-10T16:03:54.595Z</time>
      </trkpt>
      <trkpt lat="48.72987" lon="2.48664">
        <ele>94</ele>
        <time>2020-12-10T16:03:58.597Z</time>
      </trkpt>
      <trkpt lat="48.72985" lon="2.48659">
        <ele>95</ele>
        <time>2020-12-10T16:04:03.601Z</time>
      </trkpt>
      <trkpt lat="48.72981" lon="2.48652">
        <ele>95</ele>
        <time>2020-12-10T16:04:08.642Z</time>
      </trkpt>
      <trkpt lat="48.72977" lon="2.48647">
        <ele>95</ele>
        <time>2020-12-10T16:04:13.585Z</time>
      </trkpt>
      <trkpt lat="48.72978" lon="2.48638">
        <ele>95</ele>
        <time>2020-12-10T16:04:18.580Z</time>
      </trkpt>
      <trkpt lat="48.72977" lon="2.48634">
        <ele>95</ele>
        <time>2020-12-10T16:04:23.602Z</time>
      </trkpt>
      <trkpt lat="48.72973" lon="2.48625">
        <ele>95</ele>
        <time>2020-12-10T16:04:28.587Z</time>
      </trkpt>
      <trkpt lat="48.72971" lon="2.48615">
        <ele>94</ele>
        <time>2020-12-10T16:04:33.579Z</time>
      </trkpt>
      <trkpt lat="48.72971" lon="2.48606">
        <ele>94</ele>
        <time>2020-12-10T16:04:38.611Z</time>
      </trkpt>
      <trkpt lat="48.7297" lon="2.48594">
        <ele>94</ele>
        <time>2020-12-10T16:04:43.580Z</time>
      </trkpt>
      <trkpt lat="48.72968" lon="2.48581">
        <ele>94</ele>
        <time>2020-12-10T16:04:47.590Z</time>
      </trkpt>
      <trkpt lat="48.72968" lon="2.48573">
        <ele>94</ele>
        <time>2020-12-10T16:04:52.604Z</time>
      </trkpt>
      <trkpt lat="48.72964" lon="2.48567">
        <ele>93</ele>
        <time>2020-12-10T16:04:57.585Z</time>
      </trkpt>
      <trkpt lat="48.72957" lon="2.48557">
        <ele>93</ele>
        <time>2020-12-10T16:05:02.575Z</time>
      </trkpt>
      <trkpt lat="48.72954" lon="2.4855">
        <ele>93</ele>
        <time>2020-12-10T16:05:06.590Z</time>
      </trkpt>
      <trkpt lat="48.72951" lon="2.48541">
        <ele>93</ele>
        <time>2020-12-10T16:05:11.600Z</time>
      </trkpt>
      <trkpt lat="48.72947" lon="2.48527">
        <ele>93</ele>
        <time>2020-12-10T16:05:16.593Z</time>
      </trkpt>
      <trkpt lat="48.72943" lon="2.48518">
        <ele>93</ele>
        <time>2020-12-10T16:05:21.588Z</time>
      </trkpt>
      <trkpt lat="48.7294" lon="2.4851">
        <ele>94</ele>
        <time>2020-12-10T16:05:26.599Z</time>
      </trkpt>
      <trkpt lat="48.72938" lon="2.48497">
        <ele>94</ele>
        <time>2020-12-10T16:05:31.579Z</time>
      </trkpt>
      <trkpt lat="48.72936" lon="2.48489">
        <ele>94</ele>
        <time>2020-12-10T16:05:36.579Z</time>
      </trkpt>
      <trkpt lat="48.72934" lon="2.48482">
        <ele>95</ele>
        <time>2020-12-10T16:05:40.590Z</time>
      </trkpt>
      <trkpt lat="48.72932" lon="2.48473">
        <ele>95</ele>
        <time>2020-12-10T16:05:44.585Z</time>
      </trkpt>
      <trkpt lat="48.72931" lon="2.48474">
        <ele>95</ele>
        <time>2020-12-10T16:05:49.586Z</time>
      </trkpt>
      <trkpt lat="48.72926" lon="2.48468">
        <ele>93</ele>
        <time>2020-12-10T16:05:54.581Z</time>
      </trkpt>
      <trkpt lat="48.72925" lon="2.48466">
        <ele>93</ele>
        <time>2020-12-10T16:05:58.598Z</time>
      </trkpt>
      <trkpt lat="48.72918" lon="2.48464">
        <ele>93</ele>
        <time>2020-12-10T16:06:03.572Z</time>
      </trkpt>
      <trkpt lat="48.72914" lon="2.48467">
        <ele>93</ele>
        <time>2020-12-10T16:06:08.583Z</time>
      </trkpt>
      <trkpt lat="48.72909" lon="2.48471">
        <ele>93</ele>
        <time>2020-12-10T16:06:13.597Z</time>
      </trkpt>
      <trkpt lat="48.72904" lon="2.48473">
        <ele>93</ele>
        <time>2020-12-10T16:06:17.604Z</time>
      </trkpt>
      <trkpt lat="48.72898" lon="2.48478">
        <ele>93</ele>
        <time>2020-12-10T16:06:22.585Z</time>
      </trkpt>
      <trkpt lat="48.72893" lon="2.48481">
        <ele>93</ele>
        <time>2020-12-10T16:06:27.582Z</time>
      </trkpt>
      <trkpt lat="48.7289" lon="2.48482">
        <ele>93</ele>
        <time>2020-12-10T16:06:31.595Z</time>
      </trkpt>
      <trkpt lat="48.72882" lon="2.48485">
        <ele>93</ele>
        <time>2020-12-10T16:06:36.570Z</time>
      </trkpt>
      <trkpt lat="48.72878" lon="2.48488">
        <ele>93</ele>
        <time>2020-12-10T16:06:41.588Z</time>
      </trkpt>
      <trkpt lat="48.72869" lon="2.48492">
        <ele>94</ele>
        <time>2020-12-10T16:06:46.589Z</time>
      </trkpt>
      <trkpt lat="48.72864" lon="2.48494">
        <ele>94</ele>
        <time>2020-12-10T16:06:50.592Z</time>
      </trkpt>
      <trkpt lat="48.72859" lon="2.48497">
        <ele>94</ele>
        <time>2020-12-10T16:06:55.589Z</time>
      </trkpt>
      <trkpt lat="48.72856" lon="2.48502">
        <ele>94</ele>
        <time>2020-12-10T16:07:00.585Z</time>
      </trkpt>
      <trkpt lat="48.72851" lon="2.48503">
        <ele>94</ele>
        <time>2020-12-10T16:07:04.586Z</time>
      </trkpt>
      <trkpt lat="48.72846" lon="2.48505">
        <ele>93</ele>
        <time>2020-12-10T16:07:09.578Z</time>
      </trkpt>
      <trkpt lat="48.72839" lon="2.48506">
        <ele>93</ele>
        <time>2020-12-10T16:07:14.617Z</time>
      </trkpt>
      <trkpt lat="48.72832" lon="2.48506">
        <ele>93</ele>
        <time>2020-12-10T16:07:19.597Z</time>
      </trkpt>
      <trkpt lat="48.72827" lon="2.48512">
        <ele>93</ele>
        <time>2020-12-10T16:07:24.595Z</time>
      </trkpt>
      <trkpt lat="48.72817" lon="2.4852">
        <ele>91</ele>
        <time>2020-12-10T16:07:29.585Z</time>
      </trkpt>
      <trkpt lat="48.72811" lon="2.48522">
        <ele>91</ele>
        <time>2020-12-10T16:07:34.591Z</time>
      </trkpt>
      <trkpt lat="48.72805" lon="2.48524">
        <ele>91</ele>
        <time>2020-12-10T16:07:39.575Z</time>
      </trkpt>
      <trkpt lat="48.72797" lon="2.4853">
        <ele>91</ele>
        <time>2020-12-10T16:07:44.611Z</time>
      </trkpt>
      <trkpt lat="48.72792" lon="2.48534">
        <ele>91</ele>
        <time>2020-12-10T16:07:49.584Z</time>
      </trkpt>
      <trkpt lat="48.72785" lon="2.48538">
        <ele>91</ele>
        <time>2020-12-10T16:07:54.605Z</time>
      </trkpt>
      <trkpt lat="48.7278" lon="2.48541">
        <ele>91</ele>
        <time>2020-12-10T16:07:59.587Z</time>
      </trkpt>
      <trkpt lat="48.72778" lon="2.48543">
        <ele>91</ele>
        <time>2020-12-10T16:08:03.590Z</time>
      </trkpt>
      <trkpt lat="48.7277" lon="2.48546">
        <ele>91</ele>
        <time>2020-12-10T16:08:08.597Z</time>
      </trkpt>
      <trkpt lat="48.72764" lon="2.4855">
        <ele>90</ele>
        <time>2020-12-10T16:08:13.594Z</time>
      </trkpt>
      <trkpt lat="48.7276" lon="2.48555">
        <ele>90</ele>
        <time>2020-12-10T16:08:17.597Z</time>
      </trkpt>
      <trkpt lat="48.72753" lon="2.48555">
        <ele>90</ele>
        <time>2020-12-10T16:08:22.606Z</time>
      </trkpt>
      <trkpt lat="48.72749" lon="2.48557">
        <ele>90</ele>
        <time>2020-12-10T16:08:26.613Z</time>
      </trkpt>
      <trkpt lat="48.72744" lon="2.48556">
        <ele>90</ele>
        <time>2020-12-10T16:08:31.590Z</time>
      </trkpt>
      <trkpt lat="48.72737" lon="2.48556">
        <ele>90</ele>
        <time>2020-12-10T16:08:36.603Z</time>
      </trkpt>
      <trkpt lat="48.72731" lon="2.48557">
        <ele>90</ele>
        <time>2020-12-10T16:08:41.668Z</time>
      </trkpt>
      <trkpt lat="48.72726" lon="2.48554">
        <ele>90</ele>
        <time>2020-12-10T16:08:46.624Z</time>
      </trkpt>
      <trkpt lat="48.72717" lon="2.48553">
        <ele>90</ele>
        <time>2020-12-10T16:08:51.600Z</time>
      </trkpt>
      <trkpt lat="48.72708" lon="2.48554">
        <ele>92</ele>
        <time>2020-12-10T16:08:56.614Z</time>
      </trkpt>
      <trkpt lat="48.72704" lon="2.48557">
        <ele>92</ele>
        <time>2020-12-10T16:09:01.567Z</time>
      </trkpt>
      <trkpt lat="48.727" lon="2.48561">
        <ele>92</ele>
        <time>2020-12-10T16:09:06.607Z</time>
      </trkpt>
      <trkpt lat="48.7269" lon="2.48569">
        <ele>91</ele>
        <time>2020-12-10T16:09:11.595Z</time>
      </trkpt>
      <trkpt lat="48.72682" lon="2.48579">
        <ele>91</ele>
        <time>2020-12-10T16:09:16.579Z</time>
      </trkpt>
      <trkpt lat="48.72679" lon="2.48584">
        <ele>95</ele>
        <time>2020-12-10T16:09:20.644Z</time>
      </trkpt>
      <trkpt lat="48.72673" lon="2.48593">
        <ele>95</ele>
        <time>2020-12-10T16:09:25.583Z</time>
      </trkpt>
      <trkpt lat="48.72667" lon="2.48603">
        <ele>94</ele>
        <time>2020-12-10T16:09:30.604Z</time>
      </trkpt>
      <trkpt lat="48.72663" lon="2.48608">
        <ele>94</ele>
        <time>2020-12-10T16:09:35.587Z</time>
      </trkpt>
      <trkpt lat="48.72662" lon="2.48612">
        <ele>94</ele>
        <time>2020-12-10T16:09:39.585Z</time>
      </trkpt>
      <trkpt lat="48.72657" lon="2.48619">
        <ele>94</ele>
        <time>2020-12-10T16:09:44.600Z</time>
      </trkpt>
      <trkpt lat="48.7265" lon="2.48621">
        <ele>97</ele>
        <time>2020-12-10T16:09:49.561Z</time>
      </trkpt>
      <trkpt lat="48.72643" lon="2.48625">
        <ele>96</ele>
        <time>2020-12-10T16:09:54.610Z</time>
      </trkpt>
      <trkpt lat="48.72638" lon="2.4863">
        <ele>96</ele>
        <time>2020-12-10T16:09:59.649Z</time>
      </trkpt>
      <trkpt lat="48.72635" lon="2.4863">
        <ele>96</ele>
        <time>2020-12-10T16:10:04.601Z</time>
      </trkpt>
      <trkpt lat="48.72631" lon="2.4863">
        <ele>96</ele>
        <time>2020-12-10T16:10:09.602Z</time>
      </trkpt>
      <trkpt lat="48.72626" lon="2.48631">
        <ele>96</ele>
        <time>2020-12-10T16:10:14.600Z</time>
      </trkpt>
      <trkpt lat="48.72618" lon="2.48635">
        <ele>98</ele>
        <time>2020-12-10T16:10:19.595Z</time>
      </trkpt>
      <trkpt lat="48.72612" lon="2.48635">
        <ele>98</ele>
        <time>2020-12-10T16:10:24.616Z</time>
      </trkpt>
      <trkpt lat="48.72607" lon="2.48635">
        <ele>98</ele>
        <time>2020-12-10T16:10:29.582Z</time>
      </trkpt>
      <trkpt lat="48.72599" lon="2.48638">
        <ele>98</ele>
        <time>2020-12-10T16:10:34.602Z</time>
      </trkpt>
      <trkpt lat="48.72592" lon="2.48641">
        <ele>97</ele>
        <time>2020-12-10T16:10:39.607Z</time>
      </trkpt>
      <trkpt lat="48.72586" lon="2.48647">
        <ele>97</ele>
        <time>2020-12-10T16:10:44.591Z</time>
      </trkpt>
      <trkpt lat="48.72578" lon="2.48652">
        <ele>97</ele>
        <time>2020-12-10T16:10:49.582Z</time>
      </trkpt>
      <trkpt lat="48.72573" lon="2.48656">
        <ele>96</ele>
        <time>2020-12-10T16:10:54.598Z</time>
      </trkpt>
      <trkpt lat="48.72567" lon="2.48661">
        <ele>97</ele>
        <time>2020-12-10T16:10:59.591Z</time>
      </trkpt>
      <trkpt lat="48.72561" lon="2.48666">
        <ele>97</ele>
        <time>2020-12-10T16:11:04.605Z</time>
      </trkpt>
      <trkpt lat="48.72557" lon="2.48671">
        <ele>97</ele>
        <time>2020-12-10T16:11:09.592Z</time>
      </trkpt>
      <trkpt lat="48.72552" lon="2.48675">
        <ele>97</ele>
        <time>2020-12-10T16:11:14.605Z</time>
      </trkpt>
      <trkpt lat="48.72547" lon="2.48678">
        <ele>97</ele>
        <time>2020-12-10T16:11:19.587Z</time>
      </trkpt>
      <trkpt lat="48.72539" lon="2.48684">
        <ele>97</ele>
        <time>2020-12-10T16:11:23.611Z</time>
      </trkpt>
      <trkpt lat="48.72533" lon="2.4869">
        <ele>97</ele>
        <time>2020-12-10T16:11:28.610Z</time>
      </trkpt>
      <trkpt lat="48.72529" lon="2.48696">
        <ele>97</ele>
        <time>2020-12-10T16:11:33.572Z</time>
      </trkpt>
      <trkpt lat="48.72525" lon="2.48704">
        <ele>97</ele>
        <time>2020-12-10T16:11:38.610Z</time>
      </trkpt>
      <trkpt lat="48.72522" lon="2.48708">
        <ele>97</ele>
        <time>2020-12-10T16:11:43.577Z</time>
      </trkpt>
      <trkpt lat="48.72518" lon="2.48708">
        <ele>97</ele>
        <time>2020-12-10T16:11:47.609Z</time>
      </trkpt>
      <trkpt lat="48.7251" lon="2.48716">
        <ele>96</ele>
        <time>2020-12-10T16:11:52.578Z</time>
      </trkpt>
      <trkpt lat="48.72502" lon="2.48721">
        <ele>96</ele>
        <time>2020-12-10T16:11:57.594Z</time>
      </trkpt>
      <trkpt lat="48.72496" lon="2.48726">
        <ele>96</ele>
        <time>2020-12-10T16:12:02.567Z</time>
      </trkpt>
      <trkpt lat="48.72492" lon="2.48729">
        <ele>96</ele>
        <time>2020-12-10T16:12:06.600Z</time>
      </trkpt>
      <trkpt lat="48.72487" lon="2.4873">
        <ele>96</ele>
        <time>2020-12-10T16:12:11.586Z</time>
      </trkpt>
      <trkpt lat="48.72482" lon="2.48733">
        <ele>95</ele>
        <time>2020-12-10T16:12:16.592Z</time>
      </trkpt>
      <trkpt lat="48.72476" lon="2.48733">
        <ele>95</ele>
        <time>2020-12-10T16:12:21.583Z</time>
      </trkpt>
      <trkpt lat="48.7247" lon="2.48735">
        <ele>95</ele>
        <time>2020-12-10T16:12:26.588Z</time>
      </trkpt>
      <trkpt lat="48.72459" lon="2.48745">
        <ele>95</ele>
        <time>2020-12-10T16:12:31.591Z</time>
      </trkpt>
      <trkpt lat="48.72452" lon="2.48747">
        <ele>93</ele>
        <time>2020-12-10T16:12:36.584Z</time>
      </trkpt>
      <trkpt lat="48.72446" lon="2.48752">
        <ele>93</ele>
        <time>2020-12-10T16:12:41.588Z</time>
      </trkpt>
      <trkpt lat="48.72441" lon="2.48755">
        <ele>93</ele>
        <time>2020-12-10T16:12:46.587Z</time>
      </trkpt>
      <trkpt lat="48.72431" lon="2.4876">
        <ele>93</ele>
        <time>2020-12-10T16:12:51.567Z</time>
      </trkpt>
      <trkpt lat="48.72424" lon="2.48765">
        <ele>93</ele>
        <time>2020-12-10T16:12:56.573Z</time>
      </trkpt>
      <trkpt lat="48.72419" lon="2.48764">
        <ele>93</ele>
        <time>2020-12-10T16:13:01.592Z</time>
      </trkpt>
      <trkpt lat="48.72417" lon="2.48765">
        <ele>93</ele>
        <time>2020-12-10T16:13:06.591Z</time>
      </trkpt>
      <trkpt lat="48.72412" lon="2.48765">
        <ele>93</ele>
        <time>2020-12-10T16:13:11.591Z</time>
      </trkpt>
      <trkpt lat="48.72408" lon="2.48768">
        <ele>93</ele>
        <time>2020-12-10T16:13:16.581Z</time>
      </trkpt>
      <trkpt lat="48.72405" lon="2.48775">
        <ele>93</ele>
        <time>2020-12-10T16:13:21.586Z</time>
      </trkpt>
      <trkpt lat="48.72394" lon="2.48783">
        <ele>93</ele>
        <time>2020-12-10T16:13:26.587Z</time>
      </trkpt>
      <trkpt lat="48.72389" lon="2.48785">
        <ele>93</ele>
        <time>2020-12-10T16:13:31.589Z</time>
      </trkpt>
      <trkpt lat="48.72384" lon="2.48786">
        <ele>93</ele>
        <time>2020-12-10T16:13:36.588Z</time>
      </trkpt>
      <trkpt lat="48.72377" lon="2.48788">
        <ele>93</ele>
        <time>2020-12-10T16:13:41.596Z</time>
      </trkpt>
      <trkpt lat="48.72372" lon="2.4879">
        <ele>93</ele>
        <time>2020-12-10T16:13:46.582Z</time>
      </trkpt>
      <trkpt lat="48.72367" lon="2.48791">
        <ele>93</ele>
        <time>2020-12-10T16:13:50.595Z</time>
      </trkpt>
      <trkpt lat="48.7236" lon="2.48793">
        <ele>93</ele>
        <time>2020-12-10T16:13:55.586Z</time>
      </trkpt>
      <trkpt lat="48.72352" lon="2.48796">
        <ele>93</ele>
        <time>2020-12-10T16:14:00.584Z</time>
      </trkpt>
      <trkpt lat="48.72343" lon="2.48798">
        <ele>94</ele>
        <time>2020-12-10T16:14:05.570Z</time>
      </trkpt>
      <trkpt lat="48.7234" lon="2.48798">
        <ele>94</ele>
        <time>2020-12-10T16:14:10.592Z</time>
      </trkpt>
      <trkpt lat="48.72335" lon="2.488">
        <ele>94</ele>
        <time>2020-12-10T16:14:15.591Z</time>
      </trkpt>
      <trkpt lat="48.72323" lon="2.48807">
        <ele>94</ele>
        <time>2020-12-10T16:14:20.581Z</time>
      </trkpt>
      <trkpt lat="48.72319" lon="2.48814">
        <ele>94</ele>
        <time>2020-12-10T16:14:25.585Z</time>
      </trkpt>
      <trkpt lat="48.72313" lon="2.4882">
        <ele>93</ele>
        <time>2020-12-10T16:14:30.584Z</time>
      </trkpt>
      <trkpt lat="48.72308" lon="2.48826">
        <ele>93</ele>
        <time>2020-12-10T16:14:35.581Z</time>
      </trkpt>
      <trkpt lat="48.723" lon="2.48829">
        <ele>93</ele>
        <time>2020-12-10T16:14:40.580Z</time>
      </trkpt>
      <trkpt lat="48.72292" lon="2.4883">
        <ele>93</ele>
        <time>2020-12-10T16:14:45.581Z</time>
      </trkpt>
      <trkpt lat="48.72287" lon="2.48827">
        <ele>95</ele>
        <time>2020-12-10T16:14:50.586Z</time>
      </trkpt>
      <trkpt lat="48.72285" lon="2.48827">
        <ele>95</ele>
        <time>2020-12-10T16:14:54.667Z</time>
      </trkpt>
      <trkpt lat="48.7228" lon="2.48828">
        <ele>95</ele>
        <time>2020-12-10T16:14:59.579Z</time>
      </trkpt>
      <trkpt lat="48.72274" lon="2.4883">
        <ele>95</ele>
        <time>2020-12-10T16:15:04.567Z</time>
      </trkpt>
      <trkpt lat="48.72269" lon="2.48831">
        <ele>95</ele>
        <time>2020-12-10T16:15:08.591Z</time>
      </trkpt>
      <trkpt lat="48.72264" lon="2.48831">
        <ele>97</ele>
        <time>2020-12-10T16:15:13.583Z</time>
      </trkpt>
      <trkpt lat="48.7226" lon="2.48834">
        <ele>97</ele>
        <time>2020-12-10T16:15:18.585Z</time>
      </trkpt>
      <trkpt lat="48.72255" lon="2.48832">
        <ele>97</ele>
        <time>2020-12-10T16:15:23.583Z</time>
      </trkpt>
      <trkpt lat="48.72249" lon="2.48832">
        <ele>97</ele>
        <time>2020-12-10T16:15:28.591Z</time>
      </trkpt>
      <trkpt lat="48.72242" lon="2.48836">
        <ele>97</ele>
        <time>2020-12-10T16:15:33.597Z</time>
      </trkpt>
      <trkpt lat="48.72236" lon="2.4884">
        <ele>99</ele>
        <time>2020-12-10T16:15:38.575Z</time>
      </trkpt>
      <trkpt lat="48.72231" lon="2.48841">
        <ele>99</ele>
        <time>2020-12-10T16:15:43.596Z</time>
      </trkpt>
      <trkpt lat="48.72228" lon="2.48842">
        <ele>99</ele>
        <time>2020-12-10T16:15:48.581Z</time>
      </trkpt>
      <trkpt lat="48.72219" lon="2.48847">
        <ele>99</ele>
        <time>2020-12-10T16:15:53.586Z</time>
      </trkpt>
      <trkpt lat="48.72211" lon="2.48851">
        <ele>97</ele>
        <time>2020-12-10T16:15:58.586Z</time>
      </trkpt>
      <trkpt lat="48.72204" lon="2.4885">
        <ele>97</ele>
        <time>2020-12-10T16:16:03.593Z</time>
      </trkpt>
      <trkpt lat="48.72195" lon="2.48847">
        <ele>98</ele>
        <time>2020-12-10T16:16:08.586Z</time>
      </trkpt>
      <trkpt lat="48.72188" lon="2.48843">
        <ele>98</ele>
        <time>2020-12-10T16:16:13.588Z</time>
      </trkpt>
      <trkpt lat="48.72184" lon="2.48839">
        <ele>98</ele>
        <time>2020-12-10T16:16:18.574Z</time>
      </trkpt>
      <trkpt lat="48.72177" lon="2.48835">
        <ele>97</ele>
        <time>2020-12-10T16:16:23.589Z</time>
      </trkpt>
      <trkpt lat="48.72171" lon="2.48832">
        <ele>97</ele>
        <time>2020-12-10T16:16:29.588Z</time>
      </trkpt>
      <trkpt lat="48.72164" lon="2.4883">
        <ele>97</ele>
        <time>2020-12-10T16:16:34.579Z</time>
      </trkpt>
      <trkpt lat="48.7216" lon="2.48826">
        <ele>97</ele>
        <time>2020-12-10T16:16:40.585Z</time>
      </trkpt>
      <trkpt lat="48.72152" lon="2.48823">
        <ele>98</ele>
        <time>2020-12-10T16:16:45.591Z</time>
      </trkpt>
      <trkpt lat="48.72138" lon="2.48822">
        <ele>98</ele>
        <time>2020-12-10T16:16:50.584Z</time>
      </trkpt>
      <trkpt lat="48.7213" lon="2.48824">
        <ele>98</ele>
        <time>2020-12-10T16:16:55.595Z</time>
      </trkpt>
      <trkpt lat="48.72125" lon="2.48822">
        <ele>98</ele>
        <time>2020-12-10T16:17:00.585Z</time>
      </trkpt>
      <trkpt lat="48.72119" lon="2.48823">
        <ele>98</ele>
        <time>2020-12-10T16:17:04.598Z</time>
      </trkpt>
      <trkpt lat="48.72115" lon="2.48823">
        <ele>98</ele>
        <time>2020-12-10T16:17:09.586Z</time>
      </trkpt>
      <trkpt lat="48.72112" lon="2.48821">
        <ele>98</ele>
        <time>2020-12-10T16:17:14.601Z</time>
      </trkpt>
      <trkpt lat="48.72106" lon="2.4882">
        <ele>98</ele>
        <time>2020-12-10T16:17:19.587Z</time>
      </trkpt>
      <trkpt lat="48.72101" lon="2.48814">
        <ele>97</ele>
        <time>2020-12-10T16:17:24.594Z</time>
      </trkpt>
      <trkpt lat="48.72094" lon="2.4881">
        <ele>95</ele>
        <time>2020-12-10T16:17:29.601Z</time>
      </trkpt>
      <trkpt lat="48.7209" lon="2.48805">
        <ele>95</ele>
        <time>2020-12-10T16:17:34.583Z</time>
      </trkpt>
      <trkpt lat="48.72086" lon="2.488">
        <ele>95</ele>
        <time>2020-12-10T16:17:39.597Z</time>
      </trkpt>
      <trkpt lat="48.72078" lon="2.48795">
        <ele>95</ele>
        <time>2020-12-10T16:17:44.601Z</time>
      </trkpt>
      <trkpt lat="48.72071" lon="2.48796">
        <ele>95</ele>
        <time>2020-12-10T16:17:49.592Z</time>
      </trkpt>
      <trkpt lat="48.72063" lon="2.48795">
        <ele>94</ele>
        <time>2020-12-10T16:17:54.587Z</time>
      </trkpt>
      <trkpt lat="48.72056" lon="2.48795">
        <ele>94</ele>
        <time>2020-12-10T16:17:59.597Z</time>
      </trkpt>
      <trkpt lat="48.72053" lon="2.48795">
        <ele>94</ele>
        <time>2020-12-10T16:18:04.592Z</time>
      </trkpt>
      <trkpt lat="48.72044" lon="2.48799">
        <ele>94</ele>
        <time>2020-12-10T16:18:14.596Z</time>
      </trkpt>
      <trkpt lat="48.72033" lon="2.48802">
        <ele>93</ele>
        <time>2020-12-10T16:18:22.592Z</time>
      </trkpt>
      <trkpt lat="48.72028" lon="2.48806">
        <ele>93</ele>
        <time>2020-12-10T16:18:27.588Z</time>
      </trkpt>
      <trkpt lat="48.7202" lon="2.4881">
        <ele>93</ele>
        <time>2020-12-10T16:18:32.574Z</time>
      </trkpt>
      <trkpt lat="48.72013" lon="2.48815">
        <ele>90</ele>
        <time>2020-12-10T16:18:36.595Z</time>
      </trkpt>
      <trkpt lat="48.72007" lon="2.48815">
        <ele>90</ele>
        <time>2020-12-10T16:18:41.591Z</time>
      </trkpt>
      <trkpt lat="48.72004" lon="2.48814">
        <ele>90</ele>
        <time>2020-12-10T16:18:46.588Z</time>
      </trkpt>
      <trkpt lat="48.71997" lon="2.4881">
        <ele>90</ele>
        <time>2020-12-10T16:18:50.603Z</time>
      </trkpt>
      <trkpt lat="48.71987" lon="2.48804">
        <ele>90</ele>
        <time>2020-12-10T16:18:55.600Z</time>
      </trkpt>
      <trkpt lat="48.71979" lon="2.48797">
        <ele>84</ele>
        <time>2020-12-10T16:19:00.597Z</time>
      </trkpt>
      <trkpt lat="48.71971" lon="2.48786">
        <ele>85</ele>
        <time>2020-12-10T16:19:05.609Z</time>
      </trkpt>
      <trkpt lat="48.71967" lon="2.4878">
        <ele>85</ele>
        <time>2020-12-10T16:19:10.592Z</time>
      </trkpt>
      <trkpt lat="48.71967" lon="2.48768">
        <ele>85</ele>
        <time>2020-12-10T16:19:15.587Z</time>
      </trkpt>
      <trkpt lat="48.71959" lon="2.48756">
        <ele>87</ele>
        <time>2020-12-10T16:19:20.585Z</time>
      </trkpt>
      <trkpt lat="48.71956" lon="2.4875">
        <ele>84</ele>
        <time>2020-12-10T16:19:25.586Z</time>
      </trkpt>
      <trkpt lat="48.71951" lon="2.48742">
        <ele>84</ele>
        <time>2020-12-10T16:19:30.585Z</time>
      </trkpt>
      <trkpt lat="48.71946" lon="2.4874">
        <ele>84</ele>
        <time>2020-12-10T16:19:36.583Z</time>
      </trkpt>
      <trkpt lat="48.7194" lon="2.48746">
        <ele>84</ele>
        <time>2020-12-10T16:19:42.605Z</time>
      </trkpt>
      <trkpt lat="48.71929" lon="2.48748">
        <ele>82</ele>
        <time>2020-12-10T16:19:47.598Z</time>
      </trkpt>
      <trkpt lat="48.71925" lon="2.4875">
        <ele>82</ele>
        <time>2020-12-10T16:19:52.584Z</time>
      </trkpt>
      <trkpt lat="48.71922" lon="2.48755">
        <ele>82</ele>
        <time>2020-12-10T16:19:57.601Z</time>
      </trkpt>
      <trkpt lat="48.71912" lon="2.48769">
        <ele>80</ele>
        <time>2020-12-10T16:20:04.586Z</time>
      </trkpt>
      <trkpt lat="48.71907" lon="2.48774">
        <ele>80</ele>
        <time>2020-12-10T16:20:09.591Z</time>
      </trkpt>
      <trkpt lat="48.71903" lon="2.48768">
        <ele>80</ele>
        <time>2020-12-10T16:20:14.586Z</time>
      </trkpt>
      <trkpt lat="48.71897" lon="2.4876">
        <ele>78</ele>
        <time>2020-12-10T16:20:19.589Z</time>
      </trkpt>
      <trkpt lat="48.71894" lon="2.48759">
        <ele>78</ele>
        <time>2020-12-10T16:20:23.622Z</time>
      </trkpt>
      <trkpt lat="48.7189" lon="2.4876">
        <ele>78</ele>
        <time>2020-12-10T16:20:30.575Z</time>
      </trkpt>
      <trkpt lat="48.71888" lon="2.4876">
        <ele>78</ele>
        <time>2020-12-10T16:20:34.609Z</time>
      </trkpt>
      <trkpt lat="48.71881" lon="2.48762">
        <ele>78</ele>
        <time>2020-12-10T16:20:39.590Z</time>
      </trkpt>
      <trkpt lat="48.71876" lon="2.48766">
        <ele>77</ele>
        <time>2020-12-10T16:20:44.598Z</time>
      </trkpt>
      <trkpt lat="48.7187" lon="2.48765">
        <ele>71</ele>
        <time>2020-12-10T16:20:49.584Z</time>
      </trkpt>
      <trkpt lat="48.71867" lon="2.4876">
        <ele>71</ele>
        <time>2020-12-10T16:20:54.589Z</time>
      </trkpt>
      <trkpt lat="48.71866" lon="2.48753">
        <ele>71</ele>
        <time>2020-12-10T16:20:59.583Z</time>
      </trkpt>
      <trkpt lat="48.71866" lon="2.48751">
        <ele>71</ele>
        <time>2020-12-10T16:21:03.608Z</time>
      </trkpt>
      <trkpt lat="48.71866" lon="2.48747">
        <ele>71</ele>
        <time>2020-12-10T16:21:08.602Z</time>
      </trkpt>
      <trkpt lat="48.71861" lon="2.48737">
        <ele>71</ele>
        <time>2020-12-10T16:21:13.587Z</time>
      </trkpt>
      <trkpt lat="48.71857" lon="2.48729">
        <ele>72</ele>
        <time>2020-12-10T16:21:18.585Z</time>
      </trkpt>
      <trkpt lat="48.71854" lon="2.48724">
        <ele>72</ele>
        <time>2020-12-10T16:21:23.584Z</time>
      </trkpt>
      <trkpt lat="48.71851" lon="2.48717">
        <ele>72</ele>
        <time>2020-12-10T16:21:28.600Z</time>
      </trkpt>
      <trkpt lat="48.71849" lon="2.48708">
        <ele>73</ele>
        <time>2020-12-10T16:21:33.592Z</time>
      </trkpt>
      <trkpt lat="48.71847" lon="2.48698">
        <ele>69</ele>
        <time>2020-12-10T16:21:38.592Z</time>
      </trkpt>
      <trkpt lat="48.71846" lon="2.48687">
        <ele>69</ele>
        <time>2020-12-10T16:21:43.583Z</time>
      </trkpt>
      <trkpt lat="48.71844" lon="2.48677">
        <ele>70</ele>
        <time>2020-12-10T16:21:48.591Z</time>
      </trkpt>
      <trkpt lat="48.71844" lon="2.48668">
        <ele>70</ele>
        <time>2020-12-10T16:21:53.587Z</time>
      </trkpt>
      <trkpt lat="48.71845" lon="2.48658">
        <ele>70</ele>
        <time>2020-12-10T16:21:57.602Z</time>
      </trkpt>
      <trkpt lat="48.71845" lon="2.48651">
        <ele>70</ele>
        <time>2020-12-10T16:22:02.589Z</time>
      </trkpt>
      <trkpt lat="48.71843" lon="2.48639">
        <ele>70</ele>
        <time>2020-12-10T16:22:07.569Z</time>
      </trkpt>
      <trkpt lat="48.71844" lon="2.48636">
        <ele>70</ele>
        <time>2020-12-10T16:22:11.594Z</time>
      </trkpt>
      <trkpt lat="48.71843" lon="2.48623">
        <ele>70</ele>
        <time>2020-12-10T16:22:16.597Z</time>
      </trkpt>
      <trkpt lat="48.71839" lon="2.48611">
        <ele>70</ele>
        <time>2020-12-10T16:22:21.586Z</time>
      </trkpt>
      <trkpt lat="48.71838" lon="2.48604">
        <ele>70</ele>
        <time>2020-12-10T16:22:26.591Z</time>
      </trkpt>
      <trkpt lat="48.71839" lon="2.48598">
        <ele>70</ele>
        <time>2020-12-10T16:22:30.603Z</time>
      </trkpt>
      <trkpt lat="48.71839" lon="2.48588">
        <ele>70</ele>
        <time>2020-12-10T16:22:35.588Z</time>
      </trkpt>
      <trkpt lat="48.7184" lon="2.48582">
        <ele>70</ele>
        <time>2020-12-10T16:22:40.569Z</time>
      </trkpt>
      <trkpt lat="48.71841" lon="2.48575">
        <ele>70</ele>
        <time>2020-12-10T16:22:44.604Z</time>
      </trkpt>
      <trkpt lat="48.7184" lon="2.48565">
        <ele>70</ele>
        <time>2020-12-10T16:22:49.581Z</time>
      </trkpt>
      <trkpt lat="48.71842" lon="2.48553">
        <ele>70</ele>
        <time>2020-12-10T16:22:53.598Z</time>
      </trkpt>
      <trkpt lat="48.71843" lon="2.48544">
        <ele>70</ele>
        <time>2020-12-10T16:22:57.705Z</time>
      </trkpt>
      <trkpt lat="48.71845" lon="2.48537">
        <ele>70</ele>
        <time>2020-12-10T16:23:02.599Z</time>
      </trkpt>
      <trkpt lat="48.71846" lon="2.48526">
        <ele>70</ele>
        <time>2020-12-10T16:23:07.594Z</time>
      </trkpt>
      <trkpt lat="48.71849" lon="2.48516">
        <ele>75</ele>
        <time>2020-12-10T16:23:12.594Z</time>
      </trkpt>
      <trkpt lat="48.71854" lon="2.48509">
        <ele>76</ele>
        <time>2020-12-10T16:23:17.588Z</time>
      </trkpt>
      <trkpt lat="48.71858" lon="2.48502">
        <ele>76</ele>
        <time>2020-12-10T16:23:22.587Z</time>
      </trkpt>
      <trkpt lat="48.71861" lon="2.48497">
        <ele>76</ele>
        <time>2020-12-10T16:23:27.600Z</time>
      </trkpt>
      <trkpt lat="48.7186" lon="2.48487">
        <ele>76</ele>
        <time>2020-12-10T16:23:32.601Z</time>
      </trkpt>
      <trkpt lat="48.7186" lon="2.48472">
        <ele>76</ele>
        <time>2020-12-10T16:23:37.588Z</time>
      </trkpt>
      <trkpt lat="48.71861" lon="2.48467">
        <ele>76</ele>
        <time>2020-12-10T16:23:41.592Z</time>
      </trkpt>
      <trkpt lat="48.71862" lon="2.48452">
        <ele>76</ele>
        <time>2020-12-10T16:23:46.592Z</time>
      </trkpt>
      <trkpt lat="48.7186" lon="2.48442">
        <ele>76</ele>
        <time>2020-12-10T16:23:51.587Z</time>
      </trkpt>
      <trkpt lat="48.71861" lon="2.48431">
        <ele>76</ele>
        <time>2020-12-10T16:23:56.599Z</time>
      </trkpt>
      <trkpt lat="48.71861" lon="2.4842">
        <ele>76</ele>
        <time>2020-12-10T16:24:01.574Z</time>
      </trkpt>
      <trkpt lat="48.71861" lon="2.48407">
        <ele>76</ele>
        <time>2020-12-10T16:24:06.608Z</time>
      </trkpt>
      <trkpt lat="48.71861" lon="2.48396">
        <ele>76</ele>
        <time>2020-12-10T16:24:11.581Z</time>
      </trkpt>
      <trkpt lat="48.71861" lon="2.48382">
        <ele>76</ele>
        <time>2020-12-10T16:24:16.570Z</time>
      </trkpt>
      <trkpt lat="48.71861" lon="2.48371">
        <ele>77</ele>
        <time>2020-12-10T16:24:21.574Z</time>
      </trkpt>
      <trkpt lat="48.7186" lon="2.48363">
        <ele>77</ele>
        <time>2020-12-10T16:24:26.590Z</time>
      </trkpt>
      <trkpt lat="48.71858" lon="2.48351">
        <ele>77</ele>
        <time>2020-12-10T16:24:31.603Z</time>
      </trkpt>
      <trkpt lat="48.71857" lon="2.48339">
        <ele>77</ele>
        <time>2020-12-10T16:24:36.580Z</time>
      </trkpt>
      <trkpt lat="48.71858" lon="2.48331">
        <ele>77</ele>
        <time>2020-12-10T16:24:41.580Z</time>
      </trkpt>
      <trkpt lat="48.71857" lon="2.48317">
        <ele>76</ele>
        <time>2020-12-10T16:24:46.579Z</time>
      </trkpt>
      <trkpt lat="48.71857" lon="2.48305">
        <ele>76</ele>
        <time>2020-12-10T16:24:51.575Z</time>
      </trkpt>
      <trkpt lat="48.71857" lon="2.48295">
        <ele>76</ele>
        <time>2020-12-10T16:24:56.591Z</time>
      </trkpt>
      <trkpt lat="48.71859" lon="2.48286">
        <ele>75</ele>
        <time>2020-12-10T16:25:01.580Z</time>
      </trkpt>
      <trkpt lat="48.71861" lon="2.48279">
        <ele>75</ele>
        <time>2020-12-10T16:25:05.590Z</time>
      </trkpt>
      <trkpt lat="48.71862" lon="2.4827">
        <ele>75</ele>
        <time>2020-12-10T16:25:10.571Z</time>
      </trkpt>
      <trkpt lat="48.71863" lon="2.48261">
        <ele>75</ele>
        <time>2020-12-10T16:25:15.579Z</time>
      </trkpt>
      <trkpt lat="48.71861" lon="2.48255">
        <ele>75</ele>
        <time>2020-12-10T16:25:20.583Z</time>
      </trkpt>
      <trkpt lat="48.71857" lon="2.4825">
        <ele>75</ele>
        <time>2020-12-10T16:25:25.594Z</time>
      </trkpt>
      <trkpt lat="48.71857" lon="2.4825">
        <ele>75</ele>
        <time>2020-12-10T16:25:30.593Z</time>
      </trkpt>
      <trkpt lat="48.71855" lon="2.48248">
        <ele>75</ele>
        <time>2020-12-10T16:25:35.589Z</time>
      </trkpt>
      <trkpt lat="48.71851" lon="2.48238">
        <ele>75</ele>
        <time>2020-12-10T16:25:40.576Z</time>
      </trkpt>
      <trkpt lat="48.7185" lon="2.48231">
        <ele>75</ele>
        <time>2020-12-10T16:25:45.582Z</time>
      </trkpt>
      <trkpt lat="48.71847" lon="2.48221">
        <ele>70</ele>
        <time>2020-12-10T16:25:50.591Z</time>
      </trkpt>
      <trkpt lat="48.71842" lon="2.48213">
        <ele>70</ele>
        <time>2020-12-10T16:25:55.588Z</time>
      </trkpt>
      <trkpt lat="48.71837" lon="2.48204">
        <ele>71</ele>
        <time>2020-12-10T16:26:00.581Z</time>
      </trkpt>
      <trkpt lat="48.71833" lon="2.48193">
        <ele>71</ele>
        <time>2020-12-10T16:26:05.575Z</time>
      </trkpt>
      <trkpt lat="48.7183" lon="2.48187">
        <ele>71</ele>
        <time>2020-12-10T16:26:10.586Z</time>
      </trkpt>
      <trkpt lat="48.71827" lon="2.4818">
        <ele>72</ele>
        <time>2020-12-10T16:26:15.586Z</time>
      </trkpt>
      <trkpt lat="48.71823" lon="2.48171">
        <ele>72</ele>
        <time>2020-12-10T16:26:20.579Z</time>
      </trkpt>
      <trkpt lat="48.7182" lon="2.48164">
        <ele>72</ele>
        <time>2020-12-10T16:26:24.595Z</time>
      </trkpt>
      <trkpt lat="48.71819" lon="2.48156">
        <ele>67</ele>
        <time>2020-12-10T16:26:29.588Z</time>
      </trkpt>
      <trkpt lat="48.71819" lon="2.48148">
        <ele>69</ele>
        <time>2020-12-10T16:26:34.583Z</time>
      </trkpt>
      <trkpt lat="48.71819" lon="2.48139">
        <ele>69</ele>
        <time>2020-12-10T16:26:39.590Z</time>
      </trkpt>
      <trkpt lat="48.71819" lon="2.4813">
        <ele>69</ele>
        <time>2020-12-10T16:26:44.591Z</time>
      </trkpt>
      <trkpt lat="48.71817" lon="2.4812">
        <ele>71</ele>
        <time>2020-12-10T16:26:48.607Z</time>
      </trkpt>
      <trkpt lat="48.71816" lon="2.48108">
        <ele>71</ele>
        <time>2020-12-10T16:26:53.586Z</time>
      </trkpt>
      <trkpt lat="48.71816" lon="2.48098">
        <ele>71</ele>
        <time>2020-12-10T16:26:58.583Z</time>
      </trkpt>
      <trkpt lat="48.71814" lon="2.48086">
        <ele>74</ele>
        <time>2020-12-10T16:27:03.592Z</time>
      </trkpt>
      <trkpt lat="48.71813" lon="2.48076">
        <ele>74</ele>
        <time>2020-12-10T16:27:08.581Z</time>
      </trkpt>
      <trkpt lat="48.71812" lon="2.48065">
        <ele>74</ele>
        <time>2020-12-10T16:27:13.580Z</time>
      </trkpt>
      <trkpt lat="48.71811" lon="2.48054">
        <ele>74</ele>
        <time>2020-12-10T16:27:18.584Z</time>
      </trkpt>
      <trkpt lat="48.7181" lon="2.48043">
        <ele>74</ele>
        <time>2020-12-10T16:27:23.580Z</time>
      </trkpt>
      <trkpt lat="48.71807" lon="2.48032">
        <ele>74</ele>
        <time>2020-12-10T16:27:28.590Z</time>
      </trkpt>
      <trkpt lat="48.71806" lon="2.48025">
        <ele>74</ele>
        <time>2020-12-10T16:27:33.592Z</time>
      </trkpt>
      <trkpt lat="48.71806" lon="2.48013">
        <ele>76</ele>
        <time>2020-12-10T16:27:38.591Z</time>
      </trkpt>
      <trkpt lat="48.71803" lon="2.48001">
        <ele>76</ele>
        <time>2020-12-10T16:27:43.613Z</time>
      </trkpt>
      <trkpt lat="48.71802" lon="2.47991">
        <ele>76</ele>
        <time>2020-12-10T16:27:48.584Z</time>
      </trkpt>
      <trkpt lat="48.718" lon="2.47981">
        <ele>77</ele>
        <time>2020-12-10T16:27:53.596Z</time>
      </trkpt>
      <trkpt lat="48.71799" lon="2.47972">
        <ele>77</ele>
        <time>2020-12-10T16:27:58.592Z</time>
      </trkpt>
      <trkpt lat="48.71796" lon="2.4796">
        <ele>77</ele>
        <time>2020-12-10T16:28:03.585Z</time>
      </trkpt>
      <trkpt lat="48.71793" lon="2.47949">
        <ele>78</ele>
        <time>2020-12-10T16:28:08.584Z</time>
      </trkpt>
      <trkpt lat="48.7179" lon="2.4794">
        <ele>69</ele>
        <time>2020-12-10T16:28:13.583Z</time>
      </trkpt>
      <trkpt lat="48.71791" lon="2.47934">
        <ele>69</ele>
        <time>2020-12-10T16:28:17.605Z</time>
      </trkpt>
      <trkpt lat="48.71789" lon="2.47925">
        <ele>69</ele>
        <time>2020-12-10T16:28:22.605Z</time>
      </trkpt>
      <trkpt lat="48.71787" lon="2.47914">
        <ele>69</ele>
        <time>2020-12-10T16:28:27.570Z</time>
      </trkpt>
      <trkpt lat="48.71786" lon="2.47909">
        <ele>69</ele>
        <time>2020-12-10T16:28:31.602Z</time>
      </trkpt>
      <trkpt lat="48.71787" lon="2.47898">
        <ele>69</ele>
        <time>2020-12-10T16:28:36.575Z</time>
      </trkpt>
      <trkpt lat="48.71788" lon="2.4789">
        <ele>69</ele>
        <time>2020-12-10T16:28:40.616Z</time>
      </trkpt>
      <trkpt lat="48.71787" lon="2.47883">
        <ele>69</ele>
        <time>2020-12-10T16:28:45.567Z</time>
      </trkpt>
      <trkpt lat="48.71785" lon="2.47875">
        <ele>70</ele>
        <time>2020-12-10T16:28:49.596Z</time>
      </trkpt>
      <trkpt lat="48.71781" lon="2.47867">
        <ele>70</ele>
        <time>2020-12-10T16:28:54.577Z</time>
      </trkpt>
      <trkpt lat="48.71778" lon="2.4786">
        <ele>70</ele>
        <time>2020-12-10T16:28:59.571Z</time>
      </trkpt>
      <trkpt lat="48.7178" lon="2.47853">
        <ele>70</ele>
        <time>2020-12-10T16:29:03.590Z</time>
      </trkpt>
      <trkpt lat="48.71779" lon="2.47846">
        <ele>71</ele>
        <time>2020-12-10T16:29:08.605Z</time>
      </trkpt>
      <trkpt lat="48.71781" lon="2.47838">
        <ele>71</ele>
        <time>2020-12-10T16:29:13.599Z</time>
      </trkpt>
      <trkpt lat="48.71779" lon="2.47826">
        <ele>71</ele>
        <time>2020-12-10T16:29:18.587Z</time>
      </trkpt>
      <trkpt lat="48.71775" lon="2.47817">
        <ele>71</ele>
        <time>2020-12-10T16:29:23.585Z</time>
      </trkpt>
      <trkpt lat="48.71772" lon="2.47806">
        <ele>71</ele>
        <time>2020-12-10T16:29:28.588Z</time>
      </trkpt>
      <trkpt lat="48.71769" lon="2.47795">
        <ele>71</ele>
        <time>2020-12-10T16:29:33.588Z</time>
      </trkpt>
      <trkpt lat="48.71764" lon="2.47786">
        <ele>65</ele>
        <time>2020-12-10T16:29:38.593Z</time>
      </trkpt>
      <trkpt lat="48.71761" lon="2.47774">
        <ele>65</ele>
        <time>2020-12-10T16:29:43.591Z</time>
      </trkpt>
      <trkpt lat="48.71759" lon="2.47765">
        <ele>65</ele>
        <time>2020-12-10T16:29:47.605Z</time>
      </trkpt>
      <trkpt lat="48.71758" lon="2.47756">
        <ele>67</ele>
        <time>2020-12-10T16:29:52.590Z</time>
      </trkpt>
      <trkpt lat="48.71757" lon="2.47745">
        <ele>67</ele>
        <time>2020-12-10T16:29:57.591Z</time>
      </trkpt>
      <trkpt lat="48.71756" lon="2.47736">
        <ele>70</ele>
        <time>2020-12-10T16:30:02.599Z</time>
      </trkpt>
      <trkpt lat="48.71755" lon="2.47728">
        <ele>70</ele>
        <time>2020-12-10T16:30:07.581Z</time>
      </trkpt>
      <trkpt lat="48.71752" lon="2.47716">
        <ele>70</ele>
        <time>2020-12-10T16:30:12.586Z</time>
      </trkpt>
      <trkpt lat="48.7175" lon="2.47709">
        <ele>70</ele>
        <time>2020-12-10T16:30:17.578Z</time>
      </trkpt>
      <trkpt lat="48.71748" lon="2.47703">
        <ele>72</ele>
        <time>2020-12-10T16:30:22.589Z</time>
      </trkpt>
      <trkpt lat="48.71745" lon="2.47692">
        <ele>72</ele>
        <time>2020-12-10T16:30:27.592Z</time>
      </trkpt>
      <trkpt lat="48.71743" lon="2.47686">
        <ele>72</ele>
        <time>2020-12-10T16:30:31.611Z</time>
      </trkpt>
      <trkpt lat="48.71738" lon="2.47678">
        <ele>73</ele>
        <time>2020-12-10T16:30:36.599Z</time>
      </trkpt>
      <trkpt lat="48.71735" lon="2.47669">
        <ele>66</ele>
        <time>2020-12-10T16:30:41.585Z</time>
      </trkpt>
      <trkpt lat="48.71733" lon="2.47662">
        <ele>66</ele>
        <time>2020-12-10T16:30:46.587Z</time>
      </trkpt>
      <trkpt lat="48.7173" lon="2.47651">
        <ele>66</ele>
        <time>2020-12-10T16:30:51.584Z</time>
      </trkpt>
      <trkpt lat="48.71726" lon="2.47642">
        <ele>66</ele>
        <time>2020-12-10T16:30:56.593Z</time>
      </trkpt>
      <trkpt lat="48.71722" lon="2.47634">
        <ele>66</ele>
        <time>2020-12-10T16:31:01.591Z</time>
      </trkpt>
      <trkpt lat="48.7172" lon="2.47627">
        <ele>66</ele>
        <time>2020-12-10T16:31:06.588Z</time>
      </trkpt>
      <trkpt lat="48.71717" lon="2.4762">
        <ele>68</ele>
        <time>2020-12-10T16:31:11.595Z</time>
      </trkpt>
      <trkpt lat="48.71712" lon="2.4761">
        <ele>68</ele>
        <time>2020-12-10T16:31:16.601Z</time>
      </trkpt>
      <trkpt lat="48.7171" lon="2.47602">
        <ele>68</ele>
        <time>2020-12-10T16:31:21.593Z</time>
      </trkpt>
      <trkpt lat="48.71708" lon="2.47594">
        <ele>64</ele>
        <time>2020-12-10T16:31:26.612Z</time>
      </trkpt>
      <trkpt lat="48.71705" lon="2.47585">
        <ele>64</ele>
        <time>2020-12-10T16:31:31.595Z</time>
      </trkpt>
      <trkpt lat="48.71703" lon="2.47575">
        <ele>64</ele>
        <time>2020-12-10T16:31:36.590Z</time>
      </trkpt>
      <trkpt lat="48.71699" lon="2.47572">
        <ele>64</ele>
        <time>2020-12-10T16:31:41.599Z</time>
      </trkpt>
      <trkpt lat="48.71695" lon="2.47572">
        <ele>64</ele>
        <time>2020-12-10T16:31:46.605Z</time>
      </trkpt>
      <trkpt lat="48.71691" lon="2.47576">
        <ele>64</ele>
        <time>2020-12-10T16:31:51.590Z</time>
      </trkpt>
      <trkpt lat="48.71687" lon="2.47578">
        <ele>64</ele>
        <time>2020-12-10T16:31:55.611Z</time>
      </trkpt>
      <trkpt lat="48.71683" lon="2.47581">
        <ele>64</ele>
        <time>2020-12-10T16:32:00.601Z</time>
      </trkpt>
      <trkpt lat="48.71678" lon="2.47585">
        <ele>60</ele>
        <time>2020-12-10T16:32:05.600Z</time>
      </trkpt>
      <trkpt lat="48.71675" lon="2.47588">
        <ele>60</ele>
        <time>2020-12-10T16:32:10.577Z</time>
      </trkpt>
      <trkpt lat="48.71673" lon="2.47594">
        <ele>60</ele>
        <time>2020-12-10T16:32:15.606Z</time>
      </trkpt>
      <trkpt lat="48.71674" lon="2.47602">
        <ele>59</ele>
        <time>2020-12-10T16:32:20.600Z</time>
      </trkpt>
      <trkpt lat="48.7168" lon="2.47608">
        <ele>59</ele>
        <time>2020-12-10T16:32:25.605Z</time>
      </trkpt>
      <trkpt lat="48.71685" lon="2.47615">
        <ele>63</ele>
        <time>2020-12-10T16:32:30.604Z</time>
      </trkpt>
      <trkpt lat="48.71688" lon="2.47624">
        <ele>63</ele>
        <time>2020-12-10T16:32:35.593Z</time>
      </trkpt>
      <trkpt lat="48.7169" lon="2.47637">
        <ele>62</ele>
        <time>2020-12-10T16:32:40.627Z</time>
      </trkpt>
      <trkpt lat="48.71691" lon="2.47647">
        <ele>62</ele>
        <time>2020-12-10T16:32:45.595Z</time>
      </trkpt>
      <trkpt lat="48.71692" lon="2.47654">
        <ele>60</ele>
        <time>2020-12-10T16:32:50.595Z</time>
      </trkpt>
      <trkpt lat="48.71694" lon="2.47665">
        <ele>60</ele>
        <time>2020-12-10T16:32:55.606Z</time>
      </trkpt>
      <trkpt lat="48.71694" lon="2.47674">
        <ele>60</ele>
        <time>2020-12-10T16:33:00.593Z</time>
      </trkpt>
      <trkpt lat="48.71697" lon="2.47683">
        <ele>60</ele>
        <time>2020-12-10T16:33:05.606Z</time>
      </trkpt>
      <trkpt lat="48.71699" lon="2.47691">
        <ele>60</ele>
        <time>2020-12-10T16:33:09.624Z</time>
      </trkpt>
      <trkpt lat="48.71696" lon="2.47698">
        <ele>60</ele>
        <time>2020-12-10T16:33:14.585Z</time>
      </trkpt>
      <trkpt lat="48.71697" lon="2.47708">
        <ele>60</ele>
        <time>2020-12-10T16:33:19.609Z</time>
      </trkpt>
      <trkpt lat="48.71696" lon="2.47717">
        <ele>60</ele>
        <time>2020-12-10T16:33:24.598Z</time>
      </trkpt>
      <trkpt lat="48.71701" lon="2.47733">
        <ele>60</ele>
        <time>2020-12-10T16:33:29.607Z</time>
      </trkpt>
      <trkpt lat="48.71703" lon="2.47743">
        <ele>59</ele>
        <time>2020-12-10T16:33:34.606Z</time>
      </trkpt>
      <trkpt lat="48.71704" lon="2.47753">
        <ele>59</ele>
        <time>2020-12-10T16:33:39.606Z</time>
      </trkpt>
      <trkpt lat="48.71704" lon="2.47762">
        <ele>59</ele>
        <time>2020-12-10T16:33:44.599Z</time>
      </trkpt>
      <trkpt lat="48.71703" lon="2.47769">
        <ele>56</ele>
        <time>2020-12-10T16:33:49.600Z</time>
      </trkpt>
      <trkpt lat="48.71704" lon="2.47775">
        <ele>56</ele>
        <time>2020-12-10T16:33:54.588Z</time>
      </trkpt>
      <trkpt lat="48.71705" lon="2.47784">
        <ele>56</ele>
        <time>2020-12-10T16:33:59.603Z</time>
      </trkpt>
      <trkpt lat="48.71706" lon="2.47793">
        <ele>54</ele>
        <time>2020-12-10T16:34:03.633Z</time>
      </trkpt>
      <trkpt lat="48.71707" lon="2.47797">
        <ele>54</ele>
        <time>2020-12-10T16:34:08.599Z</time>
      </trkpt>
      <trkpt lat="48.71708" lon="2.47802">
        <ele>54</ele>
        <time>2020-12-10T16:34:13.596Z</time>
      </trkpt>
      <trkpt lat="48.71708" lon="2.47805">
        <ele>54</ele>
        <time>2020-12-10T16:34:18.606Z</time>
      </trkpt>
      <trkpt lat="48.71702" lon="2.4781">
        <ele>54</ele>
        <time>2020-12-10T16:34:23.603Z</time>
      </trkpt>
      <trkpt lat="48.71696" lon="2.47813">
        <ele>54</ele>
        <time>2020-12-10T16:34:28.585Z</time>
      </trkpt>
      <trkpt lat="48.7169" lon="2.47816">
        <ele>54</ele>
        <time>2020-12-10T16:34:33.596Z</time>
      </trkpt>
      <trkpt lat="48.71687" lon="2.47819">
        <ele>54</ele>
        <time>2020-12-10T16:34:38.596Z</time>
      </trkpt>
      <trkpt lat="48.71681" lon="2.47821">
        <ele>54</ele>
        <time>2020-12-10T16:34:43.609Z</time>
      </trkpt>
      <trkpt lat="48.71676" lon="2.47825">
        <ele>50</ele>
        <time>2020-12-10T16:34:48.611Z</time>
      </trkpt>
      <trkpt lat="48.71672" lon="2.47827">
        <ele>50</ele>
        <time>2020-12-10T16:34:52.618Z</time>
      </trkpt>
      <trkpt lat="48.71667" lon="2.47827">
        <ele>50</ele>
        <time>2020-12-10T16:34:57.611Z</time>
      </trkpt>
      <trkpt lat="48.71661" lon="2.47828">
        <ele>50</ele>
        <time>2020-12-10T16:35:02.616Z</time>
      </trkpt>
      <trkpt lat="48.7166" lon="2.47829">
        <ele>50</ele>
        <time>2020-12-10T16:35:07.622Z</time>
      </trkpt>
      <trkpt lat="48.71654" lon="2.47831">
        <ele>50</ele>
        <time>2020-12-10T16:35:12.609Z</time>
      </trkpt>
      <trkpt lat="48.71651" lon="2.47836">
        <ele>47</ele>
        <time>2020-12-10T16:35:17.604Z</time>
      </trkpt>
      <trkpt lat="48.71646" lon="2.47839">
        <ele>47</ele>
        <time>2020-12-10T16:35:22.620Z</time>
      </trkpt>
      <trkpt lat="48.71638" lon="2.47846">
        <ele>47</ele>
        <time>2020-12-10T16:35:27.619Z</time>
      </trkpt>
      <trkpt lat="48.71631" lon="2.47846">
        <ele>47</ele>
        <time>2020-12-10T16:35:32.609Z</time>
      </trkpt>
      <trkpt lat="48.71626" lon="2.47845">
        <ele>47</ele>
        <time>2020-12-10T16:35:37.605Z</time>
      </trkpt>
      <trkpt lat="48.71623" lon="2.47846">
        <ele>40</ele>
        <time>2020-12-10T16:35:42.606Z</time>
      </trkpt>
      <trkpt lat="48.71618" lon="2.47848">
        <ele>40</ele>
        <time>2020-12-10T16:35:47.606Z</time>
      </trkpt>
      <trkpt lat="48.71611" lon="2.47851">
        <ele>40</ele>
        <time>2020-12-10T16:35:52.615Z</time>
      </trkpt>
      <trkpt lat="48.71604" lon="2.47851">
        <ele>40</ele>
        <time>2020-12-10T16:35:57.607Z</time>
      </trkpt>
      <trkpt lat="48.71599" lon="2.47852">
        <ele>40</ele>
        <time>2020-12-10T16:36:02.595Z</time>
      </trkpt>
      <trkpt lat="48.71594" lon="2.47854">
        <ele>38</ele>
        <time>2020-12-10T16:36:07.607Z</time>
      </trkpt>
      <trkpt lat="48.71594" lon="2.47856">
        <ele>38</ele>
        <time>2020-12-10T16:36:12.614Z</time>
      </trkpt>
      <trkpt lat="48.71594" lon="2.47857">
        <ele>38</ele>
        <time>2020-12-10T16:36:16.632Z</time>
      </trkpt>
      <trkpt lat="48.71592" lon="2.47858">
        <ele>38</ele>
        <time>2020-12-10T16:36:21.615Z</time>
      </trkpt>
      <trkpt lat="48.71587" lon="2.47854">
        <ele>38</ele>
        <time>2020-12-10T16:36:26.602Z</time>
      </trkpt>
      <trkpt lat="48.71582" lon="2.47854">
        <ele>38</ele>
        <time>2020-12-10T16:36:31.618Z</time>
      </trkpt>
      <trkpt lat="48.71577" lon="2.4786">
        <ele>38</ele>
        <time>2020-12-10T16:36:36.615Z</time>
      </trkpt>
      <trkpt lat="48.71575" lon="2.47867">
        <ele>38</ele>
        <time>2020-12-10T16:36:41.614Z</time>
      </trkpt>
      <trkpt lat="48.7157" lon="2.47874">
        <ele>38</ele>
        <time>2020-12-10T16:36:46.610Z</time>
      </trkpt>
      <trkpt lat="48.71561" lon="2.4787">
        <ele>37</ele>
        <time>2020-12-10T16:36:51.601Z</time>
      </trkpt>
      <trkpt lat="48.7155" lon="2.47867">
        <ele>37</ele>
        <time>2020-12-10T16:36:56.601Z</time>
      </trkpt>
      <trkpt lat="48.71541" lon="2.47867">
        <ele>37</ele>
        <time>2020-12-10T16:37:01.607Z</time>
      </trkpt>
      <trkpt lat="48.7154" lon="2.47868">
        <ele>37</ele>
        <time>2020-12-10T16:37:06.623Z</time>
      </trkpt>
      <trkpt lat="48.71532" lon="2.47867">
        <ele>37</ele>
        <time>2020-12-10T16:37:11.617Z</time>
      </trkpt>
      <trkpt lat="48.71523" lon="2.4787">
        <ele>37</ele>
        <time>2020-12-10T16:37:16.602Z</time>
      </trkpt>
      <trkpt lat="48.71515" lon="2.47871">
        <ele>37</ele>
        <time>2020-12-10T16:37:21.600Z</time>
      </trkpt>
      <trkpt lat="48.71508" lon="2.47874">
        <ele>38</ele>
        <time>2020-12-10T16:37:26.606Z</time>
      </trkpt>
      <trkpt lat="48.71503" lon="2.47877">
        <ele>38</ele>
        <time>2020-12-10T16:37:31.596Z</time>
      </trkpt>
      <trkpt lat="48.71499" lon="2.47879">
        <ele>38</ele>
        <time>2020-12-10T16:37:36.596Z</time>
      </trkpt>
      <trkpt lat="48.71496" lon="2.47879">
        <ele>38</ele>
        <time>2020-12-10T16:37:40.607Z</time>
      </trkpt>
      <trkpt lat="48.71489" lon="2.47881">
        <ele>38</ele>
        <time>2020-12-10T16:37:45.587Z</time>
      </trkpt>
      <trkpt lat="48.71483" lon="2.47882">
        <ele>38</ele>
        <time>2020-12-10T16:37:50.623Z</time>
      </trkpt>
      <trkpt lat="48.71472" lon="2.4789">
        <ele>38</ele>
        <time>2020-12-10T16:38:39.576Z</time>
      </trkpt>
      <trkpt lat="48.71472" lon="2.4789">
        <ele>38</ele>
        <time>2020-12-10T16:38:44.578Z</time>
      </trkpt>
      <trkpt lat="48.71472" lon="2.47891">
        <ele>38</ele>
        <time>2020-12-10T16:38:48.615Z</time>
      </trkpt>
      <trkpt lat="48.71471" lon="2.47891">
        <ele>38</ele>
        <time>2020-12-10T16:38:53.600Z</time>
      </trkpt>
      <trkpt lat="48.71471" lon="2.47891">
        <ele>38</ele>
        <time>2020-12-10T16:38:58.582Z</time>
      </trkpt>
    </trkseg>
  </trk>
</gpx>